<?xml version="1.0" encoding="UTF-8" standalone="no" ?>
<gpx xmlns="http://www.topografix.com/GPX/1/1" xmlns:xsi="http://www.w3.org/2001/XMLSchema-instance" xsi:schemaLocation="http://www.topografix.com/GPX/1/1 http://www.topografix.com/GPX/1/1/gpx.xsd" version="1.1" creator="VisuGPX - https://www.visugpx.com">
  <metadata>
    <name>mrt sortie du 10 06 2016</name>
    <desc><![CDATA[guerledan tregnanton ]]></desc>
  </metadata>
  <trk>
    <name><![CDATA[mrt sortie du 10 06 2016_1]]></name>
    <trkseg>
      <trkpt lat="48.19938" lon="-3.00982">
        <ele>150</ele>
        <time>2015-06-10T07:43:20Z</time>
      </trkpt>
      <trkpt lat="48.1991" lon="-3.00969">
        <ele>152</ele>
        <time>2015-06-10T07:43:41Z</time>
      </trkpt>
      <trkpt lat="48.19908" lon="-3.00968">
        <ele>152</ele>
        <time>2015-06-10T07:43:43Z</time>
      </trkpt>
      <trkpt lat="48.19905" lon="-3.00967">
        <ele>152</ele>
        <time>2015-06-10T07:43:46Z</time>
      </trkpt>
      <trkpt lat="48.19902" lon="-3.00966">
        <ele>152</ele>
        <time>2015-06-10T07:43:48Z</time>
      </trkpt>
      <trkpt lat="48.19899" lon="-3.00964">
        <ele>152</ele>
        <time>2015-06-10T07:43:50Z</time>
      </trkpt>
      <trkpt lat="48.19896" lon="-3.00963">
        <ele>152</ele>
        <time>2015-06-10T07:43:52Z</time>
      </trkpt>
      <trkpt lat="48.19893" lon="-3.00961">
        <ele>152</ele>
        <time>2015-06-10T07:43:54Z</time>
      </trkpt>
      <trkpt lat="48.19891" lon="-3.0096">
        <ele>151</ele>
        <time>2015-06-10T07:43:56Z</time>
      </trkpt>
      <trkpt lat="48.19888" lon="-3.00959">
        <ele>150</ele>
        <time>2015-06-10T07:43:58Z</time>
      </trkpt>
      <trkpt lat="48.19885" lon="-3.00957">
        <ele>150</ele>
        <time>2015-06-10T07:44:00Z</time>
      </trkpt>
      <trkpt lat="48.19882" lon="-3.00956">
        <ele>150</ele>
        <time>2015-06-10T07:44:02Z</time>
      </trkpt>
      <trkpt lat="48.19879" lon="-3.00955">
        <ele>150</ele>
        <time>2015-06-10T07:44:04Z</time>
      </trkpt>
      <trkpt lat="48.19877" lon="-3.00952">
        <ele>150</ele>
        <time>2015-06-10T07:44:06Z</time>
      </trkpt>
      <trkpt lat="48.19874" lon="-3.00951">
        <ele>150</ele>
        <time>2015-06-10T07:44:08Z</time>
      </trkpt>
      <trkpt lat="48.19872" lon="-3.00951">
        <ele>149</ele>
        <time>2015-06-10T07:44:10Z</time>
      </trkpt>
      <trkpt lat="48.19868" lon="-3.0095">
        <ele>149</ele>
        <time>2015-06-10T07:44:12Z</time>
      </trkpt>
      <trkpt lat="48.19865" lon="-3.00948">
        <ele>149</ele>
        <time>2015-06-10T07:44:14Z</time>
      </trkpt>
      <trkpt lat="48.19862" lon="-3.00947">
        <ele>149</ele>
        <time>2015-06-10T07:44:16Z</time>
      </trkpt>
      <trkpt lat="48.1986" lon="-3.00945">
        <ele>149</ele>
        <time>2015-06-10T07:44:18Z</time>
      </trkpt>
      <trkpt lat="48.19857" lon="-3.00943">
        <ele>149</ele>
        <time>2015-06-10T07:44:20Z</time>
      </trkpt>
      <trkpt lat="48.19854" lon="-3.00942">
        <ele>149</ele>
        <time>2015-06-10T07:44:22Z</time>
      </trkpt>
      <trkpt lat="48.19851" lon="-3.0094">
        <ele>149</ele>
        <time>2015-06-10T07:44:24Z</time>
      </trkpt>
      <trkpt lat="48.19848" lon="-3.00939">
        <ele>149</ele>
        <time>2015-06-10T07:44:26Z</time>
      </trkpt>
      <trkpt lat="48.19845" lon="-3.00938">
        <ele>149</ele>
        <time>2015-06-10T07:44:28Z</time>
      </trkpt>
      <trkpt lat="48.19842" lon="-3.00936">
        <ele>148</ele>
        <time>2015-06-10T07:44:30Z</time>
      </trkpt>
      <trkpt lat="48.1984" lon="-3.00935">
        <ele>148</ele>
        <time>2015-06-10T07:44:32Z</time>
      </trkpt>
      <trkpt lat="48.19837" lon="-3.00933">
        <ele>147</ele>
        <time>2015-06-10T07:44:34Z</time>
      </trkpt>
      <trkpt lat="48.19834" lon="-3.00932">
        <ele>147</ele>
        <time>2015-06-10T07:44:36Z</time>
      </trkpt>
      <trkpt lat="48.19831" lon="-3.00931">
        <ele>147</ele>
        <time>2015-06-10T07:44:38Z</time>
      </trkpt>
      <trkpt lat="48.19828" lon="-3.0093">
        <ele>147</ele>
        <time>2015-06-10T07:44:40Z</time>
      </trkpt>
      <trkpt lat="48.19825" lon="-3.00929">
        <ele>147</ele>
        <time>2015-06-10T07:44:42Z</time>
      </trkpt>
      <trkpt lat="48.19822" lon="-3.00928">
        <ele>147</ele>
        <time>2015-06-10T07:44:44Z</time>
      </trkpt>
      <trkpt lat="48.19819" lon="-3.00927">
        <ele>147</ele>
        <time>2015-06-10T07:44:46Z</time>
      </trkpt>
      <trkpt lat="48.19816" lon="-3.00927">
        <ele>147</ele>
        <time>2015-06-10T07:44:48Z</time>
      </trkpt>
      <trkpt lat="48.19813" lon="-3.00926">
        <ele>147</ele>
        <time>2015-06-10T07:44:50Z</time>
      </trkpt>
      <trkpt lat="48.1981" lon="-3.00925">
        <ele>147</ele>
        <time>2015-06-10T07:44:52Z</time>
      </trkpt>
      <trkpt lat="48.19807" lon="-3.00926">
        <ele>147</ele>
        <time>2015-06-10T07:44:54Z</time>
      </trkpt>
      <trkpt lat="48.19804" lon="-3.00926">
        <ele>147</ele>
        <time>2015-06-10T07:44:56Z</time>
      </trkpt>
      <trkpt lat="48.19801" lon="-3.00925">
        <ele>147</ele>
        <time>2015-06-10T07:44:58Z</time>
      </trkpt>
      <trkpt lat="48.19798" lon="-3.00925">
        <ele>147</ele>
        <time>2015-06-10T07:45:00Z</time>
      </trkpt>
      <trkpt lat="48.19796" lon="-3.00926">
        <ele>147</ele>
        <time>2015-06-10T07:45:02Z</time>
      </trkpt>
      <trkpt lat="48.19793" lon="-3.00927">
        <ele>147</ele>
        <time>2015-06-10T07:45:04Z</time>
      </trkpt>
      <trkpt lat="48.19789" lon="-3.00927">
        <ele>147</ele>
        <time>2015-06-10T07:45:06Z</time>
      </trkpt>
      <trkpt lat="48.19786" lon="-3.00928">
        <ele>147</ele>
        <time>2015-06-10T07:45:08Z</time>
      </trkpt>
      <trkpt lat="48.19783" lon="-3.00928">
        <ele>147</ele>
        <time>2015-06-10T07:45:10Z</time>
      </trkpt>
      <trkpt lat="48.19781" lon="-3.00927">
        <ele>146</ele>
        <time>2015-06-10T07:45:12Z</time>
      </trkpt>
      <trkpt lat="48.19779" lon="-3.00928">
        <ele>145</ele>
        <time>2015-06-10T07:45:14Z</time>
      </trkpt>
      <trkpt lat="48.19776" lon="-3.0093">
        <ele>145</ele>
        <time>2015-06-10T07:45:16Z</time>
      </trkpt>
      <trkpt lat="48.19774" lon="-3.00932">
        <ele>145</ele>
        <time>2015-06-10T07:45:18Z</time>
      </trkpt>
      <trkpt lat="48.19773" lon="-3.00934">
        <ele>144</ele>
        <time>2015-06-10T07:45:20Z</time>
      </trkpt>
      <trkpt lat="48.19772" lon="-3.00939">
        <ele>143</ele>
        <time>2015-06-10T07:45:22Z</time>
      </trkpt>
      <trkpt lat="48.19772" lon="-3.00944">
        <ele>142</ele>
        <time>2015-06-10T07:45:24Z</time>
      </trkpt>
      <trkpt lat="48.19771" lon="-3.00948">
        <ele>142</ele>
        <time>2015-06-10T07:45:26Z</time>
      </trkpt>
      <trkpt lat="48.19772" lon="-3.00953">
        <ele>141</ele>
        <time>2015-06-10T07:45:28Z</time>
      </trkpt>
      <trkpt lat="48.19773" lon="-3.00957">
        <ele>141</ele>
        <time>2015-06-10T07:45:30Z</time>
      </trkpt>
      <trkpt lat="48.19774" lon="-3.00961">
        <ele>141</ele>
        <time>2015-06-10T07:45:32Z</time>
      </trkpt>
      <trkpt lat="48.19776" lon="-3.00968">
        <ele>140</ele>
        <time>2015-06-10T07:45:36Z</time>
      </trkpt>
      <trkpt lat="48.19777" lon="-3.00973">
        <ele>140</ele>
        <time>2015-06-10T07:45:38Z</time>
      </trkpt>
      <trkpt lat="48.19777" lon="-3.00977">
        <ele>140</ele>
        <time>2015-06-10T07:45:40Z</time>
      </trkpt>
      <trkpt lat="48.19777" lon="-3.00982">
        <ele>140</ele>
        <time>2015-06-10T07:45:42Z</time>
      </trkpt>
      <trkpt lat="48.19775" lon="-3.00985">
        <ele>140</ele>
        <time>2015-06-10T07:45:44Z</time>
      </trkpt>
      <trkpt lat="48.19773" lon="-3.00989">
        <ele>140</ele>
        <time>2015-06-10T07:45:46Z</time>
      </trkpt>
      <trkpt lat="48.19771" lon="-3.00992">
        <ele>140</ele>
        <time>2015-06-10T07:45:48Z</time>
      </trkpt>
      <trkpt lat="48.19769" lon="-3.00995">
        <ele>140</ele>
        <time>2015-06-10T07:45:50Z</time>
      </trkpt>
      <trkpt lat="48.19765" lon="-3.00999">
        <ele>140</ele>
        <time>2015-06-10T07:45:52Z</time>
      </trkpt>
      <trkpt lat="48.19762" lon="-3.01003">
        <ele>140</ele>
        <time>2015-06-10T07:45:54Z</time>
      </trkpt>
      <trkpt lat="48.19759" lon="-3.01005">
        <ele>142</ele>
        <time>2015-06-10T07:45:56Z</time>
      </trkpt>
      <trkpt lat="48.19756" lon="-3.01009">
        <ele>143</ele>
        <time>2015-06-10T07:45:58Z</time>
      </trkpt>
      <trkpt lat="48.19754" lon="-3.01012">
        <ele>143</ele>
        <time>2015-06-10T07:46:00Z</time>
      </trkpt>
      <trkpt lat="48.19752" lon="-3.01015">
        <ele>143</ele>
        <time>2015-06-10T07:46:02Z</time>
      </trkpt>
      <trkpt lat="48.19749" lon="-3.01018">
        <ele>143</ele>
        <time>2015-06-10T07:46:04Z</time>
      </trkpt>
      <trkpt lat="48.19747" lon="-3.01024">
        <ele>144</ele>
        <time>2015-06-10T07:46:06Z</time>
      </trkpt>
      <trkpt lat="48.19744" lon="-3.0103">
        <ele>146</ele>
        <time>2015-06-10T07:46:08Z</time>
      </trkpt>
      <trkpt lat="48.19741" lon="-3.01035">
        <ele>147</ele>
        <time>2015-06-10T07:46:10Z</time>
      </trkpt>
      <trkpt lat="48.19739" lon="-3.0104">
        <ele>149</ele>
        <time>2015-06-10T07:46:12Z</time>
      </trkpt>
      <trkpt lat="48.19738" lon="-3.01042">
        <ele>150</ele>
        <time>2015-06-10T07:46:14Z</time>
      </trkpt>
      <trkpt lat="48.19735" lon="-3.01046">
        <ele>150</ele>
        <time>2015-06-10T07:46:17Z</time>
      </trkpt>
      <trkpt lat="48.19735" lon="-3.0105">
        <ele>150</ele>
        <time>2015-06-10T07:46:19Z</time>
      </trkpt>
      <trkpt lat="48.19735" lon="-3.01053">
        <ele>150</ele>
        <time>2015-06-10T07:46:21Z</time>
      </trkpt>
      <trkpt lat="48.19735" lon="-3.01057">
        <ele>148</ele>
        <time>2015-06-10T07:46:23Z</time>
      </trkpt>
      <trkpt lat="48.19735" lon="-3.01061">
        <ele>147</ele>
        <time>2015-06-10T07:46:25Z</time>
      </trkpt>
      <trkpt lat="48.19736" lon="-3.01065">
        <ele>147</ele>
        <time>2015-06-10T07:46:27Z</time>
      </trkpt>
      <trkpt lat="48.19737" lon="-3.01069">
        <ele>146</ele>
        <time>2015-06-10T07:46:29Z</time>
      </trkpt>
      <trkpt lat="48.19738" lon="-3.01074">
        <ele>145</ele>
        <time>2015-06-10T07:46:31Z</time>
      </trkpt>
      <trkpt lat="48.1974" lon="-3.01078">
        <ele>145</ele>
        <time>2015-06-10T07:46:33Z</time>
      </trkpt>
      <trkpt lat="48.1974" lon="-3.01082">
        <ele>145</ele>
        <time>2015-06-10T07:46:35Z</time>
      </trkpt>
      <trkpt lat="48.19741" lon="-3.01085">
        <ele>145</ele>
        <time>2015-06-10T07:46:37Z</time>
      </trkpt>
      <trkpt lat="48.19741" lon="-3.0109">
        <ele>145</ele>
        <time>2015-06-10T07:46:39Z</time>
      </trkpt>
      <trkpt lat="48.19741" lon="-3.01095">
        <ele>145</ele>
        <time>2015-06-10T07:46:41Z</time>
      </trkpt>
      <trkpt lat="48.19741" lon="-3.01099">
        <ele>145</ele>
        <time>2015-06-10T07:46:43Z</time>
      </trkpt>
      <trkpt lat="48.1974" lon="-3.01103">
        <ele>145</ele>
        <time>2015-06-10T07:46:45Z</time>
      </trkpt>
      <trkpt lat="48.19741" lon="-3.01107">
        <ele>145</ele>
        <time>2015-06-10T07:46:47Z</time>
      </trkpt>
      <trkpt lat="48.19742" lon="-3.01111">
        <ele>145</ele>
        <time>2015-06-10T07:46:49Z</time>
      </trkpt>
      <trkpt lat="48.19742" lon="-3.01116">
        <ele>143</ele>
        <time>2015-06-10T07:46:51Z</time>
      </trkpt>
      <trkpt lat="48.19743" lon="-3.0112">
        <ele>141</ele>
        <time>2015-06-10T07:46:53Z</time>
      </trkpt>
      <trkpt lat="48.19744" lon="-3.01124">
        <ele>140</ele>
        <time>2015-06-10T07:46:55Z</time>
      </trkpt>
      <trkpt lat="48.19744" lon="-3.01128">
        <ele>140</ele>
        <time>2015-06-10T07:46:57Z</time>
      </trkpt>
      <trkpt lat="48.19745" lon="-3.01132">
        <ele>140</ele>
        <time>2015-06-10T07:46:59Z</time>
      </trkpt>
      <trkpt lat="48.19745" lon="-3.01137">
        <ele>139</ele>
        <time>2015-06-10T07:47:01Z</time>
      </trkpt>
      <trkpt lat="48.19745" lon="-3.01141">
        <ele>139</ele>
        <time>2015-06-10T07:47:03Z</time>
      </trkpt>
      <trkpt lat="48.19746" lon="-3.01145">
        <ele>138</ele>
        <time>2015-06-10T07:47:05Z</time>
      </trkpt>
      <trkpt lat="48.19748" lon="-3.01149">
        <ele>138</ele>
        <time>2015-06-10T07:47:07Z</time>
      </trkpt>
      <trkpt lat="48.19749" lon="-3.01153">
        <ele>137</ele>
        <time>2015-06-10T07:47:09Z</time>
      </trkpt>
      <trkpt lat="48.19749" lon="-3.01157">
        <ele>137</ele>
        <time>2015-06-10T07:47:11Z</time>
      </trkpt>
      <trkpt lat="48.19748" lon="-3.01161">
        <ele>136</ele>
        <time>2015-06-10T07:47:13Z</time>
      </trkpt>
      <trkpt lat="48.19747" lon="-3.01166">
        <ele>136</ele>
        <time>2015-06-10T07:47:15Z</time>
      </trkpt>
      <trkpt lat="48.19747" lon="-3.0117">
        <ele>136</ele>
        <time>2015-06-10T07:47:17Z</time>
      </trkpt>
      <trkpt lat="48.19747" lon="-3.01174">
        <ele>136</ele>
        <time>2015-06-10T07:47:19Z</time>
      </trkpt>
      <trkpt lat="48.19749" lon="-3.01178">
        <ele>135</ele>
        <time>2015-06-10T07:47:21Z</time>
      </trkpt>
      <trkpt lat="48.1975" lon="-3.01182">
        <ele>133</ele>
        <time>2015-06-10T07:47:23Z</time>
      </trkpt>
      <trkpt lat="48.19752" lon="-3.01185">
        <ele>132</ele>
        <time>2015-06-10T07:47:25Z</time>
      </trkpt>
      <trkpt lat="48.19754" lon="-3.01188">
        <ele>132</ele>
        <time>2015-06-10T07:47:27Z</time>
      </trkpt>
      <trkpt lat="48.19756" lon="-3.01191">
        <ele>132</ele>
        <time>2015-06-10T07:47:29Z</time>
      </trkpt>
      <trkpt lat="48.19759" lon="-3.01195">
        <ele>131</ele>
        <time>2015-06-10T07:47:32Z</time>
      </trkpt>
      <trkpt lat="48.19762" lon="-3.01197">
        <ele>131</ele>
        <time>2015-06-10T07:47:34Z</time>
      </trkpt>
      <trkpt lat="48.19764" lon="-3.012">
        <ele>130</ele>
        <time>2015-06-10T07:47:36Z</time>
      </trkpt>
      <trkpt lat="48.19766" lon="-3.01204">
        <ele>129</ele>
        <time>2015-06-10T07:47:38Z</time>
      </trkpt>
      <trkpt lat="48.19768" lon="-3.01206">
        <ele>128</ele>
        <time>2015-06-10T07:47:40Z</time>
      </trkpt>
      <trkpt lat="48.1977" lon="-3.01208">
        <ele>128</ele>
        <time>2015-06-10T07:47:42Z</time>
      </trkpt>
      <trkpt lat="48.19772" lon="-3.01209">
        <ele>128</ele>
        <time>2015-06-10T07:47:44Z</time>
      </trkpt>
      <trkpt lat="48.19773" lon="-3.01211">
        <ele>127</ele>
        <time>2015-06-10T07:48:13Z</time>
      </trkpt>
      <trkpt lat="48.19775" lon="-3.01214">
        <ele>127</ele>
        <time>2015-06-10T07:48:15Z</time>
      </trkpt>
      <trkpt lat="48.19776" lon="-3.01216">
        <ele>127</ele>
        <time>2015-06-10T07:48:17Z</time>
      </trkpt>
      <trkpt lat="48.19778" lon="-3.01218">
        <ele>127</ele>
        <time>2015-06-10T07:48:19Z</time>
      </trkpt>
      <trkpt lat="48.1978" lon="-3.0122">
        <ele>127</ele>
        <time>2015-06-10T07:48:21Z</time>
      </trkpt>
      <trkpt lat="48.19782" lon="-3.01221">
        <ele>127</ele>
        <time>2015-06-10T07:48:23Z</time>
      </trkpt>
      <trkpt lat="48.19784" lon="-3.01221">
        <ele>127</ele>
        <time>2015-06-10T07:48:25Z</time>
      </trkpt>
      <trkpt lat="48.19785" lon="-3.01223">
        <ele>126</ele>
        <time>2015-06-10T07:48:28Z</time>
      </trkpt>
      <trkpt lat="48.19786" lon="-3.01226">
        <ele>126</ele>
        <time>2015-06-10T07:48:30Z</time>
      </trkpt>
      <trkpt lat="48.19785" lon="-3.01228">
        <ele>126</ele>
        <time>2015-06-10T07:48:32Z</time>
      </trkpt>
      <trkpt lat="48.19784" lon="-3.01229">
        <ele>126</ele>
        <time>2015-06-10T07:48:36Z</time>
      </trkpt>
      <trkpt lat="48.19783" lon="-3.01231">
        <ele>126</ele>
        <time>2015-06-10T07:48:38Z</time>
      </trkpt>
      <trkpt lat="48.19782" lon="-3.01232">
        <ele>126</ele>
        <time>2015-06-10T07:48:40Z</time>
      </trkpt>
      <trkpt lat="48.19779" lon="-3.01234">
        <ele>126</ele>
        <time>2015-06-10T07:48:42Z</time>
      </trkpt>
      <trkpt lat="48.19778" lon="-3.01233">
        <ele>126</ele>
        <time>2015-06-10T07:48:45Z</time>
      </trkpt>
      <trkpt lat="48.19777" lon="-3.01233">
        <ele>124</ele>
        <time>2015-06-10T07:48:48Z</time>
      </trkpt>
      <trkpt lat="48.19776" lon="-3.01235">
        <ele>123</ele>
        <time>2015-06-10T07:48:50Z</time>
      </trkpt>
      <trkpt lat="48.19775" lon="-3.01237">
        <ele>122</ele>
        <time>2015-06-10T07:48:52Z</time>
      </trkpt>
      <trkpt lat="48.19773" lon="-3.01239">
        <ele>122</ele>
        <time>2015-06-10T07:48:54Z</time>
      </trkpt>
      <trkpt lat="48.19772" lon="-3.01242">
        <ele>122</ele>
        <time>2015-06-10T07:48:56Z</time>
      </trkpt>
      <trkpt lat="48.19771" lon="-3.01247">
        <ele>122</ele>
        <time>2015-06-10T07:48:58Z</time>
      </trkpt>
      <trkpt lat="48.19771" lon="-3.0125">
        <ele>122</ele>
        <time>2015-06-10T07:49:00Z</time>
      </trkpt>
      <trkpt lat="48.19769" lon="-3.01253">
        <ele>124</ele>
        <time>2015-06-10T07:49:03Z</time>
      </trkpt>
      <trkpt lat="48.19769" lon="-3.01251">
        <ele>126</ele>
        <time>2015-06-10T07:49:05Z</time>
      </trkpt>
      <trkpt lat="48.19769" lon="-3.01249">
        <ele>128</ele>
        <time>2015-06-10T07:49:08Z</time>
      </trkpt>
      <trkpt lat="48.19771" lon="-3.01249">
        <ele>129</ele>
        <time>2015-06-10T07:49:11Z</time>
      </trkpt>
      <trkpt lat="48.19773" lon="-3.01244">
        <ele>129</ele>
        <time>2015-06-10T07:49:14Z</time>
      </trkpt>
      <trkpt lat="48.19774" lon="-3.01241">
        <ele>127</ele>
        <time>2015-06-10T07:49:19Z</time>
      </trkpt>
      <trkpt lat="48.19776" lon="-3.01241">
        <ele>125</ele>
        <time>2015-06-10T07:49:21Z</time>
      </trkpt>
      <trkpt lat="48.19777" lon="-3.01243">
        <ele>122</ele>
        <time>2015-06-10T07:49:25Z</time>
      </trkpt>
      <trkpt lat="48.19779" lon="-3.01241">
        <ele>122</ele>
        <time>2015-06-10T07:49:27Z</time>
      </trkpt>
      <trkpt lat="48.19779" lon="-3.01244">
        <ele>122</ele>
        <time>2015-06-10T07:49:29Z</time>
      </trkpt>
      <trkpt lat="48.19778" lon="-3.01246">
        <ele>122</ele>
        <time>2015-06-10T07:49:31Z</time>
      </trkpt>
      <trkpt lat="48.19778" lon="-3.0125">
        <ele>124</ele>
        <time>2015-06-10T07:49:33Z</time>
      </trkpt>
      <trkpt lat="48.19778" lon="-3.01252">
        <ele>127</ele>
        <time>2015-06-10T07:49:35Z</time>
      </trkpt>
      <trkpt lat="48.19776" lon="-3.01256">
        <ele>137</ele>
        <time>2015-06-10T07:49:41Z</time>
      </trkpt>
      <trkpt lat="48.19776" lon="-3.01254">
        <ele>140</ele>
        <time>2015-06-10T07:49:44Z</time>
      </trkpt>
      <trkpt lat="48.19776" lon="-3.01251">
        <ele>140</ele>
        <time>2015-06-10T07:49:47Z</time>
      </trkpt>
      <trkpt lat="48.19776" lon="-3.01248">
        <ele>140</ele>
        <time>2015-06-10T07:49:49Z</time>
      </trkpt>
      <trkpt lat="48.19776" lon="-3.01246">
        <ele>140</ele>
        <time>2015-06-10T07:49:51Z</time>
      </trkpt>
      <trkpt lat="48.19777" lon="-3.01242">
        <ele>138</ele>
        <time>2015-06-10T07:49:57Z</time>
      </trkpt>
      <trkpt lat="48.19778" lon="-3.0124">
        <ele>136</ele>
        <time>2015-06-10T07:49:59Z</time>
      </trkpt>
      <trkpt lat="48.19778" lon="-3.01235">
        <ele>133</ele>
        <time>2015-06-10T07:50:02Z</time>
      </trkpt>
      <trkpt lat="48.19776" lon="-3.01235">
        <ele>129</ele>
        <time>2015-06-10T07:50:06Z</time>
      </trkpt>
      <trkpt lat="48.19774" lon="-3.01238">
        <ele>126</ele>
        <time>2015-06-10T07:50:09Z</time>
      </trkpt>
      <trkpt lat="48.19773" lon="-3.01239">
        <ele>124</ele>
        <time>2015-06-10T07:50:15Z</time>
      </trkpt>
      <trkpt lat="48.19773" lon="-3.01237">
        <ele>121</ele>
        <time>2015-06-10T07:50:20Z</time>
      </trkpt>
      <trkpt lat="48.19773" lon="-3.01235">
        <ele>119</ele>
        <time>2015-06-10T07:50:22Z</time>
      </trkpt>
      <trkpt lat="48.19772" lon="-3.01236">
        <ele>117</ele>
        <time>2015-06-10T07:50:24Z</time>
      </trkpt>
      <trkpt lat="48.19774" lon="-3.01234">
        <ele>115</ele>
        <time>2015-06-10T07:50:26Z</time>
      </trkpt>
      <trkpt lat="48.19775" lon="-3.01234">
        <ele>112</ele>
        <time>2015-06-10T07:50:29Z</time>
      </trkpt>
      <trkpt lat="48.19775" lon="-3.01237">
        <ele>111</ele>
        <time>2015-06-10T07:50:32Z</time>
      </trkpt>
      <trkpt lat="48.19776" lon="-3.01236">
        <ele>111</ele>
        <time>2015-06-10T07:50:35Z</time>
      </trkpt>
      <trkpt lat="48.19778" lon="-3.01233">
        <ele>109</ele>
        <time>2015-06-10T07:50:41Z</time>
      </trkpt>
      <trkpt lat="48.19779" lon="-3.01231">
        <ele>109</ele>
        <time>2015-06-10T07:50:43Z</time>
      </trkpt>
      <trkpt lat="48.1978" lon="-3.0123">
        <ele>107</ele>
        <time>2015-06-10T07:50:46Z</time>
      </trkpt>
      <trkpt lat="48.19781" lon="-3.01233">
        <ele>106</ele>
        <time>2015-06-10T07:50:51Z</time>
      </trkpt>
      <trkpt lat="48.19782" lon="-3.01234">
        <ele>106</ele>
        <time>2015-06-10T07:50:55Z</time>
      </trkpt>
      <trkpt lat="48.19783" lon="-3.01233">
        <ele>106</ele>
        <time>2015-06-10T07:50:58Z</time>
      </trkpt>
      <trkpt lat="48.19785" lon="-3.01232">
        <ele>104</ele>
        <time>2015-06-10T07:51:00Z</time>
      </trkpt>
      <trkpt lat="48.19784" lon="-3.01233">
        <ele>100</ele>
        <time>2015-06-10T07:51:06Z</time>
      </trkpt>
      <trkpt lat="48.19785" lon="-3.01233">
        <ele>100</ele>
        <time>2015-06-10T07:51:09Z</time>
      </trkpt>
      <trkpt lat="48.19786" lon="-3.01234">
        <ele>100</ele>
        <time>2015-06-10T07:51:13Z</time>
      </trkpt>
      <trkpt lat="48.19785" lon="-3.01237">
        <ele>103</ele>
        <time>2015-06-10T07:51:21Z</time>
      </trkpt>
      <trkpt lat="48.19784" lon="-3.01238">
        <ele>107</ele>
        <time>2015-06-10T07:51:24Z</time>
      </trkpt>
      <trkpt lat="48.19783" lon="-3.01241">
        <ele>111</ele>
        <time>2015-06-10T07:51:26Z</time>
      </trkpt>
      <trkpt lat="48.1978" lon="-3.01243">
        <ele>113</ele>
        <time>2015-06-10T07:51:29Z</time>
      </trkpt>
      <trkpt lat="48.1978" lon="-3.01244">
        <ele>118</ele>
        <time>2015-06-10T07:51:34Z</time>
      </trkpt>
      <trkpt lat="48.19782" lon="-3.01239">
        <ele>110</ele>
        <time>2015-06-10T07:51:46Z</time>
      </trkpt>
      <trkpt lat="48.19783" lon="-3.01237">
        <ele>108</ele>
        <time>2015-06-10T07:51:48Z</time>
      </trkpt>
      <trkpt lat="48.19783" lon="-3.01237">
        <ele>103</ele>
        <time>2015-06-10T07:51:53Z</time>
      </trkpt>
      <trkpt lat="48.19783" lon="-3.01239">
        <ele>104</ele>
        <time>2015-06-10T07:51:58Z</time>
      </trkpt>
      <trkpt lat="48.19781" lon="-3.0124">
        <ele>108</ele>
        <time>2015-06-10T07:52:03Z</time>
      </trkpt>
      <trkpt lat="48.19778" lon="-3.0124">
        <ele>111</ele>
        <time>2015-06-10T07:52:07Z</time>
      </trkpt>
      <trkpt lat="48.19778" lon="-3.01237">
        <ele>114</ele>
        <time>2015-06-10T07:52:11Z</time>
      </trkpt>
      <trkpt lat="48.1978" lon="-3.01234">
        <ele>114</ele>
        <time>2015-06-10T07:52:14Z</time>
      </trkpt>
      <trkpt lat="48.19779" lon="-3.01232">
        <ele>114</ele>
        <time>2015-06-10T07:52:17Z</time>
      </trkpt>
      <trkpt lat="48.19781" lon="-3.01231">
        <ele>114</ele>
        <time>2015-06-10T07:52:20Z</time>
      </trkpt>
      <trkpt lat="48.19781" lon="-3.01229">
        <ele>115</ele>
        <time>2015-06-10T07:52:24Z</time>
      </trkpt>
      <trkpt lat="48.1978" lon="-3.01229">
        <ele>117</ele>
        <time>2015-06-10T07:52:26Z</time>
      </trkpt>
      <trkpt lat="48.19779" lon="-3.01227">
        <ele>120</ele>
        <time>2015-06-10T07:52:29Z</time>
      </trkpt>
      <trkpt lat="48.19779" lon="-3.01225">
        <ele>120</ele>
        <time>2015-06-10T07:52:32Z</time>
      </trkpt>
      <trkpt lat="48.19778" lon="-3.01223">
        <ele>121</ele>
        <time>2015-06-10T07:52:36Z</time>
      </trkpt>
      <trkpt lat="48.1978" lon="-3.01222">
        <ele>121</ele>
        <time>2015-06-10T07:52:40Z</time>
      </trkpt>
      <trkpt lat="48.19781" lon="-3.01221">
        <ele>121</ele>
        <time>2015-06-10T07:52:43Z</time>
      </trkpt>
      <trkpt lat="48.19782" lon="-3.0122">
        <ele>121</ele>
        <time>2015-06-10T07:52:47Z</time>
      </trkpt>
      <trkpt lat="48.19783" lon="-3.0122">
        <ele>121</ele>
        <time>2015-06-10T07:52:51Z</time>
      </trkpt>
      <trkpt lat="48.19776" lon="-3.01267">
        <ele>121</ele>
        <time>2015-06-10T07:53:19Z</time>
      </trkpt>
      <trkpt lat="48.19775" lon="-3.01263">
        <ele>121</ele>
        <time>2015-06-10T07:53:21Z</time>
      </trkpt>
      <trkpt lat="48.19775" lon="-3.0126">
        <ele>121</ele>
        <time>2015-06-10T07:53:23Z</time>
      </trkpt>
      <trkpt lat="48.19775" lon="-3.01256">
        <ele>121</ele>
        <time>2015-06-10T07:53:25Z</time>
      </trkpt>
      <trkpt lat="48.19775" lon="-3.01253">
        <ele>121</ele>
        <time>2015-06-10T07:53:27Z</time>
      </trkpt>
      <trkpt lat="48.19775" lon="-3.01251">
        <ele>121</ele>
        <time>2015-06-10T07:53:31Z</time>
      </trkpt>
      <trkpt lat="48.19775" lon="-3.01248">
        <ele>121</ele>
        <time>2015-06-10T07:53:33Z</time>
      </trkpt>
      <trkpt lat="48.19775" lon="-3.01244">
        <ele>121</ele>
        <time>2015-06-10T07:53:35Z</time>
      </trkpt>
      <trkpt lat="48.19777" lon="-3.01241">
        <ele>121</ele>
        <time>2015-06-10T07:53:37Z</time>
      </trkpt>
      <trkpt lat="48.19777" lon="-3.01238">
        <ele>121</ele>
        <time>2015-06-10T07:53:39Z</time>
      </trkpt>
      <trkpt lat="48.19778" lon="-3.01233">
        <ele>121</ele>
        <time>2015-06-10T07:53:42Z</time>
      </trkpt>
      <trkpt lat="48.19778" lon="-3.01229">
        <ele>121</ele>
        <time>2015-06-10T07:53:44Z</time>
      </trkpt>
      <trkpt lat="48.19778" lon="-3.01225">
        <ele>121</ele>
        <time>2015-06-10T07:53:46Z</time>
      </trkpt>
      <trkpt lat="48.19778" lon="-3.01222">
        <ele>121</ele>
        <time>2015-06-10T07:53:48Z</time>
      </trkpt>
      <trkpt lat="48.19778" lon="-3.01218">
        <ele>121</ele>
        <time>2015-06-10T07:53:50Z</time>
      </trkpt>
      <trkpt lat="48.1978" lon="-3.01213">
        <ele>121</ele>
        <time>2015-06-10T07:53:53Z</time>
      </trkpt>
      <trkpt lat="48.1978" lon="-3.0121">
        <ele>121</ele>
        <time>2015-06-10T07:53:55Z</time>
      </trkpt>
      <trkpt lat="48.1978" lon="-3.01207">
        <ele>121</ele>
        <time>2015-06-10T07:53:57Z</time>
      </trkpt>
      <trkpt lat="48.19781" lon="-3.01204">
        <ele>121</ele>
        <time>2015-06-10T07:53:59Z</time>
      </trkpt>
      <trkpt lat="48.19783" lon="-3.01201">
        <ele>121</ele>
        <time>2015-06-10T07:54:02Z</time>
      </trkpt>
      <trkpt lat="48.19784" lon="-3.01202">
        <ele>121</ele>
        <time>2015-06-10T07:54:04Z</time>
      </trkpt>
      <trkpt lat="48.19786" lon="-3.01204">
        <ele>121</ele>
        <time>2015-06-10T07:54:06Z</time>
      </trkpt>
      <trkpt lat="48.19787" lon="-3.01207">
        <ele>121</ele>
        <time>2015-06-10T07:54:08Z</time>
      </trkpt>
      <trkpt lat="48.19786" lon="-3.01206">
        <ele>121</ele>
        <time>2015-06-10T07:54:11Z</time>
      </trkpt>
      <trkpt lat="48.19785" lon="-3.01203">
        <ele>121</ele>
        <time>2015-06-10T07:54:13Z</time>
      </trkpt>
      <trkpt lat="48.19784" lon="-3.01201">
        <ele>121</ele>
        <time>2015-06-10T07:54:16Z</time>
      </trkpt>
      <trkpt lat="48.19785" lon="-3.01203">
        <ele>121</ele>
        <time>2015-06-10T07:54:19Z</time>
      </trkpt>
      <trkpt lat="48.19786" lon="-3.01206">
        <ele>121</ele>
        <time>2015-06-10T07:54:21Z</time>
      </trkpt>
      <trkpt lat="48.19788" lon="-3.01212">
        <ele>121</ele>
        <time>2015-06-10T07:54:24Z</time>
      </trkpt>
      <trkpt lat="48.19789" lon="-3.01216">
        <ele>121</ele>
        <time>2015-06-10T07:54:26Z</time>
      </trkpt>
      <trkpt lat="48.1979" lon="-3.0122">
        <ele>121</ele>
        <time>2015-06-10T07:54:28Z</time>
      </trkpt>
      <trkpt lat="48.19792" lon="-3.01224">
        <ele>121</ele>
        <time>2015-06-10T07:54:30Z</time>
      </trkpt>
      <trkpt lat="48.19793" lon="-3.01228">
        <ele>122</ele>
        <time>2015-06-10T07:54:32Z</time>
      </trkpt>
      <trkpt lat="48.19796" lon="-3.01232">
        <ele>123</ele>
        <time>2015-06-10T07:54:34Z</time>
      </trkpt>
      <trkpt lat="48.19797" lon="-3.01234">
        <ele>125</ele>
        <time>2015-06-10T07:54:36Z</time>
      </trkpt>
      <trkpt lat="48.19799" lon="-3.01236">
        <ele>125</ele>
        <time>2015-06-10T07:54:38Z</time>
      </trkpt>
      <trkpt lat="48.19799" lon="-3.01238">
        <ele>125</ele>
        <time>2015-06-10T07:54:40Z</time>
      </trkpt>
      <trkpt lat="48.19801" lon="-3.0124">
        <ele>126</ele>
        <time>2015-06-10T07:54:43Z</time>
      </trkpt>
      <trkpt lat="48.19802" lon="-3.01242">
        <ele>128</ele>
        <time>2015-06-10T07:54:45Z</time>
      </trkpt>
      <trkpt lat="48.19804" lon="-3.01243">
        <ele>130</ele>
        <time>2015-06-10T07:54:48Z</time>
      </trkpt>
      <trkpt lat="48.19805" lon="-3.01243">
        <ele>132</ele>
        <time>2015-06-10T07:54:50Z</time>
      </trkpt>
      <trkpt lat="48.19806" lon="-3.01245">
        <ele>134</ele>
        <time>2015-06-10T07:54:53Z</time>
      </trkpt>
      <trkpt lat="48.19807" lon="-3.01242">
        <ele>137</ele>
        <time>2015-06-10T07:54:57Z</time>
      </trkpt>
      <trkpt lat="48.19808" lon="-3.0124">
        <ele>137</ele>
        <time>2015-06-10T07:54:59Z</time>
      </trkpt>
      <trkpt lat="48.19809" lon="-3.01238">
        <ele>137</ele>
        <time>2015-06-10T07:55:02Z</time>
      </trkpt>
      <trkpt lat="48.19809" lon="-3.01235">
        <ele>137</ele>
        <time>2015-06-10T07:55:04Z</time>
      </trkpt>
      <trkpt lat="48.19811" lon="-3.01232">
        <ele>137</ele>
        <time>2015-06-10T07:55:06Z</time>
      </trkpt>
      <trkpt lat="48.19812" lon="-3.01231">
        <ele>137</ele>
        <time>2015-06-10T07:55:08Z</time>
      </trkpt>
      <trkpt lat="48.19813" lon="-3.01229">
        <ele>137</ele>
        <time>2015-06-10T07:55:10Z</time>
      </trkpt>
      <trkpt lat="48.19814" lon="-3.01227">
        <ele>137</ele>
        <time>2015-06-10T07:55:12Z</time>
      </trkpt>
      <trkpt lat="48.19815" lon="-3.01225">
        <ele>137</ele>
        <time>2015-06-10T07:55:15Z</time>
      </trkpt>
      <trkpt lat="48.19815" lon="-3.01223">
        <ele>138</ele>
        <time>2015-06-10T07:55:17Z</time>
      </trkpt>
      <trkpt lat="48.19816" lon="-3.0122">
        <ele>138</ele>
        <time>2015-06-10T07:55:19Z</time>
      </trkpt>
      <trkpt lat="48.19816" lon="-3.01218">
        <ele>138</ele>
        <time>2015-06-10T07:55:21Z</time>
      </trkpt>
      <trkpt lat="48.19817" lon="-3.01216">
        <ele>138</ele>
        <time>2015-06-10T07:55:23Z</time>
      </trkpt>
      <trkpt lat="48.19817" lon="-3.01214">
        <ele>138</ele>
        <time>2015-06-10T07:55:25Z</time>
      </trkpt>
      <trkpt lat="48.19819" lon="-3.01214">
        <ele>138</ele>
        <time>2015-06-10T07:55:27Z</time>
      </trkpt>
      <trkpt lat="48.1982" lon="-3.01216">
        <ele>138</ele>
        <time>2015-06-10T07:55:29Z</time>
      </trkpt>
      <trkpt lat="48.19822" lon="-3.0122">
        <ele>138</ele>
        <time>2015-06-10T07:55:31Z</time>
      </trkpt>
      <trkpt lat="48.19823" lon="-3.01224">
        <ele>138</ele>
        <time>2015-06-10T07:55:33Z</time>
      </trkpt>
      <trkpt lat="48.19825" lon="-3.01227">
        <ele>138</ele>
        <time>2015-06-10T07:55:35Z</time>
      </trkpt>
      <trkpt lat="48.19826" lon="-3.01231">
        <ele>138</ele>
        <time>2015-06-10T07:55:37Z</time>
      </trkpt>
      <trkpt lat="48.19828" lon="-3.01234">
        <ele>138</ele>
        <time>2015-06-10T07:55:39Z</time>
      </trkpt>
      <trkpt lat="48.19829" lon="-3.01237">
        <ele>138</ele>
        <time>2015-06-10T07:55:41Z</time>
      </trkpt>
      <trkpt lat="48.1983" lon="-3.01241">
        <ele>138</ele>
        <time>2015-06-10T07:55:43Z</time>
      </trkpt>
      <trkpt lat="48.19831" lon="-3.01245">
        <ele>138</ele>
        <time>2015-06-10T07:55:45Z</time>
      </trkpt>
      <trkpt lat="48.19832" lon="-3.01249">
        <ele>138</ele>
        <time>2015-06-10T07:55:47Z</time>
      </trkpt>
      <trkpt lat="48.19833" lon="-3.01254">
        <ele>138</ele>
        <time>2015-06-10T07:55:50Z</time>
      </trkpt>
      <trkpt lat="48.19834" lon="-3.01258">
        <ele>138</ele>
        <time>2015-06-10T07:55:52Z</time>
      </trkpt>
      <trkpt lat="48.19835" lon="-3.01262">
        <ele>138</ele>
        <time>2015-06-10T07:55:54Z</time>
      </trkpt>
      <trkpt lat="48.19835" lon="-3.01265">
        <ele>138</ele>
        <time>2015-06-10T07:55:56Z</time>
      </trkpt>
      <trkpt lat="48.19836" lon="-3.01269">
        <ele>138</ele>
        <time>2015-06-10T07:55:58Z</time>
      </trkpt>
      <trkpt lat="48.19837" lon="-3.01272">
        <ele>138</ele>
        <time>2015-06-10T07:56:00Z</time>
      </trkpt>
      <trkpt lat="48.19837" lon="-3.01276">
        <ele>138</ele>
        <time>2015-06-10T07:56:02Z</time>
      </trkpt>
      <trkpt lat="48.19838" lon="-3.01279">
        <ele>138</ele>
        <time>2015-06-10T07:56:04Z</time>
      </trkpt>
      <trkpt lat="48.19838" lon="-3.01283">
        <ele>138</ele>
        <time>2015-06-10T07:56:06Z</time>
      </trkpt>
      <trkpt lat="48.19839" lon="-3.01287">
        <ele>138</ele>
        <time>2015-06-10T07:56:08Z</time>
      </trkpt>
      <trkpt lat="48.1984" lon="-3.0129">
        <ele>138</ele>
        <time>2015-06-10T07:56:10Z</time>
      </trkpt>
      <trkpt lat="48.1984" lon="-3.01292">
        <ele>138</ele>
        <time>2015-06-10T07:56:21Z</time>
      </trkpt>
      <trkpt lat="48.19841" lon="-3.01294">
        <ele>138</ele>
        <time>2015-06-10T07:56:23Z</time>
      </trkpt>
      <trkpt lat="48.19842" lon="-3.01298">
        <ele>138</ele>
        <time>2015-06-10T07:56:25Z</time>
      </trkpt>
      <trkpt lat="48.19842" lon="-3.01301">
        <ele>138</ele>
        <time>2015-06-10T07:56:27Z</time>
      </trkpt>
      <trkpt lat="48.19843" lon="-3.01305">
        <ele>138</ele>
        <time>2015-06-10T07:56:29Z</time>
      </trkpt>
      <trkpt lat="48.19844" lon="-3.01308">
        <ele>138</ele>
        <time>2015-06-10T07:56:31Z</time>
      </trkpt>
      <trkpt lat="48.19845" lon="-3.01312">
        <ele>138</ele>
        <time>2015-06-10T07:56:34Z</time>
      </trkpt>
      <trkpt lat="48.19846" lon="-3.01316">
        <ele>138</ele>
        <time>2015-06-10T07:56:36Z</time>
      </trkpt>
      <trkpt lat="48.19847" lon="-3.0132">
        <ele>138</ele>
        <time>2015-06-10T07:56:38Z</time>
      </trkpt>
      <trkpt lat="48.19847" lon="-3.01324">
        <ele>138</ele>
        <time>2015-06-10T07:56:40Z</time>
      </trkpt>
      <trkpt lat="48.19848" lon="-3.01326">
        <ele>138</ele>
        <time>2015-06-10T07:56:42Z</time>
      </trkpt>
      <trkpt lat="48.19849" lon="-3.01329">
        <ele>138</ele>
        <time>2015-06-10T07:56:44Z</time>
      </trkpt>
      <trkpt lat="48.19849" lon="-3.01332">
        <ele>138</ele>
        <time>2015-06-10T07:56:46Z</time>
      </trkpt>
      <trkpt lat="48.19851" lon="-3.01335">
        <ele>138</ele>
        <time>2015-06-10T07:56:48Z</time>
      </trkpt>
      <trkpt lat="48.19851" lon="-3.01339">
        <ele>138</ele>
        <time>2015-06-10T07:56:50Z</time>
      </trkpt>
      <trkpt lat="48.19852" lon="-3.01342">
        <ele>138</ele>
        <time>2015-06-10T07:56:52Z</time>
      </trkpt>
      <trkpt lat="48.19852" lon="-3.01346">
        <ele>138</ele>
        <time>2015-06-10T07:56:54Z</time>
      </trkpt>
      <trkpt lat="48.19853" lon="-3.01349">
        <ele>138</ele>
        <time>2015-06-10T07:56:56Z</time>
      </trkpt>
      <trkpt lat="48.19854" lon="-3.01353">
        <ele>138</ele>
        <time>2015-06-10T07:56:58Z</time>
      </trkpt>
      <trkpt lat="48.19855" lon="-3.01356">
        <ele>138</ele>
        <time>2015-06-10T07:57:00Z</time>
      </trkpt>
      <trkpt lat="48.19855" lon="-3.0136">
        <ele>138</ele>
        <time>2015-06-10T07:57:02Z</time>
      </trkpt>
      <trkpt lat="48.19855" lon="-3.01363">
        <ele>138</ele>
        <time>2015-06-10T07:57:04Z</time>
      </trkpt>
      <trkpt lat="48.19855" lon="-3.01366">
        <ele>138</ele>
        <time>2015-06-10T07:57:06Z</time>
      </trkpt>
      <trkpt lat="48.19855" lon="-3.0137">
        <ele>138</ele>
        <time>2015-06-10T07:57:09Z</time>
      </trkpt>
      <trkpt lat="48.19854" lon="-3.01372">
        <ele>138</ele>
        <time>2015-06-10T07:57:14Z</time>
      </trkpt>
      <trkpt lat="48.19853" lon="-3.01372">
        <ele>138</ele>
        <time>2015-06-10T07:57:22Z</time>
      </trkpt>
      <trkpt lat="48.19852" lon="-3.01373">
        <ele>138</ele>
        <time>2015-06-10T07:57:36Z</time>
      </trkpt>
      <trkpt lat="48.19852" lon="-3.01376">
        <ele>138</ele>
        <time>2015-06-10T07:57:49Z</time>
      </trkpt>
      <trkpt lat="48.19852" lon="-3.01379">
        <ele>138</ele>
        <time>2015-06-10T07:57:51Z</time>
      </trkpt>
      <trkpt lat="48.19852" lon="-3.01384">
        <ele>138</ele>
        <time>2015-06-10T07:57:54Z</time>
      </trkpt>
      <trkpt lat="48.19852" lon="-3.01389">
        <ele>138</ele>
        <time>2015-06-10T07:57:56Z</time>
      </trkpt>
      <trkpt lat="48.19852" lon="-3.01393">
        <ele>138</ele>
        <time>2015-06-10T07:57:59Z</time>
      </trkpt>
      <trkpt lat="48.19851" lon="-3.01395">
        <ele>138</ele>
        <time>2015-06-10T07:58:02Z</time>
      </trkpt>
      <trkpt lat="48.19851" lon="-3.01397">
        <ele>138</ele>
        <time>2015-06-10T07:58:05Z</time>
      </trkpt>
      <trkpt lat="48.19852" lon="-3.01396">
        <ele>138</ele>
        <time>2015-06-10T07:58:09Z</time>
      </trkpt>
      <trkpt lat="48.19854" lon="-3.01396">
        <ele>138</ele>
        <time>2015-06-10T07:58:11Z</time>
      </trkpt>
      <trkpt lat="48.19856" lon="-3.01398">
        <ele>138</ele>
        <time>2015-06-10T07:58:13Z</time>
      </trkpt>
      <trkpt lat="48.19856" lon="-3.01399">
        <ele>137</ele>
        <time>2015-06-10T07:58:15Z</time>
      </trkpt>
      <trkpt lat="48.19855" lon="-3.01398">
        <ele>137</ele>
        <time>2015-06-10T07:58:21Z</time>
      </trkpt>
      <trkpt lat="48.19853" lon="-3.01397">
        <ele>137</ele>
        <time>2015-06-10T07:58:25Z</time>
      </trkpt>
      <trkpt lat="48.19852" lon="-3.01396">
        <ele>137</ele>
        <time>2015-06-10T07:58:29Z</time>
      </trkpt>
      <trkpt lat="48.19851" lon="-3.01397">
        <ele>137</ele>
        <time>2015-06-10T07:58:35Z</time>
      </trkpt>
      <trkpt lat="48.19851" lon="-3.01395">
        <ele>137</ele>
        <time>2015-06-10T07:58:50Z</time>
      </trkpt>
      <trkpt lat="48.19849" lon="-3.01395">
        <ele>137</ele>
        <time>2015-06-10T07:58:58Z</time>
      </trkpt>
      <trkpt lat="48.19851" lon="-3.01395">
        <ele>137</ele>
        <time>2015-06-10T07:59:05Z</time>
      </trkpt>
      <trkpt lat="48.19853" lon="-3.01395">
        <ele>137</ele>
        <time>2015-06-10T07:59:07Z</time>
      </trkpt>
      <trkpt lat="48.19854" lon="-3.01395">
        <ele>137</ele>
        <time>2015-06-10T07:59:09Z</time>
      </trkpt>
      <trkpt lat="48.19855" lon="-3.01396">
        <ele>137</ele>
        <time>2015-06-10T07:59:11Z</time>
      </trkpt>
      <trkpt lat="48.19857" lon="-3.01397">
        <ele>137</ele>
        <time>2015-06-10T07:59:14Z</time>
      </trkpt>
      <trkpt lat="48.19857" lon="-3.014">
        <ele>137</ele>
        <time>2015-06-10T07:59:16Z</time>
      </trkpt>
      <trkpt lat="48.19857" lon="-3.01405">
        <ele>137</ele>
        <time>2015-06-10T07:59:19Z</time>
      </trkpt>
      <trkpt lat="48.19858" lon="-3.01408">
        <ele>137</ele>
        <time>2015-06-10T07:59:21Z</time>
      </trkpt>
      <trkpt lat="48.19858" lon="-3.01413">
        <ele>137</ele>
        <time>2015-06-10T07:59:23Z</time>
      </trkpt>
      <trkpt lat="48.19857" lon="-3.01416">
        <ele>137</ele>
        <time>2015-06-10T07:59:25Z</time>
      </trkpt>
      <trkpt lat="48.19858" lon="-3.01418">
        <ele>137</ele>
        <time>2015-06-10T07:59:27Z</time>
      </trkpt>
      <trkpt lat="48.19858" lon="-3.0142">
        <ele>136</ele>
        <time>2015-06-10T07:59:29Z</time>
      </trkpt>
      <trkpt lat="48.19858" lon="-3.01423">
        <ele>136</ele>
        <time>2015-06-10T07:59:32Z</time>
      </trkpt>
      <trkpt lat="48.19858" lon="-3.01427">
        <ele>136</ele>
        <time>2015-06-10T07:59:34Z</time>
      </trkpt>
      <trkpt lat="48.19857" lon="-3.01431">
        <ele>135</ele>
        <time>2015-06-10T07:59:36Z</time>
      </trkpt>
      <trkpt lat="48.19857" lon="-3.01434">
        <ele>135</ele>
        <time>2015-06-10T07:59:38Z</time>
      </trkpt>
      <trkpt lat="48.19857" lon="-3.01438">
        <ele>134</ele>
        <time>2015-06-10T07:59:40Z</time>
      </trkpt>
      <trkpt lat="48.19857" lon="-3.01441">
        <ele>133</ele>
        <time>2015-06-10T07:59:42Z</time>
      </trkpt>
      <trkpt lat="48.19857" lon="-3.01445">
        <ele>133</ele>
        <time>2015-06-10T07:59:44Z</time>
      </trkpt>
      <trkpt lat="48.19857" lon="-3.01449">
        <ele>132</ele>
        <time>2015-06-10T07:59:47Z</time>
      </trkpt>
      <trkpt lat="48.19856" lon="-3.01452">
        <ele>131</ele>
        <time>2015-06-10T07:59:49Z</time>
      </trkpt>
      <trkpt lat="48.19854" lon="-3.01454">
        <ele>130</ele>
        <time>2015-06-10T07:59:51Z</time>
      </trkpt>
      <trkpt lat="48.19853" lon="-3.01455">
        <ele>130</ele>
        <time>2015-06-10T07:59:53Z</time>
      </trkpt>
      <trkpt lat="48.19852" lon="-3.01458">
        <ele>129</ele>
        <time>2015-06-10T07:59:56Z</time>
      </trkpt>
      <trkpt lat="48.19852" lon="-3.0146">
        <ele>129</ele>
        <time>2015-06-10T07:59:58Z</time>
      </trkpt>
      <trkpt lat="48.19849" lon="-3.01462">
        <ele>128</ele>
        <time>2015-06-10T08:00:00Z</time>
      </trkpt>
      <trkpt lat="48.19848" lon="-3.01462">
        <ele>128</ele>
        <time>2015-06-10T08:00:02Z</time>
      </trkpt>
      <trkpt lat="48.19846" lon="-3.01463">
        <ele>128</ele>
        <time>2015-06-10T08:00:05Z</time>
      </trkpt>
      <trkpt lat="48.19845" lon="-3.01462">
        <ele>128</ele>
        <time>2015-06-10T08:00:08Z</time>
      </trkpt>
      <trkpt lat="48.19847" lon="-3.01463">
        <ele>127</ele>
        <time>2015-06-10T08:00:18Z</time>
      </trkpt>
      <trkpt lat="48.19847" lon="-3.01465">
        <ele>127</ele>
        <time>2015-06-10T08:00:20Z</time>
      </trkpt>
      <trkpt lat="48.19848" lon="-3.01465">
        <ele>127</ele>
        <time>2015-06-10T08:00:42Z</time>
      </trkpt>
      <trkpt lat="48.19849" lon="-3.01466">
        <ele>127</ele>
        <time>2015-06-10T08:00:47Z</time>
      </trkpt>
      <trkpt lat="48.19848" lon="-3.01465">
        <ele>127</ele>
        <time>2015-06-10T08:00:56Z</time>
      </trkpt>
      <trkpt lat="48.19847" lon="-3.01463">
        <ele>127</ele>
        <time>2015-06-10T08:01:02Z</time>
      </trkpt>
      <trkpt lat="48.19846" lon="-3.01459">
        <ele>127</ele>
        <time>2015-06-10T08:01:07Z</time>
      </trkpt>
      <trkpt lat="48.19846" lon="-3.01456">
        <ele>127</ele>
        <time>2015-06-10T08:01:09Z</time>
      </trkpt>
      <trkpt lat="48.19846" lon="-3.01454">
        <ele>127</ele>
        <time>2015-06-10T08:01:11Z</time>
      </trkpt>
      <trkpt lat="48.19847" lon="-3.01452">
        <ele>127</ele>
        <time>2015-06-10T08:01:26Z</time>
      </trkpt>
      <trkpt lat="48.19846" lon="-3.01454">
        <ele>127</ele>
        <time>2015-06-10T08:01:35Z</time>
      </trkpt>
      <trkpt lat="48.19847" lon="-3.01456">
        <ele>127</ele>
        <time>2015-06-10T08:02:11Z</time>
      </trkpt>
      <trkpt lat="48.19846" lon="-3.0146">
        <ele>127</ele>
        <time>2015-06-10T08:02:15Z</time>
      </trkpt>
      <trkpt lat="48.19847" lon="-3.01462">
        <ele>127</ele>
        <time>2015-06-10T08:02:27Z</time>
      </trkpt>
      <trkpt lat="48.19847" lon="-3.01467">
        <ele>127</ele>
        <time>2015-06-10T08:02:31Z</time>
      </trkpt>
      <trkpt lat="48.19847" lon="-3.01465">
        <ele>127</ele>
        <time>2015-06-10T08:02:53Z</time>
      </trkpt>
      <trkpt lat="48.19849" lon="-3.01461">
        <ele>127</ele>
        <time>2015-06-10T08:02:58Z</time>
      </trkpt>
      <trkpt lat="48.1985" lon="-3.0146">
        <ele>127</ele>
        <time>2015-06-10T08:03:00Z</time>
      </trkpt>
      <trkpt lat="48.19851" lon="-3.01459">
        <ele>127</ele>
        <time>2015-06-10T08:03:03Z</time>
      </trkpt>
      <trkpt lat="48.19852" lon="-3.01457">
        <ele>127</ele>
        <time>2015-06-10T08:03:05Z</time>
      </trkpt>
      <trkpt lat="48.19854" lon="-3.01455">
        <ele>127</ele>
        <time>2015-06-10T08:03:08Z</time>
      </trkpt>
      <trkpt lat="48.19855" lon="-3.01453">
        <ele>127</ele>
        <time>2015-06-10T08:03:10Z</time>
      </trkpt>
      <trkpt lat="48.19856" lon="-3.01448">
        <ele>127</ele>
        <time>2015-06-10T08:03:14Z</time>
      </trkpt>
      <trkpt lat="48.19856" lon="-3.01446">
        <ele>127</ele>
        <time>2015-06-10T08:03:16Z</time>
      </trkpt>
      <trkpt lat="48.19856" lon="-3.01441">
        <ele>127</ele>
        <time>2015-06-10T08:03:19Z</time>
      </trkpt>
      <trkpt lat="48.19856" lon="-3.01438">
        <ele>127</ele>
        <time>2015-06-10T08:03:21Z</time>
      </trkpt>
      <trkpt lat="48.19856" lon="-3.01434">
        <ele>127</ele>
        <time>2015-06-10T08:03:23Z</time>
      </trkpt>
      <trkpt lat="48.19856" lon="-3.01429">
        <ele>127</ele>
        <time>2015-06-10T08:03:26Z</time>
      </trkpt>
      <trkpt lat="48.19857" lon="-3.01423">
        <ele>128</ele>
        <time>2015-06-10T08:03:30Z</time>
      </trkpt>
      <trkpt lat="48.19857" lon="-3.01419">
        <ele>129</ele>
        <time>2015-06-10T08:03:33Z</time>
      </trkpt>
      <trkpt lat="48.19857" lon="-3.01414">
        <ele>129</ele>
        <time>2015-06-10T08:03:36Z</time>
      </trkpt>
      <trkpt lat="48.19857" lon="-3.01411">
        <ele>130</ele>
        <time>2015-06-10T08:03:38Z</time>
      </trkpt>
      <trkpt lat="48.19856" lon="-3.01406">
        <ele>130</ele>
        <time>2015-06-10T08:03:41Z</time>
      </trkpt>
      <trkpt lat="48.19856" lon="-3.01403">
        <ele>130</ele>
        <time>2015-06-10T08:03:43Z</time>
      </trkpt>
      <trkpt lat="48.19855" lon="-3.01397">
        <ele>130</ele>
        <time>2015-06-10T08:03:47Z</time>
      </trkpt>
      <trkpt lat="48.19853" lon="-3.01393">
        <ele>131</ele>
        <time>2015-06-10T08:03:49Z</time>
      </trkpt>
      <trkpt lat="48.19852" lon="-3.01388">
        <ele>132</ele>
        <time>2015-06-10T08:03:52Z</time>
      </trkpt>
      <trkpt lat="48.19852" lon="-3.01384">
        <ele>133</ele>
        <time>2015-06-10T08:03:54Z</time>
      </trkpt>
      <trkpt lat="48.19853" lon="-3.01378">
        <ele>133</ele>
        <time>2015-06-10T08:03:58Z</time>
      </trkpt>
      <trkpt lat="48.19855" lon="-3.01373">
        <ele>133</ele>
        <time>2015-06-10T08:04:01Z</time>
      </trkpt>
      <trkpt lat="48.19857" lon="-3.01368">
        <ele>133</ele>
        <time>2015-06-10T08:04:04Z</time>
      </trkpt>
      <trkpt lat="48.1986" lon="-3.01366">
        <ele>133</ele>
        <time>2015-06-10T08:04:06Z</time>
      </trkpt>
      <trkpt lat="48.19863" lon="-3.01365">
        <ele>133</ele>
        <time>2015-06-10T08:04:08Z</time>
      </trkpt>
      <trkpt lat="48.19866" lon="-3.01365">
        <ele>133</ele>
        <time>2015-06-10T08:04:10Z</time>
      </trkpt>
      <trkpt lat="48.1987" lon="-3.01364">
        <ele>134</ele>
        <time>2015-06-10T08:04:13Z</time>
      </trkpt>
      <trkpt lat="48.19874" lon="-3.01363">
        <ele>135</ele>
        <time>2015-06-10T08:04:16Z</time>
      </trkpt>
      <trkpt lat="48.19876" lon="-3.01362">
        <ele>135</ele>
        <time>2015-06-10T08:04:18Z</time>
      </trkpt>
      <trkpt lat="48.1988" lon="-3.01361">
        <ele>136</ele>
        <time>2015-06-10T08:04:22Z</time>
      </trkpt>
      <trkpt lat="48.19881" lon="-3.01362">
        <ele>136</ele>
        <time>2015-06-10T08:04:26Z</time>
      </trkpt>
      <trkpt lat="48.19881" lon="-3.01366">
        <ele>136</ele>
        <time>2015-06-10T08:04:29Z</time>
      </trkpt>
      <trkpt lat="48.19881" lon="-3.01368">
        <ele>136</ele>
        <time>2015-06-10T08:04:31Z</time>
      </trkpt>
      <trkpt lat="48.19878" lon="-3.01361">
        <ele>147</ele>
        <time>2015-06-10T08:04:35Z</time>
      </trkpt>
      <trkpt lat="48.19879" lon="-3.01358">
        <ele>146</ele>
        <time>2015-06-10T08:04:37Z</time>
      </trkpt>
      <trkpt lat="48.1988" lon="-3.01355">
        <ele>146</ele>
        <time>2015-06-10T08:04:39Z</time>
      </trkpt>
      <trkpt lat="48.19883" lon="-3.01349">
        <ele>146</ele>
        <time>2015-06-10T08:04:42Z</time>
      </trkpt>
      <trkpt lat="48.19884" lon="-3.01344">
        <ele>145</ele>
        <time>2015-06-10T08:04:45Z</time>
      </trkpt>
      <trkpt lat="48.19886" lon="-3.01342">
        <ele>145</ele>
        <time>2015-06-10T08:04:48Z</time>
      </trkpt>
      <trkpt lat="48.1989" lon="-3.01341">
        <ele>144</ele>
        <time>2015-06-10T08:04:51Z</time>
      </trkpt>
      <trkpt lat="48.19893" lon="-3.01338">
        <ele>144</ele>
        <time>2015-06-10T08:04:53Z</time>
      </trkpt>
      <trkpt lat="48.19894" lon="-3.01337">
        <ele>144</ele>
        <time>2015-06-10T08:04:55Z</time>
      </trkpt>
      <trkpt lat="48.19896" lon="-3.01337">
        <ele>143</ele>
        <time>2015-06-10T08:04:57Z</time>
      </trkpt>
      <trkpt lat="48.19899" lon="-3.01338">
        <ele>143</ele>
        <time>2015-06-10T08:04:59Z</time>
      </trkpt>
      <trkpt lat="48.19901" lon="-3.0134">
        <ele>143</ele>
        <time>2015-06-10T08:05:01Z</time>
      </trkpt>
      <trkpt lat="48.19903" lon="-3.01343">
        <ele>143</ele>
        <time>2015-06-10T08:05:03Z</time>
      </trkpt>
      <trkpt lat="48.19905" lon="-3.01346">
        <ele>142</ele>
        <time>2015-06-10T08:05:05Z</time>
      </trkpt>
      <trkpt lat="48.19907" lon="-3.01349">
        <ele>142</ele>
        <time>2015-06-10T08:05:07Z</time>
      </trkpt>
      <trkpt lat="48.19909" lon="-3.0135">
        <ele>142</ele>
        <time>2015-06-10T08:05:09Z</time>
      </trkpt>
      <trkpt lat="48.1991" lon="-3.01353">
        <ele>141</ele>
        <time>2015-06-10T08:05:12Z</time>
      </trkpt>
      <trkpt lat="48.19912" lon="-3.01356">
        <ele>140</ele>
        <time>2015-06-10T08:05:14Z</time>
      </trkpt>
      <trkpt lat="48.19913" lon="-3.01357">
        <ele>139</ele>
        <time>2015-06-10T08:05:16Z</time>
      </trkpt>
      <trkpt lat="48.19915" lon="-3.01358">
        <ele>138</ele>
        <time>2015-06-10T08:05:18Z</time>
      </trkpt>
      <trkpt lat="48.19917" lon="-3.01358">
        <ele>138</ele>
        <time>2015-06-10T08:05:20Z</time>
      </trkpt>
      <trkpt lat="48.1992" lon="-3.01358">
        <ele>138</ele>
        <time>2015-06-10T08:05:22Z</time>
      </trkpt>
      <trkpt lat="48.19922" lon="-3.01357">
        <ele>138</ele>
        <time>2015-06-10T08:05:24Z</time>
      </trkpt>
      <trkpt lat="48.19925" lon="-3.01357">
        <ele>138</ele>
        <time>2015-06-10T08:05:26Z</time>
      </trkpt>
      <trkpt lat="48.19928" lon="-3.01356">
        <ele>138</ele>
        <time>2015-06-10T08:05:29Z</time>
      </trkpt>
      <trkpt lat="48.19929" lon="-3.01357">
        <ele>137</ele>
        <time>2015-06-10T08:05:31Z</time>
      </trkpt>
      <trkpt lat="48.19931" lon="-3.01356">
        <ele>137</ele>
        <time>2015-06-10T08:05:33Z</time>
      </trkpt>
      <trkpt lat="48.19933" lon="-3.01355">
        <ele>137</ele>
        <time>2015-06-10T08:05:35Z</time>
      </trkpt>
      <trkpt lat="48.19936" lon="-3.01353">
        <ele>137</ele>
        <time>2015-06-10T08:05:37Z</time>
      </trkpt>
      <trkpt lat="48.19938" lon="-3.01351">
        <ele>137</ele>
        <time>2015-06-10T08:05:39Z</time>
      </trkpt>
      <trkpt lat="48.1994" lon="-3.01351">
        <ele>137</ele>
        <time>2015-06-10T08:05:41Z</time>
      </trkpt>
      <trkpt lat="48.19943" lon="-3.01352">
        <ele>137</ele>
        <time>2015-06-10T08:05:44Z</time>
      </trkpt>
      <trkpt lat="48.19945" lon="-3.0135">
        <ele>137</ele>
        <time>2015-06-10T08:05:46Z</time>
      </trkpt>
      <trkpt lat="48.19948" lon="-3.01348">
        <ele>137</ele>
        <time>2015-06-10T08:05:49Z</time>
      </trkpt>
      <trkpt lat="48.19949" lon="-3.01346">
        <ele>138</ele>
        <time>2015-06-10T08:05:51Z</time>
      </trkpt>
      <trkpt lat="48.19952" lon="-3.01345">
        <ele>139</ele>
        <time>2015-06-10T08:05:53Z</time>
      </trkpt>
      <trkpt lat="48.19954" lon="-3.01343">
        <ele>140</ele>
        <time>2015-06-10T08:05:55Z</time>
      </trkpt>
      <trkpt lat="48.19956" lon="-3.01341">
        <ele>140</ele>
        <time>2015-06-10T08:05:57Z</time>
      </trkpt>
      <trkpt lat="48.19958" lon="-3.01338">
        <ele>141</ele>
        <time>2015-06-10T08:06:00Z</time>
      </trkpt>
      <trkpt lat="48.1996" lon="-3.01336">
        <ele>142</ele>
        <time>2015-06-10T08:06:02Z</time>
      </trkpt>
      <trkpt lat="48.19962" lon="-3.01335">
        <ele>143</ele>
        <time>2015-06-10T08:06:04Z</time>
      </trkpt>
      <trkpt lat="48.19965" lon="-3.01333">
        <ele>144</ele>
        <time>2015-06-10T08:06:06Z</time>
      </trkpt>
      <trkpt lat="48.19968" lon="-3.01333">
        <ele>144</ele>
        <time>2015-06-10T08:06:09Z</time>
      </trkpt>
      <trkpt lat="48.19969" lon="-3.01332">
        <ele>144</ele>
        <time>2015-06-10T08:06:11Z</time>
      </trkpt>
      <trkpt lat="48.19971" lon="-3.01333">
        <ele>144</ele>
        <time>2015-06-10T08:06:13Z</time>
      </trkpt>
      <trkpt lat="48.19973" lon="-3.01332">
        <ele>144</ele>
        <time>2015-06-10T08:06:15Z</time>
      </trkpt>
      <trkpt lat="48.19975" lon="-3.0133">
        <ele>144</ele>
        <time>2015-06-10T08:06:17Z</time>
      </trkpt>
      <trkpt lat="48.19977" lon="-3.01332">
        <ele>145</ele>
        <time>2015-06-10T08:06:19Z</time>
      </trkpt>
      <trkpt lat="48.19979" lon="-3.01335">
        <ele>145</ele>
        <time>2015-06-10T08:06:21Z</time>
      </trkpt>
      <trkpt lat="48.1998" lon="-3.01336">
        <ele>146</ele>
        <time>2015-06-10T08:06:23Z</time>
      </trkpt>
      <trkpt lat="48.1998" lon="-3.01339">
        <ele>146</ele>
        <time>2015-06-10T08:06:25Z</time>
      </trkpt>
      <trkpt lat="48.19981" lon="-3.01343">
        <ele>146</ele>
        <time>2015-06-10T08:06:27Z</time>
      </trkpt>
      <trkpt lat="48.19982" lon="-3.01348">
        <ele>146</ele>
        <time>2015-06-10T08:06:29Z</time>
      </trkpt>
      <trkpt lat="48.19982" lon="-3.01353">
        <ele>146</ele>
        <time>2015-06-10T08:06:31Z</time>
      </trkpt>
      <trkpt lat="48.19982" lon="-3.01357">
        <ele>146</ele>
        <time>2015-06-10T08:06:33Z</time>
      </trkpt>
      <trkpt lat="48.19982" lon="-3.01361">
        <ele>146</ele>
        <time>2015-06-10T08:06:35Z</time>
      </trkpt>
      <trkpt lat="48.19983" lon="-3.01365">
        <ele>146</ele>
        <time>2015-06-10T08:06:37Z</time>
      </trkpt>
      <trkpt lat="48.19985" lon="-3.01368">
        <ele>146</ele>
        <time>2015-06-10T08:06:39Z</time>
      </trkpt>
      <trkpt lat="48.19987" lon="-3.01373">
        <ele>146</ele>
        <time>2015-06-10T08:06:42Z</time>
      </trkpt>
      <trkpt lat="48.19989" lon="-3.01376">
        <ele>146</ele>
        <time>2015-06-10T08:06:44Z</time>
      </trkpt>
      <trkpt lat="48.19991" lon="-3.01378">
        <ele>146</ele>
        <time>2015-06-10T08:06:46Z</time>
      </trkpt>
      <trkpt lat="48.19992" lon="-3.01381">
        <ele>146</ele>
        <time>2015-06-10T08:06:48Z</time>
      </trkpt>
      <trkpt lat="48.19993" lon="-3.01385">
        <ele>144</ele>
        <time>2015-06-10T08:06:51Z</time>
      </trkpt>
      <trkpt lat="48.19995" lon="-3.01387">
        <ele>143</ele>
        <time>2015-06-10T08:06:53Z</time>
      </trkpt>
      <trkpt lat="48.19998" lon="-3.0139">
        <ele>142</ele>
        <time>2015-06-10T08:06:55Z</time>
      </trkpt>
      <trkpt lat="48.20001" lon="-3.01392">
        <ele>141</ele>
        <time>2015-06-10T08:06:58Z</time>
      </trkpt>
      <trkpt lat="48.20004" lon="-3.01394">
        <ele>141</ele>
        <time>2015-06-10T08:07:00Z</time>
      </trkpt>
      <trkpt lat="48.20007" lon="-3.01395">
        <ele>141</ele>
        <time>2015-06-10T08:07:02Z</time>
      </trkpt>
      <trkpt lat="48.2001" lon="-3.01399">
        <ele>141</ele>
        <time>2015-06-10T08:07:05Z</time>
      </trkpt>
      <trkpt lat="48.20012" lon="-3.01399">
        <ele>141</ele>
        <time>2015-06-10T08:07:07Z</time>
      </trkpt>
      <trkpt lat="48.20015" lon="-3.014">
        <ele>140</ele>
        <time>2015-06-10T08:07:09Z</time>
      </trkpt>
      <trkpt lat="48.20016" lon="-3.01402">
        <ele>139</ele>
        <time>2015-06-10T08:07:11Z</time>
      </trkpt>
      <trkpt lat="48.2002" lon="-3.01403">
        <ele>139</ele>
        <time>2015-06-10T08:07:13Z</time>
      </trkpt>
      <trkpt lat="48.20023" lon="-3.01404">
        <ele>139</ele>
        <time>2015-06-10T08:07:15Z</time>
      </trkpt>
      <trkpt lat="48.20026" lon="-3.01405">
        <ele>139</ele>
        <time>2015-06-10T08:07:17Z</time>
      </trkpt>
      <trkpt lat="48.20029" lon="-3.01406">
        <ele>139</ele>
        <time>2015-06-10T08:07:19Z</time>
      </trkpt>
      <trkpt lat="48.20032" lon="-3.01407">
        <ele>139</ele>
        <time>2015-06-10T08:07:21Z</time>
      </trkpt>
      <trkpt lat="48.20036" lon="-3.01407">
        <ele>139</ele>
        <time>2015-06-10T08:07:24Z</time>
      </trkpt>
      <trkpt lat="48.20038" lon="-3.01407">
        <ele>139</ele>
        <time>2015-06-10T08:07:26Z</time>
      </trkpt>
      <trkpt lat="48.20041" lon="-3.01407">
        <ele>139</ele>
        <time>2015-06-10T08:07:28Z</time>
      </trkpt>
      <trkpt lat="48.20046" lon="-3.0141">
        <ele>139</ele>
        <time>2015-06-10T08:07:31Z</time>
      </trkpt>
      <trkpt lat="48.2005" lon="-3.0141">
        <ele>139</ele>
        <time>2015-06-10T08:07:33Z</time>
      </trkpt>
      <trkpt lat="48.20054" lon="-3.01411">
        <ele>139</ele>
        <time>2015-06-10T08:07:36Z</time>
      </trkpt>
      <trkpt lat="48.20056" lon="-3.01412">
        <ele>139</ele>
        <time>2015-06-10T08:07:38Z</time>
      </trkpt>
      <trkpt lat="48.20059" lon="-3.01412">
        <ele>139</ele>
        <time>2015-06-10T08:07:40Z</time>
      </trkpt>
      <trkpt lat="48.20062" lon="-3.01413">
        <ele>139</ele>
        <time>2015-06-10T08:07:42Z</time>
      </trkpt>
      <trkpt lat="48.20065" lon="-3.01413">
        <ele>139</ele>
        <time>2015-06-10T08:07:44Z</time>
      </trkpt>
      <trkpt lat="48.20068" lon="-3.01412">
        <ele>139</ele>
        <time>2015-06-10T08:07:46Z</time>
      </trkpt>
      <trkpt lat="48.2007" lon="-3.01412">
        <ele>139</ele>
        <time>2015-06-10T08:07:48Z</time>
      </trkpt>
      <trkpt lat="48.20073" lon="-3.01413">
        <ele>139</ele>
        <time>2015-06-10T08:07:50Z</time>
      </trkpt>
      <trkpt lat="48.20075" lon="-3.01415">
        <ele>139</ele>
        <time>2015-06-10T08:07:52Z</time>
      </trkpt>
      <trkpt lat="48.20076" lon="-3.01418">
        <ele>139</ele>
        <time>2015-06-10T08:07:54Z</time>
      </trkpt>
      <trkpt lat="48.20079" lon="-3.01422">
        <ele>139</ele>
        <time>2015-06-10T08:07:57Z</time>
      </trkpt>
      <trkpt lat="48.2008" lon="-3.01424">
        <ele>139</ele>
        <time>2015-06-10T08:07:59Z</time>
      </trkpt>
      <trkpt lat="48.20081" lon="-3.01428">
        <ele>139</ele>
        <time>2015-06-10T08:08:01Z</time>
      </trkpt>
      <trkpt lat="48.20082" lon="-3.01431">
        <ele>139</ele>
        <time>2015-06-10T08:08:03Z</time>
      </trkpt>
      <trkpt lat="48.20082" lon="-3.01434">
        <ele>139</ele>
        <time>2015-06-10T08:08:05Z</time>
      </trkpt>
      <trkpt lat="48.20084" lon="-3.01437">
        <ele>139</ele>
        <time>2015-06-10T08:08:07Z</time>
      </trkpt>
      <trkpt lat="48.20084" lon="-3.01439">
        <ele>139</ele>
        <time>2015-06-10T08:08:09Z</time>
      </trkpt>
      <trkpt lat="48.20086" lon="-3.01441">
        <ele>139</ele>
        <time>2015-06-10T08:08:11Z</time>
      </trkpt>
      <trkpt lat="48.20087" lon="-3.01444">
        <ele>139</ele>
        <time>2015-06-10T08:08:13Z</time>
      </trkpt>
      <trkpt lat="48.20088" lon="-3.01446">
        <ele>139</ele>
        <time>2015-06-10T08:08:15Z</time>
      </trkpt>
      <trkpt lat="48.20089" lon="-3.01448">
        <ele>139</ele>
        <time>2015-06-10T08:08:17Z</time>
      </trkpt>
      <trkpt lat="48.2009" lon="-3.0145">
        <ele>138</ele>
        <time>2015-06-10T08:08:19Z</time>
      </trkpt>
      <trkpt lat="48.20091" lon="-3.01453">
        <ele>137</ele>
        <time>2015-06-10T08:08:21Z</time>
      </trkpt>
      <trkpt lat="48.20092" lon="-3.01456">
        <ele>137</ele>
        <time>2015-06-10T08:08:23Z</time>
      </trkpt>
      <trkpt lat="48.20093" lon="-3.01459">
        <ele>136</ele>
        <time>2015-06-10T08:08:25Z</time>
      </trkpt>
      <trkpt lat="48.20095" lon="-3.01462">
        <ele>136</ele>
        <time>2015-06-10T08:08:27Z</time>
      </trkpt>
      <trkpt lat="48.20096" lon="-3.01465">
        <ele>135</ele>
        <time>2015-06-10T08:08:29Z</time>
      </trkpt>
      <trkpt lat="48.20097" lon="-3.01467">
        <ele>134</ele>
        <time>2015-06-10T08:08:31Z</time>
      </trkpt>
      <trkpt lat="48.20097" lon="-3.01465">
        <ele>134</ele>
        <time>2015-06-10T08:08:39Z</time>
      </trkpt>
      <trkpt lat="48.20097" lon="-3.01463">
        <ele>134</ele>
        <time>2015-06-10T08:08:41Z</time>
      </trkpt>
      <trkpt lat="48.20096" lon="-3.01461">
        <ele>134</ele>
        <time>2015-06-10T08:08:43Z</time>
      </trkpt>
      <trkpt lat="48.20096" lon="-3.01458">
        <ele>134</ele>
        <time>2015-06-10T08:08:45Z</time>
      </trkpt>
      <trkpt lat="48.20095" lon="-3.01455">
        <ele>134</ele>
        <time>2015-06-10T08:08:47Z</time>
      </trkpt>
      <trkpt lat="48.20094" lon="-3.01452">
        <ele>134</ele>
        <time>2015-06-10T08:08:49Z</time>
      </trkpt>
      <trkpt lat="48.20092" lon="-3.01448">
        <ele>134</ele>
        <time>2015-06-10T08:08:51Z</time>
      </trkpt>
      <trkpt lat="48.2009" lon="-3.01446">
        <ele>135</ele>
        <time>2015-06-10T08:08:53Z</time>
      </trkpt>
      <trkpt lat="48.20089" lon="-3.01445">
        <ele>136</ele>
        <time>2015-06-10T08:08:55Z</time>
      </trkpt>
      <trkpt lat="48.20087" lon="-3.01443">
        <ele>138</ele>
        <time>2015-06-10T08:08:57Z</time>
      </trkpt>
      <trkpt lat="48.20086" lon="-3.01441">
        <ele>139</ele>
        <time>2015-06-10T08:08:59Z</time>
      </trkpt>
      <trkpt lat="48.20085" lon="-3.01438">
        <ele>139</ele>
        <time>2015-06-10T08:09:01Z</time>
      </trkpt>
      <trkpt lat="48.20083" lon="-3.01433">
        <ele>140</ele>
        <time>2015-06-10T08:09:04Z</time>
      </trkpt>
      <trkpt lat="48.20082" lon="-3.0143">
        <ele>141</ele>
        <time>2015-06-10T08:09:06Z</time>
      </trkpt>
      <trkpt lat="48.20082" lon="-3.01426">
        <ele>141</ele>
        <time>2015-06-10T08:09:08Z</time>
      </trkpt>
      <trkpt lat="48.20082" lon="-3.01424">
        <ele>141</ele>
        <time>2015-06-10T08:09:10Z</time>
      </trkpt>
      <trkpt lat="48.20082" lon="-3.01423">
        <ele>142</ele>
        <time>2015-06-10T08:09:12Z</time>
      </trkpt>
      <trkpt lat="48.20082" lon="-3.01421">
        <ele>143</ele>
        <time>2015-06-10T08:09:16Z</time>
      </trkpt>
      <trkpt lat="48.20082" lon="-3.01419">
        <ele>144</ele>
        <time>2015-06-10T08:09:18Z</time>
      </trkpt>
      <trkpt lat="48.20081" lon="-3.01416">
        <ele>144</ele>
        <time>2015-06-10T08:09:20Z</time>
      </trkpt>
      <trkpt lat="48.20082" lon="-3.01413">
        <ele>145</ele>
        <time>2015-06-10T08:09:22Z</time>
      </trkpt>
      <trkpt lat="48.20083" lon="-3.01409">
        <ele>145</ele>
        <time>2015-06-10T08:09:24Z</time>
      </trkpt>
      <trkpt lat="48.20084" lon="-3.01405">
        <ele>145</ele>
        <time>2015-06-10T08:09:26Z</time>
      </trkpt>
      <trkpt lat="48.20084" lon="-3.01399">
        <ele>146</ele>
        <time>2015-06-10T08:09:29Z</time>
      </trkpt>
      <trkpt lat="48.20085" lon="-3.01396">
        <ele>147</ele>
        <time>2015-06-10T08:09:31Z</time>
      </trkpt>
      <trkpt lat="48.20086" lon="-3.01391">
        <ele>148</ele>
        <time>2015-06-10T08:09:33Z</time>
      </trkpt>
      <trkpt lat="48.20087" lon="-3.01386">
        <ele>148</ele>
        <time>2015-06-10T08:09:35Z</time>
      </trkpt>
      <trkpt lat="48.20088" lon="-3.01381">
        <ele>148</ele>
        <time>2015-06-10T08:09:37Z</time>
      </trkpt>
      <trkpt lat="48.20089" lon="-3.01377">
        <ele>148</ele>
        <time>2015-06-10T08:09:39Z</time>
      </trkpt>
      <trkpt lat="48.20091" lon="-3.01372">
        <ele>148</ele>
        <time>2015-06-10T08:09:41Z</time>
      </trkpt>
      <trkpt lat="48.20092" lon="-3.01367">
        <ele>148</ele>
        <time>2015-06-10T08:09:43Z</time>
      </trkpt>
      <trkpt lat="48.20093" lon="-3.01364">
        <ele>148</ele>
        <time>2015-06-10T08:09:45Z</time>
      </trkpt>
      <trkpt lat="48.20095" lon="-3.0136">
        <ele>148</ele>
        <time>2015-06-10T08:09:47Z</time>
      </trkpt>
      <trkpt lat="48.20096" lon="-3.01356">
        <ele>148</ele>
        <time>2015-06-10T08:09:49Z</time>
      </trkpt>
      <trkpt lat="48.20097" lon="-3.01353">
        <ele>148</ele>
        <time>2015-06-10T08:09:51Z</time>
      </trkpt>
      <trkpt lat="48.20097" lon="-3.01349">
        <ele>148</ele>
        <time>2015-06-10T08:09:53Z</time>
      </trkpt>
      <trkpt lat="48.20097" lon="-3.01344">
        <ele>148</ele>
        <time>2015-06-10T08:09:55Z</time>
      </trkpt>
      <trkpt lat="48.20099" lon="-3.01339">
        <ele>148</ele>
        <time>2015-06-10T08:09:57Z</time>
      </trkpt>
      <trkpt lat="48.201" lon="-3.01336">
        <ele>148</ele>
        <time>2015-06-10T08:09:59Z</time>
      </trkpt>
      <trkpt lat="48.20101" lon="-3.01332">
        <ele>148</ele>
        <time>2015-06-10T08:10:01Z</time>
      </trkpt>
      <trkpt lat="48.20102" lon="-3.01328">
        <ele>148</ele>
        <time>2015-06-10T08:10:03Z</time>
      </trkpt>
      <trkpt lat="48.20104" lon="-3.01323">
        <ele>148</ele>
        <time>2015-06-10T08:10:05Z</time>
      </trkpt>
      <trkpt lat="48.20106" lon="-3.01319">
        <ele>148</ele>
        <time>2015-06-10T08:10:07Z</time>
      </trkpt>
      <trkpt lat="48.20106" lon="-3.01315">
        <ele>148</ele>
        <time>2015-06-10T08:10:09Z</time>
      </trkpt>
      <trkpt lat="48.20106" lon="-3.0131">
        <ele>148</ele>
        <time>2015-06-10T08:10:11Z</time>
      </trkpt>
      <trkpt lat="48.20108" lon="-3.01305">
        <ele>148</ele>
        <time>2015-06-10T08:10:13Z</time>
      </trkpt>
      <trkpt lat="48.2011" lon="-3.01303">
        <ele>148</ele>
        <time>2015-06-10T08:10:15Z</time>
      </trkpt>
      <trkpt lat="48.20111" lon="-3.01299">
        <ele>148</ele>
        <time>2015-06-10T08:10:17Z</time>
      </trkpt>
      <trkpt lat="48.20114" lon="-3.01294">
        <ele>147</ele>
        <time>2015-06-10T08:10:20Z</time>
      </trkpt>
      <trkpt lat="48.20117" lon="-3.0129">
        <ele>147</ele>
        <time>2015-06-10T08:10:22Z</time>
      </trkpt>
      <trkpt lat="48.20118" lon="-3.01286">
        <ele>147</ele>
        <time>2015-06-10T08:10:25Z</time>
      </trkpt>
      <trkpt lat="48.20121" lon="-3.01283">
        <ele>147</ele>
        <time>2015-06-10T08:10:27Z</time>
      </trkpt>
      <trkpt lat="48.20122" lon="-3.0128">
        <ele>147</ele>
        <time>2015-06-10T08:10:29Z</time>
      </trkpt>
      <trkpt lat="48.20124" lon="-3.01277">
        <ele>147</ele>
        <time>2015-06-10T08:10:31Z</time>
      </trkpt>
      <trkpt lat="48.20127" lon="-3.01273">
        <ele>147</ele>
        <time>2015-06-10T08:10:33Z</time>
      </trkpt>
      <trkpt lat="48.2013" lon="-3.0127">
        <ele>147</ele>
        <time>2015-06-10T08:10:35Z</time>
      </trkpt>
      <trkpt lat="48.20133" lon="-3.01269">
        <ele>147</ele>
        <time>2015-06-10T08:10:39Z</time>
      </trkpt>
      <trkpt lat="48.20135" lon="-3.01267">
        <ele>147</ele>
        <time>2015-06-10T08:10:41Z</time>
      </trkpt>
      <trkpt lat="48.20139" lon="-3.01264">
        <ele>147</ele>
        <time>2015-06-10T08:10:44Z</time>
      </trkpt>
      <trkpt lat="48.20141" lon="-3.01263">
        <ele>147</ele>
        <time>2015-06-10T08:10:46Z</time>
      </trkpt>
      <trkpt lat="48.20144" lon="-3.01261">
        <ele>147</ele>
        <time>2015-06-10T08:10:48Z</time>
      </trkpt>
      <trkpt lat="48.20149" lon="-3.01259">
        <ele>147</ele>
        <time>2015-06-10T08:10:50Z</time>
      </trkpt>
      <trkpt lat="48.20154" lon="-3.01256">
        <ele>147</ele>
        <time>2015-06-10T08:10:53Z</time>
      </trkpt>
      <trkpt lat="48.20158" lon="-3.01254">
        <ele>147</ele>
        <time>2015-06-10T08:10:55Z</time>
      </trkpt>
      <trkpt lat="48.20163" lon="-3.01254">
        <ele>147</ele>
        <time>2015-06-10T08:10:58Z</time>
      </trkpt>
      <trkpt lat="48.20166" lon="-3.01253">
        <ele>147</ele>
        <time>2015-06-10T08:11:00Z</time>
      </trkpt>
      <trkpt lat="48.2017" lon="-3.01253">
        <ele>147</ele>
        <time>2015-06-10T08:11:03Z</time>
      </trkpt>
      <trkpt lat="48.20172" lon="-3.01252">
        <ele>147</ele>
        <time>2015-06-10T08:11:05Z</time>
      </trkpt>
      <trkpt lat="48.20175" lon="-3.01252">
        <ele>147</ele>
        <time>2015-06-10T08:11:07Z</time>
      </trkpt>
      <trkpt lat="48.20177" lon="-3.01252">
        <ele>147</ele>
        <time>2015-06-10T08:11:09Z</time>
      </trkpt>
      <trkpt lat="48.20179" lon="-3.01253">
        <ele>147</ele>
        <time>2015-06-10T08:11:11Z</time>
      </trkpt>
      <trkpt lat="48.20181" lon="-3.01254">
        <ele>147</ele>
        <time>2015-06-10T08:11:13Z</time>
      </trkpt>
      <trkpt lat="48.20184" lon="-3.01255">
        <ele>146</ele>
        <time>2015-06-10T08:11:16Z</time>
      </trkpt>
      <trkpt lat="48.20185" lon="-3.01257">
        <ele>144</ele>
        <time>2015-06-10T08:11:18Z</time>
      </trkpt>
      <trkpt lat="48.20187" lon="-3.01258">
        <ele>143</ele>
        <time>2015-06-10T08:11:20Z</time>
      </trkpt>
      <trkpt lat="48.20189" lon="-3.0126">
        <ele>141</ele>
        <time>2015-06-10T08:11:22Z</time>
      </trkpt>
      <trkpt lat="48.2019" lon="-3.01261">
        <ele>140</ele>
        <time>2015-06-10T08:11:24Z</time>
      </trkpt>
      <trkpt lat="48.20192" lon="-3.01263">
        <ele>138</ele>
        <time>2015-06-10T08:11:26Z</time>
      </trkpt>
      <trkpt lat="48.20194" lon="-3.01265">
        <ele>136</ele>
        <time>2015-06-10T08:11:28Z</time>
      </trkpt>
      <trkpt lat="48.20197" lon="-3.01267">
        <ele>134</ele>
        <time>2015-06-10T08:11:31Z</time>
      </trkpt>
      <trkpt lat="48.20199" lon="-3.0127">
        <ele>133</ele>
        <time>2015-06-10T08:11:33Z</time>
      </trkpt>
      <trkpt lat="48.20201" lon="-3.01272">
        <ele>133</ele>
        <time>2015-06-10T08:11:35Z</time>
      </trkpt>
      <trkpt lat="48.20203" lon="-3.01273">
        <ele>132</ele>
        <time>2015-06-10T08:11:37Z</time>
      </trkpt>
      <trkpt lat="48.20205" lon="-3.01275">
        <ele>131</ele>
        <time>2015-06-10T08:11:39Z</time>
      </trkpt>
      <trkpt lat="48.20208" lon="-3.01278">
        <ele>130</ele>
        <time>2015-06-10T08:11:41Z</time>
      </trkpt>
      <trkpt lat="48.2021" lon="-3.0128">
        <ele>130</ele>
        <time>2015-06-10T08:11:43Z</time>
      </trkpt>
      <trkpt lat="48.20213" lon="-3.01281">
        <ele>130</ele>
        <time>2015-06-10T08:11:46Z</time>
      </trkpt>
      <trkpt lat="48.20216" lon="-3.01283">
        <ele>130</ele>
        <time>2015-06-10T08:11:48Z</time>
      </trkpt>
      <trkpt lat="48.20219" lon="-3.01286">
        <ele>129</ele>
        <time>2015-06-10T08:11:50Z</time>
      </trkpt>
      <trkpt lat="48.20222" lon="-3.01289">
        <ele>128</ele>
        <time>2015-06-10T08:11:53Z</time>
      </trkpt>
      <trkpt lat="48.20225" lon="-3.01292">
        <ele>128</ele>
        <time>2015-06-10T08:11:55Z</time>
      </trkpt>
      <trkpt lat="48.20227" lon="-3.01293">
        <ele>128</ele>
        <time>2015-06-10T08:11:57Z</time>
      </trkpt>
      <trkpt lat="48.2023" lon="-3.01293">
        <ele>128</ele>
        <time>2015-06-10T08:11:59Z</time>
      </trkpt>
      <trkpt lat="48.20233" lon="-3.01296">
        <ele>127</ele>
        <time>2015-06-10T08:12:02Z</time>
      </trkpt>
      <trkpt lat="48.20235" lon="-3.01297">
        <ele>127</ele>
        <time>2015-06-10T08:12:04Z</time>
      </trkpt>
      <trkpt lat="48.20238" lon="-3.013">
        <ele>126</ele>
        <time>2015-06-10T08:12:07Z</time>
      </trkpt>
      <trkpt lat="48.2024" lon="-3.01301">
        <ele>126</ele>
        <time>2015-06-10T08:12:09Z</time>
      </trkpt>
      <trkpt lat="48.20244" lon="-3.013">
        <ele>126</ele>
        <time>2015-06-10T08:12:11Z</time>
      </trkpt>
      <trkpt lat="48.20247" lon="-3.01301">
        <ele>126</ele>
        <time>2015-06-10T08:12:13Z</time>
      </trkpt>
      <trkpt lat="48.20249" lon="-3.01301">
        <ele>126</ele>
        <time>2015-06-10T08:12:15Z</time>
      </trkpt>
      <trkpt lat="48.20253" lon="-3.01299">
        <ele>126</ele>
        <time>2015-06-10T08:12:17Z</time>
      </trkpt>
      <trkpt lat="48.20256" lon="-3.01296">
        <ele>126</ele>
        <time>2015-06-10T08:12:19Z</time>
      </trkpt>
      <trkpt lat="48.20258" lon="-3.01292">
        <ele>126</ele>
        <time>2015-06-10T08:12:21Z</time>
      </trkpt>
      <trkpt lat="48.20261" lon="-3.01288">
        <ele>129</ele>
        <time>2015-06-10T08:12:24Z</time>
      </trkpt>
      <trkpt lat="48.20263" lon="-3.01284">
        <ele>131</ele>
        <time>2015-06-10T08:12:26Z</time>
      </trkpt>
      <trkpt lat="48.20264" lon="-3.0128">
        <ele>133</ele>
        <time>2015-06-10T08:12:28Z</time>
      </trkpt>
      <trkpt lat="48.20264" lon="-3.01277">
        <ele>135</ele>
        <time>2015-06-10T08:12:30Z</time>
      </trkpt>
      <trkpt lat="48.20263" lon="-3.01273">
        <ele>137</ele>
        <time>2015-06-10T08:12:32Z</time>
      </trkpt>
      <trkpt lat="48.20264" lon="-3.01268">
        <ele>140</ele>
        <time>2015-06-10T08:12:35Z</time>
      </trkpt>
      <trkpt lat="48.20263" lon="-3.01265">
        <ele>142</ele>
        <time>2015-06-10T08:12:37Z</time>
      </trkpt>
      <trkpt lat="48.20263" lon="-3.01261">
        <ele>144</ele>
        <time>2015-06-10T08:12:39Z</time>
      </trkpt>
      <trkpt lat="48.20261" lon="-3.01259">
        <ele>146</ele>
        <time>2015-06-10T08:12:41Z</time>
      </trkpt>
      <trkpt lat="48.20259" lon="-3.01255">
        <ele>149</ele>
        <time>2015-06-10T08:12:44Z</time>
      </trkpt>
      <trkpt lat="48.20256" lon="-3.01251">
        <ele>150</ele>
        <time>2015-06-10T08:12:46Z</time>
      </trkpt>
      <trkpt lat="48.20254" lon="-3.01248">
        <ele>152</ele>
        <time>2015-06-10T08:12:48Z</time>
      </trkpt>
      <trkpt lat="48.20251" lon="-3.01245">
        <ele>153</ele>
        <time>2015-06-10T08:12:51Z</time>
      </trkpt>
      <trkpt lat="48.20248" lon="-3.01242">
        <ele>154</ele>
        <time>2015-06-10T08:12:53Z</time>
      </trkpt>
      <trkpt lat="48.20245" lon="-3.0124">
        <ele>155</ele>
        <time>2015-06-10T08:12:56Z</time>
      </trkpt>
      <trkpt lat="48.20243" lon="-3.01237">
        <ele>156</ele>
        <time>2015-06-10T08:12:58Z</time>
      </trkpt>
      <trkpt lat="48.2024" lon="-3.01234">
        <ele>156</ele>
        <time>2015-06-10T08:13:01Z</time>
      </trkpt>
      <trkpt lat="48.20239" lon="-3.01233">
        <ele>157</ele>
        <time>2015-06-10T08:13:03Z</time>
      </trkpt>
      <trkpt lat="48.20238" lon="-3.01228">
        <ele>157</ele>
        <time>2015-06-10T08:13:05Z</time>
      </trkpt>
      <trkpt lat="48.20236" lon="-3.01224">
        <ele>157</ele>
        <time>2015-06-10T08:13:07Z</time>
      </trkpt>
      <trkpt lat="48.20234" lon="-3.01221">
        <ele>157</ele>
        <time>2015-06-10T08:13:09Z</time>
      </trkpt>
      <trkpt lat="48.20233" lon="-3.01217">
        <ele>157</ele>
        <time>2015-06-10T08:13:11Z</time>
      </trkpt>
      <trkpt lat="48.20232" lon="-3.01213">
        <ele>157</ele>
        <time>2015-06-10T08:13:13Z</time>
      </trkpt>
      <trkpt lat="48.20232" lon="-3.01209">
        <ele>157</ele>
        <time>2015-06-10T08:13:15Z</time>
      </trkpt>
      <trkpt lat="48.20232" lon="-3.01205">
        <ele>157</ele>
        <time>2015-06-10T08:13:17Z</time>
      </trkpt>
      <trkpt lat="48.20232" lon="-3.01201">
        <ele>157</ele>
        <time>2015-06-10T08:13:19Z</time>
      </trkpt>
      <trkpt lat="48.2023" lon="-3.01197">
        <ele>157</ele>
        <time>2015-06-10T08:13:21Z</time>
      </trkpt>
      <trkpt lat="48.2023" lon="-3.01194">
        <ele>157</ele>
        <time>2015-06-10T08:13:23Z</time>
      </trkpt>
      <trkpt lat="48.20229" lon="-3.0119">
        <ele>157</ele>
        <time>2015-06-10T08:13:25Z</time>
      </trkpt>
      <trkpt lat="48.20227" lon="-3.01185">
        <ele>157</ele>
        <time>2015-06-10T08:13:27Z</time>
      </trkpt>
      <trkpt lat="48.20226" lon="-3.0118">
        <ele>157</ele>
        <time>2015-06-10T08:13:29Z</time>
      </trkpt>
      <trkpt lat="48.20226" lon="-3.01175">
        <ele>157</ele>
        <time>2015-06-10T08:13:31Z</time>
      </trkpt>
      <trkpt lat="48.20224" lon="-3.01171">
        <ele>157</ele>
        <time>2015-06-10T08:13:33Z</time>
      </trkpt>
      <trkpt lat="48.20223" lon="-3.01167">
        <ele>157</ele>
        <time>2015-06-10T08:13:35Z</time>
      </trkpt>
      <trkpt lat="48.20224" lon="-3.01165">
        <ele>157</ele>
        <time>2015-06-10T08:13:37Z</time>
      </trkpt>
      <trkpt lat="48.20224" lon="-3.01162">
        <ele>157</ele>
        <time>2015-06-10T08:13:39Z</time>
      </trkpt>
      <trkpt lat="48.20224" lon="-3.01157">
        <ele>158</ele>
        <time>2015-06-10T08:13:41Z</time>
      </trkpt>
      <trkpt lat="48.20225" lon="-3.01153">
        <ele>158</ele>
        <time>2015-06-10T08:13:43Z</time>
      </trkpt>
      <trkpt lat="48.20226" lon="-3.01148">
        <ele>158</ele>
        <time>2015-06-10T08:13:45Z</time>
      </trkpt>
      <trkpt lat="48.20226" lon="-3.01143">
        <ele>158</ele>
        <time>2015-06-10T08:13:47Z</time>
      </trkpt>
      <trkpt lat="48.20227" lon="-3.01139">
        <ele>159</ele>
        <time>2015-06-10T08:13:49Z</time>
      </trkpt>
      <trkpt lat="48.20229" lon="-3.01134">
        <ele>159</ele>
        <time>2015-06-10T08:13:51Z</time>
      </trkpt>
      <trkpt lat="48.20231" lon="-3.0113">
        <ele>160</ele>
        <time>2015-06-10T08:13:53Z</time>
      </trkpt>
      <trkpt lat="48.20232" lon="-3.01126">
        <ele>161</ele>
        <time>2015-06-10T08:13:55Z</time>
      </trkpt>
      <trkpt lat="48.20234" lon="-3.01122">
        <ele>162</ele>
        <time>2015-06-10T08:13:57Z</time>
      </trkpt>
      <trkpt lat="48.20234" lon="-3.01117">
        <ele>162</ele>
        <time>2015-06-10T08:14:00Z</time>
      </trkpt>
      <trkpt lat="48.20235" lon="-3.01114">
        <ele>163</ele>
        <time>2015-06-10T08:14:02Z</time>
      </trkpt>
      <trkpt lat="48.20237" lon="-3.01109">
        <ele>163</ele>
        <time>2015-06-10T08:14:04Z</time>
      </trkpt>
      <trkpt lat="48.2024" lon="-3.01105">
        <ele>163</ele>
        <time>2015-06-10T08:14:06Z</time>
      </trkpt>
      <trkpt lat="48.20242" lon="-3.01102">
        <ele>164</ele>
        <time>2015-06-10T08:14:09Z</time>
      </trkpt>
      <trkpt lat="48.20245" lon="-3.01097">
        <ele>165</ele>
        <time>2015-06-10T08:14:12Z</time>
      </trkpt>
      <trkpt lat="48.20247" lon="-3.01094">
        <ele>165</ele>
        <time>2015-06-10T08:14:14Z</time>
      </trkpt>
      <trkpt lat="48.2025" lon="-3.01091">
        <ele>165</ele>
        <time>2015-06-10T08:14:16Z</time>
      </trkpt>
      <trkpt lat="48.20253" lon="-3.01086">
        <ele>165</ele>
        <time>2015-06-10T08:14:19Z</time>
      </trkpt>
      <trkpt lat="48.20254" lon="-3.01083">
        <ele>165</ele>
        <time>2015-06-10T08:14:21Z</time>
      </trkpt>
      <trkpt lat="48.20256" lon="-3.01078">
        <ele>165</ele>
        <time>2015-06-10T08:14:23Z</time>
      </trkpt>
      <trkpt lat="48.20258" lon="-3.01074">
        <ele>165</ele>
        <time>2015-06-10T08:14:26Z</time>
      </trkpt>
      <trkpt lat="48.20261" lon="-3.01068">
        <ele>165</ele>
        <time>2015-06-10T08:14:28Z</time>
      </trkpt>
      <trkpt lat="48.20263" lon="-3.01064">
        <ele>165</ele>
        <time>2015-06-10T08:14:31Z</time>
      </trkpt>
      <trkpt lat="48.20266" lon="-3.01061">
        <ele>165</ele>
        <time>2015-06-10T08:14:33Z</time>
      </trkpt>
      <trkpt lat="48.20269" lon="-3.0106">
        <ele>165</ele>
        <time>2015-06-10T08:14:35Z</time>
      </trkpt>
      <trkpt lat="48.20271" lon="-3.01061">
        <ele>165</ele>
        <time>2015-06-10T08:14:37Z</time>
      </trkpt>
      <trkpt lat="48.20274" lon="-3.01062">
        <ele>162</ele>
        <time>2015-06-10T08:14:40Z</time>
      </trkpt>
      <trkpt lat="48.20277" lon="-3.01064">
        <ele>160</ele>
        <time>2015-06-10T08:14:43Z</time>
      </trkpt>
      <trkpt lat="48.20279" lon="-3.01066">
        <ele>158</ele>
        <time>2015-06-10T08:14:45Z</time>
      </trkpt>
      <trkpt lat="48.20282" lon="-3.01068">
        <ele>155</ele>
        <time>2015-06-10T08:14:48Z</time>
      </trkpt>
      <trkpt lat="48.20287" lon="-3.01069">
        <ele>153</ele>
        <time>2015-06-10T08:14:50Z</time>
      </trkpt>
      <trkpt lat="48.20289" lon="-3.0107">
        <ele>153</ele>
        <time>2015-06-10T08:14:52Z</time>
      </trkpt>
      <trkpt lat="48.20291" lon="-3.01072">
        <ele>152</ele>
        <time>2015-06-10T08:14:54Z</time>
      </trkpt>
      <trkpt lat="48.20293" lon="-3.01073">
        <ele>152</ele>
        <time>2015-06-10T08:14:56Z</time>
      </trkpt>
      <trkpt lat="48.20295" lon="-3.01073">
        <ele>151</ele>
        <time>2015-06-10T08:14:58Z</time>
      </trkpt>
      <trkpt lat="48.20297" lon="-3.01074">
        <ele>151</ele>
        <time>2015-06-10T08:15:00Z</time>
      </trkpt>
      <trkpt lat="48.20301" lon="-3.01077">
        <ele>151</ele>
        <time>2015-06-10T08:15:03Z</time>
      </trkpt>
      <trkpt lat="48.20302" lon="-3.01077">
        <ele>151</ele>
        <time>2015-06-10T08:15:05Z</time>
      </trkpt>
      <trkpt lat="48.20304" lon="-3.01078">
        <ele>151</ele>
        <time>2015-06-10T08:15:07Z</time>
      </trkpt>
      <trkpt lat="48.20306" lon="-3.01079">
        <ele>150</ele>
        <time>2015-06-10T08:15:09Z</time>
      </trkpt>
      <trkpt lat="48.20309" lon="-3.01081">
        <ele>150</ele>
        <time>2015-06-10T08:15:14Z</time>
      </trkpt>
      <trkpt lat="48.20311" lon="-3.01082">
        <ele>150</ele>
        <time>2015-06-10T08:15:16Z</time>
      </trkpt>
      <trkpt lat="48.20315" lon="-3.01084">
        <ele>149</ele>
        <time>2015-06-10T08:15:19Z</time>
      </trkpt>
      <trkpt lat="48.20319" lon="-3.01084">
        <ele>148</ele>
        <time>2015-06-10T08:15:21Z</time>
      </trkpt>
      <trkpt lat="48.20323" lon="-3.01085">
        <ele>147</ele>
        <time>2015-06-10T08:15:25Z</time>
      </trkpt>
      <trkpt lat="48.20325" lon="-3.01086">
        <ele>146</ele>
        <time>2015-06-10T08:15:27Z</time>
      </trkpt>
      <trkpt lat="48.20327" lon="-3.01087">
        <ele>145</ele>
        <time>2015-06-10T08:15:29Z</time>
      </trkpt>
      <trkpt lat="48.20329" lon="-3.01087">
        <ele>145</ele>
        <time>2015-06-10T08:15:31Z</time>
      </trkpt>
      <trkpt lat="48.20332" lon="-3.01087">
        <ele>145</ele>
        <time>2015-06-10T08:15:33Z</time>
      </trkpt>
      <trkpt lat="48.20336" lon="-3.01089">
        <ele>145</ele>
        <time>2015-06-10T08:15:35Z</time>
      </trkpt>
      <trkpt lat="48.2034" lon="-3.0109">
        <ele>145</ele>
        <time>2015-06-10T08:15:38Z</time>
      </trkpt>
      <trkpt lat="48.20342" lon="-3.0109">
        <ele>145</ele>
        <time>2015-06-10T08:15:40Z</time>
      </trkpt>
      <trkpt lat="48.20346" lon="-3.01089">
        <ele>145</ele>
        <time>2015-06-10T08:15:42Z</time>
      </trkpt>
      <trkpt lat="48.2035" lon="-3.01089">
        <ele>145</ele>
        <time>2015-06-10T08:15:44Z</time>
      </trkpt>
      <trkpt lat="48.20352" lon="-3.01091">
        <ele>145</ele>
        <time>2015-06-10T08:15:46Z</time>
      </trkpt>
      <trkpt lat="48.20355" lon="-3.01094">
        <ele>145</ele>
        <time>2015-06-10T08:15:49Z</time>
      </trkpt>
      <trkpt lat="48.20358" lon="-3.01095">
        <ele>145</ele>
        <time>2015-06-10T08:15:52Z</time>
      </trkpt>
      <trkpt lat="48.20361" lon="-3.01096">
        <ele>145</ele>
        <time>2015-06-10T08:15:54Z</time>
      </trkpt>
      <trkpt lat="48.20364" lon="-3.01096">
        <ele>145</ele>
        <time>2015-06-10T08:15:56Z</time>
      </trkpt>
      <trkpt lat="48.20368" lon="-3.01098">
        <ele>145</ele>
        <time>2015-06-10T08:15:58Z</time>
      </trkpt>
      <trkpt lat="48.20371" lon="-3.011">
        <ele>145</ele>
        <time>2015-06-10T08:16:00Z</time>
      </trkpt>
      <trkpt lat="48.20373" lon="-3.01101">
        <ele>144</ele>
        <time>2015-06-10T08:16:02Z</time>
      </trkpt>
      <trkpt lat="48.20376" lon="-3.01102">
        <ele>142</ele>
        <time>2015-06-10T08:16:04Z</time>
      </trkpt>
      <trkpt lat="48.20379" lon="-3.01103">
        <ele>141</ele>
        <time>2015-06-10T08:16:07Z</time>
      </trkpt>
      <trkpt lat="48.20385" lon="-3.01103">
        <ele>141</ele>
        <time>2015-06-10T08:16:09Z</time>
      </trkpt>
      <trkpt lat="48.20387" lon="-3.01104">
        <ele>141</ele>
        <time>2015-06-10T08:16:11Z</time>
      </trkpt>
      <trkpt lat="48.20388" lon="-3.01104">
        <ele>141</ele>
        <time>2015-06-10T08:16:13Z</time>
      </trkpt>
      <trkpt lat="48.20391" lon="-3.01105">
        <ele>143</ele>
        <time>2015-06-10T08:16:16Z</time>
      </trkpt>
      <trkpt lat="48.20393" lon="-3.01104">
        <ele>145</ele>
        <time>2015-06-10T08:16:18Z</time>
      </trkpt>
      <trkpt lat="48.20396" lon="-3.01104">
        <ele>147</ele>
        <time>2015-06-10T08:16:20Z</time>
      </trkpt>
      <trkpt lat="48.204" lon="-3.01104">
        <ele>149</ele>
        <time>2015-06-10T08:16:22Z</time>
      </trkpt>
      <trkpt lat="48.20405" lon="-3.01104">
        <ele>150</ele>
        <time>2015-06-10T08:16:24Z</time>
      </trkpt>
      <trkpt lat="48.20407" lon="-3.01105">
        <ele>152</ele>
        <time>2015-06-10T08:16:26Z</time>
      </trkpt>
      <trkpt lat="48.20411" lon="-3.01106">
        <ele>152</ele>
        <time>2015-06-10T08:16:28Z</time>
      </trkpt>
      <trkpt lat="48.20412" lon="-3.01107">
        <ele>152</ele>
        <time>2015-06-10T08:16:30Z</time>
      </trkpt>
      <trkpt lat="48.20414" lon="-3.01107">
        <ele>153</ele>
        <time>2015-06-10T08:16:32Z</time>
      </trkpt>
      <trkpt lat="48.20416" lon="-3.01106">
        <ele>153</ele>
        <time>2015-06-10T08:16:34Z</time>
      </trkpt>
      <trkpt lat="48.20419" lon="-3.01105">
        <ele>154</ele>
        <time>2015-06-10T08:16:36Z</time>
      </trkpt>
      <trkpt lat="48.20422" lon="-3.01104">
        <ele>155</ele>
        <time>2015-06-10T08:16:38Z</time>
      </trkpt>
      <trkpt lat="48.20425" lon="-3.01103">
        <ele>155</ele>
        <time>2015-06-10T08:16:40Z</time>
      </trkpt>
      <trkpt lat="48.20427" lon="-3.01101">
        <ele>155</ele>
        <time>2015-06-10T08:16:42Z</time>
      </trkpt>
      <trkpt lat="48.2043" lon="-3.01099">
        <ele>155</ele>
        <time>2015-06-10T08:16:44Z</time>
      </trkpt>
      <trkpt lat="48.20433" lon="-3.01097">
        <ele>155</ele>
        <time>2015-06-10T08:16:47Z</time>
      </trkpt>
      <trkpt lat="48.20434" lon="-3.01096">
        <ele>155</ele>
        <time>2015-06-10T08:16:51Z</time>
      </trkpt>
      <trkpt lat="48.20437" lon="-3.01095">
        <ele>156</ele>
        <time>2015-06-10T08:16:53Z</time>
      </trkpt>
      <trkpt lat="48.2044" lon="-3.01095">
        <ele>156</ele>
        <time>2015-06-10T08:16:55Z</time>
      </trkpt>
      <trkpt lat="48.20442" lon="-3.01094">
        <ele>157</ele>
        <time>2015-06-10T08:16:57Z</time>
      </trkpt>
      <trkpt lat="48.20446" lon="-3.01095">
        <ele>157</ele>
        <time>2015-06-10T08:16:59Z</time>
      </trkpt>
      <trkpt lat="48.2045" lon="-3.01095">
        <ele>157</ele>
        <time>2015-06-10T08:17:01Z</time>
      </trkpt>
      <trkpt lat="48.20454" lon="-3.01095">
        <ele>157</ele>
        <time>2015-06-10T08:17:03Z</time>
      </trkpt>
      <trkpt lat="48.20457" lon="-3.01096">
        <ele>157</ele>
        <time>2015-06-10T08:17:05Z</time>
      </trkpt>
      <trkpt lat="48.20459" lon="-3.01095">
        <ele>157</ele>
        <time>2015-06-10T08:17:07Z</time>
      </trkpt>
      <trkpt lat="48.20462" lon="-3.01095">
        <ele>157</ele>
        <time>2015-06-10T08:17:09Z</time>
      </trkpt>
      <trkpt lat="48.20464" lon="-3.01096">
        <ele>157</ele>
        <time>2015-06-10T08:17:11Z</time>
      </trkpt>
      <trkpt lat="48.20466" lon="-3.01096">
        <ele>156</ele>
        <time>2015-06-10T08:17:13Z</time>
      </trkpt>
      <trkpt lat="48.2047" lon="-3.01096">
        <ele>155</ele>
        <time>2015-06-10T08:17:15Z</time>
      </trkpt>
      <trkpt lat="48.20472" lon="-3.01097">
        <ele>154</ele>
        <time>2015-06-10T08:17:17Z</time>
      </trkpt>
      <trkpt lat="48.20475" lon="-3.01097">
        <ele>154</ele>
        <time>2015-06-10T08:17:19Z</time>
      </trkpt>
      <trkpt lat="48.20476" lon="-3.01096">
        <ele>154</ele>
        <time>2015-06-10T08:17:21Z</time>
      </trkpt>
      <trkpt lat="48.20478" lon="-3.01096">
        <ele>154</ele>
        <time>2015-06-10T08:17:23Z</time>
      </trkpt>
      <trkpt lat="48.2048" lon="-3.01097">
        <ele>154</ele>
        <time>2015-06-10T08:17:25Z</time>
      </trkpt>
      <trkpt lat="48.20483" lon="-3.01098">
        <ele>154</ele>
        <time>2015-06-10T08:17:27Z</time>
      </trkpt>
      <trkpt lat="48.20485" lon="-3.011">
        <ele>154</ele>
        <time>2015-06-10T08:17:29Z</time>
      </trkpt>
      <trkpt lat="48.20488" lon="-3.01101">
        <ele>154</ele>
        <time>2015-06-10T08:17:31Z</time>
      </trkpt>
      <trkpt lat="48.20489" lon="-3.01102">
        <ele>153</ele>
        <time>2015-06-10T08:17:33Z</time>
      </trkpt>
      <trkpt lat="48.20493" lon="-3.01104">
        <ele>152</ele>
        <time>2015-06-10T08:17:36Z</time>
      </trkpt>
      <trkpt lat="48.20496" lon="-3.01106">
        <ele>152</ele>
        <time>2015-06-10T08:17:38Z</time>
      </trkpt>
      <trkpt lat="48.20498" lon="-3.01109">
        <ele>151</ele>
        <time>2015-06-10T08:17:40Z</time>
      </trkpt>
      <trkpt lat="48.20501" lon="-3.0111">
        <ele>151</ele>
        <time>2015-06-10T08:17:42Z</time>
      </trkpt>
      <trkpt lat="48.20503" lon="-3.01112">
        <ele>150</ele>
        <time>2015-06-10T08:17:44Z</time>
      </trkpt>
      <trkpt lat="48.20505" lon="-3.01115">
        <ele>150</ele>
        <time>2015-06-10T08:17:46Z</time>
      </trkpt>
      <trkpt lat="48.20508" lon="-3.01117">
        <ele>149</ele>
        <time>2015-06-10T08:17:48Z</time>
      </trkpt>
      <trkpt lat="48.2051" lon="-3.0112">
        <ele>148</ele>
        <time>2015-06-10T08:17:50Z</time>
      </trkpt>
      <trkpt lat="48.20512" lon="-3.01122">
        <ele>147</ele>
        <time>2015-06-10T08:17:52Z</time>
      </trkpt>
      <trkpt lat="48.20515" lon="-3.01126">
        <ele>147</ele>
        <time>2015-06-10T08:17:56Z</time>
      </trkpt>
      <trkpt lat="48.20517" lon="-3.01126">
        <ele>147</ele>
        <time>2015-06-10T08:17:58Z</time>
      </trkpt>
      <trkpt lat="48.20521" lon="-3.01127">
        <ele>147</ele>
        <time>2015-06-10T08:18:00Z</time>
      </trkpt>
      <trkpt lat="48.20526" lon="-3.01128">
        <ele>147</ele>
        <time>2015-06-10T08:18:02Z</time>
      </trkpt>
      <trkpt lat="48.20529" lon="-3.01129">
        <ele>148</ele>
        <time>2015-06-10T08:18:04Z</time>
      </trkpt>
      <trkpt lat="48.20533" lon="-3.0113">
        <ele>150</ele>
        <time>2015-06-10T08:18:06Z</time>
      </trkpt>
      <trkpt lat="48.20536" lon="-3.0113">
        <ele>151</ele>
        <time>2015-06-10T08:18:08Z</time>
      </trkpt>
      <trkpt lat="48.20539" lon="-3.01132">
        <ele>152</ele>
        <time>2015-06-10T08:18:10Z</time>
      </trkpt>
      <trkpt lat="48.20543" lon="-3.01134">
        <ele>154</ele>
        <time>2015-06-10T08:18:12Z</time>
      </trkpt>
      <trkpt lat="48.20543" lon="-3.01137">
        <ele>154</ele>
        <time>2015-06-10T08:18:14Z</time>
      </trkpt>
      <trkpt lat="48.20544" lon="-3.01141">
        <ele>154</ele>
        <time>2015-06-10T08:18:16Z</time>
      </trkpt>
      <trkpt lat="48.20546" lon="-3.01145">
        <ele>154</ele>
        <time>2015-06-10T08:18:18Z</time>
      </trkpt>
      <trkpt lat="48.20548" lon="-3.01147">
        <ele>154</ele>
        <time>2015-06-10T08:18:20Z</time>
      </trkpt>
      <trkpt lat="48.20552" lon="-3.01148">
        <ele>154</ele>
        <time>2015-06-10T08:18:22Z</time>
      </trkpt>
      <trkpt lat="48.20555" lon="-3.0115">
        <ele>151</ele>
        <time>2015-06-10T08:18:25Z</time>
      </trkpt>
      <trkpt lat="48.20559" lon="-3.01151">
        <ele>151</ele>
        <time>2015-06-10T08:18:27Z</time>
      </trkpt>
      <trkpt lat="48.20561" lon="-3.01153">
        <ele>151</ele>
        <time>2015-06-10T08:18:29Z</time>
      </trkpt>
      <trkpt lat="48.20565" lon="-3.01155">
        <ele>151</ele>
        <time>2015-06-10T08:18:31Z</time>
      </trkpt>
      <trkpt lat="48.20568" lon="-3.01156">
        <ele>150</ele>
        <time>2015-06-10T08:18:33Z</time>
      </trkpt>
      <trkpt lat="48.2057" lon="-3.01158">
        <ele>149</ele>
        <time>2015-06-10T08:18:35Z</time>
      </trkpt>
      <trkpt lat="48.20572" lon="-3.01162">
        <ele>148</ele>
        <time>2015-06-10T08:18:38Z</time>
      </trkpt>
      <trkpt lat="48.20573" lon="-3.01164">
        <ele>148</ele>
        <time>2015-06-10T08:18:40Z</time>
      </trkpt>
      <trkpt lat="48.20575" lon="-3.01165">
        <ele>147</ele>
        <time>2015-06-10T08:18:42Z</time>
      </trkpt>
      <trkpt lat="48.20578" lon="-3.01167">
        <ele>146</ele>
        <time>2015-06-10T08:18:44Z</time>
      </trkpt>
      <trkpt lat="48.20581" lon="-3.01171">
        <ele>145</ele>
        <time>2015-06-10T08:18:47Z</time>
      </trkpt>
      <trkpt lat="48.20583" lon="-3.01172">
        <ele>145</ele>
        <time>2015-06-10T08:18:49Z</time>
      </trkpt>
      <trkpt lat="48.20586" lon="-3.01176">
        <ele>145</ele>
        <time>2015-06-10T08:18:52Z</time>
      </trkpt>
      <trkpt lat="48.20589" lon="-3.01178">
        <ele>145</ele>
        <time>2015-06-10T08:18:54Z</time>
      </trkpt>
      <trkpt lat="48.20592" lon="-3.01178">
        <ele>145</ele>
        <time>2015-06-10T08:18:56Z</time>
      </trkpt>
      <trkpt lat="48.20594" lon="-3.0118">
        <ele>145</ele>
        <time>2015-06-10T08:18:58Z</time>
      </trkpt>
      <trkpt lat="48.20596" lon="-3.01182">
        <ele>144</ele>
        <time>2015-06-10T08:19:00Z</time>
      </trkpt>
      <trkpt lat="48.206" lon="-3.01183">
        <ele>144</ele>
        <time>2015-06-10T08:19:02Z</time>
      </trkpt>
      <trkpt lat="48.20605" lon="-3.01184">
        <ele>144</ele>
        <time>2015-06-10T08:19:04Z</time>
      </trkpt>
      <trkpt lat="48.20608" lon="-3.01185">
        <ele>144</ele>
        <time>2015-06-10T08:19:06Z</time>
      </trkpt>
      <trkpt lat="48.20609" lon="-3.01187">
        <ele>144</ele>
        <time>2015-06-10T08:19:08Z</time>
      </trkpt>
      <trkpt lat="48.20609" lon="-3.01189">
        <ele>144</ele>
        <time>2015-06-10T08:19:10Z</time>
      </trkpt>
      <trkpt lat="48.2061" lon="-3.01192">
        <ele>144</ele>
        <time>2015-06-10T08:19:12Z</time>
      </trkpt>
      <trkpt lat="48.20612" lon="-3.01194">
        <ele>144</ele>
        <time>2015-06-10T08:19:14Z</time>
      </trkpt>
      <trkpt lat="48.20618" lon="-3.01196">
        <ele>144</ele>
        <time>2015-06-10T08:19:16Z</time>
      </trkpt>
      <trkpt lat="48.20621" lon="-3.01199">
        <ele>145</ele>
        <time>2015-06-10T08:19:19Z</time>
      </trkpt>
      <trkpt lat="48.20626" lon="-3.012">
        <ele>145</ele>
        <time>2015-06-10T08:19:21Z</time>
      </trkpt>
      <trkpt lat="48.20628" lon="-3.01202">
        <ele>145</ele>
        <time>2015-06-10T08:19:24Z</time>
      </trkpt>
      <trkpt lat="48.2063" lon="-3.01204">
        <ele>145</ele>
        <time>2015-06-10T08:19:26Z</time>
      </trkpt>
      <trkpt lat="48.20631" lon="-3.01207">
        <ele>145</ele>
        <time>2015-06-10T08:19:28Z</time>
      </trkpt>
      <trkpt lat="48.20634" lon="-3.01209">
        <ele>145</ele>
        <time>2015-06-10T08:19:30Z</time>
      </trkpt>
      <trkpt lat="48.20638" lon="-3.01211">
        <ele>145</ele>
        <time>2015-06-10T08:19:32Z</time>
      </trkpt>
      <trkpt lat="48.20641" lon="-3.01213">
        <ele>145</ele>
        <time>2015-06-10T08:19:34Z</time>
      </trkpt>
      <trkpt lat="48.20643" lon="-3.01214">
        <ele>143</ele>
        <time>2015-06-10T08:19:36Z</time>
      </trkpt>
      <trkpt lat="48.20645" lon="-3.01216">
        <ele>142</ele>
        <time>2015-06-10T08:19:38Z</time>
      </trkpt>
      <trkpt lat="48.20646" lon="-3.01218">
        <ele>140</ele>
        <time>2015-06-10T08:19:40Z</time>
      </trkpt>
      <trkpt lat="48.20649" lon="-3.01221">
        <ele>139</ele>
        <time>2015-06-10T08:19:42Z</time>
      </trkpt>
      <trkpt lat="48.20651" lon="-3.01225">
        <ele>138</ele>
        <time>2015-06-10T08:19:45Z</time>
      </trkpt>
      <trkpt lat="48.20655" lon="-3.01229">
        <ele>138</ele>
        <time>2015-06-10T08:19:48Z</time>
      </trkpt>
      <trkpt lat="48.20656" lon="-3.01231">
        <ele>138</ele>
        <time>2015-06-10T08:19:50Z</time>
      </trkpt>
      <trkpt lat="48.20657" lon="-3.01234">
        <ele>138</ele>
        <time>2015-06-10T08:19:52Z</time>
      </trkpt>
      <trkpt lat="48.20659" lon="-3.01238">
        <ele>138</ele>
        <time>2015-06-10T08:19:55Z</time>
      </trkpt>
      <trkpt lat="48.2066" lon="-3.01241">
        <ele>138</ele>
        <time>2015-06-10T08:19:57Z</time>
      </trkpt>
      <trkpt lat="48.20661" lon="-3.01244">
        <ele>137</ele>
        <time>2015-06-10T08:19:59Z</time>
      </trkpt>
      <trkpt lat="48.20664" lon="-3.01247">
        <ele>136</ele>
        <time>2015-06-10T08:20:01Z</time>
      </trkpt>
      <trkpt lat="48.20667" lon="-3.0125">
        <ele>135</ele>
        <time>2015-06-10T08:20:03Z</time>
      </trkpt>
      <trkpt lat="48.20668" lon="-3.01252">
        <ele>134</ele>
        <time>2015-06-10T08:20:05Z</time>
      </trkpt>
      <trkpt lat="48.20671" lon="-3.01257">
        <ele>132</ele>
        <time>2015-06-10T08:20:08Z</time>
      </trkpt>
      <trkpt lat="48.20673" lon="-3.01261">
        <ele>131</ele>
        <time>2015-06-10T08:20:10Z</time>
      </trkpt>
      <trkpt lat="48.20674" lon="-3.01263">
        <ele>131</ele>
        <time>2015-06-10T08:20:12Z</time>
      </trkpt>
      <trkpt lat="48.20676" lon="-3.01266">
        <ele>130</ele>
        <time>2015-06-10T08:20:14Z</time>
      </trkpt>
      <trkpt lat="48.20678" lon="-3.01268">
        <ele>128</ele>
        <time>2015-06-10T08:20:16Z</time>
      </trkpt>
      <trkpt lat="48.2068" lon="-3.0127">
        <ele>127</ele>
        <time>2015-06-10T08:20:18Z</time>
      </trkpt>
      <trkpt lat="48.20683" lon="-3.01273">
        <ele>126</ele>
        <time>2015-06-10T08:20:20Z</time>
      </trkpt>
      <trkpt lat="48.20684" lon="-3.01276">
        <ele>125</ele>
        <time>2015-06-10T08:20:22Z</time>
      </trkpt>
      <trkpt lat="48.20686" lon="-3.01278">
        <ele>124</ele>
        <time>2015-06-10T08:20:24Z</time>
      </trkpt>
      <trkpt lat="48.20689" lon="-3.01281">
        <ele>124</ele>
        <time>2015-06-10T08:20:26Z</time>
      </trkpt>
      <trkpt lat="48.20693" lon="-3.01283">
        <ele>124</ele>
        <time>2015-06-10T08:20:28Z</time>
      </trkpt>
      <trkpt lat="48.20696" lon="-3.01284">
        <ele>124</ele>
        <time>2015-06-10T08:20:31Z</time>
      </trkpt>
      <trkpt lat="48.20698" lon="-3.01288">
        <ele>125</ele>
        <time>2015-06-10T08:20:33Z</time>
      </trkpt>
      <trkpt lat="48.20701" lon="-3.0129">
        <ele>126</ele>
        <time>2015-06-10T08:20:35Z</time>
      </trkpt>
      <trkpt lat="48.20705" lon="-3.01293">
        <ele>126</ele>
        <time>2015-06-10T08:20:38Z</time>
      </trkpt>
      <trkpt lat="48.20707" lon="-3.01297">
        <ele>126</ele>
        <time>2015-06-10T08:20:40Z</time>
      </trkpt>
      <trkpt lat="48.20708" lon="-3.01299">
        <ele>126</ele>
        <time>2015-06-10T08:20:42Z</time>
      </trkpt>
      <trkpt lat="48.2071" lon="-3.01302">
        <ele>126</ele>
        <time>2015-06-10T08:20:44Z</time>
      </trkpt>
      <trkpt lat="48.20712" lon="-3.01306">
        <ele>126</ele>
        <time>2015-06-10T08:20:46Z</time>
      </trkpt>
      <trkpt lat="48.20713" lon="-3.01309">
        <ele>126</ele>
        <time>2015-06-10T08:20:48Z</time>
      </trkpt>
      <trkpt lat="48.20716" lon="-3.01311">
        <ele>125</ele>
        <time>2015-06-10T08:20:50Z</time>
      </trkpt>
      <trkpt lat="48.2072" lon="-3.01315">
        <ele>123</ele>
        <time>2015-06-10T08:20:53Z</time>
      </trkpt>
      <trkpt lat="48.20722" lon="-3.01318">
        <ele>121</ele>
        <time>2015-06-10T08:20:55Z</time>
      </trkpt>
      <trkpt lat="48.20725" lon="-3.01321">
        <ele>121</ele>
        <time>2015-06-10T08:20:57Z</time>
      </trkpt>
      <trkpt lat="48.20727" lon="-3.01324">
        <ele>121</ele>
        <time>2015-06-10T08:20:59Z</time>
      </trkpt>
      <trkpt lat="48.20728" lon="-3.01328">
        <ele>121</ele>
        <time>2015-06-10T08:21:01Z</time>
      </trkpt>
      <trkpt lat="48.2073" lon="-3.01332">
        <ele>121</ele>
        <time>2015-06-10T08:21:04Z</time>
      </trkpt>
      <trkpt lat="48.20732" lon="-3.01336">
        <ele>121</ele>
        <time>2015-06-10T08:21:06Z</time>
      </trkpt>
      <trkpt lat="48.20734" lon="-3.01338">
        <ele>120</ele>
        <time>2015-06-10T08:21:08Z</time>
      </trkpt>
      <trkpt lat="48.20737" lon="-3.01341">
        <ele>120</ele>
        <time>2015-06-10T08:21:10Z</time>
      </trkpt>
      <trkpt lat="48.2074" lon="-3.01344">
        <ele>120</ele>
        <time>2015-06-10T08:21:13Z</time>
      </trkpt>
      <trkpt lat="48.20742" lon="-3.01347">
        <ele>120</ele>
        <time>2015-06-10T08:21:15Z</time>
      </trkpt>
      <trkpt lat="48.20745" lon="-3.0135">
        <ele>120</ele>
        <time>2015-06-10T08:21:17Z</time>
      </trkpt>
      <trkpt lat="48.20748" lon="-3.01352">
        <ele>120</ele>
        <time>2015-06-10T08:21:19Z</time>
      </trkpt>
      <trkpt lat="48.20749" lon="-3.01353">
        <ele>122</ele>
        <time>2015-06-10T08:21:21Z</time>
      </trkpt>
      <trkpt lat="48.2075" lon="-3.01354">
        <ele>124</ele>
        <time>2015-06-10T08:21:23Z</time>
      </trkpt>
      <trkpt lat="48.20754" lon="-3.01358">
        <ele>127</ele>
        <time>2015-06-10T08:21:26Z</time>
      </trkpt>
      <trkpt lat="48.20755" lon="-3.0136">
        <ele>129</ele>
        <time>2015-06-10T08:21:28Z</time>
      </trkpt>
      <trkpt lat="48.20757" lon="-3.01364">
        <ele>129</ele>
        <time>2015-06-10T08:21:30Z</time>
      </trkpt>
      <trkpt lat="48.20758" lon="-3.01367">
        <ele>129</ele>
        <time>2015-06-10T08:21:32Z</time>
      </trkpt>
      <trkpt lat="48.2076" lon="-3.01372">
        <ele>129</ele>
        <time>2015-06-10T08:21:34Z</time>
      </trkpt>
      <trkpt lat="48.20762" lon="-3.01375">
        <ele>129</ele>
        <time>2015-06-10T08:21:36Z</time>
      </trkpt>
      <trkpt lat="48.20764" lon="-3.01379">
        <ele>130</ele>
        <time>2015-06-10T08:21:38Z</time>
      </trkpt>
      <trkpt lat="48.20766" lon="-3.01382">
        <ele>131</ele>
        <time>2015-06-10T08:21:40Z</time>
      </trkpt>
      <trkpt lat="48.20767" lon="-3.01386">
        <ele>131</ele>
        <time>2015-06-10T08:21:42Z</time>
      </trkpt>
      <trkpt lat="48.20771" lon="-3.0139">
        <ele>131</ele>
        <time>2015-06-10T08:21:45Z</time>
      </trkpt>
      <trkpt lat="48.20774" lon="-3.01391">
        <ele>131</ele>
        <time>2015-06-10T08:21:47Z</time>
      </trkpt>
      <trkpt lat="48.20776" lon="-3.0139">
        <ele>131</ele>
        <time>2015-06-10T08:21:49Z</time>
      </trkpt>
      <trkpt lat="48.20779" lon="-3.01387">
        <ele>131</ele>
        <time>2015-06-10T08:21:51Z</time>
      </trkpt>
      <trkpt lat="48.20779" lon="-3.01383">
        <ele>131</ele>
        <time>2015-06-10T08:21:53Z</time>
      </trkpt>
      <trkpt lat="48.2078" lon="-3.01378">
        <ele>132</ele>
        <time>2015-06-10T08:21:55Z</time>
      </trkpt>
      <trkpt lat="48.20782" lon="-3.01374">
        <ele>133</ele>
        <time>2015-06-10T08:21:57Z</time>
      </trkpt>
      <trkpt lat="48.20784" lon="-3.01368">
        <ele>134</ele>
        <time>2015-06-10T08:21:59Z</time>
      </trkpt>
      <trkpt lat="48.20784" lon="-3.01364">
        <ele>134</ele>
        <time>2015-06-10T08:22:01Z</time>
      </trkpt>
      <trkpt lat="48.20786" lon="-3.01361">
        <ele>135</ele>
        <time>2015-06-10T08:22:03Z</time>
      </trkpt>
      <trkpt lat="48.20787" lon="-3.01357">
        <ele>135</ele>
        <time>2015-06-10T08:22:05Z</time>
      </trkpt>
      <trkpt lat="48.2079" lon="-3.01352">
        <ele>135</ele>
        <time>2015-06-10T08:22:08Z</time>
      </trkpt>
      <trkpt lat="48.20793" lon="-3.01347">
        <ele>135</ele>
        <time>2015-06-10T08:22:11Z</time>
      </trkpt>
      <trkpt lat="48.20795" lon="-3.01346">
        <ele>135</ele>
        <time>2015-06-10T08:22:13Z</time>
      </trkpt>
      <trkpt lat="48.20798" lon="-3.01346">
        <ele>135</ele>
        <time>2015-06-10T08:22:15Z</time>
      </trkpt>
      <trkpt lat="48.208" lon="-3.01345">
        <ele>135</ele>
        <time>2015-06-10T08:22:17Z</time>
      </trkpt>
      <trkpt lat="48.20803" lon="-3.01344">
        <ele>135</ele>
        <time>2015-06-10T08:22:19Z</time>
      </trkpt>
      <trkpt lat="48.20805" lon="-3.01344">
        <ele>135</ele>
        <time>2015-06-10T08:22:21Z</time>
      </trkpt>
      <trkpt lat="48.20808" lon="-3.01342">
        <ele>135</ele>
        <time>2015-06-10T08:22:23Z</time>
      </trkpt>
      <trkpt lat="48.2081" lon="-3.01341">
        <ele>135</ele>
        <time>2015-06-10T08:22:25Z</time>
      </trkpt>
      <trkpt lat="48.20812" lon="-3.01339">
        <ele>135</ele>
        <time>2015-06-10T08:22:27Z</time>
      </trkpt>
      <trkpt lat="48.20816" lon="-3.0134">
        <ele>135</ele>
        <time>2015-06-10T08:22:30Z</time>
      </trkpt>
      <trkpt lat="48.20818" lon="-3.01341">
        <ele>135</ele>
        <time>2015-06-10T08:22:32Z</time>
      </trkpt>
      <trkpt lat="48.20819" lon="-3.0134">
        <ele>135</ele>
        <time>2015-06-10T08:22:34Z</time>
      </trkpt>
      <trkpt lat="48.2082" lon="-3.01336">
        <ele>135</ele>
        <time>2015-06-10T08:22:36Z</time>
      </trkpt>
      <trkpt lat="48.20822" lon="-3.01332">
        <ele>135</ele>
        <time>2015-06-10T08:22:39Z</time>
      </trkpt>
      <trkpt lat="48.20823" lon="-3.01329">
        <ele>135</ele>
        <time>2015-06-10T08:22:41Z</time>
      </trkpt>
      <trkpt lat="48.20825" lon="-3.01327">
        <ele>135</ele>
        <time>2015-06-10T08:22:43Z</time>
      </trkpt>
      <trkpt lat="48.20827" lon="-3.01324">
        <ele>135</ele>
        <time>2015-06-10T08:22:45Z</time>
      </trkpt>
      <trkpt lat="48.20829" lon="-3.01323">
        <ele>135</ele>
        <time>2015-06-10T08:22:47Z</time>
      </trkpt>
      <trkpt lat="48.20832" lon="-3.01321">
        <ele>135</ele>
        <time>2015-06-10T08:22:49Z</time>
      </trkpt>
      <trkpt lat="48.20834" lon="-3.01319">
        <ele>135</ele>
        <time>2015-06-10T08:22:51Z</time>
      </trkpt>
      <trkpt lat="48.20837" lon="-3.01317">
        <ele>135</ele>
        <time>2015-06-10T08:22:54Z</time>
      </trkpt>
      <trkpt lat="48.20839" lon="-3.01314">
        <ele>135</ele>
        <time>2015-06-10T08:22:56Z</time>
      </trkpt>
      <trkpt lat="48.20842" lon="-3.01313">
        <ele>135</ele>
        <time>2015-06-10T08:22:58Z</time>
      </trkpt>
      <trkpt lat="48.20845" lon="-3.01313">
        <ele>135</ele>
        <time>2015-06-10T08:23:00Z</time>
      </trkpt>
      <trkpt lat="48.20847" lon="-3.01312">
        <ele>135</ele>
        <time>2015-06-10T08:23:02Z</time>
      </trkpt>
      <trkpt lat="48.2085" lon="-3.01311">
        <ele>135</ele>
        <time>2015-06-10T08:23:04Z</time>
      </trkpt>
      <trkpt lat="48.20852" lon="-3.01309">
        <ele>135</ele>
        <time>2015-06-10T08:23:06Z</time>
      </trkpt>
      <trkpt lat="48.20854" lon="-3.01308">
        <ele>135</ele>
        <time>2015-06-10T08:23:08Z</time>
      </trkpt>
      <trkpt lat="48.20857" lon="-3.01307">
        <ele>135</ele>
        <time>2015-06-10T08:23:10Z</time>
      </trkpt>
      <trkpt lat="48.20859" lon="-3.01307">
        <ele>135</ele>
        <time>2015-06-10T08:23:12Z</time>
      </trkpt>
      <trkpt lat="48.20861" lon="-3.01307">
        <ele>135</ele>
        <time>2015-06-10T08:23:14Z</time>
      </trkpt>
      <trkpt lat="48.20864" lon="-3.01307">
        <ele>135</ele>
        <time>2015-06-10T08:23:16Z</time>
      </trkpt>
      <trkpt lat="48.20867" lon="-3.01307">
        <ele>135</ele>
        <time>2015-06-10T08:23:18Z</time>
      </trkpt>
      <trkpt lat="48.2087" lon="-3.01307">
        <ele>135</ele>
        <time>2015-06-10T08:23:20Z</time>
      </trkpt>
      <trkpt lat="48.20873" lon="-3.01308">
        <ele>135</ele>
        <time>2015-06-10T08:23:22Z</time>
      </trkpt>
      <trkpt lat="48.20876" lon="-3.01308">
        <ele>135</ele>
        <time>2015-06-10T08:23:24Z</time>
      </trkpt>
      <trkpt lat="48.20879" lon="-3.01308">
        <ele>135</ele>
        <time>2015-06-10T08:23:26Z</time>
      </trkpt>
      <trkpt lat="48.20881" lon="-3.01308">
        <ele>135</ele>
        <time>2015-06-10T08:23:28Z</time>
      </trkpt>
      <trkpt lat="48.20884" lon="-3.01308">
        <ele>135</ele>
        <time>2015-06-10T08:23:30Z</time>
      </trkpt>
      <trkpt lat="48.20887" lon="-3.01308">
        <ele>135</ele>
        <time>2015-06-10T08:23:32Z</time>
      </trkpt>
      <trkpt lat="48.2089" lon="-3.01308">
        <ele>135</ele>
        <time>2015-06-10T08:23:34Z</time>
      </trkpt>
      <trkpt lat="48.20892" lon="-3.01308">
        <ele>135</ele>
        <time>2015-06-10T08:23:36Z</time>
      </trkpt>
      <trkpt lat="48.20895" lon="-3.01308">
        <ele>135</ele>
        <time>2015-06-10T08:23:38Z</time>
      </trkpt>
      <trkpt lat="48.20898" lon="-3.01308">
        <ele>135</ele>
        <time>2015-06-10T08:23:40Z</time>
      </trkpt>
      <trkpt lat="48.209" lon="-3.01308">
        <ele>135</ele>
        <time>2015-06-10T08:23:42Z</time>
      </trkpt>
      <trkpt lat="48.20903" lon="-3.01309">
        <ele>135</ele>
        <time>2015-06-10T08:23:44Z</time>
      </trkpt>
      <trkpt lat="48.20906" lon="-3.01309">
        <ele>135</ele>
        <time>2015-06-10T08:23:47Z</time>
      </trkpt>
      <trkpt lat="48.20908" lon="-3.01309">
        <ele>135</ele>
        <time>2015-06-10T08:23:49Z</time>
      </trkpt>
      <trkpt lat="48.20911" lon="-3.01308">
        <ele>135</ele>
        <time>2015-06-10T08:23:51Z</time>
      </trkpt>
      <trkpt lat="48.20913" lon="-3.01308">
        <ele>135</ele>
        <time>2015-06-10T08:23:53Z</time>
      </trkpt>
      <trkpt lat="48.20916" lon="-3.01308">
        <ele>135</ele>
        <time>2015-06-10T08:23:55Z</time>
      </trkpt>
      <trkpt lat="48.20918" lon="-3.01308">
        <ele>135</ele>
        <time>2015-06-10T08:23:57Z</time>
      </trkpt>
      <trkpt lat="48.20921" lon="-3.01306">
        <ele>135</ele>
        <time>2015-06-10T08:23:59Z</time>
      </trkpt>
      <trkpt lat="48.20924" lon="-3.01304">
        <ele>135</ele>
        <time>2015-06-10T08:24:02Z</time>
      </trkpt>
      <trkpt lat="48.20927" lon="-3.01305">
        <ele>135</ele>
        <time>2015-06-10T08:24:04Z</time>
      </trkpt>
      <trkpt lat="48.2093" lon="-3.01306">
        <ele>135</ele>
        <time>2015-06-10T08:24:07Z</time>
      </trkpt>
      <trkpt lat="48.20933" lon="-3.01307">
        <ele>134</ele>
        <time>2015-06-10T08:24:10Z</time>
      </trkpt>
      <trkpt lat="48.20935" lon="-3.01307">
        <ele>134</ele>
        <time>2015-06-10T08:24:12Z</time>
      </trkpt>
      <trkpt lat="48.20937" lon="-3.01307">
        <ele>133</ele>
        <time>2015-06-10T08:24:14Z</time>
      </trkpt>
      <trkpt lat="48.2094" lon="-3.01308">
        <ele>133</ele>
        <time>2015-06-10T08:24:17Z</time>
      </trkpt>
      <trkpt lat="48.20942" lon="-3.01307">
        <ele>132</ele>
        <time>2015-06-10T08:24:19Z</time>
      </trkpt>
      <trkpt lat="48.20944" lon="-3.01307">
        <ele>132</ele>
        <time>2015-06-10T08:24:21Z</time>
      </trkpt>
      <trkpt lat="48.20947" lon="-3.01307">
        <ele>132</ele>
        <time>2015-06-10T08:24:23Z</time>
      </trkpt>
      <trkpt lat="48.20949" lon="-3.01307">
        <ele>131</ele>
        <time>2015-06-10T08:24:25Z</time>
      </trkpt>
      <trkpt lat="48.20951" lon="-3.01307">
        <ele>131</ele>
        <time>2015-06-10T08:24:27Z</time>
      </trkpt>
      <trkpt lat="48.20952" lon="-3.01307">
        <ele>131</ele>
        <time>2015-06-10T08:24:29Z</time>
      </trkpt>
      <trkpt lat="48.20953" lon="-3.01306">
        <ele>131</ele>
        <time>2015-06-10T08:24:31Z</time>
      </trkpt>
      <trkpt lat="48.20956" lon="-3.01306">
        <ele>131</ele>
        <time>2015-06-10T08:24:33Z</time>
      </trkpt>
      <trkpt lat="48.20958" lon="-3.01307">
        <ele>130</ele>
        <time>2015-06-10T08:24:36Z</time>
      </trkpt>
      <trkpt lat="48.2096" lon="-3.01307">
        <ele>130</ele>
        <time>2015-06-10T08:24:42Z</time>
      </trkpt>
      <trkpt lat="48.20962" lon="-3.01307">
        <ele>130</ele>
        <time>2015-06-10T08:24:44Z</time>
      </trkpt>
      <trkpt lat="48.20963" lon="-3.01307">
        <ele>130</ele>
        <time>2015-06-10T08:24:46Z</time>
      </trkpt>
      <trkpt lat="48.20965" lon="-3.01306">
        <ele>130</ele>
        <time>2015-06-10T08:24:52Z</time>
      </trkpt>
      <trkpt lat="48.20966" lon="-3.01306">
        <ele>130</ele>
        <time>2015-06-10T08:24:54Z</time>
      </trkpt>
      <trkpt lat="48.20967" lon="-3.01304">
        <ele>130</ele>
        <time>2015-06-10T08:24:57Z</time>
      </trkpt>
      <trkpt lat="48.20968" lon="-3.01299">
        <ele>130</ele>
        <time>2015-06-10T08:25:00Z</time>
      </trkpt>
      <trkpt lat="48.20969" lon="-3.01297">
        <ele>130</ele>
        <time>2015-06-10T08:25:02Z</time>
      </trkpt>
      <trkpt lat="48.2097" lon="-3.01295">
        <ele>130</ele>
        <time>2015-06-10T08:25:04Z</time>
      </trkpt>
      <trkpt lat="48.20971" lon="-3.01294">
        <ele>130</ele>
        <time>2015-06-10T08:25:13Z</time>
      </trkpt>
      <trkpt lat="48.20969" lon="-3.01293">
        <ele>130</ele>
        <time>2015-06-10T08:25:17Z</time>
      </trkpt>
      <trkpt lat="48.20969" lon="-3.01291">
        <ele>130</ele>
        <time>2015-06-10T08:25:19Z</time>
      </trkpt>
      <trkpt lat="48.20969" lon="-3.01288">
        <ele>130</ele>
        <time>2015-06-10T08:25:21Z</time>
      </trkpt>
      <trkpt lat="48.2097" lon="-3.01285">
        <ele>129</ele>
        <time>2015-06-10T08:25:23Z</time>
      </trkpt>
      <trkpt lat="48.2097" lon="-3.01281">
        <ele>129</ele>
        <time>2015-06-10T08:25:25Z</time>
      </trkpt>
      <trkpt lat="48.20971" lon="-3.01277">
        <ele>128</ele>
        <time>2015-06-10T08:25:27Z</time>
      </trkpt>
      <trkpt lat="48.20972" lon="-3.01273">
        <ele>128</ele>
        <time>2015-06-10T08:25:29Z</time>
      </trkpt>
      <trkpt lat="48.20972" lon="-3.0127">
        <ele>128</ele>
        <time>2015-06-10T08:25:31Z</time>
      </trkpt>
      <trkpt lat="48.20973" lon="-3.01268">
        <ele>128</ele>
        <time>2015-06-10T08:25:33Z</time>
      </trkpt>
      <trkpt lat="48.20973" lon="-3.01266">
        <ele>128</ele>
        <time>2015-06-10T08:25:36Z</time>
      </trkpt>
      <trkpt lat="48.20973" lon="-3.01263">
        <ele>128</ele>
        <time>2015-06-10T08:25:39Z</time>
      </trkpt>
      <trkpt lat="48.20973" lon="-3.01259">
        <ele>128</ele>
        <time>2015-06-10T08:25:41Z</time>
      </trkpt>
      <trkpt lat="48.20972" lon="-3.01255">
        <ele>128</ele>
        <time>2015-06-10T08:25:43Z</time>
      </trkpt>
      <trkpt lat="48.20972" lon="-3.01251">
        <ele>128</ele>
        <time>2015-06-10T08:25:45Z</time>
      </trkpt>
      <trkpt lat="48.20972" lon="-3.01247">
        <ele>128</ele>
        <time>2015-06-10T08:25:47Z</time>
      </trkpt>
      <trkpt lat="48.20972" lon="-3.01243">
        <ele>128</ele>
        <time>2015-06-10T08:25:49Z</time>
      </trkpt>
      <trkpt lat="48.20972" lon="-3.01239">
        <ele>128</ele>
        <time>2015-06-10T08:25:51Z</time>
      </trkpt>
      <trkpt lat="48.20973" lon="-3.01235">
        <ele>128</ele>
        <time>2015-06-10T08:25:53Z</time>
      </trkpt>
      <trkpt lat="48.20973" lon="-3.01231">
        <ele>128</ele>
        <time>2015-06-10T08:25:55Z</time>
      </trkpt>
      <trkpt lat="48.20973" lon="-3.01227">
        <ele>128</ele>
        <time>2015-06-10T08:25:57Z</time>
      </trkpt>
      <trkpt lat="48.20973" lon="-3.01223">
        <ele>127</ele>
        <time>2015-06-10T08:25:59Z</time>
      </trkpt>
      <trkpt lat="48.20973" lon="-3.01219">
        <ele>127</ele>
        <time>2015-06-10T08:26:01Z</time>
      </trkpt>
      <trkpt lat="48.20973" lon="-3.01215">
        <ele>127</ele>
        <time>2015-06-10T08:26:03Z</time>
      </trkpt>
      <trkpt lat="48.20974" lon="-3.01211">
        <ele>126</ele>
        <time>2015-06-10T08:26:05Z</time>
      </trkpt>
      <trkpt lat="48.20974" lon="-3.01206">
        <ele>126</ele>
        <time>2015-06-10T08:26:07Z</time>
      </trkpt>
      <trkpt lat="48.20974" lon="-3.01202">
        <ele>126</ele>
        <time>2015-06-10T08:26:09Z</time>
      </trkpt>
      <trkpt lat="48.20974" lon="-3.01198">
        <ele>126</ele>
        <time>2015-06-10T08:26:11Z</time>
      </trkpt>
      <trkpt lat="48.20974" lon="-3.01194">
        <ele>126</ele>
        <time>2015-06-10T08:26:13Z</time>
      </trkpt>
      <trkpt lat="48.20973" lon="-3.01188">
        <ele>126</ele>
        <time>2015-06-10T08:26:15Z</time>
      </trkpt>
      <trkpt lat="48.20972" lon="-3.01183">
        <ele>126</ele>
        <time>2015-06-10T08:26:17Z</time>
      </trkpt>
      <trkpt lat="48.20973" lon="-3.0118">
        <ele>126</ele>
        <time>2015-06-10T08:26:19Z</time>
      </trkpt>
      <trkpt lat="48.20974" lon="-3.01175">
        <ele>126</ele>
        <time>2015-06-10T08:26:22Z</time>
      </trkpt>
      <trkpt lat="48.20975" lon="-3.01171">
        <ele>126</ele>
        <time>2015-06-10T08:26:24Z</time>
      </trkpt>
      <trkpt lat="48.20976" lon="-3.01169">
        <ele>125</ele>
        <time>2015-06-10T08:26:26Z</time>
      </trkpt>
      <trkpt lat="48.20976" lon="-3.01164">
        <ele>125</ele>
        <time>2015-06-10T08:26:29Z</time>
      </trkpt>
      <trkpt lat="48.20977" lon="-3.0116">
        <ele>125</ele>
        <time>2015-06-10T08:26:32Z</time>
      </trkpt>
      <trkpt lat="48.20977" lon="-3.01156">
        <ele>125</ele>
        <time>2015-06-10T08:26:34Z</time>
      </trkpt>
      <trkpt lat="48.20977" lon="-3.01151">
        <ele>125</ele>
        <time>2015-06-10T08:26:36Z</time>
      </trkpt>
      <trkpt lat="48.20977" lon="-3.01147">
        <ele>125</ele>
        <time>2015-06-10T08:26:38Z</time>
      </trkpt>
      <trkpt lat="48.20977" lon="-3.01143">
        <ele>125</ele>
        <time>2015-06-10T08:26:40Z</time>
      </trkpt>
      <trkpt lat="48.20977" lon="-3.01137">
        <ele>125</ele>
        <time>2015-06-10T08:26:42Z</time>
      </trkpt>
      <trkpt lat="48.20978" lon="-3.01135">
        <ele>125</ele>
        <time>2015-06-10T08:26:45Z</time>
      </trkpt>
      <trkpt lat="48.20979" lon="-3.01133">
        <ele>125</ele>
        <time>2015-06-10T08:26:48Z</time>
      </trkpt>
      <trkpt lat="48.2098" lon="-3.01131">
        <ele>125</ele>
        <time>2015-06-10T08:26:50Z</time>
      </trkpt>
      <trkpt lat="48.20983" lon="-3.01129">
        <ele>125</ele>
        <time>2015-06-10T08:26:53Z</time>
      </trkpt>
      <trkpt lat="48.20985" lon="-3.01125">
        <ele>125</ele>
        <time>2015-06-10T08:26:55Z</time>
      </trkpt>
      <trkpt lat="48.20986" lon="-3.01119">
        <ele>125</ele>
        <time>2015-06-10T08:26:58Z</time>
      </trkpt>
      <trkpt lat="48.20987" lon="-3.01116">
        <ele>125</ele>
        <time>2015-06-10T08:27:00Z</time>
      </trkpt>
      <trkpt lat="48.20988" lon="-3.01113">
        <ele>125</ele>
        <time>2015-06-10T08:27:02Z</time>
      </trkpt>
      <trkpt lat="48.2099" lon="-3.01108">
        <ele>125</ele>
        <time>2015-06-10T08:27:05Z</time>
      </trkpt>
      <trkpt lat="48.2099" lon="-3.01106">
        <ele>125</ele>
        <time>2015-06-10T08:27:07Z</time>
      </trkpt>
      <trkpt lat="48.20991" lon="-3.01103">
        <ele>125</ele>
        <time>2015-06-10T08:27:09Z</time>
      </trkpt>
      <trkpt lat="48.20991" lon="-3.011">
        <ele>125</ele>
        <time>2015-06-10T08:27:11Z</time>
      </trkpt>
      <trkpt lat="48.20993" lon="-3.01097">
        <ele>125</ele>
        <time>2015-06-10T08:27:13Z</time>
      </trkpt>
      <trkpt lat="48.20994" lon="-3.01094">
        <ele>125</ele>
        <time>2015-06-10T08:27:15Z</time>
      </trkpt>
      <trkpt lat="48.20995" lon="-3.01091">
        <ele>125</ele>
        <time>2015-06-10T08:27:17Z</time>
      </trkpt>
      <trkpt lat="48.20995" lon="-3.01085">
        <ele>125</ele>
        <time>2015-06-10T08:27:20Z</time>
      </trkpt>
      <trkpt lat="48.20995" lon="-3.01081">
        <ele>125</ele>
        <time>2015-06-10T08:27:22Z</time>
      </trkpt>
      <trkpt lat="48.20994" lon="-3.01077">
        <ele>125</ele>
        <time>2015-06-10T08:27:24Z</time>
      </trkpt>
      <trkpt lat="48.20994" lon="-3.01072">
        <ele>125</ele>
        <time>2015-06-10T08:27:26Z</time>
      </trkpt>
      <trkpt lat="48.20995" lon="-3.01067">
        <ele>125</ele>
        <time>2015-06-10T08:27:28Z</time>
      </trkpt>
      <trkpt lat="48.20996" lon="-3.01063">
        <ele>125</ele>
        <time>2015-06-10T08:27:30Z</time>
      </trkpt>
      <trkpt lat="48.20997" lon="-3.01059">
        <ele>125</ele>
        <time>2015-06-10T08:27:32Z</time>
      </trkpt>
      <trkpt lat="48.20998" lon="-3.01055">
        <ele>125</ele>
        <time>2015-06-10T08:27:34Z</time>
      </trkpt>
      <trkpt lat="48.20999" lon="-3.01051">
        <ele>125</ele>
        <time>2015-06-10T08:27:36Z</time>
      </trkpt>
      <trkpt lat="48.21" lon="-3.01047">
        <ele>125</ele>
        <time>2015-06-10T08:27:38Z</time>
      </trkpt>
      <trkpt lat="48.21" lon="-3.01043">
        <ele>125</ele>
        <time>2015-06-10T08:27:40Z</time>
      </trkpt>
      <trkpt lat="48.21001" lon="-3.01039">
        <ele>125</ele>
        <time>2015-06-10T08:27:43Z</time>
      </trkpt>
      <trkpt lat="48.21003" lon="-3.01034">
        <ele>125</ele>
        <time>2015-06-10T08:27:46Z</time>
      </trkpt>
      <trkpt lat="48.21004" lon="-3.01033">
        <ele>124</ele>
        <time>2015-06-10T08:27:48Z</time>
      </trkpt>
      <trkpt lat="48.21006" lon="-3.01035">
        <ele>123</ele>
        <time>2015-06-10T08:27:50Z</time>
      </trkpt>
      <trkpt lat="48.21008" lon="-3.01038">
        <ele>123</ele>
        <time>2015-06-10T08:27:52Z</time>
      </trkpt>
      <trkpt lat="48.21009" lon="-3.0104">
        <ele>123</ele>
        <time>2015-06-10T08:27:54Z</time>
      </trkpt>
      <trkpt lat="48.2101" lon="-3.01043">
        <ele>123</ele>
        <time>2015-06-10T08:27:56Z</time>
      </trkpt>
      <trkpt lat="48.21012" lon="-3.01046">
        <ele>122</ele>
        <time>2015-06-10T08:27:58Z</time>
      </trkpt>
      <trkpt lat="48.21013" lon="-3.01049">
        <ele>122</ele>
        <time>2015-06-10T08:28:00Z</time>
      </trkpt>
      <trkpt lat="48.21015" lon="-3.01052">
        <ele>122</ele>
        <time>2015-06-10T08:28:02Z</time>
      </trkpt>
      <trkpt lat="48.21017" lon="-3.01055">
        <ele>122</ele>
        <time>2015-06-10T08:28:04Z</time>
      </trkpt>
      <trkpt lat="48.2102" lon="-3.01059">
        <ele>122</ele>
        <time>2015-06-10T08:28:07Z</time>
      </trkpt>
      <trkpt lat="48.21022" lon="-3.01062">
        <ele>122</ele>
        <time>2015-06-10T08:28:09Z</time>
      </trkpt>
      <trkpt lat="48.21023" lon="-3.01064">
        <ele>122</ele>
        <time>2015-06-10T08:28:11Z</time>
      </trkpt>
      <trkpt lat="48.21025" lon="-3.01067">
        <ele>122</ele>
        <time>2015-06-10T08:28:13Z</time>
      </trkpt>
      <trkpt lat="48.21027" lon="-3.0107">
        <ele>122</ele>
        <time>2015-06-10T08:28:15Z</time>
      </trkpt>
      <trkpt lat="48.2103" lon="-3.01072">
        <ele>122</ele>
        <time>2015-06-10T08:28:17Z</time>
      </trkpt>
      <trkpt lat="48.21033" lon="-3.01076">
        <ele>122</ele>
        <time>2015-06-10T08:28:20Z</time>
      </trkpt>
      <trkpt lat="48.21035" lon="-3.01079">
        <ele>122</ele>
        <time>2015-06-10T08:28:22Z</time>
      </trkpt>
      <trkpt lat="48.21037" lon="-3.01081">
        <ele>122</ele>
        <time>2015-06-10T08:28:24Z</time>
      </trkpt>
      <trkpt lat="48.2104" lon="-3.01084">
        <ele>122</ele>
        <time>2015-06-10T08:28:26Z</time>
      </trkpt>
      <trkpt lat="48.21043" lon="-3.01087">
        <ele>122</ele>
        <time>2015-06-10T08:28:29Z</time>
      </trkpt>
      <trkpt lat="48.21045" lon="-3.0109">
        <ele>122</ele>
        <time>2015-06-10T08:28:31Z</time>
      </trkpt>
      <trkpt lat="48.21048" lon="-3.01092">
        <ele>122</ele>
        <time>2015-06-10T08:28:33Z</time>
      </trkpt>
      <trkpt lat="48.2105" lon="-3.01094">
        <ele>122</ele>
        <time>2015-06-10T08:28:35Z</time>
      </trkpt>
      <trkpt lat="48.21052" lon="-3.01097">
        <ele>122</ele>
        <time>2015-06-10T08:28:37Z</time>
      </trkpt>
      <trkpt lat="48.21054" lon="-3.01099">
        <ele>122</ele>
        <time>2015-06-10T08:28:39Z</time>
      </trkpt>
      <trkpt lat="48.21057" lon="-3.01101">
        <ele>122</ele>
        <time>2015-06-10T08:28:41Z</time>
      </trkpt>
      <trkpt lat="48.21059" lon="-3.01103">
        <ele>122</ele>
        <time>2015-06-10T08:28:43Z</time>
      </trkpt>
      <trkpt lat="48.21061" lon="-3.01105">
        <ele>122</ele>
        <time>2015-06-10T08:28:45Z</time>
      </trkpt>
      <trkpt lat="48.21065" lon="-3.01109">
        <ele>122</ele>
        <time>2015-06-10T08:28:48Z</time>
      </trkpt>
      <trkpt lat="48.21068" lon="-3.01112">
        <ele>122</ele>
        <time>2015-06-10T08:28:51Z</time>
      </trkpt>
      <trkpt lat="48.2107" lon="-3.01114">
        <ele>122</ele>
        <time>2015-06-10T08:28:53Z</time>
      </trkpt>
      <trkpt lat="48.21072" lon="-3.01116">
        <ele>122</ele>
        <time>2015-06-10T08:28:55Z</time>
      </trkpt>
      <trkpt lat="48.21074" lon="-3.01118">
        <ele>122</ele>
        <time>2015-06-10T08:28:57Z</time>
      </trkpt>
      <trkpt lat="48.21077" lon="-3.0112">
        <ele>122</ele>
        <time>2015-06-10T08:28:59Z</time>
      </trkpt>
      <trkpt lat="48.2108" lon="-3.01124">
        <ele>122</ele>
        <time>2015-06-10T08:29:02Z</time>
      </trkpt>
      <trkpt lat="48.21082" lon="-3.01126">
        <ele>122</ele>
        <time>2015-06-10T08:29:04Z</time>
      </trkpt>
      <trkpt lat="48.21085" lon="-3.01129">
        <ele>122</ele>
        <time>2015-06-10T08:29:06Z</time>
      </trkpt>
      <trkpt lat="48.21087" lon="-3.01131">
        <ele>122</ele>
        <time>2015-06-10T08:29:08Z</time>
      </trkpt>
      <trkpt lat="48.2109" lon="-3.01134">
        <ele>122</ele>
        <time>2015-06-10T08:29:11Z</time>
      </trkpt>
      <trkpt lat="48.21092" lon="-3.01136">
        <ele>122</ele>
        <time>2015-06-10T08:29:13Z</time>
      </trkpt>
      <trkpt lat="48.21094" lon="-3.01138">
        <ele>122</ele>
        <time>2015-06-10T08:29:15Z</time>
      </trkpt>
      <trkpt lat="48.21096" lon="-3.0114">
        <ele>122</ele>
        <time>2015-06-10T08:29:17Z</time>
      </trkpt>
      <trkpt lat="48.21098" lon="-3.01142">
        <ele>122</ele>
        <time>2015-06-10T08:29:19Z</time>
      </trkpt>
      <trkpt lat="48.211" lon="-3.01144">
        <ele>122</ele>
        <time>2015-06-10T08:29:21Z</time>
      </trkpt>
      <trkpt lat="48.21102" lon="-3.01146">
        <ele>122</ele>
        <time>2015-06-10T08:29:23Z</time>
      </trkpt>
      <trkpt lat="48.21104" lon="-3.01148">
        <ele>122</ele>
        <time>2015-06-10T08:29:25Z</time>
      </trkpt>
      <trkpt lat="48.21106" lon="-3.0115">
        <ele>122</ele>
        <time>2015-06-10T08:29:27Z</time>
      </trkpt>
      <trkpt lat="48.21109" lon="-3.01152">
        <ele>122</ele>
        <time>2015-06-10T08:29:29Z</time>
      </trkpt>
      <trkpt lat="48.21112" lon="-3.01155">
        <ele>121</ele>
        <time>2015-06-10T08:29:32Z</time>
      </trkpt>
      <trkpt lat="48.21114" lon="-3.01156">
        <ele>121</ele>
        <time>2015-06-10T08:29:34Z</time>
      </trkpt>
      <trkpt lat="48.21118" lon="-3.01158">
        <ele>121</ele>
        <time>2015-06-10T08:29:36Z</time>
      </trkpt>
      <trkpt lat="48.2112" lon="-3.0116">
        <ele>121</ele>
        <time>2015-06-10T08:29:38Z</time>
      </trkpt>
      <trkpt lat="48.21122" lon="-3.01162">
        <ele>121</ele>
        <time>2015-06-10T08:29:40Z</time>
      </trkpt>
      <trkpt lat="48.21125" lon="-3.01163">
        <ele>121</ele>
        <time>2015-06-10T08:29:42Z</time>
      </trkpt>
      <trkpt lat="48.21127" lon="-3.01165">
        <ele>121</ele>
        <time>2015-06-10T08:29:44Z</time>
      </trkpt>
      <trkpt lat="48.21129" lon="-3.01166">
        <ele>121</ele>
        <time>2015-06-10T08:29:46Z</time>
      </trkpt>
      <trkpt lat="48.21132" lon="-3.01167">
        <ele>120</ele>
        <time>2015-06-10T08:29:48Z</time>
      </trkpt>
      <trkpt lat="48.21134" lon="-3.01168">
        <ele>119</ele>
        <time>2015-06-10T08:29:50Z</time>
      </trkpt>
      <trkpt lat="48.21136" lon="-3.01169">
        <ele>118</ele>
        <time>2015-06-10T08:29:52Z</time>
      </trkpt>
      <trkpt lat="48.21139" lon="-3.0117">
        <ele>117</ele>
        <time>2015-06-10T08:29:54Z</time>
      </trkpt>
      <trkpt lat="48.21141" lon="-3.01171">
        <ele>117</ele>
        <time>2015-06-10T08:29:56Z</time>
      </trkpt>
      <trkpt lat="48.21144" lon="-3.01173">
        <ele>117</ele>
        <time>2015-06-10T08:29:59Z</time>
      </trkpt>
      <trkpt lat="48.21148" lon="-3.01174">
        <ele>117</ele>
        <time>2015-06-10T08:30:01Z</time>
      </trkpt>
      <trkpt lat="48.21151" lon="-3.01174">
        <ele>117</ele>
        <time>2015-06-10T08:30:03Z</time>
      </trkpt>
      <trkpt lat="48.21154" lon="-3.01175">
        <ele>117</ele>
        <time>2015-06-10T08:30:05Z</time>
      </trkpt>
      <trkpt lat="48.21157" lon="-3.01176">
        <ele>117</ele>
        <time>2015-06-10T08:30:08Z</time>
      </trkpt>
      <trkpt lat="48.21159" lon="-3.01177">
        <ele>117</ele>
        <time>2015-06-10T08:30:10Z</time>
      </trkpt>
      <trkpt lat="48.21163" lon="-3.01178">
        <ele>117</ele>
        <time>2015-06-10T08:30:13Z</time>
      </trkpt>
      <trkpt lat="48.21165" lon="-3.01177">
        <ele>117</ele>
        <time>2015-06-10T08:30:15Z</time>
      </trkpt>
      <trkpt lat="48.21169" lon="-3.01176">
        <ele>117</ele>
        <time>2015-06-10T08:30:17Z</time>
      </trkpt>
      <trkpt lat="48.21172" lon="-3.01176">
        <ele>116</ele>
        <time>2015-06-10T08:30:19Z</time>
      </trkpt>
      <trkpt lat="48.21175" lon="-3.01176">
        <ele>116</ele>
        <time>2015-06-10T08:30:21Z</time>
      </trkpt>
      <trkpt lat="48.21177" lon="-3.01175">
        <ele>115</ele>
        <time>2015-06-10T08:30:23Z</time>
      </trkpt>
      <trkpt lat="48.21179" lon="-3.01175">
        <ele>115</ele>
        <time>2015-06-10T08:30:25Z</time>
      </trkpt>
      <trkpt lat="48.21182" lon="-3.01174">
        <ele>115</ele>
        <time>2015-06-10T08:30:27Z</time>
      </trkpt>
      <trkpt lat="48.21184" lon="-3.01174">
        <ele>114</ele>
        <time>2015-06-10T08:30:29Z</time>
      </trkpt>
      <trkpt lat="48.21188" lon="-3.01175">
        <ele>113</ele>
        <time>2015-06-10T08:30:32Z</time>
      </trkpt>
      <trkpt lat="48.2119" lon="-3.01176">
        <ele>113</ele>
        <time>2015-06-10T08:30:34Z</time>
      </trkpt>
      <trkpt lat="48.21193" lon="-3.01176">
        <ele>113</ele>
        <time>2015-06-10T08:30:36Z</time>
      </trkpt>
      <trkpt lat="48.21196" lon="-3.01176">
        <ele>113</ele>
        <time>2015-06-10T08:30:38Z</time>
      </trkpt>
      <trkpt lat="48.21199" lon="-3.01177">
        <ele>113</ele>
        <time>2015-06-10T08:30:40Z</time>
      </trkpt>
      <trkpt lat="48.21202" lon="-3.01177">
        <ele>113</ele>
        <time>2015-06-10T08:30:42Z</time>
      </trkpt>
      <trkpt lat="48.21206" lon="-3.01177">
        <ele>113</ele>
        <time>2015-06-10T08:30:44Z</time>
      </trkpt>
      <trkpt lat="48.21209" lon="-3.01177">
        <ele>113</ele>
        <time>2015-06-10T08:30:46Z</time>
      </trkpt>
      <trkpt lat="48.21212" lon="-3.01177">
        <ele>113</ele>
        <time>2015-06-10T08:30:48Z</time>
      </trkpt>
      <trkpt lat="48.21216" lon="-3.01177">
        <ele>113</ele>
        <time>2015-06-10T08:30:50Z</time>
      </trkpt>
      <trkpt lat="48.21218" lon="-3.01178">
        <ele>113</ele>
        <time>2015-06-10T08:30:52Z</time>
      </trkpt>
      <trkpt lat="48.21222" lon="-3.01179">
        <ele>114</ele>
        <time>2015-06-10T08:30:54Z</time>
      </trkpt>
      <trkpt lat="48.21225" lon="-3.01179">
        <ele>115</ele>
        <time>2015-06-10T08:30:56Z</time>
      </trkpt>
      <trkpt lat="48.21228" lon="-3.01179">
        <ele>115</ele>
        <time>2015-06-10T08:30:58Z</time>
      </trkpt>
      <trkpt lat="48.21232" lon="-3.0118">
        <ele>116</ele>
        <time>2015-06-10T08:31:00Z</time>
      </trkpt>
      <trkpt lat="48.21235" lon="-3.0118">
        <ele>117</ele>
        <time>2015-06-10T08:31:02Z</time>
      </trkpt>
      <trkpt lat="48.21239" lon="-3.0118">
        <ele>118</ele>
        <time>2015-06-10T08:31:04Z</time>
      </trkpt>
      <trkpt lat="48.21242" lon="-3.01179">
        <ele>119</ele>
        <time>2015-06-10T08:31:06Z</time>
      </trkpt>
      <trkpt lat="48.21245" lon="-3.01179">
        <ele>119</ele>
        <time>2015-06-10T08:31:08Z</time>
      </trkpt>
      <trkpt lat="48.21249" lon="-3.01179">
        <ele>120</ele>
        <time>2015-06-10T08:31:10Z</time>
      </trkpt>
      <trkpt lat="48.21252" lon="-3.01179">
        <ele>120</ele>
        <time>2015-06-10T08:31:12Z</time>
      </trkpt>
      <trkpt lat="48.21255" lon="-3.0118">
        <ele>121</ele>
        <time>2015-06-10T08:31:14Z</time>
      </trkpt>
      <trkpt lat="48.21258" lon="-3.0118">
        <ele>121</ele>
        <time>2015-06-10T08:31:16Z</time>
      </trkpt>
      <trkpt lat="48.2126" lon="-3.0118">
        <ele>121</ele>
        <time>2015-06-10T08:31:18Z</time>
      </trkpt>
      <trkpt lat="48.21264" lon="-3.0118">
        <ele>121</ele>
        <time>2015-06-10T08:31:20Z</time>
      </trkpt>
      <trkpt lat="48.21266" lon="-3.01181">
        <ele>121</ele>
        <time>2015-06-10T08:31:22Z</time>
      </trkpt>
      <trkpt lat="48.21268" lon="-3.01181">
        <ele>121</ele>
        <time>2015-06-10T08:31:24Z</time>
      </trkpt>
      <trkpt lat="48.2127" lon="-3.01184">
        <ele>121</ele>
        <time>2015-06-10T08:31:26Z</time>
      </trkpt>
      <trkpt lat="48.21273" lon="-3.01186">
        <ele>121</ele>
        <time>2015-06-10T08:31:28Z</time>
      </trkpt>
      <trkpt lat="48.21275" lon="-3.01189">
        <ele>121</ele>
        <time>2015-06-10T08:31:31Z</time>
      </trkpt>
      <trkpt lat="48.21276" lon="-3.01192">
        <ele>122</ele>
        <time>2015-06-10T08:31:33Z</time>
      </trkpt>
      <trkpt lat="48.21277" lon="-3.01194">
        <ele>122</ele>
        <time>2015-06-10T08:31:35Z</time>
      </trkpt>
      <trkpt lat="48.21278" lon="-3.01196">
        <ele>123</ele>
        <time>2015-06-10T08:31:37Z</time>
      </trkpt>
      <trkpt lat="48.21278" lon="-3.01198">
        <ele>123</ele>
        <time>2015-06-10T08:31:39Z</time>
      </trkpt>
      <trkpt lat="48.2128" lon="-3.01199">
        <ele>124</ele>
        <time>2015-06-10T08:31:44Z</time>
      </trkpt>
      <trkpt lat="48.21279" lon="-3.01201">
        <ele>125</ele>
        <time>2015-06-10T08:31:54Z</time>
      </trkpt>
      <trkpt lat="48.2128" lon="-3.01201">
        <ele>126</ele>
        <time>2015-06-10T08:31:57Z</time>
      </trkpt>
      <trkpt lat="48.2128" lon="-3.01203">
        <ele>128</ele>
        <time>2015-06-10T08:32:07Z</time>
      </trkpt>
      <trkpt lat="48.21279" lon="-3.01204">
        <ele>128</ele>
        <time>2015-06-10T08:32:25Z</time>
      </trkpt>
      <trkpt lat="48.2128" lon="-3.01206">
        <ele>128</ele>
        <time>2015-06-10T08:32:27Z</time>
      </trkpt>
      <trkpt lat="48.21281" lon="-3.01208">
        <ele>128</ele>
        <time>2015-06-10T08:32:29Z</time>
      </trkpt>
      <trkpt lat="48.21281" lon="-3.0121">
        <ele>128</ele>
        <time>2015-06-10T08:32:31Z</time>
      </trkpt>
      <trkpt lat="48.21282" lon="-3.01213">
        <ele>128</ele>
        <time>2015-06-10T08:32:33Z</time>
      </trkpt>
      <trkpt lat="48.21282" lon="-3.01216">
        <ele>128</ele>
        <time>2015-06-10T08:32:35Z</time>
      </trkpt>
      <trkpt lat="48.21283" lon="-3.01219">
        <ele>128</ele>
        <time>2015-06-10T08:32:37Z</time>
      </trkpt>
      <trkpt lat="48.21283" lon="-3.01223">
        <ele>128</ele>
        <time>2015-06-10T08:32:39Z</time>
      </trkpt>
      <trkpt lat="48.21284" lon="-3.01227">
        <ele>128</ele>
        <time>2015-06-10T08:32:41Z</time>
      </trkpt>
      <trkpt lat="48.21284" lon="-3.01231">
        <ele>128</ele>
        <time>2015-06-10T08:32:43Z</time>
      </trkpt>
      <trkpt lat="48.21284" lon="-3.01235">
        <ele>128</ele>
        <time>2015-06-10T08:32:45Z</time>
      </trkpt>
      <trkpt lat="48.21284" lon="-3.01238">
        <ele>128</ele>
        <time>2015-06-10T08:32:47Z</time>
      </trkpt>
      <trkpt lat="48.21284" lon="-3.01242">
        <ele>128</ele>
        <time>2015-06-10T08:32:49Z</time>
      </trkpt>
      <trkpt lat="48.21286" lon="-3.01246">
        <ele>128</ele>
        <time>2015-06-10T08:32:51Z</time>
      </trkpt>
      <trkpt lat="48.21287" lon="-3.01249">
        <ele>128</ele>
        <time>2015-06-10T08:32:53Z</time>
      </trkpt>
      <trkpt lat="48.21288" lon="-3.01253">
        <ele>129</ele>
        <time>2015-06-10T08:32:55Z</time>
      </trkpt>
      <trkpt lat="48.21288" lon="-3.01256">
        <ele>129</ele>
        <time>2015-06-10T08:32:57Z</time>
      </trkpt>
      <trkpt lat="48.21289" lon="-3.0126">
        <ele>129</ele>
        <time>2015-06-10T08:32:59Z</time>
      </trkpt>
      <trkpt lat="48.2129" lon="-3.01264">
        <ele>129</ele>
        <time>2015-06-10T08:33:01Z</time>
      </trkpt>
      <trkpt lat="48.21292" lon="-3.01267">
        <ele>129</ele>
        <time>2015-06-10T08:33:03Z</time>
      </trkpt>
      <trkpt lat="48.21293" lon="-3.01271">
        <ele>129</ele>
        <time>2015-06-10T08:33:05Z</time>
      </trkpt>
      <trkpt lat="48.21294" lon="-3.01274">
        <ele>129</ele>
        <time>2015-06-10T08:33:07Z</time>
      </trkpt>
      <trkpt lat="48.21295" lon="-3.01278">
        <ele>129</ele>
        <time>2015-06-10T08:33:09Z</time>
      </trkpt>
      <trkpt lat="48.21297" lon="-3.01281">
        <ele>129</ele>
        <time>2015-06-10T08:33:11Z</time>
      </trkpt>
      <trkpt lat="48.21298" lon="-3.01284">
        <ele>129</ele>
        <time>2015-06-10T08:33:13Z</time>
      </trkpt>
      <trkpt lat="48.21299" lon="-3.01287">
        <ele>129</ele>
        <time>2015-06-10T08:33:15Z</time>
      </trkpt>
      <trkpt lat="48.21301" lon="-3.0129">
        <ele>129</ele>
        <time>2015-06-10T08:33:17Z</time>
      </trkpt>
      <trkpt lat="48.21301" lon="-3.01294">
        <ele>130</ele>
        <time>2015-06-10T08:33:19Z</time>
      </trkpt>
      <trkpt lat="48.21302" lon="-3.01297">
        <ele>130</ele>
        <time>2015-06-10T08:33:21Z</time>
      </trkpt>
      <trkpt lat="48.21302" lon="-3.01301">
        <ele>130</ele>
        <time>2015-06-10T08:33:23Z</time>
      </trkpt>
      <trkpt lat="48.21304" lon="-3.01305">
        <ele>130</ele>
        <time>2015-06-10T08:33:25Z</time>
      </trkpt>
      <trkpt lat="48.21305" lon="-3.01308">
        <ele>130</ele>
        <time>2015-06-10T08:33:27Z</time>
      </trkpt>
      <trkpt lat="48.21306" lon="-3.01312">
        <ele>130</ele>
        <time>2015-06-10T08:33:29Z</time>
      </trkpt>
      <trkpt lat="48.21307" lon="-3.01315">
        <ele>130</ele>
        <time>2015-06-10T08:33:31Z</time>
      </trkpt>
      <trkpt lat="48.21307" lon="-3.01319">
        <ele>130</ele>
        <time>2015-06-10T08:33:33Z</time>
      </trkpt>
      <trkpt lat="48.21308" lon="-3.01323">
        <ele>130</ele>
        <time>2015-06-10T08:33:35Z</time>
      </trkpt>
      <trkpt lat="48.21309" lon="-3.01326">
        <ele>130</ele>
        <time>2015-06-10T08:33:37Z</time>
      </trkpt>
      <trkpt lat="48.2131" lon="-3.0133">
        <ele>130</ele>
        <time>2015-06-10T08:33:39Z</time>
      </trkpt>
      <trkpt lat="48.21311" lon="-3.01333">
        <ele>130</ele>
        <time>2015-06-10T08:33:41Z</time>
      </trkpt>
      <trkpt lat="48.21312" lon="-3.01338">
        <ele>130</ele>
        <time>2015-06-10T08:33:43Z</time>
      </trkpt>
      <trkpt lat="48.21312" lon="-3.01342">
        <ele>130</ele>
        <time>2015-06-10T08:33:45Z</time>
      </trkpt>
      <trkpt lat="48.21313" lon="-3.01345">
        <ele>130</ele>
        <time>2015-06-10T08:33:47Z</time>
      </trkpt>
      <trkpt lat="48.21313" lon="-3.0135">
        <ele>130</ele>
        <time>2015-06-10T08:33:49Z</time>
      </trkpt>
      <trkpt lat="48.21314" lon="-3.01354">
        <ele>130</ele>
        <time>2015-06-10T08:33:51Z</time>
      </trkpt>
      <trkpt lat="48.21315" lon="-3.01358">
        <ele>130</ele>
        <time>2015-06-10T08:33:53Z</time>
      </trkpt>
      <trkpt lat="48.21315" lon="-3.01362">
        <ele>130</ele>
        <time>2015-06-10T08:33:55Z</time>
      </trkpt>
      <trkpt lat="48.21316" lon="-3.01366">
        <ele>130</ele>
        <time>2015-06-10T08:33:57Z</time>
      </trkpt>
      <trkpt lat="48.21316" lon="-3.01369">
        <ele>130</ele>
        <time>2015-06-10T08:33:59Z</time>
      </trkpt>
      <trkpt lat="48.21317" lon="-3.01372">
        <ele>130</ele>
        <time>2015-06-10T08:34:01Z</time>
      </trkpt>
      <trkpt lat="48.21318" lon="-3.01375">
        <ele>130</ele>
        <time>2015-06-10T08:34:03Z</time>
      </trkpt>
      <trkpt lat="48.21319" lon="-3.01378">
        <ele>130</ele>
        <time>2015-06-10T08:34:05Z</time>
      </trkpt>
      <trkpt lat="48.2132" lon="-3.01382">
        <ele>130</ele>
        <time>2015-06-10T08:34:07Z</time>
      </trkpt>
      <trkpt lat="48.21321" lon="-3.01386">
        <ele>130</ele>
        <time>2015-06-10T08:34:09Z</time>
      </trkpt>
      <trkpt lat="48.21321" lon="-3.0139">
        <ele>131</ele>
        <time>2015-06-10T08:34:11Z</time>
      </trkpt>
      <trkpt lat="48.21321" lon="-3.01394">
        <ele>131</ele>
        <time>2015-06-10T08:34:13Z</time>
      </trkpt>
      <trkpt lat="48.21323" lon="-3.01398">
        <ele>131</ele>
        <time>2015-06-10T08:34:15Z</time>
      </trkpt>
      <trkpt lat="48.21323" lon="-3.01401">
        <ele>131</ele>
        <time>2015-06-10T08:34:17Z</time>
      </trkpt>
      <trkpt lat="48.21325" lon="-3.01405">
        <ele>131</ele>
        <time>2015-06-10T08:34:19Z</time>
      </trkpt>
      <trkpt lat="48.21326" lon="-3.01409">
        <ele>131</ele>
        <time>2015-06-10T08:34:21Z</time>
      </trkpt>
      <trkpt lat="48.21327" lon="-3.01413">
        <ele>131</ele>
        <time>2015-06-10T08:34:23Z</time>
      </trkpt>
      <trkpt lat="48.21329" lon="-3.01417">
        <ele>132</ele>
        <time>2015-06-10T08:34:25Z</time>
      </trkpt>
      <trkpt lat="48.2133" lon="-3.01421">
        <ele>132</ele>
        <time>2015-06-10T08:34:27Z</time>
      </trkpt>
      <trkpt lat="48.21331" lon="-3.01425">
        <ele>132</ele>
        <time>2015-06-10T08:34:29Z</time>
      </trkpt>
      <trkpt lat="48.21332" lon="-3.01429">
        <ele>132</ele>
        <time>2015-06-10T08:34:31Z</time>
      </trkpt>
      <trkpt lat="48.21333" lon="-3.01434">
        <ele>132</ele>
        <time>2015-06-10T08:34:33Z</time>
      </trkpt>
      <trkpt lat="48.21334" lon="-3.01437">
        <ele>132</ele>
        <time>2015-06-10T08:34:35Z</time>
      </trkpt>
      <trkpt lat="48.21335" lon="-3.01441">
        <ele>132</ele>
        <time>2015-06-10T08:34:37Z</time>
      </trkpt>
      <trkpt lat="48.21337" lon="-3.01445">
        <ele>132</ele>
        <time>2015-06-10T08:34:39Z</time>
      </trkpt>
      <trkpt lat="48.21338" lon="-3.01449">
        <ele>132</ele>
        <time>2015-06-10T08:34:41Z</time>
      </trkpt>
      <trkpt lat="48.21339" lon="-3.01453">
        <ele>132</ele>
        <time>2015-06-10T08:34:43Z</time>
      </trkpt>
      <trkpt lat="48.2134" lon="-3.01457">
        <ele>132</ele>
        <time>2015-06-10T08:34:45Z</time>
      </trkpt>
      <trkpt lat="48.21341" lon="-3.0146">
        <ele>132</ele>
        <time>2015-06-10T08:34:47Z</time>
      </trkpt>
      <trkpt lat="48.21341" lon="-3.01464">
        <ele>132</ele>
        <time>2015-06-10T08:34:49Z</time>
      </trkpt>
      <trkpt lat="48.21342" lon="-3.01468">
        <ele>132</ele>
        <time>2015-06-10T08:34:51Z</time>
      </trkpt>
      <trkpt lat="48.21343" lon="-3.01471">
        <ele>132</ele>
        <time>2015-06-10T08:34:53Z</time>
      </trkpt>
      <trkpt lat="48.21345" lon="-3.01475">
        <ele>132</ele>
        <time>2015-06-10T08:34:55Z</time>
      </trkpt>
      <trkpt lat="48.21346" lon="-3.01479">
        <ele>132</ele>
        <time>2015-06-10T08:34:57Z</time>
      </trkpt>
      <trkpt lat="48.21347" lon="-3.01483">
        <ele>132</ele>
        <time>2015-06-10T08:34:59Z</time>
      </trkpt>
      <trkpt lat="48.21348" lon="-3.01486">
        <ele>132</ele>
        <time>2015-06-10T08:35:01Z</time>
      </trkpt>
      <trkpt lat="48.2135" lon="-3.01491">
        <ele>132</ele>
        <time>2015-06-10T08:35:04Z</time>
      </trkpt>
      <trkpt lat="48.21352" lon="-3.01495">
        <ele>132</ele>
        <time>2015-06-10T08:35:06Z</time>
      </trkpt>
      <trkpt lat="48.21353" lon="-3.01498">
        <ele>132</ele>
        <time>2015-06-10T08:35:08Z</time>
      </trkpt>
      <trkpt lat="48.21355" lon="-3.01502">
        <ele>132</ele>
        <time>2015-06-10T08:35:10Z</time>
      </trkpt>
      <trkpt lat="48.21356" lon="-3.01505">
        <ele>132</ele>
        <time>2015-06-10T08:35:12Z</time>
      </trkpt>
      <trkpt lat="48.21358" lon="-3.01509">
        <ele>132</ele>
        <time>2015-06-10T08:35:14Z</time>
      </trkpt>
      <trkpt lat="48.21359" lon="-3.01513">
        <ele>132</ele>
        <time>2015-06-10T08:35:16Z</time>
      </trkpt>
      <trkpt lat="48.2136" lon="-3.01517">
        <ele>132</ele>
        <time>2015-06-10T08:35:18Z</time>
      </trkpt>
      <trkpt lat="48.21361" lon="-3.0152">
        <ele>132</ele>
        <time>2015-06-10T08:35:20Z</time>
      </trkpt>
      <trkpt lat="48.21362" lon="-3.01524">
        <ele>132</ele>
        <time>2015-06-10T08:35:22Z</time>
      </trkpt>
      <trkpt lat="48.21363" lon="-3.01529">
        <ele>132</ele>
        <time>2015-06-10T08:35:24Z</time>
      </trkpt>
      <trkpt lat="48.21363" lon="-3.01533">
        <ele>132</ele>
        <time>2015-06-10T08:35:26Z</time>
      </trkpt>
      <trkpt lat="48.21365" lon="-3.01537">
        <ele>132</ele>
        <time>2015-06-10T08:35:28Z</time>
      </trkpt>
      <trkpt lat="48.21365" lon="-3.01541">
        <ele>132</ele>
        <time>2015-06-10T08:35:30Z</time>
      </trkpt>
      <trkpt lat="48.21366" lon="-3.01545">
        <ele>133</ele>
        <time>2015-06-10T08:35:32Z</time>
      </trkpt>
      <trkpt lat="48.21366" lon="-3.01549">
        <ele>133</ele>
        <time>2015-06-10T08:35:34Z</time>
      </trkpt>
      <trkpt lat="48.21366" lon="-3.01553">
        <ele>134</ele>
        <time>2015-06-10T08:35:36Z</time>
      </trkpt>
      <trkpt lat="48.21366" lon="-3.01557">
        <ele>134</ele>
        <time>2015-06-10T08:35:38Z</time>
      </trkpt>
      <trkpt lat="48.21367" lon="-3.01561">
        <ele>134</ele>
        <time>2015-06-10T08:35:40Z</time>
      </trkpt>
      <trkpt lat="48.21367" lon="-3.01565">
        <ele>134</ele>
        <time>2015-06-10T08:35:42Z</time>
      </trkpt>
      <trkpt lat="48.21366" lon="-3.01569">
        <ele>134</ele>
        <time>2015-06-10T08:35:44Z</time>
      </trkpt>
      <trkpt lat="48.21366" lon="-3.01574">
        <ele>134</ele>
        <time>2015-06-10T08:35:46Z</time>
      </trkpt>
      <trkpt lat="48.21365" lon="-3.01578">
        <ele>134</ele>
        <time>2015-06-10T08:35:48Z</time>
      </trkpt>
      <trkpt lat="48.21365" lon="-3.01582">
        <ele>134</ele>
        <time>2015-06-10T08:35:50Z</time>
      </trkpt>
      <trkpt lat="48.21365" lon="-3.01586">
        <ele>134</ele>
        <time>2015-06-10T08:35:52Z</time>
      </trkpt>
      <trkpt lat="48.21365" lon="-3.0159">
        <ele>134</ele>
        <time>2015-06-10T08:35:54Z</time>
      </trkpt>
      <trkpt lat="48.21365" lon="-3.01595">
        <ele>134</ele>
        <time>2015-06-10T08:35:56Z</time>
      </trkpt>
      <trkpt lat="48.21365" lon="-3.01599">
        <ele>134</ele>
        <time>2015-06-10T08:35:58Z</time>
      </trkpt>
      <trkpt lat="48.21365" lon="-3.01603">
        <ele>134</ele>
        <time>2015-06-10T08:36:00Z</time>
      </trkpt>
      <trkpt lat="48.21365" lon="-3.01607">
        <ele>134</ele>
        <time>2015-06-10T08:36:02Z</time>
      </trkpt>
      <trkpt lat="48.21365" lon="-3.01611">
        <ele>134</ele>
        <time>2015-06-10T08:36:04Z</time>
      </trkpt>
      <trkpt lat="48.21365" lon="-3.01615">
        <ele>134</ele>
        <time>2015-06-10T08:36:06Z</time>
      </trkpt>
      <trkpt lat="48.21365" lon="-3.01619">
        <ele>134</ele>
        <time>2015-06-10T08:36:08Z</time>
      </trkpt>
      <trkpt lat="48.21365" lon="-3.01623">
        <ele>134</ele>
        <time>2015-06-10T08:36:10Z</time>
      </trkpt>
      <trkpt lat="48.21364" lon="-3.01627">
        <ele>134</ele>
        <time>2015-06-10T08:36:12Z</time>
      </trkpt>
      <trkpt lat="48.21364" lon="-3.01631">
        <ele>134</ele>
        <time>2015-06-10T08:36:14Z</time>
      </trkpt>
      <trkpt lat="48.21364" lon="-3.01636">
        <ele>134</ele>
        <time>2015-06-10T08:36:16Z</time>
      </trkpt>
      <trkpt lat="48.21363" lon="-3.0164">
        <ele>134</ele>
        <time>2015-06-10T08:36:18Z</time>
      </trkpt>
      <trkpt lat="48.21363" lon="-3.01644">
        <ele>134</ele>
        <time>2015-06-10T08:36:20Z</time>
      </trkpt>
      <trkpt lat="48.21362" lon="-3.01648">
        <ele>134</ele>
        <time>2015-06-10T08:36:22Z</time>
      </trkpt>
      <trkpt lat="48.21361" lon="-3.01653">
        <ele>134</ele>
        <time>2015-06-10T08:36:24Z</time>
      </trkpt>
      <trkpt lat="48.21361" lon="-3.01657">
        <ele>134</ele>
        <time>2015-06-10T08:36:26Z</time>
      </trkpt>
      <trkpt lat="48.2136" lon="-3.01661">
        <ele>134</ele>
        <time>2015-06-10T08:36:28Z</time>
      </trkpt>
      <trkpt lat="48.21359" lon="-3.01665">
        <ele>134</ele>
        <time>2015-06-10T08:36:30Z</time>
      </trkpt>
      <trkpt lat="48.21358" lon="-3.01668">
        <ele>134</ele>
        <time>2015-06-10T08:36:32Z</time>
      </trkpt>
      <trkpt lat="48.21357" lon="-3.01671">
        <ele>134</ele>
        <time>2015-06-10T08:36:34Z</time>
      </trkpt>
      <trkpt lat="48.21357" lon="-3.01673">
        <ele>134</ele>
        <time>2015-06-10T08:36:36Z</time>
      </trkpt>
      <trkpt lat="48.21355" lon="-3.01676">
        <ele>134</ele>
        <time>2015-06-10T08:36:38Z</time>
      </trkpt>
      <trkpt lat="48.21354" lon="-3.0168">
        <ele>134</ele>
        <time>2015-06-10T08:36:40Z</time>
      </trkpt>
      <trkpt lat="48.21352" lon="-3.01684">
        <ele>134</ele>
        <time>2015-06-10T08:36:42Z</time>
      </trkpt>
      <trkpt lat="48.2135" lon="-3.01687">
        <ele>134</ele>
        <time>2015-06-10T08:36:44Z</time>
      </trkpt>
      <trkpt lat="48.21348" lon="-3.01692">
        <ele>134</ele>
        <time>2015-06-10T08:36:47Z</time>
      </trkpt>
      <trkpt lat="48.21347" lon="-3.01694">
        <ele>134</ele>
        <time>2015-06-10T08:36:49Z</time>
      </trkpt>
      <trkpt lat="48.21344" lon="-3.01698">
        <ele>134</ele>
        <time>2015-06-10T08:36:51Z</time>
      </trkpt>
      <trkpt lat="48.21343" lon="-3.01701">
        <ele>134</ele>
        <time>2015-06-10T08:36:53Z</time>
      </trkpt>
      <trkpt lat="48.21341" lon="-3.01702">
        <ele>134</ele>
        <time>2015-06-10T08:36:55Z</time>
      </trkpt>
      <trkpt lat="48.2134" lon="-3.01704">
        <ele>134</ele>
        <time>2015-06-10T08:36:57Z</time>
      </trkpt>
      <trkpt lat="48.21339" lon="-3.01706">
        <ele>134</ele>
        <time>2015-06-10T08:36:59Z</time>
      </trkpt>
      <trkpt lat="48.21337" lon="-3.01709">
        <ele>134</ele>
        <time>2015-06-10T08:37:01Z</time>
      </trkpt>
      <trkpt lat="48.21336" lon="-3.01713">
        <ele>134</ele>
        <time>2015-06-10T08:37:03Z</time>
      </trkpt>
      <trkpt lat="48.21334" lon="-3.01717">
        <ele>134</ele>
        <time>2015-06-10T08:37:05Z</time>
      </trkpt>
      <trkpt lat="48.21333" lon="-3.01719">
        <ele>134</ele>
        <time>2015-06-10T08:37:07Z</time>
      </trkpt>
      <trkpt lat="48.21331" lon="-3.01724">
        <ele>134</ele>
        <time>2015-06-10T08:37:10Z</time>
      </trkpt>
      <trkpt lat="48.21329" lon="-3.01728">
        <ele>134</ele>
        <time>2015-06-10T08:37:12Z</time>
      </trkpt>
      <trkpt lat="48.21328" lon="-3.0173">
        <ele>134</ele>
        <time>2015-06-10T08:37:14Z</time>
      </trkpt>
      <trkpt lat="48.21328" lon="-3.01733">
        <ele>134</ele>
        <time>2015-06-10T08:37:16Z</time>
      </trkpt>
      <trkpt lat="48.21326" lon="-3.01736">
        <ele>134</ele>
        <time>2015-06-10T08:37:28Z</time>
      </trkpt>
      <trkpt lat="48.21326" lon="-3.01739">
        <ele>134</ele>
        <time>2015-06-10T08:37:36Z</time>
      </trkpt>
      <trkpt lat="48.21325" lon="-3.01741">
        <ele>134</ele>
        <time>2015-06-10T08:37:38Z</time>
      </trkpt>
      <trkpt lat="48.21324" lon="-3.01744">
        <ele>134</ele>
        <time>2015-06-10T08:37:40Z</time>
      </trkpt>
      <trkpt lat="48.21323" lon="-3.01746">
        <ele>134</ele>
        <time>2015-06-10T08:37:42Z</time>
      </trkpt>
      <trkpt lat="48.21323" lon="-3.01749">
        <ele>134</ele>
        <time>2015-06-10T08:37:44Z</time>
      </trkpt>
      <trkpt lat="48.21322" lon="-3.01752">
        <ele>134</ele>
        <time>2015-06-10T08:37:46Z</time>
      </trkpt>
      <trkpt lat="48.21322" lon="-3.01755">
        <ele>134</ele>
        <time>2015-06-10T08:37:48Z</time>
      </trkpt>
      <trkpt lat="48.21321" lon="-3.01758">
        <ele>134</ele>
        <time>2015-06-10T08:37:50Z</time>
      </trkpt>
      <trkpt lat="48.2132" lon="-3.01762">
        <ele>134</ele>
        <time>2015-06-10T08:37:52Z</time>
      </trkpt>
      <trkpt lat="48.21319" lon="-3.01765">
        <ele>134</ele>
        <time>2015-06-10T08:37:54Z</time>
      </trkpt>
      <trkpt lat="48.21318" lon="-3.01769">
        <ele>134</ele>
        <time>2015-06-10T08:37:56Z</time>
      </trkpt>
      <trkpt lat="48.21316" lon="-3.01773">
        <ele>134</ele>
        <time>2015-06-10T08:37:58Z</time>
      </trkpt>
      <trkpt lat="48.21315" lon="-3.01777">
        <ele>134</ele>
        <time>2015-06-10T08:38:00Z</time>
      </trkpt>
      <trkpt lat="48.21314" lon="-3.01781">
        <ele>134</ele>
        <time>2015-06-10T08:38:02Z</time>
      </trkpt>
      <trkpt lat="48.21312" lon="-3.01784">
        <ele>134</ele>
        <time>2015-06-10T08:38:04Z</time>
      </trkpt>
      <trkpt lat="48.21311" lon="-3.01788">
        <ele>133</ele>
        <time>2015-06-10T08:38:06Z</time>
      </trkpt>
      <trkpt lat="48.2131" lon="-3.01792">
        <ele>133</ele>
        <time>2015-06-10T08:38:08Z</time>
      </trkpt>
      <trkpt lat="48.21309" lon="-3.01796">
        <ele>133</ele>
        <time>2015-06-10T08:38:10Z</time>
      </trkpt>
      <trkpt lat="48.21308" lon="-3.018">
        <ele>133</ele>
        <time>2015-06-10T08:38:12Z</time>
      </trkpt>
      <trkpt lat="48.21307" lon="-3.01804">
        <ele>133</ele>
        <time>2015-06-10T08:38:14Z</time>
      </trkpt>
      <trkpt lat="48.21307" lon="-3.01808">
        <ele>133</ele>
        <time>2015-06-10T08:38:16Z</time>
      </trkpt>
      <trkpt lat="48.21306" lon="-3.01812">
        <ele>133</ele>
        <time>2015-06-10T08:38:18Z</time>
      </trkpt>
      <trkpt lat="48.21306" lon="-3.01816">
        <ele>133</ele>
        <time>2015-06-10T08:38:20Z</time>
      </trkpt>
      <trkpt lat="48.21304" lon="-3.0182">
        <ele>133</ele>
        <time>2015-06-10T08:38:22Z</time>
      </trkpt>
      <trkpt lat="48.21303" lon="-3.01823">
        <ele>133</ele>
        <time>2015-06-10T08:38:24Z</time>
      </trkpt>
      <trkpt lat="48.21302" lon="-3.01827">
        <ele>133</ele>
        <time>2015-06-10T08:38:26Z</time>
      </trkpt>
      <trkpt lat="48.213" lon="-3.01831">
        <ele>133</ele>
        <time>2015-06-10T08:38:28Z</time>
      </trkpt>
      <trkpt lat="48.21299" lon="-3.01834">
        <ele>133</ele>
        <time>2015-06-10T08:38:30Z</time>
      </trkpt>
      <trkpt lat="48.21297" lon="-3.01838">
        <ele>133</ele>
        <time>2015-06-10T08:38:32Z</time>
      </trkpt>
      <trkpt lat="48.21296" lon="-3.01842">
        <ele>132</ele>
        <time>2015-06-10T08:38:34Z</time>
      </trkpt>
      <trkpt lat="48.21295" lon="-3.01845">
        <ele>132</ele>
        <time>2015-06-10T08:38:36Z</time>
      </trkpt>
      <trkpt lat="48.21294" lon="-3.01849">
        <ele>132</ele>
        <time>2015-06-10T08:38:38Z</time>
      </trkpt>
      <trkpt lat="48.21293" lon="-3.01853">
        <ele>132</ele>
        <time>2015-06-10T08:38:40Z</time>
      </trkpt>
      <trkpt lat="48.21291" lon="-3.01857">
        <ele>132</ele>
        <time>2015-06-10T08:38:42Z</time>
      </trkpt>
      <trkpt lat="48.21291" lon="-3.01861">
        <ele>132</ele>
        <time>2015-06-10T08:38:44Z</time>
      </trkpt>
      <trkpt lat="48.2129" lon="-3.01865">
        <ele>132</ele>
        <time>2015-06-10T08:38:46Z</time>
      </trkpt>
      <trkpt lat="48.21289" lon="-3.01869">
        <ele>132</ele>
        <time>2015-06-10T08:38:48Z</time>
      </trkpt>
      <trkpt lat="48.21288" lon="-3.01873">
        <ele>132</ele>
        <time>2015-06-10T08:38:50Z</time>
      </trkpt>
      <trkpt lat="48.21287" lon="-3.01877">
        <ele>131</ele>
        <time>2015-06-10T08:38:52Z</time>
      </trkpt>
      <trkpt lat="48.21286" lon="-3.01881">
        <ele>131</ele>
        <time>2015-06-10T08:38:54Z</time>
      </trkpt>
      <trkpt lat="48.21284" lon="-3.01885">
        <ele>131</ele>
        <time>2015-06-10T08:38:56Z</time>
      </trkpt>
      <trkpt lat="48.21283" lon="-3.01889">
        <ele>131</ele>
        <time>2015-06-10T08:38:58Z</time>
      </trkpt>
      <trkpt lat="48.21283" lon="-3.01893">
        <ele>131</ele>
        <time>2015-06-10T08:39:00Z</time>
      </trkpt>
      <trkpt lat="48.21281" lon="-3.01897">
        <ele>130</ele>
        <time>2015-06-10T08:39:02Z</time>
      </trkpt>
      <trkpt lat="48.21281" lon="-3.01901">
        <ele>130</ele>
        <time>2015-06-10T08:39:04Z</time>
      </trkpt>
      <trkpt lat="48.21279" lon="-3.01905">
        <ele>130</ele>
        <time>2015-06-10T08:39:06Z</time>
      </trkpt>
      <trkpt lat="48.21278" lon="-3.0191">
        <ele>130</ele>
        <time>2015-06-10T08:39:08Z</time>
      </trkpt>
      <trkpt lat="48.21277" lon="-3.01913">
        <ele>130</ele>
        <time>2015-06-10T08:39:10Z</time>
      </trkpt>
      <trkpt lat="48.21276" lon="-3.01917">
        <ele>130</ele>
        <time>2015-06-10T08:39:12Z</time>
      </trkpt>
      <trkpt lat="48.21275" lon="-3.01921">
        <ele>130</ele>
        <time>2015-06-10T08:39:14Z</time>
      </trkpt>
      <trkpt lat="48.21274" lon="-3.01924">
        <ele>130</ele>
        <time>2015-06-10T08:39:16Z</time>
      </trkpt>
      <trkpt lat="48.21273" lon="-3.01928">
        <ele>129</ele>
        <time>2015-06-10T08:39:18Z</time>
      </trkpt>
      <trkpt lat="48.21273" lon="-3.01932">
        <ele>129</ele>
        <time>2015-06-10T08:39:20Z</time>
      </trkpt>
      <trkpt lat="48.21272" lon="-3.01935">
        <ele>129</ele>
        <time>2015-06-10T08:39:22Z</time>
      </trkpt>
      <trkpt lat="48.21271" lon="-3.01939">
        <ele>129</ele>
        <time>2015-06-10T08:39:24Z</time>
      </trkpt>
      <trkpt lat="48.21271" lon="-3.01943">
        <ele>129</ele>
        <time>2015-06-10T08:39:26Z</time>
      </trkpt>
      <trkpt lat="48.21271" lon="-3.01947">
        <ele>129</ele>
        <time>2015-06-10T08:39:28Z</time>
      </trkpt>
      <trkpt lat="48.21271" lon="-3.01952">
        <ele>129</ele>
        <time>2015-06-10T08:39:30Z</time>
      </trkpt>
      <trkpt lat="48.21271" lon="-3.01956">
        <ele>129</ele>
        <time>2015-06-10T08:39:32Z</time>
      </trkpt>
      <trkpt lat="48.21272" lon="-3.01958">
        <ele>129</ele>
        <time>2015-06-10T08:39:34Z</time>
      </trkpt>
      <trkpt lat="48.21274" lon="-3.01959">
        <ele>129</ele>
        <time>2015-06-10T08:39:36Z</time>
      </trkpt>
      <trkpt lat="48.21275" lon="-3.0196">
        <ele>129</ele>
        <time>2015-06-10T08:39:38Z</time>
      </trkpt>
      <trkpt lat="48.21275" lon="-3.01962">
        <ele>129</ele>
        <time>2015-06-10T08:40:23Z</time>
      </trkpt>
      <trkpt lat="48.21275" lon="-3.01963">
        <ele>129</ele>
        <time>2015-06-10T08:40:26Z</time>
      </trkpt>
      <trkpt lat="48.21275" lon="-3.01966">
        <ele>129</ele>
        <time>2015-06-10T08:40:28Z</time>
      </trkpt>
      <trkpt lat="48.21275" lon="-3.01969">
        <ele>129</ele>
        <time>2015-06-10T08:40:30Z</time>
      </trkpt>
      <trkpt lat="48.21277" lon="-3.01972">
        <ele>129</ele>
        <time>2015-06-10T08:40:32Z</time>
      </trkpt>
      <trkpt lat="48.21278" lon="-3.01975">
        <ele>129</ele>
        <time>2015-06-10T08:40:34Z</time>
      </trkpt>
      <trkpt lat="48.21278" lon="-3.01979">
        <ele>129</ele>
        <time>2015-06-10T08:40:36Z</time>
      </trkpt>
      <trkpt lat="48.2128" lon="-3.01985">
        <ele>129</ele>
        <time>2015-06-10T08:40:39Z</time>
      </trkpt>
      <trkpt lat="48.21281" lon="-3.01988">
        <ele>129</ele>
        <time>2015-06-10T08:40:41Z</time>
      </trkpt>
      <trkpt lat="48.21282" lon="-3.01992">
        <ele>129</ele>
        <time>2015-06-10T08:40:43Z</time>
      </trkpt>
      <trkpt lat="48.21284" lon="-3.01995">
        <ele>128</ele>
        <time>2015-06-10T08:40:45Z</time>
      </trkpt>
      <trkpt lat="48.21285" lon="-3.01999">
        <ele>128</ele>
        <time>2015-06-10T08:40:47Z</time>
      </trkpt>
      <trkpt lat="48.21286" lon="-3.02002">
        <ele>128</ele>
        <time>2015-06-10T08:40:49Z</time>
      </trkpt>
      <trkpt lat="48.21287" lon="-3.02006">
        <ele>128</ele>
        <time>2015-06-10T08:40:51Z</time>
      </trkpt>
      <trkpt lat="48.21289" lon="-3.0201">
        <ele>128</ele>
        <time>2015-06-10T08:40:53Z</time>
      </trkpt>
      <trkpt lat="48.2129" lon="-3.02013">
        <ele>128</ele>
        <time>2015-06-10T08:40:55Z</time>
      </trkpt>
      <trkpt lat="48.21291" lon="-3.02017">
        <ele>128</ele>
        <time>2015-06-10T08:40:57Z</time>
      </trkpt>
      <trkpt lat="48.21292" lon="-3.02021">
        <ele>128</ele>
        <time>2015-06-10T08:40:59Z</time>
      </trkpt>
      <trkpt lat="48.21294" lon="-3.02025">
        <ele>128</ele>
        <time>2015-06-10T08:41:01Z</time>
      </trkpt>
      <trkpt lat="48.21295" lon="-3.02028">
        <ele>128</ele>
        <time>2015-06-10T08:41:03Z</time>
      </trkpt>
      <trkpt lat="48.21296" lon="-3.02031">
        <ele>128</ele>
        <time>2015-06-10T08:41:05Z</time>
      </trkpt>
      <trkpt lat="48.21299" lon="-3.02037">
        <ele>127</ele>
        <time>2015-06-10T08:41:09Z</time>
      </trkpt>
      <trkpt lat="48.21302" lon="-3.02042">
        <ele>127</ele>
        <time>2015-06-10T08:41:13Z</time>
      </trkpt>
      <trkpt lat="48.21304" lon="-3.02045">
        <ele>126</ele>
        <time>2015-06-10T08:41:15Z</time>
      </trkpt>
      <trkpt lat="48.21304" lon="-3.02049">
        <ele>126</ele>
        <time>2015-06-10T08:41:17Z</time>
      </trkpt>
      <trkpt lat="48.21305" lon="-3.02053">
        <ele>126</ele>
        <time>2015-06-10T08:41:19Z</time>
      </trkpt>
      <trkpt lat="48.21307" lon="-3.02059">
        <ele>125</ele>
        <time>2015-06-10T08:41:22Z</time>
      </trkpt>
      <trkpt lat="48.21307" lon="-3.02063">
        <ele>125</ele>
        <time>2015-06-10T08:41:24Z</time>
      </trkpt>
      <trkpt lat="48.21308" lon="-3.02067">
        <ele>125</ele>
        <time>2015-06-10T08:41:26Z</time>
      </trkpt>
      <trkpt lat="48.21308" lon="-3.02071">
        <ele>125</ele>
        <time>2015-06-10T08:41:28Z</time>
      </trkpt>
      <trkpt lat="48.21309" lon="-3.02076">
        <ele>125</ele>
        <time>2015-06-10T08:41:30Z</time>
      </trkpt>
      <trkpt lat="48.2131" lon="-3.0208">
        <ele>125</ele>
        <time>2015-06-10T08:41:32Z</time>
      </trkpt>
      <trkpt lat="48.2131" lon="-3.02085">
        <ele>125</ele>
        <time>2015-06-10T08:41:34Z</time>
      </trkpt>
      <trkpt lat="48.21311" lon="-3.02089">
        <ele>125</ele>
        <time>2015-06-10T08:41:36Z</time>
      </trkpt>
      <trkpt lat="48.21312" lon="-3.02094">
        <ele>125</ele>
        <time>2015-06-10T08:41:38Z</time>
      </trkpt>
      <trkpt lat="48.21312" lon="-3.02098">
        <ele>125</ele>
        <time>2015-06-10T08:41:40Z</time>
      </trkpt>
      <trkpt lat="48.21313" lon="-3.02103">
        <ele>125</ele>
        <time>2015-06-10T08:41:42Z</time>
      </trkpt>
      <trkpt lat="48.21313" lon="-3.02108">
        <ele>125</ele>
        <time>2015-06-10T08:41:45Z</time>
      </trkpt>
      <trkpt lat="48.21312" lon="-3.0211">
        <ele>125</ele>
        <time>2015-06-10T08:41:47Z</time>
      </trkpt>
      <trkpt lat="48.21312" lon="-3.02114">
        <ele>125</ele>
        <time>2015-06-10T08:41:49Z</time>
      </trkpt>
      <trkpt lat="48.21312" lon="-3.02119">
        <ele>125</ele>
        <time>2015-06-10T08:41:51Z</time>
      </trkpt>
      <trkpt lat="48.21312" lon="-3.02125">
        <ele>125</ele>
        <time>2015-06-10T08:41:53Z</time>
      </trkpt>
      <trkpt lat="48.21312" lon="-3.0213">
        <ele>125</ele>
        <time>2015-06-10T08:41:55Z</time>
      </trkpt>
      <trkpt lat="48.21312" lon="-3.02134">
        <ele>125</ele>
        <time>2015-06-10T08:41:57Z</time>
      </trkpt>
      <trkpt lat="48.21312" lon="-3.02141">
        <ele>126</ele>
        <time>2015-06-10T08:42:00Z</time>
      </trkpt>
      <trkpt lat="48.2131" lon="-3.02145">
        <ele>128</ele>
        <time>2015-06-10T08:42:02Z</time>
      </trkpt>
      <trkpt lat="48.21308" lon="-3.02151">
        <ele>128</ele>
        <time>2015-06-10T08:42:05Z</time>
      </trkpt>
      <trkpt lat="48.21305" lon="-3.02158">
        <ele>128</ele>
        <time>2015-06-10T08:42:08Z</time>
      </trkpt>
      <trkpt lat="48.21305" lon="-3.02162">
        <ele>128</ele>
        <time>2015-06-10T08:42:10Z</time>
      </trkpt>
      <trkpt lat="48.21305" lon="-3.02167">
        <ele>128</ele>
        <time>2015-06-10T08:42:12Z</time>
      </trkpt>
      <trkpt lat="48.21306" lon="-3.02173">
        <ele>128</ele>
        <time>2015-06-10T08:42:15Z</time>
      </trkpt>
      <trkpt lat="48.21305" lon="-3.02178">
        <ele>128</ele>
        <time>2015-06-10T08:42:17Z</time>
      </trkpt>
      <trkpt lat="48.21304" lon="-3.02183">
        <ele>128</ele>
        <time>2015-06-10T08:42:20Z</time>
      </trkpt>
      <trkpt lat="48.21302" lon="-3.02187">
        <ele>128</ele>
        <time>2015-06-10T08:42:22Z</time>
      </trkpt>
      <trkpt lat="48.213" lon="-3.02191">
        <ele>128</ele>
        <time>2015-06-10T08:42:24Z</time>
      </trkpt>
      <trkpt lat="48.21297" lon="-3.02194">
        <ele>128</ele>
        <time>2015-06-10T08:42:27Z</time>
      </trkpt>
      <trkpt lat="48.21295" lon="-3.02198">
        <ele>128</ele>
        <time>2015-06-10T08:42:30Z</time>
      </trkpt>
      <trkpt lat="48.21292" lon="-3.02204">
        <ele>128</ele>
        <time>2015-06-10T08:42:34Z</time>
      </trkpt>
      <trkpt lat="48.21291" lon="-3.02206">
        <ele>128</ele>
        <time>2015-06-10T08:42:36Z</time>
      </trkpt>
      <trkpt lat="48.21287" lon="-3.02209">
        <ele>128</ele>
        <time>2015-06-10T08:42:39Z</time>
      </trkpt>
      <trkpt lat="48.21286" lon="-3.02212">
        <ele>128</ele>
        <time>2015-06-10T08:42:41Z</time>
      </trkpt>
      <trkpt lat="48.21282" lon="-3.02217">
        <ele>128</ele>
        <time>2015-06-10T08:42:44Z</time>
      </trkpt>
      <trkpt lat="48.21279" lon="-3.02221">
        <ele>128</ele>
        <time>2015-06-10T08:42:46Z</time>
      </trkpt>
      <trkpt lat="48.21276" lon="-3.02226">
        <ele>128</ele>
        <time>2015-06-10T08:42:49Z</time>
      </trkpt>
      <trkpt lat="48.21273" lon="-3.02229">
        <ele>128</ele>
        <time>2015-06-10T08:42:51Z</time>
      </trkpt>
      <trkpt lat="48.21271" lon="-3.02234">
        <ele>128</ele>
        <time>2015-06-10T08:42:54Z</time>
      </trkpt>
      <trkpt lat="48.21268" lon="-3.02236">
        <ele>128</ele>
        <time>2015-06-10T08:42:56Z</time>
      </trkpt>
      <trkpt lat="48.21264" lon="-3.02242">
        <ele>128</ele>
        <time>2015-06-10T08:43:00Z</time>
      </trkpt>
      <trkpt lat="48.21261" lon="-3.02247">
        <ele>128</ele>
        <time>2015-06-10T08:43:03Z</time>
      </trkpt>
      <trkpt lat="48.21259" lon="-3.0225">
        <ele>128</ele>
        <time>2015-06-10T08:43:05Z</time>
      </trkpt>
      <trkpt lat="48.21255" lon="-3.02253">
        <ele>128</ele>
        <time>2015-06-10T08:43:07Z</time>
      </trkpt>
      <trkpt lat="48.21253" lon="-3.02257">
        <ele>128</ele>
        <time>2015-06-10T08:43:10Z</time>
      </trkpt>
      <trkpt lat="48.21251" lon="-3.02261">
        <ele>127</ele>
        <time>2015-06-10T08:43:12Z</time>
      </trkpt>
      <trkpt lat="48.21248" lon="-3.02265">
        <ele>127</ele>
        <time>2015-06-10T08:43:15Z</time>
      </trkpt>
      <trkpt lat="48.21246" lon="-3.02271">
        <ele>127</ele>
        <time>2015-06-10T08:43:17Z</time>
      </trkpt>
      <trkpt lat="48.21245" lon="-3.02279">
        <ele>127</ele>
        <time>2015-06-10T08:43:20Z</time>
      </trkpt>
      <trkpt lat="48.21244" lon="-3.02284">
        <ele>127</ele>
        <time>2015-06-10T08:43:22Z</time>
      </trkpt>
      <trkpt lat="48.21243" lon="-3.02289">
        <ele>127</ele>
        <time>2015-06-10T08:43:24Z</time>
      </trkpt>
      <trkpt lat="48.21241" lon="-3.02293">
        <ele>127</ele>
        <time>2015-06-10T08:43:26Z</time>
      </trkpt>
      <trkpt lat="48.2124" lon="-3.02297">
        <ele>127</ele>
        <time>2015-06-10T08:43:28Z</time>
      </trkpt>
      <trkpt lat="48.21238" lon="-3.02303">
        <ele>127</ele>
        <time>2015-06-10T08:43:31Z</time>
      </trkpt>
      <trkpt lat="48.21237" lon="-3.02307">
        <ele>127</ele>
        <time>2015-06-10T08:43:33Z</time>
      </trkpt>
      <trkpt lat="48.21235" lon="-3.02312">
        <ele>127</ele>
        <time>2015-06-10T08:43:36Z</time>
      </trkpt>
      <trkpt lat="48.21233" lon="-3.02316">
        <ele>127</ele>
        <time>2015-06-10T08:43:38Z</time>
      </trkpt>
      <trkpt lat="48.21231" lon="-3.02322">
        <ele>127</ele>
        <time>2015-06-10T08:43:41Z</time>
      </trkpt>
      <trkpt lat="48.21229" lon="-3.02325">
        <ele>127</ele>
        <time>2015-06-10T08:43:43Z</time>
      </trkpt>
      <trkpt lat="48.21228" lon="-3.02331">
        <ele>127</ele>
        <time>2015-06-10T08:43:46Z</time>
      </trkpt>
      <trkpt lat="48.21227" lon="-3.02335">
        <ele>127</ele>
        <time>2015-06-10T08:43:48Z</time>
      </trkpt>
      <trkpt lat="48.21226" lon="-3.02341">
        <ele>127</ele>
        <time>2015-06-10T08:43:51Z</time>
      </trkpt>
      <trkpt lat="48.21224" lon="-3.02345">
        <ele>127</ele>
        <time>2015-06-10T08:43:53Z</time>
      </trkpt>
      <trkpt lat="48.21223" lon="-3.02351">
        <ele>127</ele>
        <time>2015-06-10T08:43:56Z</time>
      </trkpt>
      <trkpt lat="48.21223" lon="-3.02356">
        <ele>127</ele>
        <time>2015-06-10T08:43:59Z</time>
      </trkpt>
      <trkpt lat="48.2122" lon="-3.02363">
        <ele>127</ele>
        <time>2015-06-10T08:44:03Z</time>
      </trkpt>
      <trkpt lat="48.2122" lon="-3.02365">
        <ele>127</ele>
        <time>2015-06-10T08:44:05Z</time>
      </trkpt>
      <trkpt lat="48.2122" lon="-3.0237">
        <ele>127</ele>
        <time>2015-06-10T08:44:08Z</time>
      </trkpt>
      <trkpt lat="48.21219" lon="-3.02374">
        <ele>127</ele>
        <time>2015-06-10T08:44:10Z</time>
      </trkpt>
      <trkpt lat="48.21219" lon="-3.02379">
        <ele>127</ele>
        <time>2015-06-10T08:44:12Z</time>
      </trkpt>
      <trkpt lat="48.21218" lon="-3.02389">
        <ele>127</ele>
        <time>2015-06-10T08:44:15Z</time>
      </trkpt>
      <trkpt lat="48.21216" lon="-3.02393">
        <ele>129</ele>
        <time>2015-06-10T08:44:18Z</time>
      </trkpt>
      <trkpt lat="48.21215" lon="-3.02396">
        <ele>129</ele>
        <time>2015-06-10T08:44:20Z</time>
      </trkpt>
      <trkpt lat="48.21214" lon="-3.02402">
        <ele>129</ele>
        <time>2015-06-10T08:44:23Z</time>
      </trkpt>
      <trkpt lat="48.21215" lon="-3.02408">
        <ele>129</ele>
        <time>2015-06-10T08:44:25Z</time>
      </trkpt>
      <trkpt lat="48.21215" lon="-3.02414">
        <ele>129</ele>
        <time>2015-06-10T08:44:28Z</time>
      </trkpt>
      <trkpt lat="48.21216" lon="-3.02417">
        <ele>129</ele>
        <time>2015-06-10T08:44:30Z</time>
      </trkpt>
      <trkpt lat="48.21216" lon="-3.02423">
        <ele>129</ele>
        <time>2015-06-10T08:44:33Z</time>
      </trkpt>
      <trkpt lat="48.21217" lon="-3.02428">
        <ele>129</ele>
        <time>2015-06-10T08:44:35Z</time>
      </trkpt>
      <trkpt lat="48.21219" lon="-3.02435">
        <ele>129</ele>
        <time>2015-06-10T08:44:38Z</time>
      </trkpt>
      <trkpt lat="48.21219" lon="-3.0244">
        <ele>129</ele>
        <time>2015-06-10T08:44:40Z</time>
      </trkpt>
      <trkpt lat="48.2122" lon="-3.02446">
        <ele>129</ele>
        <time>2015-06-10T08:44:43Z</time>
      </trkpt>
      <trkpt lat="48.2122" lon="-3.0245">
        <ele>129</ele>
        <time>2015-06-10T08:44:45Z</time>
      </trkpt>
      <trkpt lat="48.2122" lon="-3.02456">
        <ele>129</ele>
        <time>2015-06-10T08:44:48Z</time>
      </trkpt>
      <trkpt lat="48.21221" lon="-3.02459">
        <ele>130</ele>
        <time>2015-06-10T08:44:50Z</time>
      </trkpt>
      <trkpt lat="48.2122" lon="-3.02467">
        <ele>131</ele>
        <time>2015-06-10T08:44:53Z</time>
      </trkpt>
      <trkpt lat="48.2122" lon="-3.02471">
        <ele>133</ele>
        <time>2015-06-10T08:44:55Z</time>
      </trkpt>
      <trkpt lat="48.21219" lon="-3.02478">
        <ele>133</ele>
        <time>2015-06-10T08:44:58Z</time>
      </trkpt>
      <trkpt lat="48.21218" lon="-3.02483">
        <ele>133</ele>
        <time>2015-06-10T08:45:00Z</time>
      </trkpt>
      <trkpt lat="48.21215" lon="-3.02489">
        <ele>133</ele>
        <time>2015-06-10T08:45:04Z</time>
      </trkpt>
      <trkpt lat="48.21214" lon="-3.02492">
        <ele>133</ele>
        <time>2015-06-10T08:45:06Z</time>
      </trkpt>
      <trkpt lat="48.21212" lon="-3.02492">
        <ele>133</ele>
        <time>2015-06-10T08:45:08Z</time>
      </trkpt>
      <trkpt lat="48.21209" lon="-3.02492">
        <ele>132</ele>
        <time>2015-06-10T08:45:10Z</time>
      </trkpt>
      <trkpt lat="48.21207" lon="-3.0249">
        <ele>131</ele>
        <time>2015-06-10T08:45:12Z</time>
      </trkpt>
      <trkpt lat="48.21204" lon="-3.02491">
        <ele>130</ele>
        <time>2015-06-10T08:45:14Z</time>
      </trkpt>
      <trkpt lat="48.21201" lon="-3.0249">
        <ele>129</ele>
        <time>2015-06-10T08:45:16Z</time>
      </trkpt>
      <trkpt lat="48.21199" lon="-3.02489">
        <ele>128</ele>
        <time>2015-06-10T08:45:18Z</time>
      </trkpt>
      <trkpt lat="48.21196" lon="-3.02488">
        <ele>127</ele>
        <time>2015-06-10T08:45:20Z</time>
      </trkpt>
      <trkpt lat="48.21194" lon="-3.02488">
        <ele>126</ele>
        <time>2015-06-10T08:45:22Z</time>
      </trkpt>
      <trkpt lat="48.21191" lon="-3.02486">
        <ele>125</ele>
        <time>2015-06-10T08:45:24Z</time>
      </trkpt>
      <trkpt lat="48.21189" lon="-3.02485">
        <ele>125</ele>
        <time>2015-06-10T08:45:26Z</time>
      </trkpt>
      <trkpt lat="48.21186" lon="-3.02484">
        <ele>124</ele>
        <time>2015-06-10T08:45:28Z</time>
      </trkpt>
      <trkpt lat="48.21184" lon="-3.02484">
        <ele>123</ele>
        <time>2015-06-10T08:45:30Z</time>
      </trkpt>
      <trkpt lat="48.21182" lon="-3.02483">
        <ele>121</ele>
        <time>2015-06-10T08:45:32Z</time>
      </trkpt>
      <trkpt lat="48.21177" lon="-3.02482">
        <ele>118</ele>
        <time>2015-06-10T08:45:36Z</time>
      </trkpt>
      <trkpt lat="48.21174" lon="-3.02482">
        <ele>118</ele>
        <time>2015-06-10T08:45:38Z</time>
      </trkpt>
      <trkpt lat="48.21172" lon="-3.02482">
        <ele>117</ele>
        <time>2015-06-10T08:45:40Z</time>
      </trkpt>
      <trkpt lat="48.21169" lon="-3.02482">
        <ele>117</ele>
        <time>2015-06-10T08:45:42Z</time>
      </trkpt>
      <trkpt lat="48.21165" lon="-3.02482">
        <ele>117</ele>
        <time>2015-06-10T08:45:45Z</time>
      </trkpt>
      <trkpt lat="48.21162" lon="-3.02481">
        <ele>117</ele>
        <time>2015-06-10T08:45:47Z</time>
      </trkpt>
      <trkpt lat="48.21159" lon="-3.02481">
        <ele>117</ele>
        <time>2015-06-10T08:45:49Z</time>
      </trkpt>
      <trkpt lat="48.21156" lon="-3.02482">
        <ele>117</ele>
        <time>2015-06-10T08:45:51Z</time>
      </trkpt>
      <trkpt lat="48.21153" lon="-3.02482">
        <ele>117</ele>
        <time>2015-06-10T08:45:53Z</time>
      </trkpt>
      <trkpt lat="48.21149" lon="-3.02481">
        <ele>117</ele>
        <time>2015-06-10T08:45:55Z</time>
      </trkpt>
      <trkpt lat="48.21147" lon="-3.02481">
        <ele>117</ele>
        <time>2015-06-10T08:45:57Z</time>
      </trkpt>
      <trkpt lat="48.21144" lon="-3.02481">
        <ele>117</ele>
        <time>2015-06-10T08:45:59Z</time>
      </trkpt>
      <trkpt lat="48.2114" lon="-3.02482">
        <ele>117</ele>
        <time>2015-06-10T08:46:01Z</time>
      </trkpt>
      <trkpt lat="48.21136" lon="-3.02482">
        <ele>117</ele>
        <time>2015-06-10T08:46:03Z</time>
      </trkpt>
      <trkpt lat="48.21133" lon="-3.02482">
        <ele>117</ele>
        <time>2015-06-10T08:46:05Z</time>
      </trkpt>
      <trkpt lat="48.2113" lon="-3.02481">
        <ele>117</ele>
        <time>2015-06-10T08:46:07Z</time>
      </trkpt>
      <trkpt lat="48.21128" lon="-3.02481">
        <ele>117</ele>
        <time>2015-06-10T08:46:09Z</time>
      </trkpt>
      <trkpt lat="48.21126" lon="-3.0248">
        <ele>117</ele>
        <time>2015-06-10T08:46:11Z</time>
      </trkpt>
      <trkpt lat="48.21123" lon="-3.02481">
        <ele>117</ele>
        <time>2015-06-10T08:46:13Z</time>
      </trkpt>
      <trkpt lat="48.21121" lon="-3.02481">
        <ele>117</ele>
        <time>2015-06-10T08:46:15Z</time>
      </trkpt>
      <trkpt lat="48.21118" lon="-3.0248">
        <ele>117</ele>
        <time>2015-06-10T08:46:17Z</time>
      </trkpt>
      <trkpt lat="48.21116" lon="-3.02479">
        <ele>117</ele>
        <time>2015-06-10T08:46:19Z</time>
      </trkpt>
      <trkpt lat="48.21113" lon="-3.02476">
        <ele>117</ele>
        <time>2015-06-10T08:46:21Z</time>
      </trkpt>
      <trkpt lat="48.2111" lon="-3.02474">
        <ele>117</ele>
        <time>2015-06-10T08:46:23Z</time>
      </trkpt>
      <trkpt lat="48.21107" lon="-3.02475">
        <ele>117</ele>
        <time>2015-06-10T08:46:25Z</time>
      </trkpt>
      <trkpt lat="48.21105" lon="-3.02476">
        <ele>117</ele>
        <time>2015-06-10T08:46:27Z</time>
      </trkpt>
      <trkpt lat="48.21102" lon="-3.02477">
        <ele>118</ele>
        <time>2015-06-10T08:46:29Z</time>
      </trkpt>
      <trkpt lat="48.21099" lon="-3.02477">
        <ele>118</ele>
        <time>2015-06-10T08:46:31Z</time>
      </trkpt>
      <trkpt lat="48.21096" lon="-3.02478">
        <ele>118</ele>
        <time>2015-06-10T08:46:33Z</time>
      </trkpt>
      <trkpt lat="48.21093" lon="-3.02479">
        <ele>118</ele>
        <time>2015-06-10T08:46:35Z</time>
      </trkpt>
      <trkpt lat="48.21088" lon="-3.02479">
        <ele>118</ele>
        <time>2015-06-10T08:46:38Z</time>
      </trkpt>
      <trkpt lat="48.21085" lon="-3.02481">
        <ele>118</ele>
        <time>2015-06-10T08:46:40Z</time>
      </trkpt>
      <trkpt lat="48.21083" lon="-3.02481">
        <ele>118</ele>
        <time>2015-06-10T08:46:42Z</time>
      </trkpt>
      <trkpt lat="48.2108" lon="-3.02481">
        <ele>118</ele>
        <time>2015-06-10T08:46:44Z</time>
      </trkpt>
      <trkpt lat="48.21077" lon="-3.02482">
        <ele>118</ele>
        <time>2015-06-10T08:46:46Z</time>
      </trkpt>
      <trkpt lat="48.21075" lon="-3.02482">
        <ele>119</ele>
        <time>2015-06-10T08:46:48Z</time>
      </trkpt>
      <trkpt lat="48.21073" lon="-3.02483">
        <ele>120</ele>
        <time>2015-06-10T08:46:50Z</time>
      </trkpt>
      <trkpt lat="48.2107" lon="-3.02484">
        <ele>122</ele>
        <time>2015-06-10T08:46:53Z</time>
      </trkpt>
      <trkpt lat="48.21067" lon="-3.02484">
        <ele>125</ele>
        <time>2015-06-10T08:46:56Z</time>
      </trkpt>
      <trkpt lat="48.21065" lon="-3.02484">
        <ele>127</ele>
        <time>2015-06-10T08:46:58Z</time>
      </trkpt>
      <trkpt lat="48.21062" lon="-3.02484">
        <ele>130</ele>
        <time>2015-06-10T08:47:01Z</time>
      </trkpt>
      <trkpt lat="48.2106" lon="-3.02484">
        <ele>131</ele>
        <time>2015-06-10T08:47:03Z</time>
      </trkpt>
      <trkpt lat="48.21059" lon="-3.02484">
        <ele>133</ele>
        <time>2015-06-10T08:47:05Z</time>
      </trkpt>
      <trkpt lat="48.21056" lon="-3.02485">
        <ele>135</ele>
        <time>2015-06-10T08:47:08Z</time>
      </trkpt>
      <trkpt lat="48.21054" lon="-3.02485">
        <ele>135</ele>
        <time>2015-06-10T08:47:10Z</time>
      </trkpt>
      <trkpt lat="48.21051" lon="-3.02485">
        <ele>136</ele>
        <time>2015-06-10T08:47:12Z</time>
      </trkpt>
      <trkpt lat="48.21048" lon="-3.02485">
        <ele>137</ele>
        <time>2015-06-10T08:47:14Z</time>
      </trkpt>
      <trkpt lat="48.21047" lon="-3.02486">
        <ele>138</ele>
        <time>2015-06-10T08:47:16Z</time>
      </trkpt>
      <trkpt lat="48.21043" lon="-3.02488">
        <ele>138</ele>
        <time>2015-06-10T08:47:18Z</time>
      </trkpt>
      <trkpt lat="48.21039" lon="-3.0249">
        <ele>138</ele>
        <time>2015-06-10T08:47:20Z</time>
      </trkpt>
      <trkpt lat="48.21036" lon="-3.02491">
        <ele>138</ele>
        <time>2015-06-10T08:47:22Z</time>
      </trkpt>
      <trkpt lat="48.21032" lon="-3.02493">
        <ele>138</ele>
        <time>2015-06-10T08:47:24Z</time>
      </trkpt>
      <trkpt lat="48.2103" lon="-3.02495">
        <ele>138</ele>
        <time>2015-06-10T08:47:26Z</time>
      </trkpt>
      <trkpt lat="48.21028" lon="-3.02497">
        <ele>138</ele>
        <time>2015-06-10T08:47:28Z</time>
      </trkpt>
      <trkpt lat="48.21025" lon="-3.02499">
        <ele>138</ele>
        <time>2015-06-10T08:47:30Z</time>
      </trkpt>
      <trkpt lat="48.21023" lon="-3.02501">
        <ele>138</ele>
        <time>2015-06-10T08:47:32Z</time>
      </trkpt>
      <trkpt lat="48.21022" lon="-3.02504">
        <ele>138</ele>
        <time>2015-06-10T08:47:34Z</time>
      </trkpt>
      <trkpt lat="48.21021" lon="-3.02507">
        <ele>138</ele>
        <time>2015-06-10T08:47:36Z</time>
      </trkpt>
      <trkpt lat="48.21021" lon="-3.0251">
        <ele>138</ele>
        <time>2015-06-10T08:47:38Z</time>
      </trkpt>
      <trkpt lat="48.21019" lon="-3.02515">
        <ele>138</ele>
        <time>2015-06-10T08:47:40Z</time>
      </trkpt>
      <trkpt lat="48.21019" lon="-3.02519">
        <ele>138</ele>
        <time>2015-06-10T08:47:42Z</time>
      </trkpt>
      <trkpt lat="48.21021" lon="-3.02523">
        <ele>138</ele>
        <time>2015-06-10T08:47:45Z</time>
      </trkpt>
      <trkpt lat="48.21021" lon="-3.02529">
        <ele>138</ele>
        <time>2015-06-10T08:47:48Z</time>
      </trkpt>
      <trkpt lat="48.21022" lon="-3.02532">
        <ele>138</ele>
        <time>2015-06-10T08:47:50Z</time>
      </trkpt>
      <trkpt lat="48.21023" lon="-3.02535">
        <ele>138</ele>
        <time>2015-06-10T08:47:52Z</time>
      </trkpt>
      <trkpt lat="48.21023" lon="-3.02539">
        <ele>137</ele>
        <time>2015-06-10T08:47:54Z</time>
      </trkpt>
      <trkpt lat="48.21022" lon="-3.02544">
        <ele>137</ele>
        <time>2015-06-10T08:47:56Z</time>
      </trkpt>
      <trkpt lat="48.21022" lon="-3.02548">
        <ele>137</ele>
        <time>2015-06-10T08:47:58Z</time>
      </trkpt>
      <trkpt lat="48.21022" lon="-3.02552">
        <ele>137</ele>
        <time>2015-06-10T08:48:00Z</time>
      </trkpt>
      <trkpt lat="48.21021" lon="-3.02556">
        <ele>137</ele>
        <time>2015-06-10T08:48:02Z</time>
      </trkpt>
      <trkpt lat="48.21021" lon="-3.0256">
        <ele>137</ele>
        <time>2015-06-10T08:48:04Z</time>
      </trkpt>
      <trkpt lat="48.21022" lon="-3.02564">
        <ele>136</ele>
        <time>2015-06-10T08:48:06Z</time>
      </trkpt>
      <trkpt lat="48.21021" lon="-3.02567">
        <ele>136</ele>
        <time>2015-06-10T08:48:08Z</time>
      </trkpt>
      <trkpt lat="48.2102" lon="-3.02571">
        <ele>135</ele>
        <time>2015-06-10T08:48:10Z</time>
      </trkpt>
      <trkpt lat="48.21021" lon="-3.02574">
        <ele>135</ele>
        <time>2015-06-10T08:48:12Z</time>
      </trkpt>
      <trkpt lat="48.21022" lon="-3.02579">
        <ele>134</ele>
        <time>2015-06-10T08:48:15Z</time>
      </trkpt>
      <trkpt lat="48.21022" lon="-3.02582">
        <ele>134</ele>
        <time>2015-06-10T08:48:17Z</time>
      </trkpt>
      <trkpt lat="48.21021" lon="-3.02585">
        <ele>134</ele>
        <time>2015-06-10T08:48:19Z</time>
      </trkpt>
      <trkpt lat="48.2102" lon="-3.02587">
        <ele>134</ele>
        <time>2015-06-10T08:48:21Z</time>
      </trkpt>
      <trkpt lat="48.21019" lon="-3.02588">
        <ele>134</ele>
        <time>2015-06-10T08:48:23Z</time>
      </trkpt>
      <trkpt lat="48.21017" lon="-3.02587">
        <ele>134</ele>
        <time>2015-06-10T08:48:25Z</time>
      </trkpt>
      <trkpt lat="48.21016" lon="-3.02587">
        <ele>134</ele>
        <time>2015-06-10T08:48:27Z</time>
      </trkpt>
      <trkpt lat="48.21014" lon="-3.02586">
        <ele>134</ele>
        <time>2015-06-10T08:48:29Z</time>
      </trkpt>
      <trkpt lat="48.21013" lon="-3.02586">
        <ele>134</ele>
        <time>2015-06-10T08:48:32Z</time>
      </trkpt>
      <trkpt lat="48.21012" lon="-3.02588">
        <ele>134</ele>
        <time>2015-06-10T08:48:37Z</time>
      </trkpt>
      <trkpt lat="48.21014" lon="-3.02588">
        <ele>134</ele>
        <time>2015-06-10T08:48:42Z</time>
      </trkpt>
      <trkpt lat="48.21015" lon="-3.02589">
        <ele>134</ele>
        <time>2015-06-10T08:48:45Z</time>
      </trkpt>
      <trkpt lat="48.21016" lon="-3.0259">
        <ele>134</ele>
        <time>2015-06-10T08:48:48Z</time>
      </trkpt>
      <trkpt lat="48.21016" lon="-3.02591">
        <ele>135</ele>
        <time>2015-06-10T08:48:51Z</time>
      </trkpt>
      <trkpt lat="48.21015" lon="-3.02591">
        <ele>135</ele>
        <time>2015-06-10T08:48:54Z</time>
      </trkpt>
      <trkpt lat="48.21014" lon="-3.0259">
        <ele>135</ele>
        <time>2015-06-10T08:48:57Z</time>
      </trkpt>
      <trkpt lat="48.21012" lon="-3.0259">
        <ele>135</ele>
        <time>2015-06-10T08:48:59Z</time>
      </trkpt>
      <trkpt lat="48.21011" lon="-3.0259">
        <ele>135</ele>
        <time>2015-06-10T08:49:01Z</time>
      </trkpt>
      <trkpt lat="48.2101" lon="-3.0259">
        <ele>135</ele>
        <time>2015-06-10T08:49:04Z</time>
      </trkpt>
      <trkpt lat="48.21008" lon="-3.02591">
        <ele>135</ele>
        <time>2015-06-10T08:49:07Z</time>
      </trkpt>
      <trkpt lat="48.21005" lon="-3.02591">
        <ele>135</ele>
        <time>2015-06-10T08:49:10Z</time>
      </trkpt>
      <trkpt lat="48.21004" lon="-3.02588">
        <ele>135</ele>
        <time>2015-06-10T08:49:13Z</time>
      </trkpt>
      <trkpt lat="48.21003" lon="-3.02586">
        <ele>135</ele>
        <time>2015-06-10T08:49:15Z</time>
      </trkpt>
      <trkpt lat="48.21002" lon="-3.02584">
        <ele>135</ele>
        <time>2015-06-10T08:49:17Z</time>
      </trkpt>
      <trkpt lat="48.21003" lon="-3.02582">
        <ele>134</ele>
        <time>2015-06-10T08:49:19Z</time>
      </trkpt>
      <trkpt lat="48.21003" lon="-3.02578">
        <ele>133</ele>
        <time>2015-06-10T08:49:22Z</time>
      </trkpt>
      <trkpt lat="48.21003" lon="-3.02576">
        <ele>133</ele>
        <time>2015-06-10T08:49:24Z</time>
      </trkpt>
      <trkpt lat="48.21003" lon="-3.02574">
        <ele>133</ele>
        <time>2015-06-10T08:49:27Z</time>
      </trkpt>
      <trkpt lat="48.21004" lon="-3.02572">
        <ele>132</ele>
        <time>2015-06-10T08:49:29Z</time>
      </trkpt>
      <trkpt lat="48.21005" lon="-3.02571">
        <ele>130</ele>
        <time>2015-06-10T08:49:32Z</time>
      </trkpt>
      <trkpt lat="48.21006" lon="-3.02569">
        <ele>130</ele>
        <time>2015-06-10T08:49:35Z</time>
      </trkpt>
      <trkpt lat="48.21006" lon="-3.02567">
        <ele>128</ele>
        <time>2015-06-10T08:49:38Z</time>
      </trkpt>
      <trkpt lat="48.21006" lon="-3.02565">
        <ele>122</ele>
        <time>2015-06-10T08:49:48Z</time>
      </trkpt>
      <trkpt lat="48.21006" lon="-3.02563">
        <ele>122</ele>
        <time>2015-06-10T08:49:52Z</time>
      </trkpt>
      <trkpt lat="48.21007" lon="-3.02568">
        <ele>122</ele>
        <time>2015-06-10T08:49:54Z</time>
      </trkpt>
      <trkpt lat="48.21008" lon="-3.02573">
        <ele>122</ele>
        <time>2015-06-10T08:49:56Z</time>
      </trkpt>
      <trkpt lat="48.21007" lon="-3.02575">
        <ele>122</ele>
        <time>2015-06-10T08:49:58Z</time>
      </trkpt>
      <trkpt lat="48.21006" lon="-3.02575">
        <ele>122</ele>
        <time>2015-06-10T08:50:00Z</time>
      </trkpt>
      <trkpt lat="48.21004" lon="-3.02577">
        <ele>123</ele>
        <time>2015-06-10T08:50:02Z</time>
      </trkpt>
      <trkpt lat="48.21001" lon="-3.02579">
        <ele>125</ele>
        <time>2015-06-10T08:50:04Z</time>
      </trkpt>
      <trkpt lat="48.21" lon="-3.02578">
        <ele>126</ele>
        <time>2015-06-10T08:50:06Z</time>
      </trkpt>
      <trkpt lat="48.20998" lon="-3.02578">
        <ele>128</ele>
        <time>2015-06-10T08:50:08Z</time>
      </trkpt>
      <trkpt lat="48.20996" lon="-3.02579">
        <ele>129</ele>
        <time>2015-06-10T08:50:10Z</time>
      </trkpt>
      <trkpt lat="48.20994" lon="-3.02578">
        <ele>130</ele>
        <time>2015-06-10T08:50:12Z</time>
      </trkpt>
      <trkpt lat="48.2099" lon="-3.02578">
        <ele>130</ele>
        <time>2015-06-10T08:50:14Z</time>
      </trkpt>
      <trkpt lat="48.20987" lon="-3.02577">
        <ele>131</ele>
        <time>2015-06-10T08:50:16Z</time>
      </trkpt>
      <trkpt lat="48.20984" lon="-3.02578">
        <ele>132</ele>
        <time>2015-06-10T08:50:18Z</time>
      </trkpt>
      <trkpt lat="48.20981" lon="-3.02577">
        <ele>133</ele>
        <time>2015-06-10T08:50:20Z</time>
      </trkpt>
      <trkpt lat="48.20978" lon="-3.02578">
        <ele>135</ele>
        <time>2015-06-10T08:50:22Z</time>
      </trkpt>
      <trkpt lat="48.20977" lon="-3.02577">
        <ele>136</ele>
        <time>2015-06-10T08:50:24Z</time>
      </trkpt>
      <trkpt lat="48.20975" lon="-3.02576">
        <ele>137</ele>
        <time>2015-06-10T08:50:26Z</time>
      </trkpt>
      <trkpt lat="48.20972" lon="-3.02576">
        <ele>137</ele>
        <time>2015-06-10T08:50:28Z</time>
      </trkpt>
      <trkpt lat="48.2097" lon="-3.02576">
        <ele>138</ele>
        <time>2015-06-10T08:50:30Z</time>
      </trkpt>
      <trkpt lat="48.20968" lon="-3.02575">
        <ele>138</ele>
        <time>2015-06-10T08:50:32Z</time>
      </trkpt>
      <trkpt lat="48.20965" lon="-3.02573">
        <ele>138</ele>
        <time>2015-06-10T08:50:34Z</time>
      </trkpt>
      <trkpt lat="48.20962" lon="-3.02572">
        <ele>138</ele>
        <time>2015-06-10T08:50:36Z</time>
      </trkpt>
      <trkpt lat="48.2096" lon="-3.02571">
        <ele>138</ele>
        <time>2015-06-10T08:50:38Z</time>
      </trkpt>
      <trkpt lat="48.20957" lon="-3.0257">
        <ele>138</ele>
        <time>2015-06-10T08:50:40Z</time>
      </trkpt>
      <trkpt lat="48.20954" lon="-3.02569">
        <ele>138</ele>
        <time>2015-06-10T08:50:42Z</time>
      </trkpt>
      <trkpt lat="48.20951" lon="-3.02567">
        <ele>138</ele>
        <time>2015-06-10T08:50:44Z</time>
      </trkpt>
      <trkpt lat="48.20948" lon="-3.02565">
        <ele>138</ele>
        <time>2015-06-10T08:50:46Z</time>
      </trkpt>
      <trkpt lat="48.20944" lon="-3.02565">
        <ele>138</ele>
        <time>2015-06-10T08:50:48Z</time>
      </trkpt>
      <trkpt lat="48.20942" lon="-3.02563">
        <ele>138</ele>
        <time>2015-06-10T08:50:50Z</time>
      </trkpt>
      <trkpt lat="48.20937" lon="-3.02564">
        <ele>139</ele>
        <time>2015-06-10T08:50:52Z</time>
      </trkpt>
      <trkpt lat="48.20934" lon="-3.02563">
        <ele>140</ele>
        <time>2015-06-10T08:50:54Z</time>
      </trkpt>
      <trkpt lat="48.20932" lon="-3.0256">
        <ele>142</ele>
        <time>2015-06-10T08:50:57Z</time>
      </trkpt>
      <trkpt lat="48.20933" lon="-3.02559">
        <ele>142</ele>
        <time>2015-06-10T08:51:03Z</time>
      </trkpt>
      <trkpt lat="48.20931" lon="-3.02557">
        <ele>143</ele>
        <time>2015-06-10T08:51:09Z</time>
      </trkpt>
      <trkpt lat="48.20929" lon="-3.02553">
        <ele>143</ele>
        <time>2015-06-10T08:51:11Z</time>
      </trkpt>
      <trkpt lat="48.20927" lon="-3.0255">
        <ele>143</ele>
        <time>2015-06-10T08:51:13Z</time>
      </trkpt>
      <trkpt lat="48.20924" lon="-3.02544">
        <ele>143</ele>
        <time>2015-06-10T08:51:15Z</time>
      </trkpt>
      <trkpt lat="48.20921" lon="-3.02538">
        <ele>143</ele>
        <time>2015-06-10T08:51:18Z</time>
      </trkpt>
      <trkpt lat="48.2092" lon="-3.02535">
        <ele>142</ele>
        <time>2015-06-10T08:51:20Z</time>
      </trkpt>
      <trkpt lat="48.20919" lon="-3.02531">
        <ele>141</ele>
        <time>2015-06-10T08:51:22Z</time>
      </trkpt>
      <trkpt lat="48.20916" lon="-3.02527">
        <ele>139</ele>
        <time>2015-06-10T08:51:24Z</time>
      </trkpt>
      <trkpt lat="48.20913" lon="-3.02524">
        <ele>138</ele>
        <time>2015-06-10T08:51:26Z</time>
      </trkpt>
      <trkpt lat="48.20912" lon="-3.02519">
        <ele>136</ele>
        <time>2015-06-10T08:51:28Z</time>
      </trkpt>
      <trkpt lat="48.20911" lon="-3.02515">
        <ele>135</ele>
        <time>2015-06-10T08:51:30Z</time>
      </trkpt>
      <trkpt lat="48.20909" lon="-3.02512">
        <ele>134</ele>
        <time>2015-06-10T08:51:32Z</time>
      </trkpt>
      <trkpt lat="48.20908" lon="-3.02508">
        <ele>133</ele>
        <time>2015-06-10T08:51:34Z</time>
      </trkpt>
      <trkpt lat="48.20907" lon="-3.02502">
        <ele>132</ele>
        <time>2015-06-10T08:51:36Z</time>
      </trkpt>
      <trkpt lat="48.20906" lon="-3.02498">
        <ele>132</ele>
        <time>2015-06-10T08:51:38Z</time>
      </trkpt>
      <trkpt lat="48.20905" lon="-3.02494">
        <ele>131</ele>
        <time>2015-06-10T08:51:40Z</time>
      </trkpt>
      <trkpt lat="48.20905" lon="-3.02489">
        <ele>130</ele>
        <time>2015-06-10T08:51:42Z</time>
      </trkpt>
      <trkpt lat="48.20904" lon="-3.02486">
        <ele>130</ele>
        <time>2015-06-10T08:51:44Z</time>
      </trkpt>
      <trkpt lat="48.20902" lon="-3.02484">
        <ele>130</ele>
        <time>2015-06-10T08:51:46Z</time>
      </trkpt>
      <trkpt lat="48.20901" lon="-3.0248">
        <ele>130</ele>
        <time>2015-06-10T08:51:48Z</time>
      </trkpt>
      <trkpt lat="48.209" lon="-3.02473">
        <ele>130</ele>
        <time>2015-06-10T08:51:50Z</time>
      </trkpt>
      <trkpt lat="48.20898" lon="-3.02467">
        <ele>130</ele>
        <time>2015-06-10T08:51:52Z</time>
      </trkpt>
      <trkpt lat="48.20897" lon="-3.02463">
        <ele>130</ele>
        <time>2015-06-10T08:51:54Z</time>
      </trkpt>
      <trkpt lat="48.20897" lon="-3.02459">
        <ele>130</ele>
        <time>2015-06-10T08:51:56Z</time>
      </trkpt>
      <trkpt lat="48.20895" lon="-3.02455">
        <ele>130</ele>
        <time>2015-06-10T08:51:58Z</time>
      </trkpt>
      <trkpt lat="48.20892" lon="-3.02452">
        <ele>130</ele>
        <time>2015-06-10T08:52:00Z</time>
      </trkpt>
      <trkpt lat="48.20891" lon="-3.02448">
        <ele>130</ele>
        <time>2015-06-10T08:52:02Z</time>
      </trkpt>
      <trkpt lat="48.20888" lon="-3.02443">
        <ele>130</ele>
        <time>2015-06-10T08:52:05Z</time>
      </trkpt>
      <trkpt lat="48.20886" lon="-3.02438">
        <ele>131</ele>
        <time>2015-06-10T08:52:07Z</time>
      </trkpt>
      <trkpt lat="48.20884" lon="-3.02434">
        <ele>131</ele>
        <time>2015-06-10T08:52:09Z</time>
      </trkpt>
      <trkpt lat="48.20883" lon="-3.02429">
        <ele>131</ele>
        <time>2015-06-10T08:52:11Z</time>
      </trkpt>
      <trkpt lat="48.20882" lon="-3.02424">
        <ele>131</ele>
        <time>2015-06-10T08:52:13Z</time>
      </trkpt>
      <trkpt lat="48.20881" lon="-3.02418">
        <ele>131</ele>
        <time>2015-06-10T08:52:16Z</time>
      </trkpt>
      <trkpt lat="48.20879" lon="-3.02414">
        <ele>131</ele>
        <time>2015-06-10T08:52:18Z</time>
      </trkpt>
      <trkpt lat="48.20878" lon="-3.0241">
        <ele>131</ele>
        <time>2015-06-10T08:52:20Z</time>
      </trkpt>
      <trkpt lat="48.20877" lon="-3.02406">
        <ele>131</ele>
        <time>2015-06-10T08:52:22Z</time>
      </trkpt>
      <trkpt lat="48.20876" lon="-3.02402">
        <ele>131</ele>
        <time>2015-06-10T08:52:24Z</time>
      </trkpt>
      <trkpt lat="48.20873" lon="-3.024">
        <ele>131</ele>
        <time>2015-06-10T08:52:26Z</time>
      </trkpt>
      <trkpt lat="48.2087" lon="-3.02397">
        <ele>131</ele>
        <time>2015-06-10T08:52:28Z</time>
      </trkpt>
      <trkpt lat="48.20867" lon="-3.02394">
        <ele>131</ele>
        <time>2015-06-10T08:52:30Z</time>
      </trkpt>
      <trkpt lat="48.20866" lon="-3.02391">
        <ele>131</ele>
        <time>2015-06-10T08:52:32Z</time>
      </trkpt>
      <trkpt lat="48.20865" lon="-3.02387">
        <ele>131</ele>
        <time>2015-06-10T08:52:34Z</time>
      </trkpt>
      <trkpt lat="48.20865" lon="-3.02382">
        <ele>131</ele>
        <time>2015-06-10T08:52:36Z</time>
      </trkpt>
      <trkpt lat="48.20863" lon="-3.02378">
        <ele>131</ele>
        <time>2015-06-10T08:52:38Z</time>
      </trkpt>
      <trkpt lat="48.20862" lon="-3.02373">
        <ele>131</ele>
        <time>2015-06-10T08:52:40Z</time>
      </trkpt>
      <trkpt lat="48.20859" lon="-3.02368">
        <ele>131</ele>
        <time>2015-06-10T08:52:43Z</time>
      </trkpt>
      <trkpt lat="48.20857" lon="-3.02363">
        <ele>131</ele>
        <time>2015-06-10T08:52:45Z</time>
      </trkpt>
      <trkpt lat="48.20856" lon="-3.02359">
        <ele>131</ele>
        <time>2015-06-10T08:52:47Z</time>
      </trkpt>
      <trkpt lat="48.20855" lon="-3.02355">
        <ele>130</ele>
        <time>2015-06-10T08:52:49Z</time>
      </trkpt>
      <trkpt lat="48.20852" lon="-3.02352">
        <ele>129</ele>
        <time>2015-06-10T08:52:51Z</time>
      </trkpt>
      <trkpt lat="48.20851" lon="-3.02347">
        <ele>129</ele>
        <time>2015-06-10T08:52:53Z</time>
      </trkpt>
      <trkpt lat="48.20849" lon="-3.02343">
        <ele>129</ele>
        <time>2015-06-10T08:52:56Z</time>
      </trkpt>
      <trkpt lat="48.20847" lon="-3.02337">
        <ele>129</ele>
        <time>2015-06-10T08:52:58Z</time>
      </trkpt>
      <trkpt lat="48.20845" lon="-3.02333">
        <ele>129</ele>
        <time>2015-06-10T08:53:00Z</time>
      </trkpt>
      <trkpt lat="48.20844" lon="-3.02328">
        <ele>129</ele>
        <time>2015-06-10T08:53:02Z</time>
      </trkpt>
      <trkpt lat="48.20842" lon="-3.02325">
        <ele>129</ele>
        <time>2015-06-10T08:53:04Z</time>
      </trkpt>
      <trkpt lat="48.2084" lon="-3.02321">
        <ele>129</ele>
        <time>2015-06-10T08:53:06Z</time>
      </trkpt>
      <trkpt lat="48.20839" lon="-3.02315">
        <ele>129</ele>
        <time>2015-06-10T08:53:08Z</time>
      </trkpt>
      <trkpt lat="48.20837" lon="-3.0231">
        <ele>129</ele>
        <time>2015-06-10T08:53:10Z</time>
      </trkpt>
      <trkpt lat="48.20837" lon="-3.02306">
        <ele>129</ele>
        <time>2015-06-10T08:53:12Z</time>
      </trkpt>
      <trkpt lat="48.20834" lon="-3.02303">
        <ele>129</ele>
        <time>2015-06-10T08:53:14Z</time>
      </trkpt>
      <trkpt lat="48.20833" lon="-3.02299">
        <ele>129</ele>
        <time>2015-06-10T08:53:16Z</time>
      </trkpt>
      <trkpt lat="48.20831" lon="-3.02296">
        <ele>129</ele>
        <time>2015-06-10T08:53:18Z</time>
      </trkpt>
      <trkpt lat="48.20829" lon="-3.02292">
        <ele>129</ele>
        <time>2015-06-10T08:53:20Z</time>
      </trkpt>
      <trkpt lat="48.20827" lon="-3.02289">
        <ele>129</ele>
        <time>2015-06-10T08:53:22Z</time>
      </trkpt>
      <trkpt lat="48.20824" lon="-3.02286">
        <ele>129</ele>
        <time>2015-06-10T08:53:24Z</time>
      </trkpt>
      <trkpt lat="48.20822" lon="-3.02283">
        <ele>129</ele>
        <time>2015-06-10T08:53:26Z</time>
      </trkpt>
      <trkpt lat="48.20822" lon="-3.02279">
        <ele>129</ele>
        <time>2015-06-10T08:53:28Z</time>
      </trkpt>
      <trkpt lat="48.20821" lon="-3.02276">
        <ele>129</ele>
        <time>2015-06-10T08:53:30Z</time>
      </trkpt>
      <trkpt lat="48.2082" lon="-3.02273">
        <ele>129</ele>
        <time>2015-06-10T08:53:32Z</time>
      </trkpt>
      <trkpt lat="48.20817" lon="-3.0227">
        <ele>129</ele>
        <time>2015-06-10T08:53:34Z</time>
      </trkpt>
      <trkpt lat="48.20815" lon="-3.02267">
        <ele>129</ele>
        <time>2015-06-10T08:53:36Z</time>
      </trkpt>
      <trkpt lat="48.20813" lon="-3.02264">
        <ele>129</ele>
        <time>2015-06-10T08:53:38Z</time>
      </trkpt>
      <trkpt lat="48.20809" lon="-3.02259">
        <ele>129</ele>
        <time>2015-06-10T08:53:41Z</time>
      </trkpt>
      <trkpt lat="48.20808" lon="-3.02255">
        <ele>129</ele>
        <time>2015-06-10T08:53:43Z</time>
      </trkpt>
      <trkpt lat="48.20805" lon="-3.02252">
        <ele>129</ele>
        <time>2015-06-10T08:53:45Z</time>
      </trkpt>
      <trkpt lat="48.20803" lon="-3.02248">
        <ele>129</ele>
        <time>2015-06-10T08:53:47Z</time>
      </trkpt>
      <trkpt lat="48.20801" lon="-3.02245">
        <ele>129</ele>
        <time>2015-06-10T08:53:49Z</time>
      </trkpt>
      <trkpt lat="48.20799" lon="-3.02241">
        <ele>129</ele>
        <time>2015-06-10T08:53:51Z</time>
      </trkpt>
      <trkpt lat="48.20797" lon="-3.02238">
        <ele>129</ele>
        <time>2015-06-10T08:53:53Z</time>
      </trkpt>
      <trkpt lat="48.20794" lon="-3.02233">
        <ele>129</ele>
        <time>2015-06-10T08:53:55Z</time>
      </trkpt>
      <trkpt lat="48.20793" lon="-3.0223">
        <ele>129</ele>
        <time>2015-06-10T08:53:57Z</time>
      </trkpt>
      <trkpt lat="48.20792" lon="-3.02227">
        <ele>129</ele>
        <time>2015-06-10T08:53:59Z</time>
      </trkpt>
      <trkpt lat="48.20791" lon="-3.02223">
        <ele>129</ele>
        <time>2015-06-10T08:54:01Z</time>
      </trkpt>
      <trkpt lat="48.2079" lon="-3.02219">
        <ele>129</ele>
        <time>2015-06-10T08:54:03Z</time>
      </trkpt>
      <trkpt lat="48.20791" lon="-3.02214">
        <ele>129</ele>
        <time>2015-06-10T08:54:05Z</time>
      </trkpt>
      <trkpt lat="48.20792" lon="-3.0221">
        <ele>129</ele>
        <time>2015-06-10T08:54:07Z</time>
      </trkpt>
      <trkpt lat="48.20794" lon="-3.02206">
        <ele>129</ele>
        <time>2015-06-10T08:54:09Z</time>
      </trkpt>
      <trkpt lat="48.20795" lon="-3.02202">
        <ele>129</ele>
        <time>2015-06-10T08:54:11Z</time>
      </trkpt>
      <trkpt lat="48.20797" lon="-3.02197">
        <ele>129</ele>
        <time>2015-06-10T08:54:13Z</time>
      </trkpt>
      <trkpt lat="48.20797" lon="-3.02193">
        <ele>129</ele>
        <time>2015-06-10T08:54:15Z</time>
      </trkpt>
      <trkpt lat="48.20797" lon="-3.02189">
        <ele>129</ele>
        <time>2015-06-10T08:54:17Z</time>
      </trkpt>
      <trkpt lat="48.20797" lon="-3.02184">
        <ele>129</ele>
        <time>2015-06-10T08:54:19Z</time>
      </trkpt>
      <trkpt lat="48.20796" lon="-3.0218">
        <ele>129</ele>
        <time>2015-06-10T08:54:21Z</time>
      </trkpt>
      <trkpt lat="48.20796" lon="-3.02176">
        <ele>129</ele>
        <time>2015-06-10T08:54:23Z</time>
      </trkpt>
      <trkpt lat="48.20796" lon="-3.02172">
        <ele>129</ele>
        <time>2015-06-10T08:54:25Z</time>
      </trkpt>
      <trkpt lat="48.20795" lon="-3.02168">
        <ele>129</ele>
        <time>2015-06-10T08:54:27Z</time>
      </trkpt>
      <trkpt lat="48.20792" lon="-3.02164">
        <ele>129</ele>
        <time>2015-06-10T08:54:30Z</time>
      </trkpt>
      <trkpt lat="48.20791" lon="-3.0216">
        <ele>129</ele>
        <time>2015-06-10T08:54:32Z</time>
      </trkpt>
      <trkpt lat="48.20789" lon="-3.02156">
        <ele>129</ele>
        <time>2015-06-10T08:54:34Z</time>
      </trkpt>
      <trkpt lat="48.20788" lon="-3.02151">
        <ele>129</ele>
        <time>2015-06-10T08:54:36Z</time>
      </trkpt>
      <trkpt lat="48.20787" lon="-3.02146">
        <ele>130</ele>
        <time>2015-06-10T08:54:38Z</time>
      </trkpt>
      <trkpt lat="48.20786" lon="-3.0214">
        <ele>131</ele>
        <time>2015-06-10T08:54:40Z</time>
      </trkpt>
      <trkpt lat="48.20785" lon="-3.02136">
        <ele>131</ele>
        <time>2015-06-10T08:54:43Z</time>
      </trkpt>
      <trkpt lat="48.20784" lon="-3.02132">
        <ele>131</ele>
        <time>2015-06-10T08:54:45Z</time>
      </trkpt>
      <trkpt lat="48.20782" lon="-3.02128">
        <ele>131</ele>
        <time>2015-06-10T08:54:47Z</time>
      </trkpt>
      <trkpt lat="48.2078" lon="-3.02127">
        <ele>131</ele>
        <time>2015-06-10T08:54:49Z</time>
      </trkpt>
      <trkpt lat="48.20777" lon="-3.02125">
        <ele>131</ele>
        <time>2015-06-10T08:54:51Z</time>
      </trkpt>
      <trkpt lat="48.20774" lon="-3.02121">
        <ele>132</ele>
        <time>2015-06-10T08:54:53Z</time>
      </trkpt>
      <trkpt lat="48.20773" lon="-3.02117">
        <ele>133</ele>
        <time>2015-06-10T08:54:55Z</time>
      </trkpt>
      <trkpt lat="48.20769" lon="-3.02113">
        <ele>134</ele>
        <time>2015-06-10T08:54:58Z</time>
      </trkpt>
      <trkpt lat="48.20766" lon="-3.0211">
        <ele>134</ele>
        <time>2015-06-10T08:55:00Z</time>
      </trkpt>
      <trkpt lat="48.20764" lon="-3.02107">
        <ele>134</ele>
        <time>2015-06-10T08:55:02Z</time>
      </trkpt>
      <trkpt lat="48.20762" lon="-3.02104">
        <ele>134</ele>
        <time>2015-06-10T08:55:04Z</time>
      </trkpt>
      <trkpt lat="48.2076" lon="-3.021">
        <ele>134</ele>
        <time>2015-06-10T08:55:06Z</time>
      </trkpt>
      <trkpt lat="48.20759" lon="-3.02095">
        <ele>134</ele>
        <time>2015-06-10T08:55:08Z</time>
      </trkpt>
      <trkpt lat="48.20758" lon="-3.02091">
        <ele>134</ele>
        <time>2015-06-10T08:55:10Z</time>
      </trkpt>
      <trkpt lat="48.20758" lon="-3.02087">
        <ele>134</ele>
        <time>2015-06-10T08:55:12Z</time>
      </trkpt>
      <trkpt lat="48.20756" lon="-3.02083">
        <ele>134</ele>
        <time>2015-06-10T08:55:14Z</time>
      </trkpt>
      <trkpt lat="48.20755" lon="-3.02081">
        <ele>134</ele>
        <time>2015-06-10T08:55:16Z</time>
      </trkpt>
      <trkpt lat="48.20751" lon="-3.02078">
        <ele>134</ele>
        <time>2015-06-10T08:55:19Z</time>
      </trkpt>
      <trkpt lat="48.2075" lon="-3.02073">
        <ele>134</ele>
        <time>2015-06-10T08:55:21Z</time>
      </trkpt>
      <trkpt lat="48.20748" lon="-3.02068">
        <ele>134</ele>
        <time>2015-06-10T08:55:23Z</time>
      </trkpt>
      <trkpt lat="48.20745" lon="-3.02063">
        <ele>134</ele>
        <time>2015-06-10T08:55:25Z</time>
      </trkpt>
      <trkpt lat="48.20744" lon="-3.02059">
        <ele>134</ele>
        <time>2015-06-10T08:55:27Z</time>
      </trkpt>
      <trkpt lat="48.20742" lon="-3.02054">
        <ele>134</ele>
        <time>2015-06-10T08:55:29Z</time>
      </trkpt>
      <trkpt lat="48.20742" lon="-3.02049">
        <ele>134</ele>
        <time>2015-06-10T08:55:31Z</time>
      </trkpt>
      <trkpt lat="48.20741" lon="-3.02044">
        <ele>134</ele>
        <time>2015-06-10T08:55:33Z</time>
      </trkpt>
      <trkpt lat="48.20742" lon="-3.0204">
        <ele>134</ele>
        <time>2015-06-10T08:55:35Z</time>
      </trkpt>
      <trkpt lat="48.20744" lon="-3.02037">
        <ele>134</ele>
        <time>2015-06-10T08:55:37Z</time>
      </trkpt>
      <trkpt lat="48.20744" lon="-3.02033">
        <ele>134</ele>
        <time>2015-06-10T08:55:39Z</time>
      </trkpt>
      <trkpt lat="48.20745" lon="-3.02031">
        <ele>134</ele>
        <time>2015-06-10T08:55:41Z</time>
      </trkpt>
      <trkpt lat="48.20745" lon="-3.02029">
        <ele>134</ele>
        <time>2015-06-10T08:55:43Z</time>
      </trkpt>
      <trkpt lat="48.20745" lon="-3.02027">
        <ele>134</ele>
        <time>2015-06-10T08:55:46Z</time>
      </trkpt>
      <trkpt lat="48.20746" lon="-3.02024">
        <ele>134</ele>
        <time>2015-06-10T08:55:49Z</time>
      </trkpt>
      <trkpt lat="48.20748" lon="-3.0202">
        <ele>134</ele>
        <time>2015-06-10T08:55:51Z</time>
      </trkpt>
      <trkpt lat="48.20749" lon="-3.02017">
        <ele>134</ele>
        <time>2015-06-10T08:55:53Z</time>
      </trkpt>
      <trkpt lat="48.2075" lon="-3.02019">
        <ele>131</ele>
        <time>2015-06-10T08:56:12Z</time>
      </trkpt>
      <trkpt lat="48.2075" lon="-3.02021">
        <ele>130</ele>
        <time>2015-06-10T08:56:14Z</time>
      </trkpt>
      <trkpt lat="48.2075" lon="-3.02023">
        <ele>130</ele>
        <time>2015-06-10T08:56:17Z</time>
      </trkpt>
      <trkpt lat="48.20749" lon="-3.02025">
        <ele>130</ele>
        <time>2015-06-10T08:56:19Z</time>
      </trkpt>
      <trkpt lat="48.20748" lon="-3.02027">
        <ele>130</ele>
        <time>2015-06-10T08:56:22Z</time>
      </trkpt>
      <trkpt lat="48.20748" lon="-3.02029">
        <ele>130</ele>
        <time>2015-06-10T08:56:25Z</time>
      </trkpt>
      <trkpt lat="48.20746" lon="-3.02028">
        <ele>132</ele>
        <time>2015-06-10T08:56:28Z</time>
      </trkpt>
      <trkpt lat="48.20743" lon="-3.02028">
        <ele>134</ele>
        <time>2015-06-10T08:56:31Z</time>
      </trkpt>
      <trkpt lat="48.20741" lon="-3.02026">
        <ele>135</ele>
        <time>2015-06-10T08:56:33Z</time>
      </trkpt>
      <trkpt lat="48.20738" lon="-3.02022">
        <ele>135</ele>
        <time>2015-06-10T08:56:36Z</time>
      </trkpt>
      <trkpt lat="48.20736" lon="-3.0202">
        <ele>135</ele>
        <time>2015-06-10T08:56:38Z</time>
      </trkpt>
      <trkpt lat="48.20734" lon="-3.02017">
        <ele>135</ele>
        <time>2015-06-10T08:56:40Z</time>
      </trkpt>
      <trkpt lat="48.20734" lon="-3.02014">
        <ele>135</ele>
        <time>2015-06-10T08:56:42Z</time>
      </trkpt>
      <trkpt lat="48.20731" lon="-3.02011">
        <ele>135</ele>
        <time>2015-06-10T08:56:45Z</time>
      </trkpt>
      <trkpt lat="48.20728" lon="-3.02009">
        <ele>135</ele>
        <time>2015-06-10T08:56:47Z</time>
      </trkpt>
      <trkpt lat="48.20726" lon="-3.02007">
        <ele>135</ele>
        <time>2015-06-10T08:56:49Z</time>
      </trkpt>
      <trkpt lat="48.20725" lon="-3.02005">
        <ele>135</ele>
        <time>2015-06-10T08:56:51Z</time>
      </trkpt>
      <trkpt lat="48.20723" lon="-3.02002">
        <ele>135</ele>
        <time>2015-06-10T08:56:53Z</time>
      </trkpt>
      <trkpt lat="48.20722" lon="-3.02">
        <ele>135</ele>
        <time>2015-06-10T08:56:55Z</time>
      </trkpt>
      <trkpt lat="48.2072" lon="-3.01998">
        <ele>135</ele>
        <time>2015-06-10T08:56:57Z</time>
      </trkpt>
      <trkpt lat="48.20718" lon="-3.01994">
        <ele>135</ele>
        <time>2015-06-10T08:56:59Z</time>
      </trkpt>
      <trkpt lat="48.20717" lon="-3.01992">
        <ele>135</ele>
        <time>2015-06-10T08:57:01Z</time>
      </trkpt>
      <trkpt lat="48.20716" lon="-3.01988">
        <ele>135</ele>
        <time>2015-06-10T08:57:03Z</time>
      </trkpt>
      <trkpt lat="48.20715" lon="-3.01986">
        <ele>135</ele>
        <time>2015-06-10T08:57:05Z</time>
      </trkpt>
      <trkpt lat="48.20715" lon="-3.0198">
        <ele>135</ele>
        <time>2015-06-10T08:57:08Z</time>
      </trkpt>
      <trkpt lat="48.20714" lon="-3.01975">
        <ele>135</ele>
        <time>2015-06-10T08:57:11Z</time>
      </trkpt>
      <trkpt lat="48.20713" lon="-3.01972">
        <ele>135</ele>
        <time>2015-06-10T08:57:13Z</time>
      </trkpt>
      <trkpt lat="48.20711" lon="-3.01969">
        <ele>135</ele>
        <time>2015-06-10T08:57:15Z</time>
      </trkpt>
      <trkpt lat="48.20709" lon="-3.01965">
        <ele>135</ele>
        <time>2015-06-10T08:57:17Z</time>
      </trkpt>
      <trkpt lat="48.20708" lon="-3.01961">
        <ele>135</ele>
        <time>2015-06-10T08:57:20Z</time>
      </trkpt>
      <trkpt lat="48.20707" lon="-3.01958">
        <ele>135</ele>
        <time>2015-06-10T08:57:22Z</time>
      </trkpt>
      <trkpt lat="48.20706" lon="-3.01955">
        <ele>135</ele>
        <time>2015-06-10T08:57:24Z</time>
      </trkpt>
      <trkpt lat="48.20705" lon="-3.01952">
        <ele>135</ele>
        <time>2015-06-10T08:57:26Z</time>
      </trkpt>
      <trkpt lat="48.20705" lon="-3.01948">
        <ele>135</ele>
        <time>2015-06-10T08:57:28Z</time>
      </trkpt>
      <trkpt lat="48.20704" lon="-3.01944">
        <ele>135</ele>
        <time>2015-06-10T08:57:30Z</time>
      </trkpt>
      <trkpt lat="48.20702" lon="-3.0194">
        <ele>135</ele>
        <time>2015-06-10T08:57:32Z</time>
      </trkpt>
      <trkpt lat="48.20701" lon="-3.01938">
        <ele>135</ele>
        <time>2015-06-10T08:57:35Z</time>
      </trkpt>
      <trkpt lat="48.20699" lon="-3.01934">
        <ele>135</ele>
        <time>2015-06-10T08:57:38Z</time>
      </trkpt>
      <trkpt lat="48.20698" lon="-3.01931">
        <ele>135</ele>
        <time>2015-06-10T08:57:40Z</time>
      </trkpt>
      <trkpt lat="48.20696" lon="-3.01928">
        <ele>135</ele>
        <time>2015-06-10T08:57:42Z</time>
      </trkpt>
      <trkpt lat="48.20694" lon="-3.01924">
        <ele>135</ele>
        <time>2015-06-10T08:57:44Z</time>
      </trkpt>
      <trkpt lat="48.20693" lon="-3.01919">
        <ele>135</ele>
        <time>2015-06-10T08:57:46Z</time>
      </trkpt>
      <trkpt lat="48.20692" lon="-3.01917">
        <ele>135</ele>
        <time>2015-06-10T08:57:48Z</time>
      </trkpt>
      <trkpt lat="48.20689" lon="-3.01913">
        <ele>135</ele>
        <time>2015-06-10T08:57:51Z</time>
      </trkpt>
      <trkpt lat="48.20688" lon="-3.01911">
        <ele>135</ele>
        <time>2015-06-10T08:57:53Z</time>
      </trkpt>
      <trkpt lat="48.20687" lon="-3.01907">
        <ele>135</ele>
        <time>2015-06-10T08:57:55Z</time>
      </trkpt>
      <trkpt lat="48.20687" lon="-3.01903">
        <ele>135</ele>
        <time>2015-06-10T08:57:58Z</time>
      </trkpt>
      <trkpt lat="48.20686" lon="-3.01899">
        <ele>135</ele>
        <time>2015-06-10T08:58:00Z</time>
      </trkpt>
      <trkpt lat="48.20686" lon="-3.01895">
        <ele>135</ele>
        <time>2015-06-10T08:58:02Z</time>
      </trkpt>
      <trkpt lat="48.20685" lon="-3.01891">
        <ele>136</ele>
        <time>2015-06-10T08:58:04Z</time>
      </trkpt>
      <trkpt lat="48.20686" lon="-3.01888">
        <ele>136</ele>
        <time>2015-06-10T08:58:06Z</time>
      </trkpt>
      <trkpt lat="48.20686" lon="-3.01884">
        <ele>136</ele>
        <time>2015-06-10T08:58:08Z</time>
      </trkpt>
      <trkpt lat="48.20686" lon="-3.01881">
        <ele>136</ele>
        <time>2015-06-10T08:58:10Z</time>
      </trkpt>
      <trkpt lat="48.20686" lon="-3.01878">
        <ele>136</ele>
        <time>2015-06-10T08:58:12Z</time>
      </trkpt>
      <trkpt lat="48.20684" lon="-3.01876">
        <ele>136</ele>
        <time>2015-06-10T08:58:14Z</time>
      </trkpt>
      <trkpt lat="48.20683" lon="-3.01873">
        <ele>136</ele>
        <time>2015-06-10T08:58:17Z</time>
      </trkpt>
      <trkpt lat="48.20682" lon="-3.0187">
        <ele>136</ele>
        <time>2015-06-10T08:58:19Z</time>
      </trkpt>
      <trkpt lat="48.2068" lon="-3.01866">
        <ele>136</ele>
        <time>2015-06-10T08:58:22Z</time>
      </trkpt>
      <trkpt lat="48.2068" lon="-3.01862">
        <ele>136</ele>
        <time>2015-06-10T08:58:24Z</time>
      </trkpt>
      <trkpt lat="48.20679" lon="-3.01856">
        <ele>138</ele>
        <time>2015-06-10T08:58:27Z</time>
      </trkpt>
      <trkpt lat="48.20677" lon="-3.01852">
        <ele>138</ele>
        <time>2015-06-10T08:58:29Z</time>
      </trkpt>
      <trkpt lat="48.20676" lon="-3.01848">
        <ele>138</ele>
        <time>2015-06-10T08:58:31Z</time>
      </trkpt>
      <trkpt lat="48.20676" lon="-3.01845">
        <ele>138</ele>
        <time>2015-06-10T08:58:33Z</time>
      </trkpt>
      <trkpt lat="48.20674" lon="-3.0184">
        <ele>138</ele>
        <time>2015-06-10T08:58:36Z</time>
      </trkpt>
      <trkpt lat="48.20673" lon="-3.01837">
        <ele>138</ele>
        <time>2015-06-10T08:58:39Z</time>
      </trkpt>
      <trkpt lat="48.20674" lon="-3.01834">
        <ele>138</ele>
        <time>2015-06-10T08:58:41Z</time>
      </trkpt>
      <trkpt lat="48.20673" lon="-3.01831">
        <ele>138</ele>
        <time>2015-06-10T08:58:43Z</time>
      </trkpt>
      <trkpt lat="48.20673" lon="-3.01827">
        <ele>138</ele>
        <time>2015-06-10T08:58:45Z</time>
      </trkpt>
      <trkpt lat="48.20674" lon="-3.01823">
        <ele>138</ele>
        <time>2015-06-10T08:58:47Z</time>
      </trkpt>
      <trkpt lat="48.20673" lon="-3.01819">
        <ele>138</ele>
        <time>2015-06-10T08:58:49Z</time>
      </trkpt>
      <trkpt lat="48.2067" lon="-3.01813">
        <ele>138</ele>
        <time>2015-06-10T08:58:52Z</time>
      </trkpt>
      <trkpt lat="48.20669" lon="-3.01807">
        <ele>138</ele>
        <time>2015-06-10T08:58:55Z</time>
      </trkpt>
      <trkpt lat="48.20669" lon="-3.01802">
        <ele>138</ele>
        <time>2015-06-10T08:58:58Z</time>
      </trkpt>
      <trkpt lat="48.20668" lon="-3.01797">
        <ele>138</ele>
        <time>2015-06-10T08:59:01Z</time>
      </trkpt>
      <trkpt lat="48.20668" lon="-3.01795">
        <ele>137</ele>
        <time>2015-06-10T08:59:03Z</time>
      </trkpt>
      <trkpt lat="48.20668" lon="-3.01793">
        <ele>136</ele>
        <time>2015-06-10T08:59:05Z</time>
      </trkpt>
      <trkpt lat="48.20668" lon="-3.01789">
        <ele>136</ele>
        <time>2015-06-10T08:59:07Z</time>
      </trkpt>
      <trkpt lat="48.20668" lon="-3.01785">
        <ele>136</ele>
        <time>2015-06-10T08:59:09Z</time>
      </trkpt>
      <trkpt lat="48.20669" lon="-3.0178">
        <ele>136</ele>
        <time>2015-06-10T08:59:12Z</time>
      </trkpt>
      <trkpt lat="48.20667" lon="-3.01778">
        <ele>136</ele>
        <time>2015-06-10T08:59:15Z</time>
      </trkpt>
      <trkpt lat="48.20665" lon="-3.01775">
        <ele>136</ele>
        <time>2015-06-10T08:59:18Z</time>
      </trkpt>
      <trkpt lat="48.20664" lon="-3.01774">
        <ele>136</ele>
        <time>2015-06-10T08:59:20Z</time>
      </trkpt>
      <trkpt lat="48.20664" lon="-3.01771">
        <ele>136</ele>
        <time>2015-06-10T08:59:22Z</time>
      </trkpt>
      <trkpt lat="48.20663" lon="-3.01768">
        <ele>136</ele>
        <time>2015-06-10T08:59:24Z</time>
      </trkpt>
      <trkpt lat="48.20663" lon="-3.01765">
        <ele>136</ele>
        <time>2015-06-10T08:59:26Z</time>
      </trkpt>
      <trkpt lat="48.20663" lon="-3.01762">
        <ele>136</ele>
        <time>2015-06-10T08:59:28Z</time>
      </trkpt>
      <trkpt lat="48.20663" lon="-3.01759">
        <ele>136</ele>
        <time>2015-06-10T08:59:30Z</time>
      </trkpt>
      <trkpt lat="48.20661" lon="-3.01756">
        <ele>136</ele>
        <time>2015-06-10T08:59:32Z</time>
      </trkpt>
      <trkpt lat="48.20661" lon="-3.01754">
        <ele>135</ele>
        <time>2015-06-10T08:59:34Z</time>
      </trkpt>
      <trkpt lat="48.2066" lon="-3.01752">
        <ele>135</ele>
        <time>2015-06-10T08:59:36Z</time>
      </trkpt>
      <trkpt lat="48.2066" lon="-3.01751">
        <ele>135</ele>
        <time>2015-06-10T08:59:38Z</time>
      </trkpt>
      <trkpt lat="48.20661" lon="-3.01748">
        <ele>135</ele>
        <time>2015-06-10T08:59:40Z</time>
      </trkpt>
      <trkpt lat="48.20661" lon="-3.01746">
        <ele>135</ele>
        <time>2015-06-10T08:59:42Z</time>
      </trkpt>
      <trkpt lat="48.20661" lon="-3.01744">
        <ele>135</ele>
        <time>2015-06-10T08:59:44Z</time>
      </trkpt>
      <trkpt lat="48.20661" lon="-3.01741">
        <ele>135</ele>
        <time>2015-06-10T08:59:46Z</time>
      </trkpt>
      <trkpt lat="48.2066" lon="-3.01739">
        <ele>135</ele>
        <time>2015-06-10T08:59:48Z</time>
      </trkpt>
      <trkpt lat="48.20659" lon="-3.01737">
        <ele>135</ele>
        <time>2015-06-10T08:59:50Z</time>
      </trkpt>
      <trkpt lat="48.20659" lon="-3.01734">
        <ele>135</ele>
        <time>2015-06-10T08:59:52Z</time>
      </trkpt>
      <trkpt lat="48.20659" lon="-3.01731">
        <ele>135</ele>
        <time>2015-06-10T08:59:54Z</time>
      </trkpt>
      <trkpt lat="48.2066" lon="-3.01728">
        <ele>135</ele>
        <time>2015-06-10T08:59:56Z</time>
      </trkpt>
      <trkpt lat="48.20658" lon="-3.01724">
        <ele>135</ele>
        <time>2015-06-10T08:59:59Z</time>
      </trkpt>
      <trkpt lat="48.20657" lon="-3.01721">
        <ele>135</ele>
        <time>2015-06-10T09:00:02Z</time>
      </trkpt>
      <trkpt lat="48.20657" lon="-3.01719">
        <ele>135</ele>
        <time>2015-06-10T09:00:04Z</time>
      </trkpt>
      <trkpt lat="48.20657" lon="-3.01714">
        <ele>135</ele>
        <time>2015-06-10T09:00:07Z</time>
      </trkpt>
      <trkpt lat="48.20658" lon="-3.0171">
        <ele>135</ele>
        <time>2015-06-10T09:00:09Z</time>
      </trkpt>
      <trkpt lat="48.20658" lon="-3.01706">
        <ele>135</ele>
        <time>2015-06-10T09:00:11Z</time>
      </trkpt>
      <trkpt lat="48.20658" lon="-3.01703">
        <ele>135</ele>
        <time>2015-06-10T09:00:13Z</time>
      </trkpt>
      <trkpt lat="48.20658" lon="-3.017">
        <ele>135</ele>
        <time>2015-06-10T09:00:15Z</time>
      </trkpt>
      <trkpt lat="48.20657" lon="-3.01698">
        <ele>135</ele>
        <time>2015-06-10T09:00:17Z</time>
      </trkpt>
      <trkpt lat="48.20656" lon="-3.01695">
        <ele>135</ele>
        <time>2015-06-10T09:00:19Z</time>
      </trkpt>
      <trkpt lat="48.20654" lon="-3.01695">
        <ele>135</ele>
        <time>2015-06-10T09:00:21Z</time>
      </trkpt>
      <trkpt lat="48.20653" lon="-3.01694">
        <ele>135</ele>
        <time>2015-06-10T09:00:23Z</time>
      </trkpt>
      <trkpt lat="48.20653" lon="-3.01692">
        <ele>135</ele>
        <time>2015-06-10T09:00:25Z</time>
      </trkpt>
      <trkpt lat="48.20653" lon="-3.01689">
        <ele>135</ele>
        <time>2015-06-10T09:00:27Z</time>
      </trkpt>
      <trkpt lat="48.20652" lon="-3.01687">
        <ele>135</ele>
        <time>2015-06-10T09:00:29Z</time>
      </trkpt>
      <trkpt lat="48.20652" lon="-3.01685">
        <ele>135</ele>
        <time>2015-06-10T09:00:31Z</time>
      </trkpt>
      <trkpt lat="48.20651" lon="-3.01683">
        <ele>135</ele>
        <time>2015-06-10T09:00:33Z</time>
      </trkpt>
      <trkpt lat="48.20651" lon="-3.0168">
        <ele>135</ele>
        <time>2015-06-10T09:00:36Z</time>
      </trkpt>
      <trkpt lat="48.20651" lon="-3.01677">
        <ele>135</ele>
        <time>2015-06-10T09:00:38Z</time>
      </trkpt>
      <trkpt lat="48.2065" lon="-3.01674">
        <ele>135</ele>
        <time>2015-06-10T09:00:41Z</time>
      </trkpt>
      <trkpt lat="48.20649" lon="-3.01672">
        <ele>135</ele>
        <time>2015-06-10T09:00:44Z</time>
      </trkpt>
      <trkpt lat="48.2065" lon="-3.01669">
        <ele>135</ele>
        <time>2015-06-10T09:00:46Z</time>
      </trkpt>
      <trkpt lat="48.2065" lon="-3.01665">
        <ele>135</ele>
        <time>2015-06-10T09:00:48Z</time>
      </trkpt>
      <trkpt lat="48.20649" lon="-3.01662">
        <ele>134</ele>
        <time>2015-06-10T09:00:50Z</time>
      </trkpt>
      <trkpt lat="48.20648" lon="-3.0166">
        <ele>134</ele>
        <time>2015-06-10T09:00:52Z</time>
      </trkpt>
      <trkpt lat="48.20648" lon="-3.01657">
        <ele>133</ele>
        <time>2015-06-10T09:00:54Z</time>
      </trkpt>
      <trkpt lat="48.20648" lon="-3.01654">
        <ele>133</ele>
        <time>2015-06-10T09:00:56Z</time>
      </trkpt>
      <trkpt lat="48.20648" lon="-3.01651">
        <ele>133</ele>
        <time>2015-06-10T09:00:58Z</time>
      </trkpt>
      <trkpt lat="48.20649" lon="-3.01646">
        <ele>133</ele>
        <time>2015-06-10T09:01:01Z</time>
      </trkpt>
      <trkpt lat="48.20648" lon="-3.01642">
        <ele>133</ele>
        <time>2015-06-10T09:01:03Z</time>
      </trkpt>
      <trkpt lat="48.20647" lon="-3.01639">
        <ele>133</ele>
        <time>2015-06-10T09:01:05Z</time>
      </trkpt>
      <trkpt lat="48.20647" lon="-3.01636">
        <ele>133</ele>
        <time>2015-06-10T09:01:07Z</time>
      </trkpt>
      <trkpt lat="48.20646" lon="-3.01633">
        <ele>133</ele>
        <time>2015-06-10T09:01:09Z</time>
      </trkpt>
      <trkpt lat="48.20646" lon="-3.01628">
        <ele>133</ele>
        <time>2015-06-10T09:01:12Z</time>
      </trkpt>
      <trkpt lat="48.20647" lon="-3.01626">
        <ele>133</ele>
        <time>2015-06-10T09:01:14Z</time>
      </trkpt>
      <trkpt lat="48.20647" lon="-3.01624">
        <ele>133</ele>
        <time>2015-06-10T09:01:16Z</time>
      </trkpt>
      <trkpt lat="48.20646" lon="-3.01622">
        <ele>133</ele>
        <time>2015-06-10T09:01:20Z</time>
      </trkpt>
      <trkpt lat="48.20646" lon="-3.0162">
        <ele>133</ele>
        <time>2015-06-10T09:01:22Z</time>
      </trkpt>
      <trkpt lat="48.20646" lon="-3.01618">
        <ele>133</ele>
        <time>2015-06-10T09:01:24Z</time>
      </trkpt>
      <trkpt lat="48.20646" lon="-3.01616">
        <ele>133</ele>
        <time>2015-06-10T09:01:26Z</time>
      </trkpt>
      <trkpt lat="48.20647" lon="-3.01613">
        <ele>133</ele>
        <time>2015-06-10T09:01:28Z</time>
      </trkpt>
      <trkpt lat="48.20646" lon="-3.01611">
        <ele>133</ele>
        <time>2015-06-10T09:01:30Z</time>
      </trkpt>
      <trkpt lat="48.20644" lon="-3.0161">
        <ele>133</ele>
        <time>2015-06-10T09:01:32Z</time>
      </trkpt>
      <trkpt lat="48.20643" lon="-3.01607">
        <ele>133</ele>
        <time>2015-06-10T09:01:34Z</time>
      </trkpt>
      <trkpt lat="48.20642" lon="-3.01605">
        <ele>133</ele>
        <time>2015-06-10T09:01:36Z</time>
      </trkpt>
      <trkpt lat="48.20641" lon="-3.01603">
        <ele>133</ele>
        <time>2015-06-10T09:01:38Z</time>
      </trkpt>
      <trkpt lat="48.20639" lon="-3.01601">
        <ele>133</ele>
        <time>2015-06-10T09:01:40Z</time>
      </trkpt>
      <trkpt lat="48.20638" lon="-3.01601">
        <ele>133</ele>
        <time>2015-06-10T09:01:43Z</time>
      </trkpt>
      <trkpt lat="48.20636" lon="-3.01601">
        <ele>133</ele>
        <time>2015-06-10T09:01:46Z</time>
      </trkpt>
      <trkpt lat="48.20636" lon="-3.01598">
        <ele>133</ele>
        <time>2015-06-10T09:01:48Z</time>
      </trkpt>
      <trkpt lat="48.20635" lon="-3.01596">
        <ele>133</ele>
        <time>2015-06-10T09:01:51Z</time>
      </trkpt>
      <trkpt lat="48.20634" lon="-3.01595">
        <ele>133</ele>
        <time>2015-06-10T09:01:53Z</time>
      </trkpt>
      <trkpt lat="48.20632" lon="-3.01596">
        <ele>133</ele>
        <time>2015-06-10T09:01:56Z</time>
      </trkpt>
      <trkpt lat="48.20631" lon="-3.01594">
        <ele>133</ele>
        <time>2015-06-10T09:01:59Z</time>
      </trkpt>
      <trkpt lat="48.20631" lon="-3.01592">
        <ele>133</ele>
        <time>2015-06-10T09:02:01Z</time>
      </trkpt>
      <trkpt lat="48.2063" lon="-3.01588">
        <ele>134</ele>
        <time>2015-06-10T09:02:04Z</time>
      </trkpt>
      <trkpt lat="48.20629" lon="-3.01585">
        <ele>135</ele>
        <time>2015-06-10T09:02:06Z</time>
      </trkpt>
      <trkpt lat="48.20628" lon="-3.01584">
        <ele>135</ele>
        <time>2015-06-10T09:02:09Z</time>
      </trkpt>
      <trkpt lat="48.20628" lon="-3.01582">
        <ele>135</ele>
        <time>2015-06-10T09:02:11Z</time>
      </trkpt>
      <trkpt lat="48.20626" lon="-3.0158">
        <ele>135</ele>
        <time>2015-06-10T09:02:13Z</time>
      </trkpt>
      <trkpt lat="48.20626" lon="-3.01578">
        <ele>135</ele>
        <time>2015-06-10T09:02:15Z</time>
      </trkpt>
      <trkpt lat="48.20625" lon="-3.01576">
        <ele>135</ele>
        <time>2015-06-10T09:02:17Z</time>
      </trkpt>
      <trkpt lat="48.20625" lon="-3.01574">
        <ele>136</ele>
        <time>2015-06-10T09:02:19Z</time>
      </trkpt>
      <trkpt lat="48.20625" lon="-3.01571">
        <ele>136</ele>
        <time>2015-06-10T09:02:21Z</time>
      </trkpt>
      <trkpt lat="48.20624" lon="-3.0157">
        <ele>137</ele>
        <time>2015-06-10T09:02:23Z</time>
      </trkpt>
      <trkpt lat="48.20623" lon="-3.01568">
        <ele>137</ele>
        <time>2015-06-10T09:02:25Z</time>
      </trkpt>
      <trkpt lat="48.20621" lon="-3.01569">
        <ele>137</ele>
        <time>2015-06-10T09:02:28Z</time>
      </trkpt>
      <trkpt lat="48.2062" lon="-3.0157">
        <ele>137</ele>
        <time>2015-06-10T09:02:30Z</time>
      </trkpt>
      <trkpt lat="48.20618" lon="-3.0157">
        <ele>137</ele>
        <time>2015-06-10T09:02:32Z</time>
      </trkpt>
      <trkpt lat="48.20616" lon="-3.01569">
        <ele>137</ele>
        <time>2015-06-10T09:02:34Z</time>
      </trkpt>
      <trkpt lat="48.20613" lon="-3.01566">
        <ele>137</ele>
        <time>2015-06-10T09:02:37Z</time>
      </trkpt>
      <trkpt lat="48.20612" lon="-3.01565">
        <ele>137</ele>
        <time>2015-06-10T09:02:39Z</time>
      </trkpt>
      <trkpt lat="48.20612" lon="-3.01563">
        <ele>137</ele>
        <time>2015-06-10T09:02:41Z</time>
      </trkpt>
      <trkpt lat="48.20612" lon="-3.0156">
        <ele>137</ele>
        <time>2015-06-10T09:02:43Z</time>
      </trkpt>
      <trkpt lat="48.20612" lon="-3.01558">
        <ele>137</ele>
        <time>2015-06-10T09:02:45Z</time>
      </trkpt>
      <trkpt lat="48.20612" lon="-3.01556">
        <ele>137</ele>
        <time>2015-06-10T09:02:47Z</time>
      </trkpt>
      <trkpt lat="48.2061" lon="-3.01555">
        <ele>137</ele>
        <time>2015-06-10T09:02:49Z</time>
      </trkpt>
      <trkpt lat="48.20609" lon="-3.01554">
        <ele>137</ele>
        <time>2015-06-10T09:02:51Z</time>
      </trkpt>
      <trkpt lat="48.20609" lon="-3.01552">
        <ele>137</ele>
        <time>2015-06-10T09:02:53Z</time>
      </trkpt>
      <trkpt lat="48.20607" lon="-3.01551">
        <ele>137</ele>
        <time>2015-06-10T09:02:55Z</time>
      </trkpt>
      <trkpt lat="48.20606" lon="-3.0155">
        <ele>137</ele>
        <time>2015-06-10T09:02:58Z</time>
      </trkpt>
      <trkpt lat="48.20604" lon="-3.01548">
        <ele>137</ele>
        <time>2015-06-10T09:03:00Z</time>
      </trkpt>
      <trkpt lat="48.20602" lon="-3.01546">
        <ele>137</ele>
        <time>2015-06-10T09:03:03Z</time>
      </trkpt>
      <trkpt lat="48.206" lon="-3.01545">
        <ele>137</ele>
        <time>2015-06-10T09:03:05Z</time>
      </trkpt>
      <trkpt lat="48.206" lon="-3.01542">
        <ele>137</ele>
        <time>2015-06-10T09:03:07Z</time>
      </trkpt>
      <trkpt lat="48.20599" lon="-3.0154">
        <ele>137</ele>
        <time>2015-06-10T09:03:09Z</time>
      </trkpt>
      <trkpt lat="48.20599" lon="-3.01538">
        <ele>137</ele>
        <time>2015-06-10T09:03:11Z</time>
      </trkpt>
      <trkpt lat="48.20599" lon="-3.01536">
        <ele>137</ele>
        <time>2015-06-10T09:03:13Z</time>
      </trkpt>
      <trkpt lat="48.20597" lon="-3.01535">
        <ele>137</ele>
        <time>2015-06-10T09:03:15Z</time>
      </trkpt>
      <trkpt lat="48.20598" lon="-3.01533">
        <ele>137</ele>
        <time>2015-06-10T09:03:17Z</time>
      </trkpt>
      <trkpt lat="48.20597" lon="-3.01531">
        <ele>137</ele>
        <time>2015-06-10T09:03:20Z</time>
      </trkpt>
      <trkpt lat="48.20596" lon="-3.01529">
        <ele>137</ele>
        <time>2015-06-10T09:03:22Z</time>
      </trkpt>
      <trkpt lat="48.20596" lon="-3.01527">
        <ele>137</ele>
        <time>2015-06-10T09:03:25Z</time>
      </trkpt>
      <trkpt lat="48.20595" lon="-3.01526">
        <ele>137</ele>
        <time>2015-06-10T09:03:27Z</time>
      </trkpt>
      <trkpt lat="48.20592" lon="-3.01526">
        <ele>137</ele>
        <time>2015-06-10T09:03:29Z</time>
      </trkpt>
      <trkpt lat="48.2059" lon="-3.01525">
        <ele>137</ele>
        <time>2015-06-10T09:03:31Z</time>
      </trkpt>
      <trkpt lat="48.20588" lon="-3.01525">
        <ele>137</ele>
        <time>2015-06-10T09:03:33Z</time>
      </trkpt>
      <trkpt lat="48.20586" lon="-3.01525">
        <ele>137</ele>
        <time>2015-06-10T09:03:35Z</time>
      </trkpt>
      <trkpt lat="48.20583" lon="-3.01526">
        <ele>137</ele>
        <time>2015-06-10T09:03:37Z</time>
      </trkpt>
      <trkpt lat="48.2058" lon="-3.01526">
        <ele>137</ele>
        <time>2015-06-10T09:03:40Z</time>
      </trkpt>
      <trkpt lat="48.20579" lon="-3.01528">
        <ele>137</ele>
        <time>2015-06-10T09:03:42Z</time>
      </trkpt>
      <trkpt lat="48.20578" lon="-3.01528">
        <ele>137</ele>
        <time>2015-06-10T09:03:44Z</time>
      </trkpt>
      <trkpt lat="48.20576" lon="-3.01527">
        <ele>137</ele>
        <time>2015-06-10T09:03:46Z</time>
      </trkpt>
      <trkpt lat="48.20575" lon="-3.01525">
        <ele>137</ele>
        <time>2015-06-10T09:03:48Z</time>
      </trkpt>
      <trkpt lat="48.20573" lon="-3.01525">
        <ele>137</ele>
        <time>2015-06-10T09:03:50Z</time>
      </trkpt>
      <trkpt lat="48.20572" lon="-3.01525">
        <ele>136</ele>
        <time>2015-06-10T09:03:52Z</time>
      </trkpt>
      <trkpt lat="48.2057" lon="-3.01525">
        <ele>135</ele>
        <time>2015-06-10T09:03:54Z</time>
      </trkpt>
      <trkpt lat="48.20569" lon="-3.01524">
        <ele>132</ele>
        <time>2015-06-10T09:03:57Z</time>
      </trkpt>
      <trkpt lat="48.20567" lon="-3.01523">
        <ele>131</ele>
        <time>2015-06-10T09:04:01Z</time>
      </trkpt>
      <trkpt lat="48.20566" lon="-3.01521">
        <ele>131</ele>
        <time>2015-06-10T09:04:03Z</time>
      </trkpt>
      <trkpt lat="48.20564" lon="-3.0152">
        <ele>131</ele>
        <time>2015-06-10T09:04:05Z</time>
      </trkpt>
      <trkpt lat="48.20561" lon="-3.01518">
        <ele>131</ele>
        <time>2015-06-10T09:04:08Z</time>
      </trkpt>
      <trkpt lat="48.20559" lon="-3.01516">
        <ele>131</ele>
        <time>2015-06-10T09:04:10Z</time>
      </trkpt>
      <trkpt lat="48.20557" lon="-3.01514">
        <ele>131</ele>
        <time>2015-06-10T09:04:12Z</time>
      </trkpt>
      <trkpt lat="48.20555" lon="-3.01512">
        <ele>131</ele>
        <time>2015-06-10T09:04:14Z</time>
      </trkpt>
      <trkpt lat="48.20554" lon="-3.01511">
        <ele>131</ele>
        <time>2015-06-10T09:04:17Z</time>
      </trkpt>
      <trkpt lat="48.20552" lon="-3.01509">
        <ele>131</ele>
        <time>2015-06-10T09:04:19Z</time>
      </trkpt>
      <trkpt lat="48.2055" lon="-3.01509">
        <ele>133</ele>
        <time>2015-06-10T09:04:21Z</time>
      </trkpt>
      <trkpt lat="48.20549" lon="-3.0151">
        <ele>134</ele>
        <time>2015-06-10T09:04:24Z</time>
      </trkpt>
      <trkpt lat="48.20546" lon="-3.01511">
        <ele>134</ele>
        <time>2015-06-10T09:04:26Z</time>
      </trkpt>
      <trkpt lat="48.20544" lon="-3.0151">
        <ele>134</ele>
        <time>2015-06-10T09:04:28Z</time>
      </trkpt>
      <trkpt lat="48.20542" lon="-3.01511">
        <ele>134</ele>
        <time>2015-06-10T09:04:30Z</time>
      </trkpt>
      <trkpt lat="48.2054" lon="-3.0151">
        <ele>134</ele>
        <time>2015-06-10T09:04:33Z</time>
      </trkpt>
      <trkpt lat="48.20538" lon="-3.0151">
        <ele>134</ele>
        <time>2015-06-10T09:04:35Z</time>
      </trkpt>
      <trkpt lat="48.20537" lon="-3.01512">
        <ele>134</ele>
        <time>2015-06-10T09:04:37Z</time>
      </trkpt>
      <trkpt lat="48.20535" lon="-3.01512">
        <ele>134</ele>
        <time>2015-06-10T09:04:39Z</time>
      </trkpt>
      <trkpt lat="48.20533" lon="-3.01513">
        <ele>134</ele>
        <time>2015-06-10T09:04:41Z</time>
      </trkpt>
      <trkpt lat="48.20531" lon="-3.01513">
        <ele>134</ele>
        <time>2015-06-10T09:04:43Z</time>
      </trkpt>
      <trkpt lat="48.2053" lon="-3.01512">
        <ele>134</ele>
        <time>2015-06-10T09:04:45Z</time>
      </trkpt>
      <trkpt lat="48.20528" lon="-3.01512">
        <ele>134</ele>
        <time>2015-06-10T09:04:47Z</time>
      </trkpt>
      <trkpt lat="48.20524" lon="-3.0151">
        <ele>134</ele>
        <time>2015-06-10T09:04:50Z</time>
      </trkpt>
      <trkpt lat="48.20522" lon="-3.01512">
        <ele>134</ele>
        <time>2015-06-10T09:04:52Z</time>
      </trkpt>
      <trkpt lat="48.20521" lon="-3.01512">
        <ele>134</ele>
        <time>2015-06-10T09:04:54Z</time>
      </trkpt>
      <trkpt lat="48.20521" lon="-3.01514">
        <ele>134</ele>
        <time>2015-06-10T09:04:58Z</time>
      </trkpt>
      <trkpt lat="48.20519" lon="-3.01514">
        <ele>134</ele>
        <time>2015-06-10T09:05:01Z</time>
      </trkpt>
      <trkpt lat="48.20518" lon="-3.01515">
        <ele>134</ele>
        <time>2015-06-10T09:05:07Z</time>
      </trkpt>
      <trkpt lat="48.20517" lon="-3.01517">
        <ele>134</ele>
        <time>2015-06-10T09:05:11Z</time>
      </trkpt>
      <trkpt lat="48.20516" lon="-3.01519">
        <ele>134</ele>
        <time>2015-06-10T09:05:17Z</time>
      </trkpt>
      <trkpt lat="48.20516" lon="-3.01521">
        <ele>134</ele>
        <time>2015-06-10T09:05:20Z</time>
      </trkpt>
      <trkpt lat="48.20515" lon="-3.01523">
        <ele>133</ele>
        <time>2015-06-10T09:05:23Z</time>
      </trkpt>
      <trkpt lat="48.20515" lon="-3.01526">
        <ele>133</ele>
        <time>2015-06-10T09:05:25Z</time>
      </trkpt>
      <trkpt lat="48.20515" lon="-3.01528">
        <ele>133</ele>
        <time>2015-06-10T09:05:27Z</time>
      </trkpt>
      <trkpt lat="48.20514" lon="-3.01528">
        <ele>133</ele>
        <time>2015-06-10T09:05:33Z</time>
      </trkpt>
      <trkpt lat="48.20513" lon="-3.01529">
        <ele>133</ele>
        <time>2015-06-10T09:05:35Z</time>
      </trkpt>
      <trkpt lat="48.20511" lon="-3.0153">
        <ele>133</ele>
        <time>2015-06-10T09:05:37Z</time>
      </trkpt>
      <trkpt lat="48.20509" lon="-3.01532">
        <ele>133</ele>
        <time>2015-06-10T09:05:39Z</time>
      </trkpt>
      <trkpt lat="48.20506" lon="-3.01531">
        <ele>133</ele>
        <time>2015-06-10T09:05:42Z</time>
      </trkpt>
      <trkpt lat="48.20504" lon="-3.01531">
        <ele>133</ele>
        <time>2015-06-10T09:05:45Z</time>
      </trkpt>
      <trkpt lat="48.20502" lon="-3.01531">
        <ele>133</ele>
        <time>2015-06-10T09:05:47Z</time>
      </trkpt>
      <trkpt lat="48.205" lon="-3.01531">
        <ele>133</ele>
        <time>2015-06-10T09:05:49Z</time>
      </trkpt>
      <trkpt lat="48.20499" lon="-3.01533">
        <ele>133</ele>
        <time>2015-06-10T09:05:51Z</time>
      </trkpt>
      <trkpt lat="48.20498" lon="-3.01534">
        <ele>133</ele>
        <time>2015-06-10T09:05:53Z</time>
      </trkpt>
      <trkpt lat="48.20496" lon="-3.01535">
        <ele>135</ele>
        <time>2015-06-10T09:05:56Z</time>
      </trkpt>
      <trkpt lat="48.20494" lon="-3.01535">
        <ele>136</ele>
        <time>2015-06-10T09:05:58Z</time>
      </trkpt>
      <trkpt lat="48.20491" lon="-3.01536">
        <ele>137</ele>
        <time>2015-06-10T09:06:00Z</time>
      </trkpt>
      <trkpt lat="48.2049" lon="-3.01537">
        <ele>137</ele>
        <time>2015-06-10T09:06:02Z</time>
      </trkpt>
      <trkpt lat="48.20488" lon="-3.01538">
        <ele>137</ele>
        <time>2015-06-10T09:06:07Z</time>
      </trkpt>
      <trkpt lat="48.20486" lon="-3.01539">
        <ele>137</ele>
        <time>2015-06-10T09:06:12Z</time>
      </trkpt>
      <trkpt lat="48.20485" lon="-3.0154">
        <ele>137</ele>
        <time>2015-06-10T09:06:14Z</time>
      </trkpt>
      <trkpt lat="48.20483" lon="-3.01541">
        <ele>137</ele>
        <time>2015-06-10T09:06:17Z</time>
      </trkpt>
      <trkpt lat="48.20481" lon="-3.01543">
        <ele>137</ele>
        <time>2015-06-10T09:06:20Z</time>
      </trkpt>
      <trkpt lat="48.2048" lon="-3.01543">
        <ele>137</ele>
        <time>2015-06-10T09:06:22Z</time>
      </trkpt>
      <trkpt lat="48.20477" lon="-3.01543">
        <ele>137</ele>
        <time>2015-06-10T09:06:24Z</time>
      </trkpt>
      <trkpt lat="48.20475" lon="-3.01545">
        <ele>138</ele>
        <time>2015-06-10T09:06:26Z</time>
      </trkpt>
      <trkpt lat="48.20471" lon="-3.01547">
        <ele>138</ele>
        <time>2015-06-10T09:06:29Z</time>
      </trkpt>
      <trkpt lat="48.2047" lon="-3.01547">
        <ele>138</ele>
        <time>2015-06-10T09:06:31Z</time>
      </trkpt>
      <trkpt lat="48.20469" lon="-3.01548">
        <ele>138</ele>
        <time>2015-06-10T09:06:33Z</time>
      </trkpt>
      <trkpt lat="48.20466" lon="-3.01547">
        <ele>138</ele>
        <time>2015-06-10T09:06:35Z</time>
      </trkpt>
      <trkpt lat="48.20465" lon="-3.01546">
        <ele>138</ele>
        <time>2015-06-10T09:06:38Z</time>
      </trkpt>
      <trkpt lat="48.20463" lon="-3.01546">
        <ele>138</ele>
        <time>2015-06-10T09:06:41Z</time>
      </trkpt>
      <trkpt lat="48.20462" lon="-3.01546">
        <ele>138</ele>
        <time>2015-06-10T09:06:43Z</time>
      </trkpt>
      <trkpt lat="48.20461" lon="-3.01545">
        <ele>138</ele>
        <time>2015-06-10T09:06:46Z</time>
      </trkpt>
      <trkpt lat="48.20459" lon="-3.01546">
        <ele>137</ele>
        <time>2015-06-10T09:06:49Z</time>
      </trkpt>
      <trkpt lat="48.20458" lon="-3.01545">
        <ele>137</ele>
        <time>2015-06-10T09:06:51Z</time>
      </trkpt>
      <trkpt lat="48.20456" lon="-3.01545">
        <ele>137</ele>
        <time>2015-06-10T09:06:53Z</time>
      </trkpt>
      <trkpt lat="48.20455" lon="-3.01544">
        <ele>137</ele>
        <time>2015-06-10T09:06:57Z</time>
      </trkpt>
      <trkpt lat="48.20451" lon="-3.01545">
        <ele>137</ele>
        <time>2015-06-10T09:06:59Z</time>
      </trkpt>
      <trkpt lat="48.20449" lon="-3.01546">
        <ele>137</ele>
        <time>2015-06-10T09:07:01Z</time>
      </trkpt>
      <trkpt lat="48.20446" lon="-3.01549">
        <ele>137</ele>
        <time>2015-06-10T09:07:03Z</time>
      </trkpt>
      <trkpt lat="48.20443" lon="-3.01552">
        <ele>134</ele>
        <time>2015-06-10T09:07:06Z</time>
      </trkpt>
      <trkpt lat="48.20441" lon="-3.01554">
        <ele>134</ele>
        <time>2015-06-10T09:07:09Z</time>
      </trkpt>
      <trkpt lat="48.2044" lon="-3.01555">
        <ele>134</ele>
        <time>2015-06-10T09:07:11Z</time>
      </trkpt>
      <trkpt lat="48.20438" lon="-3.01555">
        <ele>134</ele>
        <time>2015-06-10T09:07:13Z</time>
      </trkpt>
      <trkpt lat="48.20436" lon="-3.01555">
        <ele>134</ele>
        <time>2015-06-10T09:07:15Z</time>
      </trkpt>
      <trkpt lat="48.20433" lon="-3.01558">
        <ele>134</ele>
        <time>2015-06-10T09:07:18Z</time>
      </trkpt>
      <trkpt lat="48.20431" lon="-3.01557">
        <ele>133</ele>
        <time>2015-06-10T09:07:20Z</time>
      </trkpt>
      <trkpt lat="48.20428" lon="-3.01558">
        <ele>133</ele>
        <time>2015-06-10T09:07:22Z</time>
      </trkpt>
      <trkpt lat="48.20426" lon="-3.01559">
        <ele>133</ele>
        <time>2015-06-10T09:07:24Z</time>
      </trkpt>
      <trkpt lat="48.20424" lon="-3.0156">
        <ele>133</ele>
        <time>2015-06-10T09:07:26Z</time>
      </trkpt>
      <trkpt lat="48.20423" lon="-3.0156">
        <ele>132</ele>
        <time>2015-06-10T09:07:28Z</time>
      </trkpt>
      <trkpt lat="48.20421" lon="-3.0156">
        <ele>132</ele>
        <time>2015-06-10T09:07:30Z</time>
      </trkpt>
      <trkpt lat="48.20419" lon="-3.01559">
        <ele>132</ele>
        <time>2015-06-10T09:07:32Z</time>
      </trkpt>
      <trkpt lat="48.20418" lon="-3.0156">
        <ele>132</ele>
        <time>2015-06-10T09:07:34Z</time>
      </trkpt>
      <trkpt lat="48.20416" lon="-3.01561">
        <ele>132</ele>
        <time>2015-06-10T09:07:36Z</time>
      </trkpt>
      <trkpt lat="48.20415" lon="-3.0156">
        <ele>132</ele>
        <time>2015-06-10T09:07:39Z</time>
      </trkpt>
      <trkpt lat="48.20413" lon="-3.01561">
        <ele>132</ele>
        <time>2015-06-10T09:07:41Z</time>
      </trkpt>
      <trkpt lat="48.20411" lon="-3.01562">
        <ele>132</ele>
        <time>2015-06-10T09:07:43Z</time>
      </trkpt>
      <trkpt lat="48.20408" lon="-3.01565">
        <ele>132</ele>
        <time>2015-06-10T09:07:46Z</time>
      </trkpt>
      <trkpt lat="48.20407" lon="-3.01565">
        <ele>132</ele>
        <time>2015-06-10T09:07:48Z</time>
      </trkpt>
      <trkpt lat="48.20406" lon="-3.01566">
        <ele>133</ele>
        <time>2015-06-10T09:07:50Z</time>
      </trkpt>
      <trkpt lat="48.20404" lon="-3.01568">
        <ele>134</ele>
        <time>2015-06-10T09:07:54Z</time>
      </trkpt>
      <trkpt lat="48.20403" lon="-3.01569">
        <ele>134</ele>
        <time>2015-06-10T09:07:57Z</time>
      </trkpt>
      <trkpt lat="48.20401" lon="-3.0157">
        <ele>135</ele>
        <time>2015-06-10T09:07:59Z</time>
      </trkpt>
      <trkpt lat="48.204" lon="-3.0157">
        <ele>135</ele>
        <time>2015-06-10T09:08:02Z</time>
      </trkpt>
      <trkpt lat="48.20398" lon="-3.0157">
        <ele>135</ele>
        <time>2015-06-10T09:08:04Z</time>
      </trkpt>
      <trkpt lat="48.20397" lon="-3.01571">
        <ele>136</ele>
        <time>2015-06-10T09:08:07Z</time>
      </trkpt>
      <trkpt lat="48.20396" lon="-3.01573">
        <ele>137</ele>
        <time>2015-06-10T09:08:10Z</time>
      </trkpt>
      <trkpt lat="48.20395" lon="-3.01575">
        <ele>137</ele>
        <time>2015-06-10T09:08:13Z</time>
      </trkpt>
      <trkpt lat="48.20393" lon="-3.01576">
        <ele>137</ele>
        <time>2015-06-10T09:08:16Z</time>
      </trkpt>
      <trkpt lat="48.20392" lon="-3.01578">
        <ele>139</ele>
        <time>2015-06-10T09:08:21Z</time>
      </trkpt>
      <trkpt lat="48.20391" lon="-3.01579">
        <ele>140</ele>
        <time>2015-06-10T09:08:23Z</time>
      </trkpt>
      <trkpt lat="48.2039" lon="-3.01581">
        <ele>141</ele>
        <time>2015-06-10T09:08:25Z</time>
      </trkpt>
      <trkpt lat="48.20388" lon="-3.01583">
        <ele>142</ele>
        <time>2015-06-10T09:08:29Z</time>
      </trkpt>
      <trkpt lat="48.20387" lon="-3.01585">
        <ele>142</ele>
        <time>2015-06-10T09:08:31Z</time>
      </trkpt>
      <trkpt lat="48.20385" lon="-3.01585">
        <ele>143</ele>
        <time>2015-06-10T09:08:33Z</time>
      </trkpt>
      <trkpt lat="48.20383" lon="-3.01588">
        <ele>143</ele>
        <time>2015-06-10T09:08:36Z</time>
      </trkpt>
      <trkpt lat="48.20382" lon="-3.01591">
        <ele>143</ele>
        <time>2015-06-10T09:08:38Z</time>
      </trkpt>
      <trkpt lat="48.2038" lon="-3.01593">
        <ele>144</ele>
        <time>2015-06-10T09:08:40Z</time>
      </trkpt>
      <trkpt lat="48.20379" lon="-3.01594">
        <ele>144</ele>
        <time>2015-06-10T09:08:42Z</time>
      </trkpt>
      <trkpt lat="48.20378" lon="-3.01597">
        <ele>144</ele>
        <time>2015-06-10T09:08:45Z</time>
      </trkpt>
      <trkpt lat="48.20377" lon="-3.01598">
        <ele>144</ele>
        <time>2015-06-10T09:08:47Z</time>
      </trkpt>
      <trkpt lat="48.20377" lon="-3.01601">
        <ele>144</ele>
        <time>2015-06-10T09:08:49Z</time>
      </trkpt>
      <trkpt lat="48.20376" lon="-3.01604">
        <ele>144</ele>
        <time>2015-06-10T09:08:51Z</time>
      </trkpt>
      <trkpt lat="48.20375" lon="-3.01606">
        <ele>144</ele>
        <time>2015-06-10T09:08:53Z</time>
      </trkpt>
      <trkpt lat="48.20375" lon="-3.01608">
        <ele>144</ele>
        <time>2015-06-10T09:08:55Z</time>
      </trkpt>
      <trkpt lat="48.20374" lon="-3.0161">
        <ele>144</ele>
        <time>2015-06-10T09:08:57Z</time>
      </trkpt>
      <trkpt lat="48.20373" lon="-3.01612">
        <ele>144</ele>
        <time>2015-06-10T09:09:00Z</time>
      </trkpt>
      <trkpt lat="48.20372" lon="-3.01614">
        <ele>144</ele>
        <time>2015-06-10T09:09:02Z</time>
      </trkpt>
      <trkpt lat="48.2037" lon="-3.01617">
        <ele>144</ele>
        <time>2015-06-10T09:09:04Z</time>
      </trkpt>
      <trkpt lat="48.2037" lon="-3.0162">
        <ele>144</ele>
        <time>2015-06-10T09:09:06Z</time>
      </trkpt>
      <trkpt lat="48.20369" lon="-3.01623">
        <ele>144</ele>
        <time>2015-06-10T09:09:08Z</time>
      </trkpt>
      <trkpt lat="48.20369" lon="-3.01625">
        <ele>144</ele>
        <time>2015-06-10T09:09:10Z</time>
      </trkpt>
      <trkpt lat="48.20368" lon="-3.01627">
        <ele>144</ele>
        <time>2015-06-10T09:09:12Z</time>
      </trkpt>
      <trkpt lat="48.20368" lon="-3.01629">
        <ele>144</ele>
        <time>2015-06-10T09:09:14Z</time>
      </trkpt>
      <trkpt lat="48.20368" lon="-3.01631">
        <ele>144</ele>
        <time>2015-06-10T09:09:16Z</time>
      </trkpt>
      <trkpt lat="48.20368" lon="-3.01633">
        <ele>144</ele>
        <time>2015-06-10T09:09:18Z</time>
      </trkpt>
      <trkpt lat="48.20368" lon="-3.01635">
        <ele>144</ele>
        <time>2015-06-10T09:09:20Z</time>
      </trkpt>
      <trkpt lat="48.20367" lon="-3.01637">
        <ele>144</ele>
        <time>2015-06-10T09:09:23Z</time>
      </trkpt>
      <trkpt lat="48.20367" lon="-3.01639">
        <ele>144</ele>
        <time>2015-06-10T09:09:49Z</time>
      </trkpt>
      <trkpt lat="48.20366" lon="-3.01641">
        <ele>145</ele>
        <time>2015-06-10T09:09:51Z</time>
      </trkpt>
      <trkpt lat="48.20365" lon="-3.01643">
        <ele>146</ele>
        <time>2015-06-10T09:09:59Z</time>
      </trkpt>
      <trkpt lat="48.20364" lon="-3.01646">
        <ele>146</ele>
        <time>2015-06-10T09:10:01Z</time>
      </trkpt>
      <trkpt lat="48.20364" lon="-3.01648">
        <ele>146</ele>
        <time>2015-06-10T09:10:03Z</time>
      </trkpt>
      <trkpt lat="48.20363" lon="-3.01651">
        <ele>146</ele>
        <time>2015-06-10T09:10:05Z</time>
      </trkpt>
      <trkpt lat="48.20362" lon="-3.01654">
        <ele>147</ele>
        <time>2015-06-10T09:10:07Z</time>
      </trkpt>
      <trkpt lat="48.20361" lon="-3.01656">
        <ele>147</ele>
        <time>2015-06-10T09:10:10Z</time>
      </trkpt>
      <trkpt lat="48.2036" lon="-3.01658">
        <ele>147</ele>
        <time>2015-06-10T09:10:12Z</time>
      </trkpt>
      <trkpt lat="48.20359" lon="-3.0166">
        <ele>147</ele>
        <time>2015-06-10T09:10:14Z</time>
      </trkpt>
      <trkpt lat="48.20359" lon="-3.01662">
        <ele>147</ele>
        <time>2015-06-10T09:10:16Z</time>
      </trkpt>
      <trkpt lat="48.20358" lon="-3.01664">
        <ele>147</ele>
        <time>2015-06-10T09:10:18Z</time>
      </trkpt>
      <trkpt lat="48.20358" lon="-3.01665">
        <ele>147</ele>
        <time>2015-06-10T09:10:30Z</time>
      </trkpt>
      <trkpt lat="48.20359" lon="-3.01667">
        <ele>147</ele>
        <time>2015-06-10T09:10:38Z</time>
      </trkpt>
      <trkpt lat="48.20358" lon="-3.01668">
        <ele>147</ele>
        <time>2015-06-10T09:10:42Z</time>
      </trkpt>
      <trkpt lat="48.20356" lon="-3.0167">
        <ele>147</ele>
        <time>2015-06-10T09:10:46Z</time>
      </trkpt>
      <trkpt lat="48.20355" lon="-3.01671">
        <ele>147</ele>
        <time>2015-06-10T09:10:48Z</time>
      </trkpt>
      <trkpt lat="48.20353" lon="-3.01672">
        <ele>147</ele>
        <time>2015-06-10T09:10:50Z</time>
      </trkpt>
      <trkpt lat="48.20352" lon="-3.01674">
        <ele>147</ele>
        <time>2015-06-10T09:10:52Z</time>
      </trkpt>
      <trkpt lat="48.20351" lon="-3.01676">
        <ele>147</ele>
        <time>2015-06-10T09:10:54Z</time>
      </trkpt>
      <trkpt lat="48.2035" lon="-3.01677">
        <ele>146</ele>
        <time>2015-06-10T09:10:56Z</time>
      </trkpt>
      <trkpt lat="48.20348" lon="-3.01678">
        <ele>145</ele>
        <time>2015-06-10T09:10:59Z</time>
      </trkpt>
      <trkpt lat="48.20347" lon="-3.01681">
        <ele>145</ele>
        <time>2015-06-10T09:11:02Z</time>
      </trkpt>
      <trkpt lat="48.20347" lon="-3.01684">
        <ele>144</ele>
        <time>2015-06-10T09:11:04Z</time>
      </trkpt>
      <trkpt lat="48.20345" lon="-3.01688">
        <ele>144</ele>
        <time>2015-06-10T09:11:07Z</time>
      </trkpt>
      <trkpt lat="48.20343" lon="-3.01691">
        <ele>144</ele>
        <time>2015-06-10T09:11:09Z</time>
      </trkpt>
      <trkpt lat="48.20342" lon="-3.01693">
        <ele>144</ele>
        <time>2015-06-10T09:11:11Z</time>
      </trkpt>
      <trkpt lat="48.20339" lon="-3.01693">
        <ele>143</ele>
        <time>2015-06-10T09:11:14Z</time>
      </trkpt>
      <trkpt lat="48.20338" lon="-3.01693">
        <ele>143</ele>
        <time>2015-06-10T09:11:16Z</time>
      </trkpt>
      <trkpt lat="48.20337" lon="-3.01692">
        <ele>142</ele>
        <time>2015-06-10T09:11:18Z</time>
      </trkpt>
      <trkpt lat="48.20335" lon="-3.01691">
        <ele>140</ele>
        <time>2015-06-10T09:11:22Z</time>
      </trkpt>
      <trkpt lat="48.20334" lon="-3.01692">
        <ele>140</ele>
        <time>2015-06-10T09:11:24Z</time>
      </trkpt>
      <trkpt lat="48.20333" lon="-3.01693">
        <ele>139</ele>
        <time>2015-06-10T09:11:26Z</time>
      </trkpt>
      <trkpt lat="48.20332" lon="-3.01695">
        <ele>139</ele>
        <time>2015-06-10T09:11:29Z</time>
      </trkpt>
      <trkpt lat="48.2033" lon="-3.01698">
        <ele>138</ele>
        <time>2015-06-10T09:11:31Z</time>
      </trkpt>
      <trkpt lat="48.2033" lon="-3.017">
        <ele>138</ele>
        <time>2015-06-10T09:11:33Z</time>
      </trkpt>
      <trkpt lat="48.20328" lon="-3.017">
        <ele>137</ele>
        <time>2015-06-10T09:11:35Z</time>
      </trkpt>
      <trkpt lat="48.20326" lon="-3.01701">
        <ele>137</ele>
        <time>2015-06-10T09:11:37Z</time>
      </trkpt>
      <trkpt lat="48.20325" lon="-3.01701">
        <ele>137</ele>
        <time>2015-06-10T09:11:39Z</time>
      </trkpt>
      <trkpt lat="48.20324" lon="-3.01704">
        <ele>136</ele>
        <time>2015-06-10T09:11:41Z</time>
      </trkpt>
      <trkpt lat="48.20323" lon="-3.01707">
        <ele>136</ele>
        <time>2015-06-10T09:11:43Z</time>
      </trkpt>
      <trkpt lat="48.20323" lon="-3.01709">
        <ele>136</ele>
        <time>2015-06-10T09:11:45Z</time>
      </trkpt>
      <trkpt lat="48.20322" lon="-3.01711">
        <ele>136</ele>
        <time>2015-06-10T09:11:47Z</time>
      </trkpt>
      <trkpt lat="48.20322" lon="-3.01713">
        <ele>135</ele>
        <time>2015-06-10T09:11:49Z</time>
      </trkpt>
      <trkpt lat="48.20321" lon="-3.01716">
        <ele>135</ele>
        <time>2015-06-10T09:11:51Z</time>
      </trkpt>
      <trkpt lat="48.2032" lon="-3.01719">
        <ele>134</ele>
        <time>2015-06-10T09:11:53Z</time>
      </trkpt>
      <trkpt lat="48.20319" lon="-3.01721">
        <ele>134</ele>
        <time>2015-06-10T09:11:55Z</time>
      </trkpt>
      <trkpt lat="48.20319" lon="-3.01724">
        <ele>134</ele>
        <time>2015-06-10T09:11:57Z</time>
      </trkpt>
      <trkpt lat="48.20317" lon="-3.01728">
        <ele>134</ele>
        <time>2015-06-10T09:11:59Z</time>
      </trkpt>
      <trkpt lat="48.20317" lon="-3.01732">
        <ele>134</ele>
        <time>2015-06-10T09:12:01Z</time>
      </trkpt>
      <trkpt lat="48.20316" lon="-3.01736">
        <ele>134</ele>
        <time>2015-06-10T09:12:03Z</time>
      </trkpt>
      <trkpt lat="48.20315" lon="-3.01741">
        <ele>134</ele>
        <time>2015-06-10T09:12:05Z</time>
      </trkpt>
      <trkpt lat="48.20314" lon="-3.01745">
        <ele>134</ele>
        <time>2015-06-10T09:12:08Z</time>
      </trkpt>
      <trkpt lat="48.20313" lon="-3.01748">
        <ele>134</ele>
        <time>2015-06-10T09:12:10Z</time>
      </trkpt>
      <trkpt lat="48.20312" lon="-3.01751">
        <ele>134</ele>
        <time>2015-06-10T09:12:12Z</time>
      </trkpt>
      <trkpt lat="48.20312" lon="-3.01755">
        <ele>133</ele>
        <time>2015-06-10T09:12:14Z</time>
      </trkpt>
      <trkpt lat="48.20312" lon="-3.01759">
        <ele>132</ele>
        <time>2015-06-10T09:12:16Z</time>
      </trkpt>
      <trkpt lat="48.20311" lon="-3.01764">
        <ele>131</ele>
        <time>2015-06-10T09:12:18Z</time>
      </trkpt>
      <trkpt lat="48.20311" lon="-3.01766">
        <ele>131</ele>
        <time>2015-06-10T09:12:20Z</time>
      </trkpt>
      <trkpt lat="48.2031" lon="-3.0177">
        <ele>131</ele>
        <time>2015-06-10T09:12:22Z</time>
      </trkpt>
      <trkpt lat="48.20309" lon="-3.01773">
        <ele>131</ele>
        <time>2015-06-10T09:12:24Z</time>
      </trkpt>
      <trkpt lat="48.20308" lon="-3.01777">
        <ele>131</ele>
        <time>2015-06-10T09:12:26Z</time>
      </trkpt>
      <trkpt lat="48.20308" lon="-3.01782">
        <ele>131</ele>
        <time>2015-06-10T09:12:28Z</time>
      </trkpt>
      <trkpt lat="48.20308" lon="-3.01785">
        <ele>131</ele>
        <time>2015-06-10T09:12:30Z</time>
      </trkpt>
      <trkpt lat="48.20308" lon="-3.01789">
        <ele>130</ele>
        <time>2015-06-10T09:12:32Z</time>
      </trkpt>
      <trkpt lat="48.20309" lon="-3.01794">
        <ele>130</ele>
        <time>2015-06-10T09:12:34Z</time>
      </trkpt>
      <trkpt lat="48.20309" lon="-3.018">
        <ele>130</ele>
        <time>2015-06-10T09:12:37Z</time>
      </trkpt>
      <trkpt lat="48.20309" lon="-3.01803">
        <ele>130</ele>
        <time>2015-06-10T09:12:39Z</time>
      </trkpt>
      <trkpt lat="48.20309" lon="-3.01806">
        <ele>130</ele>
        <time>2015-06-10T09:12:41Z</time>
      </trkpt>
      <trkpt lat="48.2031" lon="-3.0181">
        <ele>130</ele>
        <time>2015-06-10T09:12:43Z</time>
      </trkpt>
      <trkpt lat="48.20311" lon="-3.01814">
        <ele>130</ele>
        <time>2015-06-10T09:12:45Z</time>
      </trkpt>
      <trkpt lat="48.20311" lon="-3.01819">
        <ele>130</ele>
        <time>2015-06-10T09:12:47Z</time>
      </trkpt>
      <trkpt lat="48.20311" lon="-3.01824">
        <ele>130</ele>
        <time>2015-06-10T09:12:49Z</time>
      </trkpt>
      <trkpt lat="48.20308" lon="-3.01829">
        <ele>130</ele>
        <time>2015-06-10T09:12:51Z</time>
      </trkpt>
      <trkpt lat="48.20307" lon="-3.01831">
        <ele>130</ele>
        <time>2015-06-10T09:12:53Z</time>
      </trkpt>
      <trkpt lat="48.20306" lon="-3.01833">
        <ele>130</ele>
        <time>2015-06-10T09:12:55Z</time>
      </trkpt>
      <trkpt lat="48.20306" lon="-3.01837">
        <ele>130</ele>
        <time>2015-06-10T09:12:57Z</time>
      </trkpt>
      <trkpt lat="48.20306" lon="-3.01842">
        <ele>130</ele>
        <time>2015-06-10T09:13:00Z</time>
      </trkpt>
      <trkpt lat="48.20307" lon="-3.01847">
        <ele>130</ele>
        <time>2015-06-10T09:13:03Z</time>
      </trkpt>
      <trkpt lat="48.20308" lon="-3.01851">
        <ele>130</ele>
        <time>2015-06-10T09:13:05Z</time>
      </trkpt>
      <trkpt lat="48.20308" lon="-3.01855">
        <ele>130</ele>
        <time>2015-06-10T09:13:07Z</time>
      </trkpt>
      <trkpt lat="48.20308" lon="-3.01859">
        <ele>130</ele>
        <time>2015-06-10T09:13:09Z</time>
      </trkpt>
      <trkpt lat="48.20307" lon="-3.01862">
        <ele>130</ele>
        <time>2015-06-10T09:13:11Z</time>
      </trkpt>
      <trkpt lat="48.20307" lon="-3.01864">
        <ele>130</ele>
        <time>2015-06-10T09:13:13Z</time>
      </trkpt>
      <trkpt lat="48.20307" lon="-3.01868">
        <ele>130</ele>
        <time>2015-06-10T09:13:16Z</time>
      </trkpt>
      <trkpt lat="48.20306" lon="-3.01872">
        <ele>130</ele>
        <time>2015-06-10T09:13:18Z</time>
      </trkpt>
      <trkpt lat="48.20306" lon="-3.01877">
        <ele>130</ele>
        <time>2015-06-10T09:13:21Z</time>
      </trkpt>
      <trkpt lat="48.20306" lon="-3.01882">
        <ele>130</ele>
        <time>2015-06-10T09:13:23Z</time>
      </trkpt>
      <trkpt lat="48.20306" lon="-3.01888">
        <ele>130</ele>
        <time>2015-06-10T09:13:25Z</time>
      </trkpt>
      <trkpt lat="48.20306" lon="-3.01892">
        <ele>130</ele>
        <time>2015-06-10T09:13:27Z</time>
      </trkpt>
      <trkpt lat="48.20306" lon="-3.01895">
        <ele>130</ele>
        <time>2015-06-10T09:13:29Z</time>
      </trkpt>
      <trkpt lat="48.20307" lon="-3.019">
        <ele>130</ele>
        <time>2015-06-10T09:13:32Z</time>
      </trkpt>
      <trkpt lat="48.20308" lon="-3.01903">
        <ele>130</ele>
        <time>2015-06-10T09:13:34Z</time>
      </trkpt>
      <trkpt lat="48.20309" lon="-3.01909">
        <ele>130</ele>
        <time>2015-06-10T09:13:37Z</time>
      </trkpt>
      <trkpt lat="48.20308" lon="-3.01915">
        <ele>130</ele>
        <time>2015-06-10T09:13:39Z</time>
      </trkpt>
      <trkpt lat="48.20309" lon="-3.01919">
        <ele>130</ele>
        <time>2015-06-10T09:13:41Z</time>
      </trkpt>
      <trkpt lat="48.20309" lon="-3.01922">
        <ele>131</ele>
        <time>2015-06-10T09:13:43Z</time>
      </trkpt>
      <trkpt lat="48.20309" lon="-3.01924">
        <ele>131</ele>
        <time>2015-06-10T09:13:45Z</time>
      </trkpt>
      <trkpt lat="48.20309" lon="-3.01928">
        <ele>131</ele>
        <time>2015-06-10T09:13:47Z</time>
      </trkpt>
      <trkpt lat="48.20309" lon="-3.01932">
        <ele>131</ele>
        <time>2015-06-10T09:13:49Z</time>
      </trkpt>
      <trkpt lat="48.20311" lon="-3.01937">
        <ele>131</ele>
        <time>2015-06-10T09:13:52Z</time>
      </trkpt>
      <trkpt lat="48.20312" lon="-3.0194">
        <ele>131</ele>
        <time>2015-06-10T09:13:54Z</time>
      </trkpt>
      <trkpt lat="48.20312" lon="-3.01942">
        <ele>131</ele>
        <time>2015-06-10T09:13:56Z</time>
      </trkpt>
      <trkpt lat="48.20313" lon="-3.01944">
        <ele>131</ele>
        <time>2015-06-10T09:13:59Z</time>
      </trkpt>
      <trkpt lat="48.20314" lon="-3.01944">
        <ele>131</ele>
        <time>2015-06-10T09:14:09Z</time>
      </trkpt>
      <trkpt lat="48.20316" lon="-3.01944">
        <ele>131</ele>
        <time>2015-06-10T09:14:11Z</time>
      </trkpt>
      <trkpt lat="48.20315" lon="-3.01946">
        <ele>131</ele>
        <time>2015-06-10T09:14:13Z</time>
      </trkpt>
      <trkpt lat="48.20317" lon="-3.01946">
        <ele>131</ele>
        <time>2015-06-10T09:14:15Z</time>
      </trkpt>
      <trkpt lat="48.20316" lon="-3.01948">
        <ele>131</ele>
        <time>2015-06-10T09:14:18Z</time>
      </trkpt>
      <trkpt lat="48.20316" lon="-3.01951">
        <ele>131</ele>
        <time>2015-06-10T09:14:20Z</time>
      </trkpt>
      <trkpt lat="48.20316" lon="-3.01953">
        <ele>131</ele>
        <time>2015-06-10T09:14:22Z</time>
      </trkpt>
      <trkpt lat="48.20319" lon="-3.01953">
        <ele>131</ele>
        <time>2015-06-10T09:14:24Z</time>
      </trkpt>
      <trkpt lat="48.20322" lon="-3.01952">
        <ele>131</ele>
        <time>2015-06-10T09:14:28Z</time>
      </trkpt>
      <trkpt lat="48.20325" lon="-3.01951">
        <ele>131</ele>
        <time>2015-06-10T09:14:30Z</time>
      </trkpt>
      <trkpt lat="48.20327" lon="-3.0195">
        <ele>131</ele>
        <time>2015-06-10T09:14:32Z</time>
      </trkpt>
      <trkpt lat="48.20332" lon="-3.01951">
        <ele>131</ele>
        <time>2015-06-10T09:14:35Z</time>
      </trkpt>
      <trkpt lat="48.20335" lon="-3.0195">
        <ele>131</ele>
        <time>2015-06-10T09:14:37Z</time>
      </trkpt>
      <trkpt lat="48.20337" lon="-3.01953">
        <ele>131</ele>
        <time>2015-06-10T09:14:40Z</time>
      </trkpt>
      <trkpt lat="48.20337" lon="-3.01955">
        <ele>132</ele>
        <time>2015-06-10T09:14:42Z</time>
      </trkpt>
      <trkpt lat="48.20338" lon="-3.01959">
        <ele>132</ele>
        <time>2015-06-10T09:14:44Z</time>
      </trkpt>
      <trkpt lat="48.20339" lon="-3.01963">
        <ele>132</ele>
        <time>2015-06-10T09:14:47Z</time>
      </trkpt>
      <trkpt lat="48.2034" lon="-3.01966">
        <ele>132</ele>
        <time>2015-06-10T09:14:49Z</time>
      </trkpt>
      <trkpt lat="48.20342" lon="-3.01969">
        <ele>132</ele>
        <time>2015-06-10T09:14:51Z</time>
      </trkpt>
      <trkpt lat="48.20343" lon="-3.01971">
        <ele>132</ele>
        <time>2015-06-10T09:14:53Z</time>
      </trkpt>
      <trkpt lat="48.20346" lon="-3.01974">
        <ele>132</ele>
        <time>2015-06-10T09:14:55Z</time>
      </trkpt>
      <trkpt lat="48.20347" lon="-3.01977">
        <ele>132</ele>
        <time>2015-06-10T09:14:57Z</time>
      </trkpt>
      <trkpt lat="48.20346" lon="-3.01981">
        <ele>132</ele>
        <time>2015-06-10T09:15:00Z</time>
      </trkpt>
      <trkpt lat="48.20346" lon="-3.01986">
        <ele>132</ele>
        <time>2015-06-10T09:15:02Z</time>
      </trkpt>
      <trkpt lat="48.20348" lon="-3.01987">
        <ele>132</ele>
        <time>2015-06-10T09:15:06Z</time>
      </trkpt>
      <trkpt lat="48.2035" lon="-3.01989">
        <ele>132</ele>
        <time>2015-06-10T09:15:08Z</time>
      </trkpt>
      <trkpt lat="48.20349" lon="-3.01992">
        <ele>132</ele>
        <time>2015-06-10T09:15:10Z</time>
      </trkpt>
      <trkpt lat="48.20349" lon="-3.01993">
        <ele>133</ele>
        <time>2015-06-10T09:15:12Z</time>
      </trkpt>
      <trkpt lat="48.20351" lon="-3.01995">
        <ele>133</ele>
        <time>2015-06-10T09:15:14Z</time>
      </trkpt>
      <trkpt lat="48.2035" lon="-3.01997">
        <ele>134</ele>
        <time>2015-06-10T09:15:18Z</time>
      </trkpt>
      <trkpt lat="48.20348" lon="-3.02001">
        <ele>134</ele>
        <time>2015-06-10T09:15:20Z</time>
      </trkpt>
      <trkpt lat="48.20347" lon="-3.02004">
        <ele>134</ele>
        <time>2015-06-10T09:15:22Z</time>
      </trkpt>
      <trkpt lat="48.20347" lon="-3.02006">
        <ele>134</ele>
        <time>2015-06-10T09:15:25Z</time>
      </trkpt>
      <trkpt lat="48.20348" lon="-3.02008">
        <ele>134</ele>
        <time>2015-06-10T09:15:27Z</time>
      </trkpt>
      <trkpt lat="48.20349" lon="-3.02011">
        <ele>135</ele>
        <time>2015-06-10T09:15:29Z</time>
      </trkpt>
      <trkpt lat="48.20349" lon="-3.02012">
        <ele>135</ele>
        <time>2015-06-10T09:15:31Z</time>
      </trkpt>
      <trkpt lat="48.20348" lon="-3.02016">
        <ele>136</ele>
        <time>2015-06-10T09:15:33Z</time>
      </trkpt>
      <trkpt lat="48.2035" lon="-3.0202">
        <ele>138</ele>
        <time>2015-06-10T09:15:36Z</time>
      </trkpt>
      <trkpt lat="48.2035" lon="-3.02023">
        <ele>139</ele>
        <time>2015-06-10T09:15:38Z</time>
      </trkpt>
      <trkpt lat="48.2035" lon="-3.02026">
        <ele>141</ele>
        <time>2015-06-10T09:15:40Z</time>
      </trkpt>
      <trkpt lat="48.20349" lon="-3.02031">
        <ele>142</ele>
        <time>2015-06-10T09:15:42Z</time>
      </trkpt>
      <trkpt lat="48.2035" lon="-3.02033">
        <ele>143</ele>
        <time>2015-06-10T09:15:44Z</time>
      </trkpt>
      <trkpt lat="48.20353" lon="-3.02035">
        <ele>145</ele>
        <time>2015-06-10T09:15:49Z</time>
      </trkpt>
      <trkpt lat="48.20353" lon="-3.02037">
        <ele>145</ele>
        <time>2015-06-10T09:15:51Z</time>
      </trkpt>
      <trkpt lat="48.20352" lon="-3.02039">
        <ele>145</ele>
        <time>2015-06-10T09:15:53Z</time>
      </trkpt>
      <trkpt lat="48.20351" lon="-3.02041">
        <ele>145</ele>
        <time>2015-06-10T09:15:56Z</time>
      </trkpt>
      <trkpt lat="48.2035" lon="-3.02043">
        <ele>145</ele>
        <time>2015-06-10T09:15:58Z</time>
      </trkpt>
      <trkpt lat="48.20349" lon="-3.02045">
        <ele>145</ele>
        <time>2015-06-10T09:16:00Z</time>
      </trkpt>
      <trkpt lat="48.20348" lon="-3.02048">
        <ele>145</ele>
        <time>2015-06-10T09:16:02Z</time>
      </trkpt>
      <trkpt lat="48.20349" lon="-3.0205">
        <ele>145</ele>
        <time>2015-06-10T09:16:04Z</time>
      </trkpt>
      <trkpt lat="48.20349" lon="-3.02052">
        <ele>145</ele>
        <time>2015-06-10T09:16:06Z</time>
      </trkpt>
      <trkpt lat="48.20346" lon="-3.02055">
        <ele>145</ele>
        <time>2015-06-10T09:16:09Z</time>
      </trkpt>
      <trkpt lat="48.20344" lon="-3.02056">
        <ele>145</ele>
        <time>2015-06-10T09:16:11Z</time>
      </trkpt>
      <trkpt lat="48.20342" lon="-3.02057">
        <ele>145</ele>
        <time>2015-06-10T09:16:13Z</time>
      </trkpt>
      <trkpt lat="48.20339" lon="-3.02058">
        <ele>145</ele>
        <time>2015-06-10T09:16:15Z</time>
      </trkpt>
      <trkpt lat="48.20336" lon="-3.02057">
        <ele>145</ele>
        <time>2015-06-10T09:16:17Z</time>
      </trkpt>
      <trkpt lat="48.20334" lon="-3.02055">
        <ele>145</ele>
        <time>2015-06-10T09:16:20Z</time>
      </trkpt>
      <trkpt lat="48.20332" lon="-3.02052">
        <ele>145</ele>
        <time>2015-06-10T09:16:22Z</time>
      </trkpt>
      <trkpt lat="48.2033" lon="-3.02049">
        <ele>145</ele>
        <time>2015-06-10T09:16:24Z</time>
      </trkpt>
      <trkpt lat="48.20327" lon="-3.02046">
        <ele>145</ele>
        <time>2015-06-10T09:16:28Z</time>
      </trkpt>
      <trkpt lat="48.20326" lon="-3.02043">
        <ele>145</ele>
        <time>2015-06-10T09:16:30Z</time>
      </trkpt>
      <trkpt lat="48.20325" lon="-3.02042">
        <ele>145</ele>
        <time>2015-06-10T09:16:32Z</time>
      </trkpt>
      <trkpt lat="48.20323" lon="-3.0204">
        <ele>145</ele>
        <time>2015-06-10T09:16:34Z</time>
      </trkpt>
      <trkpt lat="48.2032" lon="-3.02038">
        <ele>145</ele>
        <time>2015-06-10T09:16:36Z</time>
      </trkpt>
      <trkpt lat="48.20319" lon="-3.02035">
        <ele>145</ele>
        <time>2015-06-10T09:16:38Z</time>
      </trkpt>
      <trkpt lat="48.20319" lon="-3.02031">
        <ele>145</ele>
        <time>2015-06-10T09:16:41Z</time>
      </trkpt>
      <trkpt lat="48.20318" lon="-3.02027">
        <ele>145</ele>
        <time>2015-06-10T09:16:43Z</time>
      </trkpt>
      <trkpt lat="48.20317" lon="-3.02024">
        <ele>144</ele>
        <time>2015-06-10T09:16:45Z</time>
      </trkpt>
      <trkpt lat="48.20315" lon="-3.02021">
        <ele>143</ele>
        <time>2015-06-10T09:16:47Z</time>
      </trkpt>
      <trkpt lat="48.20313" lon="-3.02019">
        <ele>141</ele>
        <time>2015-06-10T09:16:49Z</time>
      </trkpt>
      <trkpt lat="48.20313" lon="-3.02016">
        <ele>140</ele>
        <time>2015-06-10T09:16:51Z</time>
      </trkpt>
      <trkpt lat="48.20312" lon="-3.02014">
        <ele>138</ele>
        <time>2015-06-10T09:16:53Z</time>
      </trkpt>
      <trkpt lat="48.20311" lon="-3.02012">
        <ele>137</ele>
        <time>2015-06-10T09:16:55Z</time>
      </trkpt>
      <trkpt lat="48.20309" lon="-3.02008">
        <ele>135</ele>
        <time>2015-06-10T09:16:57Z</time>
      </trkpt>
      <trkpt lat="48.20309" lon="-3.02004">
        <ele>134</ele>
        <time>2015-06-10T09:17:00Z</time>
      </trkpt>
      <trkpt lat="48.20306" lon="-3.02001">
        <ele>134</ele>
        <time>2015-06-10T09:17:03Z</time>
      </trkpt>
      <trkpt lat="48.20305" lon="-3.02">
        <ele>134</ele>
        <time>2015-06-10T09:17:05Z</time>
      </trkpt>
      <trkpt lat="48.20304" lon="-3.01998">
        <ele>134</ele>
        <time>2015-06-10T09:17:07Z</time>
      </trkpt>
      <trkpt lat="48.20304" lon="-3.01996">
        <ele>134</ele>
        <time>2015-06-10T09:17:09Z</time>
      </trkpt>
      <trkpt lat="48.20303" lon="-3.01994">
        <ele>134</ele>
        <time>2015-06-10T09:17:11Z</time>
      </trkpt>
      <trkpt lat="48.20301" lon="-3.01992">
        <ele>134</ele>
        <time>2015-06-10T09:17:13Z</time>
      </trkpt>
      <trkpt lat="48.20299" lon="-3.01989">
        <ele>133</ele>
        <time>2015-06-10T09:17:15Z</time>
      </trkpt>
      <trkpt lat="48.20296" lon="-3.01986">
        <ele>132</ele>
        <time>2015-06-10T09:17:18Z</time>
      </trkpt>
      <trkpt lat="48.20294" lon="-3.01983">
        <ele>130</ele>
        <time>2015-06-10T09:17:20Z</time>
      </trkpt>
      <trkpt lat="48.20292" lon="-3.01981">
        <ele>128</ele>
        <time>2015-06-10T09:17:22Z</time>
      </trkpt>
      <trkpt lat="48.2029" lon="-3.01978">
        <ele>126</ele>
        <time>2015-06-10T09:17:24Z</time>
      </trkpt>
      <trkpt lat="48.20287" lon="-3.01975">
        <ele>126</ele>
        <time>2015-06-10T09:17:26Z</time>
      </trkpt>
      <trkpt lat="48.20284" lon="-3.01971">
        <ele>126</ele>
        <time>2015-06-10T09:17:29Z</time>
      </trkpt>
      <trkpt lat="48.20283" lon="-3.01965">
        <ele>126</ele>
        <time>2015-06-10T09:17:31Z</time>
      </trkpt>
      <trkpt lat="48.20282" lon="-3.01961">
        <ele>126</ele>
        <time>2015-06-10T09:17:34Z</time>
      </trkpt>
      <trkpt lat="48.2028" lon="-3.01958">
        <ele>126</ele>
        <time>2015-06-10T09:17:36Z</time>
      </trkpt>
      <trkpt lat="48.20277" lon="-3.01956">
        <ele>126</ele>
        <time>2015-06-10T09:17:38Z</time>
      </trkpt>
      <trkpt lat="48.20275" lon="-3.01954">
        <ele>126</ele>
        <time>2015-06-10T09:17:40Z</time>
      </trkpt>
      <trkpt lat="48.20274" lon="-3.01952">
        <ele>126</ele>
        <time>2015-06-10T09:17:42Z</time>
      </trkpt>
      <trkpt lat="48.20274" lon="-3.01949">
        <ele>126</ele>
        <time>2015-06-10T09:17:44Z</time>
      </trkpt>
      <trkpt lat="48.20272" lon="-3.01947">
        <ele>126</ele>
        <time>2015-06-10T09:17:46Z</time>
      </trkpt>
      <trkpt lat="48.20269" lon="-3.01945">
        <ele>126</ele>
        <time>2015-06-10T09:17:48Z</time>
      </trkpt>
      <trkpt lat="48.20267" lon="-3.01942">
        <ele>126</ele>
        <time>2015-06-10T09:17:50Z</time>
      </trkpt>
      <trkpt lat="48.20266" lon="-3.0194">
        <ele>126</ele>
        <time>2015-06-10T09:17:52Z</time>
      </trkpt>
      <trkpt lat="48.20264" lon="-3.01939">
        <ele>126</ele>
        <time>2015-06-10T09:17:54Z</time>
      </trkpt>
      <trkpt lat="48.20261" lon="-3.01936">
        <ele>126</ele>
        <time>2015-06-10T09:17:57Z</time>
      </trkpt>
      <trkpt lat="48.2026" lon="-3.01934">
        <ele>126</ele>
        <time>2015-06-10T09:17:59Z</time>
      </trkpt>
      <trkpt lat="48.20259" lon="-3.01932">
        <ele>126</ele>
        <time>2015-06-10T09:18:01Z</time>
      </trkpt>
      <trkpt lat="48.20257" lon="-3.01931">
        <ele>126</ele>
        <time>2015-06-10T09:18:03Z</time>
      </trkpt>
      <trkpt lat="48.20256" lon="-3.0193">
        <ele>126</ele>
        <time>2015-06-10T09:18:05Z</time>
      </trkpt>
      <trkpt lat="48.20254" lon="-3.01929">
        <ele>126</ele>
        <time>2015-06-10T09:18:07Z</time>
      </trkpt>
      <trkpt lat="48.20252" lon="-3.01927">
        <ele>126</ele>
        <time>2015-06-10T09:18:09Z</time>
      </trkpt>
      <trkpt lat="48.2025" lon="-3.01926">
        <ele>126</ele>
        <time>2015-06-10T09:18:11Z</time>
      </trkpt>
      <trkpt lat="48.20248" lon="-3.01924">
        <ele>126</ele>
        <time>2015-06-10T09:18:13Z</time>
      </trkpt>
      <trkpt lat="48.20247" lon="-3.01922">
        <ele>126</ele>
        <time>2015-06-10T09:18:15Z</time>
      </trkpt>
      <trkpt lat="48.20246" lon="-3.0192">
        <ele>126</ele>
        <time>2015-06-10T09:18:17Z</time>
      </trkpt>
      <trkpt lat="48.20245" lon="-3.01917">
        <ele>126</ele>
        <time>2015-06-10T09:18:19Z</time>
      </trkpt>
      <trkpt lat="48.20243" lon="-3.01913">
        <ele>126</ele>
        <time>2015-06-10T09:18:22Z</time>
      </trkpt>
      <trkpt lat="48.2024" lon="-3.01909">
        <ele>126</ele>
        <time>2015-06-10T09:18:25Z</time>
      </trkpt>
      <trkpt lat="48.20238" lon="-3.01907">
        <ele>126</ele>
        <time>2015-06-10T09:18:27Z</time>
      </trkpt>
      <trkpt lat="48.20235" lon="-3.01907">
        <ele>126</ele>
        <time>2015-06-10T09:18:29Z</time>
      </trkpt>
      <trkpt lat="48.20232" lon="-3.01908">
        <ele>126</ele>
        <time>2015-06-10T09:18:31Z</time>
      </trkpt>
      <trkpt lat="48.2023" lon="-3.01908">
        <ele>125</ele>
        <time>2015-06-10T09:18:33Z</time>
      </trkpt>
      <trkpt lat="48.20228" lon="-3.01908">
        <ele>125</ele>
        <time>2015-06-10T09:18:35Z</time>
      </trkpt>
      <trkpt lat="48.20225" lon="-3.01911">
        <ele>125</ele>
        <time>2015-06-10T09:18:38Z</time>
      </trkpt>
      <trkpt lat="48.20222" lon="-3.01913">
        <ele>125</ele>
        <time>2015-06-10T09:18:40Z</time>
      </trkpt>
      <trkpt lat="48.20219" lon="-3.01915">
        <ele>125</ele>
        <time>2015-06-10T09:18:42Z</time>
      </trkpt>
      <trkpt lat="48.20217" lon="-3.01915">
        <ele>125</ele>
        <time>2015-06-10T09:18:44Z</time>
      </trkpt>
      <trkpt lat="48.20216" lon="-3.01917">
        <ele>125</ele>
        <time>2015-06-10T09:18:46Z</time>
      </trkpt>
      <trkpt lat="48.20214" lon="-3.01917">
        <ele>125</ele>
        <time>2015-06-10T09:18:48Z</time>
      </trkpt>
      <trkpt lat="48.20211" lon="-3.01917">
        <ele>125</ele>
        <time>2015-06-10T09:18:50Z</time>
      </trkpt>
      <trkpt lat="48.20208" lon="-3.01918">
        <ele>125</ele>
        <time>2015-06-10T09:18:53Z</time>
      </trkpt>
      <trkpt lat="48.20206" lon="-3.0192">
        <ele>126</ele>
        <time>2015-06-10T09:18:55Z</time>
      </trkpt>
      <trkpt lat="48.20204" lon="-3.01922">
        <ele>126</ele>
        <time>2015-06-10T09:18:57Z</time>
      </trkpt>
      <trkpt lat="48.20203" lon="-3.01924">
        <ele>127</ele>
        <time>2015-06-10T09:18:59Z</time>
      </trkpt>
      <trkpt lat="48.20202" lon="-3.01926">
        <ele>127</ele>
        <time>2015-06-10T09:19:01Z</time>
      </trkpt>
      <trkpt lat="48.20203" lon="-3.01927">
        <ele>128</ele>
        <time>2015-06-10T09:19:03Z</time>
      </trkpt>
      <trkpt lat="48.20203" lon="-3.0193">
        <ele>129</ele>
        <time>2015-06-10T09:19:05Z</time>
      </trkpt>
      <trkpt lat="48.20202" lon="-3.01934">
        <ele>131</ele>
        <time>2015-06-10T09:19:08Z</time>
      </trkpt>
      <trkpt lat="48.20202" lon="-3.01937">
        <ele>132</ele>
        <time>2015-06-10T09:19:10Z</time>
      </trkpt>
      <trkpt lat="48.20202" lon="-3.01939">
        <ele>132</ele>
        <time>2015-06-10T09:19:12Z</time>
      </trkpt>
      <trkpt lat="48.20202" lon="-3.01942">
        <ele>133</ele>
        <time>2015-06-10T09:19:14Z</time>
      </trkpt>
      <trkpt lat="48.20203" lon="-3.01944">
        <ele>134</ele>
        <time>2015-06-10T09:19:16Z</time>
      </trkpt>
      <trkpt lat="48.20202" lon="-3.01947">
        <ele>136</ele>
        <time>2015-06-10T09:19:18Z</time>
      </trkpt>
      <trkpt lat="48.20201" lon="-3.01948">
        <ele>137</ele>
        <time>2015-06-10T09:19:20Z</time>
      </trkpt>
      <trkpt lat="48.202" lon="-3.01951">
        <ele>138</ele>
        <time>2015-06-10T09:19:22Z</time>
      </trkpt>
      <trkpt lat="48.20198" lon="-3.01955">
        <ele>138</ele>
        <time>2015-06-10T09:19:25Z</time>
      </trkpt>
      <trkpt lat="48.20198" lon="-3.01957">
        <ele>138</ele>
        <time>2015-06-10T09:19:27Z</time>
      </trkpt>
      <trkpt lat="48.20196" lon="-3.01958">
        <ele>138</ele>
        <time>2015-06-10T09:19:30Z</time>
      </trkpt>
      <trkpt lat="48.20194" lon="-3.0196">
        <ele>138</ele>
        <time>2015-06-10T09:19:32Z</time>
      </trkpt>
      <trkpt lat="48.20192" lon="-3.01961">
        <ele>138</ele>
        <time>2015-06-10T09:19:34Z</time>
      </trkpt>
      <trkpt lat="48.2019" lon="-3.01964">
        <ele>138</ele>
        <time>2015-06-10T09:19:36Z</time>
      </trkpt>
      <trkpt lat="48.20186" lon="-3.01963">
        <ele>138</ele>
        <time>2015-06-10T09:19:38Z</time>
      </trkpt>
      <trkpt lat="48.20185" lon="-3.0196">
        <ele>138</ele>
        <time>2015-06-10T09:19:40Z</time>
      </trkpt>
      <trkpt lat="48.20184" lon="-3.01956">
        <ele>137</ele>
        <time>2015-06-10T09:19:42Z</time>
      </trkpt>
      <trkpt lat="48.20183" lon="-3.01952">
        <ele>135</ele>
        <time>2015-06-10T09:19:44Z</time>
      </trkpt>
      <trkpt lat="48.20182" lon="-3.01947">
        <ele>134</ele>
        <time>2015-06-10T09:19:46Z</time>
      </trkpt>
      <trkpt lat="48.20181" lon="-3.01942">
        <ele>134</ele>
        <time>2015-06-10T09:19:49Z</time>
      </trkpt>
      <trkpt lat="48.20182" lon="-3.01937">
        <ele>133</ele>
        <time>2015-06-10T09:19:52Z</time>
      </trkpt>
      <trkpt lat="48.2018" lon="-3.01932">
        <ele>133</ele>
        <time>2015-06-10T09:19:54Z</time>
      </trkpt>
      <trkpt lat="48.20179" lon="-3.01929">
        <ele>133</ele>
        <time>2015-06-10T09:19:56Z</time>
      </trkpt>
      <trkpt lat="48.20178" lon="-3.01924">
        <ele>133</ele>
        <time>2015-06-10T09:19:58Z</time>
      </trkpt>
      <trkpt lat="48.20176" lon="-3.0192">
        <ele>133</ele>
        <time>2015-06-10T09:20:00Z</time>
      </trkpt>
      <trkpt lat="48.20176" lon="-3.01916">
        <ele>132</ele>
        <time>2015-06-10T09:20:02Z</time>
      </trkpt>
      <trkpt lat="48.20176" lon="-3.01913">
        <ele>131</ele>
        <time>2015-06-10T09:20:04Z</time>
      </trkpt>
      <trkpt lat="48.20175" lon="-3.01908">
        <ele>131</ele>
        <time>2015-06-10T09:20:06Z</time>
      </trkpt>
      <trkpt lat="48.20176" lon="-3.01904">
        <ele>131</ele>
        <time>2015-06-10T09:20:08Z</time>
      </trkpt>
      <trkpt lat="48.20176" lon="-3.019">
        <ele>131</ele>
        <time>2015-06-10T09:20:11Z</time>
      </trkpt>
      <trkpt lat="48.20177" lon="-3.01895">
        <ele>130</ele>
        <time>2015-06-10T09:20:13Z</time>
      </trkpt>
      <trkpt lat="48.20179" lon="-3.0189">
        <ele>128</ele>
        <time>2015-06-10T09:20:15Z</time>
      </trkpt>
      <trkpt lat="48.20181" lon="-3.01886">
        <ele>128</ele>
        <time>2015-06-10T09:20:18Z</time>
      </trkpt>
      <trkpt lat="48.20182" lon="-3.01879">
        <ele>128</ele>
        <time>2015-06-10T09:20:20Z</time>
      </trkpt>
      <trkpt lat="48.20181" lon="-3.01875">
        <ele>128</ele>
        <time>2015-06-10T09:20:22Z</time>
      </trkpt>
      <trkpt lat="48.20182" lon="-3.01872">
        <ele>128</ele>
        <time>2015-06-10T09:20:24Z</time>
      </trkpt>
      <trkpt lat="48.20184" lon="-3.01867">
        <ele>128</ele>
        <time>2015-06-10T09:20:26Z</time>
      </trkpt>
      <trkpt lat="48.20184" lon="-3.01862">
        <ele>128</ele>
        <time>2015-06-10T09:20:28Z</time>
      </trkpt>
      <trkpt lat="48.20185" lon="-3.01856">
        <ele>128</ele>
        <time>2015-06-10T09:20:30Z</time>
      </trkpt>
      <trkpt lat="48.20187" lon="-3.01854">
        <ele>128</ele>
        <time>2015-06-10T09:20:32Z</time>
      </trkpt>
      <trkpt lat="48.2019" lon="-3.01851">
        <ele>128</ele>
        <time>2015-06-10T09:20:35Z</time>
      </trkpt>
      <trkpt lat="48.2019" lon="-3.01845">
        <ele>127</ele>
        <time>2015-06-10T09:20:38Z</time>
      </trkpt>
      <trkpt lat="48.20191" lon="-3.01842">
        <ele>127</ele>
        <time>2015-06-10T09:20:40Z</time>
      </trkpt>
      <trkpt lat="48.20191" lon="-3.01838">
        <ele>127</ele>
        <time>2015-06-10T09:20:42Z</time>
      </trkpt>
      <trkpt lat="48.2019" lon="-3.01835">
        <ele>127</ele>
        <time>2015-06-10T09:20:44Z</time>
      </trkpt>
      <trkpt lat="48.20189" lon="-3.01832">
        <ele>127</ele>
        <time>2015-06-10T09:20:46Z</time>
      </trkpt>
      <trkpt lat="48.20188" lon="-3.01826">
        <ele>127</ele>
        <time>2015-06-10T09:20:49Z</time>
      </trkpt>
      <trkpt lat="48.20187" lon="-3.01823">
        <ele>127</ele>
        <time>2015-06-10T09:20:51Z</time>
      </trkpt>
      <trkpt lat="48.20186" lon="-3.01819">
        <ele>127</ele>
        <time>2015-06-10T09:20:53Z</time>
      </trkpt>
      <trkpt lat="48.20186" lon="-3.01816">
        <ele>127</ele>
        <time>2015-06-10T09:20:55Z</time>
      </trkpt>
      <trkpt lat="48.20184" lon="-3.01813">
        <ele>127</ele>
        <time>2015-06-10T09:20:57Z</time>
      </trkpt>
      <trkpt lat="48.20184" lon="-3.01809">
        <ele>127</ele>
        <time>2015-06-10T09:20:59Z</time>
      </trkpt>
      <trkpt lat="48.20182" lon="-3.01803">
        <ele>127</ele>
        <time>2015-06-10T09:21:02Z</time>
      </trkpt>
      <trkpt lat="48.2018" lon="-3.01801">
        <ele>127</ele>
        <time>2015-06-10T09:21:04Z</time>
      </trkpt>
      <trkpt lat="48.20178" lon="-3.018">
        <ele>127</ele>
        <time>2015-06-10T09:21:06Z</time>
      </trkpt>
      <trkpt lat="48.20175" lon="-3.01801">
        <ele>127</ele>
        <time>2015-06-10T09:21:08Z</time>
      </trkpt>
      <trkpt lat="48.20174" lon="-3.01802">
        <ele>127</ele>
        <time>2015-06-10T09:21:10Z</time>
      </trkpt>
      <trkpt lat="48.20175" lon="-3.018">
        <ele>128</ele>
        <time>2015-06-10T09:21:17Z</time>
      </trkpt>
      <trkpt lat="48.20175" lon="-3.01798">
        <ele>129</ele>
        <time>2015-06-10T09:21:21Z</time>
      </trkpt>
      <trkpt lat="48.20174" lon="-3.01798">
        <ele>130</ele>
        <time>2015-06-10T09:21:25Z</time>
      </trkpt>
      <trkpt lat="48.20173" lon="-3.01796">
        <ele>130</ele>
        <time>2015-06-10T09:21:30Z</time>
      </trkpt>
      <trkpt lat="48.20172" lon="-3.01797">
        <ele>130</ele>
        <time>2015-06-10T09:21:35Z</time>
      </trkpt>
      <trkpt lat="48.2017" lon="-3.01798">
        <ele>130</ele>
        <time>2015-06-10T09:21:38Z</time>
      </trkpt>
      <trkpt lat="48.20168" lon="-3.01799">
        <ele>130</ele>
        <time>2015-06-10T09:21:40Z</time>
      </trkpt>
      <trkpt lat="48.20165" lon="-3.01799">
        <ele>130</ele>
        <time>2015-06-10T09:21:43Z</time>
      </trkpt>
      <trkpt lat="48.20164" lon="-3.01799">
        <ele>130</ele>
        <time>2015-06-10T09:21:45Z</time>
      </trkpt>
      <trkpt lat="48.20161" lon="-3.01799">
        <ele>130</ele>
        <time>2015-06-10T09:21:47Z</time>
      </trkpt>
      <trkpt lat="48.20159" lon="-3.01798">
        <ele>130</ele>
        <time>2015-06-10T09:21:49Z</time>
      </trkpt>
      <trkpt lat="48.20156" lon="-3.01798">
        <ele>130</ele>
        <time>2015-06-10T09:21:51Z</time>
      </trkpt>
      <trkpt lat="48.20153" lon="-3.01798">
        <ele>130</ele>
        <time>2015-06-10T09:21:53Z</time>
      </trkpt>
      <trkpt lat="48.2015" lon="-3.01798">
        <ele>130</ele>
        <time>2015-06-10T09:21:55Z</time>
      </trkpt>
      <trkpt lat="48.20147" lon="-3.01797">
        <ele>130</ele>
        <time>2015-06-10T09:21:58Z</time>
      </trkpt>
      <trkpt lat="48.20143" lon="-3.01796">
        <ele>130</ele>
        <time>2015-06-10T09:22:01Z</time>
      </trkpt>
      <trkpt lat="48.20142" lon="-3.01794">
        <ele>130</ele>
        <time>2015-06-10T09:22:03Z</time>
      </trkpt>
      <trkpt lat="48.2014" lon="-3.01791">
        <ele>130</ele>
        <time>2015-06-10T09:22:05Z</time>
      </trkpt>
      <trkpt lat="48.20139" lon="-3.0179">
        <ele>130</ele>
        <time>2015-06-10T09:22:07Z</time>
      </trkpt>
      <trkpt lat="48.20137" lon="-3.01788">
        <ele>129</ele>
        <time>2015-06-10T09:22:09Z</time>
      </trkpt>
      <trkpt lat="48.20134" lon="-3.01788">
        <ele>129</ele>
        <time>2015-06-10T09:22:11Z</time>
      </trkpt>
      <trkpt lat="48.20132" lon="-3.01785">
        <ele>129</ele>
        <time>2015-06-10T09:22:13Z</time>
      </trkpt>
      <trkpt lat="48.2013" lon="-3.01782">
        <ele>129</ele>
        <time>2015-06-10T09:22:15Z</time>
      </trkpt>
      <trkpt lat="48.20128" lon="-3.01778">
        <ele>129</ele>
        <time>2015-06-10T09:22:17Z</time>
      </trkpt>
      <trkpt lat="48.20125" lon="-3.01775">
        <ele>129</ele>
        <time>2015-06-10T09:22:19Z</time>
      </trkpt>
      <trkpt lat="48.20123" lon="-3.01773">
        <ele>129</ele>
        <time>2015-06-10T09:22:21Z</time>
      </trkpt>
      <trkpt lat="48.20121" lon="-3.01771">
        <ele>129</ele>
        <time>2015-06-10T09:22:23Z</time>
      </trkpt>
      <trkpt lat="48.20118" lon="-3.0177">
        <ele>129</ele>
        <time>2015-06-10T09:22:26Z</time>
      </trkpt>
      <trkpt lat="48.20114" lon="-3.01772">
        <ele>129</ele>
        <time>2015-06-10T09:22:29Z</time>
      </trkpt>
      <trkpt lat="48.20113" lon="-3.01771">
        <ele>128</ele>
        <time>2015-06-10T09:22:31Z</time>
      </trkpt>
      <trkpt lat="48.2011" lon="-3.0177">
        <ele>128</ele>
        <time>2015-06-10T09:22:33Z</time>
      </trkpt>
      <trkpt lat="48.20107" lon="-3.0177">
        <ele>128</ele>
        <time>2015-06-10T09:22:35Z</time>
      </trkpt>
      <trkpt lat="48.20103" lon="-3.01771">
        <ele>128</ele>
        <time>2015-06-10T09:22:37Z</time>
      </trkpt>
      <trkpt lat="48.20102" lon="-3.0177">
        <ele>127</ele>
        <time>2015-06-10T09:22:39Z</time>
      </trkpt>
      <trkpt lat="48.201" lon="-3.01769">
        <ele>127</ele>
        <time>2015-06-10T09:22:41Z</time>
      </trkpt>
      <trkpt lat="48.20098" lon="-3.01768">
        <ele>126</ele>
        <time>2015-06-10T09:22:43Z</time>
      </trkpt>
      <trkpt lat="48.20096" lon="-3.01768">
        <ele>125</ele>
        <time>2015-06-10T09:22:45Z</time>
      </trkpt>
      <trkpt lat="48.20093" lon="-3.01766">
        <ele>125</ele>
        <time>2015-06-10T09:22:47Z</time>
      </trkpt>
      <trkpt lat="48.2009" lon="-3.01763">
        <ele>125</ele>
        <time>2015-06-10T09:22:49Z</time>
      </trkpt>
      <trkpt lat="48.20088" lon="-3.0176">
        <ele>125</ele>
        <time>2015-06-10T09:22:51Z</time>
      </trkpt>
      <trkpt lat="48.20086" lon="-3.01758">
        <ele>125</ele>
        <time>2015-06-10T09:22:53Z</time>
      </trkpt>
      <trkpt lat="48.20084" lon="-3.01755">
        <ele>125</ele>
        <time>2015-06-10T09:22:55Z</time>
      </trkpt>
      <trkpt lat="48.20081" lon="-3.01752">
        <ele>125</ele>
        <time>2015-06-10T09:22:58Z</time>
      </trkpt>
      <trkpt lat="48.20079" lon="-3.0175">
        <ele>125</ele>
        <time>2015-06-10T09:23:00Z</time>
      </trkpt>
      <trkpt lat="48.20076" lon="-3.01749">
        <ele>125</ele>
        <time>2015-06-10T09:23:02Z</time>
      </trkpt>
      <trkpt lat="48.20074" lon="-3.01748">
        <ele>125</ele>
        <time>2015-06-10T09:23:04Z</time>
      </trkpt>
      <trkpt lat="48.20071" lon="-3.01749">
        <ele>125</ele>
        <time>2015-06-10T09:23:06Z</time>
      </trkpt>
      <trkpt lat="48.20067" lon="-3.01748">
        <ele>125</ele>
        <time>2015-06-10T09:23:09Z</time>
      </trkpt>
      <trkpt lat="48.20065" lon="-3.01746">
        <ele>125</ele>
        <time>2015-06-10T09:23:11Z</time>
      </trkpt>
      <trkpt lat="48.20063" lon="-3.01745">
        <ele>125</ele>
        <time>2015-06-10T09:23:13Z</time>
      </trkpt>
      <trkpt lat="48.20061" lon="-3.01744">
        <ele>125</ele>
        <time>2015-06-10T09:23:15Z</time>
      </trkpt>
      <trkpt lat="48.2006" lon="-3.01742">
        <ele>125</ele>
        <time>2015-06-10T09:23:17Z</time>
      </trkpt>
      <trkpt lat="48.20057" lon="-3.01744">
        <ele>125</ele>
        <time>2015-06-10T09:23:19Z</time>
      </trkpt>
      <trkpt lat="48.20055" lon="-3.01746">
        <ele>125</ele>
        <time>2015-06-10T09:23:21Z</time>
      </trkpt>
      <trkpt lat="48.20052" lon="-3.01749">
        <ele>125</ele>
        <time>2015-06-10T09:23:25Z</time>
      </trkpt>
      <trkpt lat="48.20049" lon="-3.0175">
        <ele>125</ele>
        <time>2015-06-10T09:23:27Z</time>
      </trkpt>
      <trkpt lat="48.20046" lon="-3.01751">
        <ele>125</ele>
        <time>2015-06-10T09:23:29Z</time>
      </trkpt>
      <trkpt lat="48.20045" lon="-3.01751">
        <ele>125</ele>
        <time>2015-06-10T09:23:31Z</time>
      </trkpt>
      <trkpt lat="48.20043" lon="-3.01751">
        <ele>125</ele>
        <time>2015-06-10T09:23:33Z</time>
      </trkpt>
      <trkpt lat="48.20041" lon="-3.01751">
        <ele>125</ele>
        <time>2015-06-10T09:23:35Z</time>
      </trkpt>
      <trkpt lat="48.20039" lon="-3.01751">
        <ele>125</ele>
        <time>2015-06-10T09:23:37Z</time>
      </trkpt>
      <trkpt lat="48.20036" lon="-3.01751">
        <ele>125</ele>
        <time>2015-06-10T09:23:40Z</time>
      </trkpt>
      <trkpt lat="48.20033" lon="-3.01754">
        <ele>125</ele>
        <time>2015-06-10T09:23:42Z</time>
      </trkpt>
      <trkpt lat="48.20031" lon="-3.01754">
        <ele>125</ele>
        <time>2015-06-10T09:23:44Z</time>
      </trkpt>
      <trkpt lat="48.20029" lon="-3.01754">
        <ele>125</ele>
        <time>2015-06-10T09:23:46Z</time>
      </trkpt>
      <trkpt lat="48.20026" lon="-3.01753">
        <ele>125</ele>
        <time>2015-06-10T09:23:48Z</time>
      </trkpt>
      <trkpt lat="48.20025" lon="-3.01751">
        <ele>125</ele>
        <time>2015-06-10T09:23:50Z</time>
      </trkpt>
      <trkpt lat="48.20022" lon="-3.01751">
        <ele>125</ele>
        <time>2015-06-10T09:23:52Z</time>
      </trkpt>
      <trkpt lat="48.20021" lon="-3.01748">
        <ele>125</ele>
        <time>2015-06-10T09:23:54Z</time>
      </trkpt>
      <trkpt lat="48.20019" lon="-3.01745">
        <ele>125</ele>
        <time>2015-06-10T09:23:56Z</time>
      </trkpt>
      <trkpt lat="48.20015" lon="-3.01743">
        <ele>128</ele>
        <time>2015-06-10T09:23:59Z</time>
      </trkpt>
      <trkpt lat="48.20013" lon="-3.01741">
        <ele>130</ele>
        <time>2015-06-10T09:24:01Z</time>
      </trkpt>
      <trkpt lat="48.20012" lon="-3.01739">
        <ele>131</ele>
        <time>2015-06-10T09:24:03Z</time>
      </trkpt>
      <trkpt lat="48.20011" lon="-3.01737">
        <ele>131</ele>
        <time>2015-06-10T09:24:05Z</time>
      </trkpt>
      <trkpt lat="48.20009" lon="-3.01734">
        <ele>132</ele>
        <time>2015-06-10T09:24:07Z</time>
      </trkpt>
      <trkpt lat="48.20006" lon="-3.01734">
        <ele>132</ele>
        <time>2015-06-10T09:24:10Z</time>
      </trkpt>
      <trkpt lat="48.20005" lon="-3.01733">
        <ele>132</ele>
        <time>2015-06-10T09:24:13Z</time>
      </trkpt>
      <trkpt lat="48.20004" lon="-3.01731">
        <ele>132</ele>
        <time>2015-06-10T09:24:15Z</time>
      </trkpt>
      <trkpt lat="48.20003" lon="-3.01729">
        <ele>132</ele>
        <time>2015-06-10T09:24:17Z</time>
      </trkpt>
      <trkpt lat="48.2" lon="-3.01725">
        <ele>131</ele>
        <time>2015-06-10T09:24:19Z</time>
      </trkpt>
      <trkpt lat="48.19998" lon="-3.01724">
        <ele>131</ele>
        <time>2015-06-10T09:24:21Z</time>
      </trkpt>
      <trkpt lat="48.19995" lon="-3.01722">
        <ele>131</ele>
        <time>2015-06-10T09:24:24Z</time>
      </trkpt>
      <trkpt lat="48.19994" lon="-3.01721">
        <ele>131</ele>
        <time>2015-06-10T09:24:26Z</time>
      </trkpt>
      <trkpt lat="48.19992" lon="-3.01718">
        <ele>131</ele>
        <time>2015-06-10T09:24:29Z</time>
      </trkpt>
      <trkpt lat="48.19991" lon="-3.01717">
        <ele>131</ele>
        <time>2015-06-10T09:24:31Z</time>
      </trkpt>
      <trkpt lat="48.1999" lon="-3.01715">
        <ele>131</ele>
        <time>2015-06-10T09:24:33Z</time>
      </trkpt>
      <trkpt lat="48.19988" lon="-3.01714">
        <ele>130</ele>
        <time>2015-06-10T09:24:35Z</time>
      </trkpt>
      <trkpt lat="48.19985" lon="-3.01713">
        <ele>130</ele>
        <time>2015-06-10T09:24:37Z</time>
      </trkpt>
      <trkpt lat="48.19982" lon="-3.01712">
        <ele>128</ele>
        <time>2015-06-10T09:24:40Z</time>
      </trkpt>
      <trkpt lat="48.19981" lon="-3.0171">
        <ele>127</ele>
        <time>2015-06-10T09:24:42Z</time>
      </trkpt>
      <trkpt lat="48.19979" lon="-3.01709">
        <ele>127</ele>
        <time>2015-06-10T09:24:44Z</time>
      </trkpt>
      <trkpt lat="48.19977" lon="-3.01708">
        <ele>127</ele>
        <time>2015-06-10T09:24:46Z</time>
      </trkpt>
      <trkpt lat="48.19976" lon="-3.01707">
        <ele>127</ele>
        <time>2015-06-10T09:24:48Z</time>
      </trkpt>
      <trkpt lat="48.19974" lon="-3.01706">
        <ele>126</ele>
        <time>2015-06-10T09:24:50Z</time>
      </trkpt>
      <trkpt lat="48.19973" lon="-3.01705">
        <ele>126</ele>
        <time>2015-06-10T09:24:52Z</time>
      </trkpt>
      <trkpt lat="48.19971" lon="-3.01702">
        <ele>125</ele>
        <time>2015-06-10T09:24:54Z</time>
      </trkpt>
      <trkpt lat="48.1997" lon="-3.017">
        <ele>125</ele>
        <time>2015-06-10T09:24:56Z</time>
      </trkpt>
      <trkpt lat="48.19969" lon="-3.017">
        <ele>124</ele>
        <time>2015-06-10T09:24:59Z</time>
      </trkpt>
      <trkpt lat="48.19967" lon="-3.017">
        <ele>123</ele>
        <time>2015-06-10T09:25:01Z</time>
      </trkpt>
      <trkpt lat="48.19965" lon="-3.017">
        <ele>123</ele>
        <time>2015-06-10T09:25:03Z</time>
      </trkpt>
      <trkpt lat="48.19964" lon="-3.01699">
        <ele>123</ele>
        <time>2015-06-10T09:25:05Z</time>
      </trkpt>
      <trkpt lat="48.19962" lon="-3.01699">
        <ele>123</ele>
        <time>2015-06-10T09:25:07Z</time>
      </trkpt>
      <trkpt lat="48.19959" lon="-3.01697">
        <ele>123</ele>
        <time>2015-06-10T09:25:10Z</time>
      </trkpt>
      <trkpt lat="48.19957" lon="-3.01697">
        <ele>123</ele>
        <time>2015-06-10T09:25:12Z</time>
      </trkpt>
      <trkpt lat="48.19955" lon="-3.01695">
        <ele>123</ele>
        <time>2015-06-10T09:25:14Z</time>
      </trkpt>
      <trkpt lat="48.19951" lon="-3.01694">
        <ele>123</ele>
        <time>2015-06-10T09:25:17Z</time>
      </trkpt>
      <trkpt lat="48.19948" lon="-3.01694">
        <ele>123</ele>
        <time>2015-06-10T09:25:19Z</time>
      </trkpt>
      <trkpt lat="48.19944" lon="-3.01695">
        <ele>123</ele>
        <time>2015-06-10T09:25:22Z</time>
      </trkpt>
      <trkpt lat="48.19942" lon="-3.01695">
        <ele>123</ele>
        <time>2015-06-10T09:25:24Z</time>
      </trkpt>
      <trkpt lat="48.1994" lon="-3.01695">
        <ele>123</ele>
        <time>2015-06-10T09:25:26Z</time>
      </trkpt>
      <trkpt lat="48.19939" lon="-3.01695">
        <ele>123</ele>
        <time>2015-06-10T09:25:34Z</time>
      </trkpt>
      <trkpt lat="48.19938" lon="-3.01695">
        <ele>124</ele>
        <time>2015-06-10T09:25:41Z</time>
      </trkpt>
      <trkpt lat="48.19937" lon="-3.01695">
        <ele>125</ele>
        <time>2015-06-10T09:25:50Z</time>
      </trkpt>
      <trkpt lat="48.19935" lon="-3.01695">
        <ele>125</ele>
        <time>2015-06-10T09:25:52Z</time>
      </trkpt>
      <trkpt lat="48.19933" lon="-3.01695">
        <ele>125</ele>
        <time>2015-06-10T09:25:54Z</time>
      </trkpt>
      <trkpt lat="48.19931" lon="-3.01696">
        <ele>125</ele>
        <time>2015-06-10T09:25:56Z</time>
      </trkpt>
      <trkpt lat="48.19928" lon="-3.01697">
        <ele>125</ele>
        <time>2015-06-10T09:25:59Z</time>
      </trkpt>
      <trkpt lat="48.19927" lon="-3.01698">
        <ele>125</ele>
        <time>2015-06-10T09:26:01Z</time>
      </trkpt>
      <trkpt lat="48.19925" lon="-3.01699">
        <ele>125</ele>
        <time>2015-06-10T09:26:03Z</time>
      </trkpt>
      <trkpt lat="48.19923" lon="-3.017">
        <ele>125</ele>
        <time>2015-06-10T09:26:05Z</time>
      </trkpt>
      <trkpt lat="48.19921" lon="-3.01702">
        <ele>125</ele>
        <time>2015-06-10T09:26:07Z</time>
      </trkpt>
      <trkpt lat="48.1992" lon="-3.01703">
        <ele>125</ele>
        <time>2015-06-10T09:26:09Z</time>
      </trkpt>
      <trkpt lat="48.19918" lon="-3.01704">
        <ele>126</ele>
        <time>2015-06-10T09:26:11Z</time>
      </trkpt>
      <trkpt lat="48.19918" lon="-3.01706">
        <ele>126</ele>
        <time>2015-06-10T09:26:13Z</time>
      </trkpt>
      <trkpt lat="48.19917" lon="-3.01709">
        <ele>127</ele>
        <time>2015-06-10T09:26:17Z</time>
      </trkpt>
      <trkpt lat="48.19917" lon="-3.01711">
        <ele>127</ele>
        <time>2015-06-10T09:26:19Z</time>
      </trkpt>
      <trkpt lat="48.19916" lon="-3.01713">
        <ele>127</ele>
        <time>2015-06-10T09:26:21Z</time>
      </trkpt>
      <trkpt lat="48.19915" lon="-3.01715">
        <ele>127</ele>
        <time>2015-06-10T09:26:23Z</time>
      </trkpt>
      <trkpt lat="48.19915" lon="-3.01718">
        <ele>128</ele>
        <time>2015-06-10T09:26:25Z</time>
      </trkpt>
      <trkpt lat="48.19914" lon="-3.0172">
        <ele>128</ele>
        <time>2015-06-10T09:26:27Z</time>
      </trkpt>
      <trkpt lat="48.19913" lon="-3.01723">
        <ele>128</ele>
        <time>2015-06-10T09:26:29Z</time>
      </trkpt>
      <trkpt lat="48.19913" lon="-3.01725">
        <ele>129</ele>
        <time>2015-06-10T09:26:31Z</time>
      </trkpt>
      <trkpt lat="48.19913" lon="-3.01726">
        <ele>130</ele>
        <time>2015-06-10T09:26:33Z</time>
      </trkpt>
      <trkpt lat="48.19912" lon="-3.01729">
        <ele>131</ele>
        <time>2015-06-10T09:26:35Z</time>
      </trkpt>
      <trkpt lat="48.19913" lon="-3.01731">
        <ele>132</ele>
        <time>2015-06-10T09:26:37Z</time>
      </trkpt>
      <trkpt lat="48.19913" lon="-3.01734">
        <ele>132</ele>
        <time>2015-06-10T09:26:39Z</time>
      </trkpt>
      <trkpt lat="48.19914" lon="-3.01738">
        <ele>133</ele>
        <time>2015-06-10T09:26:41Z</time>
      </trkpt>
      <trkpt lat="48.19916" lon="-3.01743">
        <ele>133</ele>
        <time>2015-06-10T09:26:44Z</time>
      </trkpt>
      <trkpt lat="48.19916" lon="-3.01746">
        <ele>133</ele>
        <time>2015-06-10T09:26:46Z</time>
      </trkpt>
      <trkpt lat="48.19917" lon="-3.01751">
        <ele>133</ele>
        <time>2015-06-10T09:26:49Z</time>
      </trkpt>
      <trkpt lat="48.19917" lon="-3.01756">
        <ele>134</ele>
        <time>2015-06-10T09:26:51Z</time>
      </trkpt>
      <trkpt lat="48.19917" lon="-3.0176">
        <ele>134</ele>
        <time>2015-06-10T09:26:54Z</time>
      </trkpt>
      <trkpt lat="48.19917" lon="-3.01763">
        <ele>134</ele>
        <time>2015-06-10T09:26:56Z</time>
      </trkpt>
      <trkpt lat="48.19918" lon="-3.01766">
        <ele>134</ele>
        <time>2015-06-10T09:26:58Z</time>
      </trkpt>
      <trkpt lat="48.19918" lon="-3.01769">
        <ele>134</ele>
        <time>2015-06-10T09:27:00Z</time>
      </trkpt>
      <trkpt lat="48.19918" lon="-3.01771">
        <ele>134</ele>
        <time>2015-06-10T09:27:02Z</time>
      </trkpt>
      <trkpt lat="48.19918" lon="-3.01775">
        <ele>134</ele>
        <time>2015-06-10T09:27:04Z</time>
      </trkpt>
      <trkpt lat="48.19919" lon="-3.01777">
        <ele>135</ele>
        <time>2015-06-10T09:27:06Z</time>
      </trkpt>
      <trkpt lat="48.1992" lon="-3.01779">
        <ele>136</ele>
        <time>2015-06-10T09:27:09Z</time>
      </trkpt>
      <trkpt lat="48.19922" lon="-3.01781">
        <ele>137</ele>
        <time>2015-06-10T09:27:11Z</time>
      </trkpt>
      <trkpt lat="48.19923" lon="-3.01783">
        <ele>138</ele>
        <time>2015-06-10T09:27:13Z</time>
      </trkpt>
      <trkpt lat="48.19925" lon="-3.01784">
        <ele>138</ele>
        <time>2015-06-10T09:27:15Z</time>
      </trkpt>
      <trkpt lat="48.19925" lon="-3.01788">
        <ele>138</ele>
        <time>2015-06-10T09:27:17Z</time>
      </trkpt>
      <trkpt lat="48.19926" lon="-3.01793">
        <ele>139</ele>
        <time>2015-06-10T09:27:20Z</time>
      </trkpt>
      <trkpt lat="48.19927" lon="-3.01796">
        <ele>139</ele>
        <time>2015-06-10T09:27:22Z</time>
      </trkpt>
      <trkpt lat="48.19928" lon="-3.018">
        <ele>139</ele>
        <time>2015-06-10T09:27:24Z</time>
      </trkpt>
      <trkpt lat="48.19929" lon="-3.01802">
        <ele>139</ele>
        <time>2015-06-10T09:27:26Z</time>
      </trkpt>
      <trkpt lat="48.1993" lon="-3.01804">
        <ele>139</ele>
        <time>2015-06-10T09:27:28Z</time>
      </trkpt>
      <trkpt lat="48.1993" lon="-3.01806">
        <ele>139</ele>
        <time>2015-06-10T09:27:30Z</time>
      </trkpt>
      <trkpt lat="48.19932" lon="-3.01807">
        <ele>139</ele>
        <time>2015-06-10T09:27:33Z</time>
      </trkpt>
      <trkpt lat="48.19933" lon="-3.01809">
        <ele>139</ele>
        <time>2015-06-10T09:27:36Z</time>
      </trkpt>
      <trkpt lat="48.19934" lon="-3.01811">
        <ele>140</ele>
        <time>2015-06-10T09:27:39Z</time>
      </trkpt>
      <trkpt lat="48.19935" lon="-3.01813">
        <ele>140</ele>
        <time>2015-06-10T09:27:41Z</time>
      </trkpt>
      <trkpt lat="48.19937" lon="-3.01814">
        <ele>140</ele>
        <time>2015-06-10T09:27:43Z</time>
      </trkpt>
      <trkpt lat="48.19938" lon="-3.01814">
        <ele>142</ele>
        <time>2015-06-10T09:27:46Z</time>
      </trkpt>
      <trkpt lat="48.1994" lon="-3.01813">
        <ele>143</ele>
        <time>2015-06-10T09:27:48Z</time>
      </trkpt>
      <trkpt lat="48.19942" lon="-3.0181">
        <ele>144</ele>
        <time>2015-06-10T09:27:50Z</time>
      </trkpt>
      <trkpt lat="48.19944" lon="-3.01809">
        <ele>145</ele>
        <time>2015-06-10T09:27:52Z</time>
      </trkpt>
      <trkpt lat="48.19946" lon="-3.01809">
        <ele>146</ele>
        <time>2015-06-10T09:27:54Z</time>
      </trkpt>
      <trkpt lat="48.19946" lon="-3.01807">
        <ele>148</ele>
        <time>2015-06-10T09:28:03Z</time>
      </trkpt>
      <trkpt lat="48.19947" lon="-3.01805">
        <ele>150</ele>
        <time>2015-06-10T09:28:20Z</time>
      </trkpt>
      <trkpt lat="48.19948" lon="-3.01805">
        <ele>154</ele>
        <time>2015-06-10T09:28:36Z</time>
      </trkpt>
      <trkpt lat="48.19948" lon="-3.01806">
        <ele>154</ele>
        <time>2015-06-10T09:28:42Z</time>
      </trkpt>
      <trkpt lat="48.19948" lon="-3.01808">
        <ele>154</ele>
        <time>2015-06-10T09:28:47Z</time>
      </trkpt>
      <trkpt lat="48.19948" lon="-3.01806">
        <ele>150</ele>
        <time>2015-06-10T09:29:03Z</time>
      </trkpt>
      <trkpt lat="48.19949" lon="-3.01804">
        <ele>149</ele>
        <time>2015-06-10T09:29:05Z</time>
      </trkpt>
      <trkpt lat="48.19949" lon="-3.01801">
        <ele>149</ele>
        <time>2015-06-10T09:29:07Z</time>
      </trkpt>
      <trkpt lat="48.1995" lon="-3.01799">
        <ele>148</ele>
        <time>2015-06-10T09:29:09Z</time>
      </trkpt>
      <trkpt lat="48.19951" lon="-3.01797">
        <ele>147</ele>
        <time>2015-06-10T09:29:11Z</time>
      </trkpt>
      <trkpt lat="48.19952" lon="-3.01796">
        <ele>147</ele>
        <time>2015-06-10T09:29:13Z</time>
      </trkpt>
      <trkpt lat="48.19954" lon="-3.01795">
        <ele>147</ele>
        <time>2015-06-10T09:29:16Z</time>
      </trkpt>
      <trkpt lat="48.19953" lon="-3.01798">
        <ele>147</ele>
        <time>2015-06-10T09:29:21Z</time>
      </trkpt>
      <trkpt lat="48.19953" lon="-3.018">
        <ele>147</ele>
        <time>2015-06-10T09:29:23Z</time>
      </trkpt>
      <trkpt lat="48.19953" lon="-3.01802">
        <ele>147</ele>
        <time>2015-06-10T09:29:26Z</time>
      </trkpt>
      <trkpt lat="48.19954" lon="-3.01805">
        <ele>147</ele>
        <time>2015-06-10T09:29:28Z</time>
      </trkpt>
      <trkpt lat="48.19954" lon="-3.01807">
        <ele>147</ele>
        <time>2015-06-10T09:29:30Z</time>
      </trkpt>
      <trkpt lat="48.19954" lon="-3.01809">
        <ele>147</ele>
        <time>2015-06-10T09:29:42Z</time>
      </trkpt>
      <trkpt lat="48.19955" lon="-3.01809">
        <ele>147</ele>
        <time>2015-06-10T09:29:49Z</time>
      </trkpt>
      <trkpt lat="48.19955" lon="-3.01808">
        <ele>147</ele>
        <time>2015-06-10T09:29:53Z</time>
      </trkpt>
      <trkpt lat="48.19955" lon="-3.01806">
        <ele>147</ele>
        <time>2015-06-10T09:29:55Z</time>
      </trkpt>
      <trkpt lat="48.19954" lon="-3.01801">
        <ele>149</ele>
        <time>2015-06-10T09:30:01Z</time>
      </trkpt>
      <trkpt lat="48.19954" lon="-3.01803">
        <ele>150</ele>
        <time>2015-06-10T09:30:07Z</time>
      </trkpt>
      <trkpt lat="48.19958" lon="-3.01807">
        <ele>150</ele>
        <time>2015-06-10T09:30:09Z</time>
      </trkpt>
      <trkpt lat="48.19961" lon="-3.01809">
        <ele>148</ele>
        <time>2015-06-10T09:30:12Z</time>
      </trkpt>
      <trkpt lat="48.1996" lon="-3.01807">
        <ele>146</ele>
        <time>2015-06-10T09:30:14Z</time>
      </trkpt>
      <trkpt lat="48.19961" lon="-3.01805">
        <ele>146</ele>
        <time>2015-06-10T09:30:18Z</time>
      </trkpt>
      <trkpt lat="48.19957" lon="-3.01803">
        <ele>148</ele>
        <time>2015-06-10T09:30:22Z</time>
      </trkpt>
      <trkpt lat="48.19957" lon="-3.01801">
        <ele>150</ele>
        <time>2015-06-10T09:30:24Z</time>
      </trkpt>
      <trkpt lat="48.19956" lon="-3.01799">
        <ele>151</ele>
        <time>2015-06-10T09:30:28Z</time>
      </trkpt>
      <trkpt lat="48.19957" lon="-3.01798">
        <ele>153</ele>
        <time>2015-06-10T09:30:31Z</time>
      </trkpt>
      <trkpt lat="48.19956" lon="-3.01799">
        <ele>153</ele>
        <time>2015-06-10T09:30:45Z</time>
      </trkpt>
      <trkpt lat="48.19954" lon="-3.01797">
        <ele>151</ele>
        <time>2015-06-10T09:30:47Z</time>
      </trkpt>
      <trkpt lat="48.19955" lon="-3.01795">
        <ele>149</ele>
        <time>2015-06-10T09:30:50Z</time>
      </trkpt>
      <trkpt lat="48.19955" lon="-3.01797">
        <ele>147</ele>
        <time>2015-06-10T09:30:57Z</time>
      </trkpt>
      <trkpt lat="48.19956" lon="-3.01799">
        <ele>147</ele>
        <time>2015-06-10T09:30:59Z</time>
      </trkpt>
      <trkpt lat="48.19956" lon="-3.01801">
        <ele>147</ele>
        <time>2015-06-10T09:31:01Z</time>
      </trkpt>
      <trkpt lat="48.19957" lon="-3.01805">
        <ele>147</ele>
        <time>2015-06-10T09:31:03Z</time>
      </trkpt>
      <trkpt lat="48.19957" lon="-3.01809">
        <ele>147</ele>
        <time>2015-06-10T09:31:05Z</time>
      </trkpt>
      <trkpt lat="48.19957" lon="-3.01813">
        <ele>146</ele>
        <time>2015-06-10T09:31:07Z</time>
      </trkpt>
      <trkpt lat="48.19957" lon="-3.01815">
        <ele>145</ele>
        <time>2015-06-10T09:31:09Z</time>
      </trkpt>
      <trkpt lat="48.19956" lon="-3.01817">
        <ele>144</ele>
        <time>2015-06-10T09:31:12Z</time>
      </trkpt>
      <trkpt lat="48.19955" lon="-3.01818">
        <ele>144</ele>
        <time>2015-06-10T09:31:14Z</time>
      </trkpt>
      <trkpt lat="48.19952" lon="-3.0182">
        <ele>144</ele>
        <time>2015-06-10T09:31:16Z</time>
      </trkpt>
      <trkpt lat="48.19952" lon="-3.01817">
        <ele>144</ele>
        <time>2015-06-10T09:31:24Z</time>
      </trkpt>
      <trkpt lat="48.19952" lon="-3.01816">
        <ele>144</ele>
        <time>2015-06-10T09:31:26Z</time>
      </trkpt>
      <trkpt lat="48.19952" lon="-3.01818">
        <ele>144</ele>
        <time>2015-06-10T09:31:34Z</time>
      </trkpt>
      <trkpt lat="48.19952" lon="-3.01821">
        <ele>144</ele>
        <time>2015-06-10T09:31:36Z</time>
      </trkpt>
      <trkpt lat="48.19954" lon="-3.0182">
        <ele>144</ele>
        <time>2015-06-10T09:31:46Z</time>
      </trkpt>
      <trkpt lat="48.19955" lon="-3.01822">
        <ele>144</ele>
        <time>2015-06-10T09:31:48Z</time>
      </trkpt>
      <trkpt lat="48.19956" lon="-3.01824">
        <ele>144</ele>
        <time>2015-06-10T09:31:50Z</time>
      </trkpt>
      <trkpt lat="48.19957" lon="-3.01826">
        <ele>144</ele>
        <time>2015-06-10T09:31:52Z</time>
      </trkpt>
      <trkpt lat="48.19959" lon="-3.01826">
        <ele>145</ele>
        <time>2015-06-10T09:32:03Z</time>
      </trkpt>
      <trkpt lat="48.19957" lon="-3.01827">
        <ele>147</ele>
        <time>2015-06-10T09:32:06Z</time>
      </trkpt>
      <trkpt lat="48.19957" lon="-3.01825">
        <ele>147</ele>
        <time>2015-06-10T09:32:09Z</time>
      </trkpt>
      <trkpt lat="48.19955" lon="-3.01824">
        <ele>147</ele>
        <time>2015-06-10T09:32:14Z</time>
      </trkpt>
      <trkpt lat="48.19954" lon="-3.01822">
        <ele>147</ele>
        <time>2015-06-10T09:32:20Z</time>
      </trkpt>
      <trkpt lat="48.19953" lon="-3.0182">
        <ele>147</ele>
        <time>2015-06-10T09:32:22Z</time>
      </trkpt>
      <trkpt lat="48.19952" lon="-3.01818">
        <ele>146</ele>
        <time>2015-06-10T09:32:24Z</time>
      </trkpt>
      <trkpt lat="48.19951" lon="-3.01817">
        <ele>146</ele>
        <time>2015-06-10T09:32:26Z</time>
      </trkpt>
      <trkpt lat="48.19949" lon="-3.01814">
        <ele>146</ele>
        <time>2015-06-10T09:32:30Z</time>
      </trkpt>
      <trkpt lat="48.1995" lon="-3.01812">
        <ele>146</ele>
        <time>2015-06-10T09:32:36Z</time>
      </trkpt>
      <trkpt lat="48.1995" lon="-3.0181">
        <ele>148</ele>
        <time>2015-06-10T09:32:45Z</time>
      </trkpt>
      <trkpt lat="48.1995" lon="-3.01806">
        <ele>154</ele>
        <time>2015-06-10T09:32:51Z</time>
      </trkpt>
      <trkpt lat="48.1995" lon="-3.01807">
        <ele>155</ele>
        <time>2015-06-10T09:32:57Z</time>
      </trkpt>
      <trkpt lat="48.19951" lon="-3.01809">
        <ele>155</ele>
        <time>2015-06-10T09:33:08Z</time>
      </trkpt>
      <trkpt lat="48.19952" lon="-3.01811">
        <ele>154</ele>
        <time>2015-06-10T09:33:16Z</time>
      </trkpt>
      <trkpt lat="48.19953" lon="-3.01812">
        <ele>153</ele>
        <time>2015-06-10T09:33:21Z</time>
      </trkpt>
      <trkpt lat="48.19954" lon="-3.01815">
        <ele>151</ele>
        <time>2015-06-10T09:33:33Z</time>
      </trkpt>
      <trkpt lat="48.19952" lon="-3.01816">
        <ele>151</ele>
        <time>2015-06-10T09:33:36Z</time>
      </trkpt>
      <trkpt lat="48.19951" lon="-3.01815">
        <ele>151</ele>
        <time>2015-06-10T09:33:38Z</time>
      </trkpt>
      <trkpt lat="48.19952" lon="-3.01814">
        <ele>151</ele>
        <time>2015-06-10T09:33:50Z</time>
      </trkpt>
      <trkpt lat="48.19951" lon="-3.01814">
        <ele>151</ele>
        <time>2015-06-10T09:33:57Z</time>
      </trkpt>
      <trkpt lat="48.1995" lon="-3.01815">
        <ele>151</ele>
        <time>2015-06-10T09:34:03Z</time>
      </trkpt>
      <trkpt lat="48.19951" lon="-3.01816">
        <ele>151</ele>
        <time>2015-06-10T09:34:20Z</time>
      </trkpt>
      <trkpt lat="48.19952" lon="-3.01816">
        <ele>151</ele>
        <time>2015-06-10T09:34:24Z</time>
      </trkpt>
      <trkpt lat="48.19954" lon="-3.01817">
        <ele>151</ele>
        <time>2015-06-10T09:34:30Z</time>
      </trkpt>
      <trkpt lat="48.19954" lon="-3.01819">
        <ele>151</ele>
        <time>2015-06-10T09:34:35Z</time>
      </trkpt>
      <trkpt lat="48.19955" lon="-3.01821">
        <ele>151</ele>
        <time>2015-06-10T09:34:38Z</time>
      </trkpt>
      <trkpt lat="48.19955" lon="-3.01824">
        <ele>151</ele>
        <time>2015-06-10T09:34:40Z</time>
      </trkpt>
      <trkpt lat="48.19955" lon="-3.01822">
        <ele>151</ele>
        <time>2015-06-10T09:34:47Z</time>
      </trkpt>
      <trkpt lat="48.19955" lon="-3.0182">
        <ele>151</ele>
        <time>2015-06-10T09:34:50Z</time>
      </trkpt>
      <trkpt lat="48.19953" lon="-3.01818">
        <ele>151</ele>
        <time>2015-06-10T09:34:52Z</time>
      </trkpt>
      <trkpt lat="48.19952" lon="-3.01817">
        <ele>151</ele>
        <time>2015-06-10T09:34:54Z</time>
      </trkpt>
      <trkpt lat="48.1995" lon="-3.01814">
        <ele>151</ele>
        <time>2015-06-10T09:34:58Z</time>
      </trkpt>
      <trkpt lat="48.19949" lon="-3.01812">
        <ele>151</ele>
        <time>2015-06-10T09:35:01Z</time>
      </trkpt>
      <trkpt lat="48.19949" lon="-3.01811">
        <ele>151</ele>
        <time>2015-06-10T09:35:03Z</time>
      </trkpt>
      <trkpt lat="48.19949" lon="-3.01809">
        <ele>151</ele>
        <time>2015-06-10T09:35:08Z</time>
      </trkpt>
      <trkpt lat="48.1995" lon="-3.01808">
        <ele>151</ele>
        <time>2015-06-10T09:35:19Z</time>
      </trkpt>
      <trkpt lat="48.19949" lon="-3.01809">
        <ele>151</ele>
        <time>2015-06-10T09:35:31Z</time>
      </trkpt>
      <trkpt lat="48.19947" lon="-3.01808">
        <ele>151</ele>
        <time>2015-06-10T09:35:38Z</time>
      </trkpt>
      <trkpt lat="48.19947" lon="-3.0181">
        <ele>152</ele>
        <time>2015-06-10T09:35:47Z</time>
      </trkpt>
      <trkpt lat="48.19946" lon="-3.01812">
        <ele>152</ele>
        <time>2015-06-10T09:35:50Z</time>
      </trkpt>
      <trkpt lat="48.19944" lon="-3.01813">
        <ele>152</ele>
        <time>2015-06-10T09:35:52Z</time>
      </trkpt>
      <trkpt lat="48.19941" lon="-3.01816">
        <ele>152</ele>
        <time>2015-06-10T09:35:55Z</time>
      </trkpt>
      <trkpt lat="48.1994" lon="-3.01819">
        <ele>152</ele>
        <time>2015-06-10T09:35:57Z</time>
      </trkpt>
      <trkpt lat="48.19937" lon="-3.01822">
        <ele>152</ele>
        <time>2015-06-10T09:36:01Z</time>
      </trkpt>
      <trkpt lat="48.19936" lon="-3.01821">
        <ele>152</ele>
        <time>2015-06-10T09:36:14Z</time>
      </trkpt>
      <trkpt lat="48.19935" lon="-3.01821">
        <ele>152</ele>
        <time>2015-06-10T09:36:21Z</time>
      </trkpt>
      <trkpt lat="48.19933" lon="-3.01823">
        <ele>152</ele>
        <time>2015-06-10T09:36:38Z</time>
      </trkpt>
      <trkpt lat="48.19932" lon="-3.01825">
        <ele>152</ele>
        <time>2015-06-10T09:36:40Z</time>
      </trkpt>
      <trkpt lat="48.19931" lon="-3.0183">
        <ele>152</ele>
        <time>2015-06-10T09:36:43Z</time>
      </trkpt>
      <trkpt lat="48.1993" lon="-3.01835">
        <ele>152</ele>
        <time>2015-06-10T09:36:47Z</time>
      </trkpt>
      <trkpt lat="48.19928" lon="-3.01838">
        <ele>152</ele>
        <time>2015-06-10T09:36:49Z</time>
      </trkpt>
      <trkpt lat="48.19926" lon="-3.01842">
        <ele>152</ele>
        <time>2015-06-10T09:36:53Z</time>
      </trkpt>
      <trkpt lat="48.19926" lon="-3.01843">
        <ele>152</ele>
        <time>2015-06-10T09:36:56Z</time>
      </trkpt>
      <trkpt lat="48.19925" lon="-3.01847">
        <ele>151</ele>
        <time>2015-06-10T09:37:01Z</time>
      </trkpt>
      <trkpt lat="48.19922" lon="-3.0185">
        <ele>150</ele>
        <time>2015-06-10T09:37:05Z</time>
      </trkpt>
      <trkpt lat="48.1992" lon="-3.01852">
        <ele>150</ele>
        <time>2015-06-10T09:37:07Z</time>
      </trkpt>
      <trkpt lat="48.1992" lon="-3.01855">
        <ele>150</ele>
        <time>2015-06-10T09:37:09Z</time>
      </trkpt>
      <trkpt lat="48.19919" lon="-3.01861">
        <ele>149</ele>
        <time>2015-06-10T09:37:12Z</time>
      </trkpt>
      <trkpt lat="48.19918" lon="-3.01867">
        <ele>149</ele>
        <time>2015-06-10T09:37:15Z</time>
      </trkpt>
      <trkpt lat="48.19918" lon="-3.01872">
        <ele>149</ele>
        <time>2015-06-10T09:37:17Z</time>
      </trkpt>
      <trkpt lat="48.19918" lon="-3.0188">
        <ele>149</ele>
        <time>2015-06-10T09:37:20Z</time>
      </trkpt>
      <trkpt lat="48.19918" lon="-3.01886">
        <ele>148</ele>
        <time>2015-06-10T09:37:23Z</time>
      </trkpt>
      <trkpt lat="48.19917" lon="-3.01893">
        <ele>148</ele>
        <time>2015-06-10T09:37:26Z</time>
      </trkpt>
      <trkpt lat="48.19917" lon="-3.01897">
        <ele>148</ele>
        <time>2015-06-10T09:37:28Z</time>
      </trkpt>
      <trkpt lat="48.19917" lon="-3.01902">
        <ele>148</ele>
        <time>2015-06-10T09:37:30Z</time>
      </trkpt>
      <trkpt lat="48.19918" lon="-3.0191">
        <ele>148</ele>
        <time>2015-06-10T09:37:33Z</time>
      </trkpt>
      <trkpt lat="48.19918" lon="-3.01917">
        <ele>148</ele>
        <time>2015-06-10T09:37:36Z</time>
      </trkpt>
      <trkpt lat="48.19917" lon="-3.0192">
        <ele>148</ele>
        <time>2015-06-10T09:37:38Z</time>
      </trkpt>
      <trkpt lat="48.19918" lon="-3.01924">
        <ele>148</ele>
        <time>2015-06-10T09:37:41Z</time>
      </trkpt>
      <trkpt lat="48.19919" lon="-3.01927">
        <ele>148</ele>
        <time>2015-06-10T09:37:43Z</time>
      </trkpt>
      <trkpt lat="48.1992" lon="-3.01933">
        <ele>148</ele>
        <time>2015-06-10T09:37:47Z</time>
      </trkpt>
      <trkpt lat="48.1992" lon="-3.01936">
        <ele>148</ele>
        <time>2015-06-10T09:37:49Z</time>
      </trkpt>
      <trkpt lat="48.19919" lon="-3.01941">
        <ele>148</ele>
        <time>2015-06-10T09:37:52Z</time>
      </trkpt>
      <trkpt lat="48.19918" lon="-3.01945">
        <ele>148</ele>
        <time>2015-06-10T09:37:54Z</time>
      </trkpt>
      <trkpt lat="48.19918" lon="-3.0195">
        <ele>148</ele>
        <time>2015-06-10T09:37:57Z</time>
      </trkpt>
      <trkpt lat="48.19916" lon="-3.01953">
        <ele>148</ele>
        <time>2015-06-10T09:37:59Z</time>
      </trkpt>
      <trkpt lat="48.19914" lon="-3.01959">
        <ele>148</ele>
        <time>2015-06-10T09:38:02Z</time>
      </trkpt>
      <trkpt lat="48.19912" lon="-3.01963">
        <ele>148</ele>
        <time>2015-06-10T09:38:04Z</time>
      </trkpt>
      <trkpt lat="48.1991" lon="-3.01968">
        <ele>148</ele>
        <time>2015-06-10T09:38:08Z</time>
      </trkpt>
      <trkpt lat="48.19908" lon="-3.01971">
        <ele>148</ele>
        <time>2015-06-10T09:38:10Z</time>
      </trkpt>
      <trkpt lat="48.19907" lon="-3.01973">
        <ele>148</ele>
        <time>2015-06-10T09:38:13Z</time>
      </trkpt>
      <trkpt lat="48.19906" lon="-3.01975">
        <ele>148</ele>
        <time>2015-06-10T09:38:15Z</time>
      </trkpt>
      <trkpt lat="48.19905" lon="-3.0198">
        <ele>148</ele>
        <time>2015-06-10T09:38:17Z</time>
      </trkpt>
      <trkpt lat="48.19904" lon="-3.01986">
        <ele>148</ele>
        <time>2015-06-10T09:38:20Z</time>
      </trkpt>
      <trkpt lat="48.19901" lon="-3.0199">
        <ele>148</ele>
        <time>2015-06-10T09:38:23Z</time>
      </trkpt>
      <trkpt lat="48.199" lon="-3.01994">
        <ele>148</ele>
        <time>2015-06-10T09:38:26Z</time>
      </trkpt>
      <trkpt lat="48.19901" lon="-3.02001">
        <ele>148</ele>
        <time>2015-06-10T09:38:30Z</time>
      </trkpt>
      <trkpt lat="48.19901" lon="-3.02004">
        <ele>148</ele>
        <time>2015-06-10T09:38:32Z</time>
      </trkpt>
      <trkpt lat="48.19902" lon="-3.02009">
        <ele>146</ele>
        <time>2015-06-10T09:38:35Z</time>
      </trkpt>
      <trkpt lat="48.199" lon="-3.02012">
        <ele>146</ele>
        <time>2015-06-10T09:38:38Z</time>
      </trkpt>
      <trkpt lat="48.19899" lon="-3.02012">
        <ele>146</ele>
        <time>2015-06-10T09:38:40Z</time>
      </trkpt>
      <trkpt lat="48.19897" lon="-3.02013">
        <ele>144</ele>
        <time>2015-06-10T09:38:43Z</time>
      </trkpt>
      <trkpt lat="48.19896" lon="-3.02013">
        <ele>141</ele>
        <time>2015-06-10T09:38:46Z</time>
      </trkpt>
      <trkpt lat="48.19894" lon="-3.02014">
        <ele>139</ele>
        <time>2015-06-10T09:38:49Z</time>
      </trkpt>
      <trkpt lat="48.19893" lon="-3.02014">
        <ele>137</ele>
        <time>2015-06-10T09:38:52Z</time>
      </trkpt>
      <trkpt lat="48.19891" lon="-3.02014">
        <ele>135</ele>
        <time>2015-06-10T09:38:54Z</time>
      </trkpt>
      <trkpt lat="48.19889" lon="-3.02017">
        <ele>134</ele>
        <time>2015-06-10T09:38:59Z</time>
      </trkpt>
      <trkpt lat="48.19888" lon="-3.02019">
        <ele>134</ele>
        <time>2015-06-10T09:39:01Z</time>
      </trkpt>
      <trkpt lat="48.19888" lon="-3.02021">
        <ele>134</ele>
        <time>2015-06-10T09:39:03Z</time>
      </trkpt>
      <trkpt lat="48.19889" lon="-3.02023">
        <ele>134</ele>
        <time>2015-06-10T09:39:05Z</time>
      </trkpt>
      <trkpt lat="48.19889" lon="-3.02026">
        <ele>134</ele>
        <time>2015-06-10T09:39:07Z</time>
      </trkpt>
      <trkpt lat="48.19889" lon="-3.02028">
        <ele>134</ele>
        <time>2015-06-10T09:39:09Z</time>
      </trkpt>
      <trkpt lat="48.19888" lon="-3.0203">
        <ele>134</ele>
        <time>2015-06-10T09:39:12Z</time>
      </trkpt>
      <trkpt lat="48.19886" lon="-3.02035">
        <ele>134</ele>
        <time>2015-06-10T09:39:17Z</time>
      </trkpt>
      <trkpt lat="48.19886" lon="-3.0204">
        <ele>134</ele>
        <time>2015-06-10T09:39:21Z</time>
      </trkpt>
      <trkpt lat="48.19885" lon="-3.02042">
        <ele>134</ele>
        <time>2015-06-10T09:39:23Z</time>
      </trkpt>
      <trkpt lat="48.19884" lon="-3.02044">
        <ele>132</ele>
        <time>2015-06-10T09:39:27Z</time>
      </trkpt>
      <trkpt lat="48.19883" lon="-3.02046">
        <ele>128</ele>
        <time>2015-06-10T09:39:37Z</time>
      </trkpt>
      <trkpt lat="48.19883" lon="-3.02044">
        <ele>128</ele>
        <time>2015-06-10T09:39:44Z</time>
      </trkpt>
      <trkpt lat="48.19881" lon="-3.02043">
        <ele>128</ele>
        <time>2015-06-10T09:39:49Z</time>
      </trkpt>
      <trkpt lat="48.1988" lon="-3.02044">
        <ele>129</ele>
        <time>2015-06-10T09:39:54Z</time>
      </trkpt>
      <trkpt lat="48.19878" lon="-3.02044">
        <ele>131</ele>
        <time>2015-06-10T09:40:01Z</time>
      </trkpt>
      <trkpt lat="48.19879" lon="-3.02046">
        <ele>132</ele>
        <time>2015-06-10T09:40:07Z</time>
      </trkpt>
      <trkpt lat="48.19878" lon="-3.02045">
        <ele>132</ele>
        <time>2015-06-10T09:40:30Z</time>
      </trkpt>
      <trkpt lat="48.1988" lon="-3.02044">
        <ele>132</ele>
        <time>2015-06-10T09:40:42Z</time>
      </trkpt>
      <trkpt lat="48.19878" lon="-3.02044">
        <ele>132</ele>
        <time>2015-06-10T09:40:54Z</time>
      </trkpt>
      <trkpt lat="48.19878" lon="-3.02042">
        <ele>132</ele>
        <time>2015-06-10T09:41:05Z</time>
      </trkpt>
      <trkpt lat="48.19881" lon="-3.02041">
        <ele>132</ele>
        <time>2015-06-10T09:41:13Z</time>
      </trkpt>
      <trkpt lat="48.19881" lon="-3.02042">
        <ele>132</ele>
        <time>2015-06-10T09:41:16Z</time>
      </trkpt>
      <trkpt lat="48.19882" lon="-3.02044">
        <ele>132</ele>
        <time>2015-06-10T09:41:27Z</time>
      </trkpt>
      <trkpt lat="48.19882" lon="-3.02046">
        <ele>132</ele>
        <time>2015-06-10T09:41:29Z</time>
      </trkpt>
      <trkpt lat="48.19883" lon="-3.02048">
        <ele>132</ele>
        <time>2015-06-10T09:41:31Z</time>
      </trkpt>
      <trkpt lat="48.19883" lon="-3.02051">
        <ele>132</ele>
        <time>2015-06-10T09:41:33Z</time>
      </trkpt>
      <trkpt lat="48.19882" lon="-3.02054">
        <ele>132</ele>
        <time>2015-06-10T09:41:35Z</time>
      </trkpt>
      <trkpt lat="48.19882" lon="-3.02058">
        <ele>132</ele>
        <time>2015-06-10T09:41:37Z</time>
      </trkpt>
      <trkpt lat="48.19883" lon="-3.02062">
        <ele>132</ele>
        <time>2015-06-10T09:41:41Z</time>
      </trkpt>
      <trkpt lat="48.19883" lon="-3.02063">
        <ele>132</ele>
        <time>2015-06-10T09:41:43Z</time>
      </trkpt>
      <trkpt lat="48.19884" lon="-3.02067">
        <ele>132</ele>
        <time>2015-06-10T09:41:45Z</time>
      </trkpt>
      <trkpt lat="48.19885" lon="-3.0207">
        <ele>132</ele>
        <time>2015-06-10T09:41:47Z</time>
      </trkpt>
      <trkpt lat="48.19886" lon="-3.02074">
        <ele>132</ele>
        <time>2015-06-10T09:41:50Z</time>
      </trkpt>
      <trkpt lat="48.19886" lon="-3.02076">
        <ele>132</ele>
        <time>2015-06-10T09:41:52Z</time>
      </trkpt>
      <trkpt lat="48.19886" lon="-3.02078">
        <ele>132</ele>
        <time>2015-06-10T09:41:54Z</time>
      </trkpt>
      <trkpt lat="48.19887" lon="-3.0208">
        <ele>132</ele>
        <time>2015-06-10T09:41:57Z</time>
      </trkpt>
      <trkpt lat="48.19887" lon="-3.02082">
        <ele>132</ele>
        <time>2015-06-10T09:42:00Z</time>
      </trkpt>
      <trkpt lat="48.19887" lon="-3.02084">
        <ele>132</ele>
        <time>2015-06-10T09:42:03Z</time>
      </trkpt>
      <trkpt lat="48.19887" lon="-3.02086">
        <ele>132</ele>
        <time>2015-06-10T09:42:06Z</time>
      </trkpt>
      <trkpt lat="48.19887" lon="-3.02088">
        <ele>133</ele>
        <time>2015-06-10T09:42:09Z</time>
      </trkpt>
      <trkpt lat="48.19886" lon="-3.02089">
        <ele>134</ele>
        <time>2015-06-10T09:42:12Z</time>
      </trkpt>
      <trkpt lat="48.19887" lon="-3.0209">
        <ele>136</ele>
        <time>2015-06-10T09:42:16Z</time>
      </trkpt>
      <trkpt lat="48.19887" lon="-3.02092">
        <ele>136</ele>
        <time>2015-06-10T09:42:19Z</time>
      </trkpt>
      <trkpt lat="48.19886" lon="-3.02095">
        <ele>136</ele>
        <time>2015-06-10T09:42:22Z</time>
      </trkpt>
      <trkpt lat="48.19888" lon="-3.02093">
        <ele>137</ele>
        <time>2015-06-10T09:42:32Z</time>
      </trkpt>
      <trkpt lat="48.19889" lon="-3.02095">
        <ele>137</ele>
        <time>2015-06-10T09:42:38Z</time>
      </trkpt>
      <trkpt lat="48.1989" lon="-3.021">
        <ele>137</ele>
        <time>2015-06-10T09:42:40Z</time>
      </trkpt>
      <trkpt lat="48.19891" lon="-3.02105">
        <ele>137</ele>
        <time>2015-06-10T09:42:43Z</time>
      </trkpt>
      <trkpt lat="48.19891" lon="-3.0211">
        <ele>136</ele>
        <time>2015-06-10T09:42:46Z</time>
      </trkpt>
      <trkpt lat="48.19892" lon="-3.02114">
        <ele>136</ele>
        <time>2015-06-10T09:42:50Z</time>
      </trkpt>
      <trkpt lat="48.1989" lon="-3.02121">
        <ele>136</ele>
        <time>2015-06-10T09:42:53Z</time>
      </trkpt>
      <trkpt lat="48.19889" lon="-3.02124">
        <ele>136</ele>
        <time>2015-06-10T09:42:56Z</time>
      </trkpt>
      <trkpt lat="48.19887" lon="-3.02129">
        <ele>136</ele>
        <time>2015-06-10T09:42:58Z</time>
      </trkpt>
      <trkpt lat="48.19886" lon="-3.02134">
        <ele>136</ele>
        <time>2015-06-10T09:43:02Z</time>
      </trkpt>
      <trkpt lat="48.19885" lon="-3.02138">
        <ele>136</ele>
        <time>2015-06-10T09:43:04Z</time>
      </trkpt>
      <trkpt lat="48.19885" lon="-3.02142">
        <ele>135</ele>
        <time>2015-06-10T09:43:06Z</time>
      </trkpt>
      <trkpt lat="48.19885" lon="-3.02145">
        <ele>135</ele>
        <time>2015-06-10T09:43:08Z</time>
      </trkpt>
      <trkpt lat="48.19883" lon="-3.02151">
        <ele>135</ele>
        <time>2015-06-10T09:43:10Z</time>
      </trkpt>
      <trkpt lat="48.19882" lon="-3.02156">
        <ele>135</ele>
        <time>2015-06-10T09:43:13Z</time>
      </trkpt>
      <trkpt lat="48.19883" lon="-3.02163">
        <ele>135</ele>
        <time>2015-06-10T09:43:16Z</time>
      </trkpt>
      <trkpt lat="48.19883" lon="-3.02171">
        <ele>135</ele>
        <time>2015-06-10T09:43:19Z</time>
      </trkpt>
      <trkpt lat="48.19885" lon="-3.02175">
        <ele>134</ele>
        <time>2015-06-10T09:43:21Z</time>
      </trkpt>
      <trkpt lat="48.19886" lon="-3.02181">
        <ele>134</ele>
        <time>2015-06-10T09:43:23Z</time>
      </trkpt>
      <trkpt lat="48.19884" lon="-3.02187">
        <ele>134</ele>
        <time>2015-06-10T09:43:26Z</time>
      </trkpt>
      <trkpt lat="48.19881" lon="-3.02192">
        <ele>134</ele>
        <time>2015-06-10T09:43:30Z</time>
      </trkpt>
      <trkpt lat="48.19881" lon="-3.02196">
        <ele>134</ele>
        <time>2015-06-10T09:43:32Z</time>
      </trkpt>
      <trkpt lat="48.1988" lon="-3.02199">
        <ele>134</ele>
        <time>2015-06-10T09:43:34Z</time>
      </trkpt>
      <trkpt lat="48.19878" lon="-3.02205">
        <ele>134</ele>
        <time>2015-06-10T09:43:37Z</time>
      </trkpt>
      <trkpt lat="48.1988" lon="-3.0221">
        <ele>134</ele>
        <time>2015-06-10T09:43:40Z</time>
      </trkpt>
      <trkpt lat="48.1988" lon="-3.02212">
        <ele>134</ele>
        <time>2015-06-10T09:43:42Z</time>
      </trkpt>
      <trkpt lat="48.1988" lon="-3.02218">
        <ele>134</ele>
        <time>2015-06-10T09:43:45Z</time>
      </trkpt>
      <trkpt lat="48.19879" lon="-3.02224">
        <ele>134</ele>
        <time>2015-06-10T09:43:48Z</time>
      </trkpt>
      <trkpt lat="48.19878" lon="-3.02231">
        <ele>134</ele>
        <time>2015-06-10T09:43:50Z</time>
      </trkpt>
      <trkpt lat="48.19877" lon="-3.02235">
        <ele>134</ele>
        <time>2015-06-10T09:43:53Z</time>
      </trkpt>
      <trkpt lat="48.19877" lon="-3.02241">
        <ele>134</ele>
        <time>2015-06-10T09:43:56Z</time>
      </trkpt>
      <trkpt lat="48.19876" lon="-3.02248">
        <ele>134</ele>
        <time>2015-06-10T09:43:59Z</time>
      </trkpt>
      <trkpt lat="48.19874" lon="-3.02255">
        <ele>134</ele>
        <time>2015-06-10T09:44:01Z</time>
      </trkpt>
      <trkpt lat="48.19874" lon="-3.02256">
        <ele>134</ele>
        <time>2015-06-10T09:44:05Z</time>
      </trkpt>
      <trkpt lat="48.19873" lon="-3.02259">
        <ele>134</ele>
        <time>2015-06-10T09:44:15Z</time>
      </trkpt>
      <trkpt lat="48.19874" lon="-3.02263">
        <ele>134</ele>
        <time>2015-06-10T09:44:19Z</time>
      </trkpt>
      <trkpt lat="48.19874" lon="-3.02266">
        <ele>134</ele>
        <time>2015-06-10T09:44:21Z</time>
      </trkpt>
      <trkpt lat="48.19875" lon="-3.02271">
        <ele>134</ele>
        <time>2015-06-10T09:44:24Z</time>
      </trkpt>
      <trkpt lat="48.19875" lon="-3.02275">
        <ele>134</ele>
        <time>2015-06-10T09:44:26Z</time>
      </trkpt>
      <trkpt lat="48.19876" lon="-3.0228">
        <ele>135</ele>
        <time>2015-06-10T09:44:28Z</time>
      </trkpt>
      <trkpt lat="48.19877" lon="-3.02282">
        <ele>136</ele>
        <time>2015-06-10T09:44:32Z</time>
      </trkpt>
      <trkpt lat="48.19879" lon="-3.02285">
        <ele>139</ele>
        <time>2015-06-10T09:44:36Z</time>
      </trkpt>
      <trkpt lat="48.19881" lon="-3.02289">
        <ele>140</ele>
        <time>2015-06-10T09:44:38Z</time>
      </trkpt>
      <trkpt lat="48.19883" lon="-3.0229">
        <ele>140</ele>
        <time>2015-06-10T09:44:40Z</time>
      </trkpt>
      <trkpt lat="48.19884" lon="-3.02292">
        <ele>140</ele>
        <time>2015-06-10T09:44:42Z</time>
      </trkpt>
      <trkpt lat="48.19885" lon="-3.02294">
        <ele>140</ele>
        <time>2015-06-10T09:44:45Z</time>
      </trkpt>
      <trkpt lat="48.19888" lon="-3.02298">
        <ele>140</ele>
        <time>2015-06-10T09:44:47Z</time>
      </trkpt>
      <trkpt lat="48.19891" lon="-3.02298">
        <ele>140</ele>
        <time>2015-06-10T09:44:51Z</time>
      </trkpt>
      <trkpt lat="48.19893" lon="-3.02298">
        <ele>140</ele>
        <time>2015-06-10T09:44:53Z</time>
      </trkpt>
      <trkpt lat="48.19896" lon="-3.02303">
        <ele>140</ele>
        <time>2015-06-10T09:44:57Z</time>
      </trkpt>
      <trkpt lat="48.19897" lon="-3.02308">
        <ele>140</ele>
        <time>2015-06-10T09:45:00Z</time>
      </trkpt>
      <trkpt lat="48.19898" lon="-3.02311">
        <ele>140</ele>
        <time>2015-06-10T09:45:02Z</time>
      </trkpt>
      <trkpt lat="48.199" lon="-3.02316">
        <ele>140</ele>
        <time>2015-06-10T09:45:04Z</time>
      </trkpt>
      <trkpt lat="48.19903" lon="-3.02319">
        <ele>140</ele>
        <time>2015-06-10T09:45:07Z</time>
      </trkpt>
      <trkpt lat="48.19904" lon="-3.02322">
        <ele>140</ele>
        <time>2015-06-10T09:45:10Z</time>
      </trkpt>
      <trkpt lat="48.19904" lon="-3.02324">
        <ele>140</ele>
        <time>2015-06-10T09:45:12Z</time>
      </trkpt>
      <trkpt lat="48.19904" lon="-3.02327">
        <ele>140</ele>
        <time>2015-06-10T09:45:14Z</time>
      </trkpt>
      <trkpt lat="48.19907" lon="-3.02328">
        <ele>140</ele>
        <time>2015-06-10T09:45:18Z</time>
      </trkpt>
      <trkpt lat="48.19908" lon="-3.02328">
        <ele>140</ele>
        <time>2015-06-10T09:45:20Z</time>
      </trkpt>
      <trkpt lat="48.19909" lon="-3.02327">
        <ele>141</ele>
        <time>2015-06-10T09:45:22Z</time>
      </trkpt>
      <trkpt lat="48.19911" lon="-3.02327">
        <ele>142</ele>
        <time>2015-06-10T09:45:25Z</time>
      </trkpt>
      <trkpt lat="48.19912" lon="-3.02328">
        <ele>145</ele>
        <time>2015-06-10T09:45:29Z</time>
      </trkpt>
      <trkpt lat="48.19914" lon="-3.02328">
        <ele>147</ele>
        <time>2015-06-10T09:45:32Z</time>
      </trkpt>
      <trkpt lat="48.19916" lon="-3.0233">
        <ele>147</ele>
        <time>2015-06-10T09:45:34Z</time>
      </trkpt>
      <trkpt lat="48.19918" lon="-3.02333">
        <ele>147</ele>
        <time>2015-06-10T09:45:36Z</time>
      </trkpt>
      <trkpt lat="48.1992" lon="-3.02334">
        <ele>147</ele>
        <time>2015-06-10T09:45:38Z</time>
      </trkpt>
      <trkpt lat="48.19923" lon="-3.02338">
        <ele>147</ele>
        <time>2015-06-10T09:45:42Z</time>
      </trkpt>
      <trkpt lat="48.19926" lon="-3.02339">
        <ele>147</ele>
        <time>2015-06-10T09:45:44Z</time>
      </trkpt>
      <trkpt lat="48.19927" lon="-3.0234">
        <ele>147</ele>
        <time>2015-06-10T09:45:46Z</time>
      </trkpt>
      <trkpt lat="48.19929" lon="-3.02341">
        <ele>147</ele>
        <time>2015-06-10T09:45:48Z</time>
      </trkpt>
      <trkpt lat="48.19932" lon="-3.02342">
        <ele>147</ele>
        <time>2015-06-10T09:45:51Z</time>
      </trkpt>
      <trkpt lat="48.19934" lon="-3.02342">
        <ele>147</ele>
        <time>2015-06-10T09:45:53Z</time>
      </trkpt>
      <trkpt lat="48.19938" lon="-3.02345">
        <ele>147</ele>
        <time>2015-06-10T09:45:57Z</time>
      </trkpt>
      <trkpt lat="48.19939" lon="-3.02347">
        <ele>147</ele>
        <time>2015-06-10T09:45:59Z</time>
      </trkpt>
      <trkpt lat="48.19941" lon="-3.02351">
        <ele>147</ele>
        <time>2015-06-10T09:46:06Z</time>
      </trkpt>
      <trkpt lat="48.19942" lon="-3.02353">
        <ele>147</ele>
        <time>2015-06-10T09:46:10Z</time>
      </trkpt>
      <trkpt lat="48.19942" lon="-3.02355">
        <ele>147</ele>
        <time>2015-06-10T09:46:17Z</time>
      </trkpt>
      <trkpt lat="48.19941" lon="-3.02361">
        <ele>147</ele>
        <time>2015-06-10T09:46:19Z</time>
      </trkpt>
      <trkpt lat="48.1994" lon="-3.02365">
        <ele>148</ele>
        <time>2015-06-10T09:46:22Z</time>
      </trkpt>
      <trkpt lat="48.19939" lon="-3.0237">
        <ele>148</ele>
        <time>2015-06-10T09:46:24Z</time>
      </trkpt>
      <trkpt lat="48.19939" lon="-3.02374">
        <ele>149</ele>
        <time>2015-06-10T09:46:27Z</time>
      </trkpt>
      <trkpt lat="48.19939" lon="-3.0238">
        <ele>150</ele>
        <time>2015-06-10T09:46:29Z</time>
      </trkpt>
      <trkpt lat="48.19939" lon="-3.02384">
        <ele>150</ele>
        <time>2015-06-10T09:46:31Z</time>
      </trkpt>
      <trkpt lat="48.19939" lon="-3.02388">
        <ele>151</ele>
        <time>2015-06-10T09:46:34Z</time>
      </trkpt>
      <trkpt lat="48.19938" lon="-3.02395">
        <ele>153</ele>
        <time>2015-06-10T09:46:36Z</time>
      </trkpt>
      <trkpt lat="48.19939" lon="-3.02398">
        <ele>153</ele>
        <time>2015-06-10T09:46:39Z</time>
      </trkpt>
      <trkpt lat="48.19938" lon="-3.02404">
        <ele>154</ele>
        <time>2015-06-10T09:46:41Z</time>
      </trkpt>
      <trkpt lat="48.1994" lon="-3.02408">
        <ele>154</ele>
        <time>2015-06-10T09:46:47Z</time>
      </trkpt>
      <trkpt lat="48.19941" lon="-3.02413">
        <ele>154</ele>
        <time>2015-06-10T09:46:50Z</time>
      </trkpt>
      <trkpt lat="48.19941" lon="-3.02417">
        <ele>154</ele>
        <time>2015-06-10T09:46:52Z</time>
      </trkpt>
      <trkpt lat="48.1994" lon="-3.02422">
        <ele>154</ele>
        <time>2015-06-10T09:46:55Z</time>
      </trkpt>
      <trkpt lat="48.19941" lon="-3.02428">
        <ele>154</ele>
        <time>2015-06-10T09:46:58Z</time>
      </trkpt>
      <trkpt lat="48.19942" lon="-3.02434">
        <ele>154</ele>
        <time>2015-06-10T09:47:00Z</time>
      </trkpt>
      <trkpt lat="48.19942" lon="-3.02438">
        <ele>154</ele>
        <time>2015-06-10T09:47:02Z</time>
      </trkpt>
      <trkpt lat="48.19942" lon="-3.02441">
        <ele>154</ele>
        <time>2015-06-10T09:47:04Z</time>
      </trkpt>
      <trkpt lat="48.19943" lon="-3.02447">
        <ele>154</ele>
        <time>2015-06-10T09:47:08Z</time>
      </trkpt>
      <trkpt lat="48.19942" lon="-3.02451">
        <ele>154</ele>
        <time>2015-06-10T09:47:10Z</time>
      </trkpt>
      <trkpt lat="48.19944" lon="-3.02455">
        <ele>154</ele>
        <time>2015-06-10T09:47:12Z</time>
      </trkpt>
      <trkpt lat="48.19946" lon="-3.02461">
        <ele>154</ele>
        <time>2015-06-10T09:47:15Z</time>
      </trkpt>
      <trkpt lat="48.19946" lon="-3.02467">
        <ele>154</ele>
        <time>2015-06-10T09:47:17Z</time>
      </trkpt>
      <trkpt lat="48.19947" lon="-3.02471">
        <ele>154</ele>
        <time>2015-06-10T09:47:19Z</time>
      </trkpt>
      <trkpt lat="48.19947" lon="-3.02475">
        <ele>154</ele>
        <time>2015-06-10T09:47:22Z</time>
      </trkpt>
      <trkpt lat="48.19946" lon="-3.02482">
        <ele>154</ele>
        <time>2015-06-10T09:47:24Z</time>
      </trkpt>
      <trkpt lat="48.19948" lon="-3.02484">
        <ele>154</ele>
        <time>2015-06-10T09:47:26Z</time>
      </trkpt>
      <trkpt lat="48.19948" lon="-3.02486">
        <ele>154</ele>
        <time>2015-06-10T09:47:29Z</time>
      </trkpt>
      <trkpt lat="48.19949" lon="-3.0249">
        <ele>154</ele>
        <time>2015-06-10T09:47:31Z</time>
      </trkpt>
      <trkpt lat="48.19949" lon="-3.02495">
        <ele>154</ele>
        <time>2015-06-10T09:47:34Z</time>
      </trkpt>
      <trkpt lat="48.19949" lon="-3.02501">
        <ele>154</ele>
        <time>2015-06-10T09:47:37Z</time>
      </trkpt>
      <trkpt lat="48.19951" lon="-3.02509">
        <ele>154</ele>
        <time>2015-06-10T09:47:40Z</time>
      </trkpt>
      <trkpt lat="48.19953" lon="-3.02513">
        <ele>154</ele>
        <time>2015-06-10T09:47:42Z</time>
      </trkpt>
      <trkpt lat="48.19955" lon="-3.02517">
        <ele>154</ele>
        <time>2015-06-10T09:47:44Z</time>
      </trkpt>
      <trkpt lat="48.19954" lon="-3.02522">
        <ele>154</ele>
        <time>2015-06-10T09:47:46Z</time>
      </trkpt>
      <trkpt lat="48.19954" lon="-3.02525">
        <ele>154</ele>
        <time>2015-06-10T09:47:48Z</time>
      </trkpt>
      <trkpt lat="48.19954" lon="-3.02532">
        <ele>154</ele>
        <time>2015-06-10T09:47:50Z</time>
      </trkpt>
      <trkpt lat="48.19955" lon="-3.02536">
        <ele>154</ele>
        <time>2015-06-10T09:47:52Z</time>
      </trkpt>
      <trkpt lat="48.19957" lon="-3.0254">
        <ele>154</ele>
        <time>2015-06-10T09:47:54Z</time>
      </trkpt>
      <trkpt lat="48.19957" lon="-3.02543">
        <ele>154</ele>
        <time>2015-06-10T09:47:57Z</time>
      </trkpt>
      <trkpt lat="48.19958" lon="-3.02547">
        <ele>154</ele>
        <time>2015-06-10T09:48:00Z</time>
      </trkpt>
      <trkpt lat="48.19958" lon="-3.0255">
        <ele>154</ele>
        <time>2015-06-10T09:48:02Z</time>
      </trkpt>
      <trkpt lat="48.19959" lon="-3.02555">
        <ele>154</ele>
        <time>2015-06-10T09:48:05Z</time>
      </trkpt>
      <trkpt lat="48.1996" lon="-3.02559">
        <ele>154</ele>
        <time>2015-06-10T09:48:08Z</time>
      </trkpt>
      <trkpt lat="48.1996" lon="-3.02564">
        <ele>154</ele>
        <time>2015-06-10T09:48:10Z</time>
      </trkpt>
      <trkpt lat="48.1996" lon="-3.0257">
        <ele>154</ele>
        <time>2015-06-10T09:48:12Z</time>
      </trkpt>
      <trkpt lat="48.19963" lon="-3.02578">
        <ele>154</ele>
        <time>2015-06-10T09:48:14Z</time>
      </trkpt>
      <trkpt lat="48.19965" lon="-3.02583">
        <ele>154</ele>
        <time>2015-06-10T09:48:16Z</time>
      </trkpt>
      <trkpt lat="48.19965" lon="-3.02588">
        <ele>154</ele>
        <time>2015-06-10T09:48:18Z</time>
      </trkpt>
      <trkpt lat="48.19967" lon="-3.02593">
        <ele>154</ele>
        <time>2015-06-10T09:48:21Z</time>
      </trkpt>
      <trkpt lat="48.19966" lon="-3.02599">
        <ele>154</ele>
        <time>2015-06-10T09:48:24Z</time>
      </trkpt>
      <trkpt lat="48.19966" lon="-3.02608">
        <ele>154</ele>
        <time>2015-06-10T09:48:27Z</time>
      </trkpt>
      <trkpt lat="48.19966" lon="-3.02615">
        <ele>154</ele>
        <time>2015-06-10T09:48:29Z</time>
      </trkpt>
      <trkpt lat="48.19966" lon="-3.02619">
        <ele>154</ele>
        <time>2015-06-10T09:48:31Z</time>
      </trkpt>
      <trkpt lat="48.19967" lon="-3.02622">
        <ele>154</ele>
        <time>2015-06-10T09:48:34Z</time>
      </trkpt>
      <trkpt lat="48.19968" lon="-3.02629">
        <ele>154</ele>
        <time>2015-06-10T09:48:37Z</time>
      </trkpt>
      <trkpt lat="48.19969" lon="-3.02634">
        <ele>154</ele>
        <time>2015-06-10T09:48:39Z</time>
      </trkpt>
      <trkpt lat="48.19968" lon="-3.02641">
        <ele>154</ele>
        <time>2015-06-10T09:48:42Z</time>
      </trkpt>
      <trkpt lat="48.19967" lon="-3.02647">
        <ele>154</ele>
        <time>2015-06-10T09:48:44Z</time>
      </trkpt>
      <trkpt lat="48.19969" lon="-3.02651">
        <ele>154</ele>
        <time>2015-06-10T09:48:46Z</time>
      </trkpt>
      <trkpt lat="48.19969" lon="-3.02657">
        <ele>154</ele>
        <time>2015-06-10T09:48:49Z</time>
      </trkpt>
      <trkpt lat="48.1997" lon="-3.02666">
        <ele>154</ele>
        <time>2015-06-10T09:48:52Z</time>
      </trkpt>
      <trkpt lat="48.19969" lon="-3.02671">
        <ele>154</ele>
        <time>2015-06-10T09:48:54Z</time>
      </trkpt>
      <trkpt lat="48.19968" lon="-3.02677">
        <ele>154</ele>
        <time>2015-06-10T09:48:57Z</time>
      </trkpt>
      <trkpt lat="48.19967" lon="-3.02681">
        <ele>154</ele>
        <time>2015-06-10T09:48:59Z</time>
      </trkpt>
      <trkpt lat="48.19968" lon="-3.02685">
        <ele>154</ele>
        <time>2015-06-10T09:49:01Z</time>
      </trkpt>
      <trkpt lat="48.19968" lon="-3.02691">
        <ele>154</ele>
        <time>2015-06-10T09:49:06Z</time>
      </trkpt>
      <trkpt lat="48.19965" lon="-3.02697">
        <ele>155</ele>
        <time>2015-06-10T09:49:08Z</time>
      </trkpt>
      <trkpt lat="48.19966" lon="-3.02702">
        <ele>156</ele>
        <time>2015-06-10T09:49:10Z</time>
      </trkpt>
      <trkpt lat="48.19967" lon="-3.02705">
        <ele>156</ele>
        <time>2015-06-10T09:49:12Z</time>
      </trkpt>
      <trkpt lat="48.19967" lon="-3.02708">
        <ele>156</ele>
        <time>2015-06-10T09:49:14Z</time>
      </trkpt>
      <trkpt lat="48.19966" lon="-3.02714">
        <ele>156</ele>
        <time>2015-06-10T09:49:16Z</time>
      </trkpt>
      <trkpt lat="48.19968" lon="-3.02717">
        <ele>156</ele>
        <time>2015-06-10T09:49:18Z</time>
      </trkpt>
      <trkpt lat="48.1997" lon="-3.02722">
        <ele>156</ele>
        <time>2015-06-10T09:49:21Z</time>
      </trkpt>
      <trkpt lat="48.1997" lon="-3.02727">
        <ele>155</ele>
        <time>2015-06-10T09:49:23Z</time>
      </trkpt>
      <trkpt lat="48.1997" lon="-3.02737">
        <ele>155</ele>
        <time>2015-06-10T09:49:25Z</time>
      </trkpt>
      <trkpt lat="48.19969" lon="-3.02743">
        <ele>155</ele>
        <time>2015-06-10T09:49:27Z</time>
      </trkpt>
      <trkpt lat="48.19969" lon="-3.02749">
        <ele>155</ele>
        <time>2015-06-10T09:49:29Z</time>
      </trkpt>
      <trkpt lat="48.1997" lon="-3.02752">
        <ele>155</ele>
        <time>2015-06-10T09:49:32Z</time>
      </trkpt>
      <trkpt lat="48.19969" lon="-3.02757">
        <ele>155</ele>
        <time>2015-06-10T09:49:35Z</time>
      </trkpt>
      <trkpt lat="48.1997" lon="-3.02761">
        <ele>155</ele>
        <time>2015-06-10T09:49:37Z</time>
      </trkpt>
      <trkpt lat="48.1997" lon="-3.02763">
        <ele>154</ele>
        <time>2015-06-10T09:49:40Z</time>
      </trkpt>
      <trkpt lat="48.19971" lon="-3.02765">
        <ele>153</ele>
        <time>2015-06-10T09:49:42Z</time>
      </trkpt>
      <trkpt lat="48.1997" lon="-3.02768">
        <ele>152</ele>
        <time>2015-06-10T09:49:44Z</time>
      </trkpt>
      <trkpt lat="48.19971" lon="-3.02775">
        <ele>150</ele>
        <time>2015-06-10T09:49:46Z</time>
      </trkpt>
      <trkpt lat="48.19971" lon="-3.02779">
        <ele>150</ele>
        <time>2015-06-10T09:49:49Z</time>
      </trkpt>
      <trkpt lat="48.19973" lon="-3.02785">
        <ele>149</ele>
        <time>2015-06-10T09:49:53Z</time>
      </trkpt>
      <trkpt lat="48.19972" lon="-3.02789">
        <ele>148</ele>
        <time>2015-06-10T09:49:55Z</time>
      </trkpt>
      <trkpt lat="48.19971" lon="-3.02792">
        <ele>148</ele>
        <time>2015-06-10T09:49:57Z</time>
      </trkpt>
      <trkpt lat="48.19971" lon="-3.02795">
        <ele>147</ele>
        <time>2015-06-10T09:50:00Z</time>
      </trkpt>
      <trkpt lat="48.19971" lon="-3.02799">
        <ele>147</ele>
        <time>2015-06-10T09:50:02Z</time>
      </trkpt>
      <trkpt lat="48.19971" lon="-3.02802">
        <ele>147</ele>
        <time>2015-06-10T09:50:05Z</time>
      </trkpt>
      <trkpt lat="48.19971" lon="-3.02809">
        <ele>147</ele>
        <time>2015-06-10T09:50:07Z</time>
      </trkpt>
      <trkpt lat="48.19972" lon="-3.02815">
        <ele>147</ele>
        <time>2015-06-10T09:50:10Z</time>
      </trkpt>
      <trkpt lat="48.19973" lon="-3.02821">
        <ele>147</ele>
        <time>2015-06-10T09:50:12Z</time>
      </trkpt>
      <trkpt lat="48.19973" lon="-3.02829">
        <ele>147</ele>
        <time>2015-06-10T09:50:14Z</time>
      </trkpt>
      <trkpt lat="48.19973" lon="-3.02833">
        <ele>149</ele>
        <time>2015-06-10T09:50:17Z</time>
      </trkpt>
      <trkpt lat="48.19975" lon="-3.02841">
        <ele>151</ele>
        <time>2015-06-10T09:50:20Z</time>
      </trkpt>
      <trkpt lat="48.19975" lon="-3.02845">
        <ele>152</ele>
        <time>2015-06-10T09:50:22Z</time>
      </trkpt>
      <trkpt lat="48.19976" lon="-3.0285">
        <ele>154</ele>
        <time>2015-06-10T09:50:24Z</time>
      </trkpt>
      <trkpt lat="48.19976" lon="-3.02853">
        <ele>154</ele>
        <time>2015-06-10T09:50:27Z</time>
      </trkpt>
      <trkpt lat="48.19977" lon="-3.02859">
        <ele>154</ele>
        <time>2015-06-10T09:50:29Z</time>
      </trkpt>
      <trkpt lat="48.19976" lon="-3.02865">
        <ele>154</ele>
        <time>2015-06-10T09:50:32Z</time>
      </trkpt>
      <trkpt lat="48.19978" lon="-3.02871">
        <ele>154</ele>
        <time>2015-06-10T09:50:34Z</time>
      </trkpt>
      <trkpt lat="48.19979" lon="-3.02874">
        <ele>154</ele>
        <time>2015-06-10T09:50:36Z</time>
      </trkpt>
      <trkpt lat="48.1998" lon="-3.02879">
        <ele>154</ele>
        <time>2015-06-10T09:50:40Z</time>
      </trkpt>
      <trkpt lat="48.19982" lon="-3.02883">
        <ele>154</ele>
        <time>2015-06-10T09:50:42Z</time>
      </trkpt>
      <trkpt lat="48.19985" lon="-3.02888">
        <ele>154</ele>
        <time>2015-06-10T09:50:44Z</time>
      </trkpt>
      <trkpt lat="48.19987" lon="-3.02893">
        <ele>154</ele>
        <time>2015-06-10T09:50:47Z</time>
      </trkpt>
      <trkpt lat="48.19988" lon="-3.02898">
        <ele>154</ele>
        <time>2015-06-10T09:50:50Z</time>
      </trkpt>
      <trkpt lat="48.1999" lon="-3.029">
        <ele>154</ele>
        <time>2015-06-10T09:50:52Z</time>
      </trkpt>
      <trkpt lat="48.19992" lon="-3.02905">
        <ele>152</ele>
        <time>2015-06-10T09:50:55Z</time>
      </trkpt>
      <trkpt lat="48.19992" lon="-3.02908">
        <ele>152</ele>
        <time>2015-06-10T09:50:58Z</time>
      </trkpt>
      <trkpt lat="48.19994" lon="-3.02914">
        <ele>152</ele>
        <time>2015-06-10T09:51:00Z</time>
      </trkpt>
      <trkpt lat="48.19995" lon="-3.02918">
        <ele>152</ele>
        <time>2015-06-10T09:51:02Z</time>
      </trkpt>
      <trkpt lat="48.19997" lon="-3.02923">
        <ele>152</ele>
        <time>2015-06-10T09:51:05Z</time>
      </trkpt>
      <trkpt lat="48.2" lon="-3.02926">
        <ele>152</ele>
        <time>2015-06-10T09:51:07Z</time>
      </trkpt>
      <trkpt lat="48.20004" lon="-3.02927">
        <ele>152</ele>
        <time>2015-06-10T09:51:10Z</time>
      </trkpt>
      <trkpt lat="48.20006" lon="-3.02928">
        <ele>152</ele>
        <time>2015-06-10T09:51:12Z</time>
      </trkpt>
      <trkpt lat="48.20007" lon="-3.02931">
        <ele>152</ele>
        <time>2015-06-10T09:51:15Z</time>
      </trkpt>
      <trkpt lat="48.20012" lon="-3.02935">
        <ele>152</ele>
        <time>2015-06-10T09:51:19Z</time>
      </trkpt>
      <trkpt lat="48.20014" lon="-3.02939">
        <ele>152</ele>
        <time>2015-06-10T09:51:22Z</time>
      </trkpt>
      <trkpt lat="48.20017" lon="-3.02941">
        <ele>152</ele>
        <time>2015-06-10T09:51:24Z</time>
      </trkpt>
      <trkpt lat="48.20021" lon="-3.02945">
        <ele>152</ele>
        <time>2015-06-10T09:51:27Z</time>
      </trkpt>
      <trkpt lat="48.20023" lon="-3.02949">
        <ele>152</ele>
        <time>2015-06-10T09:51:29Z</time>
      </trkpt>
      <trkpt lat="48.20025" lon="-3.02953">
        <ele>152</ele>
        <time>2015-06-10T09:51:32Z</time>
      </trkpt>
      <trkpt lat="48.20029" lon="-3.0296">
        <ele>152</ele>
        <time>2015-06-10T09:51:36Z</time>
      </trkpt>
      <trkpt lat="48.20032" lon="-3.02964">
        <ele>152</ele>
        <time>2015-06-10T09:51:38Z</time>
      </trkpt>
      <trkpt lat="48.20033" lon="-3.02969">
        <ele>152</ele>
        <time>2015-06-10T09:51:40Z</time>
      </trkpt>
      <trkpt lat="48.20034" lon="-3.0297">
        <ele>152</ele>
        <time>2015-06-10T09:51:42Z</time>
      </trkpt>
      <trkpt lat="48.20037" lon="-3.02973">
        <ele>152</ele>
        <time>2015-06-10T09:51:45Z</time>
      </trkpt>
      <trkpt lat="48.20041" lon="-3.02977">
        <ele>152</ele>
        <time>2015-06-10T09:51:47Z</time>
      </trkpt>
      <trkpt lat="48.20043" lon="-3.0298">
        <ele>152</ele>
        <time>2015-06-10T09:51:51Z</time>
      </trkpt>
      <trkpt lat="48.20047" lon="-3.02984">
        <ele>152</ele>
        <time>2015-06-10T09:51:55Z</time>
      </trkpt>
      <trkpt lat="48.20051" lon="-3.02988">
        <ele>152</ele>
        <time>2015-06-10T09:51:58Z</time>
      </trkpt>
      <trkpt lat="48.20054" lon="-3.02992">
        <ele>152</ele>
        <time>2015-06-10T09:52:00Z</time>
      </trkpt>
      <trkpt lat="48.20057" lon="-3.02994">
        <ele>152</ele>
        <time>2015-06-10T09:52:02Z</time>
      </trkpt>
      <trkpt lat="48.2006" lon="-3.02996">
        <ele>152</ele>
        <time>2015-06-10T09:52:04Z</time>
      </trkpt>
      <trkpt lat="48.20062" lon="-3.02996">
        <ele>152</ele>
        <time>2015-06-10T09:52:06Z</time>
      </trkpt>
      <trkpt lat="48.20065" lon="-3.02999">
        <ele>152</ele>
        <time>2015-06-10T09:52:09Z</time>
      </trkpt>
      <trkpt lat="48.20068" lon="-3.03004">
        <ele>151</ele>
        <time>2015-06-10T09:52:12Z</time>
      </trkpt>
      <trkpt lat="48.20069" lon="-3.03006">
        <ele>151</ele>
        <time>2015-06-10T09:52:14Z</time>
      </trkpt>
      <trkpt lat="48.20071" lon="-3.03008">
        <ele>151</ele>
        <time>2015-06-10T09:52:16Z</time>
      </trkpt>
      <trkpt lat="48.20074" lon="-3.03012">
        <ele>151</ele>
        <time>2015-06-10T09:52:18Z</time>
      </trkpt>
      <trkpt lat="48.20076" lon="-3.03015">
        <ele>151</ele>
        <time>2015-06-10T09:52:20Z</time>
      </trkpt>
      <trkpt lat="48.20078" lon="-3.03018">
        <ele>151</ele>
        <time>2015-06-10T09:52:22Z</time>
      </trkpt>
      <trkpt lat="48.2008" lon="-3.0302">
        <ele>151</ele>
        <time>2015-06-10T09:52:24Z</time>
      </trkpt>
      <trkpt lat="48.20082" lon="-3.03022">
        <ele>151</ele>
        <time>2015-06-10T09:52:26Z</time>
      </trkpt>
      <trkpt lat="48.20084" lon="-3.03026">
        <ele>151</ele>
        <time>2015-06-10T09:52:30Z</time>
      </trkpt>
      <trkpt lat="48.20085" lon="-3.03029">
        <ele>151</ele>
        <time>2015-06-10T09:52:32Z</time>
      </trkpt>
      <trkpt lat="48.20088" lon="-3.03034">
        <ele>151</ele>
        <time>2015-06-10T09:52:34Z</time>
      </trkpt>
      <trkpt lat="48.20089" lon="-3.03037">
        <ele>151</ele>
        <time>2015-06-10T09:52:36Z</time>
      </trkpt>
      <trkpt lat="48.20092" lon="-3.03042">
        <ele>152</ele>
        <time>2015-06-10T09:52:39Z</time>
      </trkpt>
      <trkpt lat="48.20095" lon="-3.03046">
        <ele>152</ele>
        <time>2015-06-10T09:52:41Z</time>
      </trkpt>
      <trkpt lat="48.20097" lon="-3.0305">
        <ele>152</ele>
        <time>2015-06-10T09:52:44Z</time>
      </trkpt>
      <trkpt lat="48.201" lon="-3.03052">
        <ele>152</ele>
        <time>2015-06-10T09:52:46Z</time>
      </trkpt>
      <trkpt lat="48.20103" lon="-3.03056">
        <ele>152</ele>
        <time>2015-06-10T09:52:49Z</time>
      </trkpt>
      <trkpt lat="48.20106" lon="-3.03059">
        <ele>152</ele>
        <time>2015-06-10T09:52:52Z</time>
      </trkpt>
      <trkpt lat="48.2011" lon="-3.03064">
        <ele>152</ele>
        <time>2015-06-10T09:52:55Z</time>
      </trkpt>
      <trkpt lat="48.20112" lon="-3.03067">
        <ele>152</ele>
        <time>2015-06-10T09:52:57Z</time>
      </trkpt>
      <trkpt lat="48.20115" lon="-3.03067">
        <ele>152</ele>
        <time>2015-06-10T09:53:01Z</time>
      </trkpt>
      <trkpt lat="48.20117" lon="-3.03068">
        <ele>152</ele>
        <time>2015-06-10T09:53:03Z</time>
      </trkpt>
      <trkpt lat="48.20122" lon="-3.03074">
        <ele>152</ele>
        <time>2015-06-10T09:53:07Z</time>
      </trkpt>
      <trkpt lat="48.20126" lon="-3.03076">
        <ele>152</ele>
        <time>2015-06-10T09:53:09Z</time>
      </trkpt>
      <trkpt lat="48.20127" lon="-3.03079">
        <ele>152</ele>
        <time>2015-06-10T09:53:12Z</time>
      </trkpt>
      <trkpt lat="48.2013" lon="-3.03079">
        <ele>152</ele>
        <time>2015-06-10T09:53:15Z</time>
      </trkpt>
      <trkpt lat="48.20134" lon="-3.03081">
        <ele>152</ele>
        <time>2015-06-10T09:53:18Z</time>
      </trkpt>
      <trkpt lat="48.20137" lon="-3.03087">
        <ele>152</ele>
        <time>2015-06-10T09:53:20Z</time>
      </trkpt>
      <trkpt lat="48.20139" lon="-3.0309">
        <ele>152</ele>
        <time>2015-06-10T09:53:23Z</time>
      </trkpt>
      <trkpt lat="48.20142" lon="-3.03096">
        <ele>152</ele>
        <time>2015-06-10T09:53:25Z</time>
      </trkpt>
      <trkpt lat="48.20144" lon="-3.03099">
        <ele>152</ele>
        <time>2015-06-10T09:53:28Z</time>
      </trkpt>
      <trkpt lat="48.20148" lon="-3.03103">
        <ele>152</ele>
        <time>2015-06-10T09:53:31Z</time>
      </trkpt>
      <trkpt lat="48.20152" lon="-3.03107">
        <ele>152</ele>
        <time>2015-06-10T09:53:34Z</time>
      </trkpt>
      <trkpt lat="48.20154" lon="-3.03112">
        <ele>152</ele>
        <time>2015-06-10T09:53:38Z</time>
      </trkpt>
      <trkpt lat="48.20157" lon="-3.03115">
        <ele>153</ele>
        <time>2015-06-10T09:53:40Z</time>
      </trkpt>
      <trkpt lat="48.20159" lon="-3.03117">
        <ele>153</ele>
        <time>2015-06-10T09:53:42Z</time>
      </trkpt>
      <trkpt lat="48.20161" lon="-3.03118">
        <ele>154</ele>
        <time>2015-06-10T09:53:44Z</time>
      </trkpt>
      <trkpt lat="48.20163" lon="-3.0312">
        <ele>154</ele>
        <time>2015-06-10T09:53:46Z</time>
      </trkpt>
      <trkpt lat="48.20164" lon="-3.0312">
        <ele>155</ele>
        <time>2015-06-10T09:53:48Z</time>
      </trkpt>
      <trkpt lat="48.20166" lon="-3.03122">
        <ele>155</ele>
        <time>2015-06-10T09:53:51Z</time>
      </trkpt>
      <trkpt lat="48.20168" lon="-3.03124">
        <ele>156</ele>
        <time>2015-06-10T09:53:53Z</time>
      </trkpt>
      <trkpt lat="48.2017" lon="-3.03125">
        <ele>157</ele>
        <time>2015-06-10T09:53:55Z</time>
      </trkpt>
      <trkpt lat="48.20171" lon="-3.03127">
        <ele>158</ele>
        <time>2015-06-10T09:53:57Z</time>
      </trkpt>
      <trkpt lat="48.20174" lon="-3.03129">
        <ele>158</ele>
        <time>2015-06-10T09:53:59Z</time>
      </trkpt>
      <trkpt lat="48.20176" lon="-3.03131">
        <ele>158</ele>
        <time>2015-06-10T09:54:01Z</time>
      </trkpt>
      <trkpt lat="48.20178" lon="-3.03134">
        <ele>158</ele>
        <time>2015-06-10T09:54:03Z</time>
      </trkpt>
      <trkpt lat="48.20179" lon="-3.03137">
        <ele>159</ele>
        <time>2015-06-10T09:54:05Z</time>
      </trkpt>
      <trkpt lat="48.20181" lon="-3.03137">
        <ele>159</ele>
        <time>2015-06-10T09:54:08Z</time>
      </trkpt>
      <trkpt lat="48.20184" lon="-3.03137">
        <ele>159</ele>
        <time>2015-06-10T09:54:10Z</time>
      </trkpt>
      <trkpt lat="48.20187" lon="-3.03141">
        <ele>159</ele>
        <time>2015-06-10T09:54:13Z</time>
      </trkpt>
      <trkpt lat="48.2019" lon="-3.03144">
        <ele>160</ele>
        <time>2015-06-10T09:54:17Z</time>
      </trkpt>
      <trkpt lat="48.20193" lon="-3.03147">
        <ele>160</ele>
        <time>2015-06-10T09:54:20Z</time>
      </trkpt>
      <trkpt lat="48.20195" lon="-3.03148">
        <ele>160</ele>
        <time>2015-06-10T09:54:22Z</time>
      </trkpt>
      <trkpt lat="48.202" lon="-3.03151">
        <ele>160</ele>
        <time>2015-06-10T09:54:24Z</time>
      </trkpt>
      <trkpt lat="48.20203" lon="-3.03153">
        <ele>160</ele>
        <time>2015-06-10T09:54:26Z</time>
      </trkpt>
      <trkpt lat="48.20206" lon="-3.03157">
        <ele>160</ele>
        <time>2015-06-10T09:54:29Z</time>
      </trkpt>
      <trkpt lat="48.20209" lon="-3.03161">
        <ele>160</ele>
        <time>2015-06-10T09:54:32Z</time>
      </trkpt>
      <trkpt lat="48.2021" lon="-3.03162">
        <ele>160</ele>
        <time>2015-06-10T09:54:34Z</time>
      </trkpt>
      <trkpt lat="48.20213" lon="-3.03163">
        <ele>160</ele>
        <time>2015-06-10T09:54:37Z</time>
      </trkpt>
      <trkpt lat="48.20217" lon="-3.03166">
        <ele>160</ele>
        <time>2015-06-10T09:54:39Z</time>
      </trkpt>
      <trkpt lat="48.20219" lon="-3.03167">
        <ele>160</ele>
        <time>2015-06-10T09:54:41Z</time>
      </trkpt>
      <trkpt lat="48.2022" lon="-3.03169">
        <ele>160</ele>
        <time>2015-06-10T09:54:43Z</time>
      </trkpt>
      <trkpt lat="48.20222" lon="-3.0317">
        <ele>160</ele>
        <time>2015-06-10T09:54:46Z</time>
      </trkpt>
      <trkpt lat="48.20225" lon="-3.03172">
        <ele>160</ele>
        <time>2015-06-10T09:54:49Z</time>
      </trkpt>
      <trkpt lat="48.20228" lon="-3.03173">
        <ele>160</ele>
        <time>2015-06-10T09:54:52Z</time>
      </trkpt>
      <trkpt lat="48.20231" lon="-3.03176">
        <ele>161</ele>
        <time>2015-06-10T09:54:56Z</time>
      </trkpt>
      <trkpt lat="48.20235" lon="-3.03181">
        <ele>161</ele>
        <time>2015-06-10T09:55:00Z</time>
      </trkpt>
      <trkpt lat="48.20238" lon="-3.03183">
        <ele>162</ele>
        <time>2015-06-10T09:55:02Z</time>
      </trkpt>
      <trkpt lat="48.2024" lon="-3.03185">
        <ele>163</ele>
        <time>2015-06-10T09:55:05Z</time>
      </trkpt>
      <trkpt lat="48.20242" lon="-3.03186">
        <ele>164</ele>
        <time>2015-06-10T09:55:08Z</time>
      </trkpt>
      <trkpt lat="48.20244" lon="-3.0319">
        <ele>165</ele>
        <time>2015-06-10T09:55:10Z</time>
      </trkpt>
      <trkpt lat="48.20247" lon="-3.03193">
        <ele>165</ele>
        <time>2015-06-10T09:55:12Z</time>
      </trkpt>
      <trkpt lat="48.20249" lon="-3.03195">
        <ele>165</ele>
        <time>2015-06-10T09:55:14Z</time>
      </trkpt>
      <trkpt lat="48.20252" lon="-3.03197">
        <ele>165</ele>
        <time>2015-06-10T09:55:16Z</time>
      </trkpt>
      <trkpt lat="48.20255" lon="-3.03198">
        <ele>165</ele>
        <time>2015-06-10T09:55:19Z</time>
      </trkpt>
      <trkpt lat="48.20257" lon="-3.03198">
        <ele>165</ele>
        <time>2015-06-10T09:55:22Z</time>
      </trkpt>
      <trkpt lat="48.2026" lon="-3.032">
        <ele>166</ele>
        <time>2015-06-10T09:55:24Z</time>
      </trkpt>
      <trkpt lat="48.20262" lon="-3.03202">
        <ele>166</ele>
        <time>2015-06-10T09:55:27Z</time>
      </trkpt>
      <trkpt lat="48.20266" lon="-3.03205">
        <ele>166</ele>
        <time>2015-06-10T09:55:30Z</time>
      </trkpt>
      <trkpt lat="48.20268" lon="-3.03207">
        <ele>166</ele>
        <time>2015-06-10T09:55:32Z</time>
      </trkpt>
      <trkpt lat="48.20272" lon="-3.03209">
        <ele>166</ele>
        <time>2015-06-10T09:55:34Z</time>
      </trkpt>
      <trkpt lat="48.20274" lon="-3.0321">
        <ele>166</ele>
        <time>2015-06-10T09:55:36Z</time>
      </trkpt>
      <trkpt lat="48.20277" lon="-3.03211">
        <ele>166</ele>
        <time>2015-06-10T09:55:38Z</time>
      </trkpt>
      <trkpt lat="48.20281" lon="-3.03214">
        <ele>166</ele>
        <time>2015-06-10T09:55:41Z</time>
      </trkpt>
      <trkpt lat="48.20284" lon="-3.03217">
        <ele>166</ele>
        <time>2015-06-10T09:55:44Z</time>
      </trkpt>
      <trkpt lat="48.20287" lon="-3.03219">
        <ele>166</ele>
        <time>2015-06-10T09:55:47Z</time>
      </trkpt>
      <trkpt lat="48.2029" lon="-3.0322">
        <ele>166</ele>
        <time>2015-06-10T09:55:49Z</time>
      </trkpt>
      <trkpt lat="48.20292" lon="-3.03222">
        <ele>166</ele>
        <time>2015-06-10T09:55:52Z</time>
      </trkpt>
      <trkpt lat="48.20295" lon="-3.03225">
        <ele>166</ele>
        <time>2015-06-10T09:55:55Z</time>
      </trkpt>
      <trkpt lat="48.20298" lon="-3.03225">
        <ele>166</ele>
        <time>2015-06-10T09:55:58Z</time>
      </trkpt>
      <trkpt lat="48.20302" lon="-3.03229">
        <ele>166</ele>
        <time>2015-06-10T09:56:01Z</time>
      </trkpt>
      <trkpt lat="48.20303" lon="-3.0323">
        <ele>166</ele>
        <time>2015-06-10T09:56:03Z</time>
      </trkpt>
      <trkpt lat="48.20305" lon="-3.03231">
        <ele>166</ele>
        <time>2015-06-10T09:56:05Z</time>
      </trkpt>
      <trkpt lat="48.20308" lon="-3.03231">
        <ele>167</ele>
        <time>2015-06-10T09:56:08Z</time>
      </trkpt>
      <trkpt lat="48.2031" lon="-3.03231">
        <ele>168</ele>
        <time>2015-06-10T09:56:10Z</time>
      </trkpt>
      <trkpt lat="48.20312" lon="-3.03233">
        <ele>168</ele>
        <time>2015-06-10T09:56:12Z</time>
      </trkpt>
      <trkpt lat="48.20314" lon="-3.03233">
        <ele>169</ele>
        <time>2015-06-10T09:56:14Z</time>
      </trkpt>
      <trkpt lat="48.20316" lon="-3.03235">
        <ele>169</ele>
        <time>2015-06-10T09:56:17Z</time>
      </trkpt>
      <trkpt lat="48.20319" lon="-3.03235">
        <ele>170</ele>
        <time>2015-06-10T09:56:20Z</time>
      </trkpt>
      <trkpt lat="48.20322" lon="-3.03239">
        <ele>173</ele>
        <time>2015-06-10T09:56:23Z</time>
      </trkpt>
      <trkpt lat="48.20325" lon="-3.03239">
        <ele>174</ele>
        <time>2015-06-10T09:56:25Z</time>
      </trkpt>
      <trkpt lat="48.20329" lon="-3.03238">
        <ele>174</ele>
        <time>2015-06-10T09:56:28Z</time>
      </trkpt>
      <trkpt lat="48.20331" lon="-3.03238">
        <ele>175</ele>
        <time>2015-06-10T09:56:30Z</time>
      </trkpt>
      <trkpt lat="48.20335" lon="-3.03239">
        <ele>175</ele>
        <time>2015-06-10T09:56:32Z</time>
      </trkpt>
      <trkpt lat="48.2034" lon="-3.03239">
        <ele>175</ele>
        <time>2015-06-10T09:56:36Z</time>
      </trkpt>
      <trkpt lat="48.20343" lon="-3.03238">
        <ele>175</ele>
        <time>2015-06-10T09:56:39Z</time>
      </trkpt>
      <trkpt lat="48.20346" lon="-3.03234">
        <ele>175</ele>
        <time>2015-06-10T09:56:42Z</time>
      </trkpt>
      <trkpt lat="48.2035" lon="-3.03231">
        <ele>176</ele>
        <time>2015-06-10T09:56:44Z</time>
      </trkpt>
      <trkpt lat="48.20353" lon="-3.03228">
        <ele>177</ele>
        <time>2015-06-10T09:56:48Z</time>
      </trkpt>
      <trkpt lat="48.20356" lon="-3.03222">
        <ele>178</ele>
        <time>2015-06-10T09:56:50Z</time>
      </trkpt>
      <trkpt lat="48.2036" lon="-3.03218">
        <ele>180</ele>
        <time>2015-06-10T09:56:53Z</time>
      </trkpt>
      <trkpt lat="48.20363" lon="-3.03217">
        <ele>180</ele>
        <time>2015-06-10T09:56:56Z</time>
      </trkpt>
      <trkpt lat="48.20364" lon="-3.03217">
        <ele>180</ele>
        <time>2015-06-10T09:57:00Z</time>
      </trkpt>
      <trkpt lat="48.20366" lon="-3.03218">
        <ele>180</ele>
        <time>2015-06-10T09:57:05Z</time>
      </trkpt>
      <trkpt lat="48.20366" lon="-3.0322">
        <ele>181</ele>
        <time>2015-06-10T09:57:17Z</time>
      </trkpt>
      <trkpt lat="48.20365" lon="-3.03221">
        <ele>181</ele>
        <time>2015-06-10T09:57:21Z</time>
      </trkpt>
      <trkpt lat="48.20366" lon="-3.03222">
        <ele>183</ele>
        <time>2015-06-10T09:57:34Z</time>
      </trkpt>
      <trkpt lat="48.20365" lon="-3.0322">
        <ele>183</ele>
        <time>2015-06-10T09:57:37Z</time>
      </trkpt>
      <trkpt lat="48.20366" lon="-3.03218">
        <ele>183</ele>
        <time>2015-06-10T09:57:45Z</time>
      </trkpt>
      <trkpt lat="48.20366" lon="-3.03217">
        <ele>183</ele>
        <time>2015-06-10T09:57:48Z</time>
      </trkpt>
      <trkpt lat="48.20366" lon="-3.03215">
        <ele>183</ele>
        <time>2015-06-10T09:57:52Z</time>
      </trkpt>
      <trkpt lat="48.20367" lon="-3.03213">
        <ele>183</ele>
        <time>2015-06-10T09:58:01Z</time>
      </trkpt>
      <trkpt lat="48.20367" lon="-3.03211">
        <ele>185</ele>
        <time>2015-06-10T09:58:04Z</time>
      </trkpt>
      <trkpt lat="48.20369" lon="-3.03212">
        <ele>186</ele>
        <time>2015-06-10T09:58:11Z</time>
      </trkpt>
      <trkpt lat="48.2037" lon="-3.03211">
        <ele>186</ele>
        <time>2015-06-10T09:58:14Z</time>
      </trkpt>
      <trkpt lat="48.20373" lon="-3.03212">
        <ele>186</ele>
        <time>2015-06-10T09:58:18Z</time>
      </trkpt>
      <trkpt lat="48.20371" lon="-3.03212">
        <ele>186</ele>
        <time>2015-06-10T09:58:23Z</time>
      </trkpt>
      <trkpt lat="48.20372" lon="-3.03214">
        <ele>186</ele>
        <time>2015-06-10T09:58:26Z</time>
      </trkpt>
      <trkpt lat="48.20372" lon="-3.03216">
        <ele>186</ele>
        <time>2015-06-10T09:58:32Z</time>
      </trkpt>
      <trkpt lat="48.20372" lon="-3.03218">
        <ele>186</ele>
        <time>2015-06-10T09:58:36Z</time>
      </trkpt>
      <trkpt lat="48.20371" lon="-3.03219">
        <ele>186</ele>
        <time>2015-06-10T09:58:38Z</time>
      </trkpt>
      <trkpt lat="48.20371" lon="-3.03221">
        <ele>186</ele>
        <time>2015-06-10T09:58:43Z</time>
      </trkpt>
      <trkpt lat="48.20372" lon="-3.03221">
        <ele>186</ele>
        <time>2015-06-10T09:58:49Z</time>
      </trkpt>
      <trkpt lat="48.20373" lon="-3.03221">
        <ele>186</ele>
        <time>2015-06-10T09:58:53Z</time>
      </trkpt>
      <trkpt lat="48.20372" lon="-3.03218">
        <ele>186</ele>
        <time>2015-06-10T09:59:03Z</time>
      </trkpt>
      <trkpt lat="48.20371" lon="-3.03218">
        <ele>186</ele>
        <time>2015-06-10T09:59:09Z</time>
      </trkpt>
      <trkpt lat="48.20371" lon="-3.03219">
        <ele>186</ele>
        <time>2015-06-10T09:59:16Z</time>
      </trkpt>
      <trkpt lat="48.20373" lon="-3.03221">
        <ele>186</ele>
        <time>2015-06-10T09:59:21Z</time>
      </trkpt>
      <trkpt lat="48.20374" lon="-3.03223">
        <ele>186</ele>
        <time>2015-06-10T09:59:24Z</time>
      </trkpt>
      <trkpt lat="48.20375" lon="-3.0323">
        <ele>186</ele>
        <time>2015-06-10T09:59:28Z</time>
      </trkpt>
      <trkpt lat="48.20377" lon="-3.03235">
        <ele>185</ele>
        <time>2015-06-10T09:59:32Z</time>
      </trkpt>
      <trkpt lat="48.20377" lon="-3.03239">
        <ele>185</ele>
        <time>2015-06-10T09:59:35Z</time>
      </trkpt>
      <trkpt lat="48.20379" lon="-3.03243">
        <ele>184</ele>
        <time>2015-06-10T09:59:38Z</time>
      </trkpt>
      <trkpt lat="48.2038" lon="-3.03246">
        <ele>184</ele>
        <time>2015-06-10T09:59:41Z</time>
      </trkpt>
      <trkpt lat="48.20383" lon="-3.03251">
        <ele>184</ele>
        <time>2015-06-10T09:59:43Z</time>
      </trkpt>
      <trkpt lat="48.20384" lon="-3.03254">
        <ele>183</ele>
        <time>2015-06-10T09:59:45Z</time>
      </trkpt>
      <trkpt lat="48.20385" lon="-3.03257">
        <ele>182</ele>
        <time>2015-06-10T09:59:47Z</time>
      </trkpt>
      <trkpt lat="48.20385" lon="-3.03261">
        <ele>182</ele>
        <time>2015-06-10T09:59:51Z</time>
      </trkpt>
      <trkpt lat="48.20387" lon="-3.03265">
        <ele>182</ele>
        <time>2015-06-10T09:59:53Z</time>
      </trkpt>
      <trkpt lat="48.2039" lon="-3.03272">
        <ele>182</ele>
        <time>2015-06-10T09:59:55Z</time>
      </trkpt>
      <trkpt lat="48.2039" lon="-3.03276">
        <ele>182</ele>
        <time>2015-06-10T09:59:57Z</time>
      </trkpt>
      <trkpt lat="48.20392" lon="-3.0328">
        <ele>182</ele>
        <time>2015-06-10T10:00:00Z</time>
      </trkpt>
      <trkpt lat="48.20393" lon="-3.03284">
        <ele>182</ele>
        <time>2015-06-10T10:00:02Z</time>
      </trkpt>
      <trkpt lat="48.20395" lon="-3.03288">
        <ele>182</ele>
        <time>2015-06-10T10:00:05Z</time>
      </trkpt>
      <trkpt lat="48.20398" lon="-3.03295">
        <ele>182</ele>
        <time>2015-06-10T10:00:09Z</time>
      </trkpt>
      <trkpt lat="48.20399" lon="-3.03301">
        <ele>182</ele>
        <time>2015-06-10T10:00:11Z</time>
      </trkpt>
      <trkpt lat="48.20399" lon="-3.03305">
        <ele>182</ele>
        <time>2015-06-10T10:00:14Z</time>
      </trkpt>
      <trkpt lat="48.20401" lon="-3.03311">
        <ele>182</ele>
        <time>2015-06-10T10:00:17Z</time>
      </trkpt>
      <trkpt lat="48.20403" lon="-3.03313">
        <ele>182</ele>
        <time>2015-06-10T10:00:20Z</time>
      </trkpt>
      <trkpt lat="48.20406" lon="-3.03319">
        <ele>182</ele>
        <time>2015-06-10T10:00:22Z</time>
      </trkpt>
      <trkpt lat="48.20406" lon="-3.03322">
        <ele>182</ele>
        <time>2015-06-10T10:00:25Z</time>
      </trkpt>
      <trkpt lat="48.20406" lon="-3.03326">
        <ele>182</ele>
        <time>2015-06-10T10:00:27Z</time>
      </trkpt>
      <trkpt lat="48.20409" lon="-3.03333">
        <ele>182</ele>
        <time>2015-06-10T10:00:30Z</time>
      </trkpt>
      <trkpt lat="48.2041" lon="-3.03337">
        <ele>182</ele>
        <time>2015-06-10T10:00:32Z</time>
      </trkpt>
      <trkpt lat="48.20411" lon="-3.0334">
        <ele>182</ele>
        <time>2015-06-10T10:00:34Z</time>
      </trkpt>
      <trkpt lat="48.20412" lon="-3.03345">
        <ele>182</ele>
        <time>2015-06-10T10:00:36Z</time>
      </trkpt>
      <trkpt lat="48.20414" lon="-3.03348">
        <ele>182</ele>
        <time>2015-06-10T10:00:38Z</time>
      </trkpt>
      <trkpt lat="48.20416" lon="-3.03352">
        <ele>182</ele>
        <time>2015-06-10T10:00:40Z</time>
      </trkpt>
      <trkpt lat="48.20417" lon="-3.03354">
        <ele>182</ele>
        <time>2015-06-10T10:00:42Z</time>
      </trkpt>
      <trkpt lat="48.20415" lon="-3.03358">
        <ele>181</ele>
        <time>2015-06-10T10:00:44Z</time>
      </trkpt>
      <trkpt lat="48.20415" lon="-3.0336">
        <ele>181</ele>
        <time>2015-06-10T10:00:46Z</time>
      </trkpt>
      <trkpt lat="48.20414" lon="-3.03362">
        <ele>181</ele>
        <time>2015-06-10T10:00:48Z</time>
      </trkpt>
      <trkpt lat="48.20414" lon="-3.03366">
        <ele>181</ele>
        <time>2015-06-10T10:00:50Z</time>
      </trkpt>
      <trkpt lat="48.20412" lon="-3.03371">
        <ele>180</ele>
        <time>2015-06-10T10:00:53Z</time>
      </trkpt>
      <trkpt lat="48.20411" lon="-3.03374">
        <ele>180</ele>
        <time>2015-06-10T10:00:55Z</time>
      </trkpt>
      <trkpt lat="48.20411" lon="-3.03378">
        <ele>179</ele>
        <time>2015-06-10T10:00:58Z</time>
      </trkpt>
      <trkpt lat="48.20412" lon="-3.03384">
        <ele>179</ele>
        <time>2015-06-10T10:01:01Z</time>
      </trkpt>
      <trkpt lat="48.20412" lon="-3.03389">
        <ele>177</ele>
        <time>2015-06-10T10:01:03Z</time>
      </trkpt>
      <trkpt lat="48.20413" lon="-3.03392">
        <ele>176</ele>
        <time>2015-06-10T10:01:05Z</time>
      </trkpt>
      <trkpt lat="48.20415" lon="-3.03397">
        <ele>175</ele>
        <time>2015-06-10T10:01:08Z</time>
      </trkpt>
      <trkpt lat="48.20416" lon="-3.034">
        <ele>175</ele>
        <time>2015-06-10T10:01:11Z</time>
      </trkpt>
      <trkpt lat="48.20416" lon="-3.03405">
        <ele>175</ele>
        <time>2015-06-10T10:01:13Z</time>
      </trkpt>
      <trkpt lat="48.20416" lon="-3.03408">
        <ele>174</ele>
        <time>2015-06-10T10:01:15Z</time>
      </trkpt>
      <trkpt lat="48.20417" lon="-3.03412">
        <ele>174</ele>
        <time>2015-06-10T10:01:17Z</time>
      </trkpt>
      <trkpt lat="48.20417" lon="-3.03414">
        <ele>174</ele>
        <time>2015-06-10T10:01:19Z</time>
      </trkpt>
      <trkpt lat="48.20417" lon="-3.03418">
        <ele>174</ele>
        <time>2015-06-10T10:01:22Z</time>
      </trkpt>
      <trkpt lat="48.20418" lon="-3.03424">
        <ele>174</ele>
        <time>2015-06-10T10:01:24Z</time>
      </trkpt>
      <trkpt lat="48.20419" lon="-3.03428">
        <ele>174</ele>
        <time>2015-06-10T10:01:26Z</time>
      </trkpt>
      <trkpt lat="48.20419" lon="-3.0343">
        <ele>174</ele>
        <time>2015-06-10T10:01:29Z</time>
      </trkpt>
      <trkpt lat="48.2042" lon="-3.03432">
        <ele>174</ele>
        <time>2015-06-10T10:01:31Z</time>
      </trkpt>
      <trkpt lat="48.20421" lon="-3.03435">
        <ele>174</ele>
        <time>2015-06-10T10:01:33Z</time>
      </trkpt>
      <trkpt lat="48.20422" lon="-3.03438">
        <ele>174</ele>
        <time>2015-06-10T10:01:35Z</time>
      </trkpt>
      <trkpt lat="48.20421" lon="-3.03442">
        <ele>174</ele>
        <time>2015-06-10T10:01:37Z</time>
      </trkpt>
      <trkpt lat="48.20422" lon="-3.03446">
        <ele>174</ele>
        <time>2015-06-10T10:01:40Z</time>
      </trkpt>
      <trkpt lat="48.20424" lon="-3.03447">
        <ele>174</ele>
        <time>2015-06-10T10:01:42Z</time>
      </trkpt>
      <trkpt lat="48.20427" lon="-3.03449">
        <ele>174</ele>
        <time>2015-06-10T10:01:46Z</time>
      </trkpt>
      <trkpt lat="48.20431" lon="-3.03448">
        <ele>174</ele>
        <time>2015-06-10T10:01:49Z</time>
      </trkpt>
      <trkpt lat="48.20433" lon="-3.03449">
        <ele>174</ele>
        <time>2015-06-10T10:01:51Z</time>
      </trkpt>
      <trkpt lat="48.20434" lon="-3.03451">
        <ele>174</ele>
        <time>2015-06-10T10:01:54Z</time>
      </trkpt>
      <trkpt lat="48.20436" lon="-3.03457">
        <ele>174</ele>
        <time>2015-06-10T10:01:57Z</time>
      </trkpt>
      <trkpt lat="48.20437" lon="-3.0346">
        <ele>174</ele>
        <time>2015-06-10T10:02:00Z</time>
      </trkpt>
      <trkpt lat="48.20438" lon="-3.03463">
        <ele>174</ele>
        <time>2015-06-10T10:02:02Z</time>
      </trkpt>
      <trkpt lat="48.20438" lon="-3.03466">
        <ele>174</ele>
        <time>2015-06-10T10:02:04Z</time>
      </trkpt>
      <trkpt lat="48.20439" lon="-3.03467">
        <ele>174</ele>
        <time>2015-06-10T10:02:07Z</time>
      </trkpt>
      <trkpt lat="48.2044" lon="-3.03469">
        <ele>174</ele>
        <time>2015-06-10T10:02:09Z</time>
      </trkpt>
      <trkpt lat="48.2044" lon="-3.03471">
        <ele>174</ele>
        <time>2015-06-10T10:02:12Z</time>
      </trkpt>
      <trkpt lat="48.20444" lon="-3.03474">
        <ele>174</ele>
        <time>2015-06-10T10:02:15Z</time>
      </trkpt>
      <trkpt lat="48.20447" lon="-3.03476">
        <ele>174</ele>
        <time>2015-06-10T10:02:17Z</time>
      </trkpt>
      <trkpt lat="48.2045" lon="-3.03481">
        <ele>174</ele>
        <time>2015-06-10T10:02:20Z</time>
      </trkpt>
      <trkpt lat="48.20452" lon="-3.03485">
        <ele>174</ele>
        <time>2015-06-10T10:02:23Z</time>
      </trkpt>
      <trkpt lat="48.20452" lon="-3.03488">
        <ele>174</ele>
        <time>2015-06-10T10:02:25Z</time>
      </trkpt>
      <trkpt lat="48.20453" lon="-3.03489">
        <ele>174</ele>
        <time>2015-06-10T10:02:27Z</time>
      </trkpt>
      <trkpt lat="48.20453" lon="-3.03491">
        <ele>174</ele>
        <time>2015-06-10T10:02:29Z</time>
      </trkpt>
      <trkpt lat="48.20454" lon="-3.03493">
        <ele>174</ele>
        <time>2015-06-10T10:02:46Z</time>
      </trkpt>
      <trkpt lat="48.20453" lon="-3.03491">
        <ele>174</ele>
        <time>2015-06-10T10:03:11Z</time>
      </trkpt>
      <trkpt lat="48.20454" lon="-3.03492">
        <ele>174</ele>
        <time>2015-06-10T10:03:23Z</time>
      </trkpt>
      <trkpt lat="48.20454" lon="-3.03494">
        <ele>174</ele>
        <time>2015-06-10T10:03:25Z</time>
      </trkpt>
      <trkpt lat="48.20455" lon="-3.03496">
        <ele>174</ele>
        <time>2015-06-10T10:03:28Z</time>
      </trkpt>
      <trkpt lat="48.20456" lon="-3.03498">
        <ele>174</ele>
        <time>2015-06-10T10:03:31Z</time>
      </trkpt>
      <trkpt lat="48.20459" lon="-3.03501">
        <ele>174</ele>
        <time>2015-06-10T10:03:34Z</time>
      </trkpt>
      <trkpt lat="48.2046" lon="-3.03503">
        <ele>174</ele>
        <time>2015-06-10T10:03:36Z</time>
      </trkpt>
      <trkpt lat="48.20461" lon="-3.03506">
        <ele>174</ele>
        <time>2015-06-10T10:03:38Z</time>
      </trkpt>
      <trkpt lat="48.20461" lon="-3.03508">
        <ele>174</ele>
        <time>2015-06-10T10:03:40Z</time>
      </trkpt>
      <trkpt lat="48.20461" lon="-3.0351">
        <ele>174</ele>
        <time>2015-06-10T10:03:53Z</time>
      </trkpt>
      <trkpt lat="48.20463" lon="-3.03512">
        <ele>174</ele>
        <time>2015-06-10T10:04:08Z</time>
      </trkpt>
      <trkpt lat="48.20464" lon="-3.03515">
        <ele>174</ele>
        <time>2015-06-10T10:04:10Z</time>
      </trkpt>
      <trkpt lat="48.20466" lon="-3.03521">
        <ele>174</ele>
        <time>2015-06-10T10:04:13Z</time>
      </trkpt>
      <trkpt lat="48.20467" lon="-3.03525">
        <ele>174</ele>
        <time>2015-06-10T10:04:16Z</time>
      </trkpt>
      <trkpt lat="48.20467" lon="-3.03528">
        <ele>174</ele>
        <time>2015-06-10T10:04:18Z</time>
      </trkpt>
      <trkpt lat="48.20468" lon="-3.03531">
        <ele>174</ele>
        <time>2015-06-10T10:04:20Z</time>
      </trkpt>
      <trkpt lat="48.2047" lon="-3.03536">
        <ele>174</ele>
        <time>2015-06-10T10:04:23Z</time>
      </trkpt>
      <trkpt lat="48.2047" lon="-3.03539">
        <ele>174</ele>
        <time>2015-06-10T10:04:26Z</time>
      </trkpt>
      <trkpt lat="48.20471" lon="-3.03543">
        <ele>174</ele>
        <time>2015-06-10T10:04:30Z</time>
      </trkpt>
      <trkpt lat="48.20472" lon="-3.03545">
        <ele>174</ele>
        <time>2015-06-10T10:04:32Z</time>
      </trkpt>
      <trkpt lat="48.20476" lon="-3.03548">
        <ele>174</ele>
        <time>2015-06-10T10:04:35Z</time>
      </trkpt>
      <trkpt lat="48.20477" lon="-3.03551">
        <ele>174</ele>
        <time>2015-06-10T10:04:37Z</time>
      </trkpt>
      <trkpt lat="48.20477" lon="-3.03556">
        <ele>173</ele>
        <time>2015-06-10T10:04:40Z</time>
      </trkpt>
      <trkpt lat="48.20477" lon="-3.03559">
        <ele>173</ele>
        <time>2015-06-10T10:04:42Z</time>
      </trkpt>
      <trkpt lat="48.20478" lon="-3.03563">
        <ele>173</ele>
        <time>2015-06-10T10:04:44Z</time>
      </trkpt>
      <trkpt lat="48.20478" lon="-3.03566">
        <ele>171</ele>
        <time>2015-06-10T10:04:46Z</time>
      </trkpt>
      <trkpt lat="48.2048" lon="-3.03568">
        <ele>170</ele>
        <time>2015-06-10T10:04:48Z</time>
      </trkpt>
      <trkpt lat="48.20482" lon="-3.03569">
        <ele>170</ele>
        <time>2015-06-10T10:04:51Z</time>
      </trkpt>
      <trkpt lat="48.20485" lon="-3.03571">
        <ele>169</ele>
        <time>2015-06-10T10:04:53Z</time>
      </trkpt>
      <trkpt lat="48.20488" lon="-3.03574">
        <ele>168</ele>
        <time>2015-06-10T10:04:56Z</time>
      </trkpt>
      <trkpt lat="48.20489" lon="-3.03576">
        <ele>168</ele>
        <time>2015-06-10T10:04:58Z</time>
      </trkpt>
      <trkpt lat="48.20489" lon="-3.03579">
        <ele>167</ele>
        <time>2015-06-10T10:05:00Z</time>
      </trkpt>
      <trkpt lat="48.20491" lon="-3.03586">
        <ele>166</ele>
        <time>2015-06-10T10:05:02Z</time>
      </trkpt>
      <trkpt lat="48.20493" lon="-3.03592">
        <ele>166</ele>
        <time>2015-06-10T10:05:06Z</time>
      </trkpt>
      <trkpt lat="48.20496" lon="-3.03596">
        <ele>166</ele>
        <time>2015-06-10T10:05:09Z</time>
      </trkpt>
      <trkpt lat="48.20499" lon="-3.03599">
        <ele>166</ele>
        <time>2015-06-10T10:05:12Z</time>
      </trkpt>
      <trkpt lat="48.20502" lon="-3.03605">
        <ele>166</ele>
        <time>2015-06-10T10:05:16Z</time>
      </trkpt>
      <trkpt lat="48.20505" lon="-3.03609">
        <ele>166</ele>
        <time>2015-06-10T10:05:20Z</time>
      </trkpt>
      <trkpt lat="48.20507" lon="-3.03611">
        <ele>166</ele>
        <time>2015-06-10T10:05:22Z</time>
      </trkpt>
      <trkpt lat="48.20508" lon="-3.03614">
        <ele>166</ele>
        <time>2015-06-10T10:05:25Z</time>
      </trkpt>
      <trkpt lat="48.20509" lon="-3.03617">
        <ele>166</ele>
        <time>2015-06-10T10:05:27Z</time>
      </trkpt>
      <trkpt lat="48.2051" lon="-3.03621">
        <ele>166</ele>
        <time>2015-06-10T10:05:29Z</time>
      </trkpt>
      <trkpt lat="48.20511" lon="-3.03626">
        <ele>166</ele>
        <time>2015-06-10T10:05:32Z</time>
      </trkpt>
      <trkpt lat="48.20511" lon="-3.03632">
        <ele>166</ele>
        <time>2015-06-10T10:05:35Z</time>
      </trkpt>
      <trkpt lat="48.20511" lon="-3.03636">
        <ele>166</ele>
        <time>2015-06-10T10:05:37Z</time>
      </trkpt>
      <trkpt lat="48.20511" lon="-3.0364">
        <ele>166</ele>
        <time>2015-06-10T10:05:39Z</time>
      </trkpt>
      <trkpt lat="48.2051" lon="-3.03643">
        <ele>166</ele>
        <time>2015-06-10T10:05:43Z</time>
      </trkpt>
      <trkpt lat="48.20509" lon="-3.03645">
        <ele>166</ele>
        <time>2015-06-10T10:05:46Z</time>
      </trkpt>
      <trkpt lat="48.20509" lon="-3.03647">
        <ele>166</ele>
        <time>2015-06-10T10:05:50Z</time>
      </trkpt>
      <trkpt lat="48.20508" lon="-3.03649">
        <ele>166</ele>
        <time>2015-06-10T10:05:55Z</time>
      </trkpt>
      <trkpt lat="48.20507" lon="-3.03651">
        <ele>166</ele>
        <time>2015-06-10T10:05:57Z</time>
      </trkpt>
      <trkpt lat="48.20507" lon="-3.03652">
        <ele>167</ele>
        <time>2015-06-10T10:06:06Z</time>
      </trkpt>
      <trkpt lat="48.20507" lon="-3.03654">
        <ele>168</ele>
        <time>2015-06-10T10:06:24Z</time>
      </trkpt>
      <trkpt lat="48.20508" lon="-3.03656">
        <ele>170</ele>
        <time>2015-06-10T10:06:32Z</time>
      </trkpt>
      <trkpt lat="48.20509" lon="-3.03659">
        <ele>170</ele>
        <time>2015-06-10T10:06:35Z</time>
      </trkpt>
      <trkpt lat="48.2051" lon="-3.03662">
        <ele>170</ele>
        <time>2015-06-10T10:06:37Z</time>
      </trkpt>
      <trkpt lat="48.2051" lon="-3.03667">
        <ele>170</ele>
        <time>2015-06-10T10:06:39Z</time>
      </trkpt>
      <trkpt lat="48.2051" lon="-3.0367">
        <ele>170</ele>
        <time>2015-06-10T10:06:42Z</time>
      </trkpt>
      <trkpt lat="48.20511" lon="-3.03674">
        <ele>170</ele>
        <time>2015-06-10T10:06:44Z</time>
      </trkpt>
      <trkpt lat="48.20512" lon="-3.03678">
        <ele>170</ele>
        <time>2015-06-10T10:06:46Z</time>
      </trkpt>
      <trkpt lat="48.20512" lon="-3.03681">
        <ele>170</ele>
        <time>2015-06-10T10:06:48Z</time>
      </trkpt>
      <trkpt lat="48.20511" lon="-3.03682">
        <ele>170</ele>
        <time>2015-06-10T10:06:50Z</time>
      </trkpt>
      <trkpt lat="48.2051" lon="-3.03684">
        <ele>170</ele>
        <time>2015-06-10T10:06:59Z</time>
      </trkpt>
      <trkpt lat="48.20512" lon="-3.03687">
        <ele>171</ele>
        <time>2015-06-10T10:07:04Z</time>
      </trkpt>
      <trkpt lat="48.20513" lon="-3.0369">
        <ele>171</ele>
        <time>2015-06-10T10:07:06Z</time>
      </trkpt>
      <trkpt lat="48.20515" lon="-3.03693">
        <ele>171</ele>
        <time>2015-06-10T10:07:08Z</time>
      </trkpt>
      <trkpt lat="48.20515" lon="-3.03696">
        <ele>171</ele>
        <time>2015-06-10T10:07:10Z</time>
      </trkpt>
      <trkpt lat="48.20517" lon="-3.037">
        <ele>171</ele>
        <time>2015-06-10T10:07:14Z</time>
      </trkpt>
      <trkpt lat="48.2052" lon="-3.03705">
        <ele>171</ele>
        <time>2015-06-10T10:07:16Z</time>
      </trkpt>
      <trkpt lat="48.20521" lon="-3.03708">
        <ele>171</ele>
        <time>2015-06-10T10:07:18Z</time>
      </trkpt>
      <trkpt lat="48.20522" lon="-3.03711">
        <ele>171</ele>
        <time>2015-06-10T10:07:20Z</time>
      </trkpt>
      <trkpt lat="48.20523" lon="-3.03713">
        <ele>171</ele>
        <time>2015-06-10T10:07:22Z</time>
      </trkpt>
      <trkpt lat="48.20525" lon="-3.03714">
        <ele>171</ele>
        <time>2015-06-10T10:07:25Z</time>
      </trkpt>
      <trkpt lat="48.20527" lon="-3.0372">
        <ele>171</ele>
        <time>2015-06-10T10:07:28Z</time>
      </trkpt>
      <trkpt lat="48.20527" lon="-3.03723">
        <ele>171</ele>
        <time>2015-06-10T10:07:30Z</time>
      </trkpt>
      <trkpt lat="48.20527" lon="-3.03725">
        <ele>171</ele>
        <time>2015-06-10T10:07:32Z</time>
      </trkpt>
      <trkpt lat="48.20527" lon="-3.03728">
        <ele>171</ele>
        <time>2015-06-10T10:07:34Z</time>
      </trkpt>
      <trkpt lat="48.20527" lon="-3.0373">
        <ele>171</ele>
        <time>2015-06-10T10:07:36Z</time>
      </trkpt>
      <trkpt lat="48.20528" lon="-3.03732">
        <ele>170</ele>
        <time>2015-06-10T10:07:38Z</time>
      </trkpt>
      <trkpt lat="48.20529" lon="-3.03734">
        <ele>170</ele>
        <time>2015-06-10T10:07:41Z</time>
      </trkpt>
      <trkpt lat="48.20533" lon="-3.03738">
        <ele>169</ele>
        <time>2015-06-10T10:07:45Z</time>
      </trkpt>
      <trkpt lat="48.20536" lon="-3.03743">
        <ele>169</ele>
        <time>2015-06-10T10:07:48Z</time>
      </trkpt>
      <trkpt lat="48.20536" lon="-3.03745">
        <ele>168</ele>
        <time>2015-06-10T10:07:50Z</time>
      </trkpt>
      <trkpt lat="48.20537" lon="-3.03747">
        <ele>168</ele>
        <time>2015-06-10T10:07:52Z</time>
      </trkpt>
      <trkpt lat="48.20539" lon="-3.03751">
        <ele>167</ele>
        <time>2015-06-10T10:07:54Z</time>
      </trkpt>
      <trkpt lat="48.2054" lon="-3.03756">
        <ele>166</ele>
        <time>2015-06-10T10:07:57Z</time>
      </trkpt>
      <trkpt lat="48.20539" lon="-3.03759">
        <ele>166</ele>
        <time>2015-06-10T10:07:59Z</time>
      </trkpt>
      <trkpt lat="48.20539" lon="-3.03761">
        <ele>166</ele>
        <time>2015-06-10T10:08:02Z</time>
      </trkpt>
      <trkpt lat="48.2054" lon="-3.03766">
        <ele>166</ele>
        <time>2015-06-10T10:08:05Z</time>
      </trkpt>
      <trkpt lat="48.20542" lon="-3.03768">
        <ele>166</ele>
        <time>2015-06-10T10:08:07Z</time>
      </trkpt>
      <trkpt lat="48.20544" lon="-3.03769">
        <ele>166</ele>
        <time>2015-06-10T10:08:09Z</time>
      </trkpt>
      <trkpt lat="48.20546" lon="-3.03771">
        <ele>166</ele>
        <time>2015-06-10T10:08:12Z</time>
      </trkpt>
      <trkpt lat="48.20549" lon="-3.03772">
        <ele>166</ele>
        <time>2015-06-10T10:08:15Z</time>
      </trkpt>
      <trkpt lat="48.2055" lon="-3.03771">
        <ele>166</ele>
        <time>2015-06-10T10:08:18Z</time>
      </trkpt>
      <trkpt lat="48.20552" lon="-3.03772">
        <ele>166</ele>
        <time>2015-06-10T10:08:20Z</time>
      </trkpt>
      <trkpt lat="48.20553" lon="-3.03772">
        <ele>166</ele>
        <time>2015-06-10T10:08:22Z</time>
      </trkpt>
      <trkpt lat="48.20553" lon="-3.03774">
        <ele>166</ele>
        <time>2015-06-10T10:08:24Z</time>
      </trkpt>
      <trkpt lat="48.20554" lon="-3.03777">
        <ele>166</ele>
        <time>2015-06-10T10:08:26Z</time>
      </trkpt>
      <trkpt lat="48.20555" lon="-3.03779">
        <ele>166</ele>
        <time>2015-06-10T10:08:28Z</time>
      </trkpt>
      <trkpt lat="48.20556" lon="-3.03781">
        <ele>166</ele>
        <time>2015-06-10T10:08:31Z</time>
      </trkpt>
      <trkpt lat="48.20557" lon="-3.03783">
        <ele>166</ele>
        <time>2015-06-10T10:08:39Z</time>
      </trkpt>
      <trkpt lat="48.20557" lon="-3.03787">
        <ele>166</ele>
        <time>2015-06-10T10:08:42Z</time>
      </trkpt>
      <trkpt lat="48.20559" lon="-3.03789">
        <ele>166</ele>
        <time>2015-06-10T10:08:44Z</time>
      </trkpt>
      <trkpt lat="48.2056" lon="-3.03792">
        <ele>166</ele>
        <time>2015-06-10T10:08:47Z</time>
      </trkpt>
      <trkpt lat="48.20561" lon="-3.03797">
        <ele>166</ele>
        <time>2015-06-10T10:08:49Z</time>
      </trkpt>
      <trkpt lat="48.20562" lon="-3.038">
        <ele>166</ele>
        <time>2015-06-10T10:08:51Z</time>
      </trkpt>
      <trkpt lat="48.20562" lon="-3.03803">
        <ele>166</ele>
        <time>2015-06-10T10:08:53Z</time>
      </trkpt>
      <trkpt lat="48.20563" lon="-3.03805">
        <ele>166</ele>
        <time>2015-06-10T10:08:55Z</time>
      </trkpt>
      <trkpt lat="48.20564" lon="-3.03807">
        <ele>166</ele>
        <time>2015-06-10T10:08:57Z</time>
      </trkpt>
      <trkpt lat="48.20564" lon="-3.03809">
        <ele>166</ele>
        <time>2015-06-10T10:08:59Z</time>
      </trkpt>
      <trkpt lat="48.20564" lon="-3.03811">
        <ele>166</ele>
        <time>2015-06-10T10:09:02Z</time>
      </trkpt>
      <trkpt lat="48.20564" lon="-3.03815">
        <ele>166</ele>
        <time>2015-06-10T10:09:06Z</time>
      </trkpt>
      <trkpt lat="48.20564" lon="-3.03817">
        <ele>166</ele>
        <time>2015-06-10T10:09:09Z</time>
      </trkpt>
      <trkpt lat="48.20562" lon="-3.03818">
        <ele>166</ele>
        <time>2015-06-10T10:09:12Z</time>
      </trkpt>
      <trkpt lat="48.20562" lon="-3.0382">
        <ele>165</ele>
        <time>2015-06-10T10:09:19Z</time>
      </trkpt>
      <trkpt lat="48.20561" lon="-3.03821">
        <ele>165</ele>
        <time>2015-06-10T10:09:22Z</time>
      </trkpt>
      <trkpt lat="48.20561" lon="-3.03824">
        <ele>165</ele>
        <time>2015-06-10T10:09:24Z</time>
      </trkpt>
      <trkpt lat="48.20561" lon="-3.03826">
        <ele>164</ele>
        <time>2015-06-10T10:09:26Z</time>
      </trkpt>
      <trkpt lat="48.2056" lon="-3.03828">
        <ele>163</ele>
        <time>2015-06-10T10:09:29Z</time>
      </trkpt>
      <trkpt lat="48.20559" lon="-3.0383">
        <ele>163</ele>
        <time>2015-06-10T10:09:33Z</time>
      </trkpt>
      <trkpt lat="48.20559" lon="-3.03832">
        <ele>162</ele>
        <time>2015-06-10T10:09:35Z</time>
      </trkpt>
      <trkpt lat="48.20558" lon="-3.03833">
        <ele>161</ele>
        <time>2015-06-10T10:09:37Z</time>
      </trkpt>
      <trkpt lat="48.20557" lon="-3.03836">
        <ele>161</ele>
        <time>2015-06-10T10:09:40Z</time>
      </trkpt>
      <trkpt lat="48.20556" lon="-3.03837">
        <ele>161</ele>
        <time>2015-06-10T10:09:42Z</time>
      </trkpt>
      <trkpt lat="48.20556" lon="-3.03839">
        <ele>160</ele>
        <time>2015-06-10T10:09:44Z</time>
      </trkpt>
      <trkpt lat="48.20556" lon="-3.03843">
        <ele>159</ele>
        <time>2015-06-10T10:09:47Z</time>
      </trkpt>
      <trkpt lat="48.20556" lon="-3.03846">
        <ele>159</ele>
        <time>2015-06-10T10:09:49Z</time>
      </trkpt>
      <trkpt lat="48.20557" lon="-3.03848">
        <ele>159</ele>
        <time>2015-06-10T10:09:52Z</time>
      </trkpt>
      <trkpt lat="48.20558" lon="-3.03849">
        <ele>159</ele>
        <time>2015-06-10T10:10:00Z</time>
      </trkpt>
      <trkpt lat="48.20558" lon="-3.03851">
        <ele>159</ele>
        <time>2015-06-10T10:10:07Z</time>
      </trkpt>
      <trkpt lat="48.20558" lon="-3.03853">
        <ele>159</ele>
        <time>2015-06-10T10:10:09Z</time>
      </trkpt>
      <trkpt lat="48.20557" lon="-3.03855">
        <ele>158</ele>
        <time>2015-06-10T10:10:14Z</time>
      </trkpt>
      <trkpt lat="48.20557" lon="-3.03857">
        <ele>157</ele>
        <time>2015-06-10T10:10:16Z</time>
      </trkpt>
      <trkpt lat="48.20556" lon="-3.03859">
        <ele>157</ele>
        <time>2015-06-10T10:10:20Z</time>
      </trkpt>
      <trkpt lat="48.20556" lon="-3.0386">
        <ele>155</ele>
        <time>2015-06-10T10:10:30Z</time>
      </trkpt>
      <trkpt lat="48.20554" lon="-3.03862">
        <ele>155</ele>
        <time>2015-06-10T10:10:33Z</time>
      </trkpt>
      <trkpt lat="48.20553" lon="-3.03861">
        <ele>155</ele>
        <time>2015-06-10T10:10:35Z</time>
      </trkpt>
      <trkpt lat="48.20552" lon="-3.03861">
        <ele>155</ele>
        <time>2015-06-10T10:10:40Z</time>
      </trkpt>
      <trkpt lat="48.2055" lon="-3.03862">
        <ele>154</ele>
        <time>2015-06-10T10:10:43Z</time>
      </trkpt>
      <trkpt lat="48.20549" lon="-3.03863">
        <ele>154</ele>
        <time>2015-06-10T10:10:47Z</time>
      </trkpt>
      <trkpt lat="48.20547" lon="-3.03863">
        <ele>154</ele>
        <time>2015-06-10T10:10:53Z</time>
      </trkpt>
      <trkpt lat="48.20546" lon="-3.03863">
        <ele>154</ele>
        <time>2015-06-10T10:10:56Z</time>
      </trkpt>
      <trkpt lat="48.20545" lon="-3.03861">
        <ele>154</ele>
        <time>2015-06-10T10:10:58Z</time>
      </trkpt>
      <trkpt lat="48.20544" lon="-3.03859">
        <ele>153</ele>
        <time>2015-06-10T10:11:00Z</time>
      </trkpt>
      <trkpt lat="48.20543" lon="-3.03859">
        <ele>152</ele>
        <time>2015-06-10T10:11:04Z</time>
      </trkpt>
      <trkpt lat="48.20541" lon="-3.03861">
        <ele>151</ele>
        <time>2015-06-10T10:11:09Z</time>
      </trkpt>
      <trkpt lat="48.2054" lon="-3.03865">
        <ele>150</ele>
        <time>2015-06-10T10:11:14Z</time>
      </trkpt>
      <trkpt lat="48.20537" lon="-3.03867">
        <ele>149</ele>
        <time>2015-06-10T10:11:17Z</time>
      </trkpt>
      <trkpt lat="48.20536" lon="-3.03869">
        <ele>149</ele>
        <time>2015-06-10T10:11:21Z</time>
      </trkpt>
      <trkpt lat="48.20533" lon="-3.03869">
        <ele>148</ele>
        <time>2015-06-10T10:11:24Z</time>
      </trkpt>
      <trkpt lat="48.20531" lon="-3.03869">
        <ele>148</ele>
        <time>2015-06-10T10:11:26Z</time>
      </trkpt>
      <trkpt lat="48.2053" lon="-3.03871">
        <ele>147</ele>
        <time>2015-06-10T10:11:30Z</time>
      </trkpt>
      <trkpt lat="48.20531" lon="-3.0387">
        <ele>146</ele>
        <time>2015-06-10T10:11:35Z</time>
      </trkpt>
      <trkpt lat="48.2053" lon="-3.03872">
        <ele>143</ele>
        <time>2015-06-10T10:11:43Z</time>
      </trkpt>
      <trkpt lat="48.20529" lon="-3.03874">
        <ele>142</ele>
        <time>2015-06-10T10:11:47Z</time>
      </trkpt>
      <trkpt lat="48.20528" lon="-3.03874">
        <ele>142</ele>
        <time>2015-06-10T10:11:50Z</time>
      </trkpt>
      <trkpt lat="48.20527" lon="-3.03876">
        <ele>141</ele>
        <time>2015-06-10T10:11:54Z</time>
      </trkpt>
      <trkpt lat="48.20525" lon="-3.03878">
        <ele>141</ele>
        <time>2015-06-10T10:11:57Z</time>
      </trkpt>
      <trkpt lat="48.20525" lon="-3.03879">
        <ele>140</ele>
        <time>2015-06-10T10:12:03Z</time>
      </trkpt>
      <trkpt lat="48.20523" lon="-3.03879">
        <ele>139</ele>
        <time>2015-06-10T10:12:06Z</time>
      </trkpt>
      <trkpt lat="48.20522" lon="-3.03878">
        <ele>138</ele>
        <time>2015-06-10T10:12:09Z</time>
      </trkpt>
      <trkpt lat="48.2052" lon="-3.03876">
        <ele>137</ele>
        <time>2015-06-10T10:12:11Z</time>
      </trkpt>
      <trkpt lat="48.20519" lon="-3.03877">
        <ele>136</ele>
        <time>2015-06-10T10:12:14Z</time>
      </trkpt>
      <trkpt lat="48.20519" lon="-3.0388">
        <ele>135</ele>
        <time>2015-06-10T10:12:16Z</time>
      </trkpt>
      <trkpt lat="48.20519" lon="-3.03883">
        <ele>134</ele>
        <time>2015-06-10T10:12:19Z</time>
      </trkpt>
      <trkpt lat="48.20517" lon="-3.03889">
        <ele>134</ele>
        <time>2015-06-10T10:12:21Z</time>
      </trkpt>
      <trkpt lat="48.20516" lon="-3.03892">
        <ele>134</ele>
        <time>2015-06-10T10:12:23Z</time>
      </trkpt>
      <trkpt lat="48.20516" lon="-3.03894">
        <ele>134</ele>
        <time>2015-06-10T10:12:25Z</time>
      </trkpt>
      <trkpt lat="48.20515" lon="-3.03897">
        <ele>134</ele>
        <time>2015-06-10T10:12:28Z</time>
      </trkpt>
      <trkpt lat="48.20514" lon="-3.03898">
        <ele>134</ele>
        <time>2015-06-10T10:12:32Z</time>
      </trkpt>
      <trkpt lat="48.20513" lon="-3.03896">
        <ele>133</ele>
        <time>2015-06-10T10:12:35Z</time>
      </trkpt>
      <trkpt lat="48.20512" lon="-3.03894">
        <ele>132</ele>
        <time>2015-06-10T10:12:38Z</time>
      </trkpt>
      <trkpt lat="48.20511" lon="-3.03894">
        <ele>131</ele>
        <time>2015-06-10T10:12:42Z</time>
      </trkpt>
      <trkpt lat="48.20509" lon="-3.03896">
        <ele>129</ele>
        <time>2015-06-10T10:12:45Z</time>
      </trkpt>
      <trkpt lat="48.20509" lon="-3.03899">
        <ele>129</ele>
        <time>2015-06-10T10:12:47Z</time>
      </trkpt>
      <trkpt lat="48.20508" lon="-3.03901">
        <ele>128</ele>
        <time>2015-06-10T10:12:49Z</time>
      </trkpt>
      <trkpt lat="48.20507" lon="-3.03906">
        <ele>128</ele>
        <time>2015-06-10T10:12:51Z</time>
      </trkpt>
      <trkpt lat="48.20507" lon="-3.03909">
        <ele>128</ele>
        <time>2015-06-10T10:12:53Z</time>
      </trkpt>
      <trkpt lat="48.20507" lon="-3.03912">
        <ele>128</ele>
        <time>2015-06-10T10:12:55Z</time>
      </trkpt>
      <trkpt lat="48.20507" lon="-3.03913">
        <ele>128</ele>
        <time>2015-06-10T10:12:58Z</time>
      </trkpt>
      <trkpt lat="48.20508" lon="-3.03917">
        <ele>128</ele>
        <time>2015-06-10T10:13:00Z</time>
      </trkpt>
      <trkpt lat="48.20507" lon="-3.03923">
        <ele>128</ele>
        <time>2015-06-10T10:13:02Z</time>
      </trkpt>
      <trkpt lat="48.20508" lon="-3.03927">
        <ele>128</ele>
        <time>2015-06-10T10:13:05Z</time>
      </trkpt>
      <trkpt lat="48.20508" lon="-3.03929">
        <ele>128</ele>
        <time>2015-06-10T10:13:07Z</time>
      </trkpt>
      <trkpt lat="48.20508" lon="-3.03931">
        <ele>128</ele>
        <time>2015-06-10T10:13:09Z</time>
      </trkpt>
      <trkpt lat="48.20509" lon="-3.03933">
        <ele>128</ele>
        <time>2015-06-10T10:13:12Z</time>
      </trkpt>
      <trkpt lat="48.20511" lon="-3.03939">
        <ele>128</ele>
        <time>2015-06-10T10:13:15Z</time>
      </trkpt>
      <trkpt lat="48.20511" lon="-3.03941">
        <ele>128</ele>
        <time>2015-06-10T10:13:17Z</time>
      </trkpt>
      <trkpt lat="48.20511" lon="-3.03943">
        <ele>128</ele>
        <time>2015-06-10T10:13:19Z</time>
      </trkpt>
      <trkpt lat="48.20512" lon="-3.03947">
        <ele>128</ele>
        <time>2015-06-10T10:13:21Z</time>
      </trkpt>
      <trkpt lat="48.20512" lon="-3.03951">
        <ele>128</ele>
        <time>2015-06-10T10:13:23Z</time>
      </trkpt>
      <trkpt lat="48.20512" lon="-3.03956">
        <ele>128</ele>
        <time>2015-06-10T10:13:26Z</time>
      </trkpt>
      <trkpt lat="48.20511" lon="-3.03959">
        <ele>128</ele>
        <time>2015-06-10T10:13:28Z</time>
      </trkpt>
      <trkpt lat="48.20511" lon="-3.03961">
        <ele>128</ele>
        <time>2015-06-10T10:13:30Z</time>
      </trkpt>
      <trkpt lat="48.2051" lon="-3.03964">
        <ele>128</ele>
        <time>2015-06-10T10:13:32Z</time>
      </trkpt>
      <trkpt lat="48.20509" lon="-3.03966">
        <ele>128</ele>
        <time>2015-06-10T10:13:35Z</time>
      </trkpt>
      <trkpt lat="48.20509" lon="-3.03971">
        <ele>128</ele>
        <time>2015-06-10T10:13:37Z</time>
      </trkpt>
      <trkpt lat="48.20509" lon="-3.03974">
        <ele>128</ele>
        <time>2015-06-10T10:13:39Z</time>
      </trkpt>
      <trkpt lat="48.20509" lon="-3.03976">
        <ele>128</ele>
        <time>2015-06-10T10:13:41Z</time>
      </trkpt>
      <trkpt lat="48.20509" lon="-3.03977">
        <ele>128</ele>
        <time>2015-06-10T10:13:43Z</time>
      </trkpt>
      <trkpt lat="48.20509" lon="-3.0398">
        <ele>128</ele>
        <time>2015-06-10T10:13:45Z</time>
      </trkpt>
      <trkpt lat="48.2051" lon="-3.03983">
        <ele>128</ele>
        <time>2015-06-10T10:13:47Z</time>
      </trkpt>
      <trkpt lat="48.20511" lon="-3.03987">
        <ele>128</ele>
        <time>2015-06-10T10:13:49Z</time>
      </trkpt>
      <trkpt lat="48.20512" lon="-3.03988">
        <ele>128</ele>
        <time>2015-06-10T10:13:51Z</time>
      </trkpt>
      <trkpt lat="48.20514" lon="-3.03991">
        <ele>128</ele>
        <time>2015-06-10T10:13:54Z</time>
      </trkpt>
      <trkpt lat="48.20514" lon="-3.03993">
        <ele>128</ele>
        <time>2015-06-10T10:13:56Z</time>
      </trkpt>
      <trkpt lat="48.20515" lon="-3.03997">
        <ele>128</ele>
        <time>2015-06-10T10:13:58Z</time>
      </trkpt>
      <trkpt lat="48.20517" lon="-3.04001">
        <ele>128</ele>
        <time>2015-06-10T10:14:01Z</time>
      </trkpt>
      <trkpt lat="48.20516" lon="-3.04004">
        <ele>128</ele>
        <time>2015-06-10T10:14:03Z</time>
      </trkpt>
      <trkpt lat="48.20517" lon="-3.0401">
        <ele>128</ele>
        <time>2015-06-10T10:14:05Z</time>
      </trkpt>
      <trkpt lat="48.20517" lon="-3.04014">
        <ele>128</ele>
        <time>2015-06-10T10:14:08Z</time>
      </trkpt>
      <trkpt lat="48.20517" lon="-3.04018">
        <ele>128</ele>
        <time>2015-06-10T10:14:10Z</time>
      </trkpt>
      <trkpt lat="48.20518" lon="-3.04021">
        <ele>128</ele>
        <time>2015-06-10T10:14:12Z</time>
      </trkpt>
      <trkpt lat="48.20519" lon="-3.04023">
        <ele>128</ele>
        <time>2015-06-10T10:14:14Z</time>
      </trkpt>
      <trkpt lat="48.2052" lon="-3.04026">
        <ele>128</ele>
        <time>2015-06-10T10:14:16Z</time>
      </trkpt>
      <trkpt lat="48.2052" lon="-3.04028">
        <ele>128</ele>
        <time>2015-06-10T10:14:18Z</time>
      </trkpt>
      <trkpt lat="48.2052" lon="-3.04031">
        <ele>128</ele>
        <time>2015-06-10T10:14:21Z</time>
      </trkpt>
      <trkpt lat="48.20523" lon="-3.04036">
        <ele>128</ele>
        <time>2015-06-10T10:14:25Z</time>
      </trkpt>
      <trkpt lat="48.20525" lon="-3.04042">
        <ele>128</ele>
        <time>2015-06-10T10:14:27Z</time>
      </trkpt>
      <trkpt lat="48.20527" lon="-3.04045">
        <ele>128</ele>
        <time>2015-06-10T10:14:30Z</time>
      </trkpt>
      <trkpt lat="48.20527" lon="-3.04048">
        <ele>128</ele>
        <time>2015-06-10T10:14:32Z</time>
      </trkpt>
      <trkpt lat="48.20529" lon="-3.04052">
        <ele>128</ele>
        <time>2015-06-10T10:14:34Z</time>
      </trkpt>
      <trkpt lat="48.20529" lon="-3.04054">
        <ele>128</ele>
        <time>2015-06-10T10:14:37Z</time>
      </trkpt>
      <trkpt lat="48.20531" lon="-3.0406">
        <ele>128</ele>
        <time>2015-06-10T10:14:40Z</time>
      </trkpt>
      <trkpt lat="48.20532" lon="-3.04063">
        <ele>128</ele>
        <time>2015-06-10T10:14:43Z</time>
      </trkpt>
      <trkpt lat="48.20535" lon="-3.04067">
        <ele>128</ele>
        <time>2015-06-10T10:14:46Z</time>
      </trkpt>
      <trkpt lat="48.20537" lon="-3.04072">
        <ele>128</ele>
        <time>2015-06-10T10:14:49Z</time>
      </trkpt>
      <trkpt lat="48.20537" lon="-3.04074">
        <ele>128</ele>
        <time>2015-06-10T10:14:51Z</time>
      </trkpt>
      <trkpt lat="48.20537" lon="-3.04076">
        <ele>128</ele>
        <time>2015-06-10T10:14:53Z</time>
      </trkpt>
      <trkpt lat="48.20537" lon="-3.04082">
        <ele>128</ele>
        <time>2015-06-10T10:14:56Z</time>
      </trkpt>
      <trkpt lat="48.20538" lon="-3.04086">
        <ele>128</ele>
        <time>2015-06-10T10:15:00Z</time>
      </trkpt>
      <trkpt lat="48.20539" lon="-3.04091">
        <ele>128</ele>
        <time>2015-06-10T10:15:04Z</time>
      </trkpt>
      <trkpt lat="48.20542" lon="-3.04094">
        <ele>128</ele>
        <time>2015-06-10T10:15:06Z</time>
      </trkpt>
      <trkpt lat="48.20543" lon="-3.04096">
        <ele>128</ele>
        <time>2015-06-10T10:15:08Z</time>
      </trkpt>
      <trkpt lat="48.20544" lon="-3.041">
        <ele>128</ele>
        <time>2015-06-10T10:15:10Z</time>
      </trkpt>
      <trkpt lat="48.20544" lon="-3.04103">
        <ele>128</ele>
        <time>2015-06-10T10:15:12Z</time>
      </trkpt>
      <trkpt lat="48.20544" lon="-3.04108">
        <ele>128</ele>
        <time>2015-06-10T10:15:14Z</time>
      </trkpt>
      <trkpt lat="48.20545" lon="-3.04112">
        <ele>128</ele>
        <time>2015-06-10T10:15:16Z</time>
      </trkpt>
      <trkpt lat="48.20545" lon="-3.04114">
        <ele>128</ele>
        <time>2015-06-10T10:15:18Z</time>
      </trkpt>
      <trkpt lat="48.20546" lon="-3.04116">
        <ele>128</ele>
        <time>2015-06-10T10:15:20Z</time>
      </trkpt>
      <trkpt lat="48.20547" lon="-3.0412">
        <ele>128</ele>
        <time>2015-06-10T10:15:24Z</time>
      </trkpt>
      <trkpt lat="48.20549" lon="-3.04124">
        <ele>128</ele>
        <time>2015-06-10T10:15:27Z</time>
      </trkpt>
      <trkpt lat="48.20552" lon="-3.04129">
        <ele>128</ele>
        <time>2015-06-10T10:15:30Z</time>
      </trkpt>
      <trkpt lat="48.20553" lon="-3.04132">
        <ele>128</ele>
        <time>2015-06-10T10:15:32Z</time>
      </trkpt>
      <trkpt lat="48.20553" lon="-3.04134">
        <ele>128</ele>
        <time>2015-06-10T10:15:34Z</time>
      </trkpt>
      <trkpt lat="48.20554" lon="-3.04139">
        <ele>128</ele>
        <time>2015-06-10T10:15:36Z</time>
      </trkpt>
      <trkpt lat="48.20554" lon="-3.04142">
        <ele>128</ele>
        <time>2015-06-10T10:15:38Z</time>
      </trkpt>
      <trkpt lat="48.20553" lon="-3.04146">
        <ele>128</ele>
        <time>2015-06-10T10:15:40Z</time>
      </trkpt>
      <trkpt lat="48.20553" lon="-3.0415">
        <ele>128</ele>
        <time>2015-06-10T10:15:42Z</time>
      </trkpt>
      <trkpt lat="48.20553" lon="-3.04154">
        <ele>129</ele>
        <time>2015-06-10T10:15:44Z</time>
      </trkpt>
      <trkpt lat="48.20554" lon="-3.04157">
        <ele>129</ele>
        <time>2015-06-10T10:15:46Z</time>
      </trkpt>
      <trkpt lat="48.20553" lon="-3.04162">
        <ele>129</ele>
        <time>2015-06-10T10:15:49Z</time>
      </trkpt>
      <trkpt lat="48.20552" lon="-3.04164">
        <ele>129</ele>
        <time>2015-06-10T10:15:51Z</time>
      </trkpt>
      <trkpt lat="48.20552" lon="-3.04168">
        <ele>129</ele>
        <time>2015-06-10T10:15:53Z</time>
      </trkpt>
      <trkpt lat="48.20551" lon="-3.04172">
        <ele>129</ele>
        <time>2015-06-10T10:15:56Z</time>
      </trkpt>
      <trkpt lat="48.20551" lon="-3.04177">
        <ele>129</ele>
        <time>2015-06-10T10:15:59Z</time>
      </trkpt>
      <trkpt lat="48.20551" lon="-3.0418">
        <ele>128</ele>
        <time>2015-06-10T10:16:01Z</time>
      </trkpt>
      <trkpt lat="48.20551" lon="-3.04184">
        <ele>128</ele>
        <time>2015-06-10T10:16:03Z</time>
      </trkpt>
      <trkpt lat="48.20554" lon="-3.04188">
        <ele>127</ele>
        <time>2015-06-10T10:16:05Z</time>
      </trkpt>
      <trkpt lat="48.20554" lon="-3.04192">
        <ele>127</ele>
        <time>2015-06-10T10:16:07Z</time>
      </trkpt>
      <trkpt lat="48.20555" lon="-3.04196">
        <ele>127</ele>
        <time>2015-06-10T10:16:09Z</time>
      </trkpt>
      <trkpt lat="48.20555" lon="-3.042">
        <ele>127</ele>
        <time>2015-06-10T10:16:11Z</time>
      </trkpt>
      <trkpt lat="48.20558" lon="-3.04205">
        <ele>127</ele>
        <time>2015-06-10T10:16:14Z</time>
      </trkpt>
      <trkpt lat="48.20559" lon="-3.04209">
        <ele>127</ele>
        <time>2015-06-10T10:16:17Z</time>
      </trkpt>
      <trkpt lat="48.2056" lon="-3.04213">
        <ele>127</ele>
        <time>2015-06-10T10:16:19Z</time>
      </trkpt>
      <trkpt lat="48.20561" lon="-3.04217">
        <ele>127</ele>
        <time>2015-06-10T10:16:21Z</time>
      </trkpt>
      <trkpt lat="48.20562" lon="-3.04219">
        <ele>127</ele>
        <time>2015-06-10T10:16:23Z</time>
      </trkpt>
      <trkpt lat="48.20564" lon="-3.04222">
        <ele>127</ele>
        <time>2015-06-10T10:16:25Z</time>
      </trkpt>
      <trkpt lat="48.20566" lon="-3.04223">
        <ele>127</ele>
        <time>2015-06-10T10:16:27Z</time>
      </trkpt>
      <trkpt lat="48.20569" lon="-3.04226">
        <ele>127</ele>
        <time>2015-06-10T10:16:30Z</time>
      </trkpt>
      <trkpt lat="48.20574" lon="-3.0423">
        <ele>127</ele>
        <time>2015-06-10T10:16:32Z</time>
      </trkpt>
      <trkpt lat="48.20577" lon="-3.04232">
        <ele>127</ele>
        <time>2015-06-10T10:16:34Z</time>
      </trkpt>
      <trkpt lat="48.20578" lon="-3.04233">
        <ele>127</ele>
        <time>2015-06-10T10:16:36Z</time>
      </trkpt>
      <trkpt lat="48.2058" lon="-3.04235">
        <ele>127</ele>
        <time>2015-06-10T10:16:38Z</time>
      </trkpt>
      <trkpt lat="48.20581" lon="-3.04237">
        <ele>127</ele>
        <time>2015-06-10T10:16:40Z</time>
      </trkpt>
      <trkpt lat="48.20582" lon="-3.04239">
        <ele>127</ele>
        <time>2015-06-10T10:16:42Z</time>
      </trkpt>
      <trkpt lat="48.20584" lon="-3.04242">
        <ele>127</ele>
        <time>2015-06-10T10:16:44Z</time>
      </trkpt>
      <trkpt lat="48.20586" lon="-3.04245">
        <ele>127</ele>
        <time>2015-06-10T10:16:47Z</time>
      </trkpt>
      <trkpt lat="48.20589" lon="-3.04247">
        <ele>127</ele>
        <time>2015-06-10T10:16:49Z</time>
      </trkpt>
      <trkpt lat="48.20593" lon="-3.04251">
        <ele>127</ele>
        <time>2015-06-10T10:16:52Z</time>
      </trkpt>
      <trkpt lat="48.20595" lon="-3.04252">
        <ele>127</ele>
        <time>2015-06-10T10:16:54Z</time>
      </trkpt>
      <trkpt lat="48.20596" lon="-3.04253">
        <ele>127</ele>
        <time>2015-06-10T10:16:57Z</time>
      </trkpt>
      <trkpt lat="48.20599" lon="-3.04258">
        <ele>127</ele>
        <time>2015-06-10T10:16:59Z</time>
      </trkpt>
      <trkpt lat="48.20599" lon="-3.0426">
        <ele>127</ele>
        <time>2015-06-10T10:17:01Z</time>
      </trkpt>
      <trkpt lat="48.20601" lon="-3.04263">
        <ele>127</ele>
        <time>2015-06-10T10:17:04Z</time>
      </trkpt>
      <trkpt lat="48.20604" lon="-3.04266">
        <ele>127</ele>
        <time>2015-06-10T10:17:07Z</time>
      </trkpt>
      <trkpt lat="48.20608" lon="-3.04269">
        <ele>127</ele>
        <time>2015-06-10T10:17:09Z</time>
      </trkpt>
      <trkpt lat="48.2061" lon="-3.0427">
        <ele>128</ele>
        <time>2015-06-10T10:17:11Z</time>
      </trkpt>
      <trkpt lat="48.20611" lon="-3.04269">
        <ele>128</ele>
        <time>2015-06-10T10:17:14Z</time>
      </trkpt>
      <trkpt lat="48.20615" lon="-3.0427">
        <ele>128</ele>
        <time>2015-06-10T10:17:18Z</time>
      </trkpt>
      <trkpt lat="48.20619" lon="-3.04268">
        <ele>129</ele>
        <time>2015-06-10T10:17:21Z</time>
      </trkpt>
      <trkpt lat="48.2062" lon="-3.04269">
        <ele>129</ele>
        <time>2015-06-10T10:17:23Z</time>
      </trkpt>
      <trkpt lat="48.20622" lon="-3.04271">
        <ele>129</ele>
        <time>2015-06-10T10:17:25Z</time>
      </trkpt>
      <trkpt lat="48.20624" lon="-3.04274">
        <ele>129</ele>
        <time>2015-06-10T10:17:27Z</time>
      </trkpt>
      <trkpt lat="48.20626" lon="-3.04276">
        <ele>129</ele>
        <time>2015-06-10T10:17:29Z</time>
      </trkpt>
      <trkpt lat="48.20627" lon="-3.04278">
        <ele>129</ele>
        <time>2015-06-10T10:17:31Z</time>
      </trkpt>
      <trkpt lat="48.20629" lon="-3.0428">
        <ele>129</ele>
        <time>2015-06-10T10:17:34Z</time>
      </trkpt>
      <trkpt lat="48.20632" lon="-3.0428">
        <ele>129</ele>
        <time>2015-06-10T10:17:38Z</time>
      </trkpt>
      <trkpt lat="48.20633" lon="-3.0428">
        <ele>129</ele>
        <time>2015-06-10T10:17:42Z</time>
      </trkpt>
      <trkpt lat="48.20635" lon="-3.04278">
        <ele>129</ele>
        <time>2015-06-10T10:17:46Z</time>
      </trkpt>
      <trkpt lat="48.20636" lon="-3.04276">
        <ele>130</ele>
        <time>2015-06-10T10:17:50Z</time>
      </trkpt>
      <trkpt lat="48.20637" lon="-3.04275">
        <ele>131</ele>
        <time>2015-06-10T10:17:52Z</time>
      </trkpt>
      <trkpt lat="48.20639" lon="-3.04273">
        <ele>132</ele>
        <time>2015-06-10T10:17:55Z</time>
      </trkpt>
      <trkpt lat="48.20642" lon="-3.04273">
        <ele>132</ele>
        <time>2015-06-10T10:18:00Z</time>
      </trkpt>
      <trkpt lat="48.20647" lon="-3.04272">
        <ele>133</ele>
        <time>2015-06-10T10:18:04Z</time>
      </trkpt>
      <trkpt lat="48.20649" lon="-3.04271">
        <ele>134</ele>
        <time>2015-06-10T10:18:07Z</time>
      </trkpt>
      <trkpt lat="48.20653" lon="-3.04269">
        <ele>134</ele>
        <time>2015-06-10T10:18:11Z</time>
      </trkpt>
      <trkpt lat="48.20655" lon="-3.04269">
        <ele>135</ele>
        <time>2015-06-10T10:18:13Z</time>
      </trkpt>
      <trkpt lat="48.20656" lon="-3.04268">
        <ele>136</ele>
        <time>2015-06-10T10:18:15Z</time>
      </trkpt>
      <trkpt lat="48.20661" lon="-3.04267">
        <ele>136</ele>
        <time>2015-06-10T10:18:18Z</time>
      </trkpt>
      <trkpt lat="48.20665" lon="-3.04267">
        <ele>136</ele>
        <time>2015-06-10T10:18:21Z</time>
      </trkpt>
      <trkpt lat="48.20667" lon="-3.04268">
        <ele>136</ele>
        <time>2015-06-10T10:18:23Z</time>
      </trkpt>
      <trkpt lat="48.20668" lon="-3.04271">
        <ele>136</ele>
        <time>2015-06-10T10:18:25Z</time>
      </trkpt>
      <trkpt lat="48.2067" lon="-3.04274">
        <ele>136</ele>
        <time>2015-06-10T10:18:31Z</time>
      </trkpt>
      <trkpt lat="48.20673" lon="-3.04276">
        <ele>136</ele>
        <time>2015-06-10T10:18:33Z</time>
      </trkpt>
      <trkpt lat="48.20676" lon="-3.04282">
        <ele>136</ele>
        <time>2015-06-10T10:18:35Z</time>
      </trkpt>
      <trkpt lat="48.20673" lon="-3.04285">
        <ele>136</ele>
        <time>2015-06-10T10:18:39Z</time>
      </trkpt>
      <trkpt lat="48.20672" lon="-3.04292">
        <ele>136</ele>
        <time>2015-06-10T10:18:41Z</time>
      </trkpt>
      <trkpt lat="48.20672" lon="-3.04297">
        <ele>136</ele>
        <time>2015-06-10T10:18:43Z</time>
      </trkpt>
      <trkpt lat="48.20671" lon="-3.04301">
        <ele>136</ele>
        <time>2015-06-10T10:18:45Z</time>
      </trkpt>
      <trkpt lat="48.20671" lon="-3.04304">
        <ele>136</ele>
        <time>2015-06-10T10:18:47Z</time>
      </trkpt>
      <trkpt lat="48.2067" lon="-3.04308">
        <ele>136</ele>
        <time>2015-06-10T10:18:50Z</time>
      </trkpt>
      <trkpt lat="48.2067" lon="-3.0431">
        <ele>136</ele>
        <time>2015-06-10T10:18:53Z</time>
      </trkpt>
      <trkpt lat="48.2067" lon="-3.04314">
        <ele>136</ele>
        <time>2015-06-10T10:18:55Z</time>
      </trkpt>
      <trkpt lat="48.2067" lon="-3.04316">
        <ele>135</ele>
        <time>2015-06-10T10:18:57Z</time>
      </trkpt>
      <trkpt lat="48.20671" lon="-3.04318">
        <ele>134</ele>
        <time>2015-06-10T10:18:59Z</time>
      </trkpt>
      <trkpt lat="48.20672" lon="-3.04323">
        <ele>133</ele>
        <time>2015-06-10T10:19:02Z</time>
      </trkpt>
      <trkpt lat="48.20673" lon="-3.04327">
        <ele>133</ele>
        <time>2015-06-10T10:19:04Z</time>
      </trkpt>
      <trkpt lat="48.20675" lon="-3.04328">
        <ele>133</ele>
        <time>2015-06-10T10:19:06Z</time>
      </trkpt>
      <trkpt lat="48.20675" lon="-3.0433">
        <ele>133</ele>
        <time>2015-06-10T10:19:09Z</time>
      </trkpt>
      <trkpt lat="48.20678" lon="-3.04333">
        <ele>133</ele>
        <time>2015-06-10T10:19:13Z</time>
      </trkpt>
      <trkpt lat="48.20679" lon="-3.04334">
        <ele>133</ele>
        <time>2015-06-10T10:19:15Z</time>
      </trkpt>
      <trkpt lat="48.2068" lon="-3.04334">
        <ele>133</ele>
        <time>2015-06-10T10:19:17Z</time>
      </trkpt>
      <trkpt lat="48.20682" lon="-3.04335">
        <ele>133</ele>
        <time>2015-06-10T10:19:23Z</time>
      </trkpt>
      <trkpt lat="48.20683" lon="-3.04334">
        <ele>133</ele>
        <time>2015-06-10T10:19:25Z</time>
      </trkpt>
      <trkpt lat="48.20686" lon="-3.04334">
        <ele>134</ele>
        <time>2015-06-10T10:19:27Z</time>
      </trkpt>
      <trkpt lat="48.20687" lon="-3.04333">
        <ele>134</ele>
        <time>2015-06-10T10:19:30Z</time>
      </trkpt>
      <trkpt lat="48.2069" lon="-3.04331">
        <ele>134</ele>
        <time>2015-06-10T10:19:33Z</time>
      </trkpt>
      <trkpt lat="48.20692" lon="-3.04328">
        <ele>134</ele>
        <time>2015-06-10T10:19:36Z</time>
      </trkpt>
      <trkpt lat="48.20694" lon="-3.04329">
        <ele>135</ele>
        <time>2015-06-10T10:19:39Z</time>
      </trkpt>
      <trkpt lat="48.20695" lon="-3.04329">
        <ele>135</ele>
        <time>2015-06-10T10:19:41Z</time>
      </trkpt>
      <trkpt lat="48.20696" lon="-3.0433">
        <ele>135</ele>
        <time>2015-06-10T10:19:43Z</time>
      </trkpt>
      <trkpt lat="48.20698" lon="-3.04332">
        <ele>135</ele>
        <time>2015-06-10T10:19:46Z</time>
      </trkpt>
      <trkpt lat="48.20701" lon="-3.04337">
        <ele>135</ele>
        <time>2015-06-10T10:19:49Z</time>
      </trkpt>
      <trkpt lat="48.20703" lon="-3.04342">
        <ele>135</ele>
        <time>2015-06-10T10:19:53Z</time>
      </trkpt>
      <trkpt lat="48.20705" lon="-3.04346">
        <ele>135</ele>
        <time>2015-06-10T10:19:57Z</time>
      </trkpt>
      <trkpt lat="48.20706" lon="-3.04349">
        <ele>135</ele>
        <time>2015-06-10T10:20:00Z</time>
      </trkpt>
      <trkpt lat="48.20708" lon="-3.04353">
        <ele>135</ele>
        <time>2015-06-10T10:20:02Z</time>
      </trkpt>
      <trkpt lat="48.2071" lon="-3.04356">
        <ele>135</ele>
        <time>2015-06-10T10:20:06Z</time>
      </trkpt>
      <trkpt lat="48.2071" lon="-3.04358">
        <ele>135</ele>
        <time>2015-06-10T10:20:08Z</time>
      </trkpt>
      <trkpt lat="48.20712" lon="-3.04365">
        <ele>135</ele>
        <time>2015-06-10T10:20:12Z</time>
      </trkpt>
      <trkpt lat="48.20713" lon="-3.04368">
        <ele>135</ele>
        <time>2015-06-10T10:20:15Z</time>
      </trkpt>
      <trkpt lat="48.20715" lon="-3.04371">
        <ele>135</ele>
        <time>2015-06-10T10:20:17Z</time>
      </trkpt>
      <trkpt lat="48.20717" lon="-3.04376">
        <ele>135</ele>
        <time>2015-06-10T10:20:21Z</time>
      </trkpt>
      <trkpt lat="48.2072" lon="-3.0438">
        <ele>135</ele>
        <time>2015-06-10T10:20:24Z</time>
      </trkpt>
      <trkpt lat="48.20723" lon="-3.04382">
        <ele>136</ele>
        <time>2015-06-10T10:20:26Z</time>
      </trkpt>
      <trkpt lat="48.20725" lon="-3.04383">
        <ele>136</ele>
        <time>2015-06-10T10:20:29Z</time>
      </trkpt>
      <trkpt lat="48.20728" lon="-3.04384">
        <ele>136</ele>
        <time>2015-06-10T10:20:32Z</time>
      </trkpt>
      <trkpt lat="48.20729" lon="-3.04386">
        <ele>136</ele>
        <time>2015-06-10T10:20:34Z</time>
      </trkpt>
      <trkpt lat="48.20731" lon="-3.04387">
        <ele>136</ele>
        <time>2015-06-10T10:20:36Z</time>
      </trkpt>
      <trkpt lat="48.20734" lon="-3.0439">
        <ele>136</ele>
        <time>2015-06-10T10:20:39Z</time>
      </trkpt>
      <trkpt lat="48.20735" lon="-3.04393">
        <ele>136</ele>
        <time>2015-06-10T10:20:41Z</time>
      </trkpt>
      <trkpt lat="48.20737" lon="-3.04398">
        <ele>136</ele>
        <time>2015-06-10T10:20:45Z</time>
      </trkpt>
      <trkpt lat="48.20741" lon="-3.04403">
        <ele>136</ele>
        <time>2015-06-10T10:20:49Z</time>
      </trkpt>
      <trkpt lat="48.20744" lon="-3.04406">
        <ele>136</ele>
        <time>2015-06-10T10:20:52Z</time>
      </trkpt>
      <trkpt lat="48.20745" lon="-3.04407">
        <ele>136</ele>
        <time>2015-06-10T10:20:55Z</time>
      </trkpt>
      <trkpt lat="48.20748" lon="-3.0441">
        <ele>136</ele>
        <time>2015-06-10T10:20:57Z</time>
      </trkpt>
      <trkpt lat="48.2075" lon="-3.04412">
        <ele>136</ele>
        <time>2015-06-10T10:20:59Z</time>
      </trkpt>
      <trkpt lat="48.2075" lon="-3.04414">
        <ele>136</ele>
        <time>2015-06-10T10:21:02Z</time>
      </trkpt>
      <trkpt lat="48.20752" lon="-3.04416">
        <ele>136</ele>
        <time>2015-06-10T10:21:05Z</time>
      </trkpt>
      <trkpt lat="48.20753" lon="-3.04418">
        <ele>136</ele>
        <time>2015-06-10T10:21:08Z</time>
      </trkpt>
      <trkpt lat="48.20756" lon="-3.04421">
        <ele>136</ele>
        <time>2015-06-10T10:21:12Z</time>
      </trkpt>
      <trkpt lat="48.20757" lon="-3.04423">
        <ele>136</ele>
        <time>2015-06-10T10:21:14Z</time>
      </trkpt>
      <trkpt lat="48.20757" lon="-3.04425">
        <ele>136</ele>
        <time>2015-06-10T10:21:16Z</time>
      </trkpt>
      <trkpt lat="48.20757" lon="-3.04428">
        <ele>135</ele>
        <time>2015-06-10T10:21:18Z</time>
      </trkpt>
      <trkpt lat="48.20758" lon="-3.04429">
        <ele>134</ele>
        <time>2015-06-10T10:21:20Z</time>
      </trkpt>
      <trkpt lat="48.20758" lon="-3.04431">
        <ele>133</ele>
        <time>2015-06-10T10:21:22Z</time>
      </trkpt>
      <trkpt lat="48.20758" lon="-3.04434">
        <ele>132</ele>
        <time>2015-06-10T10:21:24Z</time>
      </trkpt>
      <trkpt lat="48.20761" lon="-3.04439">
        <ele>131</ele>
        <time>2015-06-10T10:21:26Z</time>
      </trkpt>
      <trkpt lat="48.20763" lon="-3.04442">
        <ele>131</ele>
        <time>2015-06-10T10:21:29Z</time>
      </trkpt>
      <trkpt lat="48.20767" lon="-3.04447">
        <ele>131</ele>
        <time>2015-06-10T10:21:32Z</time>
      </trkpt>
      <trkpt lat="48.20768" lon="-3.04449">
        <ele>131</ele>
        <time>2015-06-10T10:21:34Z</time>
      </trkpt>
      <trkpt lat="48.2077" lon="-3.04452">
        <ele>131</ele>
        <time>2015-06-10T10:21:36Z</time>
      </trkpt>
      <trkpt lat="48.20772" lon="-3.04455">
        <ele>131</ele>
        <time>2015-06-10T10:21:38Z</time>
      </trkpt>
      <trkpt lat="48.20774" lon="-3.04457">
        <ele>131</ele>
        <time>2015-06-10T10:21:41Z</time>
      </trkpt>
      <trkpt lat="48.20777" lon="-3.04464">
        <ele>131</ele>
        <time>2015-06-10T10:21:44Z</time>
      </trkpt>
      <trkpt lat="48.20778" lon="-3.04467">
        <ele>131</ele>
        <time>2015-06-10T10:21:46Z</time>
      </trkpt>
      <trkpt lat="48.20779" lon="-3.04471">
        <ele>131</ele>
        <time>2015-06-10T10:21:50Z</time>
      </trkpt>
      <trkpt lat="48.20781" lon="-3.04475">
        <ele>131</ele>
        <time>2015-06-10T10:21:54Z</time>
      </trkpt>
      <trkpt lat="48.2078" lon="-3.04476">
        <ele>131</ele>
        <time>2015-06-10T10:21:57Z</time>
      </trkpt>
      <trkpt lat="48.20779" lon="-3.04478">
        <ele>131</ele>
        <time>2015-06-10T10:22:01Z</time>
      </trkpt>
      <trkpt lat="48.20778" lon="-3.04481">
        <ele>131</ele>
        <time>2015-06-10T10:22:04Z</time>
      </trkpt>
      <trkpt lat="48.20776" lon="-3.04484">
        <ele>131</ele>
        <time>2015-06-10T10:22:08Z</time>
      </trkpt>
      <trkpt lat="48.20777" lon="-3.04486">
        <ele>132</ele>
        <time>2015-06-10T10:22:41Z</time>
      </trkpt>
      <trkpt lat="48.20777" lon="-3.04485">
        <ele>132</ele>
        <time>2015-06-10T10:23:07Z</time>
      </trkpt>
      <trkpt lat="48.20776" lon="-3.04483">
        <ele>132</ele>
        <time>2015-06-10T10:23:13Z</time>
      </trkpt>
      <trkpt lat="48.20777" lon="-3.04481">
        <ele>133</ele>
        <time>2015-06-10T10:23:18Z</time>
      </trkpt>
      <trkpt lat="48.20779" lon="-3.0448">
        <ele>133</ele>
        <time>2015-06-10T10:23:21Z</time>
      </trkpt>
      <trkpt lat="48.2078" lon="-3.0448">
        <ele>133</ele>
        <time>2015-06-10T10:23:24Z</time>
      </trkpt>
      <trkpt lat="48.20782" lon="-3.04479">
        <ele>133</ele>
        <time>2015-06-10T10:23:26Z</time>
      </trkpt>
      <trkpt lat="48.20784" lon="-3.04477">
        <ele>133</ele>
        <time>2015-06-10T10:23:29Z</time>
      </trkpt>
      <trkpt lat="48.20787" lon="-3.04474">
        <ele>133</ele>
        <time>2015-06-10T10:23:32Z</time>
      </trkpt>
      <trkpt lat="48.20789" lon="-3.04474">
        <ele>133</ele>
        <time>2015-06-10T10:23:34Z</time>
      </trkpt>
      <trkpt lat="48.20792" lon="-3.04475">
        <ele>133</ele>
        <time>2015-06-10T10:23:37Z</time>
      </trkpt>
      <trkpt lat="48.20793" lon="-3.04475">
        <ele>133</ele>
        <time>2015-06-10T10:23:40Z</time>
      </trkpt>
      <trkpt lat="48.20796" lon="-3.04475">
        <ele>133</ele>
        <time>2015-06-10T10:23:43Z</time>
      </trkpt>
      <trkpt lat="48.20797" lon="-3.04474">
        <ele>133</ele>
        <time>2015-06-10T10:23:45Z</time>
      </trkpt>
      <trkpt lat="48.20798" lon="-3.04472">
        <ele>133</ele>
        <time>2015-06-10T10:23:48Z</time>
      </trkpt>
      <trkpt lat="48.20802" lon="-3.04469">
        <ele>133</ele>
        <time>2015-06-10T10:23:51Z</time>
      </trkpt>
      <trkpt lat="48.20804" lon="-3.04466">
        <ele>133</ele>
        <time>2015-06-10T10:23:56Z</time>
      </trkpt>
      <trkpt lat="48.20807" lon="-3.04466">
        <ele>133</ele>
        <time>2015-06-10T10:24:00Z</time>
      </trkpt>
      <trkpt lat="48.20808" lon="-3.04463">
        <ele>133</ele>
        <time>2015-06-10T10:24:02Z</time>
      </trkpt>
      <trkpt lat="48.20811" lon="-3.0446">
        <ele>132</ele>
        <time>2015-06-10T10:24:05Z</time>
      </trkpt>
      <trkpt lat="48.20812" lon="-3.04459">
        <ele>132</ele>
        <time>2015-06-10T10:24:07Z</time>
      </trkpt>
      <trkpt lat="48.20814" lon="-3.04456">
        <ele>132</ele>
        <time>2015-06-10T10:24:09Z</time>
      </trkpt>
      <trkpt lat="48.20816" lon="-3.04453">
        <ele>131</ele>
        <time>2015-06-10T10:24:11Z</time>
      </trkpt>
      <trkpt lat="48.20818" lon="-3.04451">
        <ele>131</ele>
        <time>2015-06-10T10:24:13Z</time>
      </trkpt>
      <trkpt lat="48.2082" lon="-3.04447">
        <ele>131</ele>
        <time>2015-06-10T10:24:16Z</time>
      </trkpt>
      <trkpt lat="48.20823" lon="-3.04443">
        <ele>131</ele>
        <time>2015-06-10T10:24:18Z</time>
      </trkpt>
      <trkpt lat="48.20826" lon="-3.04439">
        <ele>130</ele>
        <time>2015-06-10T10:24:21Z</time>
      </trkpt>
      <trkpt lat="48.20829" lon="-3.04437">
        <ele>130</ele>
        <time>2015-06-10T10:24:24Z</time>
      </trkpt>
      <trkpt lat="48.20832" lon="-3.04436">
        <ele>129</ele>
        <time>2015-06-10T10:24:26Z</time>
      </trkpt>
      <trkpt lat="48.20834" lon="-3.04435">
        <ele>129</ele>
        <time>2015-06-10T10:24:28Z</time>
      </trkpt>
      <trkpt lat="48.20836" lon="-3.04433">
        <ele>128</ele>
        <time>2015-06-10T10:24:30Z</time>
      </trkpt>
      <trkpt lat="48.20839" lon="-3.04431">
        <ele>127</ele>
        <time>2015-06-10T10:24:33Z</time>
      </trkpt>
      <trkpt lat="48.2084" lon="-3.04429">
        <ele>127</ele>
        <time>2015-06-10T10:24:35Z</time>
      </trkpt>
      <trkpt lat="48.20843" lon="-3.04426">
        <ele>126</ele>
        <time>2015-06-10T10:24:37Z</time>
      </trkpt>
      <trkpt lat="48.20846" lon="-3.04422">
        <ele>126</ele>
        <time>2015-06-10T10:24:40Z</time>
      </trkpt>
      <trkpt lat="48.20849" lon="-3.04423">
        <ele>126</ele>
        <time>2015-06-10T10:24:42Z</time>
      </trkpt>
      <trkpt lat="48.20852" lon="-3.04422">
        <ele>126</ele>
        <time>2015-06-10T10:24:44Z</time>
      </trkpt>
      <trkpt lat="48.20853" lon="-3.0442">
        <ele>126</ele>
        <time>2015-06-10T10:24:46Z</time>
      </trkpt>
      <trkpt lat="48.20856" lon="-3.04419">
        <ele>126</ele>
        <time>2015-06-10T10:24:48Z</time>
      </trkpt>
      <trkpt lat="48.20859" lon="-3.04417">
        <ele>126</ele>
        <time>2015-06-10T10:24:50Z</time>
      </trkpt>
      <trkpt lat="48.2086" lon="-3.04413">
        <ele>126</ele>
        <time>2015-06-10T10:24:53Z</time>
      </trkpt>
      <trkpt lat="48.20861" lon="-3.04411">
        <ele>126</ele>
        <time>2015-06-10T10:24:56Z</time>
      </trkpt>
      <trkpt lat="48.20864" lon="-3.04406">
        <ele>126</ele>
        <time>2015-06-10T10:25:00Z</time>
      </trkpt>
      <trkpt lat="48.20868" lon="-3.04404">
        <ele>126</ele>
        <time>2015-06-10T10:25:02Z</time>
      </trkpt>
      <trkpt lat="48.20869" lon="-3.04403">
        <ele>126</ele>
        <time>2015-06-10T10:25:04Z</time>
      </trkpt>
      <trkpt lat="48.20872" lon="-3.04403">
        <ele>126</ele>
        <time>2015-06-10T10:25:06Z</time>
      </trkpt>
      <trkpt lat="48.20874" lon="-3.04402">
        <ele>126</ele>
        <time>2015-06-10T10:25:08Z</time>
      </trkpt>
      <trkpt lat="48.20876" lon="-3.044">
        <ele>126</ele>
        <time>2015-06-10T10:25:10Z</time>
      </trkpt>
      <trkpt lat="48.20877" lon="-3.04398">
        <ele>126</ele>
        <time>2015-06-10T10:25:13Z</time>
      </trkpt>
      <trkpt lat="48.20881" lon="-3.04394">
        <ele>126</ele>
        <time>2015-06-10T10:25:16Z</time>
      </trkpt>
      <trkpt lat="48.20882" lon="-3.04391">
        <ele>126</ele>
        <time>2015-06-10T10:25:18Z</time>
      </trkpt>
      <trkpt lat="48.20884" lon="-3.04389">
        <ele>126</ele>
        <time>2015-06-10T10:25:20Z</time>
      </trkpt>
      <trkpt lat="48.20885" lon="-3.04386">
        <ele>126</ele>
        <time>2015-06-10T10:25:22Z</time>
      </trkpt>
      <trkpt lat="48.20886" lon="-3.04383">
        <ele>126</ele>
        <time>2015-06-10T10:25:24Z</time>
      </trkpt>
      <trkpt lat="48.20887" lon="-3.04378">
        <ele>126</ele>
        <time>2015-06-10T10:25:27Z</time>
      </trkpt>
      <trkpt lat="48.20889" lon="-3.04374">
        <ele>126</ele>
        <time>2015-06-10T10:25:29Z</time>
      </trkpt>
      <trkpt lat="48.20891" lon="-3.0437">
        <ele>126</ele>
        <time>2015-06-10T10:25:31Z</time>
      </trkpt>
      <trkpt lat="48.20892" lon="-3.04367">
        <ele>126</ele>
        <time>2015-06-10T10:25:33Z</time>
      </trkpt>
      <trkpt lat="48.20895" lon="-3.04363">
        <ele>126</ele>
        <time>2015-06-10T10:25:36Z</time>
      </trkpt>
      <trkpt lat="48.20897" lon="-3.04362">
        <ele>128</ele>
        <time>2015-06-10T10:25:38Z</time>
      </trkpt>
      <trkpt lat="48.20899" lon="-3.04361">
        <ele>129</ele>
        <time>2015-06-10T10:25:41Z</time>
      </trkpt>
      <trkpt lat="48.20902" lon="-3.0436">
        <ele>129</ele>
        <time>2015-06-10T10:25:43Z</time>
      </trkpt>
      <trkpt lat="48.20906" lon="-3.04357">
        <ele>129</ele>
        <time>2015-06-10T10:25:46Z</time>
      </trkpt>
      <trkpt lat="48.20909" lon="-3.04356">
        <ele>130</ele>
        <time>2015-06-10T10:25:48Z</time>
      </trkpt>
      <trkpt lat="48.20911" lon="-3.04353">
        <ele>130</ele>
        <time>2015-06-10T10:25:50Z</time>
      </trkpt>
      <trkpt lat="48.20914" lon="-3.04349">
        <ele>131</ele>
        <time>2015-06-10T10:25:53Z</time>
      </trkpt>
      <trkpt lat="48.20916" lon="-3.04348">
        <ele>131</ele>
        <time>2015-06-10T10:25:55Z</time>
      </trkpt>
      <trkpt lat="48.20918" lon="-3.04344">
        <ele>131</ele>
        <time>2015-06-10T10:25:57Z</time>
      </trkpt>
      <trkpt lat="48.2092" lon="-3.04339">
        <ele>131</ele>
        <time>2015-06-10T10:26:00Z</time>
      </trkpt>
      <trkpt lat="48.20921" lon="-3.04332">
        <ele>130</ele>
        <time>2015-06-10T10:26:03Z</time>
      </trkpt>
      <trkpt lat="48.20924" lon="-3.04326">
        <ele>130</ele>
        <time>2015-06-10T10:26:06Z</time>
      </trkpt>
      <trkpt lat="48.20927" lon="-3.04325">
        <ele>130</ele>
        <time>2015-06-10T10:26:08Z</time>
      </trkpt>
      <trkpt lat="48.20928" lon="-3.04321">
        <ele>129</ele>
        <time>2015-06-10T10:26:10Z</time>
      </trkpt>
      <trkpt lat="48.20929" lon="-3.04315">
        <ele>129</ele>
        <time>2015-06-10T10:26:13Z</time>
      </trkpt>
      <trkpt lat="48.20931" lon="-3.04312">
        <ele>129</ele>
        <time>2015-06-10T10:26:15Z</time>
      </trkpt>
      <trkpt lat="48.20933" lon="-3.04309">
        <ele>129</ele>
        <time>2015-06-10T10:26:17Z</time>
      </trkpt>
      <trkpt lat="48.20933" lon="-3.04305">
        <ele>129</ele>
        <time>2015-06-10T10:26:19Z</time>
      </trkpt>
      <trkpt lat="48.20934" lon="-3.04301">
        <ele>129</ele>
        <time>2015-06-10T10:26:22Z</time>
      </trkpt>
      <trkpt lat="48.20935" lon="-3.04294">
        <ele>129</ele>
        <time>2015-06-10T10:26:24Z</time>
      </trkpt>
      <trkpt lat="48.20937" lon="-3.04291">
        <ele>129</ele>
        <time>2015-06-10T10:26:27Z</time>
      </trkpt>
      <trkpt lat="48.20936" lon="-3.04287">
        <ele>129</ele>
        <time>2015-06-10T10:26:29Z</time>
      </trkpt>
      <trkpt lat="48.20937" lon="-3.04284">
        <ele>128</ele>
        <time>2015-06-10T10:26:31Z</time>
      </trkpt>
      <trkpt lat="48.20938" lon="-3.04279">
        <ele>128</ele>
        <time>2015-06-10T10:26:34Z</time>
      </trkpt>
      <trkpt lat="48.2094" lon="-3.04275">
        <ele>128</ele>
        <time>2015-06-10T10:26:37Z</time>
      </trkpt>
      <trkpt lat="48.20941" lon="-3.0427">
        <ele>128</ele>
        <time>2015-06-10T10:26:40Z</time>
      </trkpt>
      <trkpt lat="48.20941" lon="-3.04266">
        <ele>128</ele>
        <time>2015-06-10T10:26:43Z</time>
      </trkpt>
      <trkpt lat="48.20941" lon="-3.04259">
        <ele>128</ele>
        <time>2015-06-10T10:26:46Z</time>
      </trkpt>
      <trkpt lat="48.20942" lon="-3.04255">
        <ele>128</ele>
        <time>2015-06-10T10:26:48Z</time>
      </trkpt>
      <trkpt lat="48.20945" lon="-3.04256">
        <ele>128</ele>
        <time>2015-06-10T10:26:51Z</time>
      </trkpt>
      <trkpt lat="48.20948" lon="-3.04254">
        <ele>129</ele>
        <time>2015-06-10T10:26:53Z</time>
      </trkpt>
      <trkpt lat="48.2095" lon="-3.04252">
        <ele>129</ele>
        <time>2015-06-10T10:26:55Z</time>
      </trkpt>
      <trkpt lat="48.20952" lon="-3.04248">
        <ele>129</ele>
        <time>2015-06-10T10:26:58Z</time>
      </trkpt>
      <trkpt lat="48.20954" lon="-3.04245">
        <ele>130</ele>
        <time>2015-06-10T10:27:00Z</time>
      </trkpt>
      <trkpt lat="48.20957" lon="-3.04242">
        <ele>130</ele>
        <time>2015-06-10T10:27:03Z</time>
      </trkpt>
      <trkpt lat="48.20959" lon="-3.04237">
        <ele>130</ele>
        <time>2015-06-10T10:27:05Z</time>
      </trkpt>
      <trkpt lat="48.20961" lon="-3.04236">
        <ele>130</ele>
        <time>2015-06-10T10:27:07Z</time>
      </trkpt>
      <trkpt lat="48.20964" lon="-3.04234">
        <ele>130</ele>
        <time>2015-06-10T10:27:10Z</time>
      </trkpt>
      <trkpt lat="48.20967" lon="-3.0423">
        <ele>130</ele>
        <time>2015-06-10T10:27:13Z</time>
      </trkpt>
      <trkpt lat="48.20969" lon="-3.04227">
        <ele>130</ele>
        <time>2015-06-10T10:27:16Z</time>
      </trkpt>
      <trkpt lat="48.2097" lon="-3.04224">
        <ele>130</ele>
        <time>2015-06-10T10:27:18Z</time>
      </trkpt>
      <trkpt lat="48.20972" lon="-3.04217">
        <ele>130</ele>
        <time>2015-06-10T10:27:21Z</time>
      </trkpt>
      <trkpt lat="48.20974" lon="-3.04214">
        <ele>130</ele>
        <time>2015-06-10T10:27:23Z</time>
      </trkpt>
      <trkpt lat="48.20974" lon="-3.04208">
        <ele>129</ele>
        <time>2015-06-10T10:27:25Z</time>
      </trkpt>
      <trkpt lat="48.20976" lon="-3.04205">
        <ele>129</ele>
        <time>2015-06-10T10:27:27Z</time>
      </trkpt>
      <trkpt lat="48.20977" lon="-3.04203">
        <ele>129</ele>
        <time>2015-06-10T10:27:29Z</time>
      </trkpt>
      <trkpt lat="48.20977" lon="-3.042">
        <ele>129</ele>
        <time>2015-06-10T10:27:32Z</time>
      </trkpt>
      <trkpt lat="48.20978" lon="-3.04194">
        <ele>129</ele>
        <time>2015-06-10T10:27:35Z</time>
      </trkpt>
      <trkpt lat="48.2098" lon="-3.04189">
        <ele>129</ele>
        <time>2015-06-10T10:27:38Z</time>
      </trkpt>
      <trkpt lat="48.20981" lon="-3.04182">
        <ele>129</ele>
        <time>2015-06-10T10:27:40Z</time>
      </trkpt>
      <trkpt lat="48.20981" lon="-3.0418">
        <ele>129</ele>
        <time>2015-06-10T10:27:42Z</time>
      </trkpt>
      <trkpt lat="48.20981" lon="-3.04177">
        <ele>129</ele>
        <time>2015-06-10T10:27:44Z</time>
      </trkpt>
      <trkpt lat="48.20981" lon="-3.04173">
        <ele>129</ele>
        <time>2015-06-10T10:27:47Z</time>
      </trkpt>
      <trkpt lat="48.2098" lon="-3.0417">
        <ele>129</ele>
        <time>2015-06-10T10:27:50Z</time>
      </trkpt>
      <trkpt lat="48.20979" lon="-3.04163">
        <ele>129</ele>
        <time>2015-06-10T10:27:54Z</time>
      </trkpt>
      <trkpt lat="48.20977" lon="-3.04158">
        <ele>129</ele>
        <time>2015-06-10T10:27:57Z</time>
      </trkpt>
      <trkpt lat="48.20979" lon="-3.04156">
        <ele>129</ele>
        <time>2015-06-10T10:27:59Z</time>
      </trkpt>
      <trkpt lat="48.20981" lon="-3.0415">
        <ele>129</ele>
        <time>2015-06-10T10:28:02Z</time>
      </trkpt>
      <trkpt lat="48.20984" lon="-3.04148">
        <ele>129</ele>
        <time>2015-06-10T10:28:04Z</time>
      </trkpt>
      <trkpt lat="48.20987" lon="-3.04145">
        <ele>129</ele>
        <time>2015-06-10T10:28:07Z</time>
      </trkpt>
      <trkpt lat="48.20989" lon="-3.04138">
        <ele>129</ele>
        <time>2015-06-10T10:28:10Z</time>
      </trkpt>
      <trkpt lat="48.20992" lon="-3.04134">
        <ele>129</ele>
        <time>2015-06-10T10:28:12Z</time>
      </trkpt>
      <trkpt lat="48.20993" lon="-3.04132">
        <ele>129</ele>
        <time>2015-06-10T10:28:14Z</time>
      </trkpt>
      <trkpt lat="48.20996" lon="-3.04128">
        <ele>129</ele>
        <time>2015-06-10T10:28:17Z</time>
      </trkpt>
      <trkpt lat="48.20997" lon="-3.04122">
        <ele>129</ele>
        <time>2015-06-10T10:28:19Z</time>
      </trkpt>
      <trkpt lat="48.21" lon="-3.0411">
        <ele>129</ele>
        <time>2015-06-10T10:28:22Z</time>
      </trkpt>
      <trkpt lat="48.20999" lon="-3.04102">
        <ele>129</ele>
        <time>2015-06-10T10:28:24Z</time>
      </trkpt>
      <trkpt lat="48.21001" lon="-3.04095">
        <ele>129</ele>
        <time>2015-06-10T10:28:27Z</time>
      </trkpt>
      <trkpt lat="48.21001" lon="-3.04091">
        <ele>129</ele>
        <time>2015-06-10T10:28:29Z</time>
      </trkpt>
      <trkpt lat="48.21003" lon="-3.04087">
        <ele>129</ele>
        <time>2015-06-10T10:28:31Z</time>
      </trkpt>
      <trkpt lat="48.21005" lon="-3.04084">
        <ele>129</ele>
        <time>2015-06-10T10:28:34Z</time>
      </trkpt>
      <trkpt lat="48.21006" lon="-3.04079">
        <ele>129</ele>
        <time>2015-06-10T10:28:36Z</time>
      </trkpt>
      <trkpt lat="48.21009" lon="-3.04076">
        <ele>130</ele>
        <time>2015-06-10T10:28:40Z</time>
      </trkpt>
      <trkpt lat="48.21012" lon="-3.0407">
        <ele>130</ele>
        <time>2015-06-10T10:28:43Z</time>
      </trkpt>
      <trkpt lat="48.21014" lon="-3.04066">
        <ele>131</ele>
        <time>2015-06-10T10:28:45Z</time>
      </trkpt>
      <trkpt lat="48.21015" lon="-3.04062">
        <ele>131</ele>
        <time>2015-06-10T10:28:47Z</time>
      </trkpt>
      <trkpt lat="48.21016" lon="-3.04058">
        <ele>132</ele>
        <time>2015-06-10T10:28:49Z</time>
      </trkpt>
      <trkpt lat="48.21016" lon="-3.04052">
        <ele>133</ele>
        <time>2015-06-10T10:28:51Z</time>
      </trkpt>
      <trkpt lat="48.21017" lon="-3.0405">
        <ele>133</ele>
        <time>2015-06-10T10:28:53Z</time>
      </trkpt>
      <trkpt lat="48.2102" lon="-3.04047">
        <ele>134</ele>
        <time>2015-06-10T10:28:55Z</time>
      </trkpt>
      <trkpt lat="48.21022" lon="-3.04044">
        <ele>135</ele>
        <time>2015-06-10T10:28:57Z</time>
      </trkpt>
      <trkpt lat="48.21023" lon="-3.04039">
        <ele>135</ele>
        <time>2015-06-10T10:28:59Z</time>
      </trkpt>
      <trkpt lat="48.21025" lon="-3.04035">
        <ele>135</ele>
        <time>2015-06-10T10:29:02Z</time>
      </trkpt>
      <trkpt lat="48.21026" lon="-3.04033">
        <ele>135</ele>
        <time>2015-06-10T10:29:04Z</time>
      </trkpt>
      <trkpt lat="48.21026" lon="-3.04028">
        <ele>135</ele>
        <time>2015-06-10T10:29:07Z</time>
      </trkpt>
      <trkpt lat="48.21027" lon="-3.04025">
        <ele>135</ele>
        <time>2015-06-10T10:29:09Z</time>
      </trkpt>
      <trkpt lat="48.21028" lon="-3.04024">
        <ele>135</ele>
        <time>2015-06-10T10:29:11Z</time>
      </trkpt>
      <trkpt lat="48.2103" lon="-3.04027">
        <ele>135</ele>
        <time>2015-06-10T10:29:14Z</time>
      </trkpt>
      <trkpt lat="48.21028" lon="-3.04025">
        <ele>135</ele>
        <time>2015-06-10T10:29:18Z</time>
      </trkpt>
      <trkpt lat="48.21028" lon="-3.04023">
        <ele>135</ele>
        <time>2015-06-10T10:29:20Z</time>
      </trkpt>
      <trkpt lat="48.21026" lon="-3.04022">
        <ele>135</ele>
        <time>2015-06-10T10:29:24Z</time>
      </trkpt>
      <trkpt lat="48.21025" lon="-3.04019">
        <ele>135</ele>
        <time>2015-06-10T10:29:26Z</time>
      </trkpt>
      <trkpt lat="48.21025" lon="-3.04015">
        <ele>135</ele>
        <time>2015-06-10T10:29:31Z</time>
      </trkpt>
      <trkpt lat="48.21026" lon="-3.04011">
        <ele>135</ele>
        <time>2015-06-10T10:29:34Z</time>
      </trkpt>
      <trkpt lat="48.21027" lon="-3.04007">
        <ele>134</ele>
        <time>2015-06-10T10:29:38Z</time>
      </trkpt>
      <trkpt lat="48.21026" lon="-3.04005">
        <ele>133</ele>
        <time>2015-06-10T10:29:40Z</time>
      </trkpt>
      <trkpt lat="48.21024" lon="-3.04007">
        <ele>133</ele>
        <time>2015-06-10T10:29:44Z</time>
      </trkpt>
      <trkpt lat="48.21023" lon="-3.04004">
        <ele>133</ele>
        <time>2015-06-10T10:29:47Z</time>
      </trkpt>
      <trkpt lat="48.21025" lon="-3.03999">
        <ele>133</ele>
        <time>2015-06-10T10:29:50Z</time>
      </trkpt>
      <trkpt lat="48.21028" lon="-3.03994">
        <ele>132</ele>
        <time>2015-06-10T10:29:54Z</time>
      </trkpt>
      <trkpt lat="48.2103" lon="-3.03988">
        <ele>130</ele>
        <time>2015-06-10T10:29:57Z</time>
      </trkpt>
      <trkpt lat="48.21031" lon="-3.03982">
        <ele>129</ele>
        <time>2015-06-10T10:29:59Z</time>
      </trkpt>
      <trkpt lat="48.21032" lon="-3.03978">
        <ele>129</ele>
        <time>2015-06-10T10:30:02Z</time>
      </trkpt>
      <trkpt lat="48.21033" lon="-3.03972">
        <ele>129</ele>
        <time>2015-06-10T10:30:04Z</time>
      </trkpt>
      <trkpt lat="48.21035" lon="-3.03965">
        <ele>129</ele>
        <time>2015-06-10T10:30:08Z</time>
      </trkpt>
      <trkpt lat="48.21036" lon="-3.03961">
        <ele>129</ele>
        <time>2015-06-10T10:30:10Z</time>
      </trkpt>
      <trkpt lat="48.21036" lon="-3.03957">
        <ele>129</ele>
        <time>2015-06-10T10:30:12Z</time>
      </trkpt>
      <trkpt lat="48.21037" lon="-3.03953">
        <ele>129</ele>
        <time>2015-06-10T10:30:14Z</time>
      </trkpt>
      <trkpt lat="48.21038" lon="-3.03947">
        <ele>129</ele>
        <time>2015-06-10T10:30:18Z</time>
      </trkpt>
      <trkpt lat="48.21039" lon="-3.03943">
        <ele>129</ele>
        <time>2015-06-10T10:30:20Z</time>
      </trkpt>
      <trkpt lat="48.2104" lon="-3.0394">
        <ele>129</ele>
        <time>2015-06-10T10:30:22Z</time>
      </trkpt>
      <trkpt lat="48.21041" lon="-3.03933">
        <ele>129</ele>
        <time>2015-06-10T10:30:26Z</time>
      </trkpt>
      <trkpt lat="48.21042" lon="-3.03929">
        <ele>129</ele>
        <time>2015-06-10T10:30:28Z</time>
      </trkpt>
      <trkpt lat="48.21044" lon="-3.03924">
        <ele>129</ele>
        <time>2015-06-10T10:30:30Z</time>
      </trkpt>
      <trkpt lat="48.21045" lon="-3.03917">
        <ele>129</ele>
        <time>2015-06-10T10:30:33Z</time>
      </trkpt>
      <trkpt lat="48.21045" lon="-3.03912">
        <ele>129</ele>
        <time>2015-06-10T10:30:35Z</time>
      </trkpt>
      <trkpt lat="48.21047" lon="-3.03907">
        <ele>129</ele>
        <time>2015-06-10T10:30:37Z</time>
      </trkpt>
      <trkpt lat="48.21048" lon="-3.03904">
        <ele>129</ele>
        <time>2015-06-10T10:30:40Z</time>
      </trkpt>
      <trkpt lat="48.21049" lon="-3.03898">
        <ele>129</ele>
        <time>2015-06-10T10:30:42Z</time>
      </trkpt>
      <trkpt lat="48.21049" lon="-3.03892">
        <ele>127</ele>
        <time>2015-06-10T10:30:45Z</time>
      </trkpt>
      <trkpt lat="48.21049" lon="-3.03887">
        <ele>127</ele>
        <time>2015-06-10T10:30:47Z</time>
      </trkpt>
      <trkpt lat="48.21048" lon="-3.03882">
        <ele>127</ele>
        <time>2015-06-10T10:30:49Z</time>
      </trkpt>
      <trkpt lat="48.21046" lon="-3.03878">
        <ele>127</ele>
        <time>2015-06-10T10:30:51Z</time>
      </trkpt>
      <trkpt lat="48.21042" lon="-3.03873">
        <ele>127</ele>
        <time>2015-06-10T10:30:54Z</time>
      </trkpt>
      <trkpt lat="48.21038" lon="-3.03868">
        <ele>127</ele>
        <time>2015-06-10T10:30:58Z</time>
      </trkpt>
      <trkpt lat="48.21035" lon="-3.03863">
        <ele>127</ele>
        <time>2015-06-10T10:31:00Z</time>
      </trkpt>
      <trkpt lat="48.21033" lon="-3.0386">
        <ele>127</ele>
        <time>2015-06-10T10:31:03Z</time>
      </trkpt>
      <trkpt lat="48.2103" lon="-3.03856">
        <ele>127</ele>
        <time>2015-06-10T10:31:06Z</time>
      </trkpt>
      <trkpt lat="48.21028" lon="-3.03854">
        <ele>127</ele>
        <time>2015-06-10T10:31:08Z</time>
      </trkpt>
      <trkpt lat="48.21024" lon="-3.0385">
        <ele>127</ele>
        <time>2015-06-10T10:31:10Z</time>
      </trkpt>
      <trkpt lat="48.21021" lon="-3.03848">
        <ele>127</ele>
        <time>2015-06-10T10:31:13Z</time>
      </trkpt>
      <trkpt lat="48.21016" lon="-3.03844">
        <ele>127</ele>
        <time>2015-06-10T10:31:16Z</time>
      </trkpt>
      <trkpt lat="48.21013" lon="-3.03844">
        <ele>127</ele>
        <time>2015-06-10T10:31:20Z</time>
      </trkpt>
      <trkpt lat="48.21012" lon="-3.03844">
        <ele>127</ele>
        <time>2015-06-10T10:31:23Z</time>
      </trkpt>
      <trkpt lat="48.21011" lon="-3.03843">
        <ele>127</ele>
        <time>2015-06-10T10:31:25Z</time>
      </trkpt>
      <trkpt lat="48.21009" lon="-3.03841">
        <ele>127</ele>
        <time>2015-06-10T10:31:28Z</time>
      </trkpt>
      <trkpt lat="48.21005" lon="-3.03839">
        <ele>127</ele>
        <time>2015-06-10T10:31:30Z</time>
      </trkpt>
      <trkpt lat="48.21002" lon="-3.03836">
        <ele>127</ele>
        <time>2015-06-10T10:31:33Z</time>
      </trkpt>
      <trkpt lat="48.21001" lon="-3.03835">
        <ele>127</ele>
        <time>2015-06-10T10:31:36Z</time>
      </trkpt>
      <trkpt lat="48.20997" lon="-3.03832">
        <ele>127</ele>
        <time>2015-06-10T10:31:38Z</time>
      </trkpt>
      <trkpt lat="48.20996" lon="-3.03832">
        <ele>127</ele>
        <time>2015-06-10T10:31:41Z</time>
      </trkpt>
      <trkpt lat="48.20995" lon="-3.03831">
        <ele>128</ele>
        <time>2015-06-10T10:31:43Z</time>
      </trkpt>
      <trkpt lat="48.20996" lon="-3.03832">
        <ele>129</ele>
        <time>2015-06-10T10:31:46Z</time>
      </trkpt>
      <trkpt lat="48.20998" lon="-3.03833">
        <ele>129</ele>
        <time>2015-06-10T10:31:54Z</time>
      </trkpt>
      <trkpt lat="48.21001" lon="-3.03835">
        <ele>129</ele>
        <time>2015-06-10T10:31:58Z</time>
      </trkpt>
      <trkpt lat="48.21004" lon="-3.03836">
        <ele>129</ele>
        <time>2015-06-10T10:32:00Z</time>
      </trkpt>
      <trkpt lat="48.21008" lon="-3.03839">
        <ele>129</ele>
        <time>2015-06-10T10:32:04Z</time>
      </trkpt>
      <trkpt lat="48.21011" lon="-3.03841">
        <ele>129</ele>
        <time>2015-06-10T10:32:06Z</time>
      </trkpt>
      <trkpt lat="48.21014" lon="-3.03843">
        <ele>129</ele>
        <time>2015-06-10T10:32:08Z</time>
      </trkpt>
      <trkpt lat="48.21016" lon="-3.03845">
        <ele>129</ele>
        <time>2015-06-10T10:32:10Z</time>
      </trkpt>
      <trkpt lat="48.21019" lon="-3.03847">
        <ele>129</ele>
        <time>2015-06-10T10:32:12Z</time>
      </trkpt>
      <trkpt lat="48.21023" lon="-3.03849">
        <ele>129</ele>
        <time>2015-06-10T10:32:15Z</time>
      </trkpt>
      <trkpt lat="48.21025" lon="-3.03851">
        <ele>129</ele>
        <time>2015-06-10T10:32:17Z</time>
      </trkpt>
      <trkpt lat="48.2103" lon="-3.03855">
        <ele>129</ele>
        <time>2015-06-10T10:32:20Z</time>
      </trkpt>
      <trkpt lat="48.21033" lon="-3.03858">
        <ele>129</ele>
        <time>2015-06-10T10:32:22Z</time>
      </trkpt>
      <trkpt lat="48.21035" lon="-3.03861">
        <ele>129</ele>
        <time>2015-06-10T10:32:24Z</time>
      </trkpt>
      <trkpt lat="48.2104" lon="-3.03866">
        <ele>129</ele>
        <time>2015-06-10T10:32:27Z</time>
      </trkpt>
      <trkpt lat="48.21044" lon="-3.03872">
        <ele>130</ele>
        <time>2015-06-10T10:32:30Z</time>
      </trkpt>
      <trkpt lat="48.21046" lon="-3.03876">
        <ele>131</ele>
        <time>2015-06-10T10:32:32Z</time>
      </trkpt>
      <trkpt lat="48.21046" lon="-3.0388">
        <ele>132</ele>
        <time>2015-06-10T10:32:35Z</time>
      </trkpt>
      <trkpt lat="48.21046" lon="-3.03883">
        <ele>132</ele>
        <time>2015-06-10T10:32:37Z</time>
      </trkpt>
      <trkpt lat="48.21045" lon="-3.03885">
        <ele>132</ele>
        <time>2015-06-10T10:32:39Z</time>
      </trkpt>
      <trkpt lat="48.21045" lon="-3.03887">
        <ele>132</ele>
        <time>2015-06-10T10:32:41Z</time>
      </trkpt>
      <trkpt lat="48.21045" lon="-3.03892">
        <ele>132</ele>
        <time>2015-06-10T10:32:44Z</time>
      </trkpt>
      <trkpt lat="48.21045" lon="-3.03895">
        <ele>132</ele>
        <time>2015-06-10T10:32:47Z</time>
      </trkpt>
      <trkpt lat="48.21044" lon="-3.03899">
        <ele>132</ele>
        <time>2015-06-10T10:32:49Z</time>
      </trkpt>
      <trkpt lat="48.21044" lon="-3.03903">
        <ele>132</ele>
        <time>2015-06-10T10:32:51Z</time>
      </trkpt>
      <trkpt lat="48.21043" lon="-3.03907">
        <ele>132</ele>
        <time>2015-06-10T10:32:54Z</time>
      </trkpt>
      <trkpt lat="48.21042" lon="-3.03912">
        <ele>132</ele>
        <time>2015-06-10T10:32:56Z</time>
      </trkpt>
      <trkpt lat="48.21042" lon="-3.03917">
        <ele>132</ele>
        <time>2015-06-10T10:33:00Z</time>
      </trkpt>
      <trkpt lat="48.21042" lon="-3.03922">
        <ele>132</ele>
        <time>2015-06-10T10:33:02Z</time>
      </trkpt>
      <trkpt lat="48.21041" lon="-3.03924">
        <ele>132</ele>
        <time>2015-06-10T10:33:05Z</time>
      </trkpt>
      <trkpt lat="48.21041" lon="-3.03929">
        <ele>132</ele>
        <time>2015-06-10T10:33:07Z</time>
      </trkpt>
      <trkpt lat="48.21039" lon="-3.03933">
        <ele>132</ele>
        <time>2015-06-10T10:33:10Z</time>
      </trkpt>
      <trkpt lat="48.21038" lon="-3.03939">
        <ele>132</ele>
        <time>2015-06-10T10:33:12Z</time>
      </trkpt>
      <trkpt lat="48.21038" lon="-3.03943">
        <ele>132</ele>
        <time>2015-06-10T10:33:15Z</time>
      </trkpt>
      <trkpt lat="48.21037" lon="-3.03949">
        <ele>132</ele>
        <time>2015-06-10T10:33:17Z</time>
      </trkpt>
      <trkpt lat="48.21036" lon="-3.03951">
        <ele>132</ele>
        <time>2015-06-10T10:33:19Z</time>
      </trkpt>
      <trkpt lat="48.21035" lon="-3.03954">
        <ele>132</ele>
        <time>2015-06-10T10:33:21Z</time>
      </trkpt>
      <trkpt lat="48.21035" lon="-3.03956">
        <ele>132</ele>
        <time>2015-06-10T10:33:23Z</time>
      </trkpt>
      <trkpt lat="48.21034" lon="-3.03962">
        <ele>132</ele>
        <time>2015-06-10T10:33:26Z</time>
      </trkpt>
      <trkpt lat="48.21033" lon="-3.03967">
        <ele>132</ele>
        <time>2015-06-10T10:33:29Z</time>
      </trkpt>
      <trkpt lat="48.21032" lon="-3.03971">
        <ele>132</ele>
        <time>2015-06-10T10:33:31Z</time>
      </trkpt>
      <trkpt lat="48.21032" lon="-3.03976">
        <ele>132</ele>
        <time>2015-06-10T10:33:34Z</time>
      </trkpt>
      <trkpt lat="48.21031" lon="-3.03979">
        <ele>132</ele>
        <time>2015-06-10T10:33:36Z</time>
      </trkpt>
      <trkpt lat="48.21029" lon="-3.03983">
        <ele>132</ele>
        <time>2015-06-10T10:33:38Z</time>
      </trkpt>
      <trkpt lat="48.21028" lon="-3.03984">
        <ele>132</ele>
        <time>2015-06-10T10:33:40Z</time>
      </trkpt>
      <trkpt lat="48.21026" lon="-3.0399">
        <ele>132</ele>
        <time>2015-06-10T10:33:43Z</time>
      </trkpt>
      <trkpt lat="48.21025" lon="-3.03993">
        <ele>132</ele>
        <time>2015-06-10T10:33:45Z</time>
      </trkpt>
      <trkpt lat="48.21026" lon="-3.03997">
        <ele>132</ele>
        <time>2015-06-10T10:33:47Z</time>
      </trkpt>
      <trkpt lat="48.21027" lon="-3.04002">
        <ele>132</ele>
        <time>2015-06-10T10:33:50Z</time>
      </trkpt>
      <trkpt lat="48.21028" lon="-3.04005">
        <ele>132</ele>
        <time>2015-06-10T10:33:52Z</time>
      </trkpt>
      <trkpt lat="48.21029" lon="-3.04008">
        <ele>132</ele>
        <time>2015-06-10T10:33:56Z</time>
      </trkpt>
      <trkpt lat="48.21029" lon="-3.04012">
        <ele>132</ele>
        <time>2015-06-10T10:33:59Z</time>
      </trkpt>
      <trkpt lat="48.2103" lon="-3.04014">
        <ele>132</ele>
        <time>2015-06-10T10:34:04Z</time>
      </trkpt>
      <trkpt lat="48.21031" lon="-3.04019">
        <ele>132</ele>
        <time>2015-06-10T10:34:07Z</time>
      </trkpt>
      <trkpt lat="48.21032" lon="-3.04021">
        <ele>132</ele>
        <time>2015-06-10T10:34:09Z</time>
      </trkpt>
      <trkpt lat="48.2103" lon="-3.04025">
        <ele>132</ele>
        <time>2015-06-10T10:34:12Z</time>
      </trkpt>
      <trkpt lat="48.21031" lon="-3.04027">
        <ele>132</ele>
        <time>2015-06-10T10:34:17Z</time>
      </trkpt>
      <trkpt lat="48.21033" lon="-3.0403">
        <ele>132</ele>
        <time>2015-06-10T10:34:20Z</time>
      </trkpt>
      <trkpt lat="48.21035" lon="-3.04033">
        <ele>132</ele>
        <time>2015-06-10T10:34:22Z</time>
      </trkpt>
      <trkpt lat="48.21035" lon="-3.04037">
        <ele>132</ele>
        <time>2015-06-10T10:34:24Z</time>
      </trkpt>
      <trkpt lat="48.21035" lon="-3.04043">
        <ele>132</ele>
        <time>2015-06-10T10:34:27Z</time>
      </trkpt>
      <trkpt lat="48.21035" lon="-3.04048">
        <ele>133</ele>
        <time>2015-06-10T10:34:30Z</time>
      </trkpt>
      <trkpt lat="48.21033" lon="-3.04052">
        <ele>133</ele>
        <time>2015-06-10T10:34:32Z</time>
      </trkpt>
      <trkpt lat="48.21032" lon="-3.04057">
        <ele>133</ele>
        <time>2015-06-10T10:34:35Z</time>
      </trkpt>
      <trkpt lat="48.2103" lon="-3.04062">
        <ele>132</ele>
        <time>2015-06-10T10:34:38Z</time>
      </trkpt>
      <trkpt lat="48.2103" lon="-3.04065">
        <ele>130</ele>
        <time>2015-06-10T10:34:40Z</time>
      </trkpt>
      <trkpt lat="48.21031" lon="-3.04069">
        <ele>129</ele>
        <time>2015-06-10T10:34:42Z</time>
      </trkpt>
      <trkpt lat="48.21032" lon="-3.04071">
        <ele>129</ele>
        <time>2015-06-10T10:34:44Z</time>
      </trkpt>
      <trkpt lat="48.21034" lon="-3.04076">
        <ele>128</ele>
        <time>2015-06-10T10:34:48Z</time>
      </trkpt>
      <trkpt lat="48.21035" lon="-3.04078">
        <ele>128</ele>
        <time>2015-06-10T10:34:50Z</time>
      </trkpt>
      <trkpt lat="48.21036" lon="-3.04079">
        <ele>127</ele>
        <time>2015-06-10T10:34:52Z</time>
      </trkpt>
      <trkpt lat="48.21036" lon="-3.04081">
        <ele>126</ele>
        <time>2015-06-10T10:34:54Z</time>
      </trkpt>
      <trkpt lat="48.21036" lon="-3.04083">
        <ele>125</ele>
        <time>2015-06-10T10:34:57Z</time>
      </trkpt>
      <trkpt lat="48.21039" lon="-3.04089">
        <ele>125</ele>
        <time>2015-06-10T10:35:00Z</time>
      </trkpt>
      <trkpt lat="48.2104" lon="-3.04092">
        <ele>125</ele>
        <time>2015-06-10T10:35:02Z</time>
      </trkpt>
      <trkpt lat="48.21041" lon="-3.04094">
        <ele>124</ele>
        <time>2015-06-10T10:35:06Z</time>
      </trkpt>
      <trkpt lat="48.21043" lon="-3.04098">
        <ele>123</ele>
        <time>2015-06-10T10:35:08Z</time>
      </trkpt>
      <trkpt lat="48.21044" lon="-3.04101">
        <ele>123</ele>
        <time>2015-06-10T10:35:10Z</time>
      </trkpt>
      <trkpt lat="48.21044" lon="-3.04104">
        <ele>122</ele>
        <time>2015-06-10T10:35:13Z</time>
      </trkpt>
      <trkpt lat="48.21045" lon="-3.04112">
        <ele>121</ele>
        <time>2015-06-10T10:35:16Z</time>
      </trkpt>
      <trkpt lat="48.21047" lon="-3.04118">
        <ele>121</ele>
        <time>2015-06-10T10:35:20Z</time>
      </trkpt>
      <trkpt lat="48.21049" lon="-3.04124">
        <ele>121</ele>
        <time>2015-06-10T10:35:23Z</time>
      </trkpt>
      <trkpt lat="48.21051" lon="-3.04131">
        <ele>122</ele>
        <time>2015-06-10T10:35:26Z</time>
      </trkpt>
      <trkpt lat="48.21051" lon="-3.04134">
        <ele>123</ele>
        <time>2015-06-10T10:35:28Z</time>
      </trkpt>
      <trkpt lat="48.21049" lon="-3.0414">
        <ele>124</ele>
        <time>2015-06-10T10:35:33Z</time>
      </trkpt>
      <trkpt lat="48.21048" lon="-3.04147">
        <ele>124</ele>
        <time>2015-06-10T10:35:35Z</time>
      </trkpt>
      <trkpt lat="48.21047" lon="-3.0415">
        <ele>124</ele>
        <time>2015-06-10T10:35:37Z</time>
      </trkpt>
      <trkpt lat="48.21047" lon="-3.04155">
        <ele>124</ele>
        <time>2015-06-10T10:35:39Z</time>
      </trkpt>
      <trkpt lat="48.21045" lon="-3.04159">
        <ele>124</ele>
        <time>2015-06-10T10:35:41Z</time>
      </trkpt>
      <trkpt lat="48.21044" lon="-3.04165">
        <ele>124</ele>
        <time>2015-06-10T10:35:44Z</time>
      </trkpt>
      <trkpt lat="48.21043" lon="-3.04167">
        <ele>124</ele>
        <time>2015-06-10T10:35:46Z</time>
      </trkpt>
      <trkpt lat="48.21042" lon="-3.04172">
        <ele>124</ele>
        <time>2015-06-10T10:35:49Z</time>
      </trkpt>
      <trkpt lat="48.21042" lon="-3.04179">
        <ele>124</ele>
        <time>2015-06-10T10:35:52Z</time>
      </trkpt>
      <trkpt lat="48.21042" lon="-3.04184">
        <ele>124</ele>
        <time>2015-06-10T10:35:54Z</time>
      </trkpt>
      <trkpt lat="48.21042" lon="-3.04189">
        <ele>126</ele>
        <time>2015-06-10T10:35:57Z</time>
      </trkpt>
      <trkpt lat="48.2104" lon="-3.04192">
        <ele>128</ele>
        <time>2015-06-10T10:35:59Z</time>
      </trkpt>
      <trkpt lat="48.21038" lon="-3.04197">
        <ele>129</ele>
        <time>2015-06-10T10:36:02Z</time>
      </trkpt>
      <trkpt lat="48.21038" lon="-3.04203">
        <ele>130</ele>
        <time>2015-06-10T10:36:06Z</time>
      </trkpt>
      <trkpt lat="48.2104" lon="-3.04207">
        <ele>130</ele>
        <time>2015-06-10T10:36:09Z</time>
      </trkpt>
      <trkpt lat="48.21041" lon="-3.04211">
        <ele>130</ele>
        <time>2015-06-10T10:36:11Z</time>
      </trkpt>
      <trkpt lat="48.21043" lon="-3.04214">
        <ele>130</ele>
        <time>2015-06-10T10:36:14Z</time>
      </trkpt>
      <trkpt lat="48.21044" lon="-3.04215">
        <ele>130</ele>
        <time>2015-06-10T10:36:16Z</time>
      </trkpt>
      <trkpt lat="48.21043" lon="-3.04222">
        <ele>130</ele>
        <time>2015-06-10T10:36:20Z</time>
      </trkpt>
      <trkpt lat="48.21042" lon="-3.04226">
        <ele>130</ele>
        <time>2015-06-10T10:36:22Z</time>
      </trkpt>
      <trkpt lat="48.2104" lon="-3.04231">
        <ele>130</ele>
        <time>2015-06-10T10:36:24Z</time>
      </trkpt>
      <trkpt lat="48.2104" lon="-3.04234">
        <ele>130</ele>
        <time>2015-06-10T10:36:26Z</time>
      </trkpt>
      <trkpt lat="48.21039" lon="-3.04237">
        <ele>130</ele>
        <time>2015-06-10T10:36:29Z</time>
      </trkpt>
      <trkpt lat="48.2104" lon="-3.04241">
        <ele>130</ele>
        <time>2015-06-10T10:36:31Z</time>
      </trkpt>
      <trkpt lat="48.21039" lon="-3.04246">
        <ele>130</ele>
        <time>2015-06-10T10:36:35Z</time>
      </trkpt>
      <trkpt lat="48.21038" lon="-3.04251">
        <ele>130</ele>
        <time>2015-06-10T10:36:38Z</time>
      </trkpt>
      <trkpt lat="48.21037" lon="-3.04254">
        <ele>129</ele>
        <time>2015-06-10T10:36:40Z</time>
      </trkpt>
      <trkpt lat="48.21037" lon="-3.04256">
        <ele>129</ele>
        <time>2015-06-10T10:36:42Z</time>
      </trkpt>
      <trkpt lat="48.21035" lon="-3.04261">
        <ele>129</ele>
        <time>2015-06-10T10:36:46Z</time>
      </trkpt>
      <trkpt lat="48.21035" lon="-3.04267">
        <ele>129</ele>
        <time>2015-06-10T10:36:49Z</time>
      </trkpt>
      <trkpt lat="48.21033" lon="-3.04271">
        <ele>129</ele>
        <time>2015-06-10T10:36:51Z</time>
      </trkpt>
      <trkpt lat="48.21032" lon="-3.04275">
        <ele>129</ele>
        <time>2015-06-10T10:36:53Z</time>
      </trkpt>
      <trkpt lat="48.21031" lon="-3.0428">
        <ele>129</ele>
        <time>2015-06-10T10:36:55Z</time>
      </trkpt>
      <trkpt lat="48.2103" lon="-3.04283">
        <ele>129</ele>
        <time>2015-06-10T10:36:57Z</time>
      </trkpt>
      <trkpt lat="48.21031" lon="-3.04286">
        <ele>129</ele>
        <time>2015-06-10T10:36:59Z</time>
      </trkpt>
      <trkpt lat="48.21032" lon="-3.0429">
        <ele>129</ele>
        <time>2015-06-10T10:37:01Z</time>
      </trkpt>
      <trkpt lat="48.21032" lon="-3.04294">
        <ele>129</ele>
        <time>2015-06-10T10:37:03Z</time>
      </trkpt>
      <trkpt lat="48.2103" lon="-3.04297">
        <ele>129</ele>
        <time>2015-06-10T10:37:05Z</time>
      </trkpt>
      <trkpt lat="48.21027" lon="-3.04301">
        <ele>129</ele>
        <time>2015-06-10T10:37:07Z</time>
      </trkpt>
      <trkpt lat="48.21024" lon="-3.04305">
        <ele>129</ele>
        <time>2015-06-10T10:37:09Z</time>
      </trkpt>
      <trkpt lat="48.21021" lon="-3.04308">
        <ele>129</ele>
        <time>2015-06-10T10:37:11Z</time>
      </trkpt>
      <trkpt lat="48.2102" lon="-3.0431">
        <ele>130</ele>
        <time>2015-06-10T10:37:13Z</time>
      </trkpt>
      <trkpt lat="48.2102" lon="-3.04312">
        <ele>130</ele>
        <time>2015-06-10T10:37:16Z</time>
      </trkpt>
      <trkpt lat="48.2102" lon="-3.04314">
        <ele>130</ele>
        <time>2015-06-10T10:37:18Z</time>
      </trkpt>
      <trkpt lat="48.21019" lon="-3.04318">
        <ele>130</ele>
        <time>2015-06-10T10:37:22Z</time>
      </trkpt>
      <trkpt lat="48.21018" lon="-3.04322">
        <ele>130</ele>
        <time>2015-06-10T10:37:24Z</time>
      </trkpt>
      <trkpt lat="48.21018" lon="-3.04326">
        <ele>130</ele>
        <time>2015-06-10T10:37:26Z</time>
      </trkpt>
      <trkpt lat="48.21017" lon="-3.04329">
        <ele>130</ele>
        <time>2015-06-10T10:37:28Z</time>
      </trkpt>
      <trkpt lat="48.21017" lon="-3.04333">
        <ele>130</ele>
        <time>2015-06-10T10:37:30Z</time>
      </trkpt>
      <trkpt lat="48.21017" lon="-3.04336">
        <ele>130</ele>
        <time>2015-06-10T10:37:32Z</time>
      </trkpt>
      <trkpt lat="48.21017" lon="-3.04339">
        <ele>130</ele>
        <time>2015-06-10T10:37:34Z</time>
      </trkpt>
      <trkpt lat="48.21015" lon="-3.04344">
        <ele>130</ele>
        <time>2015-06-10T10:37:37Z</time>
      </trkpt>
      <trkpt lat="48.21014" lon="-3.04347">
        <ele>130</ele>
        <time>2015-06-10T10:37:39Z</time>
      </trkpt>
      <trkpt lat="48.21013" lon="-3.04349">
        <ele>130</ele>
        <time>2015-06-10T10:37:41Z</time>
      </trkpt>
      <trkpt lat="48.21011" lon="-3.04353">
        <ele>130</ele>
        <time>2015-06-10T10:37:43Z</time>
      </trkpt>
      <trkpt lat="48.21009" lon="-3.04357">
        <ele>130</ele>
        <time>2015-06-10T10:37:46Z</time>
      </trkpt>
      <trkpt lat="48.21008" lon="-3.04359">
        <ele>130</ele>
        <time>2015-06-10T10:37:48Z</time>
      </trkpt>
      <trkpt lat="48.21006" lon="-3.04361">
        <ele>130</ele>
        <time>2015-06-10T10:37:50Z</time>
      </trkpt>
      <trkpt lat="48.21005" lon="-3.04363">
        <ele>130</ele>
        <time>2015-06-10T10:37:53Z</time>
      </trkpt>
      <trkpt lat="48.21004" lon="-3.04367">
        <ele>130</ele>
        <time>2015-06-10T10:37:58Z</time>
      </trkpt>
      <trkpt lat="48.21003" lon="-3.0437">
        <ele>130</ele>
        <time>2015-06-10T10:38:00Z</time>
      </trkpt>
      <trkpt lat="48.21" lon="-3.04374">
        <ele>131</ele>
        <time>2015-06-10T10:38:03Z</time>
      </trkpt>
      <trkpt lat="48.20999" lon="-3.04376">
        <ele>131</ele>
        <time>2015-06-10T10:38:05Z</time>
      </trkpt>
      <trkpt lat="48.20997" lon="-3.04378">
        <ele>132</ele>
        <time>2015-06-10T10:38:10Z</time>
      </trkpt>
      <trkpt lat="48.20996" lon="-3.0438">
        <ele>133</ele>
        <time>2015-06-10T10:38:14Z</time>
      </trkpt>
      <trkpt lat="48.20995" lon="-3.04382">
        <ele>133</ele>
        <time>2015-06-10T10:38:16Z</time>
      </trkpt>
      <trkpt lat="48.20993" lon="-3.04385">
        <ele>134</ele>
        <time>2015-06-10T10:38:19Z</time>
      </trkpt>
      <trkpt lat="48.20993" lon="-3.04387">
        <ele>134</ele>
        <time>2015-06-10T10:38:21Z</time>
      </trkpt>
      <trkpt lat="48.20992" lon="-3.04391">
        <ele>134</ele>
        <time>2015-06-10T10:38:23Z</time>
      </trkpt>
      <trkpt lat="48.2099" lon="-3.04394">
        <ele>135</ele>
        <time>2015-06-10T10:38:25Z</time>
      </trkpt>
      <trkpt lat="48.20989" lon="-3.04399">
        <ele>136</ele>
        <time>2015-06-10T10:38:28Z</time>
      </trkpt>
      <trkpt lat="48.20988" lon="-3.044">
        <ele>136</ele>
        <time>2015-06-10T10:38:30Z</time>
      </trkpt>
      <trkpt lat="48.20987" lon="-3.04405">
        <ele>136</ele>
        <time>2015-06-10T10:38:33Z</time>
      </trkpt>
      <trkpt lat="48.20987" lon="-3.04408">
        <ele>136</ele>
        <time>2015-06-10T10:38:35Z</time>
      </trkpt>
      <trkpt lat="48.20988" lon="-3.0441">
        <ele>136</ele>
        <time>2015-06-10T10:38:37Z</time>
      </trkpt>
      <trkpt lat="48.20987" lon="-3.04412">
        <ele>136</ele>
        <time>2015-06-10T10:38:39Z</time>
      </trkpt>
      <trkpt lat="48.20982" lon="-3.04416">
        <ele>136</ele>
        <time>2015-06-10T10:38:42Z</time>
      </trkpt>
      <trkpt lat="48.2098" lon="-3.0442">
        <ele>136</ele>
        <time>2015-06-10T10:38:45Z</time>
      </trkpt>
      <trkpt lat="48.20978" lon="-3.04425">
        <ele>136</ele>
        <time>2015-06-10T10:38:48Z</time>
      </trkpt>
      <trkpt lat="48.20977" lon="-3.04428">
        <ele>136</ele>
        <time>2015-06-10T10:38:50Z</time>
      </trkpt>
      <trkpt lat="48.20976" lon="-3.04431">
        <ele>136</ele>
        <time>2015-06-10T10:38:52Z</time>
      </trkpt>
      <trkpt lat="48.20976" lon="-3.04434">
        <ele>136</ele>
        <time>2015-06-10T10:38:54Z</time>
      </trkpt>
      <trkpt lat="48.20977" lon="-3.04435">
        <ele>136</ele>
        <time>2015-06-10T10:38:56Z</time>
      </trkpt>
      <trkpt lat="48.20977" lon="-3.04438">
        <ele>136</ele>
        <time>2015-06-10T10:38:58Z</time>
      </trkpt>
      <trkpt lat="48.20979" lon="-3.04441">
        <ele>136</ele>
        <time>2015-06-10T10:39:00Z</time>
      </trkpt>
      <trkpt lat="48.20978" lon="-3.04445">
        <ele>136</ele>
        <time>2015-06-10T10:39:02Z</time>
      </trkpt>
      <trkpt lat="48.20979" lon="-3.04449">
        <ele>136</ele>
        <time>2015-06-10T10:39:04Z</time>
      </trkpt>
      <trkpt lat="48.20977" lon="-3.04451">
        <ele>136</ele>
        <time>2015-06-10T10:39:06Z</time>
      </trkpt>
      <trkpt lat="48.20974" lon="-3.04453">
        <ele>136</ele>
        <time>2015-06-10T10:39:08Z</time>
      </trkpt>
      <trkpt lat="48.20972" lon="-3.04455">
        <ele>136</ele>
        <time>2015-06-10T10:39:10Z</time>
      </trkpt>
      <trkpt lat="48.20968" lon="-3.0446">
        <ele>136</ele>
        <time>2015-06-10T10:39:13Z</time>
      </trkpt>
      <trkpt lat="48.20965" lon="-3.04464">
        <ele>136</ele>
        <time>2015-06-10T10:39:17Z</time>
      </trkpt>
      <trkpt lat="48.20964" lon="-3.04468">
        <ele>136</ele>
        <time>2015-06-10T10:39:19Z</time>
      </trkpt>
      <trkpt lat="48.20962" lon="-3.04472">
        <ele>135</ele>
        <time>2015-06-10T10:39:22Z</time>
      </trkpt>
      <trkpt lat="48.20961" lon="-3.04473">
        <ele>135</ele>
        <time>2015-06-10T10:39:24Z</time>
      </trkpt>
      <trkpt lat="48.2096" lon="-3.04476">
        <ele>134</ele>
        <time>2015-06-10T10:39:26Z</time>
      </trkpt>
      <trkpt lat="48.20958" lon="-3.04479">
        <ele>134</ele>
        <time>2015-06-10T10:39:28Z</time>
      </trkpt>
      <trkpt lat="48.20956" lon="-3.04482">
        <ele>133</ele>
        <time>2015-06-10T10:39:30Z</time>
      </trkpt>
      <trkpt lat="48.20954" lon="-3.04485">
        <ele>133</ele>
        <time>2015-06-10T10:39:32Z</time>
      </trkpt>
      <trkpt lat="48.20952" lon="-3.04488">
        <ele>133</ele>
        <time>2015-06-10T10:39:35Z</time>
      </trkpt>
      <trkpt lat="48.20949" lon="-3.0449">
        <ele>132</ele>
        <time>2015-06-10T10:39:38Z</time>
      </trkpt>
      <trkpt lat="48.20948" lon="-3.0449">
        <ele>132</ele>
        <time>2015-06-10T10:39:40Z</time>
      </trkpt>
      <trkpt lat="48.20947" lon="-3.04493">
        <ele>131</ele>
        <time>2015-06-10T10:39:43Z</time>
      </trkpt>
      <trkpt lat="48.20944" lon="-3.04496">
        <ele>131</ele>
        <time>2015-06-10T10:39:45Z</time>
      </trkpt>
      <trkpt lat="48.2094" lon="-3.045">
        <ele>131</ele>
        <time>2015-06-10T10:39:47Z</time>
      </trkpt>
      <trkpt lat="48.20939" lon="-3.04501">
        <ele>131</ele>
        <time>2015-06-10T10:39:49Z</time>
      </trkpt>
      <trkpt lat="48.20937" lon="-3.04504">
        <ele>131</ele>
        <time>2015-06-10T10:39:51Z</time>
      </trkpt>
      <trkpt lat="48.20935" lon="-3.04508">
        <ele>131</ele>
        <time>2015-06-10T10:39:54Z</time>
      </trkpt>
      <trkpt lat="48.20933" lon="-3.04513">
        <ele>131</ele>
        <time>2015-06-10T10:39:56Z</time>
      </trkpt>
      <trkpt lat="48.20931" lon="-3.04516">
        <ele>131</ele>
        <time>2015-06-10T10:39:58Z</time>
      </trkpt>
      <trkpt lat="48.20929" lon="-3.04519">
        <ele>131</ele>
        <time>2015-06-10T10:40:00Z</time>
      </trkpt>
      <trkpt lat="48.20926" lon="-3.04522">
        <ele>131</ele>
        <time>2015-06-10T10:40:02Z</time>
      </trkpt>
      <trkpt lat="48.20924" lon="-3.04523">
        <ele>130</ele>
        <time>2015-06-10T10:40:04Z</time>
      </trkpt>
      <trkpt lat="48.20923" lon="-3.04524">
        <ele>129</ele>
        <time>2015-06-10T10:40:06Z</time>
      </trkpt>
      <trkpt lat="48.2092" lon="-3.04528">
        <ele>129</ele>
        <time>2015-06-10T10:40:09Z</time>
      </trkpt>
      <trkpt lat="48.20917" lon="-3.04532">
        <ele>128</ele>
        <time>2015-06-10T10:40:12Z</time>
      </trkpt>
      <trkpt lat="48.20915" lon="-3.04534">
        <ele>127</ele>
        <time>2015-06-10T10:40:14Z</time>
      </trkpt>
      <trkpt lat="48.20913" lon="-3.04536">
        <ele>127</ele>
        <time>2015-06-10T10:40:16Z</time>
      </trkpt>
      <trkpt lat="48.20911" lon="-3.0454">
        <ele>127</ele>
        <time>2015-06-10T10:40:18Z</time>
      </trkpt>
      <trkpt lat="48.20908" lon="-3.04541">
        <ele>127</ele>
        <time>2015-06-10T10:40:21Z</time>
      </trkpt>
      <trkpt lat="48.20906" lon="-3.04541">
        <ele>126</ele>
        <time>2015-06-10T10:40:24Z</time>
      </trkpt>
      <trkpt lat="48.20906" lon="-3.04538">
        <ele>126</ele>
        <time>2015-06-10T10:40:26Z</time>
      </trkpt>
      <trkpt lat="48.20904" lon="-3.0454">
        <ele>126</ele>
        <time>2015-06-10T10:40:29Z</time>
      </trkpt>
      <trkpt lat="48.20901" lon="-3.04542">
        <ele>126</ele>
        <time>2015-06-10T10:40:32Z</time>
      </trkpt>
      <trkpt lat="48.209" lon="-3.04542">
        <ele>126</ele>
        <time>2015-06-10T10:40:34Z</time>
      </trkpt>
      <trkpt lat="48.20901" lon="-3.04544">
        <ele>127</ele>
        <time>2015-06-10T10:40:37Z</time>
      </trkpt>
      <trkpt lat="48.20901" lon="-3.04546">
        <ele>127</ele>
        <time>2015-06-10T10:40:41Z</time>
      </trkpt>
      <trkpt lat="48.20901" lon="-3.04548">
        <ele>127</ele>
        <time>2015-06-10T10:40:43Z</time>
      </trkpt>
      <trkpt lat="48.20899" lon="-3.04551">
        <ele>127</ele>
        <time>2015-06-10T10:40:45Z</time>
      </trkpt>
      <trkpt lat="48.20898" lon="-3.04553">
        <ele>127</ele>
        <time>2015-06-10T10:40:47Z</time>
      </trkpt>
      <trkpt lat="48.20897" lon="-3.04554">
        <ele>127</ele>
        <time>2015-06-10T10:40:50Z</time>
      </trkpt>
      <trkpt lat="48.20894" lon="-3.04556">
        <ele>127</ele>
        <time>2015-06-10T10:40:52Z</time>
      </trkpt>
      <trkpt lat="48.20891" lon="-3.0456">
        <ele>127</ele>
        <time>2015-06-10T10:40:54Z</time>
      </trkpt>
      <trkpt lat="48.20889" lon="-3.04563">
        <ele>128</ele>
        <time>2015-06-10T10:40:56Z</time>
      </trkpt>
      <trkpt lat="48.20887" lon="-3.04565">
        <ele>129</ele>
        <time>2015-06-10T10:40:58Z</time>
      </trkpt>
      <trkpt lat="48.20885" lon="-3.04567">
        <ele>129</ele>
        <time>2015-06-10T10:41:00Z</time>
      </trkpt>
      <trkpt lat="48.20884" lon="-3.04569">
        <ele>129</ele>
        <time>2015-06-10T10:41:02Z</time>
      </trkpt>
      <trkpt lat="48.20883" lon="-3.04571">
        <ele>129</ele>
        <time>2015-06-10T10:41:04Z</time>
      </trkpt>
      <trkpt lat="48.20881" lon="-3.04574">
        <ele>129</ele>
        <time>2015-06-10T10:41:06Z</time>
      </trkpt>
      <trkpt lat="48.20879" lon="-3.04578">
        <ele>129</ele>
        <time>2015-06-10T10:41:10Z</time>
      </trkpt>
      <trkpt lat="48.20877" lon="-3.04581">
        <ele>129</ele>
        <time>2015-06-10T10:41:12Z</time>
      </trkpt>
      <trkpt lat="48.20876" lon="-3.04584">
        <ele>129</ele>
        <time>2015-06-10T10:41:14Z</time>
      </trkpt>
      <trkpt lat="48.20873" lon="-3.04589">
        <ele>129</ele>
        <time>2015-06-10T10:41:17Z</time>
      </trkpt>
      <trkpt lat="48.20871" lon="-3.04592">
        <ele>129</ele>
        <time>2015-06-10T10:41:19Z</time>
      </trkpt>
      <trkpt lat="48.20869" lon="-3.04596">
        <ele>129</ele>
        <time>2015-06-10T10:41:21Z</time>
      </trkpt>
      <trkpt lat="48.20869" lon="-3.04599">
        <ele>129</ele>
        <time>2015-06-10T10:41:24Z</time>
      </trkpt>
      <trkpt lat="48.20868" lon="-3.04602">
        <ele>129</ele>
        <time>2015-06-10T10:41:26Z</time>
      </trkpt>
      <trkpt lat="48.20868" lon="-3.04606">
        <ele>129</ele>
        <time>2015-06-10T10:41:28Z</time>
      </trkpt>
      <trkpt lat="48.20869" lon="-3.04609">
        <ele>129</ele>
        <time>2015-06-10T10:41:30Z</time>
      </trkpt>
      <trkpt lat="48.20869" lon="-3.04613">
        <ele>129</ele>
        <time>2015-06-10T10:41:32Z</time>
      </trkpt>
      <trkpt lat="48.20869" lon="-3.04616">
        <ele>129</ele>
        <time>2015-06-10T10:41:34Z</time>
      </trkpt>
      <trkpt lat="48.20869" lon="-3.04624">
        <ele>129</ele>
        <time>2015-06-10T10:41:38Z</time>
      </trkpt>
      <trkpt lat="48.20869" lon="-3.04626">
        <ele>129</ele>
        <time>2015-06-10T10:41:40Z</time>
      </trkpt>
      <trkpt lat="48.2087" lon="-3.0463">
        <ele>129</ele>
        <time>2015-06-10T10:41:42Z</time>
      </trkpt>
      <trkpt lat="48.20871" lon="-3.04632">
        <ele>129</ele>
        <time>2015-06-10T10:41:44Z</time>
      </trkpt>
      <trkpt lat="48.20874" lon="-3.04636">
        <ele>129</ele>
        <time>2015-06-10T10:41:46Z</time>
      </trkpt>
      <trkpt lat="48.20877" lon="-3.04638">
        <ele>129</ele>
        <time>2015-06-10T10:41:49Z</time>
      </trkpt>
      <trkpt lat="48.20879" lon="-3.04639">
        <ele>129</ele>
        <time>2015-06-10T10:41:51Z</time>
      </trkpt>
      <trkpt lat="48.20881" lon="-3.04639">
        <ele>129</ele>
        <time>2015-06-10T10:41:53Z</time>
      </trkpt>
      <trkpt lat="48.20882" lon="-3.04641">
        <ele>129</ele>
        <time>2015-06-10T10:41:55Z</time>
      </trkpt>
      <trkpt lat="48.20884" lon="-3.04642">
        <ele>129</ele>
        <time>2015-06-10T10:41:57Z</time>
      </trkpt>
      <trkpt lat="48.20887" lon="-3.04645">
        <ele>129</ele>
        <time>2015-06-10T10:42:00Z</time>
      </trkpt>
      <trkpt lat="48.20887" lon="-3.04646">
        <ele>129</ele>
        <time>2015-06-10T10:42:02Z</time>
      </trkpt>
      <trkpt lat="48.20889" lon="-3.04648">
        <ele>129</ele>
        <time>2015-06-10T10:42:04Z</time>
      </trkpt>
      <trkpt lat="48.2089" lon="-3.04651">
        <ele>129</ele>
        <time>2015-06-10T10:42:06Z</time>
      </trkpt>
      <trkpt lat="48.20892" lon="-3.04652">
        <ele>128</ele>
        <time>2015-06-10T10:42:08Z</time>
      </trkpt>
      <trkpt lat="48.20894" lon="-3.04654">
        <ele>127</ele>
        <time>2015-06-10T10:42:10Z</time>
      </trkpt>
      <trkpt lat="48.20895" lon="-3.04656">
        <ele>125</ele>
        <time>2015-06-10T10:42:13Z</time>
      </trkpt>
      <trkpt lat="48.20895" lon="-3.0466">
        <ele>124</ele>
        <time>2015-06-10T10:42:15Z</time>
      </trkpt>
      <trkpt lat="48.20896" lon="-3.04665">
        <ele>123</ele>
        <time>2015-06-10T10:42:18Z</time>
      </trkpt>
      <trkpt lat="48.20897" lon="-3.04669">
        <ele>121</ele>
        <time>2015-06-10T10:42:21Z</time>
      </trkpt>
      <trkpt lat="48.20899" lon="-3.04672">
        <ele>120</ele>
        <time>2015-06-10T10:42:23Z</time>
      </trkpt>
      <trkpt lat="48.20903" lon="-3.04676">
        <ele>117</ele>
        <time>2015-06-10T10:42:27Z</time>
      </trkpt>
      <trkpt lat="48.20906" lon="-3.04678">
        <ele>116</ele>
        <time>2015-06-10T10:42:29Z</time>
      </trkpt>
      <trkpt lat="48.20908" lon="-3.04683">
        <ele>116</ele>
        <time>2015-06-10T10:42:32Z</time>
      </trkpt>
      <trkpt lat="48.20911" lon="-3.04688">
        <ele>116</ele>
        <time>2015-06-10T10:42:35Z</time>
      </trkpt>
      <trkpt lat="48.20913" lon="-3.04692">
        <ele>116</ele>
        <time>2015-06-10T10:42:38Z</time>
      </trkpt>
      <trkpt lat="48.20915" lon="-3.04694">
        <ele>116</ele>
        <time>2015-06-10T10:42:40Z</time>
      </trkpt>
      <trkpt lat="48.20917" lon="-3.04696">
        <ele>116</ele>
        <time>2015-06-10T10:42:42Z</time>
      </trkpt>
      <trkpt lat="48.2092" lon="-3.04699">
        <ele>116</ele>
        <time>2015-06-10T10:42:44Z</time>
      </trkpt>
      <trkpt lat="48.20922" lon="-3.04703">
        <ele>116</ele>
        <time>2015-06-10T10:42:46Z</time>
      </trkpt>
      <trkpt lat="48.20924" lon="-3.04706">
        <ele>116</ele>
        <time>2015-06-10T10:42:48Z</time>
      </trkpt>
      <trkpt lat="48.20926" lon="-3.0471">
        <ele>116</ele>
        <time>2015-06-10T10:42:50Z</time>
      </trkpt>
      <trkpt lat="48.20928" lon="-3.04714">
        <ele>116</ele>
        <time>2015-06-10T10:42:52Z</time>
      </trkpt>
      <trkpt lat="48.20929" lon="-3.04716">
        <ele>117</ele>
        <time>2015-06-10T10:42:54Z</time>
      </trkpt>
      <trkpt lat="48.20932" lon="-3.04719">
        <ele>117</ele>
        <time>2015-06-10T10:42:56Z</time>
      </trkpt>
      <trkpt lat="48.20935" lon="-3.04722">
        <ele>117</ele>
        <time>2015-06-10T10:42:58Z</time>
      </trkpt>
      <trkpt lat="48.20938" lon="-3.04726">
        <ele>119</ele>
        <time>2015-06-10T10:43:00Z</time>
      </trkpt>
      <trkpt lat="48.20941" lon="-3.04728">
        <ele>120</ele>
        <time>2015-06-10T10:43:02Z</time>
      </trkpt>
      <trkpt lat="48.20942" lon="-3.04731">
        <ele>121</ele>
        <time>2015-06-10T10:43:04Z</time>
      </trkpt>
      <trkpt lat="48.20944" lon="-3.04734">
        <ele>121</ele>
        <time>2015-06-10T10:43:06Z</time>
      </trkpt>
      <trkpt lat="48.20945" lon="-3.04736">
        <ele>121</ele>
        <time>2015-06-10T10:43:08Z</time>
      </trkpt>
      <trkpt lat="48.20947" lon="-3.0474">
        <ele>121</ele>
        <time>2015-06-10T10:43:10Z</time>
      </trkpt>
      <trkpt lat="48.2095" lon="-3.04747">
        <ele>123</ele>
        <time>2015-06-10T10:43:13Z</time>
      </trkpt>
      <trkpt lat="48.20953" lon="-3.0475">
        <ele>125</ele>
        <time>2015-06-10T10:43:15Z</time>
      </trkpt>
      <trkpt lat="48.20956" lon="-3.04757">
        <ele>128</ele>
        <time>2015-06-10T10:43:18Z</time>
      </trkpt>
      <trkpt lat="48.20958" lon="-3.04761">
        <ele>129</ele>
        <time>2015-06-10T10:43:21Z</time>
      </trkpt>
      <trkpt lat="48.2096" lon="-3.04764">
        <ele>129</ele>
        <time>2015-06-10T10:43:23Z</time>
      </trkpt>
      <trkpt lat="48.20961" lon="-3.04766">
        <ele>129</ele>
        <time>2015-06-10T10:43:25Z</time>
      </trkpt>
      <trkpt lat="48.20963" lon="-3.04769">
        <ele>129</ele>
        <time>2015-06-10T10:43:28Z</time>
      </trkpt>
      <trkpt lat="48.20965" lon="-3.04774">
        <ele>130</ele>
        <time>2015-06-10T10:43:30Z</time>
      </trkpt>
      <trkpt lat="48.20968" lon="-3.04778">
        <ele>130</ele>
        <time>2015-06-10T10:43:33Z</time>
      </trkpt>
      <trkpt lat="48.20969" lon="-3.04781">
        <ele>131</ele>
        <time>2015-06-10T10:43:35Z</time>
      </trkpt>
      <trkpt lat="48.2097" lon="-3.04784">
        <ele>131</ele>
        <time>2015-06-10T10:43:37Z</time>
      </trkpt>
      <trkpt lat="48.20971" lon="-3.04787">
        <ele>131</ele>
        <time>2015-06-10T10:43:39Z</time>
      </trkpt>
      <trkpt lat="48.20974" lon="-3.04791">
        <ele>131</ele>
        <time>2015-06-10T10:43:42Z</time>
      </trkpt>
      <trkpt lat="48.20976" lon="-3.04795">
        <ele>131</ele>
        <time>2015-06-10T10:43:44Z</time>
      </trkpt>
      <trkpt lat="48.20978" lon="-3.048">
        <ele>131</ele>
        <time>2015-06-10T10:43:47Z</time>
      </trkpt>
      <trkpt lat="48.2098" lon="-3.04805">
        <ele>131</ele>
        <time>2015-06-10T10:43:50Z</time>
      </trkpt>
      <trkpt lat="48.20982" lon="-3.04808">
        <ele>131</ele>
        <time>2015-06-10T10:43:52Z</time>
      </trkpt>
      <trkpt lat="48.20984" lon="-3.04811">
        <ele>131</ele>
        <time>2015-06-10T10:43:54Z</time>
      </trkpt>
      <trkpt lat="48.20987" lon="-3.04814">
        <ele>131</ele>
        <time>2015-06-10T10:43:56Z</time>
      </trkpt>
      <trkpt lat="48.2099" lon="-3.04819">
        <ele>129</ele>
        <time>2015-06-10T10:43:59Z</time>
      </trkpt>
      <trkpt lat="48.20992" lon="-3.04823">
        <ele>128</ele>
        <time>2015-06-10T10:44:02Z</time>
      </trkpt>
      <trkpt lat="48.20995" lon="-3.04827">
        <ele>126</ele>
        <time>2015-06-10T10:44:05Z</time>
      </trkpt>
      <trkpt lat="48.20997" lon="-3.04831">
        <ele>125</ele>
        <time>2015-06-10T10:44:08Z</time>
      </trkpt>
      <trkpt lat="48.20999" lon="-3.04834">
        <ele>124</ele>
        <time>2015-06-10T10:44:10Z</time>
      </trkpt>
      <trkpt lat="48.21003" lon="-3.04839">
        <ele>124</ele>
        <time>2015-06-10T10:44:13Z</time>
      </trkpt>
      <trkpt lat="48.21005" lon="-3.04846">
        <ele>124</ele>
        <time>2015-06-10T10:44:15Z</time>
      </trkpt>
      <trkpt lat="48.21009" lon="-3.04851">
        <ele>125</ele>
        <time>2015-06-10T10:44:18Z</time>
      </trkpt>
      <trkpt lat="48.21012" lon="-3.04854">
        <ele>127</ele>
        <time>2015-06-10T10:44:20Z</time>
      </trkpt>
      <trkpt lat="48.21015" lon="-3.04857">
        <ele>130</ele>
        <time>2015-06-10T10:44:23Z</time>
      </trkpt>
      <trkpt lat="48.21018" lon="-3.04861">
        <ele>131</ele>
        <time>2015-06-10T10:44:26Z</time>
      </trkpt>
      <trkpt lat="48.21021" lon="-3.04865">
        <ele>132</ele>
        <time>2015-06-10T10:44:29Z</time>
      </trkpt>
      <trkpt lat="48.21022" lon="-3.04866">
        <ele>132</ele>
        <time>2015-06-10T10:44:33Z</time>
      </trkpt>
      <trkpt lat="48.21024" lon="-3.04868">
        <ele>132</ele>
        <time>2015-06-10T10:44:36Z</time>
      </trkpt>
      <trkpt lat="48.21025" lon="-3.04869">
        <ele>132</ele>
        <time>2015-06-10T10:44:38Z</time>
      </trkpt>
      <trkpt lat="48.21027" lon="-3.04871">
        <ele>132</ele>
        <time>2015-06-10T10:44:40Z</time>
      </trkpt>
      <trkpt lat="48.21029" lon="-3.04872">
        <ele>132</ele>
        <time>2015-06-10T10:44:44Z</time>
      </trkpt>
      <trkpt lat="48.21031" lon="-3.04874">
        <ele>136</ele>
        <time>2015-06-10T10:44:49Z</time>
      </trkpt>
      <trkpt lat="48.21032" lon="-3.04876">
        <ele>138</ele>
        <time>2015-06-10T10:44:51Z</time>
      </trkpt>
      <trkpt lat="48.21033" lon="-3.04878">
        <ele>139</ele>
        <time>2015-06-10T10:44:53Z</time>
      </trkpt>
      <trkpt lat="48.21034" lon="-3.04881">
        <ele>142</ele>
        <time>2015-06-10T10:44:56Z</time>
      </trkpt>
      <trkpt lat="48.21034" lon="-3.04883">
        <ele>144</ele>
        <time>2015-06-10T10:44:58Z</time>
      </trkpt>
      <trkpt lat="48.21034" lon="-3.04881">
        <ele>148</ele>
        <time>2015-06-10T10:45:05Z</time>
      </trkpt>
      <trkpt lat="48.21035" lon="-3.0488">
        <ele>148</ele>
        <time>2015-06-10T10:45:07Z</time>
      </trkpt>
      <trkpt lat="48.21032" lon="-3.04879">
        <ele>148</ele>
        <time>2015-06-10T10:45:09Z</time>
      </trkpt>
      <trkpt lat="48.21028" lon="-3.04877">
        <ele>148</ele>
        <time>2015-06-10T10:45:11Z</time>
      </trkpt>
      <trkpt lat="48.21025" lon="-3.04873">
        <ele>148</ele>
        <time>2015-06-10T10:45:13Z</time>
      </trkpt>
      <trkpt lat="48.21023" lon="-3.04872">
        <ele>147</ele>
        <time>2015-06-10T10:45:15Z</time>
      </trkpt>
      <trkpt lat="48.21022" lon="-3.0487">
        <ele>144</ele>
        <time>2015-06-10T10:45:18Z</time>
      </trkpt>
      <trkpt lat="48.21021" lon="-3.04872">
        <ele>142</ele>
        <time>2015-06-10T10:45:21Z</time>
      </trkpt>
      <trkpt lat="48.2102" lon="-3.04874">
        <ele>141</ele>
        <time>2015-06-10T10:45:23Z</time>
      </trkpt>
      <trkpt lat="48.2102" lon="-3.04875">
        <ele>140</ele>
        <time>2015-06-10T10:45:25Z</time>
      </trkpt>
      <trkpt lat="48.2102" lon="-3.04878">
        <ele>139</ele>
        <time>2015-06-10T10:45:29Z</time>
      </trkpt>
      <trkpt lat="48.2102" lon="-3.0488">
        <ele>138</ele>
        <time>2015-06-10T10:45:32Z</time>
      </trkpt>
      <trkpt lat="48.21019" lon="-3.0488">
        <ele>137</ele>
        <time>2015-06-10T10:45:37Z</time>
      </trkpt>
      <trkpt lat="48.21018" lon="-3.04882">
        <ele>135</ele>
        <time>2015-06-10T10:45:40Z</time>
      </trkpt>
      <trkpt lat="48.21017" lon="-3.04882">
        <ele>134</ele>
        <time>2015-06-10T10:45:42Z</time>
      </trkpt>
      <trkpt lat="48.21016" lon="-3.04883">
        <ele>132</ele>
        <time>2015-06-10T10:45:44Z</time>
      </trkpt>
      <trkpt lat="48.21014" lon="-3.04885">
        <ele>130</ele>
        <time>2015-06-10T10:45:47Z</time>
      </trkpt>
      <trkpt lat="48.21013" lon="-3.04887">
        <ele>128</ele>
        <time>2015-06-10T10:45:50Z</time>
      </trkpt>
      <trkpt lat="48.21011" lon="-3.04888">
        <ele>127</ele>
        <time>2015-06-10T10:45:52Z</time>
      </trkpt>
      <trkpt lat="48.21012" lon="-3.04889">
        <ele>126</ele>
        <time>2015-06-10T10:45:59Z</time>
      </trkpt>
      <trkpt lat="48.21014" lon="-3.04889">
        <ele>125</ele>
        <time>2015-06-10T10:46:01Z</time>
      </trkpt>
      <trkpt lat="48.21015" lon="-3.04889">
        <ele>125</ele>
        <time>2015-06-10T10:46:03Z</time>
      </trkpt>
      <trkpt lat="48.21016" lon="-3.04887">
        <ele>125</ele>
        <time>2015-06-10T10:46:16Z</time>
      </trkpt>
      <trkpt lat="48.21017" lon="-3.04886">
        <ele>125</ele>
        <time>2015-06-10T10:46:18Z</time>
      </trkpt>
      <trkpt lat="48.21018" lon="-3.04884">
        <ele>123</ele>
        <time>2015-06-10T10:46:25Z</time>
      </trkpt>
      <trkpt lat="48.21018" lon="-3.04886">
        <ele>123</ele>
        <time>2015-06-10T10:46:35Z</time>
      </trkpt>
      <trkpt lat="48.21017" lon="-3.04887">
        <ele>123</ele>
        <time>2015-06-10T10:46:52Z</time>
      </trkpt>
      <trkpt lat="48.2101" lon="-3.04897">
        <ele>133</ele>
        <time>2015-06-10T10:46:56Z</time>
      </trkpt>
      <trkpt lat="48.21011" lon="-3.04899">
        <ele>133</ele>
        <time>2015-06-10T10:46:58Z</time>
      </trkpt>
      <trkpt lat="48.21012" lon="-3.04904">
        <ele>132</ele>
        <time>2015-06-10T10:47:02Z</time>
      </trkpt>
      <trkpt lat="48.21013" lon="-3.04907">
        <ele>132</ele>
        <time>2015-06-10T10:47:04Z</time>
      </trkpt>
      <trkpt lat="48.21013" lon="-3.0491">
        <ele>131</ele>
        <time>2015-06-10T10:47:06Z</time>
      </trkpt>
      <trkpt lat="48.21014" lon="-3.04909">
        <ele>131</ele>
        <time>2015-06-10T10:47:13Z</time>
      </trkpt>
      <trkpt lat="48.21016" lon="-3.04909">
        <ele>129</ele>
        <time>2015-06-10T10:47:18Z</time>
      </trkpt>
      <trkpt lat="48.21019" lon="-3.0491">
        <ele>126</ele>
        <time>2015-06-10T10:47:22Z</time>
      </trkpt>
      <trkpt lat="48.21023" lon="-3.04914">
        <ele>124</ele>
        <time>2015-06-10T10:47:26Z</time>
      </trkpt>
      <trkpt lat="48.21023" lon="-3.04918">
        <ele>123</ele>
        <time>2015-06-10T10:47:28Z</time>
      </trkpt>
      <trkpt lat="48.21024" lon="-3.04923">
        <ele>122</ele>
        <time>2015-06-10T10:47:32Z</time>
      </trkpt>
      <trkpt lat="48.21028" lon="-3.04927">
        <ele>122</ele>
        <time>2015-06-10T10:47:36Z</time>
      </trkpt>
      <trkpt lat="48.21028" lon="-3.04929">
        <ele>122</ele>
        <time>2015-06-10T10:47:41Z</time>
      </trkpt>
      <trkpt lat="48.21027" lon="-3.0493">
        <ele>122</ele>
        <time>2015-06-10T10:47:43Z</time>
      </trkpt>
      <trkpt lat="48.21024" lon="-3.04931">
        <ele>122</ele>
        <time>2015-06-10T10:47:45Z</time>
      </trkpt>
      <trkpt lat="48.21021" lon="-3.04931">
        <ele>122</ele>
        <time>2015-06-10T10:47:48Z</time>
      </trkpt>
      <trkpt lat="48.21017" lon="-3.04931">
        <ele>122</ele>
        <time>2015-06-10T10:47:51Z</time>
      </trkpt>
      <trkpt lat="48.21014" lon="-3.0493">
        <ele>122</ele>
        <time>2015-06-10T10:47:54Z</time>
      </trkpt>
      <trkpt lat="48.21012" lon="-3.0493">
        <ele>122</ele>
        <time>2015-06-10T10:47:56Z</time>
      </trkpt>
      <trkpt lat="48.21009" lon="-3.0493">
        <ele>122</ele>
        <time>2015-06-10T10:47:59Z</time>
      </trkpt>
      <trkpt lat="48.21007" lon="-3.04929">
        <ele>122</ele>
        <time>2015-06-10T10:48:01Z</time>
      </trkpt>
      <trkpt lat="48.21003" lon="-3.0493">
        <ele>122</ele>
        <time>2015-06-10T10:48:05Z</time>
      </trkpt>
      <trkpt lat="48.21001" lon="-3.04931">
        <ele>122</ele>
        <time>2015-06-10T10:48:07Z</time>
      </trkpt>
      <trkpt lat="48.20998" lon="-3.0493">
        <ele>122</ele>
        <time>2015-06-10T10:48:10Z</time>
      </trkpt>
      <trkpt lat="48.20995" lon="-3.04929">
        <ele>122</ele>
        <time>2015-06-10T10:48:12Z</time>
      </trkpt>
      <trkpt lat="48.20991" lon="-3.04928">
        <ele>122</ele>
        <time>2015-06-10T10:48:15Z</time>
      </trkpt>
      <trkpt lat="48.20989" lon="-3.04928">
        <ele>122</ele>
        <time>2015-06-10T10:48:17Z</time>
      </trkpt>
      <trkpt lat="48.20986" lon="-3.04927">
        <ele>122</ele>
        <time>2015-06-10T10:48:19Z</time>
      </trkpt>
      <trkpt lat="48.20982" lon="-3.04926">
        <ele>122</ele>
        <time>2015-06-10T10:48:23Z</time>
      </trkpt>
      <trkpt lat="48.20978" lon="-3.04925">
        <ele>122</ele>
        <time>2015-06-10T10:48:27Z</time>
      </trkpt>
      <trkpt lat="48.20976" lon="-3.04924">
        <ele>122</ele>
        <time>2015-06-10T10:48:29Z</time>
      </trkpt>
      <trkpt lat="48.20973" lon="-3.04923">
        <ele>122</ele>
        <time>2015-06-10T10:48:31Z</time>
      </trkpt>
      <trkpt lat="48.2097" lon="-3.04922">
        <ele>122</ele>
        <time>2015-06-10T10:48:33Z</time>
      </trkpt>
      <trkpt lat="48.20967" lon="-3.04921">
        <ele>122</ele>
        <time>2015-06-10T10:48:36Z</time>
      </trkpt>
      <trkpt lat="48.20964" lon="-3.04919">
        <ele>122</ele>
        <time>2015-06-10T10:48:39Z</time>
      </trkpt>
      <trkpt lat="48.20961" lon="-3.04917">
        <ele>122</ele>
        <time>2015-06-10T10:48:42Z</time>
      </trkpt>
      <trkpt lat="48.20958" lon="-3.04916">
        <ele>122</ele>
        <time>2015-06-10T10:48:44Z</time>
      </trkpt>
      <trkpt lat="48.20955" lon="-3.04913">
        <ele>122</ele>
        <time>2015-06-10T10:48:47Z</time>
      </trkpt>
      <trkpt lat="48.20953" lon="-3.04911">
        <ele>122</ele>
        <time>2015-06-10T10:48:49Z</time>
      </trkpt>
      <trkpt lat="48.20948" lon="-3.04907">
        <ele>122</ele>
        <time>2015-06-10T10:48:53Z</time>
      </trkpt>
      <trkpt lat="48.20946" lon="-3.04906">
        <ele>122</ele>
        <time>2015-06-10T10:48:55Z</time>
      </trkpt>
      <trkpt lat="48.20942" lon="-3.04902">
        <ele>122</ele>
        <time>2015-06-10T10:48:59Z</time>
      </trkpt>
      <trkpt lat="48.20939" lon="-3.04899">
        <ele>122</ele>
        <time>2015-06-10T10:49:02Z</time>
      </trkpt>
      <trkpt lat="48.20937" lon="-3.04899">
        <ele>122</ele>
        <time>2015-06-10T10:49:04Z</time>
      </trkpt>
      <trkpt lat="48.20933" lon="-3.04894">
        <ele>122</ele>
        <time>2015-06-10T10:49:08Z</time>
      </trkpt>
      <trkpt lat="48.2093" lon="-3.04889">
        <ele>122</ele>
        <time>2015-06-10T10:49:12Z</time>
      </trkpt>
      <trkpt lat="48.20927" lon="-3.04888">
        <ele>122</ele>
        <time>2015-06-10T10:49:14Z</time>
      </trkpt>
      <trkpt lat="48.20925" lon="-3.04886">
        <ele>122</ele>
        <time>2015-06-10T10:49:16Z</time>
      </trkpt>
      <trkpt lat="48.20923" lon="-3.04885">
        <ele>122</ele>
        <time>2015-06-10T10:49:18Z</time>
      </trkpt>
      <trkpt lat="48.2092" lon="-3.04884">
        <ele>122</ele>
        <time>2015-06-10T10:49:21Z</time>
      </trkpt>
      <trkpt lat="48.20917" lon="-3.04881">
        <ele>122</ele>
        <time>2015-06-10T10:49:24Z</time>
      </trkpt>
      <trkpt lat="48.20913" lon="-3.04876">
        <ele>122</ele>
        <time>2015-06-10T10:49:28Z</time>
      </trkpt>
      <trkpt lat="48.20912" lon="-3.04874">
        <ele>122</ele>
        <time>2015-06-10T10:49:30Z</time>
      </trkpt>
      <trkpt lat="48.20908" lon="-3.04869">
        <ele>122</ele>
        <time>2015-06-10T10:49:34Z</time>
      </trkpt>
      <trkpt lat="48.20906" lon="-3.04867">
        <ele>122</ele>
        <time>2015-06-10T10:49:36Z</time>
      </trkpt>
      <trkpt lat="48.20902" lon="-3.04863">
        <ele>122</ele>
        <time>2015-06-10T10:49:40Z</time>
      </trkpt>
      <trkpt lat="48.209" lon="-3.04861">
        <ele>122</ele>
        <time>2015-06-10T10:49:42Z</time>
      </trkpt>
      <trkpt lat="48.20896" lon="-3.04858">
        <ele>122</ele>
        <time>2015-06-10T10:49:46Z</time>
      </trkpt>
      <trkpt lat="48.20895" lon="-3.04856">
        <ele>122</ele>
        <time>2015-06-10T10:49:48Z</time>
      </trkpt>
      <trkpt lat="48.20891" lon="-3.04853">
        <ele>122</ele>
        <time>2015-06-10T10:49:52Z</time>
      </trkpt>
      <trkpt lat="48.20889" lon="-3.04851">
        <ele>122</ele>
        <time>2015-06-10T10:49:54Z</time>
      </trkpt>
      <trkpt lat="48.20888" lon="-3.04849">
        <ele>122</ele>
        <time>2015-06-10T10:49:57Z</time>
      </trkpt>
      <trkpt lat="48.20887" lon="-3.04847">
        <ele>122</ele>
        <time>2015-06-10T10:49:59Z</time>
      </trkpt>
      <trkpt lat="48.20884" lon="-3.04845">
        <ele>122</ele>
        <time>2015-06-10T10:50:03Z</time>
      </trkpt>
      <trkpt lat="48.20883" lon="-3.04844">
        <ele>122</ele>
        <time>2015-06-10T10:50:05Z</time>
      </trkpt>
      <trkpt lat="48.20882" lon="-3.04843">
        <ele>122</ele>
        <time>2015-06-10T10:50:13Z</time>
      </trkpt>
      <trkpt lat="48.20878" lon="-3.04839">
        <ele>122</ele>
        <time>2015-06-10T10:50:17Z</time>
      </trkpt>
      <trkpt lat="48.20876" lon="-3.04837">
        <ele>122</ele>
        <time>2015-06-10T10:50:19Z</time>
      </trkpt>
      <trkpt lat="48.20872" lon="-3.04832">
        <ele>122</ele>
        <time>2015-06-10T10:50:23Z</time>
      </trkpt>
      <trkpt lat="48.20869" lon="-3.04827">
        <ele>122</ele>
        <time>2015-06-10T10:50:26Z</time>
      </trkpt>
      <trkpt lat="48.20866" lon="-3.04822">
        <ele>122</ele>
        <time>2015-06-10T10:50:29Z</time>
      </trkpt>
      <trkpt lat="48.20864" lon="-3.04817">
        <ele>122</ele>
        <time>2015-06-10T10:50:32Z</time>
      </trkpt>
      <trkpt lat="48.20861" lon="-3.04813">
        <ele>122</ele>
        <time>2015-06-10T10:50:35Z</time>
      </trkpt>
      <trkpt lat="48.20858" lon="-3.0481">
        <ele>122</ele>
        <time>2015-06-10T10:50:38Z</time>
      </trkpt>
      <trkpt lat="48.20856" lon="-3.04804">
        <ele>122</ele>
        <time>2015-06-10T10:50:42Z</time>
      </trkpt>
      <trkpt lat="48.20855" lon="-3.04801">
        <ele>122</ele>
        <time>2015-06-10T10:50:44Z</time>
      </trkpt>
      <trkpt lat="48.20853" lon="-3.04795">
        <ele>122</ele>
        <time>2015-06-10T10:50:48Z</time>
      </trkpt>
      <trkpt lat="48.20851" lon="-3.04792">
        <ele>122</ele>
        <time>2015-06-10T10:50:50Z</time>
      </trkpt>
      <trkpt lat="48.2085" lon="-3.04789">
        <ele>122</ele>
        <time>2015-06-10T10:50:52Z</time>
      </trkpt>
      <trkpt lat="48.20848" lon="-3.04787">
        <ele>122</ele>
        <time>2015-06-10T10:50:54Z</time>
      </trkpt>
      <trkpt lat="48.20845" lon="-3.04781">
        <ele>122</ele>
        <time>2015-06-10T10:50:58Z</time>
      </trkpt>
      <trkpt lat="48.20843" lon="-3.04777">
        <ele>122</ele>
        <time>2015-06-10T10:51:00Z</time>
      </trkpt>
      <trkpt lat="48.2084" lon="-3.04773">
        <ele>122</ele>
        <time>2015-06-10T10:51:03Z</time>
      </trkpt>
      <trkpt lat="48.20839" lon="-3.04772">
        <ele>122</ele>
        <time>2015-06-10T10:51:05Z</time>
      </trkpt>
      <trkpt lat="48.2084" lon="-3.0477">
        <ele>122</ele>
        <time>2015-06-10T10:51:15Z</time>
      </trkpt>
      <trkpt lat="48.20837" lon="-3.04771">
        <ele>122</ele>
        <time>2015-06-10T10:51:19Z</time>
      </trkpt>
      <trkpt lat="48.20838" lon="-3.04771">
        <ele>122</ele>
        <time>2015-06-10T10:51:24Z</time>
      </trkpt>
      <trkpt lat="48.20839" lon="-3.04771">
        <ele>122</ele>
        <time>2015-06-10T10:51:27Z</time>
      </trkpt>
      <trkpt lat="48.20838" lon="-3.04771">
        <ele>122</ele>
        <time>2015-06-10T10:51:34Z</time>
      </trkpt>
      <trkpt lat="48.20839" lon="-3.04772">
        <ele>122</ele>
        <time>2015-06-10T10:51:47Z</time>
      </trkpt>
      <trkpt lat="48.20837" lon="-3.0477">
        <ele>121</ele>
        <time>2015-06-10T10:51:50Z</time>
      </trkpt>
      <trkpt lat="48.20835" lon="-3.04767">
        <ele>120</ele>
        <time>2015-06-10T10:51:52Z</time>
      </trkpt>
      <trkpt lat="48.20835" lon="-3.04762">
        <ele>120</ele>
        <time>2015-06-10T10:51:55Z</time>
      </trkpt>
      <trkpt lat="48.20834" lon="-3.04759">
        <ele>120</ele>
        <time>2015-06-10T10:51:57Z</time>
      </trkpt>
      <trkpt lat="48.20832" lon="-3.04756">
        <ele>119</ele>
        <time>2015-06-10T10:51:59Z</time>
      </trkpt>
      <trkpt lat="48.20832" lon="-3.04754">
        <ele>119</ele>
        <time>2015-06-10T10:52:01Z</time>
      </trkpt>
      <trkpt lat="48.20832" lon="-3.0475">
        <ele>119</ele>
        <time>2015-06-10T10:52:03Z</time>
      </trkpt>
      <trkpt lat="48.20831" lon="-3.04746">
        <ele>119</ele>
        <time>2015-06-10T10:52:05Z</time>
      </trkpt>
      <trkpt lat="48.20833" lon="-3.04745">
        <ele>119</ele>
        <time>2015-06-10T10:52:10Z</time>
      </trkpt>
      <trkpt lat="48.20834" lon="-3.04745">
        <ele>119</ele>
        <time>2015-06-10T10:52:16Z</time>
      </trkpt>
      <trkpt lat="48.20832" lon="-3.04742">
        <ele>119</ele>
        <time>2015-06-10T10:52:21Z</time>
      </trkpt>
      <trkpt lat="48.20829" lon="-3.04736">
        <ele>119</ele>
        <time>2015-06-10T10:52:24Z</time>
      </trkpt>
      <trkpt lat="48.20826" lon="-3.04733">
        <ele>119</ele>
        <time>2015-06-10T10:52:26Z</time>
      </trkpt>
      <trkpt lat="48.20822" lon="-3.04729">
        <ele>119</ele>
        <time>2015-06-10T10:52:29Z</time>
      </trkpt>
      <trkpt lat="48.2082" lon="-3.04726">
        <ele>119</ele>
        <time>2015-06-10T10:52:31Z</time>
      </trkpt>
      <trkpt lat="48.20816" lon="-3.04721">
        <ele>119</ele>
        <time>2015-06-10T10:52:34Z</time>
      </trkpt>
      <trkpt lat="48.20813" lon="-3.04718">
        <ele>119</ele>
        <time>2015-06-10T10:52:36Z</time>
      </trkpt>
      <trkpt lat="48.2081" lon="-3.04713">
        <ele>119</ele>
        <time>2015-06-10T10:52:39Z</time>
      </trkpt>
      <trkpt lat="48.20808" lon="-3.0471">
        <ele>119</ele>
        <time>2015-06-10T10:52:41Z</time>
      </trkpt>
      <trkpt lat="48.20805" lon="-3.04704">
        <ele>119</ele>
        <time>2015-06-10T10:52:44Z</time>
      </trkpt>
      <trkpt lat="48.20803" lon="-3.047">
        <ele>119</ele>
        <time>2015-06-10T10:52:46Z</time>
      </trkpt>
      <trkpt lat="48.208" lon="-3.04697">
        <ele>119</ele>
        <time>2015-06-10T10:52:48Z</time>
      </trkpt>
      <trkpt lat="48.20798" lon="-3.04693">
        <ele>119</ele>
        <time>2015-06-10T10:52:50Z</time>
      </trkpt>
      <trkpt lat="48.20796" lon="-3.0469">
        <ele>119</ele>
        <time>2015-06-10T10:52:52Z</time>
      </trkpt>
      <trkpt lat="48.20795" lon="-3.04688">
        <ele>119</ele>
        <time>2015-06-10T10:52:54Z</time>
      </trkpt>
      <trkpt lat="48.20793" lon="-3.04685">
        <ele>119</ele>
        <time>2015-06-10T10:53:01Z</time>
      </trkpt>
      <trkpt lat="48.20791" lon="-3.04682">
        <ele>118</ele>
        <time>2015-06-10T10:53:03Z</time>
      </trkpt>
      <trkpt lat="48.20789" lon="-3.04678">
        <ele>118</ele>
        <time>2015-06-10T10:53:05Z</time>
      </trkpt>
      <trkpt lat="48.20787" lon="-3.04673">
        <ele>118</ele>
        <time>2015-06-10T10:53:07Z</time>
      </trkpt>
      <trkpt lat="48.20786" lon="-3.04669">
        <ele>118</ele>
        <time>2015-06-10T10:53:09Z</time>
      </trkpt>
      <trkpt lat="48.20783" lon="-3.04666">
        <ele>118</ele>
        <time>2015-06-10T10:53:11Z</time>
      </trkpt>
      <trkpt lat="48.20781" lon="-3.04661">
        <ele>118</ele>
        <time>2015-06-10T10:53:13Z</time>
      </trkpt>
      <trkpt lat="48.20778" lon="-3.04655">
        <ele>118</ele>
        <time>2015-06-10T10:53:16Z</time>
      </trkpt>
      <trkpt lat="48.20776" lon="-3.04649">
        <ele>118</ele>
        <time>2015-06-10T10:53:20Z</time>
      </trkpt>
      <trkpt lat="48.20774" lon="-3.04647">
        <ele>118</ele>
        <time>2015-06-10T10:53:27Z</time>
      </trkpt>
      <trkpt lat="48.20773" lon="-3.04644">
        <ele>118</ele>
        <time>2015-06-10T10:53:29Z</time>
      </trkpt>
      <trkpt lat="48.20771" lon="-3.0464">
        <ele>118</ele>
        <time>2015-06-10T10:53:32Z</time>
      </trkpt>
      <trkpt lat="48.20769" lon="-3.04638">
        <ele>118</ele>
        <time>2015-06-10T10:53:34Z</time>
      </trkpt>
      <trkpt lat="48.20766" lon="-3.04634">
        <ele>118</ele>
        <time>2015-06-10T10:53:37Z</time>
      </trkpt>
      <trkpt lat="48.20764" lon="-3.04634">
        <ele>118</ele>
        <time>2015-06-10T10:53:40Z</time>
      </trkpt>
      <trkpt lat="48.20763" lon="-3.04632">
        <ele>118</ele>
        <time>2015-06-10T10:53:43Z</time>
      </trkpt>
      <trkpt lat="48.20762" lon="-3.0463">
        <ele>118</ele>
        <time>2015-06-10T10:53:45Z</time>
      </trkpt>
      <trkpt lat="48.20762" lon="-3.04627">
        <ele>118</ele>
        <time>2015-06-10T10:53:47Z</time>
      </trkpt>
      <trkpt lat="48.2076" lon="-3.04626">
        <ele>118</ele>
        <time>2015-06-10T10:53:53Z</time>
      </trkpt>
      <trkpt lat="48.20759" lon="-3.04624">
        <ele>118</ele>
        <time>2015-06-10T10:53:56Z</time>
      </trkpt>
      <trkpt lat="48.20758" lon="-3.04622">
        <ele>118</ele>
        <time>2015-06-10T10:53:58Z</time>
      </trkpt>
      <trkpt lat="48.20757" lon="-3.04619">
        <ele>118</ele>
        <time>2015-06-10T10:54:00Z</time>
      </trkpt>
      <trkpt lat="48.20756" lon="-3.04616">
        <ele>118</ele>
        <time>2015-06-10T10:54:02Z</time>
      </trkpt>
      <trkpt lat="48.20754" lon="-3.04614">
        <ele>118</ele>
        <time>2015-06-10T10:54:04Z</time>
      </trkpt>
      <trkpt lat="48.20753" lon="-3.04612">
        <ele>118</ele>
        <time>2015-06-10T10:54:06Z</time>
      </trkpt>
      <trkpt lat="48.20752" lon="-3.0461">
        <ele>118</ele>
        <time>2015-06-10T10:54:08Z</time>
      </trkpt>
      <trkpt lat="48.20751" lon="-3.04609">
        <ele>118</ele>
        <time>2015-06-10T10:54:10Z</time>
      </trkpt>
      <trkpt lat="48.20749" lon="-3.04607">
        <ele>118</ele>
        <time>2015-06-10T10:54:12Z</time>
      </trkpt>
      <trkpt lat="48.20748" lon="-3.04605">
        <ele>118</ele>
        <time>2015-06-10T10:54:14Z</time>
      </trkpt>
      <trkpt lat="48.20747" lon="-3.04604">
        <ele>118</ele>
        <time>2015-06-10T10:54:16Z</time>
      </trkpt>
      <trkpt lat="48.20745" lon="-3.04602">
        <ele>118</ele>
        <time>2015-06-10T10:54:18Z</time>
      </trkpt>
      <trkpt lat="48.20743" lon="-3.046">
        <ele>118</ele>
        <time>2015-06-10T10:54:20Z</time>
      </trkpt>
      <trkpt lat="48.20741" lon="-3.04598">
        <ele>118</ele>
        <time>2015-06-10T10:54:22Z</time>
      </trkpt>
      <trkpt lat="48.2074" lon="-3.04597">
        <ele>118</ele>
        <time>2015-06-10T10:54:24Z</time>
      </trkpt>
      <trkpt lat="48.20738" lon="-3.04597">
        <ele>118</ele>
        <time>2015-06-10T10:54:26Z</time>
      </trkpt>
      <trkpt lat="48.20736" lon="-3.04595">
        <ele>118</ele>
        <time>2015-06-10T10:54:28Z</time>
      </trkpt>
      <trkpt lat="48.20734" lon="-3.04594">
        <ele>118</ele>
        <time>2015-06-10T10:54:30Z</time>
      </trkpt>
      <trkpt lat="48.20732" lon="-3.04593">
        <ele>118</ele>
        <time>2015-06-10T10:54:32Z</time>
      </trkpt>
      <trkpt lat="48.2073" lon="-3.04592">
        <ele>118</ele>
        <time>2015-06-10T10:54:34Z</time>
      </trkpt>
      <trkpt lat="48.20728" lon="-3.0459">
        <ele>118</ele>
        <time>2015-06-10T10:54:36Z</time>
      </trkpt>
      <trkpt lat="48.20726" lon="-3.04588">
        <ele>118</ele>
        <time>2015-06-10T10:54:38Z</time>
      </trkpt>
      <trkpt lat="48.20725" lon="-3.04585">
        <ele>118</ele>
        <time>2015-06-10T10:54:40Z</time>
      </trkpt>
      <trkpt lat="48.20723" lon="-3.04583">
        <ele>118</ele>
        <time>2015-06-10T10:54:42Z</time>
      </trkpt>
      <trkpt lat="48.20721" lon="-3.0458">
        <ele>118</ele>
        <time>2015-06-10T10:54:44Z</time>
      </trkpt>
      <trkpt lat="48.20719" lon="-3.04578">
        <ele>118</ele>
        <time>2015-06-10T10:54:46Z</time>
      </trkpt>
      <trkpt lat="48.20718" lon="-3.04576">
        <ele>118</ele>
        <time>2015-06-10T10:54:48Z</time>
      </trkpt>
      <trkpt lat="48.20716" lon="-3.04574">
        <ele>118</ele>
        <time>2015-06-10T10:54:50Z</time>
      </trkpt>
      <trkpt lat="48.20714" lon="-3.04573">
        <ele>118</ele>
        <time>2015-06-10T10:54:52Z</time>
      </trkpt>
      <trkpt lat="48.20713" lon="-3.04572">
        <ele>118</ele>
        <time>2015-06-10T10:54:54Z</time>
      </trkpt>
      <trkpt lat="48.20711" lon="-3.04571">
        <ele>118</ele>
        <time>2015-06-10T10:54:56Z</time>
      </trkpt>
      <trkpt lat="48.20709" lon="-3.0457">
        <ele>118</ele>
        <time>2015-06-10T10:54:58Z</time>
      </trkpt>
      <trkpt lat="48.20707" lon="-3.04569">
        <ele>118</ele>
        <time>2015-06-10T10:55:00Z</time>
      </trkpt>
      <trkpt lat="48.20706" lon="-3.04569">
        <ele>118</ele>
        <time>2015-06-10T10:55:02Z</time>
      </trkpt>
      <trkpt lat="48.20704" lon="-3.04568">
        <ele>118</ele>
        <time>2015-06-10T10:55:04Z</time>
      </trkpt>
      <trkpt lat="48.20702" lon="-3.04566">
        <ele>118</ele>
        <time>2015-06-10T10:55:06Z</time>
      </trkpt>
      <trkpt lat="48.20698" lon="-3.04564">
        <ele>118</ele>
        <time>2015-06-10T10:55:09Z</time>
      </trkpt>
      <trkpt lat="48.20696" lon="-3.04563">
        <ele>118</ele>
        <time>2015-06-10T10:55:11Z</time>
      </trkpt>
      <trkpt lat="48.20693" lon="-3.04561">
        <ele>118</ele>
        <time>2015-06-10T10:55:14Z</time>
      </trkpt>
      <trkpt lat="48.20692" lon="-3.0456">
        <ele>118</ele>
        <time>2015-06-10T10:55:16Z</time>
      </trkpt>
      <trkpt lat="48.2069" lon="-3.04559">
        <ele>118</ele>
        <time>2015-06-10T10:55:18Z</time>
      </trkpt>
      <trkpt lat="48.20689" lon="-3.04559">
        <ele>118</ele>
        <time>2015-06-10T10:55:28Z</time>
      </trkpt>
      <trkpt lat="48.20687" lon="-3.04559">
        <ele>118</ele>
        <time>2015-06-10T10:55:30Z</time>
      </trkpt>
      <trkpt lat="48.20686" lon="-3.04559">
        <ele>118</ele>
        <time>2015-06-10T10:55:32Z</time>
      </trkpt>
      <trkpt lat="48.20683" lon="-3.0456">
        <ele>118</ele>
        <time>2015-06-10T10:55:34Z</time>
      </trkpt>
      <trkpt lat="48.20681" lon="-3.0456">
        <ele>118</ele>
        <time>2015-06-10T10:55:36Z</time>
      </trkpt>
      <trkpt lat="48.20678" lon="-3.04559">
        <ele>118</ele>
        <time>2015-06-10T10:55:39Z</time>
      </trkpt>
      <trkpt lat="48.20675" lon="-3.04558">
        <ele>118</ele>
        <time>2015-06-10T10:55:41Z</time>
      </trkpt>
      <trkpt lat="48.20673" lon="-3.04556">
        <ele>118</ele>
        <time>2015-06-10T10:55:43Z</time>
      </trkpt>
      <trkpt lat="48.20671" lon="-3.04555">
        <ele>118</ele>
        <time>2015-06-10T10:55:45Z</time>
      </trkpt>
      <trkpt lat="48.20669" lon="-3.04554">
        <ele>118</ele>
        <time>2015-06-10T10:55:47Z</time>
      </trkpt>
      <trkpt lat="48.20667" lon="-3.04554">
        <ele>118</ele>
        <time>2015-06-10T10:55:49Z</time>
      </trkpt>
      <trkpt lat="48.20665" lon="-3.04552">
        <ele>118</ele>
        <time>2015-06-10T10:55:51Z</time>
      </trkpt>
      <trkpt lat="48.20663" lon="-3.04551">
        <ele>118</ele>
        <time>2015-06-10T10:55:53Z</time>
      </trkpt>
      <trkpt lat="48.20662" lon="-3.0455">
        <ele>118</ele>
        <time>2015-06-10T10:55:55Z</time>
      </trkpt>
      <trkpt lat="48.2066" lon="-3.04548">
        <ele>118</ele>
        <time>2015-06-10T10:55:57Z</time>
      </trkpt>
      <trkpt lat="48.20657" lon="-3.04545">
        <ele>118</ele>
        <time>2015-06-10T10:56:01Z</time>
      </trkpt>
      <trkpt lat="48.20655" lon="-3.04544">
        <ele>118</ele>
        <time>2015-06-10T10:56:03Z</time>
      </trkpt>
      <trkpt lat="48.20654" lon="-3.04542">
        <ele>118</ele>
        <time>2015-06-10T10:56:05Z</time>
      </trkpt>
      <trkpt lat="48.20652" lon="-3.04541">
        <ele>118</ele>
        <time>2015-06-10T10:56:07Z</time>
      </trkpt>
      <trkpt lat="48.20649" lon="-3.04539">
        <ele>118</ele>
        <time>2015-06-10T10:56:09Z</time>
      </trkpt>
      <trkpt lat="48.20646" lon="-3.04538">
        <ele>119</ele>
        <time>2015-06-10T10:56:12Z</time>
      </trkpt>
      <trkpt lat="48.20644" lon="-3.04537">
        <ele>119</ele>
        <time>2015-06-10T10:56:14Z</time>
      </trkpt>
      <trkpt lat="48.20642" lon="-3.04537">
        <ele>119</ele>
        <time>2015-06-10T10:56:16Z</time>
      </trkpt>
      <trkpt lat="48.2064" lon="-3.04537">
        <ele>119</ele>
        <time>2015-06-10T10:56:18Z</time>
      </trkpt>
      <trkpt lat="48.20638" lon="-3.04537">
        <ele>119</ele>
        <time>2015-06-10T10:56:20Z</time>
      </trkpt>
      <trkpt lat="48.20635" lon="-3.04537">
        <ele>119</ele>
        <time>2015-06-10T10:56:23Z</time>
      </trkpt>
      <trkpt lat="48.20633" lon="-3.04537">
        <ele>119</ele>
        <time>2015-06-10T10:56:25Z</time>
      </trkpt>
      <trkpt lat="48.20631" lon="-3.04538">
        <ele>120</ele>
        <time>2015-06-10T10:56:27Z</time>
      </trkpt>
      <trkpt lat="48.20629" lon="-3.04538">
        <ele>120</ele>
        <time>2015-06-10T10:56:29Z</time>
      </trkpt>
      <trkpt lat="48.20627" lon="-3.04539">
        <ele>120</ele>
        <time>2015-06-10T10:56:31Z</time>
      </trkpt>
      <trkpt lat="48.20625" lon="-3.04539">
        <ele>120</ele>
        <time>2015-06-10T10:56:33Z</time>
      </trkpt>
      <trkpt lat="48.20623" lon="-3.04539">
        <ele>120</ele>
        <time>2015-06-10T10:56:35Z</time>
      </trkpt>
      <trkpt lat="48.2062" lon="-3.0454">
        <ele>120</ele>
        <time>2015-06-10T10:56:38Z</time>
      </trkpt>
      <trkpt lat="48.20618" lon="-3.0454">
        <ele>120</ele>
        <time>2015-06-10T10:56:40Z</time>
      </trkpt>
      <trkpt lat="48.20615" lon="-3.0454">
        <ele>120</ele>
        <time>2015-06-10T10:56:42Z</time>
      </trkpt>
      <trkpt lat="48.20612" lon="-3.04541">
        <ele>120</ele>
        <time>2015-06-10T10:56:45Z</time>
      </trkpt>
      <trkpt lat="48.2061" lon="-3.04542">
        <ele>120</ele>
        <time>2015-06-10T10:56:47Z</time>
      </trkpt>
      <trkpt lat="48.20608" lon="-3.04542">
        <ele>120</ele>
        <time>2015-06-10T10:56:49Z</time>
      </trkpt>
      <trkpt lat="48.20607" lon="-3.04543">
        <ele>120</ele>
        <time>2015-06-10T10:56:51Z</time>
      </trkpt>
      <trkpt lat="48.20604" lon="-3.04543">
        <ele>120</ele>
        <time>2015-06-10T10:56:53Z</time>
      </trkpt>
      <trkpt lat="48.20602" lon="-3.04543">
        <ele>120</ele>
        <time>2015-06-10T10:56:56Z</time>
      </trkpt>
      <trkpt lat="48.206" lon="-3.04544">
        <ele>120</ele>
        <time>2015-06-10T10:56:58Z</time>
      </trkpt>
      <trkpt lat="48.20598" lon="-3.04544">
        <ele>120</ele>
        <time>2015-06-10T10:57:00Z</time>
      </trkpt>
      <trkpt lat="48.20596" lon="-3.04544">
        <ele>120</ele>
        <time>2015-06-10T10:57:02Z</time>
      </trkpt>
      <trkpt lat="48.20594" lon="-3.04544">
        <ele>120</ele>
        <time>2015-06-10T10:57:04Z</time>
      </trkpt>
      <trkpt lat="48.20593" lon="-3.04543">
        <ele>120</ele>
        <time>2015-06-10T10:57:06Z</time>
      </trkpt>
      <trkpt lat="48.20591" lon="-3.04543">
        <ele>120</ele>
        <time>2015-06-10T10:57:08Z</time>
      </trkpt>
      <trkpt lat="48.2059" lon="-3.04542">
        <ele>120</ele>
        <time>2015-06-10T10:57:10Z</time>
      </trkpt>
      <trkpt lat="48.20589" lon="-3.04542">
        <ele>120</ele>
        <time>2015-06-10T10:57:15Z</time>
      </trkpt>
      <trkpt lat="48.20588" lon="-3.04541">
        <ele>120</ele>
        <time>2015-06-10T10:57:17Z</time>
      </trkpt>
      <trkpt lat="48.20586" lon="-3.04538">
        <ele>120</ele>
        <time>2015-06-10T10:57:20Z</time>
      </trkpt>
      <trkpt lat="48.20586" lon="-3.04536">
        <ele>120</ele>
        <time>2015-06-10T10:57:22Z</time>
      </trkpt>
      <trkpt lat="48.20584" lon="-3.04534">
        <ele>120</ele>
        <time>2015-06-10T10:57:24Z</time>
      </trkpt>
      <trkpt lat="48.20583" lon="-3.04532">
        <ele>120</ele>
        <time>2015-06-10T10:57:26Z</time>
      </trkpt>
      <trkpt lat="48.20583" lon="-3.0453">
        <ele>120</ele>
        <time>2015-06-10T10:57:28Z</time>
      </trkpt>
      <trkpt lat="48.20581" lon="-3.04528">
        <ele>120</ele>
        <time>2015-06-10T10:57:30Z</time>
      </trkpt>
      <trkpt lat="48.20581" lon="-3.04526">
        <ele>119</ele>
        <time>2015-06-10T10:57:32Z</time>
      </trkpt>
      <trkpt lat="48.20581" lon="-3.04523">
        <ele>119</ele>
        <time>2015-06-10T10:57:34Z</time>
      </trkpt>
      <trkpt lat="48.2058" lon="-3.04522">
        <ele>118</ele>
        <time>2015-06-10T10:57:36Z</time>
      </trkpt>
      <trkpt lat="48.20581" lon="-3.04519">
        <ele>118</ele>
        <time>2015-06-10T10:57:38Z</time>
      </trkpt>
      <trkpt lat="48.20582" lon="-3.04517">
        <ele>118</ele>
        <time>2015-06-10T10:57:40Z</time>
      </trkpt>
      <trkpt lat="48.20584" lon="-3.04514">
        <ele>118</ele>
        <time>2015-06-10T10:57:42Z</time>
      </trkpt>
      <trkpt lat="48.20585" lon="-3.04514">
        <ele>118</ele>
        <time>2015-06-10T10:57:45Z</time>
      </trkpt>
      <trkpt lat="48.20584" lon="-3.04516">
        <ele>117</ele>
        <time>2015-06-10T10:57:48Z</time>
      </trkpt>
      <trkpt lat="48.20583" lon="-3.04518">
        <ele>117</ele>
        <time>2015-06-10T10:57:50Z</time>
      </trkpt>
      <trkpt lat="48.20581" lon="-3.04519">
        <ele>116</ele>
        <time>2015-06-10T10:57:52Z</time>
      </trkpt>
      <trkpt lat="48.2058" lon="-3.04521">
        <ele>116</ele>
        <time>2015-06-10T10:57:54Z</time>
      </trkpt>
      <trkpt lat="48.20578" lon="-3.04522">
        <ele>116</ele>
        <time>2015-06-10T10:57:56Z</time>
      </trkpt>
      <trkpt lat="48.20577" lon="-3.04523">
        <ele>115</ele>
        <time>2015-06-10T10:58:03Z</time>
      </trkpt>
      <trkpt lat="48.20576" lon="-3.04525">
        <ele>114</ele>
        <time>2015-06-10T10:58:05Z</time>
      </trkpt>
      <trkpt lat="48.20575" lon="-3.04526">
        <ele>114</ele>
        <time>2015-06-10T10:58:07Z</time>
      </trkpt>
      <trkpt lat="48.20573" lon="-3.04527">
        <ele>114</ele>
        <time>2015-06-10T10:58:15Z</time>
      </trkpt>
      <trkpt lat="48.20572" lon="-3.04528">
        <ele>114</ele>
        <time>2015-06-10T10:58:18Z</time>
      </trkpt>
      <trkpt lat="48.20571" lon="-3.04529">
        <ele>114</ele>
        <time>2015-06-10T10:58:26Z</time>
      </trkpt>
      <trkpt lat="48.20569" lon="-3.0453">
        <ele>114</ele>
        <time>2015-06-10T10:58:28Z</time>
      </trkpt>
      <trkpt lat="48.20568" lon="-3.0453">
        <ele>113</ele>
        <time>2015-06-10T10:58:30Z</time>
      </trkpt>
      <trkpt lat="48.20567" lon="-3.04529">
        <ele>113</ele>
        <time>2015-06-10T10:58:32Z</time>
      </trkpt>
      <trkpt lat="48.20565" lon="-3.0453">
        <ele>112</ele>
        <time>2015-06-10T10:58:35Z</time>
      </trkpt>
      <trkpt lat="48.20567" lon="-3.04529">
        <ele>112</ele>
        <time>2015-06-10T10:58:46Z</time>
      </trkpt>
      <trkpt lat="48.20565" lon="-3.0453">
        <ele>112</ele>
        <time>2015-06-10T10:58:52Z</time>
      </trkpt>
      <trkpt lat="48.20565" lon="-3.04528">
        <ele>112</ele>
        <time>2015-06-10T10:58:55Z</time>
      </trkpt>
      <trkpt lat="48.20566" lon="-3.04527">
        <ele>112</ele>
        <time>2015-06-10T10:59:08Z</time>
      </trkpt>
      <trkpt lat="48.20567" lon="-3.04527">
        <ele>111</ele>
        <time>2015-06-10T10:59:14Z</time>
      </trkpt>
      <trkpt lat="48.20567" lon="-3.04528">
        <ele>109</ele>
        <time>2015-06-10T10:59:36Z</time>
      </trkpt>
      <trkpt lat="48.2057" lon="-3.04527">
        <ele>109</ele>
        <time>2015-06-10T10:59:38Z</time>
      </trkpt>
      <trkpt lat="48.20571" lon="-3.04526">
        <ele>109</ele>
        <time>2015-06-10T10:59:40Z</time>
      </trkpt>
      <trkpt lat="48.20572" lon="-3.04525">
        <ele>109</ele>
        <time>2015-06-10T10:59:43Z</time>
      </trkpt>
      <trkpt lat="48.20571" lon="-3.04527">
        <ele>109</ele>
        <time>2015-06-10T11:00:08Z</time>
      </trkpt>
      <trkpt lat="48.20569" lon="-3.04528">
        <ele>109</ele>
        <time>2015-06-10T11:00:10Z</time>
      </trkpt>
      <trkpt lat="48.20567" lon="-3.0453">
        <ele>109</ele>
        <time>2015-06-10T11:00:13Z</time>
      </trkpt>
      <trkpt lat="48.20566" lon="-3.0453">
        <ele>109</ele>
        <time>2015-06-10T11:00:15Z</time>
      </trkpt>
      <trkpt lat="48.20565" lon="-3.04531">
        <ele>109</ele>
        <time>2015-06-10T11:00:19Z</time>
      </trkpt>
      <trkpt lat="48.20564" lon="-3.0453">
        <ele>109</ele>
        <time>2015-06-10T11:00:21Z</time>
      </trkpt>
      <trkpt lat="48.20562" lon="-3.0453">
        <ele>109</ele>
        <time>2015-06-10T11:00:31Z</time>
      </trkpt>
      <trkpt lat="48.20559" lon="-3.04531">
        <ele>109</ele>
        <time>2015-06-10T11:00:33Z</time>
      </trkpt>
      <trkpt lat="48.20557" lon="-3.04533">
        <ele>108</ele>
        <time>2015-06-10T11:00:35Z</time>
      </trkpt>
      <trkpt lat="48.20555" lon="-3.04534">
        <ele>108</ele>
        <time>2015-06-10T11:00:37Z</time>
      </trkpt>
      <trkpt lat="48.20553" lon="-3.04534">
        <ele>108</ele>
        <time>2015-06-10T11:00:39Z</time>
      </trkpt>
      <trkpt lat="48.2055" lon="-3.04535">
        <ele>108</ele>
        <time>2015-06-10T11:00:41Z</time>
      </trkpt>
      <trkpt lat="48.20547" lon="-3.04536">
        <ele>108</ele>
        <time>2015-06-10T11:00:43Z</time>
      </trkpt>
      <trkpt lat="48.20545" lon="-3.04536">
        <ele>108</ele>
        <time>2015-06-10T11:00:45Z</time>
      </trkpt>
      <trkpt lat="48.20542" lon="-3.04536">
        <ele>108</ele>
        <time>2015-06-10T11:00:48Z</time>
      </trkpt>
      <trkpt lat="48.20541" lon="-3.04536">
        <ele>108</ele>
        <time>2015-06-10T11:00:52Z</time>
      </trkpt>
      <trkpt lat="48.20539" lon="-3.04537">
        <ele>108</ele>
        <time>2015-06-10T11:00:54Z</time>
      </trkpt>
      <trkpt lat="48.20536" lon="-3.04537">
        <ele>108</ele>
        <time>2015-06-10T11:00:56Z</time>
      </trkpt>
      <trkpt lat="48.20534" lon="-3.04537">
        <ele>108</ele>
        <time>2015-06-10T11:00:58Z</time>
      </trkpt>
      <trkpt lat="48.20531" lon="-3.04537">
        <ele>108</ele>
        <time>2015-06-10T11:01:00Z</time>
      </trkpt>
      <trkpt lat="48.20529" lon="-3.04538">
        <ele>108</ele>
        <time>2015-06-10T11:01:02Z</time>
      </trkpt>
      <trkpt lat="48.20527" lon="-3.04538">
        <ele>108</ele>
        <time>2015-06-10T11:01:04Z</time>
      </trkpt>
      <trkpt lat="48.20523" lon="-3.04538">
        <ele>108</ele>
        <time>2015-06-10T11:01:07Z</time>
      </trkpt>
      <trkpt lat="48.2052" lon="-3.04538">
        <ele>108</ele>
        <time>2015-06-10T11:01:10Z</time>
      </trkpt>
      <trkpt lat="48.20518" lon="-3.04538">
        <ele>108</ele>
        <time>2015-06-10T11:01:12Z</time>
      </trkpt>
      <trkpt lat="48.20514" lon="-3.04537">
        <ele>108</ele>
        <time>2015-06-10T11:01:15Z</time>
      </trkpt>
      <trkpt lat="48.20512" lon="-3.04537">
        <ele>108</ele>
        <time>2015-06-10T11:01:17Z</time>
      </trkpt>
      <trkpt lat="48.2051" lon="-3.04537">
        <ele>108</ele>
        <time>2015-06-10T11:01:19Z</time>
      </trkpt>
      <trkpt lat="48.20508" lon="-3.04536">
        <ele>108</ele>
        <time>2015-06-10T11:01:21Z</time>
      </trkpt>
      <trkpt lat="48.20506" lon="-3.04535">
        <ele>108</ele>
        <time>2015-06-10T11:01:23Z</time>
      </trkpt>
      <trkpt lat="48.20505" lon="-3.04534">
        <ele>108</ele>
        <time>2015-06-10T11:01:25Z</time>
      </trkpt>
      <trkpt lat="48.20504" lon="-3.04534">
        <ele>108</ele>
        <time>2015-06-10T11:01:29Z</time>
      </trkpt>
      <trkpt lat="48.20501" lon="-3.04534">
        <ele>108</ele>
        <time>2015-06-10T11:01:31Z</time>
      </trkpt>
      <trkpt lat="48.20499" lon="-3.04534">
        <ele>108</ele>
        <time>2015-06-10T11:01:33Z</time>
      </trkpt>
      <trkpt lat="48.20496" lon="-3.04533">
        <ele>108</ele>
        <time>2015-06-10T11:01:35Z</time>
      </trkpt>
      <trkpt lat="48.20494" lon="-3.04533">
        <ele>108</ele>
        <time>2015-06-10T11:01:37Z</time>
      </trkpt>
      <trkpt lat="48.20492" lon="-3.04532">
        <ele>108</ele>
        <time>2015-06-10T11:01:39Z</time>
      </trkpt>
      <trkpt lat="48.2049" lon="-3.04532">
        <ele>108</ele>
        <time>2015-06-10T11:01:41Z</time>
      </trkpt>
      <trkpt lat="48.20487" lon="-3.04531">
        <ele>108</ele>
        <time>2015-06-10T11:01:43Z</time>
      </trkpt>
      <trkpt lat="48.20484" lon="-3.0453">
        <ele>108</ele>
        <time>2015-06-10T11:01:45Z</time>
      </trkpt>
      <trkpt lat="48.20482" lon="-3.0453">
        <ele>108</ele>
        <time>2015-06-10T11:01:47Z</time>
      </trkpt>
      <trkpt lat="48.20479" lon="-3.04529">
        <ele>108</ele>
        <time>2015-06-10T11:01:49Z</time>
      </trkpt>
      <trkpt lat="48.20477" lon="-3.04529">
        <ele>108</ele>
        <time>2015-06-10T11:01:51Z</time>
      </trkpt>
      <trkpt lat="48.20474" lon="-3.04529">
        <ele>108</ele>
        <time>2015-06-10T11:01:53Z</time>
      </trkpt>
      <trkpt lat="48.20471" lon="-3.04529">
        <ele>108</ele>
        <time>2015-06-10T11:01:55Z</time>
      </trkpt>
      <trkpt lat="48.20468" lon="-3.04529">
        <ele>108</ele>
        <time>2015-06-10T11:01:57Z</time>
      </trkpt>
      <trkpt lat="48.20466" lon="-3.0453">
        <ele>108</ele>
        <time>2015-06-10T11:01:59Z</time>
      </trkpt>
      <trkpt lat="48.20463" lon="-3.0453">
        <ele>108</ele>
        <time>2015-06-10T11:02:01Z</time>
      </trkpt>
      <trkpt lat="48.20461" lon="-3.04531">
        <ele>108</ele>
        <time>2015-06-10T11:02:03Z</time>
      </trkpt>
      <trkpt lat="48.20458" lon="-3.04531">
        <ele>108</ele>
        <time>2015-06-10T11:02:05Z</time>
      </trkpt>
      <trkpt lat="48.20456" lon="-3.04532">
        <ele>108</ele>
        <time>2015-06-10T11:02:07Z</time>
      </trkpt>
      <trkpt lat="48.20453" lon="-3.04532">
        <ele>108</ele>
        <time>2015-06-10T11:02:09Z</time>
      </trkpt>
      <trkpt lat="48.20451" lon="-3.04532">
        <ele>108</ele>
        <time>2015-06-10T11:02:11Z</time>
      </trkpt>
      <trkpt lat="48.20448" lon="-3.04532">
        <ele>108</ele>
        <time>2015-06-10T11:02:14Z</time>
      </trkpt>
      <trkpt lat="48.20446" lon="-3.04532">
        <ele>108</ele>
        <time>2015-06-10T11:02:16Z</time>
      </trkpt>
      <trkpt lat="48.20443" lon="-3.04534">
        <ele>108</ele>
        <time>2015-06-10T11:02:18Z</time>
      </trkpt>
      <trkpt lat="48.20441" lon="-3.04535">
        <ele>108</ele>
        <time>2015-06-10T11:02:20Z</time>
      </trkpt>
      <trkpt lat="48.20438" lon="-3.04536">
        <ele>108</ele>
        <time>2015-06-10T11:02:22Z</time>
      </trkpt>
      <trkpt lat="48.20435" lon="-3.04538">
        <ele>108</ele>
        <time>2015-06-10T11:02:24Z</time>
      </trkpt>
      <trkpt lat="48.20433" lon="-3.0454">
        <ele>108</ele>
        <time>2015-06-10T11:02:26Z</time>
      </trkpt>
      <trkpt lat="48.2043" lon="-3.04542">
        <ele>108</ele>
        <time>2015-06-10T11:02:28Z</time>
      </trkpt>
      <trkpt lat="48.20428" lon="-3.04544">
        <ele>108</ele>
        <time>2015-06-10T11:02:30Z</time>
      </trkpt>
      <trkpt lat="48.20425" lon="-3.04546">
        <ele>108</ele>
        <time>2015-06-10T11:02:32Z</time>
      </trkpt>
      <trkpt lat="48.20422" lon="-3.04548">
        <ele>108</ele>
        <time>2015-06-10T11:02:34Z</time>
      </trkpt>
      <trkpt lat="48.2042" lon="-3.04549">
        <ele>108</ele>
        <time>2015-06-10T11:02:36Z</time>
      </trkpt>
      <trkpt lat="48.20417" lon="-3.04551">
        <ele>108</ele>
        <time>2015-06-10T11:02:38Z</time>
      </trkpt>
      <trkpt lat="48.20414" lon="-3.04552">
        <ele>108</ele>
        <time>2015-06-10T11:02:40Z</time>
      </trkpt>
      <trkpt lat="48.20413" lon="-3.04552">
        <ele>108</ele>
        <time>2015-06-10T11:02:42Z</time>
      </trkpt>
      <trkpt lat="48.20412" lon="-3.04552">
        <ele>108</ele>
        <time>2015-06-10T11:02:48Z</time>
      </trkpt>
      <trkpt lat="48.2041" lon="-3.04554">
        <ele>108</ele>
        <time>2015-06-10T11:02:50Z</time>
      </trkpt>
      <trkpt lat="48.20408" lon="-3.04556">
        <ele>108</ele>
        <time>2015-06-10T11:02:52Z</time>
      </trkpt>
      <trkpt lat="48.20405" lon="-3.04557">
        <ele>108</ele>
        <time>2015-06-10T11:02:54Z</time>
      </trkpt>
      <trkpt lat="48.20402" lon="-3.04559">
        <ele>108</ele>
        <time>2015-06-10T11:02:57Z</time>
      </trkpt>
      <trkpt lat="48.204" lon="-3.04562">
        <ele>108</ele>
        <time>2015-06-10T11:02:59Z</time>
      </trkpt>
      <trkpt lat="48.20396" lon="-3.04566">
        <ele>108</ele>
        <time>2015-06-10T11:03:02Z</time>
      </trkpt>
      <trkpt lat="48.20393" lon="-3.04569">
        <ele>108</ele>
        <time>2015-06-10T11:03:05Z</time>
      </trkpt>
      <trkpt lat="48.20392" lon="-3.04571">
        <ele>108</ele>
        <time>2015-06-10T11:03:07Z</time>
      </trkpt>
      <trkpt lat="48.2039" lon="-3.04572">
        <ele>108</ele>
        <time>2015-06-10T11:03:09Z</time>
      </trkpt>
      <trkpt lat="48.20389" lon="-3.04575">
        <ele>108</ele>
        <time>2015-06-10T11:03:11Z</time>
      </trkpt>
      <trkpt lat="48.20388" lon="-3.04578">
        <ele>108</ele>
        <time>2015-06-10T11:03:13Z</time>
      </trkpt>
      <trkpt lat="48.20387" lon="-3.04582">
        <ele>108</ele>
        <time>2015-06-10T11:03:15Z</time>
      </trkpt>
      <trkpt lat="48.20386" lon="-3.04585">
        <ele>108</ele>
        <time>2015-06-10T11:03:17Z</time>
      </trkpt>
      <trkpt lat="48.20385" lon="-3.04589">
        <ele>108</ele>
        <time>2015-06-10T11:03:19Z</time>
      </trkpt>
      <trkpt lat="48.20384" lon="-3.04593">
        <ele>108</ele>
        <time>2015-06-10T11:03:21Z</time>
      </trkpt>
      <trkpt lat="48.20384" lon="-3.04597">
        <ele>108</ele>
        <time>2015-06-10T11:03:23Z</time>
      </trkpt>
      <trkpt lat="48.20383" lon="-3.04601">
        <ele>108</ele>
        <time>2015-06-10T11:03:25Z</time>
      </trkpt>
      <trkpt lat="48.20383" lon="-3.04605">
        <ele>108</ele>
        <time>2015-06-10T11:03:28Z</time>
      </trkpt>
      <trkpt lat="48.20383" lon="-3.04608">
        <ele>108</ele>
        <time>2015-06-10T11:03:30Z</time>
      </trkpt>
      <trkpt lat="48.20382" lon="-3.04611">
        <ele>108</ele>
        <time>2015-06-10T11:03:32Z</time>
      </trkpt>
      <trkpt lat="48.20382" lon="-3.04613">
        <ele>108</ele>
        <time>2015-06-10T11:03:41Z</time>
      </trkpt>
      <trkpt lat="48.20382" lon="-3.04617">
        <ele>108</ele>
        <time>2015-06-10T11:03:43Z</time>
      </trkpt>
      <trkpt lat="48.20382" lon="-3.04621">
        <ele>108</ele>
        <time>2015-06-10T11:03:45Z</time>
      </trkpt>
      <trkpt lat="48.20381" lon="-3.04626">
        <ele>108</ele>
        <time>2015-06-10T11:03:48Z</time>
      </trkpt>
      <trkpt lat="48.2038" lon="-3.04629">
        <ele>108</ele>
        <time>2015-06-10T11:03:51Z</time>
      </trkpt>
      <trkpt lat="48.2038" lon="-3.04631">
        <ele>108</ele>
        <time>2015-06-10T11:03:53Z</time>
      </trkpt>
      <trkpt lat="48.20378" lon="-3.04633">
        <ele>108</ele>
        <time>2015-06-10T11:03:55Z</time>
      </trkpt>
      <trkpt lat="48.20375" lon="-3.04635">
        <ele>108</ele>
        <time>2015-06-10T11:03:57Z</time>
      </trkpt>
      <trkpt lat="48.20373" lon="-3.04636">
        <ele>108</ele>
        <time>2015-06-10T11:03:59Z</time>
      </trkpt>
      <trkpt lat="48.2037" lon="-3.04637">
        <ele>108</ele>
        <time>2015-06-10T11:04:01Z</time>
      </trkpt>
      <trkpt lat="48.20368" lon="-3.04637">
        <ele>108</ele>
        <time>2015-06-10T11:04:03Z</time>
      </trkpt>
      <trkpt lat="48.20365" lon="-3.04638">
        <ele>108</ele>
        <time>2015-06-10T11:04:05Z</time>
      </trkpt>
      <trkpt lat="48.20362" lon="-3.04638">
        <ele>108</ele>
        <time>2015-06-10T11:04:08Z</time>
      </trkpt>
      <trkpt lat="48.2036" lon="-3.04638">
        <ele>108</ele>
        <time>2015-06-10T11:04:10Z</time>
      </trkpt>
      <trkpt lat="48.20357" lon="-3.04638">
        <ele>108</ele>
        <time>2015-06-10T11:04:13Z</time>
      </trkpt>
      <trkpt lat="48.20355" lon="-3.04638">
        <ele>108</ele>
        <time>2015-06-10T11:04:15Z</time>
      </trkpt>
      <trkpt lat="48.20351" lon="-3.04638">
        <ele>108</ele>
        <time>2015-06-10T11:04:18Z</time>
      </trkpt>
      <trkpt lat="48.20349" lon="-3.04638">
        <ele>108</ele>
        <time>2015-06-10T11:04:20Z</time>
      </trkpt>
      <trkpt lat="48.20347" lon="-3.04638">
        <ele>108</ele>
        <time>2015-06-10T11:04:22Z</time>
      </trkpt>
      <trkpt lat="48.20345" lon="-3.04638">
        <ele>108</ele>
        <time>2015-06-10T11:04:24Z</time>
      </trkpt>
      <trkpt lat="48.20343" lon="-3.04638">
        <ele>108</ele>
        <time>2015-06-10T11:04:26Z</time>
      </trkpt>
      <trkpt lat="48.20342" lon="-3.04638">
        <ele>107</ele>
        <time>2015-06-10T11:04:28Z</time>
      </trkpt>
      <trkpt lat="48.2034" lon="-3.04638">
        <ele>107</ele>
        <time>2015-06-10T11:04:30Z</time>
      </trkpt>
      <trkpt lat="48.20338" lon="-3.04637">
        <ele>107</ele>
        <time>2015-06-10T11:04:32Z</time>
      </trkpt>
      <trkpt lat="48.20337" lon="-3.04637">
        <ele>106</ele>
        <time>2015-06-10T11:04:34Z</time>
      </trkpt>
      <trkpt lat="48.20335" lon="-3.04638">
        <ele>106</ele>
        <time>2015-06-10T11:04:36Z</time>
      </trkpt>
      <trkpt lat="48.20333" lon="-3.04638">
        <ele>105</ele>
        <time>2015-06-10T11:04:38Z</time>
      </trkpt>
      <trkpt lat="48.20331" lon="-3.04638">
        <ele>105</ele>
        <time>2015-06-10T11:04:40Z</time>
      </trkpt>
      <trkpt lat="48.20329" lon="-3.04637">
        <ele>104</ele>
        <time>2015-06-10T11:04:42Z</time>
      </trkpt>
      <trkpt lat="48.20327" lon="-3.04637">
        <ele>104</ele>
        <time>2015-06-10T11:04:44Z</time>
      </trkpt>
      <trkpt lat="48.20326" lon="-3.04637">
        <ele>103</ele>
        <time>2015-06-10T11:04:46Z</time>
      </trkpt>
      <trkpt lat="48.20325" lon="-3.04638">
        <ele>103</ele>
        <time>2015-06-10T11:04:48Z</time>
      </trkpt>
      <trkpt lat="48.20324" lon="-3.04637">
        <ele>103</ele>
        <time>2015-06-10T11:04:51Z</time>
      </trkpt>
      <trkpt lat="48.20324" lon="-3.04639">
        <ele>103</ele>
        <time>2015-06-10T11:04:54Z</time>
      </trkpt>
      <trkpt lat="48.20324" lon="-3.04641">
        <ele>103</ele>
        <time>2015-06-10T11:04:56Z</time>
      </trkpt>
      <trkpt lat="48.20322" lon="-3.04642">
        <ele>102</ele>
        <time>2015-06-10T11:05:10Z</time>
      </trkpt>
      <trkpt lat="48.2032" lon="-3.04643">
        <ele>102</ele>
        <time>2015-06-10T11:05:12Z</time>
      </trkpt>
      <trkpt lat="48.20318" lon="-3.04643">
        <ele>101</ele>
        <time>2015-06-10T11:05:14Z</time>
      </trkpt>
      <trkpt lat="48.20316" lon="-3.04642">
        <ele>101</ele>
        <time>2015-06-10T11:05:16Z</time>
      </trkpt>
      <trkpt lat="48.20313" lon="-3.04642">
        <ele>100</ele>
        <time>2015-06-10T11:05:18Z</time>
      </trkpt>
      <trkpt lat="48.20311" lon="-3.04642">
        <ele>100</ele>
        <time>2015-06-10T11:05:20Z</time>
      </trkpt>
      <trkpt lat="48.20309" lon="-3.04641">
        <ele>99</ele>
        <time>2015-06-10T11:05:22Z</time>
      </trkpt>
      <trkpt lat="48.20306" lon="-3.0464">
        <ele>99</ele>
        <time>2015-06-10T11:05:24Z</time>
      </trkpt>
      <trkpt lat="48.20303" lon="-3.04639">
        <ele>99</ele>
        <time>2015-06-10T11:05:26Z</time>
      </trkpt>
      <trkpt lat="48.20301" lon="-3.04639">
        <ele>98</ele>
        <time>2015-06-10T11:05:28Z</time>
      </trkpt>
      <trkpt lat="48.20298" lon="-3.04639">
        <ele>98</ele>
        <time>2015-06-10T11:05:30Z</time>
      </trkpt>
      <trkpt lat="48.20296" lon="-3.04638">
        <ele>98</ele>
        <time>2015-06-10T11:05:32Z</time>
      </trkpt>
      <trkpt lat="48.20293" lon="-3.04638">
        <ele>98</ele>
        <time>2015-06-10T11:05:35Z</time>
      </trkpt>
      <trkpt lat="48.20291" lon="-3.04638">
        <ele>98</ele>
        <time>2015-06-10T11:05:37Z</time>
      </trkpt>
      <trkpt lat="48.20289" lon="-3.04638">
        <ele>98</ele>
        <time>2015-06-10T11:05:39Z</time>
      </trkpt>
      <trkpt lat="48.20286" lon="-3.04636">
        <ele>98</ele>
        <time>2015-06-10T11:05:42Z</time>
      </trkpt>
      <trkpt lat="48.20284" lon="-3.04634">
        <ele>98</ele>
        <time>2015-06-10T11:05:44Z</time>
      </trkpt>
      <trkpt lat="48.20283" lon="-3.04633">
        <ele>98</ele>
        <time>2015-06-10T11:05:46Z</time>
      </trkpt>
      <trkpt lat="48.20281" lon="-3.04632">
        <ele>98</ele>
        <time>2015-06-10T11:05:48Z</time>
      </trkpt>
      <trkpt lat="48.20279" lon="-3.0463">
        <ele>98</ele>
        <time>2015-06-10T11:05:50Z</time>
      </trkpt>
      <trkpt lat="48.20277" lon="-3.04627">
        <ele>98</ele>
        <time>2015-06-10T11:05:52Z</time>
      </trkpt>
      <trkpt lat="48.20277" lon="-3.04624">
        <ele>98</ele>
        <time>2015-06-10T11:05:54Z</time>
      </trkpt>
      <trkpt lat="48.20277" lon="-3.04622">
        <ele>98</ele>
        <time>2015-06-10T11:05:56Z</time>
      </trkpt>
      <trkpt lat="48.20277" lon="-3.04618">
        <ele>98</ele>
        <time>2015-06-10T11:05:58Z</time>
      </trkpt>
      <trkpt lat="48.20277" lon="-3.04615">
        <ele>97</ele>
        <time>2015-06-10T11:06:00Z</time>
      </trkpt>
      <trkpt lat="48.20276" lon="-3.0461">
        <ele>97</ele>
        <time>2015-06-10T11:06:03Z</time>
      </trkpt>
      <trkpt lat="48.20275" lon="-3.04608">
        <ele>97</ele>
        <time>2015-06-10T11:06:05Z</time>
      </trkpt>
      <trkpt lat="48.20275" lon="-3.04606">
        <ele>97</ele>
        <time>2015-06-10T11:06:07Z</time>
      </trkpt>
      <trkpt lat="48.20275" lon="-3.04603">
        <ele>97</ele>
        <time>2015-06-10T11:06:09Z</time>
      </trkpt>
      <trkpt lat="48.20276" lon="-3.04602">
        <ele>96</ele>
        <time>2015-06-10T11:06:57Z</time>
      </trkpt>
      <trkpt lat="48.20277" lon="-3.046">
        <ele>96</ele>
        <time>2015-06-10T11:07:08Z</time>
      </trkpt>
      <trkpt lat="48.20278" lon="-3.04598">
        <ele>96</ele>
        <time>2015-06-10T11:07:10Z</time>
      </trkpt>
      <trkpt lat="48.20279" lon="-3.04595">
        <ele>96</ele>
        <time>2015-06-10T11:07:12Z</time>
      </trkpt>
      <trkpt lat="48.20279" lon="-3.04592">
        <ele>96</ele>
        <time>2015-06-10T11:07:14Z</time>
      </trkpt>
      <trkpt lat="48.2028" lon="-3.0459">
        <ele>96</ele>
        <time>2015-06-10T11:07:16Z</time>
      </trkpt>
      <trkpt lat="48.20281" lon="-3.04589">
        <ele>96</ele>
        <time>2015-06-10T11:07:18Z</time>
      </trkpt>
      <trkpt lat="48.20281" lon="-3.04587">
        <ele>96</ele>
        <time>2015-06-10T11:07:20Z</time>
      </trkpt>
      <trkpt lat="48.20282" lon="-3.04584">
        <ele>96</ele>
        <time>2015-06-10T11:07:22Z</time>
      </trkpt>
      <trkpt lat="48.20282" lon="-3.04581">
        <ele>96</ele>
        <time>2015-06-10T11:07:35Z</time>
      </trkpt>
      <trkpt lat="48.20282" lon="-3.04577">
        <ele>96</ele>
        <time>2015-06-10T11:07:37Z</time>
      </trkpt>
      <trkpt lat="48.20282" lon="-3.04573">
        <ele>96</ele>
        <time>2015-06-10T11:07:39Z</time>
      </trkpt>
      <trkpt lat="48.20281" lon="-3.04569">
        <ele>96</ele>
        <time>2015-06-10T11:07:42Z</time>
      </trkpt>
      <trkpt lat="48.20282" lon="-3.04571">
        <ele>94</ele>
        <time>2015-06-10T11:08:10Z</time>
      </trkpt>
      <trkpt lat="48.20282" lon="-3.04573">
        <ele>94</ele>
        <time>2015-06-10T11:08:22Z</time>
      </trkpt>
      <trkpt lat="48.20283" lon="-3.04574">
        <ele>94</ele>
        <time>2015-06-10T11:08:32Z</time>
      </trkpt>
      <trkpt lat="48.20283" lon="-3.04577">
        <ele>94</ele>
        <time>2015-06-10T11:08:34Z</time>
      </trkpt>
      <trkpt lat="48.20284" lon="-3.0458">
        <ele>94</ele>
        <time>2015-06-10T11:08:36Z</time>
      </trkpt>
      <trkpt lat="48.20284" lon="-3.04583">
        <ele>94</ele>
        <time>2015-06-10T11:08:38Z</time>
      </trkpt>
      <trkpt lat="48.20283" lon="-3.04586">
        <ele>94</ele>
        <time>2015-06-10T11:08:40Z</time>
      </trkpt>
      <trkpt lat="48.20283" lon="-3.04588">
        <ele>94</ele>
        <time>2015-06-10T11:08:42Z</time>
      </trkpt>
      <trkpt lat="48.20283" lon="-3.04591">
        <ele>94</ele>
        <time>2015-06-10T11:08:44Z</time>
      </trkpt>
      <trkpt lat="48.20283" lon="-3.04593">
        <ele>94</ele>
        <time>2015-06-10T11:08:46Z</time>
      </trkpt>
      <trkpt lat="48.20282" lon="-3.04597">
        <ele>94</ele>
        <time>2015-06-10T11:08:48Z</time>
      </trkpt>
      <trkpt lat="48.2028" lon="-3.046">
        <ele>94</ele>
        <time>2015-06-10T11:08:50Z</time>
      </trkpt>
      <trkpt lat="48.20279" lon="-3.04603">
        <ele>94</ele>
        <time>2015-06-10T11:08:52Z</time>
      </trkpt>
      <trkpt lat="48.20279" lon="-3.04607">
        <ele>94</ele>
        <time>2015-06-10T11:08:54Z</time>
      </trkpt>
      <trkpt lat="48.20279" lon="-3.0461">
        <ele>94</ele>
        <time>2015-06-10T11:08:56Z</time>
      </trkpt>
      <trkpt lat="48.20278" lon="-3.04613">
        <ele>94</ele>
        <time>2015-06-10T11:08:58Z</time>
      </trkpt>
      <trkpt lat="48.20278" lon="-3.04617">
        <ele>94</ele>
        <time>2015-06-10T11:09:00Z</time>
      </trkpt>
      <trkpt lat="48.20278" lon="-3.0462">
        <ele>94</ele>
        <time>2015-06-10T11:09:02Z</time>
      </trkpt>
      <trkpt lat="48.20278" lon="-3.04622">
        <ele>94</ele>
        <time>2015-06-10T11:09:04Z</time>
      </trkpt>
      <trkpt lat="48.20278" lon="-3.04624">
        <ele>94</ele>
        <time>2015-06-10T11:09:49Z</time>
      </trkpt>
      <trkpt lat="48.20277" lon="-3.04624">
        <ele>94</ele>
        <time>2015-06-10T11:10:05Z</time>
      </trkpt>
      <trkpt lat="48.20277" lon="-3.04622">
        <ele>94</ele>
        <time>2015-06-10T11:10:46Z</time>
      </trkpt>
      <trkpt lat="48.20277" lon="-3.04624">
        <ele>94</ele>
        <time>2015-06-10T11:11:30Z</time>
      </trkpt>
      <trkpt lat="48.20279" lon="-3.04625">
        <ele>94</ele>
        <time>2015-06-10T11:11:48Z</time>
      </trkpt>
      <trkpt lat="48.20279" lon="-3.04626">
        <ele>94</ele>
        <time>2015-06-10T11:11:59Z</time>
      </trkpt>
      <trkpt lat="48.2028" lon="-3.04628">
        <ele>94</ele>
        <time>2015-06-10T11:12:02Z</time>
      </trkpt>
      <trkpt lat="48.20282" lon="-3.04629">
        <ele>94</ele>
        <time>2015-06-10T11:12:04Z</time>
      </trkpt>
      <trkpt lat="48.20283" lon="-3.04631">
        <ele>94</ele>
        <time>2015-06-10T11:12:06Z</time>
      </trkpt>
      <trkpt lat="48.20284" lon="-3.04634">
        <ele>94</ele>
        <time>2015-06-10T11:12:08Z</time>
      </trkpt>
      <trkpt lat="48.20282" lon="-3.04636">
        <ele>94</ele>
        <time>2015-06-10T11:12:20Z</time>
      </trkpt>
      <trkpt lat="48.20281" lon="-3.04635">
        <ele>94</ele>
        <time>2015-06-10T11:12:28Z</time>
      </trkpt>
      <trkpt lat="48.2028" lon="-3.04636">
        <ele>94</ele>
        <time>2015-06-10T11:12:34Z</time>
      </trkpt>
      <trkpt lat="48.20282" lon="-3.04636">
        <ele>94</ele>
        <time>2015-06-10T11:12:55Z</time>
      </trkpt>
      <trkpt lat="48.2028" lon="-3.04636">
        <ele>94</ele>
        <time>2015-06-10T11:13:09Z</time>
      </trkpt>
      <trkpt lat="48.20282" lon="-3.04635">
        <ele>94</ele>
        <time>2015-06-10T11:14:07Z</time>
      </trkpt>
      <trkpt lat="48.20283" lon="-3.04637">
        <ele>94</ele>
        <time>2015-06-10T11:14:10Z</time>
      </trkpt>
      <trkpt lat="48.20284" lon="-3.0464">
        <ele>94</ele>
        <time>2015-06-10T11:14:12Z</time>
      </trkpt>
      <trkpt lat="48.20284" lon="-3.04645">
        <ele>94</ele>
        <time>2015-06-10T11:14:14Z</time>
      </trkpt>
      <trkpt lat="48.20284" lon="-3.04648">
        <ele>94</ele>
        <time>2015-06-10T11:14:16Z</time>
      </trkpt>
      <trkpt lat="48.20285" lon="-3.04652">
        <ele>94</ele>
        <time>2015-06-10T11:14:18Z</time>
      </trkpt>
      <trkpt lat="48.20284" lon="-3.04657">
        <ele>94</ele>
        <time>2015-06-10T11:14:20Z</time>
      </trkpt>
      <trkpt lat="48.20283" lon="-3.04661">
        <ele>94</ele>
        <time>2015-06-10T11:14:22Z</time>
      </trkpt>
      <trkpt lat="48.20283" lon="-3.04666">
        <ele>94</ele>
        <time>2015-06-10T11:14:24Z</time>
      </trkpt>
      <trkpt lat="48.20283" lon="-3.04671">
        <ele>94</ele>
        <time>2015-06-10T11:14:26Z</time>
      </trkpt>
      <trkpt lat="48.20284" lon="-3.04675">
        <ele>94</ele>
        <time>2015-06-10T11:14:28Z</time>
      </trkpt>
      <trkpt lat="48.20284" lon="-3.04679">
        <ele>94</ele>
        <time>2015-06-10T11:14:30Z</time>
      </trkpt>
      <trkpt lat="48.20284" lon="-3.04683">
        <ele>94</ele>
        <time>2015-06-10T11:14:32Z</time>
      </trkpt>
      <trkpt lat="48.20284" lon="-3.04688">
        <ele>94</ele>
        <time>2015-06-10T11:14:34Z</time>
      </trkpt>
      <trkpt lat="48.20284" lon="-3.04693">
        <ele>94</ele>
        <time>2015-06-10T11:14:36Z</time>
      </trkpt>
      <trkpt lat="48.20284" lon="-3.04697">
        <ele>94</ele>
        <time>2015-06-10T11:14:38Z</time>
      </trkpt>
      <trkpt lat="48.20284" lon="-3.04702">
        <ele>94</ele>
        <time>2015-06-10T11:14:40Z</time>
      </trkpt>
      <trkpt lat="48.20285" lon="-3.04706">
        <ele>94</ele>
        <time>2015-06-10T11:14:42Z</time>
      </trkpt>
      <trkpt lat="48.20285" lon="-3.04711">
        <ele>94</ele>
        <time>2015-06-10T11:14:44Z</time>
      </trkpt>
      <trkpt lat="48.20285" lon="-3.04715">
        <ele>94</ele>
        <time>2015-06-10T11:14:46Z</time>
      </trkpt>
      <trkpt lat="48.20285" lon="-3.0472">
        <ele>94</ele>
        <time>2015-06-10T11:14:48Z</time>
      </trkpt>
      <trkpt lat="48.20285" lon="-3.04725">
        <ele>94</ele>
        <time>2015-06-10T11:14:50Z</time>
      </trkpt>
      <trkpt lat="48.20285" lon="-3.04729">
        <ele>94</ele>
        <time>2015-06-10T11:14:52Z</time>
      </trkpt>
      <trkpt lat="48.20285" lon="-3.04733">
        <ele>94</ele>
        <time>2015-06-10T11:14:54Z</time>
      </trkpt>
      <trkpt lat="48.20285" lon="-3.04737">
        <ele>94</ele>
        <time>2015-06-10T11:14:56Z</time>
      </trkpt>
      <trkpt lat="48.20285" lon="-3.04742">
        <ele>94</ele>
        <time>2015-06-10T11:14:58Z</time>
      </trkpt>
      <trkpt lat="48.20285" lon="-3.04746">
        <ele>94</ele>
        <time>2015-06-10T11:15:00Z</time>
      </trkpt>
      <trkpt lat="48.20285" lon="-3.04749">
        <ele>94</ele>
        <time>2015-06-10T11:15:02Z</time>
      </trkpt>
      <trkpt lat="48.20285" lon="-3.04753">
        <ele>94</ele>
        <time>2015-06-10T11:15:04Z</time>
      </trkpt>
      <trkpt lat="48.20285" lon="-3.04757">
        <ele>94</ele>
        <time>2015-06-10T11:15:06Z</time>
      </trkpt>
      <trkpt lat="48.20286" lon="-3.04761">
        <ele>94</ele>
        <time>2015-06-10T11:15:08Z</time>
      </trkpt>
      <trkpt lat="48.20285" lon="-3.04765">
        <ele>94</ele>
        <time>2015-06-10T11:15:10Z</time>
      </trkpt>
      <trkpt lat="48.20285" lon="-3.0477">
        <ele>94</ele>
        <time>2015-06-10T11:15:12Z</time>
      </trkpt>
      <trkpt lat="48.20285" lon="-3.04774">
        <ele>94</ele>
        <time>2015-06-10T11:15:14Z</time>
      </trkpt>
      <trkpt lat="48.20286" lon="-3.04778">
        <ele>94</ele>
        <time>2015-06-10T11:15:16Z</time>
      </trkpt>
      <trkpt lat="48.20286" lon="-3.04782">
        <ele>94</ele>
        <time>2015-06-10T11:15:18Z</time>
      </trkpt>
      <trkpt lat="48.20286" lon="-3.04784">
        <ele>94</ele>
        <time>2015-06-10T11:15:20Z</time>
      </trkpt>
      <trkpt lat="48.20287" lon="-3.04786">
        <ele>94</ele>
        <time>2015-06-10T11:15:29Z</time>
      </trkpt>
      <trkpt lat="48.20288" lon="-3.04788">
        <ele>94</ele>
        <time>2015-06-10T11:15:31Z</time>
      </trkpt>
      <trkpt lat="48.20289" lon="-3.04791">
        <ele>94</ele>
        <time>2015-06-10T11:15:36Z</time>
      </trkpt>
      <trkpt lat="48.20287" lon="-3.04795">
        <ele>94</ele>
        <time>2015-06-10T11:15:39Z</time>
      </trkpt>
      <trkpt lat="48.20288" lon="-3.04797">
        <ele>94</ele>
        <time>2015-06-10T11:15:54Z</time>
      </trkpt>
      <trkpt lat="48.20288" lon="-3.048">
        <ele>94</ele>
        <time>2015-06-10T11:15:56Z</time>
      </trkpt>
      <trkpt lat="48.20289" lon="-3.04803">
        <ele>94</ele>
        <time>2015-06-10T11:15:58Z</time>
      </trkpt>
      <trkpt lat="48.2029" lon="-3.04807">
        <ele>94</ele>
        <time>2015-06-10T11:16:00Z</time>
      </trkpt>
      <trkpt lat="48.2029" lon="-3.04812">
        <ele>94</ele>
        <time>2015-06-10T11:16:02Z</time>
      </trkpt>
      <trkpt lat="48.2029" lon="-3.04815">
        <ele>94</ele>
        <time>2015-06-10T11:16:04Z</time>
      </trkpt>
      <trkpt lat="48.20291" lon="-3.04819">
        <ele>94</ele>
        <time>2015-06-10T11:16:06Z</time>
      </trkpt>
      <trkpt lat="48.20292" lon="-3.04824">
        <ele>94</ele>
        <time>2015-06-10T11:16:08Z</time>
      </trkpt>
      <trkpt lat="48.20292" lon="-3.04828">
        <ele>94</ele>
        <time>2015-06-10T11:16:10Z</time>
      </trkpt>
      <trkpt lat="48.20293" lon="-3.04832">
        <ele>94</ele>
        <time>2015-06-10T11:16:12Z</time>
      </trkpt>
      <trkpt lat="48.20295" lon="-3.04833">
        <ele>94</ele>
        <time>2015-06-10T11:16:14Z</time>
      </trkpt>
      <trkpt lat="48.20296" lon="-3.04835">
        <ele>94</ele>
        <time>2015-06-10T11:16:18Z</time>
      </trkpt>
      <trkpt lat="48.20296" lon="-3.04838">
        <ele>94</ele>
        <time>2015-06-10T11:16:20Z</time>
      </trkpt>
      <trkpt lat="48.20297" lon="-3.04842">
        <ele>94</ele>
        <time>2015-06-10T11:16:22Z</time>
      </trkpt>
      <trkpt lat="48.20298" lon="-3.04847">
        <ele>94</ele>
        <time>2015-06-10T11:16:24Z</time>
      </trkpt>
      <trkpt lat="48.20299" lon="-3.0485">
        <ele>94</ele>
        <time>2015-06-10T11:16:26Z</time>
      </trkpt>
      <trkpt lat="48.20301" lon="-3.04853">
        <ele>94</ele>
        <time>2015-06-10T11:16:28Z</time>
      </trkpt>
      <trkpt lat="48.20303" lon="-3.04858">
        <ele>94</ele>
        <time>2015-06-10T11:16:31Z</time>
      </trkpt>
      <trkpt lat="48.20305" lon="-3.04861">
        <ele>94</ele>
        <time>2015-06-10T11:16:33Z</time>
      </trkpt>
      <trkpt lat="48.20308" lon="-3.04866">
        <ele>94</ele>
        <time>2015-06-10T11:16:36Z</time>
      </trkpt>
      <trkpt lat="48.2031" lon="-3.04868">
        <ele>94</ele>
        <time>2015-06-10T11:16:38Z</time>
      </trkpt>
      <trkpt lat="48.20311" lon="-3.0487">
        <ele>94</ele>
        <time>2015-06-10T11:16:40Z</time>
      </trkpt>
      <trkpt lat="48.20313" lon="-3.04871">
        <ele>94</ele>
        <time>2015-06-10T11:16:42Z</time>
      </trkpt>
      <trkpt lat="48.20314" lon="-3.04872">
        <ele>94</ele>
        <time>2015-06-10T11:16:44Z</time>
      </trkpt>
      <trkpt lat="48.20316" lon="-3.04874">
        <ele>94</ele>
        <time>2015-06-10T11:16:46Z</time>
      </trkpt>
      <trkpt lat="48.20319" lon="-3.04876">
        <ele>94</ele>
        <time>2015-06-10T11:16:48Z</time>
      </trkpt>
      <trkpt lat="48.20321" lon="-3.04878">
        <ele>94</ele>
        <time>2015-06-10T11:16:50Z</time>
      </trkpt>
      <trkpt lat="48.20324" lon="-3.0488">
        <ele>94</ele>
        <time>2015-06-10T11:16:52Z</time>
      </trkpt>
      <trkpt lat="48.20327" lon="-3.04882">
        <ele>94</ele>
        <time>2015-06-10T11:16:54Z</time>
      </trkpt>
      <trkpt lat="48.2033" lon="-3.04885">
        <ele>94</ele>
        <time>2015-06-10T11:16:56Z</time>
      </trkpt>
      <trkpt lat="48.20333" lon="-3.04886">
        <ele>94</ele>
        <time>2015-06-10T11:16:58Z</time>
      </trkpt>
      <trkpt lat="48.20336" lon="-3.04888">
        <ele>94</ele>
        <time>2015-06-10T11:17:00Z</time>
      </trkpt>
      <trkpt lat="48.20338" lon="-3.04889">
        <ele>94</ele>
        <time>2015-06-10T11:17:02Z</time>
      </trkpt>
      <trkpt lat="48.20341" lon="-3.04891">
        <ele>94</ele>
        <time>2015-06-10T11:17:04Z</time>
      </trkpt>
      <trkpt lat="48.20344" lon="-3.04893">
        <ele>94</ele>
        <time>2015-06-10T11:17:06Z</time>
      </trkpt>
      <trkpt lat="48.20346" lon="-3.04894">
        <ele>94</ele>
        <time>2015-06-10T11:17:08Z</time>
      </trkpt>
      <trkpt lat="48.20349" lon="-3.04896">
        <ele>94</ele>
        <time>2015-06-10T11:17:10Z</time>
      </trkpt>
      <trkpt lat="48.20351" lon="-3.04897">
        <ele>94</ele>
        <time>2015-06-10T11:17:12Z</time>
      </trkpt>
      <trkpt lat="48.20354" lon="-3.04899">
        <ele>94</ele>
        <time>2015-06-10T11:17:14Z</time>
      </trkpt>
      <trkpt lat="48.20356" lon="-3.04901">
        <ele>94</ele>
        <time>2015-06-10T11:17:16Z</time>
      </trkpt>
      <trkpt lat="48.20359" lon="-3.04902">
        <ele>94</ele>
        <time>2015-06-10T11:17:18Z</time>
      </trkpt>
      <trkpt lat="48.20362" lon="-3.04904">
        <ele>94</ele>
        <time>2015-06-10T11:17:21Z</time>
      </trkpt>
      <trkpt lat="48.20365" lon="-3.04905">
        <ele>94</ele>
        <time>2015-06-10T11:17:23Z</time>
      </trkpt>
      <trkpt lat="48.20367" lon="-3.04906">
        <ele>94</ele>
        <time>2015-06-10T11:17:25Z</time>
      </trkpt>
      <trkpt lat="48.2037" lon="-3.04907">
        <ele>94</ele>
        <time>2015-06-10T11:17:27Z</time>
      </trkpt>
      <trkpt lat="48.20373" lon="-3.04909">
        <ele>94</ele>
        <time>2015-06-10T11:17:29Z</time>
      </trkpt>
      <trkpt lat="48.20375" lon="-3.04911">
        <ele>94</ele>
        <time>2015-06-10T11:17:31Z</time>
      </trkpt>
      <trkpt lat="48.20378" lon="-3.04912">
        <ele>94</ele>
        <time>2015-06-10T11:17:33Z</time>
      </trkpt>
      <trkpt lat="48.20381" lon="-3.04914">
        <ele>94</ele>
        <time>2015-06-10T11:17:35Z</time>
      </trkpt>
      <trkpt lat="48.20384" lon="-3.04915">
        <ele>94</ele>
        <time>2015-06-10T11:17:37Z</time>
      </trkpt>
      <trkpt lat="48.20386" lon="-3.04917">
        <ele>94</ele>
        <time>2015-06-10T11:17:39Z</time>
      </trkpt>
      <trkpt lat="48.20389" lon="-3.04919">
        <ele>94</ele>
        <time>2015-06-10T11:17:41Z</time>
      </trkpt>
      <trkpt lat="48.20392" lon="-3.04921">
        <ele>94</ele>
        <time>2015-06-10T11:17:43Z</time>
      </trkpt>
      <trkpt lat="48.20394" lon="-3.04924">
        <ele>94</ele>
        <time>2015-06-10T11:17:45Z</time>
      </trkpt>
      <trkpt lat="48.20396" lon="-3.04925">
        <ele>94</ele>
        <time>2015-06-10T11:17:47Z</time>
      </trkpt>
      <trkpt lat="48.20399" lon="-3.04927">
        <ele>94</ele>
        <time>2015-06-10T11:17:49Z</time>
      </trkpt>
      <trkpt lat="48.20401" lon="-3.04928">
        <ele>94</ele>
        <time>2015-06-10T11:17:51Z</time>
      </trkpt>
      <trkpt lat="48.20404" lon="-3.04929">
        <ele>94</ele>
        <time>2015-06-10T11:17:53Z</time>
      </trkpt>
      <trkpt lat="48.20406" lon="-3.04931">
        <ele>94</ele>
        <time>2015-06-10T11:17:55Z</time>
      </trkpt>
      <trkpt lat="48.20409" lon="-3.04934">
        <ele>94</ele>
        <time>2015-06-10T11:17:57Z</time>
      </trkpt>
      <trkpt lat="48.20411" lon="-3.04936">
        <ele>94</ele>
        <time>2015-06-10T11:17:59Z</time>
      </trkpt>
      <trkpt lat="48.20414" lon="-3.04937">
        <ele>94</ele>
        <time>2015-06-10T11:18:01Z</time>
      </trkpt>
      <trkpt lat="48.20417" lon="-3.04939">
        <ele>94</ele>
        <time>2015-06-10T11:18:03Z</time>
      </trkpt>
      <trkpt lat="48.20419" lon="-3.0494">
        <ele>94</ele>
        <time>2015-06-10T11:18:05Z</time>
      </trkpt>
      <trkpt lat="48.20422" lon="-3.04942">
        <ele>94</ele>
        <time>2015-06-10T11:18:07Z</time>
      </trkpt>
      <trkpt lat="48.20425" lon="-3.04943">
        <ele>94</ele>
        <time>2015-06-10T11:18:09Z</time>
      </trkpt>
      <trkpt lat="48.20428" lon="-3.04944">
        <ele>94</ele>
        <time>2015-06-10T11:18:11Z</time>
      </trkpt>
      <trkpt lat="48.20431" lon="-3.04945">
        <ele>94</ele>
        <time>2015-06-10T11:18:13Z</time>
      </trkpt>
      <trkpt lat="48.20434" lon="-3.04946">
        <ele>94</ele>
        <time>2015-06-10T11:18:15Z</time>
      </trkpt>
      <trkpt lat="48.20436" lon="-3.04947">
        <ele>94</ele>
        <time>2015-06-10T11:18:17Z</time>
      </trkpt>
      <trkpt lat="48.20439" lon="-3.04948">
        <ele>94</ele>
        <time>2015-06-10T11:18:19Z</time>
      </trkpt>
      <trkpt lat="48.20441" lon="-3.04949">
        <ele>94</ele>
        <time>2015-06-10T11:18:21Z</time>
      </trkpt>
      <trkpt lat="48.20442" lon="-3.0495">
        <ele>94</ele>
        <time>2015-06-10T11:18:23Z</time>
      </trkpt>
      <trkpt lat="48.20444" lon="-3.04951">
        <ele>94</ele>
        <time>2015-06-10T11:18:26Z</time>
      </trkpt>
      <trkpt lat="48.20445" lon="-3.04951">
        <ele>94</ele>
        <time>2015-06-10T11:18:35Z</time>
      </trkpt>
      <trkpt lat="48.20447" lon="-3.04951">
        <ele>94</ele>
        <time>2015-06-10T11:18:45Z</time>
      </trkpt>
      <trkpt lat="48.2045" lon="-3.04952">
        <ele>94</ele>
        <time>2015-06-10T11:18:48Z</time>
      </trkpt>
      <trkpt lat="48.20452" lon="-3.04953">
        <ele>94</ele>
        <time>2015-06-10T11:18:50Z</time>
      </trkpt>
      <trkpt lat="48.20454" lon="-3.04954">
        <ele>94</ele>
        <time>2015-06-10T11:18:52Z</time>
      </trkpt>
      <trkpt lat="48.20456" lon="-3.04956">
        <ele>94</ele>
        <time>2015-06-10T11:18:54Z</time>
      </trkpt>
      <trkpt lat="48.20458" lon="-3.04958">
        <ele>94</ele>
        <time>2015-06-10T11:18:57Z</time>
      </trkpt>
      <trkpt lat="48.2046" lon="-3.04959">
        <ele>94</ele>
        <time>2015-06-10T11:18:59Z</time>
      </trkpt>
      <trkpt lat="48.20461" lon="-3.0496">
        <ele>94</ele>
        <time>2015-06-10T11:19:01Z</time>
      </trkpt>
      <trkpt lat="48.20463" lon="-3.04961">
        <ele>94</ele>
        <time>2015-06-10T11:19:05Z</time>
      </trkpt>
      <trkpt lat="48.20464" lon="-3.04962">
        <ele>94</ele>
        <time>2015-06-10T11:19:11Z</time>
      </trkpt>
      <trkpt lat="48.20466" lon="-3.04963">
        <ele>94</ele>
        <time>2015-06-10T11:19:13Z</time>
      </trkpt>
      <trkpt lat="48.20467" lon="-3.04964">
        <ele>94</ele>
        <time>2015-06-10T11:19:15Z</time>
      </trkpt>
      <trkpt lat="48.20468" lon="-3.04965">
        <ele>94</ele>
        <time>2015-06-10T11:19:17Z</time>
      </trkpt>
      <trkpt lat="48.20469" lon="-3.04966">
        <ele>94</ele>
        <time>2015-06-10T11:19:19Z</time>
      </trkpt>
      <trkpt lat="48.2047" lon="-3.04966">
        <ele>94</ele>
        <time>2015-06-10T11:19:21Z</time>
      </trkpt>
      <trkpt lat="48.20472" lon="-3.04967">
        <ele>94</ele>
        <time>2015-06-10T11:19:26Z</time>
      </trkpt>
      <trkpt lat="48.20473" lon="-3.0497">
        <ele>94</ele>
        <time>2015-06-10T11:19:28Z</time>
      </trkpt>
      <trkpt lat="48.20474" lon="-3.04971">
        <ele>94</ele>
        <time>2015-06-10T11:19:30Z</time>
      </trkpt>
      <trkpt lat="48.20475" lon="-3.04974">
        <ele>94</ele>
        <time>2015-06-10T11:19:32Z</time>
      </trkpt>
      <trkpt lat="48.20477" lon="-3.04976">
        <ele>94</ele>
        <time>2015-06-10T11:19:34Z</time>
      </trkpt>
      <trkpt lat="48.20479" lon="-3.04978">
        <ele>94</ele>
        <time>2015-06-10T11:19:36Z</time>
      </trkpt>
      <trkpt lat="48.2048" lon="-3.0498">
        <ele>94</ele>
        <time>2015-06-10T11:19:38Z</time>
      </trkpt>
      <trkpt lat="48.20482" lon="-3.04983">
        <ele>94</ele>
        <time>2015-06-10T11:19:40Z</time>
      </trkpt>
      <trkpt lat="48.20486" lon="-3.04986">
        <ele>94</ele>
        <time>2015-06-10T11:19:43Z</time>
      </trkpt>
      <trkpt lat="48.20487" lon="-3.04989">
        <ele>94</ele>
        <time>2015-06-10T11:19:45Z</time>
      </trkpt>
      <trkpt lat="48.20488" lon="-3.04991">
        <ele>94</ele>
        <time>2015-06-10T11:19:47Z</time>
      </trkpt>
      <trkpt lat="48.2049" lon="-3.04993">
        <ele>94</ele>
        <time>2015-06-10T11:19:49Z</time>
      </trkpt>
      <trkpt lat="48.20492" lon="-3.04996">
        <ele>94</ele>
        <time>2015-06-10T11:19:51Z</time>
      </trkpt>
      <trkpt lat="48.20494" lon="-3.04998">
        <ele>94</ele>
        <time>2015-06-10T11:19:53Z</time>
      </trkpt>
      <trkpt lat="48.20496" lon="-3.05002">
        <ele>94</ele>
        <time>2015-06-10T11:19:56Z</time>
      </trkpt>
      <trkpt lat="48.20498" lon="-3.05004">
        <ele>94</ele>
        <time>2015-06-10T11:19:58Z</time>
      </trkpt>
      <trkpt lat="48.205" lon="-3.05006">
        <ele>94</ele>
        <time>2015-06-10T11:20:00Z</time>
      </trkpt>
      <trkpt lat="48.20501" lon="-3.05009">
        <ele>94</ele>
        <time>2015-06-10T11:20:02Z</time>
      </trkpt>
      <trkpt lat="48.20502" lon="-3.05012">
        <ele>94</ele>
        <time>2015-06-10T11:20:04Z</time>
      </trkpt>
      <trkpt lat="48.20504" lon="-3.05014">
        <ele>94</ele>
        <time>2015-06-10T11:20:06Z</time>
      </trkpt>
      <trkpt lat="48.20506" lon="-3.05017">
        <ele>94</ele>
        <time>2015-06-10T11:20:08Z</time>
      </trkpt>
      <trkpt lat="48.20508" lon="-3.0502">
        <ele>94</ele>
        <time>2015-06-10T11:20:10Z</time>
      </trkpt>
      <trkpt lat="48.20509" lon="-3.05022">
        <ele>94</ele>
        <time>2015-06-10T11:20:12Z</time>
      </trkpt>
      <trkpt lat="48.20511" lon="-3.05025">
        <ele>94</ele>
        <time>2015-06-10T11:20:14Z</time>
      </trkpt>
      <trkpt lat="48.20512" lon="-3.05028">
        <ele>94</ele>
        <time>2015-06-10T11:20:16Z</time>
      </trkpt>
      <trkpt lat="48.20514" lon="-3.05031">
        <ele>94</ele>
        <time>2015-06-10T11:20:18Z</time>
      </trkpt>
      <trkpt lat="48.20515" lon="-3.05033">
        <ele>94</ele>
        <time>2015-06-10T11:20:20Z</time>
      </trkpt>
      <trkpt lat="48.20517" lon="-3.05034">
        <ele>94</ele>
        <time>2015-06-10T11:20:22Z</time>
      </trkpt>
      <trkpt lat="48.20518" lon="-3.05036">
        <ele>94</ele>
        <time>2015-06-10T11:20:24Z</time>
      </trkpt>
      <trkpt lat="48.20519" lon="-3.05039">
        <ele>94</ele>
        <time>2015-06-10T11:20:26Z</time>
      </trkpt>
      <trkpt lat="48.20518" lon="-3.05038">
        <ele>94</ele>
        <time>2015-06-10T11:20:34Z</time>
      </trkpt>
      <trkpt lat="48.20517" lon="-3.05036">
        <ele>94</ele>
        <time>2015-06-10T11:20:41Z</time>
      </trkpt>
      <trkpt lat="48.20518" lon="-3.05037">
        <ele>94</ele>
        <time>2015-06-10T11:20:44Z</time>
      </trkpt>
      <trkpt lat="48.20519" lon="-3.05039">
        <ele>94</ele>
        <time>2015-06-10T11:20:46Z</time>
      </trkpt>
      <trkpt lat="48.2052" lon="-3.05041">
        <ele>94</ele>
        <time>2015-06-10T11:20:50Z</time>
      </trkpt>
      <trkpt lat="48.20522" lon="-3.05043">
        <ele>94</ele>
        <time>2015-06-10T11:20:54Z</time>
      </trkpt>
      <trkpt lat="48.20523" lon="-3.05045">
        <ele>94</ele>
        <time>2015-06-10T11:20:56Z</time>
      </trkpt>
      <trkpt lat="48.20524" lon="-3.05047">
        <ele>94</ele>
        <time>2015-06-10T11:20:58Z</time>
      </trkpt>
      <trkpt lat="48.20525" lon="-3.0505">
        <ele>94</ele>
        <time>2015-06-10T11:21:00Z</time>
      </trkpt>
      <trkpt lat="48.20527" lon="-3.05052">
        <ele>94</ele>
        <time>2015-06-10T11:21:02Z</time>
      </trkpt>
      <trkpt lat="48.20528" lon="-3.05054">
        <ele>94</ele>
        <time>2015-06-10T11:21:04Z</time>
      </trkpt>
      <trkpt lat="48.2053" lon="-3.05056">
        <ele>94</ele>
        <time>2015-06-10T11:21:06Z</time>
      </trkpt>
      <trkpt lat="48.20531" lon="-3.05057">
        <ele>94</ele>
        <time>2015-06-10T11:21:08Z</time>
      </trkpt>
      <trkpt lat="48.20532" lon="-3.05059">
        <ele>94</ele>
        <time>2015-06-10T11:21:10Z</time>
      </trkpt>
      <trkpt lat="48.20533" lon="-3.05061">
        <ele>94</ele>
        <time>2015-06-10T11:21:12Z</time>
      </trkpt>
      <trkpt lat="48.20534" lon="-3.05063">
        <ele>94</ele>
        <time>2015-06-10T11:21:14Z</time>
      </trkpt>
      <trkpt lat="48.20535" lon="-3.05065">
        <ele>94</ele>
        <time>2015-06-10T11:21:16Z</time>
      </trkpt>
      <trkpt lat="48.20536" lon="-3.05067">
        <ele>94</ele>
        <time>2015-06-10T11:21:18Z</time>
      </trkpt>
      <trkpt lat="48.20537" lon="-3.05068">
        <ele>94</ele>
        <time>2015-06-10T11:21:20Z</time>
      </trkpt>
      <trkpt lat="48.20538" lon="-3.05071">
        <ele>94</ele>
        <time>2015-06-10T11:21:22Z</time>
      </trkpt>
      <trkpt lat="48.20539" lon="-3.05073">
        <ele>94</ele>
        <time>2015-06-10T11:21:24Z</time>
      </trkpt>
      <trkpt lat="48.20541" lon="-3.05075">
        <ele>94</ele>
        <time>2015-06-10T11:21:26Z</time>
      </trkpt>
      <trkpt lat="48.20542" lon="-3.05078">
        <ele>94</ele>
        <time>2015-06-10T11:21:28Z</time>
      </trkpt>
      <trkpt lat="48.20543" lon="-3.0508">
        <ele>94</ele>
        <time>2015-06-10T11:21:31Z</time>
      </trkpt>
      <trkpt lat="48.20544" lon="-3.05082">
        <ele>94</ele>
        <time>2015-06-10T11:21:35Z</time>
      </trkpt>
      <trkpt lat="48.20546" lon="-3.05085">
        <ele>94</ele>
        <time>2015-06-10T11:21:37Z</time>
      </trkpt>
      <trkpt lat="48.20548" lon="-3.05087">
        <ele>94</ele>
        <time>2015-06-10T11:21:39Z</time>
      </trkpt>
      <trkpt lat="48.20551" lon="-3.05092">
        <ele>94</ele>
        <time>2015-06-10T11:21:42Z</time>
      </trkpt>
      <trkpt lat="48.20552" lon="-3.05094">
        <ele>94</ele>
        <time>2015-06-10T11:21:44Z</time>
      </trkpt>
      <trkpt lat="48.20554" lon="-3.05097">
        <ele>94</ele>
        <time>2015-06-10T11:21:46Z</time>
      </trkpt>
      <trkpt lat="48.20556" lon="-3.051">
        <ele>94</ele>
        <time>2015-06-10T11:21:48Z</time>
      </trkpt>
      <trkpt lat="48.20559" lon="-3.05104">
        <ele>94</ele>
        <time>2015-06-10T11:21:51Z</time>
      </trkpt>
      <trkpt lat="48.20562" lon="-3.05108">
        <ele>94</ele>
        <time>2015-06-10T11:21:54Z</time>
      </trkpt>
      <trkpt lat="48.20564" lon="-3.05111">
        <ele>94</ele>
        <time>2015-06-10T11:21:56Z</time>
      </trkpt>
      <trkpt lat="48.20566" lon="-3.05113">
        <ele>94</ele>
        <time>2015-06-10T11:21:58Z</time>
      </trkpt>
      <trkpt lat="48.20567" lon="-3.05116">
        <ele>94</ele>
        <time>2015-06-10T11:22:00Z</time>
      </trkpt>
      <trkpt lat="48.20569" lon="-3.05118">
        <ele>94</ele>
        <time>2015-06-10T11:22:02Z</time>
      </trkpt>
      <trkpt lat="48.2057" lon="-3.05121">
        <ele>94</ele>
        <time>2015-06-10T11:22:04Z</time>
      </trkpt>
      <trkpt lat="48.20573" lon="-3.05125">
        <ele>94</ele>
        <time>2015-06-10T11:22:06Z</time>
      </trkpt>
      <trkpt lat="48.20575" lon="-3.05127">
        <ele>94</ele>
        <time>2015-06-10T11:22:08Z</time>
      </trkpt>
      <trkpt lat="48.20576" lon="-3.05129">
        <ele>94</ele>
        <time>2015-06-10T11:22:10Z</time>
      </trkpt>
      <trkpt lat="48.20576" lon="-3.05131">
        <ele>94</ele>
        <time>2015-06-10T11:22:26Z</time>
      </trkpt>
      <trkpt lat="48.20577" lon="-3.05133">
        <ele>94</ele>
        <time>2015-06-10T11:22:28Z</time>
      </trkpt>
      <trkpt lat="48.20578" lon="-3.05135">
        <ele>94</ele>
        <time>2015-06-10T11:22:30Z</time>
      </trkpt>
      <trkpt lat="48.2058" lon="-3.05137">
        <ele>94</ele>
        <time>2015-06-10T11:22:32Z</time>
      </trkpt>
      <trkpt lat="48.20581" lon="-3.05138">
        <ele>94</ele>
        <time>2015-06-10T11:22:34Z</time>
      </trkpt>
      <trkpt lat="48.20582" lon="-3.05139">
        <ele>94</ele>
        <time>2015-06-10T11:22:38Z</time>
      </trkpt>
      <trkpt lat="48.20584" lon="-3.05141">
        <ele>94</ele>
        <time>2015-06-10T11:22:40Z</time>
      </trkpt>
      <trkpt lat="48.20585" lon="-3.05143">
        <ele>94</ele>
        <time>2015-06-10T11:22:42Z</time>
      </trkpt>
      <trkpt lat="48.20587" lon="-3.05146">
        <ele>94</ele>
        <time>2015-06-10T11:22:44Z</time>
      </trkpt>
      <trkpt lat="48.20588" lon="-3.05148">
        <ele>94</ele>
        <time>2015-06-10T11:22:46Z</time>
      </trkpt>
      <trkpt lat="48.20589" lon="-3.05151">
        <ele>94</ele>
        <time>2015-06-10T11:22:48Z</time>
      </trkpt>
      <trkpt lat="48.20591" lon="-3.05154">
        <ele>94</ele>
        <time>2015-06-10T11:22:50Z</time>
      </trkpt>
      <trkpt lat="48.20593" lon="-3.05157">
        <ele>94</ele>
        <time>2015-06-10T11:22:52Z</time>
      </trkpt>
      <trkpt lat="48.20594" lon="-3.05159">
        <ele>94</ele>
        <time>2015-06-10T11:22:54Z</time>
      </trkpt>
      <trkpt lat="48.20596" lon="-3.05161">
        <ele>94</ele>
        <time>2015-06-10T11:22:56Z</time>
      </trkpt>
      <trkpt lat="48.20597" lon="-3.05164">
        <ele>94</ele>
        <time>2015-06-10T11:22:58Z</time>
      </trkpt>
      <trkpt lat="48.20598" lon="-3.05166">
        <ele>94</ele>
        <time>2015-06-10T11:23:00Z</time>
      </trkpt>
      <trkpt lat="48.206" lon="-3.05168">
        <ele>94</ele>
        <time>2015-06-10T11:23:02Z</time>
      </trkpt>
      <trkpt lat="48.20601" lon="-3.0517">
        <ele>94</ele>
        <time>2015-06-10T11:23:04Z</time>
      </trkpt>
      <trkpt lat="48.20603" lon="-3.05172">
        <ele>94</ele>
        <time>2015-06-10T11:23:06Z</time>
      </trkpt>
      <trkpt lat="48.20604" lon="-3.05175">
        <ele>94</ele>
        <time>2015-06-10T11:23:08Z</time>
      </trkpt>
      <trkpt lat="48.20606" lon="-3.05176">
        <ele>94</ele>
        <time>2015-06-10T11:23:10Z</time>
      </trkpt>
      <trkpt lat="48.20607" lon="-3.0518">
        <ele>94</ele>
        <time>2015-06-10T11:23:12Z</time>
      </trkpt>
      <trkpt lat="48.20609" lon="-3.05182">
        <ele>94</ele>
        <time>2015-06-10T11:23:14Z</time>
      </trkpt>
      <trkpt lat="48.2061" lon="-3.05184">
        <ele>94</ele>
        <time>2015-06-10T11:23:16Z</time>
      </trkpt>
      <trkpt lat="48.20612" lon="-3.05187">
        <ele>94</ele>
        <time>2015-06-10T11:23:18Z</time>
      </trkpt>
      <trkpt lat="48.20614" lon="-3.05189">
        <ele>94</ele>
        <time>2015-06-10T11:23:20Z</time>
      </trkpt>
      <trkpt lat="48.20615" lon="-3.05193">
        <ele>94</ele>
        <time>2015-06-10T11:23:22Z</time>
      </trkpt>
      <trkpt lat="48.20617" lon="-3.05196">
        <ele>94</ele>
        <time>2015-06-10T11:23:24Z</time>
      </trkpt>
      <trkpt lat="48.20618" lon="-3.05197">
        <ele>94</ele>
        <time>2015-06-10T11:23:26Z</time>
      </trkpt>
      <trkpt lat="48.2062" lon="-3.052">
        <ele>94</ele>
        <time>2015-06-10T11:23:28Z</time>
      </trkpt>
      <trkpt lat="48.20621" lon="-3.05202">
        <ele>94</ele>
        <time>2015-06-10T11:23:30Z</time>
      </trkpt>
      <trkpt lat="48.20623" lon="-3.05205">
        <ele>94</ele>
        <time>2015-06-10T11:23:32Z</time>
      </trkpt>
      <trkpt lat="48.20625" lon="-3.05208">
        <ele>94</ele>
        <time>2015-06-10T11:23:34Z</time>
      </trkpt>
      <trkpt lat="48.20626" lon="-3.05211">
        <ele>94</ele>
        <time>2015-06-10T11:23:36Z</time>
      </trkpt>
      <trkpt lat="48.20628" lon="-3.05214">
        <ele>94</ele>
        <time>2015-06-10T11:23:38Z</time>
      </trkpt>
      <trkpt lat="48.20629" lon="-3.05216">
        <ele>94</ele>
        <time>2015-06-10T11:23:40Z</time>
      </trkpt>
      <trkpt lat="48.2063" lon="-3.05218">
        <ele>94</ele>
        <time>2015-06-10T11:23:42Z</time>
      </trkpt>
      <trkpt lat="48.20631" lon="-3.05221">
        <ele>94</ele>
        <time>2015-06-10T11:23:44Z</time>
      </trkpt>
      <trkpt lat="48.20631" lon="-3.05223">
        <ele>94</ele>
        <time>2015-06-10T11:23:46Z</time>
      </trkpt>
      <trkpt lat="48.20633" lon="-3.05228">
        <ele>94</ele>
        <time>2015-06-10T11:23:49Z</time>
      </trkpt>
      <trkpt lat="48.20634" lon="-3.0523">
        <ele>94</ele>
        <time>2015-06-10T11:23:51Z</time>
      </trkpt>
      <trkpt lat="48.20635" lon="-3.05232">
        <ele>94</ele>
        <time>2015-06-10T11:23:53Z</time>
      </trkpt>
      <trkpt lat="48.20636" lon="-3.05235">
        <ele>94</ele>
        <time>2015-06-10T11:23:55Z</time>
      </trkpt>
      <trkpt lat="48.20637" lon="-3.05238">
        <ele>94</ele>
        <time>2015-06-10T11:23:57Z</time>
      </trkpt>
      <trkpt lat="48.20639" lon="-3.05242">
        <ele>94</ele>
        <time>2015-06-10T11:24:00Z</time>
      </trkpt>
      <trkpt lat="48.20639" lon="-3.05245">
        <ele>94</ele>
        <time>2015-06-10T11:24:02Z</time>
      </trkpt>
      <trkpt lat="48.20641" lon="-3.0525">
        <ele>94</ele>
        <time>2015-06-10T11:24:05Z</time>
      </trkpt>
      <trkpt lat="48.20643" lon="-3.05254">
        <ele>94</ele>
        <time>2015-06-10T11:24:07Z</time>
      </trkpt>
      <trkpt lat="48.20644" lon="-3.05257">
        <ele>94</ele>
        <time>2015-06-10T11:24:09Z</time>
      </trkpt>
      <trkpt lat="48.20645" lon="-3.05259">
        <ele>94</ele>
        <time>2015-06-10T11:24:12Z</time>
      </trkpt>
      <trkpt lat="48.20646" lon="-3.05261">
        <ele>94</ele>
        <time>2015-06-10T11:24:14Z</time>
      </trkpt>
      <trkpt lat="48.20647" lon="-3.05262">
        <ele>94</ele>
        <time>2015-06-10T11:24:18Z</time>
      </trkpt>
      <trkpt lat="48.20649" lon="-3.05265">
        <ele>94</ele>
        <time>2015-06-10T11:24:20Z</time>
      </trkpt>
      <trkpt lat="48.2065" lon="-3.05268">
        <ele>94</ele>
        <time>2015-06-10T11:24:22Z</time>
      </trkpt>
      <trkpt lat="48.20651" lon="-3.05271">
        <ele>94</ele>
        <time>2015-06-10T11:24:24Z</time>
      </trkpt>
      <trkpt lat="48.20654" lon="-3.05274">
        <ele>94</ele>
        <time>2015-06-10T11:24:26Z</time>
      </trkpt>
      <trkpt lat="48.20655" lon="-3.05278">
        <ele>94</ele>
        <time>2015-06-10T11:24:28Z</time>
      </trkpt>
      <trkpt lat="48.20657" lon="-3.05282">
        <ele>94</ele>
        <time>2015-06-10T11:24:30Z</time>
      </trkpt>
      <trkpt lat="48.20658" lon="-3.05285">
        <ele>94</ele>
        <time>2015-06-10T11:24:32Z</time>
      </trkpt>
      <trkpt lat="48.20659" lon="-3.05289">
        <ele>94</ele>
        <time>2015-06-10T11:24:34Z</time>
      </trkpt>
      <trkpt lat="48.2066" lon="-3.05293">
        <ele>94</ele>
        <time>2015-06-10T11:24:36Z</time>
      </trkpt>
      <trkpt lat="48.20661" lon="-3.05296">
        <ele>94</ele>
        <time>2015-06-10T11:24:38Z</time>
      </trkpt>
      <trkpt lat="48.20663" lon="-3.05301">
        <ele>94</ele>
        <time>2015-06-10T11:24:41Z</time>
      </trkpt>
      <trkpt lat="48.20665" lon="-3.05305">
        <ele>94</ele>
        <time>2015-06-10T11:24:43Z</time>
      </trkpt>
      <trkpt lat="48.20666" lon="-3.05309">
        <ele>94</ele>
        <time>2015-06-10T11:24:45Z</time>
      </trkpt>
      <trkpt lat="48.20668" lon="-3.05312">
        <ele>94</ele>
        <time>2015-06-10T11:24:47Z</time>
      </trkpt>
      <trkpt lat="48.20668" lon="-3.05316">
        <ele>94</ele>
        <time>2015-06-10T11:24:49Z</time>
      </trkpt>
      <trkpt lat="48.2067" lon="-3.0532">
        <ele>94</ele>
        <time>2015-06-10T11:24:51Z</time>
      </trkpt>
      <trkpt lat="48.20671" lon="-3.05323">
        <ele>94</ele>
        <time>2015-06-10T11:24:53Z</time>
      </trkpt>
      <trkpt lat="48.20673" lon="-3.05328">
        <ele>94</ele>
        <time>2015-06-10T11:24:56Z</time>
      </trkpt>
      <trkpt lat="48.20674" lon="-3.05331">
        <ele>94</ele>
        <time>2015-06-10T11:24:58Z</time>
      </trkpt>
      <trkpt lat="48.20677" lon="-3.05336">
        <ele>94</ele>
        <time>2015-06-10T11:25:01Z</time>
      </trkpt>
      <trkpt lat="48.20678" lon="-3.05337">
        <ele>94</ele>
        <time>2015-06-10T11:25:06Z</time>
      </trkpt>
      <trkpt lat="48.20678" lon="-3.05335">
        <ele>94</ele>
        <time>2015-06-10T11:25:18Z</time>
      </trkpt>
      <trkpt lat="48.20679" lon="-3.05333">
        <ele>94</ele>
        <time>2015-06-10T11:25:21Z</time>
      </trkpt>
      <trkpt lat="48.2068" lon="-3.05335">
        <ele>94</ele>
        <time>2015-06-10T11:25:47Z</time>
      </trkpt>
      <trkpt lat="48.20681" lon="-3.05337">
        <ele>94</ele>
        <time>2015-06-10T11:25:58Z</time>
      </trkpt>
      <trkpt lat="48.20681" lon="-3.05339">
        <ele>94</ele>
        <time>2015-06-10T11:26:04Z</time>
      </trkpt>
      <trkpt lat="48.20681" lon="-3.0534">
        <ele>94</ele>
        <time>2015-06-10T11:26:24Z</time>
      </trkpt>
      <trkpt lat="48.20681" lon="-3.05343">
        <ele>94</ele>
        <time>2015-06-10T11:26:28Z</time>
      </trkpt>
      <trkpt lat="48.20681" lon="-3.05345">
        <ele>94</ele>
        <time>2015-06-10T11:26:30Z</time>
      </trkpt>
      <trkpt lat="48.20683" lon="-3.05347">
        <ele>94</ele>
        <time>2015-06-10T11:26:32Z</time>
      </trkpt>
      <trkpt lat="48.20685" lon="-3.0535">
        <ele>94</ele>
        <time>2015-06-10T11:26:34Z</time>
      </trkpt>
      <trkpt lat="48.20686" lon="-3.05353">
        <ele>94</ele>
        <time>2015-06-10T11:26:36Z</time>
      </trkpt>
      <trkpt lat="48.20687" lon="-3.05355">
        <ele>94</ele>
        <time>2015-06-10T11:26:38Z</time>
      </trkpt>
      <trkpt lat="48.20688" lon="-3.05358">
        <ele>94</ele>
        <time>2015-06-10T11:26:40Z</time>
      </trkpt>
      <trkpt lat="48.20689" lon="-3.05358">
        <ele>94</ele>
        <time>2015-06-10T11:26:45Z</time>
      </trkpt>
      <trkpt lat="48.2069" lon="-3.05358">
        <ele>94</ele>
        <time>2015-06-10T11:26:53Z</time>
      </trkpt>
      <trkpt lat="48.20689" lon="-3.0536">
        <ele>94</ele>
        <time>2015-06-10T11:27:00Z</time>
      </trkpt>
      <trkpt lat="48.20688" lon="-3.05362">
        <ele>93</ele>
        <time>2015-06-10T11:27:03Z</time>
      </trkpt>
      <trkpt lat="48.20687" lon="-3.05361">
        <ele>91</ele>
        <time>2015-06-10T11:27:13Z</time>
      </trkpt>
      <trkpt lat="48.20686" lon="-3.05359">
        <ele>91</ele>
        <time>2015-06-10T11:27:17Z</time>
      </trkpt>
      <trkpt lat="48.20685" lon="-3.05357">
        <ele>91</ele>
        <time>2015-06-10T11:27:20Z</time>
      </trkpt>
      <trkpt lat="48.20684" lon="-3.05356">
        <ele>91</ele>
        <time>2015-06-10T11:27:23Z</time>
      </trkpt>
      <trkpt lat="48.20683" lon="-3.05354">
        <ele>94</ele>
        <time>2015-06-10T11:27:27Z</time>
      </trkpt>
      <trkpt lat="48.20682" lon="-3.05352">
        <ele>98</ele>
        <time>2015-06-10T11:27:32Z</time>
      </trkpt>
      <trkpt lat="48.20681" lon="-3.0535">
        <ele>100</ele>
        <time>2015-06-10T11:27:39Z</time>
      </trkpt>
      <trkpt lat="48.20679" lon="-3.05346">
        <ele>102</ele>
        <time>2015-06-10T11:27:42Z</time>
      </trkpt>
      <trkpt lat="48.20678" lon="-3.05343">
        <ele>102</ele>
        <time>2015-06-10T11:27:44Z</time>
      </trkpt>
      <trkpt lat="48.20678" lon="-3.05341">
        <ele>102</ele>
        <time>2015-06-10T11:27:46Z</time>
      </trkpt>
      <trkpt lat="48.20679" lon="-3.05341">
        <ele>102</ele>
        <time>2015-06-10T11:27:50Z</time>
      </trkpt>
      <trkpt lat="48.2068" lon="-3.05343">
        <ele>102</ele>
        <time>2015-06-10T11:28:02Z</time>
      </trkpt>
      <trkpt lat="48.2068" lon="-3.05345">
        <ele>102</ele>
        <time>2015-06-10T11:28:06Z</time>
      </trkpt>
      <trkpt lat="48.20681" lon="-3.05346">
        <ele>101</ele>
        <time>2015-06-10T11:28:08Z</time>
      </trkpt>
      <trkpt lat="48.20683" lon="-3.0535">
        <ele>100</ele>
        <time>2015-06-10T11:28:10Z</time>
      </trkpt>
      <trkpt lat="48.20685" lon="-3.05355">
        <ele>99</ele>
        <time>2015-06-10T11:28:13Z</time>
      </trkpt>
      <trkpt lat="48.20687" lon="-3.05359">
        <ele>98</ele>
        <time>2015-06-10T11:28:15Z</time>
      </trkpt>
      <trkpt lat="48.20689" lon="-3.05362">
        <ele>98</ele>
        <time>2015-06-10T11:28:17Z</time>
      </trkpt>
      <trkpt lat="48.2069" lon="-3.05365">
        <ele>97</ele>
        <time>2015-06-10T11:28:19Z</time>
      </trkpt>
      <trkpt lat="48.20692" lon="-3.0537">
        <ele>97</ele>
        <time>2015-06-10T11:28:22Z</time>
      </trkpt>
      <trkpt lat="48.20694" lon="-3.05372">
        <ele>97</ele>
        <time>2015-06-10T11:28:24Z</time>
      </trkpt>
      <trkpt lat="48.20695" lon="-3.05374">
        <ele>97</ele>
        <time>2015-06-10T11:28:26Z</time>
      </trkpt>
      <trkpt lat="48.20695" lon="-3.05376">
        <ele>97</ele>
        <time>2015-06-10T11:28:30Z</time>
      </trkpt>
      <trkpt lat="48.20697" lon="-3.05377">
        <ele>97</ele>
        <time>2015-06-10T11:28:32Z</time>
      </trkpt>
      <trkpt lat="48.20696" lon="-3.05375">
        <ele>97</ele>
        <time>2015-06-10T11:28:38Z</time>
      </trkpt>
      <trkpt lat="48.20695" lon="-3.05373">
        <ele>97</ele>
        <time>2015-06-10T11:28:41Z</time>
      </trkpt>
      <trkpt lat="48.20695" lon="-3.05376">
        <ele>99</ele>
        <time>2015-06-10T11:28:46Z</time>
      </trkpt>
      <trkpt lat="48.20697" lon="-3.0538">
        <ele>100</ele>
        <time>2015-06-10T11:28:48Z</time>
      </trkpt>
      <trkpt lat="48.207" lon="-3.05383">
        <ele>100</ele>
        <time>2015-06-10T11:28:51Z</time>
      </trkpt>
      <trkpt lat="48.20701" lon="-3.05383">
        <ele>100</ele>
        <time>2015-06-10T11:28:57Z</time>
      </trkpt>
      <trkpt lat="48.20703" lon="-3.05385">
        <ele>100</ele>
        <time>2015-06-10T11:29:00Z</time>
      </trkpt>
      <trkpt lat="48.20702" lon="-3.05384">
        <ele>100</ele>
        <time>2015-06-10T11:29:10Z</time>
      </trkpt>
      <trkpt lat="48.20703" lon="-3.05384">
        <ele>100</ele>
        <time>2015-06-10T11:29:16Z</time>
      </trkpt>
      <trkpt lat="48.20702" lon="-3.05385">
        <ele>99</ele>
        <time>2015-06-10T11:29:25Z</time>
      </trkpt>
      <trkpt lat="48.20701" lon="-3.05386">
        <ele>99</ele>
        <time>2015-06-10T11:29:33Z</time>
      </trkpt>
      <trkpt lat="48.20701" lon="-3.05388">
        <ele>99</ele>
        <time>2015-06-10T11:29:38Z</time>
      </trkpt>
      <trkpt lat="48.207" lon="-3.05389">
        <ele>99</ele>
        <time>2015-06-10T11:29:44Z</time>
      </trkpt>
      <trkpt lat="48.20699" lon="-3.05389">
        <ele>99</ele>
        <time>2015-06-10T11:29:51Z</time>
      </trkpt>
      <trkpt lat="48.20697" lon="-3.05389">
        <ele>99</ele>
        <time>2015-06-10T11:29:53Z</time>
      </trkpt>
      <trkpt lat="48.20699" lon="-3.0539">
        <ele>104</ele>
        <time>2015-06-10T11:30:03Z</time>
      </trkpt>
      <trkpt lat="48.207" lon="-3.05389">
        <ele>104</ele>
        <time>2015-06-10T11:30:08Z</time>
      </trkpt>
      <trkpt lat="48.20701" lon="-3.0539">
        <ele>102</ele>
        <time>2015-06-10T11:30:13Z</time>
      </trkpt>
      <trkpt lat="48.20704" lon="-3.05392">
        <ele>99</ele>
        <time>2015-06-10T11:30:18Z</time>
      </trkpt>
      <trkpt lat="48.20706" lon="-3.05393">
        <ele>99</ele>
        <time>2015-06-10T11:30:25Z</time>
      </trkpt>
      <trkpt lat="48.20707" lon="-3.05393">
        <ele>97</ele>
        <time>2015-06-10T11:30:29Z</time>
      </trkpt>
      <trkpt lat="48.20708" lon="-3.05393">
        <ele>96</ele>
        <time>2015-06-10T11:30:31Z</time>
      </trkpt>
      <trkpt lat="48.20707" lon="-3.05393">
        <ele>95</ele>
        <time>2015-06-10T11:30:33Z</time>
      </trkpt>
      <trkpt lat="48.20705" lon="-3.05392">
        <ele>95</ele>
        <time>2015-06-10T11:30:35Z</time>
      </trkpt>
      <trkpt lat="48.20706" lon="-3.05394">
        <ele>95</ele>
        <time>2015-06-10T11:30:44Z</time>
      </trkpt>
      <trkpt lat="48.20706" lon="-3.05397">
        <ele>95</ele>
        <time>2015-06-10T11:30:46Z</time>
      </trkpt>
      <trkpt lat="48.20707" lon="-3.05401">
        <ele>97</ele>
        <time>2015-06-10T11:30:49Z</time>
      </trkpt>
      <trkpt lat="48.20709" lon="-3.05405">
        <ele>100</ele>
        <time>2015-06-10T11:30:52Z</time>
      </trkpt>
      <trkpt lat="48.2071" lon="-3.05408">
        <ele>100</ele>
        <time>2015-06-10T11:30:54Z</time>
      </trkpt>
      <trkpt lat="48.2071" lon="-3.05412">
        <ele>101</ele>
        <time>2015-06-10T11:30:56Z</time>
      </trkpt>
      <trkpt lat="48.20712" lon="-3.05416">
        <ele>102</ele>
        <time>2015-06-10T11:30:59Z</time>
      </trkpt>
      <trkpt lat="48.20715" lon="-3.05421">
        <ele>103</ele>
        <time>2015-06-10T11:31:01Z</time>
      </trkpt>
      <trkpt lat="48.20715" lon="-3.05426">
        <ele>104</ele>
        <time>2015-06-10T11:31:04Z</time>
      </trkpt>
      <trkpt lat="48.20716" lon="-3.0543">
        <ele>105</ele>
        <time>2015-06-10T11:31:06Z</time>
      </trkpt>
      <trkpt lat="48.20717" lon="-3.05434">
        <ele>106</ele>
        <time>2015-06-10T11:31:08Z</time>
      </trkpt>
      <trkpt lat="48.20719" lon="-3.05439">
        <ele>107</ele>
        <time>2015-06-10T11:31:11Z</time>
      </trkpt>
      <trkpt lat="48.20721" lon="-3.05444">
        <ele>109</ele>
        <time>2015-06-10T11:31:13Z</time>
      </trkpt>
      <trkpt lat="48.20722" lon="-3.05448">
        <ele>110</ele>
        <time>2015-06-10T11:31:15Z</time>
      </trkpt>
      <trkpt lat="48.20723" lon="-3.05452">
        <ele>110</ele>
        <time>2015-06-10T11:31:17Z</time>
      </trkpt>
      <trkpt lat="48.20725" lon="-3.05457">
        <ele>110</ele>
        <time>2015-06-10T11:31:19Z</time>
      </trkpt>
      <trkpt lat="48.20726" lon="-3.05462">
        <ele>110</ele>
        <time>2015-06-10T11:31:21Z</time>
      </trkpt>
      <trkpt lat="48.20725" lon="-3.05466">
        <ele>110</ele>
        <time>2015-06-10T11:31:23Z</time>
      </trkpt>
      <trkpt lat="48.20725" lon="-3.0547">
        <ele>111</ele>
        <time>2015-06-10T11:31:25Z</time>
      </trkpt>
      <trkpt lat="48.20726" lon="-3.05476">
        <ele>111</ele>
        <time>2015-06-10T11:31:27Z</time>
      </trkpt>
      <trkpt lat="48.20727" lon="-3.0548">
        <ele>111</ele>
        <time>2015-06-10T11:31:29Z</time>
      </trkpt>
      <trkpt lat="48.20728" lon="-3.05485">
        <ele>111</ele>
        <time>2015-06-10T11:31:31Z</time>
      </trkpt>
      <trkpt lat="48.20729" lon="-3.05489">
        <ele>111</ele>
        <time>2015-06-10T11:31:33Z</time>
      </trkpt>
      <trkpt lat="48.20729" lon="-3.05492">
        <ele>111</ele>
        <time>2015-06-10T11:31:35Z</time>
      </trkpt>
      <trkpt lat="48.20731" lon="-3.05497">
        <ele>111</ele>
        <time>2015-06-10T11:31:37Z</time>
      </trkpt>
      <trkpt lat="48.20731" lon="-3.05499">
        <ele>111</ele>
        <time>2015-06-10T11:31:39Z</time>
      </trkpt>
      <trkpt lat="48.20732" lon="-3.05501">
        <ele>111</ele>
        <time>2015-06-10T11:31:41Z</time>
      </trkpt>
      <trkpt lat="48.20732" lon="-3.05503">
        <ele>111</ele>
        <time>2015-06-10T11:31:43Z</time>
      </trkpt>
      <trkpt lat="48.20732" lon="-3.05505">
        <ele>110</ele>
        <time>2015-06-10T11:31:45Z</time>
      </trkpt>
      <trkpt lat="48.20733" lon="-3.05507">
        <ele>110</ele>
        <time>2015-06-10T11:31:50Z</time>
      </trkpt>
      <trkpt lat="48.20734" lon="-3.05509">
        <ele>108</ele>
        <time>2015-06-10T11:31:56Z</time>
      </trkpt>
      <trkpt lat="48.20734" lon="-3.05512">
        <ele>107</ele>
        <time>2015-06-10T11:31:58Z</time>
      </trkpt>
      <trkpt lat="48.20734" lon="-3.05516">
        <ele>106</ele>
        <time>2015-06-10T11:32:00Z</time>
      </trkpt>
      <trkpt lat="48.20735" lon="-3.05521">
        <ele>105</ele>
        <time>2015-06-10T11:32:03Z</time>
      </trkpt>
      <trkpt lat="48.20736" lon="-3.05524">
        <ele>104</ele>
        <time>2015-06-10T11:32:05Z</time>
      </trkpt>
      <trkpt lat="48.20737" lon="-3.05528">
        <ele>104</ele>
        <time>2015-06-10T11:32:07Z</time>
      </trkpt>
      <trkpt lat="48.20736" lon="-3.05531">
        <ele>103</ele>
        <time>2015-06-10T11:32:09Z</time>
      </trkpt>
      <trkpt lat="48.20737" lon="-3.05535">
        <ele>102</ele>
        <time>2015-06-10T11:32:11Z</time>
      </trkpt>
      <trkpt lat="48.20739" lon="-3.05539">
        <ele>101</ele>
        <time>2015-06-10T11:32:13Z</time>
      </trkpt>
      <trkpt lat="48.2074" lon="-3.05543">
        <ele>99</ele>
        <time>2015-06-10T11:32:15Z</time>
      </trkpt>
      <trkpt lat="48.2074" lon="-3.05547">
        <ele>97</ele>
        <time>2015-06-10T11:32:17Z</time>
      </trkpt>
      <trkpt lat="48.20741" lon="-3.05551">
        <ele>97</ele>
        <time>2015-06-10T11:32:19Z</time>
      </trkpt>
      <trkpt lat="48.20741" lon="-3.05554">
        <ele>96</ele>
        <time>2015-06-10T11:32:21Z</time>
      </trkpt>
      <trkpt lat="48.20741" lon="-3.05556">
        <ele>96</ele>
        <time>2015-06-10T11:32:23Z</time>
      </trkpt>
      <trkpt lat="48.2074" lon="-3.05556">
        <ele>95</ele>
        <time>2015-06-10T11:32:26Z</time>
      </trkpt>
      <trkpt lat="48.20739" lon="-3.0556">
        <ele>95</ele>
        <time>2015-06-10T11:32:28Z</time>
      </trkpt>
      <trkpt lat="48.20738" lon="-3.05563">
        <ele>95</ele>
        <time>2015-06-10T11:32:30Z</time>
      </trkpt>
      <trkpt lat="48.20738" lon="-3.05568">
        <ele>95</ele>
        <time>2015-06-10T11:32:32Z</time>
      </trkpt>
      <trkpt lat="48.20737" lon="-3.05572">
        <ele>95</ele>
        <time>2015-06-10T11:32:34Z</time>
      </trkpt>
      <trkpt lat="48.20736" lon="-3.05576">
        <ele>95</ele>
        <time>2015-06-10T11:32:36Z</time>
      </trkpt>
      <trkpt lat="48.20736" lon="-3.0558">
        <ele>95</ele>
        <time>2015-06-10T11:32:38Z</time>
      </trkpt>
      <trkpt lat="48.20736" lon="-3.05582">
        <ele>95</ele>
        <time>2015-06-10T11:32:40Z</time>
      </trkpt>
      <trkpt lat="48.20736" lon="-3.05584">
        <ele>94</ele>
        <time>2015-06-10T11:32:42Z</time>
      </trkpt>
      <trkpt lat="48.20736" lon="-3.05588">
        <ele>94</ele>
        <time>2015-06-10T11:32:44Z</time>
      </trkpt>
      <trkpt lat="48.20735" lon="-3.05591">
        <ele>93</ele>
        <time>2015-06-10T11:32:46Z</time>
      </trkpt>
      <trkpt lat="48.20734" lon="-3.05595">
        <ele>93</ele>
        <time>2015-06-10T11:32:48Z</time>
      </trkpt>
      <trkpt lat="48.20734" lon="-3.05599">
        <ele>93</ele>
        <time>2015-06-10T11:32:50Z</time>
      </trkpt>
      <trkpt lat="48.20733" lon="-3.05604">
        <ele>92</ele>
        <time>2015-06-10T11:32:52Z</time>
      </trkpt>
      <trkpt lat="48.20732" lon="-3.05607">
        <ele>92</ele>
        <time>2015-06-10T11:32:54Z</time>
      </trkpt>
      <trkpt lat="48.20731" lon="-3.05611">
        <ele>92</ele>
        <time>2015-06-10T11:32:56Z</time>
      </trkpt>
      <trkpt lat="48.20731" lon="-3.05616">
        <ele>91</ele>
        <time>2015-06-10T11:32:58Z</time>
      </trkpt>
      <trkpt lat="48.20729" lon="-3.0562">
        <ele>91</ele>
        <time>2015-06-10T11:33:00Z</time>
      </trkpt>
      <trkpt lat="48.20728" lon="-3.05625">
        <ele>91</ele>
        <time>2015-06-10T11:33:02Z</time>
      </trkpt>
      <trkpt lat="48.20727" lon="-3.0563">
        <ele>91</ele>
        <time>2015-06-10T11:33:04Z</time>
      </trkpt>
      <trkpt lat="48.20726" lon="-3.05632">
        <ele>91</ele>
        <time>2015-06-10T11:33:12Z</time>
      </trkpt>
      <trkpt lat="48.20726" lon="-3.05635">
        <ele>91</ele>
        <time>2015-06-10T11:33:14Z</time>
      </trkpt>
      <trkpt lat="48.20725" lon="-3.05637">
        <ele>91</ele>
        <time>2015-06-10T11:33:16Z</time>
      </trkpt>
      <trkpt lat="48.20725" lon="-3.05639">
        <ele>91</ele>
        <time>2015-06-10T11:33:18Z</time>
      </trkpt>
      <trkpt lat="48.20723" lon="-3.05643">
        <ele>91</ele>
        <time>2015-06-10T11:33:23Z</time>
      </trkpt>
      <trkpt lat="48.20723" lon="-3.05646">
        <ele>91</ele>
        <time>2015-06-10T11:33:25Z</time>
      </trkpt>
      <trkpt lat="48.20722" lon="-3.0565">
        <ele>91</ele>
        <time>2015-06-10T11:33:28Z</time>
      </trkpt>
      <trkpt lat="48.20722" lon="-3.05653">
        <ele>91</ele>
        <time>2015-06-10T11:33:30Z</time>
      </trkpt>
      <trkpt lat="48.20721" lon="-3.05657">
        <ele>91</ele>
        <time>2015-06-10T11:33:32Z</time>
      </trkpt>
      <trkpt lat="48.2072" lon="-3.05662">
        <ele>91</ele>
        <time>2015-06-10T11:33:35Z</time>
      </trkpt>
      <trkpt lat="48.20718" lon="-3.05664">
        <ele>91</ele>
        <time>2015-06-10T11:33:37Z</time>
      </trkpt>
      <trkpt lat="48.20715" lon="-3.05666">
        <ele>91</ele>
        <time>2015-06-10T11:33:40Z</time>
      </trkpt>
      <trkpt lat="48.20715" lon="-3.05669">
        <ele>91</ele>
        <time>2015-06-10T11:33:46Z</time>
      </trkpt>
      <trkpt lat="48.20714" lon="-3.05673">
        <ele>90</ele>
        <time>2015-06-10T11:33:48Z</time>
      </trkpt>
      <trkpt lat="48.20713" lon="-3.05676">
        <ele>90</ele>
        <time>2015-06-10T11:33:50Z</time>
      </trkpt>
      <trkpt lat="48.20711" lon="-3.0568">
        <ele>90</ele>
        <time>2015-06-10T11:33:52Z</time>
      </trkpt>
      <trkpt lat="48.2071" lon="-3.05683">
        <ele>90</ele>
        <time>2015-06-10T11:33:55Z</time>
      </trkpt>
      <trkpt lat="48.20709" lon="-3.05686">
        <ele>90</ele>
        <time>2015-06-10T11:33:58Z</time>
      </trkpt>
      <trkpt lat="48.20708" lon="-3.05689">
        <ele>89</ele>
        <time>2015-06-10T11:34:00Z</time>
      </trkpt>
      <trkpt lat="48.20707" lon="-3.05693">
        <ele>89</ele>
        <time>2015-06-10T11:34:02Z</time>
      </trkpt>
      <trkpt lat="48.20705" lon="-3.05696">
        <ele>89</ele>
        <time>2015-06-10T11:34:04Z</time>
      </trkpt>
      <trkpt lat="48.20703" lon="-3.05699">
        <ele>88</ele>
        <time>2015-06-10T11:34:06Z</time>
      </trkpt>
      <trkpt lat="48.20702" lon="-3.05703">
        <ele>88</ele>
        <time>2015-06-10T11:34:08Z</time>
      </trkpt>
      <trkpt lat="48.207" lon="-3.05707">
        <ele>88</ele>
        <time>2015-06-10T11:34:10Z</time>
      </trkpt>
      <trkpt lat="48.20699" lon="-3.0571">
        <ele>88</ele>
        <time>2015-06-10T11:34:12Z</time>
      </trkpt>
      <trkpt lat="48.20697" lon="-3.05714">
        <ele>87</ele>
        <time>2015-06-10T11:34:14Z</time>
      </trkpt>
      <trkpt lat="48.20696" lon="-3.05718">
        <ele>87</ele>
        <time>2015-06-10T11:34:16Z</time>
      </trkpt>
      <trkpt lat="48.20695" lon="-3.05721">
        <ele>87</ele>
        <time>2015-06-10T11:34:18Z</time>
      </trkpt>
      <trkpt lat="48.20693" lon="-3.05727">
        <ele>87</ele>
        <time>2015-06-10T11:34:20Z</time>
      </trkpt>
      <trkpt lat="48.20692" lon="-3.0573">
        <ele>87</ele>
        <time>2015-06-10T11:34:22Z</time>
      </trkpt>
      <trkpt lat="48.20691" lon="-3.05733">
        <ele>86</ele>
        <time>2015-06-10T11:34:24Z</time>
      </trkpt>
      <trkpt lat="48.20689" lon="-3.05736">
        <ele>86</ele>
        <time>2015-06-10T11:34:26Z</time>
      </trkpt>
      <trkpt lat="48.20687" lon="-3.0574">
        <ele>86</ele>
        <time>2015-06-10T11:34:28Z</time>
      </trkpt>
      <trkpt lat="48.20685" lon="-3.05744">
        <ele>85</ele>
        <time>2015-06-10T11:34:30Z</time>
      </trkpt>
      <trkpt lat="48.20684" lon="-3.05748">
        <ele>85</ele>
        <time>2015-06-10T11:34:32Z</time>
      </trkpt>
      <trkpt lat="48.20683" lon="-3.05753">
        <ele>85</ele>
        <time>2015-06-10T11:34:34Z</time>
      </trkpt>
      <trkpt lat="48.20681" lon="-3.05757">
        <ele>85</ele>
        <time>2015-06-10T11:34:36Z</time>
      </trkpt>
      <trkpt lat="48.2068" lon="-3.05762">
        <ele>85</ele>
        <time>2015-06-10T11:34:38Z</time>
      </trkpt>
      <trkpt lat="48.20678" lon="-3.05765">
        <ele>85</ele>
        <time>2015-06-10T11:34:40Z</time>
      </trkpt>
      <trkpt lat="48.20676" lon="-3.05769">
        <ele>85</ele>
        <time>2015-06-10T11:34:43Z</time>
      </trkpt>
      <trkpt lat="48.20674" lon="-3.05773">
        <ele>85</ele>
        <time>2015-06-10T11:34:45Z</time>
      </trkpt>
      <trkpt lat="48.20673" lon="-3.05777">
        <ele>85</ele>
        <time>2015-06-10T11:34:47Z</time>
      </trkpt>
      <trkpt lat="48.20671" lon="-3.05783">
        <ele>85</ele>
        <time>2015-06-10T11:34:49Z</time>
      </trkpt>
      <trkpt lat="48.2067" lon="-3.05787">
        <ele>85</ele>
        <time>2015-06-10T11:34:51Z</time>
      </trkpt>
      <trkpt lat="48.20668" lon="-3.05792">
        <ele>85</ele>
        <time>2015-06-10T11:34:54Z</time>
      </trkpt>
      <trkpt lat="48.20667" lon="-3.05795">
        <ele>85</ele>
        <time>2015-06-10T11:34:56Z</time>
      </trkpt>
      <trkpt lat="48.20665" lon="-3.05801">
        <ele>85</ele>
        <time>2015-06-10T11:34:58Z</time>
      </trkpt>
      <trkpt lat="48.20663" lon="-3.05805">
        <ele>85</ele>
        <time>2015-06-10T11:35:00Z</time>
      </trkpt>
      <trkpt lat="48.20662" lon="-3.05809">
        <ele>85</ele>
        <time>2015-06-10T11:35:03Z</time>
      </trkpt>
      <trkpt lat="48.20661" lon="-3.05812">
        <ele>85</ele>
        <time>2015-06-10T11:35:05Z</time>
      </trkpt>
      <trkpt lat="48.20659" lon="-3.05816">
        <ele>85</ele>
        <time>2015-06-10T11:35:07Z</time>
      </trkpt>
      <trkpt lat="48.20658" lon="-3.0582">
        <ele>85</ele>
        <time>2015-06-10T11:35:09Z</time>
      </trkpt>
      <trkpt lat="48.20657" lon="-3.05823">
        <ele>85</ele>
        <time>2015-06-10T11:35:11Z</time>
      </trkpt>
      <trkpt lat="48.20655" lon="-3.05826">
        <ele>85</ele>
        <time>2015-06-10T11:35:13Z</time>
      </trkpt>
      <trkpt lat="48.20653" lon="-3.05831">
        <ele>85</ele>
        <time>2015-06-10T11:35:16Z</time>
      </trkpt>
      <trkpt lat="48.20652" lon="-3.05834">
        <ele>85</ele>
        <time>2015-06-10T11:35:18Z</time>
      </trkpt>
      <trkpt lat="48.20651" lon="-3.05837">
        <ele>85</ele>
        <time>2015-06-10T11:35:20Z</time>
      </trkpt>
      <trkpt lat="48.20649" lon="-3.05842">
        <ele>85</ele>
        <time>2015-06-10T11:35:22Z</time>
      </trkpt>
      <trkpt lat="48.20648" lon="-3.05846">
        <ele>85</ele>
        <time>2015-06-10T11:35:24Z</time>
      </trkpt>
      <trkpt lat="48.20647" lon="-3.0585">
        <ele>85</ele>
        <time>2015-06-10T11:35:26Z</time>
      </trkpt>
      <trkpt lat="48.20645" lon="-3.0585">
        <ele>85</ele>
        <time>2015-06-10T11:35:29Z</time>
      </trkpt>
      <trkpt lat="48.20644" lon="-3.05853">
        <ele>85</ele>
        <time>2015-06-10T11:35:35Z</time>
      </trkpt>
      <trkpt lat="48.20642" lon="-3.05858">
        <ele>85</ele>
        <time>2015-06-10T11:35:38Z</time>
      </trkpt>
      <trkpt lat="48.20641" lon="-3.05862">
        <ele>85</ele>
        <time>2015-06-10T11:35:40Z</time>
      </trkpt>
      <trkpt lat="48.2064" lon="-3.05866">
        <ele>85</ele>
        <time>2015-06-10T11:35:42Z</time>
      </trkpt>
      <trkpt lat="48.20639" lon="-3.0587">
        <ele>85</ele>
        <time>2015-06-10T11:35:44Z</time>
      </trkpt>
      <trkpt lat="48.20637" lon="-3.05874">
        <ele>85</ele>
        <time>2015-06-10T11:35:46Z</time>
      </trkpt>
      <trkpt lat="48.20636" lon="-3.05878">
        <ele>85</ele>
        <time>2015-06-10T11:35:48Z</time>
      </trkpt>
      <trkpt lat="48.20634" lon="-3.05882">
        <ele>85</ele>
        <time>2015-06-10T11:35:50Z</time>
      </trkpt>
      <trkpt lat="48.20633" lon="-3.05885">
        <ele>85</ele>
        <time>2015-06-10T11:35:52Z</time>
      </trkpt>
      <trkpt lat="48.20631" lon="-3.05889">
        <ele>85</ele>
        <time>2015-06-10T11:35:54Z</time>
      </trkpt>
      <trkpt lat="48.2063" lon="-3.05893">
        <ele>85</ele>
        <time>2015-06-10T11:35:56Z</time>
      </trkpt>
      <trkpt lat="48.20628" lon="-3.05896">
        <ele>86</ele>
        <time>2015-06-10T11:35:58Z</time>
      </trkpt>
      <trkpt lat="48.20627" lon="-3.059">
        <ele>86</ele>
        <time>2015-06-10T11:36:00Z</time>
      </trkpt>
      <trkpt lat="48.20626" lon="-3.05904">
        <ele>86</ele>
        <time>2015-06-10T11:36:02Z</time>
      </trkpt>
      <trkpt lat="48.20625" lon="-3.05908">
        <ele>86</ele>
        <time>2015-06-10T11:36:04Z</time>
      </trkpt>
      <trkpt lat="48.20623" lon="-3.05912">
        <ele>86</ele>
        <time>2015-06-10T11:36:06Z</time>
      </trkpt>
      <trkpt lat="48.20622" lon="-3.05916">
        <ele>87</ele>
        <time>2015-06-10T11:36:08Z</time>
      </trkpt>
      <trkpt lat="48.20621" lon="-3.05919">
        <ele>87</ele>
        <time>2015-06-10T11:36:10Z</time>
      </trkpt>
      <trkpt lat="48.2062" lon="-3.05923">
        <ele>87</ele>
        <time>2015-06-10T11:36:12Z</time>
      </trkpt>
      <trkpt lat="48.20619" lon="-3.05927">
        <ele>87</ele>
        <time>2015-06-10T11:36:14Z</time>
      </trkpt>
      <trkpt lat="48.20618" lon="-3.0593">
        <ele>88</ele>
        <time>2015-06-10T11:36:16Z</time>
      </trkpt>
      <trkpt lat="48.20616" lon="-3.05935">
        <ele>88</ele>
        <time>2015-06-10T11:36:19Z</time>
      </trkpt>
      <trkpt lat="48.20615" lon="-3.0594">
        <ele>88</ele>
        <time>2015-06-10T11:36:22Z</time>
      </trkpt>
      <trkpt lat="48.20614" lon="-3.05943">
        <ele>88</ele>
        <time>2015-06-10T11:36:24Z</time>
      </trkpt>
      <trkpt lat="48.20614" lon="-3.05946">
        <ele>88</ele>
        <time>2015-06-10T11:36:26Z</time>
      </trkpt>
      <trkpt lat="48.20614" lon="-3.05948">
        <ele>88</ele>
        <time>2015-06-10T11:36:28Z</time>
      </trkpt>
      <trkpt lat="48.20616" lon="-3.05951">
        <ele>89</ele>
        <time>2015-06-10T11:36:39Z</time>
      </trkpt>
      <trkpt lat="48.20617" lon="-3.05951">
        <ele>90</ele>
        <time>2015-06-10T11:36:59Z</time>
      </trkpt>
      <trkpt lat="48.20619" lon="-3.05953">
        <ele>90</ele>
        <time>2015-06-10T11:37:01Z</time>
      </trkpt>
      <trkpt lat="48.2062" lon="-3.05954">
        <ele>90</ele>
        <time>2015-06-10T11:37:03Z</time>
      </trkpt>
      <trkpt lat="48.20622" lon="-3.05956">
        <ele>90</ele>
        <time>2015-06-10T11:37:07Z</time>
      </trkpt>
      <trkpt lat="48.20623" lon="-3.05958">
        <ele>90</ele>
        <time>2015-06-10T11:37:10Z</time>
      </trkpt>
      <trkpt lat="48.20624" lon="-3.05959">
        <ele>91</ele>
        <time>2015-06-10T11:37:14Z</time>
      </trkpt>
      <trkpt lat="48.20626" lon="-3.0596">
        <ele>91</ele>
        <time>2015-06-10T11:37:31Z</time>
      </trkpt>
      <trkpt lat="48.20627" lon="-3.05961">
        <ele>91</ele>
        <time>2015-06-10T11:37:33Z</time>
      </trkpt>
      <trkpt lat="48.20628" lon="-3.05962">
        <ele>91</ele>
        <time>2015-06-10T11:37:35Z</time>
      </trkpt>
      <trkpt lat="48.2063" lon="-3.05964">
        <ele>92</ele>
        <time>2015-06-10T11:37:38Z</time>
      </trkpt>
      <trkpt lat="48.20631" lon="-3.05966">
        <ele>92</ele>
        <time>2015-06-10T11:37:40Z</time>
      </trkpt>
      <trkpt lat="48.20631" lon="-3.05968">
        <ele>93</ele>
        <time>2015-06-10T11:37:42Z</time>
      </trkpt>
      <trkpt lat="48.20631" lon="-3.05971">
        <ele>93</ele>
        <time>2015-06-10T11:37:44Z</time>
      </trkpt>
      <trkpt lat="48.20631" lon="-3.05975">
        <ele>93</ele>
        <time>2015-06-10T11:37:47Z</time>
      </trkpt>
      <trkpt lat="48.20631" lon="-3.05976">
        <ele>93</ele>
        <time>2015-06-10T11:38:30Z</time>
      </trkpt>
      <trkpt lat="48.20631" lon="-3.05978">
        <ele>94</ele>
        <time>2015-06-10T11:38:58Z</time>
      </trkpt>
      <trkpt lat="48.20632" lon="-3.05983">
        <ele>94</ele>
        <time>2015-06-10T11:39:14Z</time>
      </trkpt>
      <trkpt lat="48.20632" lon="-3.05985">
        <ele>94</ele>
        <time>2015-06-10T11:39:24Z</time>
      </trkpt>
      <trkpt lat="48.20632" lon="-3.05988">
        <ele>94</ele>
        <time>2015-06-10T11:39:26Z</time>
      </trkpt>
      <trkpt lat="48.20632" lon="-3.05992">
        <ele>94</ele>
        <time>2015-06-10T11:39:28Z</time>
      </trkpt>
      <trkpt lat="48.20632" lon="-3.05995">
        <ele>94</ele>
        <time>2015-06-10T11:39:35Z</time>
      </trkpt>
      <trkpt lat="48.20632" lon="-3.05997">
        <ele>94</ele>
        <time>2015-06-10T11:39:38Z</time>
      </trkpt>
      <trkpt lat="48.20632" lon="-3.06">
        <ele>94</ele>
        <time>2015-06-10T11:39:40Z</time>
      </trkpt>
      <trkpt lat="48.20632" lon="-3.06005">
        <ele>94</ele>
        <time>2015-06-10T11:39:43Z</time>
      </trkpt>
      <trkpt lat="48.20632" lon="-3.06006">
        <ele>94</ele>
        <time>2015-06-10T11:39:46Z</time>
      </trkpt>
      <trkpt lat="48.20632" lon="-3.06009">
        <ele>94</ele>
        <time>2015-06-10T11:39:48Z</time>
      </trkpt>
      <trkpt lat="48.20631" lon="-3.0601">
        <ele>94</ele>
        <time>2015-06-10T11:39:50Z</time>
      </trkpt>
      <trkpt lat="48.20633" lon="-3.0601">
        <ele>94</ele>
        <time>2015-06-10T11:40:08Z</time>
      </trkpt>
      <trkpt lat="48.20633" lon="-3.06013">
        <ele>94</ele>
        <time>2015-06-10T11:40:13Z</time>
      </trkpt>
      <trkpt lat="48.20634" lon="-3.06017">
        <ele>94</ele>
        <time>2015-06-10T11:40:16Z</time>
      </trkpt>
      <trkpt lat="48.20633" lon="-3.06021">
        <ele>94</ele>
        <time>2015-06-10T11:40:19Z</time>
      </trkpt>
      <trkpt lat="48.20633" lon="-3.06024">
        <ele>94</ele>
        <time>2015-06-10T11:40:21Z</time>
      </trkpt>
      <trkpt lat="48.20634" lon="-3.06026">
        <ele>94</ele>
        <time>2015-06-10T11:40:23Z</time>
      </trkpt>
      <trkpt lat="48.20634" lon="-3.06029">
        <ele>94</ele>
        <time>2015-06-10T11:40:25Z</time>
      </trkpt>
      <trkpt lat="48.20635" lon="-3.06032">
        <ele>94</ele>
        <time>2015-06-10T11:40:27Z</time>
      </trkpt>
      <trkpt lat="48.20636" lon="-3.06035">
        <ele>94</ele>
        <time>2015-06-10T11:40:29Z</time>
      </trkpt>
      <trkpt lat="48.20637" lon="-3.06038">
        <ele>94</ele>
        <time>2015-06-10T11:40:31Z</time>
      </trkpt>
      <trkpt lat="48.20636" lon="-3.06042">
        <ele>94</ele>
        <time>2015-06-10T11:40:33Z</time>
      </trkpt>
      <trkpt lat="48.20635" lon="-3.06045">
        <ele>94</ele>
        <time>2015-06-10T11:40:35Z</time>
      </trkpt>
      <trkpt lat="48.20633" lon="-3.06048">
        <ele>94</ele>
        <time>2015-06-10T11:40:37Z</time>
      </trkpt>
      <trkpt lat="48.20631" lon="-3.0605">
        <ele>94</ele>
        <time>2015-06-10T11:40:39Z</time>
      </trkpt>
      <trkpt lat="48.2063" lon="-3.06051">
        <ele>94</ele>
        <time>2015-06-10T11:40:41Z</time>
      </trkpt>
      <trkpt lat="48.20628" lon="-3.06052">
        <ele>94</ele>
        <time>2015-06-10T11:40:48Z</time>
      </trkpt>
      <trkpt lat="48.20626" lon="-3.06052">
        <ele>94</ele>
        <time>2015-06-10T11:40:51Z</time>
      </trkpt>
      <trkpt lat="48.20625" lon="-3.06054">
        <ele>94</ele>
        <time>2015-06-10T11:40:53Z</time>
      </trkpt>
      <trkpt lat="48.20624" lon="-3.06057">
        <ele>94</ele>
        <time>2015-06-10T11:40:55Z</time>
      </trkpt>
      <trkpt lat="48.20622" lon="-3.0606">
        <ele>94</ele>
        <time>2015-06-10T11:40:57Z</time>
      </trkpt>
      <trkpt lat="48.20621" lon="-3.06058">
        <ele>94</ele>
        <time>2015-06-10T11:41:01Z</time>
      </trkpt>
      <trkpt lat="48.20621" lon="-3.06056">
        <ele>94</ele>
        <time>2015-06-10T11:41:03Z</time>
      </trkpt>
      <trkpt lat="48.2062" lon="-3.06053">
        <ele>94</ele>
        <time>2015-06-10T11:41:05Z</time>
      </trkpt>
      <trkpt lat="48.20618" lon="-3.06051">
        <ele>94</ele>
        <time>2015-06-10T11:41:07Z</time>
      </trkpt>
      <trkpt lat="48.20618" lon="-3.06049">
        <ele>94</ele>
        <time>2015-06-10T11:41:09Z</time>
      </trkpt>
      <trkpt lat="48.20617" lon="-3.06047">
        <ele>94</ele>
        <time>2015-06-10T11:41:13Z</time>
      </trkpt>
      <trkpt lat="48.20615" lon="-3.06046">
        <ele>94</ele>
        <time>2015-06-10T11:41:15Z</time>
      </trkpt>
      <trkpt lat="48.20613" lon="-3.06041">
        <ele>94</ele>
        <time>2015-06-10T11:41:19Z</time>
      </trkpt>
      <trkpt lat="48.2061" lon="-3.0604">
        <ele>94</ele>
        <time>2015-06-10T11:41:21Z</time>
      </trkpt>
      <trkpt lat="48.20607" lon="-3.06038">
        <ele>94</ele>
        <time>2015-06-10T11:41:25Z</time>
      </trkpt>
      <trkpt lat="48.20605" lon="-3.06038">
        <ele>94</ele>
        <time>2015-06-10T11:42:25Z</time>
      </trkpt>
      <trkpt lat="48.20604" lon="-3.06036">
        <ele>94</ele>
        <time>2015-06-10T11:42:27Z</time>
      </trkpt>
      <trkpt lat="48.20603" lon="-3.06034">
        <ele>94</ele>
        <time>2015-06-10T11:42:30Z</time>
      </trkpt>
      <trkpt lat="48.206" lon="-3.06034">
        <ele>95</ele>
        <time>2015-06-10T11:42:34Z</time>
      </trkpt>
      <trkpt lat="48.20599" lon="-3.06034">
        <ele>95</ele>
        <time>2015-06-10T11:42:36Z</time>
      </trkpt>
      <trkpt lat="48.20599" lon="-3.06032">
        <ele>95</ele>
        <time>2015-06-10T11:42:46Z</time>
      </trkpt>
      <trkpt lat="48.20598" lon="-3.06034">
        <ele>95</ele>
        <time>2015-06-10T11:42:55Z</time>
      </trkpt>
      <trkpt lat="48.20597" lon="-3.06035">
        <ele>95</ele>
        <time>2015-06-10T11:43:07Z</time>
      </trkpt>
      <trkpt lat="48.20595" lon="-3.06035">
        <ele>95</ele>
        <time>2015-06-10T11:43:09Z</time>
      </trkpt>
      <trkpt lat="48.20593" lon="-3.06034">
        <ele>95</ele>
        <time>2015-06-10T11:43:11Z</time>
      </trkpt>
      <trkpt lat="48.20591" lon="-3.06033">
        <ele>95</ele>
        <time>2015-06-10T11:43:14Z</time>
      </trkpt>
      <trkpt lat="48.20589" lon="-3.06033">
        <ele>95</ele>
        <time>2015-06-10T11:43:17Z</time>
      </trkpt>
      <trkpt lat="48.20588" lon="-3.06031">
        <ele>95</ele>
        <time>2015-06-10T11:43:19Z</time>
      </trkpt>
      <trkpt lat="48.20588" lon="-3.0603">
        <ele>95</ele>
        <time>2015-06-10T11:43:23Z</time>
      </trkpt>
      <trkpt lat="48.20588" lon="-3.06028">
        <ele>95</ele>
        <time>2015-06-10T11:43:44Z</time>
      </trkpt>
      <trkpt lat="48.20589" lon="-3.0603">
        <ele>95</ele>
        <time>2015-06-10T11:43:55Z</time>
      </trkpt>
      <trkpt lat="48.20589" lon="-3.06032">
        <ele>95</ele>
        <time>2015-06-10T11:43:58Z</time>
      </trkpt>
      <trkpt lat="48.20589" lon="-3.06034">
        <ele>95</ele>
        <time>2015-06-10T11:44:00Z</time>
      </trkpt>
      <trkpt lat="48.20589" lon="-3.06036">
        <ele>95</ele>
        <time>2015-06-10T11:44:02Z</time>
      </trkpt>
      <trkpt lat="48.20589" lon="-3.06039">
        <ele>95</ele>
        <time>2015-06-10T11:44:04Z</time>
      </trkpt>
      <trkpt lat="48.20589" lon="-3.06042">
        <ele>95</ele>
        <time>2015-06-10T11:44:06Z</time>
      </trkpt>
      <trkpt lat="48.20589" lon="-3.06045">
        <ele>95</ele>
        <time>2015-06-10T11:44:08Z</time>
      </trkpt>
      <trkpt lat="48.20588" lon="-3.06048">
        <ele>95</ele>
        <time>2015-06-10T11:44:10Z</time>
      </trkpt>
      <trkpt lat="48.20587" lon="-3.06053">
        <ele>95</ele>
        <time>2015-06-10T11:44:13Z</time>
      </trkpt>
      <trkpt lat="48.20586" lon="-3.06058">
        <ele>95</ele>
        <time>2015-06-10T11:44:16Z</time>
      </trkpt>
      <trkpt lat="48.20585" lon="-3.06061">
        <ele>95</ele>
        <time>2015-06-10T11:44:18Z</time>
      </trkpt>
      <trkpt lat="48.20585" lon="-3.06063">
        <ele>95</ele>
        <time>2015-06-10T11:44:20Z</time>
      </trkpt>
      <trkpt lat="48.20584" lon="-3.06066">
        <ele>95</ele>
        <time>2015-06-10T11:44:22Z</time>
      </trkpt>
      <trkpt lat="48.20583" lon="-3.06069">
        <ele>95</ele>
        <time>2015-06-10T11:44:25Z</time>
      </trkpt>
      <trkpt lat="48.20584" lon="-3.06072">
        <ele>95</ele>
        <time>2015-06-10T11:44:49Z</time>
      </trkpt>
      <trkpt lat="48.20584" lon="-3.06075">
        <ele>95</ele>
        <time>2015-06-10T11:44:51Z</time>
      </trkpt>
      <trkpt lat="48.20583" lon="-3.06078">
        <ele>95</ele>
        <time>2015-06-10T11:44:53Z</time>
      </trkpt>
      <trkpt lat="48.20582" lon="-3.0608">
        <ele>95</ele>
        <time>2015-06-10T11:44:55Z</time>
      </trkpt>
      <trkpt lat="48.20582" lon="-3.06084">
        <ele>95</ele>
        <time>2015-06-10T11:44:57Z</time>
      </trkpt>
      <trkpt lat="48.20581" lon="-3.06087">
        <ele>95</ele>
        <time>2015-06-10T11:44:59Z</time>
      </trkpt>
      <trkpt lat="48.2058" lon="-3.06092">
        <ele>95</ele>
        <time>2015-06-10T11:45:01Z</time>
      </trkpt>
      <trkpt lat="48.20578" lon="-3.06096">
        <ele>95</ele>
        <time>2015-06-10T11:45:03Z</time>
      </trkpt>
      <trkpt lat="48.20577" lon="-3.06099">
        <ele>95</ele>
        <time>2015-06-10T11:45:05Z</time>
      </trkpt>
      <trkpt lat="48.20576" lon="-3.06103">
        <ele>95</ele>
        <time>2015-06-10T11:45:07Z</time>
      </trkpt>
      <trkpt lat="48.20576" lon="-3.06107">
        <ele>95</ele>
        <time>2015-06-10T11:45:09Z</time>
      </trkpt>
      <trkpt lat="48.20575" lon="-3.06111">
        <ele>95</ele>
        <time>2015-06-10T11:45:11Z</time>
      </trkpt>
      <trkpt lat="48.20574" lon="-3.06115">
        <ele>95</ele>
        <time>2015-06-10T11:45:13Z</time>
      </trkpt>
      <trkpt lat="48.20574" lon="-3.06119">
        <ele>95</ele>
        <time>2015-06-10T11:45:15Z</time>
      </trkpt>
      <trkpt lat="48.20573" lon="-3.06122">
        <ele>95</ele>
        <time>2015-06-10T11:45:17Z</time>
      </trkpt>
      <trkpt lat="48.20573" lon="-3.06126">
        <ele>95</ele>
        <time>2015-06-10T11:45:20Z</time>
      </trkpt>
      <trkpt lat="48.20573" lon="-3.06128">
        <ele>95</ele>
        <time>2015-06-10T11:45:22Z</time>
      </trkpt>
      <trkpt lat="48.20574" lon="-3.06131">
        <ele>95</ele>
        <time>2015-06-10T11:45:24Z</time>
      </trkpt>
      <trkpt lat="48.20573" lon="-3.06135">
        <ele>95</ele>
        <time>2015-06-10T11:45:26Z</time>
      </trkpt>
      <trkpt lat="48.20573" lon="-3.06138">
        <ele>95</ele>
        <time>2015-06-10T11:45:28Z</time>
      </trkpt>
      <trkpt lat="48.20572" lon="-3.06142">
        <ele>95</ele>
        <time>2015-06-10T11:45:30Z</time>
      </trkpt>
      <trkpt lat="48.20572" lon="-3.06146">
        <ele>95</ele>
        <time>2015-06-10T11:45:32Z</time>
      </trkpt>
      <trkpt lat="48.20571" lon="-3.0615">
        <ele>95</ele>
        <time>2015-06-10T11:45:34Z</time>
      </trkpt>
      <trkpt lat="48.20571" lon="-3.06153">
        <ele>95</ele>
        <time>2015-06-10T11:45:36Z</time>
      </trkpt>
      <trkpt lat="48.2057" lon="-3.06157">
        <ele>95</ele>
        <time>2015-06-10T11:45:38Z</time>
      </trkpt>
      <trkpt lat="48.2057" lon="-3.06161">
        <ele>95</ele>
        <time>2015-06-10T11:45:40Z</time>
      </trkpt>
      <trkpt lat="48.20569" lon="-3.06165">
        <ele>95</ele>
        <time>2015-06-10T11:45:42Z</time>
      </trkpt>
      <trkpt lat="48.20569" lon="-3.06169">
        <ele>95</ele>
        <time>2015-06-10T11:45:44Z</time>
      </trkpt>
      <trkpt lat="48.20568" lon="-3.06173">
        <ele>95</ele>
        <time>2015-06-10T11:45:46Z</time>
      </trkpt>
      <trkpt lat="48.20569" lon="-3.06177">
        <ele>95</ele>
        <time>2015-06-10T11:45:48Z</time>
      </trkpt>
      <trkpt lat="48.20569" lon="-3.06181">
        <ele>95</ele>
        <time>2015-06-10T11:45:50Z</time>
      </trkpt>
      <trkpt lat="48.20569" lon="-3.06185">
        <ele>95</ele>
        <time>2015-06-10T11:45:52Z</time>
      </trkpt>
      <trkpt lat="48.20568" lon="-3.06189">
        <ele>95</ele>
        <time>2015-06-10T11:45:54Z</time>
      </trkpt>
      <trkpt lat="48.20568" lon="-3.06192">
        <ele>95</ele>
        <time>2015-06-10T11:45:56Z</time>
      </trkpt>
      <trkpt lat="48.20567" lon="-3.06196">
        <ele>95</ele>
        <time>2015-06-10T11:45:58Z</time>
      </trkpt>
      <trkpt lat="48.20567" lon="-3.062">
        <ele>95</ele>
        <time>2015-06-10T11:46:00Z</time>
      </trkpt>
      <trkpt lat="48.20566" lon="-3.06203">
        <ele>95</ele>
        <time>2015-06-10T11:46:02Z</time>
      </trkpt>
      <trkpt lat="48.20566" lon="-3.06207">
        <ele>95</ele>
        <time>2015-06-10T11:46:04Z</time>
      </trkpt>
      <trkpt lat="48.20566" lon="-3.06211">
        <ele>95</ele>
        <time>2015-06-10T11:46:06Z</time>
      </trkpt>
      <trkpt lat="48.20565" lon="-3.06215">
        <ele>95</ele>
        <time>2015-06-10T11:46:08Z</time>
      </trkpt>
      <trkpt lat="48.20565" lon="-3.0622">
        <ele>95</ele>
        <time>2015-06-10T11:46:10Z</time>
      </trkpt>
      <trkpt lat="48.20565" lon="-3.06224">
        <ele>95</ele>
        <time>2015-06-10T11:46:12Z</time>
      </trkpt>
      <trkpt lat="48.20564" lon="-3.06227">
        <ele>95</ele>
        <time>2015-06-10T11:46:14Z</time>
      </trkpt>
      <trkpt lat="48.20563" lon="-3.06232">
        <ele>95</ele>
        <time>2015-06-10T11:46:16Z</time>
      </trkpt>
      <trkpt lat="48.20563" lon="-3.06236">
        <ele>95</ele>
        <time>2015-06-10T11:46:18Z</time>
      </trkpt>
      <trkpt lat="48.20562" lon="-3.06241">
        <ele>95</ele>
        <time>2015-06-10T11:46:20Z</time>
      </trkpt>
      <trkpt lat="48.20562" lon="-3.06245">
        <ele>95</ele>
        <time>2015-06-10T11:46:22Z</time>
      </trkpt>
      <trkpt lat="48.20561" lon="-3.0625">
        <ele>95</ele>
        <time>2015-06-10T11:46:24Z</time>
      </trkpt>
      <trkpt lat="48.20561" lon="-3.06255">
        <ele>95</ele>
        <time>2015-06-10T11:46:26Z</time>
      </trkpt>
      <trkpt lat="48.20561" lon="-3.06259">
        <ele>95</ele>
        <time>2015-06-10T11:46:28Z</time>
      </trkpt>
      <trkpt lat="48.20561" lon="-3.06264">
        <ele>95</ele>
        <time>2015-06-10T11:46:30Z</time>
      </trkpt>
      <trkpt lat="48.2056" lon="-3.06269">
        <ele>95</ele>
        <time>2015-06-10T11:46:32Z</time>
      </trkpt>
      <trkpt lat="48.2056" lon="-3.06273">
        <ele>95</ele>
        <time>2015-06-10T11:46:34Z</time>
      </trkpt>
      <trkpt lat="48.20559" lon="-3.06277">
        <ele>95</ele>
        <time>2015-06-10T11:46:36Z</time>
      </trkpt>
      <trkpt lat="48.20559" lon="-3.06282">
        <ele>95</ele>
        <time>2015-06-10T11:46:38Z</time>
      </trkpt>
      <trkpt lat="48.20559" lon="-3.06286">
        <ele>95</ele>
        <time>2015-06-10T11:46:40Z</time>
      </trkpt>
      <trkpt lat="48.20559" lon="-3.06291">
        <ele>95</ele>
        <time>2015-06-10T11:46:42Z</time>
      </trkpt>
      <trkpt lat="48.20559" lon="-3.06295">
        <ele>95</ele>
        <time>2015-06-10T11:46:44Z</time>
      </trkpt>
      <trkpt lat="48.2056" lon="-3.063">
        <ele>95</ele>
        <time>2015-06-10T11:46:46Z</time>
      </trkpt>
      <trkpt lat="48.2056" lon="-3.06305">
        <ele>95</ele>
        <time>2015-06-10T11:46:48Z</time>
      </trkpt>
      <trkpt lat="48.2056" lon="-3.0631">
        <ele>95</ele>
        <time>2015-06-10T11:46:50Z</time>
      </trkpt>
      <trkpt lat="48.2056" lon="-3.06314">
        <ele>95</ele>
        <time>2015-06-10T11:46:52Z</time>
      </trkpt>
      <trkpt lat="48.20559" lon="-3.06318">
        <ele>95</ele>
        <time>2015-06-10T11:46:54Z</time>
      </trkpt>
      <trkpt lat="48.20559" lon="-3.06323">
        <ele>95</ele>
        <time>2015-06-10T11:46:56Z</time>
      </trkpt>
      <trkpt lat="48.20559" lon="-3.06328">
        <ele>95</ele>
        <time>2015-06-10T11:46:58Z</time>
      </trkpt>
      <trkpt lat="48.20558" lon="-3.06332">
        <ele>95</ele>
        <time>2015-06-10T11:47:00Z</time>
      </trkpt>
      <trkpt lat="48.20558" lon="-3.06336">
        <ele>95</ele>
        <time>2015-06-10T11:47:02Z</time>
      </trkpt>
      <trkpt lat="48.20558" lon="-3.06341">
        <ele>95</ele>
        <time>2015-06-10T11:47:04Z</time>
      </trkpt>
      <trkpt lat="48.20558" lon="-3.06345">
        <ele>95</ele>
        <time>2015-06-10T11:47:06Z</time>
      </trkpt>
      <trkpt lat="48.20558" lon="-3.0635">
        <ele>95</ele>
        <time>2015-06-10T11:47:08Z</time>
      </trkpt>
      <trkpt lat="48.20558" lon="-3.06354">
        <ele>95</ele>
        <time>2015-06-10T11:47:10Z</time>
      </trkpt>
      <trkpt lat="48.20558" lon="-3.06359">
        <ele>95</ele>
        <time>2015-06-10T11:47:12Z</time>
      </trkpt>
      <trkpt lat="48.20558" lon="-3.06363">
        <ele>95</ele>
        <time>2015-06-10T11:47:14Z</time>
      </trkpt>
      <trkpt lat="48.20557" lon="-3.06368">
        <ele>95</ele>
        <time>2015-06-10T11:47:16Z</time>
      </trkpt>
      <trkpt lat="48.20557" lon="-3.06372">
        <ele>95</ele>
        <time>2015-06-10T11:47:18Z</time>
      </trkpt>
      <trkpt lat="48.20556" lon="-3.06378">
        <ele>95</ele>
        <time>2015-06-10T11:47:20Z</time>
      </trkpt>
      <trkpt lat="48.20556" lon="-3.06382">
        <ele>95</ele>
        <time>2015-06-10T11:47:22Z</time>
      </trkpt>
      <trkpt lat="48.20556" lon="-3.06387">
        <ele>95</ele>
        <time>2015-06-10T11:47:24Z</time>
      </trkpt>
      <trkpt lat="48.20556" lon="-3.06391">
        <ele>95</ele>
        <time>2015-06-10T11:47:26Z</time>
      </trkpt>
      <trkpt lat="48.20556" lon="-3.06396">
        <ele>95</ele>
        <time>2015-06-10T11:47:28Z</time>
      </trkpt>
      <trkpt lat="48.20555" lon="-3.06401">
        <ele>95</ele>
        <time>2015-06-10T11:47:30Z</time>
      </trkpt>
      <trkpt lat="48.20555" lon="-3.06406">
        <ele>95</ele>
        <time>2015-06-10T11:47:32Z</time>
      </trkpt>
      <trkpt lat="48.20554" lon="-3.06411">
        <ele>95</ele>
        <time>2015-06-10T11:47:34Z</time>
      </trkpt>
      <trkpt lat="48.20555" lon="-3.06416">
        <ele>95</ele>
        <time>2015-06-10T11:47:36Z</time>
      </trkpt>
      <trkpt lat="48.20555" lon="-3.06421">
        <ele>95</ele>
        <time>2015-06-10T11:47:38Z</time>
      </trkpt>
      <trkpt lat="48.20555" lon="-3.06426">
        <ele>95</ele>
        <time>2015-06-10T11:47:40Z</time>
      </trkpt>
      <trkpt lat="48.20554" lon="-3.0643">
        <ele>95</ele>
        <time>2015-06-10T11:47:42Z</time>
      </trkpt>
      <trkpt lat="48.20554" lon="-3.06434">
        <ele>95</ele>
        <time>2015-06-10T11:47:44Z</time>
      </trkpt>
      <trkpt lat="48.20554" lon="-3.06438">
        <ele>95</ele>
        <time>2015-06-10T11:47:46Z</time>
      </trkpt>
      <trkpt lat="48.20554" lon="-3.06444">
        <ele>95</ele>
        <time>2015-06-10T11:47:49Z</time>
      </trkpt>
      <trkpt lat="48.20554" lon="-3.06448">
        <ele>95</ele>
        <time>2015-06-10T11:47:51Z</time>
      </trkpt>
      <trkpt lat="48.20554" lon="-3.06453">
        <ele>95</ele>
        <time>2015-06-10T11:47:53Z</time>
      </trkpt>
      <trkpt lat="48.20554" lon="-3.06458">
        <ele>95</ele>
        <time>2015-06-10T11:47:55Z</time>
      </trkpt>
      <trkpt lat="48.20554" lon="-3.06463">
        <ele>95</ele>
        <time>2015-06-10T11:47:57Z</time>
      </trkpt>
      <trkpt lat="48.20554" lon="-3.06468">
        <ele>95</ele>
        <time>2015-06-10T11:47:59Z</time>
      </trkpt>
      <trkpt lat="48.20554" lon="-3.06473">
        <ele>95</ele>
        <time>2015-06-10T11:48:01Z</time>
      </trkpt>
      <trkpt lat="48.20554" lon="-3.06478">
        <ele>95</ele>
        <time>2015-06-10T11:48:03Z</time>
      </trkpt>
      <trkpt lat="48.20554" lon="-3.06483">
        <ele>95</ele>
        <time>2015-06-10T11:48:05Z</time>
      </trkpt>
      <trkpt lat="48.20554" lon="-3.06487">
        <ele>95</ele>
        <time>2015-06-10T11:48:07Z</time>
      </trkpt>
      <trkpt lat="48.20554" lon="-3.06492">
        <ele>95</ele>
        <time>2015-06-10T11:48:10Z</time>
      </trkpt>
      <trkpt lat="48.20554" lon="-3.06497">
        <ele>95</ele>
        <time>2015-06-10T11:48:13Z</time>
      </trkpt>
      <trkpt lat="48.20554" lon="-3.065">
        <ele>95</ele>
        <time>2015-06-10T11:48:15Z</time>
      </trkpt>
      <trkpt lat="48.20554" lon="-3.06505">
        <ele>95</ele>
        <time>2015-06-10T11:48:17Z</time>
      </trkpt>
      <trkpt lat="48.20554" lon="-3.06509">
        <ele>95</ele>
        <time>2015-06-10T11:48:19Z</time>
      </trkpt>
      <trkpt lat="48.20555" lon="-3.06513">
        <ele>95</ele>
        <time>2015-06-10T11:48:21Z</time>
      </trkpt>
      <trkpt lat="48.20555" lon="-3.06518">
        <ele>95</ele>
        <time>2015-06-10T11:48:23Z</time>
      </trkpt>
      <trkpt lat="48.20555" lon="-3.06522">
        <ele>95</ele>
        <time>2015-06-10T11:48:25Z</time>
      </trkpt>
      <trkpt lat="48.20555" lon="-3.06527">
        <ele>95</ele>
        <time>2015-06-10T11:48:27Z</time>
      </trkpt>
      <trkpt lat="48.20556" lon="-3.06532">
        <ele>95</ele>
        <time>2015-06-10T11:48:29Z</time>
      </trkpt>
      <trkpt lat="48.20557" lon="-3.06537">
        <ele>95</ele>
        <time>2015-06-10T11:48:31Z</time>
      </trkpt>
      <trkpt lat="48.20557" lon="-3.06541">
        <ele>95</ele>
        <time>2015-06-10T11:48:33Z</time>
      </trkpt>
      <trkpt lat="48.20557" lon="-3.06545">
        <ele>95</ele>
        <time>2015-06-10T11:48:35Z</time>
      </trkpt>
      <trkpt lat="48.20557" lon="-3.06549">
        <ele>95</ele>
        <time>2015-06-10T11:48:37Z</time>
      </trkpt>
      <trkpt lat="48.20557" lon="-3.06553">
        <ele>95</ele>
        <time>2015-06-10T11:48:39Z</time>
      </trkpt>
      <trkpt lat="48.20557" lon="-3.06558">
        <ele>95</ele>
        <time>2015-06-10T11:48:41Z</time>
      </trkpt>
      <trkpt lat="48.20558" lon="-3.06565">
        <ele>95</ele>
        <time>2015-06-10T11:48:44Z</time>
      </trkpt>
      <trkpt lat="48.20558" lon="-3.0657">
        <ele>95</ele>
        <time>2015-06-10T11:48:46Z</time>
      </trkpt>
      <trkpt lat="48.20558" lon="-3.06575">
        <ele>95</ele>
        <time>2015-06-10T11:48:48Z</time>
      </trkpt>
      <trkpt lat="48.20559" lon="-3.06579">
        <ele>95</ele>
        <time>2015-06-10T11:48:50Z</time>
      </trkpt>
      <trkpt lat="48.20559" lon="-3.06581">
        <ele>95</ele>
        <time>2015-06-10T11:48:52Z</time>
      </trkpt>
      <trkpt lat="48.20559" lon="-3.06587">
        <ele>95</ele>
        <time>2015-06-10T11:48:55Z</time>
      </trkpt>
      <trkpt lat="48.20559" lon="-3.06591">
        <ele>95</ele>
        <time>2015-06-10T11:48:57Z</time>
      </trkpt>
      <trkpt lat="48.20559" lon="-3.06594">
        <ele>95</ele>
        <time>2015-06-10T11:48:59Z</time>
      </trkpt>
      <trkpt lat="48.20559" lon="-3.06598">
        <ele>95</ele>
        <time>2015-06-10T11:49:01Z</time>
      </trkpt>
      <trkpt lat="48.20559" lon="-3.06602">
        <ele>95</ele>
        <time>2015-06-10T11:49:03Z</time>
      </trkpt>
      <trkpt lat="48.20559" lon="-3.06606">
        <ele>95</ele>
        <time>2015-06-10T11:49:05Z</time>
      </trkpt>
      <trkpt lat="48.2056" lon="-3.0661">
        <ele>95</ele>
        <time>2015-06-10T11:49:07Z</time>
      </trkpt>
      <trkpt lat="48.2056" lon="-3.06614">
        <ele>95</ele>
        <time>2015-06-10T11:49:09Z</time>
      </trkpt>
      <trkpt lat="48.2056" lon="-3.06619">
        <ele>95</ele>
        <time>2015-06-10T11:49:11Z</time>
      </trkpt>
      <trkpt lat="48.2056" lon="-3.06624">
        <ele>95</ele>
        <time>2015-06-10T11:49:13Z</time>
      </trkpt>
      <trkpt lat="48.20561" lon="-3.06628">
        <ele>95</ele>
        <time>2015-06-10T11:49:15Z</time>
      </trkpt>
      <trkpt lat="48.20561" lon="-3.06632">
        <ele>95</ele>
        <time>2015-06-10T11:49:17Z</time>
      </trkpt>
      <trkpt lat="48.20561" lon="-3.06636">
        <ele>95</ele>
        <time>2015-06-10T11:49:19Z</time>
      </trkpt>
      <trkpt lat="48.20561" lon="-3.0664">
        <ele>95</ele>
        <time>2015-06-10T11:49:21Z</time>
      </trkpt>
      <trkpt lat="48.20561" lon="-3.06647">
        <ele>95</ele>
        <time>2015-06-10T11:49:24Z</time>
      </trkpt>
      <trkpt lat="48.20561" lon="-3.06651">
        <ele>95</ele>
        <time>2015-06-10T11:49:26Z</time>
      </trkpt>
      <trkpt lat="48.20561" lon="-3.06656">
        <ele>95</ele>
        <time>2015-06-10T11:49:28Z</time>
      </trkpt>
      <trkpt lat="48.20562" lon="-3.06662">
        <ele>95</ele>
        <time>2015-06-10T11:49:31Z</time>
      </trkpt>
      <trkpt lat="48.20562" lon="-3.06666">
        <ele>95</ele>
        <time>2015-06-10T11:49:33Z</time>
      </trkpt>
      <trkpt lat="48.20563" lon="-3.06672">
        <ele>95</ele>
        <time>2015-06-10T11:49:36Z</time>
      </trkpt>
      <trkpt lat="48.20563" lon="-3.06679">
        <ele>95</ele>
        <time>2015-06-10T11:49:39Z</time>
      </trkpt>
      <trkpt lat="48.20564" lon="-3.06683">
        <ele>95</ele>
        <time>2015-06-10T11:49:41Z</time>
      </trkpt>
      <trkpt lat="48.20564" lon="-3.0669">
        <ele>95</ele>
        <time>2015-06-10T11:49:44Z</time>
      </trkpt>
      <trkpt lat="48.20564" lon="-3.06694">
        <ele>95</ele>
        <time>2015-06-10T11:49:46Z</time>
      </trkpt>
      <trkpt lat="48.20564" lon="-3.06698">
        <ele>95</ele>
        <time>2015-06-10T11:49:48Z</time>
      </trkpt>
      <trkpt lat="48.20564" lon="-3.06702">
        <ele>95</ele>
        <time>2015-06-10T11:49:50Z</time>
      </trkpt>
      <trkpt lat="48.20564" lon="-3.06709">
        <ele>95</ele>
        <time>2015-06-10T11:49:53Z</time>
      </trkpt>
      <trkpt lat="48.20565" lon="-3.06713">
        <ele>95</ele>
        <time>2015-06-10T11:49:55Z</time>
      </trkpt>
      <trkpt lat="48.20565" lon="-3.06717">
        <ele>95</ele>
        <time>2015-06-10T11:49:57Z</time>
      </trkpt>
      <trkpt lat="48.20565" lon="-3.06723">
        <ele>95</ele>
        <time>2015-06-10T11:50:00Z</time>
      </trkpt>
      <trkpt lat="48.20565" lon="-3.06728">
        <ele>95</ele>
        <time>2015-06-10T11:50:02Z</time>
      </trkpt>
      <trkpt lat="48.20565" lon="-3.06732">
        <ele>95</ele>
        <time>2015-06-10T11:50:04Z</time>
      </trkpt>
      <trkpt lat="48.20565" lon="-3.06737">
        <ele>95</ele>
        <time>2015-06-10T11:50:06Z</time>
      </trkpt>
      <trkpt lat="48.20565" lon="-3.06743">
        <ele>95</ele>
        <time>2015-06-10T11:50:09Z</time>
      </trkpt>
      <trkpt lat="48.20565" lon="-3.06747">
        <ele>95</ele>
        <time>2015-06-10T11:50:11Z</time>
      </trkpt>
      <trkpt lat="48.20564" lon="-3.0675">
        <ele>95</ele>
        <time>2015-06-10T11:50:13Z</time>
      </trkpt>
      <trkpt lat="48.20564" lon="-3.06757">
        <ele>95</ele>
        <time>2015-06-10T11:50:16Z</time>
      </trkpt>
      <trkpt lat="48.20564" lon="-3.06763">
        <ele>95</ele>
        <time>2015-06-10T11:50:19Z</time>
      </trkpt>
      <trkpt lat="48.20564" lon="-3.06768">
        <ele>95</ele>
        <time>2015-06-10T11:50:21Z</time>
      </trkpt>
      <trkpt lat="48.20564" lon="-3.06774">
        <ele>95</ele>
        <time>2015-06-10T11:50:24Z</time>
      </trkpt>
      <trkpt lat="48.20564" lon="-3.06778">
        <ele>95</ele>
        <time>2015-06-10T11:50:26Z</time>
      </trkpt>
      <trkpt lat="48.20564" lon="-3.06783">
        <ele>95</ele>
        <time>2015-06-10T11:50:28Z</time>
      </trkpt>
      <trkpt lat="48.20564" lon="-3.06787">
        <ele>95</ele>
        <time>2015-06-10T11:50:30Z</time>
      </trkpt>
      <trkpt lat="48.20564" lon="-3.06791">
        <ele>95</ele>
        <time>2015-06-10T11:50:32Z</time>
      </trkpt>
      <trkpt lat="48.20564" lon="-3.06797">
        <ele>95</ele>
        <time>2015-06-10T11:50:35Z</time>
      </trkpt>
      <trkpt lat="48.20564" lon="-3.06801">
        <ele>95</ele>
        <time>2015-06-10T11:50:37Z</time>
      </trkpt>
      <trkpt lat="48.20564" lon="-3.06807">
        <ele>95</ele>
        <time>2015-06-10T11:50:40Z</time>
      </trkpt>
      <trkpt lat="48.20564" lon="-3.06811">
        <ele>95</ele>
        <time>2015-06-10T11:50:42Z</time>
      </trkpt>
      <trkpt lat="48.20563" lon="-3.06815">
        <ele>95</ele>
        <time>2015-06-10T11:50:44Z</time>
      </trkpt>
      <trkpt lat="48.20562" lon="-3.06821">
        <ele>95</ele>
        <time>2015-06-10T11:50:47Z</time>
      </trkpt>
      <trkpt lat="48.20562" lon="-3.06825">
        <ele>95</ele>
        <time>2015-06-10T11:50:49Z</time>
      </trkpt>
      <trkpt lat="48.20562" lon="-3.06831">
        <ele>95</ele>
        <time>2015-06-10T11:50:52Z</time>
      </trkpt>
      <trkpt lat="48.20562" lon="-3.06835">
        <ele>95</ele>
        <time>2015-06-10T11:50:54Z</time>
      </trkpt>
      <trkpt lat="48.20561" lon="-3.06839">
        <ele>95</ele>
        <time>2015-06-10T11:50:56Z</time>
      </trkpt>
      <trkpt lat="48.20561" lon="-3.06843">
        <ele>95</ele>
        <time>2015-06-10T11:50:58Z</time>
      </trkpt>
      <trkpt lat="48.2056" lon="-3.06846">
        <ele>95</ele>
        <time>2015-06-10T11:51:00Z</time>
      </trkpt>
      <trkpt lat="48.2056" lon="-3.06852">
        <ele>95</ele>
        <time>2015-06-10T11:51:03Z</time>
      </trkpt>
      <trkpt lat="48.20559" lon="-3.06856">
        <ele>95</ele>
        <time>2015-06-10T11:51:05Z</time>
      </trkpt>
      <trkpt lat="48.20559" lon="-3.0686">
        <ele>95</ele>
        <time>2015-06-10T11:51:07Z</time>
      </trkpt>
      <trkpt lat="48.20558" lon="-3.06864">
        <ele>95</ele>
        <time>2015-06-10T11:51:09Z</time>
      </trkpt>
      <trkpt lat="48.20557" lon="-3.06868">
        <ele>95</ele>
        <time>2015-06-10T11:51:11Z</time>
      </trkpt>
      <trkpt lat="48.20557" lon="-3.06873">
        <ele>95</ele>
        <time>2015-06-10T11:51:14Z</time>
      </trkpt>
      <trkpt lat="48.20556" lon="-3.0688">
        <ele>95</ele>
        <time>2015-06-10T11:51:17Z</time>
      </trkpt>
      <trkpt lat="48.20556" lon="-3.06884">
        <ele>95</ele>
        <time>2015-06-10T11:51:19Z</time>
      </trkpt>
      <trkpt lat="48.20555" lon="-3.0689">
        <ele>95</ele>
        <time>2015-06-10T11:51:22Z</time>
      </trkpt>
      <trkpt lat="48.20555" lon="-3.06893">
        <ele>95</ele>
        <time>2015-06-10T11:51:24Z</time>
      </trkpt>
      <trkpt lat="48.20554" lon="-3.06897">
        <ele>95</ele>
        <time>2015-06-10T11:51:26Z</time>
      </trkpt>
      <trkpt lat="48.20554" lon="-3.06902">
        <ele>95</ele>
        <time>2015-06-10T11:51:28Z</time>
      </trkpt>
      <trkpt lat="48.20553" lon="-3.06906">
        <ele>95</ele>
        <time>2015-06-10T11:51:30Z</time>
      </trkpt>
      <trkpt lat="48.20552" lon="-3.06912">
        <ele>95</ele>
        <time>2015-06-10T11:51:33Z</time>
      </trkpt>
      <trkpt lat="48.20552" lon="-3.06917">
        <ele>95</ele>
        <time>2015-06-10T11:51:35Z</time>
      </trkpt>
      <trkpt lat="48.20551" lon="-3.06921">
        <ele>95</ele>
        <time>2015-06-10T11:51:37Z</time>
      </trkpt>
      <trkpt lat="48.20551" lon="-3.06926">
        <ele>95</ele>
        <time>2015-06-10T11:51:39Z</time>
      </trkpt>
      <trkpt lat="48.2055" lon="-3.0693">
        <ele>95</ele>
        <time>2015-06-10T11:51:41Z</time>
      </trkpt>
      <trkpt lat="48.20549" lon="-3.06936">
        <ele>95</ele>
        <time>2015-06-10T11:51:44Z</time>
      </trkpt>
      <trkpt lat="48.20548" lon="-3.06941">
        <ele>95</ele>
        <time>2015-06-10T11:51:46Z</time>
      </trkpt>
      <trkpt lat="48.20548" lon="-3.06945">
        <ele>95</ele>
        <time>2015-06-10T11:51:48Z</time>
      </trkpt>
      <trkpt lat="48.20546" lon="-3.06951">
        <ele>95</ele>
        <time>2015-06-10T11:51:51Z</time>
      </trkpt>
      <trkpt lat="48.20546" lon="-3.06955">
        <ele>95</ele>
        <time>2015-06-10T11:51:53Z</time>
      </trkpt>
      <trkpt lat="48.20546" lon="-3.0696">
        <ele>95</ele>
        <time>2015-06-10T11:51:55Z</time>
      </trkpt>
      <trkpt lat="48.20546" lon="-3.06964">
        <ele>95</ele>
        <time>2015-06-10T11:51:57Z</time>
      </trkpt>
      <trkpt lat="48.20544" lon="-3.0697">
        <ele>95</ele>
        <time>2015-06-10T11:52:00Z</time>
      </trkpt>
      <trkpt lat="48.20543" lon="-3.06974">
        <ele>95</ele>
        <time>2015-06-10T11:52:02Z</time>
      </trkpt>
      <trkpt lat="48.20543" lon="-3.06981">
        <ele>95</ele>
        <time>2015-06-10T11:52:05Z</time>
      </trkpt>
      <trkpt lat="48.20542" lon="-3.06985">
        <ele>95</ele>
        <time>2015-06-10T11:52:07Z</time>
      </trkpt>
      <trkpt lat="48.20541" lon="-3.06992">
        <ele>95</ele>
        <time>2015-06-10T11:52:10Z</time>
      </trkpt>
      <trkpt lat="48.2054" lon="-3.06996">
        <ele>95</ele>
        <time>2015-06-10T11:52:12Z</time>
      </trkpt>
      <trkpt lat="48.2054" lon="-3.07003">
        <ele>95</ele>
        <time>2015-06-10T11:52:15Z</time>
      </trkpt>
      <trkpt lat="48.20539" lon="-3.07008">
        <ele>95</ele>
        <time>2015-06-10T11:52:17Z</time>
      </trkpt>
      <trkpt lat="48.20539" lon="-3.07014">
        <ele>95</ele>
        <time>2015-06-10T11:52:20Z</time>
      </trkpt>
      <trkpt lat="48.20538" lon="-3.07018">
        <ele>95</ele>
        <time>2015-06-10T11:52:22Z</time>
      </trkpt>
      <trkpt lat="48.20538" lon="-3.07025">
        <ele>95</ele>
        <time>2015-06-10T11:52:25Z</time>
      </trkpt>
      <trkpt lat="48.20538" lon="-3.07029">
        <ele>95</ele>
        <time>2015-06-10T11:52:27Z</time>
      </trkpt>
      <trkpt lat="48.20538" lon="-3.07035">
        <ele>95</ele>
        <time>2015-06-10T11:52:30Z</time>
      </trkpt>
      <trkpt lat="48.20539" lon="-3.07039">
        <ele>95</ele>
        <time>2015-06-10T11:52:32Z</time>
      </trkpt>
      <trkpt lat="48.20539" lon="-3.07045">
        <ele>95</ele>
        <time>2015-06-10T11:52:35Z</time>
      </trkpt>
      <trkpt lat="48.2054" lon="-3.07049">
        <ele>95</ele>
        <time>2015-06-10T11:52:37Z</time>
      </trkpt>
      <trkpt lat="48.20541" lon="-3.07055">
        <ele>95</ele>
        <time>2015-06-10T11:52:40Z</time>
      </trkpt>
      <trkpt lat="48.20542" lon="-3.07058">
        <ele>95</ele>
        <time>2015-06-10T11:52:42Z</time>
      </trkpt>
      <trkpt lat="48.20542" lon="-3.07063">
        <ele>95</ele>
        <time>2015-06-10T11:52:45Z</time>
      </trkpt>
      <trkpt lat="48.20543" lon="-3.07066">
        <ele>95</ele>
        <time>2015-06-10T11:52:47Z</time>
      </trkpt>
      <trkpt lat="48.20544" lon="-3.07071">
        <ele>95</ele>
        <time>2015-06-10T11:52:51Z</time>
      </trkpt>
      <trkpt lat="48.20544" lon="-3.07074">
        <ele>95</ele>
        <time>2015-06-10T11:52:53Z</time>
      </trkpt>
      <trkpt lat="48.20545" lon="-3.07077">
        <ele>95</ele>
        <time>2015-06-10T11:52:55Z</time>
      </trkpt>
      <trkpt lat="48.20546" lon="-3.07084">
        <ele>95</ele>
        <time>2015-06-10T11:52:59Z</time>
      </trkpt>
      <trkpt lat="48.20547" lon="-3.07088">
        <ele>95</ele>
        <time>2015-06-10T11:53:02Z</time>
      </trkpt>
      <trkpt lat="48.20548" lon="-3.07091">
        <ele>95</ele>
        <time>2015-06-10T11:53:04Z</time>
      </trkpt>
      <trkpt lat="48.20548" lon="-3.07098">
        <ele>95</ele>
        <time>2015-06-10T11:53:08Z</time>
      </trkpt>
      <trkpt lat="48.20547" lon="-3.07101">
        <ele>95</ele>
        <time>2015-06-10T11:53:10Z</time>
      </trkpt>
      <trkpt lat="48.20546" lon="-3.07104">
        <ele>95</ele>
        <time>2015-06-10T11:53:23Z</time>
      </trkpt>
      <trkpt lat="48.20546" lon="-3.07106">
        <ele>95</ele>
        <time>2015-06-10T11:53:26Z</time>
      </trkpt>
      <trkpt lat="48.20547" lon="-3.07107">
        <ele>95</ele>
        <time>2015-06-10T11:53:43Z</time>
      </trkpt>
      <trkpt lat="48.2055" lon="-3.07112">
        <ele>95</ele>
        <time>2015-06-10T11:53:47Z</time>
      </trkpt>
      <trkpt lat="48.2055" lon="-3.07114">
        <ele>95</ele>
        <time>2015-06-10T11:53:49Z</time>
      </trkpt>
      <trkpt lat="48.20548" lon="-3.07117">
        <ele>95</ele>
        <time>2015-06-10T11:53:54Z</time>
      </trkpt>
      <trkpt lat="48.20547" lon="-3.07117">
        <ele>95</ele>
        <time>2015-06-10T11:53:57Z</time>
      </trkpt>
      <trkpt lat="48.20547" lon="-3.07115">
        <ele>95</ele>
        <time>2015-06-10T11:54:38Z</time>
      </trkpt>
      <trkpt lat="48.20545" lon="-3.07113">
        <ele>95</ele>
        <time>2015-06-10T11:54:45Z</time>
      </trkpt>
      <trkpt lat="48.20544" lon="-3.07112">
        <ele>98</ele>
        <time>2015-06-10T11:54:49Z</time>
      </trkpt>
      <trkpt lat="48.20544" lon="-3.07114">
        <ele>100</ele>
        <time>2015-06-10T11:55:18Z</time>
      </trkpt>
      <trkpt lat="48.20546" lon="-3.07115">
        <ele>100</ele>
        <time>2015-06-10T11:55:22Z</time>
      </trkpt>
      <trkpt lat="48.20547" lon="-3.07114">
        <ele>100</ele>
        <time>2015-06-10T11:55:24Z</time>
      </trkpt>
      <trkpt lat="48.20549" lon="-3.07114">
        <ele>100</ele>
        <time>2015-06-10T11:55:26Z</time>
      </trkpt>
      <trkpt lat="48.2055" lon="-3.07113">
        <ele>100</ele>
        <time>2015-06-10T11:55:28Z</time>
      </trkpt>
      <trkpt lat="48.20552" lon="-3.07114">
        <ele>100</ele>
        <time>2015-06-10T11:55:30Z</time>
      </trkpt>
      <trkpt lat="48.20554" lon="-3.07116">
        <ele>98</ele>
        <time>2015-06-10T11:55:49Z</time>
      </trkpt>
      <trkpt lat="48.20556" lon="-3.07115">
        <ele>98</ele>
        <time>2015-06-10T11:56:16Z</time>
      </trkpt>
      <trkpt lat="48.20555" lon="-3.07114">
        <ele>98</ele>
        <time>2015-06-10T11:56:19Z</time>
      </trkpt>
      <trkpt lat="48.20554" lon="-3.07112">
        <ele>98</ele>
        <time>2015-06-10T11:56:32Z</time>
      </trkpt>
      <trkpt lat="48.20555" lon="-3.07113">
        <ele>98</ele>
        <time>2015-06-10T11:56:54Z</time>
      </trkpt>
      <trkpt lat="48.20556" lon="-3.07115">
        <ele>98</ele>
        <time>2015-06-10T11:56:58Z</time>
      </trkpt>
      <trkpt lat="48.20556" lon="-3.07117">
        <ele>98</ele>
        <time>2015-06-10T11:57:05Z</time>
      </trkpt>
      <trkpt lat="48.20556" lon="-3.07119">
        <ele>98</ele>
        <time>2015-06-10T11:57:16Z</time>
      </trkpt>
      <trkpt lat="48.20556" lon="-3.07124">
        <ele>98</ele>
        <time>2015-06-10T11:57:19Z</time>
      </trkpt>
      <trkpt lat="48.20557" lon="-3.07128">
        <ele>98</ele>
        <time>2015-06-10T11:57:21Z</time>
      </trkpt>
      <trkpt lat="48.20558" lon="-3.07132">
        <ele>98</ele>
        <time>2015-06-10T11:57:23Z</time>
      </trkpt>
      <trkpt lat="48.20559" lon="-3.07137">
        <ele>98</ele>
        <time>2015-06-10T11:57:26Z</time>
      </trkpt>
      <trkpt lat="48.20561" lon="-3.07143">
        <ele>98</ele>
        <time>2015-06-10T11:57:29Z</time>
      </trkpt>
      <trkpt lat="48.20562" lon="-3.07146">
        <ele>98</ele>
        <time>2015-06-10T11:57:31Z</time>
      </trkpt>
      <trkpt lat="48.20564" lon="-3.07152">
        <ele>98</ele>
        <time>2015-06-10T11:57:34Z</time>
      </trkpt>
      <trkpt lat="48.20565" lon="-3.07156">
        <ele>98</ele>
        <time>2015-06-10T11:57:36Z</time>
      </trkpt>
      <trkpt lat="48.20567" lon="-3.07159">
        <ele>98</ele>
        <time>2015-06-10T11:57:38Z</time>
      </trkpt>
      <trkpt lat="48.20568" lon="-3.07163">
        <ele>98</ele>
        <time>2015-06-10T11:57:41Z</time>
      </trkpt>
      <trkpt lat="48.20571" lon="-3.07169">
        <ele>98</ele>
        <time>2015-06-10T11:57:45Z</time>
      </trkpt>
      <trkpt lat="48.20573" lon="-3.07172">
        <ele>98</ele>
        <time>2015-06-10T11:57:47Z</time>
      </trkpt>
      <trkpt lat="48.20574" lon="-3.07176">
        <ele>98</ele>
        <time>2015-06-10T11:57:50Z</time>
      </trkpt>
      <trkpt lat="48.20575" lon="-3.07177">
        <ele>98</ele>
        <time>2015-06-10T11:57:53Z</time>
      </trkpt>
      <trkpt lat="48.20577" lon="-3.07182">
        <ele>98</ele>
        <time>2015-06-10T11:57:56Z</time>
      </trkpt>
      <trkpt lat="48.20578" lon="-3.07185">
        <ele>98</ele>
        <time>2015-06-10T11:57:58Z</time>
      </trkpt>
      <trkpt lat="48.20581" lon="-3.07189">
        <ele>98</ele>
        <time>2015-06-10T11:58:01Z</time>
      </trkpt>
      <trkpt lat="48.20584" lon="-3.07194">
        <ele>98</ele>
        <time>2015-06-10T11:58:04Z</time>
      </trkpt>
      <trkpt lat="48.20587" lon="-3.07199">
        <ele>98</ele>
        <time>2015-06-10T11:58:07Z</time>
      </trkpt>
      <trkpt lat="48.20589" lon="-3.07202">
        <ele>98</ele>
        <time>2015-06-10T11:58:09Z</time>
      </trkpt>
      <trkpt lat="48.20591" lon="-3.07207">
        <ele>98</ele>
        <time>2015-06-10T11:58:12Z</time>
      </trkpt>
      <trkpt lat="48.20593" lon="-3.07209">
        <ele>98</ele>
        <time>2015-06-10T11:58:14Z</time>
      </trkpt>
      <trkpt lat="48.20596" lon="-3.07214">
        <ele>98</ele>
        <time>2015-06-10T11:58:17Z</time>
      </trkpt>
      <trkpt lat="48.20598" lon="-3.07218">
        <ele>98</ele>
        <time>2015-06-10T11:58:19Z</time>
      </trkpt>
      <trkpt lat="48.20601" lon="-3.07224">
        <ele>98</ele>
        <time>2015-06-10T11:58:23Z</time>
      </trkpt>
      <trkpt lat="48.20602" lon="-3.07227">
        <ele>98</ele>
        <time>2015-06-10T11:58:25Z</time>
      </trkpt>
      <trkpt lat="48.20606" lon="-3.07233">
        <ele>98</ele>
        <time>2015-06-10T11:58:29Z</time>
      </trkpt>
      <trkpt lat="48.20607" lon="-3.07236">
        <ele>98</ele>
        <time>2015-06-10T11:58:31Z</time>
      </trkpt>
      <trkpt lat="48.2061" lon="-3.07241">
        <ele>98</ele>
        <time>2015-06-10T11:58:35Z</time>
      </trkpt>
      <trkpt lat="48.20612" lon="-3.07242">
        <ele>98</ele>
        <time>2015-06-10T11:58:37Z</time>
      </trkpt>
      <trkpt lat="48.20616" lon="-3.07247">
        <ele>98</ele>
        <time>2015-06-10T11:58:41Z</time>
      </trkpt>
      <trkpt lat="48.20618" lon="-3.0725">
        <ele>98</ele>
        <time>2015-06-10T11:58:43Z</time>
      </trkpt>
      <trkpt lat="48.2062" lon="-3.07255">
        <ele>98</ele>
        <time>2015-06-10T11:58:46Z</time>
      </trkpt>
      <trkpt lat="48.20622" lon="-3.07257">
        <ele>98</ele>
        <time>2015-06-10T11:58:48Z</time>
      </trkpt>
      <trkpt lat="48.20623" lon="-3.0726">
        <ele>98</ele>
        <time>2015-06-10T11:58:50Z</time>
      </trkpt>
      <trkpt lat="48.20625" lon="-3.07263">
        <ele>98</ele>
        <time>2015-06-10T11:58:52Z</time>
      </trkpt>
      <trkpt lat="48.20626" lon="-3.07266">
        <ele>98</ele>
        <time>2015-06-10T11:58:54Z</time>
      </trkpt>
      <trkpt lat="48.20628" lon="-3.07269">
        <ele>98</ele>
        <time>2015-06-10T11:58:56Z</time>
      </trkpt>
      <trkpt lat="48.2063" lon="-3.07272">
        <ele>98</ele>
        <time>2015-06-10T11:58:58Z</time>
      </trkpt>
      <trkpt lat="48.20632" lon="-3.07275">
        <ele>98</ele>
        <time>2015-06-10T11:59:00Z</time>
      </trkpt>
      <trkpt lat="48.20634" lon="-3.07278">
        <ele>98</ele>
        <time>2015-06-10T11:59:02Z</time>
      </trkpt>
      <trkpt lat="48.20636" lon="-3.07281">
        <ele>98</ele>
        <time>2015-06-10T11:59:04Z</time>
      </trkpt>
      <trkpt lat="48.20639" lon="-3.07286">
        <ele>98</ele>
        <time>2015-06-10T11:59:07Z</time>
      </trkpt>
      <trkpt lat="48.20641" lon="-3.07291">
        <ele>98</ele>
        <time>2015-06-10T11:59:10Z</time>
      </trkpt>
      <trkpt lat="48.20645" lon="-3.07297">
        <ele>98</ele>
        <time>2015-06-10T11:59:14Z</time>
      </trkpt>
      <trkpt lat="48.20646" lon="-3.073">
        <ele>98</ele>
        <time>2015-06-10T11:59:16Z</time>
      </trkpt>
      <trkpt lat="48.20649" lon="-3.07305">
        <ele>98</ele>
        <time>2015-06-10T11:59:19Z</time>
      </trkpt>
      <trkpt lat="48.2065" lon="-3.07308">
        <ele>98</ele>
        <time>2015-06-10T11:59:21Z</time>
      </trkpt>
      <trkpt lat="48.20651" lon="-3.0731">
        <ele>98</ele>
        <time>2015-06-10T11:59:23Z</time>
      </trkpt>
      <trkpt lat="48.20652" lon="-3.07311">
        <ele>98</ele>
        <time>2015-06-10T11:59:25Z</time>
      </trkpt>
      <trkpt lat="48.20654" lon="-3.07313">
        <ele>98</ele>
        <time>2015-06-10T11:59:27Z</time>
      </trkpt>
      <trkpt lat="48.20656" lon="-3.07318">
        <ele>98</ele>
        <time>2015-06-10T11:59:30Z</time>
      </trkpt>
      <trkpt lat="48.20657" lon="-3.07322">
        <ele>98</ele>
        <time>2015-06-10T11:59:32Z</time>
      </trkpt>
      <trkpt lat="48.20661" lon="-3.07328">
        <ele>98</ele>
        <time>2015-06-10T11:59:36Z</time>
      </trkpt>
      <trkpt lat="48.20663" lon="-3.07331">
        <ele>98</ele>
        <time>2015-06-10T11:59:38Z</time>
      </trkpt>
      <trkpt lat="48.20665" lon="-3.07334">
        <ele>98</ele>
        <time>2015-06-10T11:59:40Z</time>
      </trkpt>
      <trkpt lat="48.20667" lon="-3.07336">
        <ele>98</ele>
        <time>2015-06-10T11:59:42Z</time>
      </trkpt>
      <trkpt lat="48.20669" lon="-3.07339">
        <ele>98</ele>
        <time>2015-06-10T11:59:46Z</time>
      </trkpt>
      <trkpt lat="48.20671" lon="-3.07341">
        <ele>98</ele>
        <time>2015-06-10T11:59:48Z</time>
      </trkpt>
      <trkpt lat="48.20673" lon="-3.07344">
        <ele>98</ele>
        <time>2015-06-10T11:59:50Z</time>
      </trkpt>
      <trkpt lat="48.20676" lon="-3.07347">
        <ele>98</ele>
        <time>2015-06-10T11:59:53Z</time>
      </trkpt>
      <trkpt lat="48.20678" lon="-3.07349">
        <ele>98</ele>
        <time>2015-06-10T11:59:55Z</time>
      </trkpt>
      <trkpt lat="48.2068" lon="-3.0735">
        <ele>98</ele>
        <time>2015-06-10T11:59:58Z</time>
      </trkpt>
      <trkpt lat="48.20681" lon="-3.07351">
        <ele>98</ele>
        <time>2015-06-10T12:00:00Z</time>
      </trkpt>
      <trkpt lat="48.20683" lon="-3.07353">
        <ele>98</ele>
        <time>2015-06-10T12:00:02Z</time>
      </trkpt>
      <trkpt lat="48.20686" lon="-3.07356">
        <ele>98</ele>
        <time>2015-06-10T12:00:04Z</time>
      </trkpt>
      <trkpt lat="48.20688" lon="-3.0736">
        <ele>98</ele>
        <time>2015-06-10T12:00:07Z</time>
      </trkpt>
      <trkpt lat="48.2069" lon="-3.07362">
        <ele>98</ele>
        <time>2015-06-10T12:00:09Z</time>
      </trkpt>
      <trkpt lat="48.20693" lon="-3.07366">
        <ele>98</ele>
        <time>2015-06-10T12:00:12Z</time>
      </trkpt>
      <trkpt lat="48.20695" lon="-3.07368">
        <ele>98</ele>
        <time>2015-06-10T12:00:14Z</time>
      </trkpt>
      <trkpt lat="48.20697" lon="-3.0737">
        <ele>98</ele>
        <time>2015-06-10T12:00:16Z</time>
      </trkpt>
      <trkpt lat="48.207" lon="-3.07373">
        <ele>98</ele>
        <time>2015-06-10T12:00:18Z</time>
      </trkpt>
      <trkpt lat="48.20702" lon="-3.07375">
        <ele>98</ele>
        <time>2015-06-10T12:00:20Z</time>
      </trkpt>
      <trkpt lat="48.20704" lon="-3.07377">
        <ele>98</ele>
        <time>2015-06-10T12:00:22Z</time>
      </trkpt>
      <trkpt lat="48.20706" lon="-3.0738">
        <ele>98</ele>
        <time>2015-06-10T12:00:24Z</time>
      </trkpt>
      <trkpt lat="48.20709" lon="-3.07382">
        <ele>98</ele>
        <time>2015-06-10T12:00:26Z</time>
      </trkpt>
      <trkpt lat="48.20712" lon="-3.07386">
        <ele>98</ele>
        <time>2015-06-10T12:00:29Z</time>
      </trkpt>
      <trkpt lat="48.20713" lon="-3.07388">
        <ele>98</ele>
        <time>2015-06-10T12:00:31Z</time>
      </trkpt>
      <trkpt lat="48.20716" lon="-3.07392">
        <ele>98</ele>
        <time>2015-06-10T12:00:34Z</time>
      </trkpt>
      <trkpt lat="48.20718" lon="-3.07394">
        <ele>98</ele>
        <time>2015-06-10T12:00:36Z</time>
      </trkpt>
      <trkpt lat="48.2072" lon="-3.07397">
        <ele>98</ele>
        <time>2015-06-10T12:00:38Z</time>
      </trkpt>
      <trkpt lat="48.20722" lon="-3.07399">
        <ele>98</ele>
        <time>2015-06-10T12:00:40Z</time>
      </trkpt>
      <trkpt lat="48.20723" lon="-3.07401">
        <ele>98</ele>
        <time>2015-06-10T12:00:42Z</time>
      </trkpt>
      <trkpt lat="48.20727" lon="-3.07405">
        <ele>98</ele>
        <time>2015-06-10T12:00:45Z</time>
      </trkpt>
      <trkpt lat="48.20729" lon="-3.07407">
        <ele>98</ele>
        <time>2015-06-10T12:00:47Z</time>
      </trkpt>
      <trkpt lat="48.2073" lon="-3.0741">
        <ele>98</ele>
        <time>2015-06-10T12:00:49Z</time>
      </trkpt>
      <trkpt lat="48.20732" lon="-3.07412">
        <ele>98</ele>
        <time>2015-06-10T12:00:51Z</time>
      </trkpt>
      <trkpt lat="48.20735" lon="-3.07414">
        <ele>98</ele>
        <time>2015-06-10T12:00:53Z</time>
      </trkpt>
      <trkpt lat="48.20737" lon="-3.07416">
        <ele>98</ele>
        <time>2015-06-10T12:00:55Z</time>
      </trkpt>
      <trkpt lat="48.20741" lon="-3.07421">
        <ele>98</ele>
        <time>2015-06-10T12:00:58Z</time>
      </trkpt>
      <trkpt lat="48.20743" lon="-3.07423">
        <ele>98</ele>
        <time>2015-06-10T12:01:00Z</time>
      </trkpt>
      <trkpt lat="48.20745" lon="-3.07426">
        <ele>98</ele>
        <time>2015-06-10T12:01:02Z</time>
      </trkpt>
      <trkpt lat="48.20747" lon="-3.07428">
        <ele>98</ele>
        <time>2015-06-10T12:01:04Z</time>
      </trkpt>
      <trkpt lat="48.2075" lon="-3.07431">
        <ele>98</ele>
        <time>2015-06-10T12:01:06Z</time>
      </trkpt>
      <trkpt lat="48.20752" lon="-3.07433">
        <ele>98</ele>
        <time>2015-06-10T12:01:08Z</time>
      </trkpt>
      <trkpt lat="48.20754" lon="-3.07435">
        <ele>98</ele>
        <time>2015-06-10T12:01:10Z</time>
      </trkpt>
      <trkpt lat="48.20757" lon="-3.07439">
        <ele>98</ele>
        <time>2015-06-10T12:01:13Z</time>
      </trkpt>
      <trkpt lat="48.20759" lon="-3.07442">
        <ele>98</ele>
        <time>2015-06-10T12:01:15Z</time>
      </trkpt>
      <trkpt lat="48.20763" lon="-3.07446">
        <ele>98</ele>
        <time>2015-06-10T12:01:18Z</time>
      </trkpt>
      <trkpt lat="48.20766" lon="-3.07449">
        <ele>98</ele>
        <time>2015-06-10T12:01:21Z</time>
      </trkpt>
      <trkpt lat="48.20768" lon="-3.07452">
        <ele>98</ele>
        <time>2015-06-10T12:01:23Z</time>
      </trkpt>
      <trkpt lat="48.20771" lon="-3.07455">
        <ele>98</ele>
        <time>2015-06-10T12:01:25Z</time>
      </trkpt>
      <trkpt lat="48.20773" lon="-3.07457">
        <ele>98</ele>
        <time>2015-06-10T12:01:27Z</time>
      </trkpt>
      <trkpt lat="48.20776" lon="-3.07461">
        <ele>98</ele>
        <time>2015-06-10T12:01:30Z</time>
      </trkpt>
      <trkpt lat="48.20779" lon="-3.07465">
        <ele>98</ele>
        <time>2015-06-10T12:01:33Z</time>
      </trkpt>
      <trkpt lat="48.20781" lon="-3.07468">
        <ele>98</ele>
        <time>2015-06-10T12:01:35Z</time>
      </trkpt>
      <trkpt lat="48.20783" lon="-3.0747">
        <ele>98</ele>
        <time>2015-06-10T12:01:37Z</time>
      </trkpt>
      <trkpt lat="48.20786" lon="-3.07473">
        <ele>98</ele>
        <time>2015-06-10T12:01:39Z</time>
      </trkpt>
      <trkpt lat="48.20787" lon="-3.07475">
        <ele>98</ele>
        <time>2015-06-10T12:01:41Z</time>
      </trkpt>
      <trkpt lat="48.2079" lon="-3.07478">
        <ele>98</ele>
        <time>2015-06-10T12:01:43Z</time>
      </trkpt>
      <trkpt lat="48.20792" lon="-3.07481">
        <ele>98</ele>
        <time>2015-06-10T12:01:45Z</time>
      </trkpt>
      <trkpt lat="48.20794" lon="-3.07484">
        <ele>98</ele>
        <time>2015-06-10T12:01:47Z</time>
      </trkpt>
      <trkpt lat="48.20797" lon="-3.07487">
        <ele>98</ele>
        <time>2015-06-10T12:01:50Z</time>
      </trkpt>
      <trkpt lat="48.20799" lon="-3.07489">
        <ele>98</ele>
        <time>2015-06-10T12:01:52Z</time>
      </trkpt>
      <trkpt lat="48.20801" lon="-3.07492">
        <ele>98</ele>
        <time>2015-06-10T12:01:54Z</time>
      </trkpt>
      <trkpt lat="48.20803" lon="-3.07495">
        <ele>98</ele>
        <time>2015-06-10T12:01:56Z</time>
      </trkpt>
      <trkpt lat="48.20806" lon="-3.07498">
        <ele>98</ele>
        <time>2015-06-10T12:01:59Z</time>
      </trkpt>
      <trkpt lat="48.20809" lon="-3.07502">
        <ele>98</ele>
        <time>2015-06-10T12:02:02Z</time>
      </trkpt>
      <trkpt lat="48.20811" lon="-3.07504">
        <ele>98</ele>
        <time>2015-06-10T12:02:04Z</time>
      </trkpt>
      <trkpt lat="48.20814" lon="-3.07507">
        <ele>98</ele>
        <time>2015-06-10T12:02:06Z</time>
      </trkpt>
      <trkpt lat="48.20815" lon="-3.07508">
        <ele>98</ele>
        <time>2015-06-10T12:02:08Z</time>
      </trkpt>
      <trkpt lat="48.20817" lon="-3.0751">
        <ele>98</ele>
        <time>2015-06-10T12:02:10Z</time>
      </trkpt>
      <trkpt lat="48.20819" lon="-3.07512">
        <ele>98</ele>
        <time>2015-06-10T12:02:12Z</time>
      </trkpt>
      <trkpt lat="48.20821" lon="-3.07515">
        <ele>98</ele>
        <time>2015-06-10T12:02:14Z</time>
      </trkpt>
      <trkpt lat="48.20823" lon="-3.07517">
        <ele>98</ele>
        <time>2015-06-10T12:02:16Z</time>
      </trkpt>
      <trkpt lat="48.20826" lon="-3.07521">
        <ele>98</ele>
        <time>2015-06-10T12:02:19Z</time>
      </trkpt>
      <trkpt lat="48.2083" lon="-3.07525">
        <ele>98</ele>
        <time>2015-06-10T12:02:23Z</time>
      </trkpt>
      <trkpt lat="48.20832" lon="-3.07528">
        <ele>98</ele>
        <time>2015-06-10T12:02:25Z</time>
      </trkpt>
      <trkpt lat="48.20835" lon="-3.07532">
        <ele>98</ele>
        <time>2015-06-10T12:02:29Z</time>
      </trkpt>
      <trkpt lat="48.20837" lon="-3.07534">
        <ele>98</ele>
        <time>2015-06-10T12:02:31Z</time>
      </trkpt>
      <trkpt lat="48.20842" lon="-3.07538">
        <ele>98</ele>
        <time>2015-06-10T12:02:35Z</time>
      </trkpt>
      <trkpt lat="48.20845" lon="-3.07542">
        <ele>98</ele>
        <time>2015-06-10T12:02:38Z</time>
      </trkpt>
      <trkpt lat="48.20847" lon="-3.07544">
        <ele>98</ele>
        <time>2015-06-10T12:02:40Z</time>
      </trkpt>
      <trkpt lat="48.2085" lon="-3.07547">
        <ele>98</ele>
        <time>2015-06-10T12:02:42Z</time>
      </trkpt>
      <trkpt lat="48.20853" lon="-3.07551">
        <ele>98</ele>
        <time>2015-06-10T12:02:45Z</time>
      </trkpt>
      <trkpt lat="48.20856" lon="-3.07554">
        <ele>98</ele>
        <time>2015-06-10T12:02:48Z</time>
      </trkpt>
      <trkpt lat="48.20859" lon="-3.07558">
        <ele>98</ele>
        <time>2015-06-10T12:02:51Z</time>
      </trkpt>
      <trkpt lat="48.20862" lon="-3.0756">
        <ele>98</ele>
        <time>2015-06-10T12:02:53Z</time>
      </trkpt>
      <trkpt lat="48.20866" lon="-3.07563">
        <ele>98</ele>
        <time>2015-06-10T12:02:56Z</time>
      </trkpt>
      <trkpt lat="48.20869" lon="-3.07566">
        <ele>98</ele>
        <time>2015-06-10T12:02:59Z</time>
      </trkpt>
      <trkpt lat="48.20871" lon="-3.07568">
        <ele>98</ele>
        <time>2015-06-10T12:03:01Z</time>
      </trkpt>
      <trkpt lat="48.20875" lon="-3.07571">
        <ele>98</ele>
        <time>2015-06-10T12:03:04Z</time>
      </trkpt>
      <trkpt lat="48.20878" lon="-3.07574">
        <ele>98</ele>
        <time>2015-06-10T12:03:07Z</time>
      </trkpt>
      <trkpt lat="48.20882" lon="-3.07576">
        <ele>98</ele>
        <time>2015-06-10T12:03:10Z</time>
      </trkpt>
      <trkpt lat="48.20884" lon="-3.07578">
        <ele>98</ele>
        <time>2015-06-10T12:03:12Z</time>
      </trkpt>
      <trkpt lat="48.20887" lon="-3.0758">
        <ele>98</ele>
        <time>2015-06-10T12:03:14Z</time>
      </trkpt>
      <trkpt lat="48.20889" lon="-3.07582">
        <ele>98</ele>
        <time>2015-06-10T12:03:16Z</time>
      </trkpt>
      <trkpt lat="48.20893" lon="-3.07584">
        <ele>98</ele>
        <time>2015-06-10T12:03:19Z</time>
      </trkpt>
      <trkpt lat="48.20896" lon="-3.07586">
        <ele>98</ele>
        <time>2015-06-10T12:03:21Z</time>
      </trkpt>
      <trkpt lat="48.20899" lon="-3.07588">
        <ele>98</ele>
        <time>2015-06-10T12:03:23Z</time>
      </trkpt>
      <trkpt lat="48.20902" lon="-3.07591">
        <ele>98</ele>
        <time>2015-06-10T12:03:26Z</time>
      </trkpt>
      <trkpt lat="48.20905" lon="-3.07593">
        <ele>98</ele>
        <time>2015-06-10T12:03:28Z</time>
      </trkpt>
      <trkpt lat="48.20907" lon="-3.07595">
        <ele>98</ele>
        <time>2015-06-10T12:03:30Z</time>
      </trkpt>
      <trkpt lat="48.2091" lon="-3.07597">
        <ele>98</ele>
        <time>2015-06-10T12:03:32Z</time>
      </trkpt>
      <trkpt lat="48.20912" lon="-3.07598">
        <ele>98</ele>
        <time>2015-06-10T12:03:34Z</time>
      </trkpt>
      <trkpt lat="48.20914" lon="-3.07601">
        <ele>98</ele>
        <time>2015-06-10T12:03:36Z</time>
      </trkpt>
      <trkpt lat="48.20918" lon="-3.07603">
        <ele>97</ele>
        <time>2015-06-10T12:03:38Z</time>
      </trkpt>
      <trkpt lat="48.20921" lon="-3.07605">
        <ele>97</ele>
        <time>2015-06-10T12:03:40Z</time>
      </trkpt>
      <trkpt lat="48.20924" lon="-3.07606">
        <ele>96</ele>
        <time>2015-06-10T12:03:42Z</time>
      </trkpt>
      <trkpt lat="48.20927" lon="-3.07608">
        <ele>96</ele>
        <time>2015-06-10T12:03:44Z</time>
      </trkpt>
      <trkpt lat="48.2093" lon="-3.07609">
        <ele>96</ele>
        <time>2015-06-10T12:03:46Z</time>
      </trkpt>
      <trkpt lat="48.20933" lon="-3.07611">
        <ele>96</ele>
        <time>2015-06-10T12:03:48Z</time>
      </trkpt>
      <trkpt lat="48.20936" lon="-3.07612">
        <ele>96</ele>
        <time>2015-06-10T12:03:50Z</time>
      </trkpt>
      <trkpt lat="48.20939" lon="-3.07614">
        <ele>96</ele>
        <time>2015-06-10T12:03:52Z</time>
      </trkpt>
      <trkpt lat="48.20941" lon="-3.07615">
        <ele>96</ele>
        <time>2015-06-10T12:03:54Z</time>
      </trkpt>
      <trkpt lat="48.20944" lon="-3.07616">
        <ele>96</ele>
        <time>2015-06-10T12:03:56Z</time>
      </trkpt>
      <trkpt lat="48.20946" lon="-3.07618">
        <ele>96</ele>
        <time>2015-06-10T12:03:58Z</time>
      </trkpt>
      <trkpt lat="48.20949" lon="-3.0762">
        <ele>96</ele>
        <time>2015-06-10T12:04:00Z</time>
      </trkpt>
      <trkpt lat="48.20951" lon="-3.07622">
        <ele>96</ele>
        <time>2015-06-10T12:04:02Z</time>
      </trkpt>
      <trkpt lat="48.20954" lon="-3.07624">
        <ele>96</ele>
        <time>2015-06-10T12:04:04Z</time>
      </trkpt>
      <trkpt lat="48.20957" lon="-3.07627">
        <ele>96</ele>
        <time>2015-06-10T12:04:07Z</time>
      </trkpt>
      <trkpt lat="48.20959" lon="-3.07629">
        <ele>96</ele>
        <time>2015-06-10T12:04:09Z</time>
      </trkpt>
      <trkpt lat="48.20962" lon="-3.07631">
        <ele>96</ele>
        <time>2015-06-10T12:04:11Z</time>
      </trkpt>
      <trkpt lat="48.20963" lon="-3.07634">
        <ele>96</ele>
        <time>2015-06-10T12:04:13Z</time>
      </trkpt>
      <trkpt lat="48.20966" lon="-3.07637">
        <ele>96</ele>
        <time>2015-06-10T12:04:15Z</time>
      </trkpt>
      <trkpt lat="48.20969" lon="-3.0764">
        <ele>96</ele>
        <time>2015-06-10T12:04:17Z</time>
      </trkpt>
      <trkpt lat="48.20971" lon="-3.07641">
        <ele>96</ele>
        <time>2015-06-10T12:04:19Z</time>
      </trkpt>
      <trkpt lat="48.20974" lon="-3.07642">
        <ele>96</ele>
        <time>2015-06-10T12:04:21Z</time>
      </trkpt>
      <trkpt lat="48.20977" lon="-3.07643">
        <ele>96</ele>
        <time>2015-06-10T12:04:24Z</time>
      </trkpt>
      <trkpt lat="48.20981" lon="-3.07646">
        <ele>96</ele>
        <time>2015-06-10T12:04:27Z</time>
      </trkpt>
      <trkpt lat="48.20984" lon="-3.07647">
        <ele>96</ele>
        <time>2015-06-10T12:04:29Z</time>
      </trkpt>
      <trkpt lat="48.20986" lon="-3.07648">
        <ele>96</ele>
        <time>2015-06-10T12:04:31Z</time>
      </trkpt>
      <trkpt lat="48.20989" lon="-3.07649">
        <ele>96</ele>
        <time>2015-06-10T12:04:33Z</time>
      </trkpt>
      <trkpt lat="48.20992" lon="-3.07651">
        <ele>96</ele>
        <time>2015-06-10T12:04:36Z</time>
      </trkpt>
      <trkpt lat="48.20995" lon="-3.07652">
        <ele>96</ele>
        <time>2015-06-10T12:04:38Z</time>
      </trkpt>
      <trkpt lat="48.20998" lon="-3.07653">
        <ele>96</ele>
        <time>2015-06-10T12:04:40Z</time>
      </trkpt>
      <trkpt lat="48.21001" lon="-3.07654">
        <ele>96</ele>
        <time>2015-06-10T12:04:42Z</time>
      </trkpt>
      <trkpt lat="48.21004" lon="-3.07656">
        <ele>96</ele>
        <time>2015-06-10T12:04:44Z</time>
      </trkpt>
      <trkpt lat="48.21007" lon="-3.07657">
        <ele>96</ele>
        <time>2015-06-10T12:04:46Z</time>
      </trkpt>
      <trkpt lat="48.2101" lon="-3.07659">
        <ele>96</ele>
        <time>2015-06-10T12:04:48Z</time>
      </trkpt>
      <trkpt lat="48.21013" lon="-3.0766">
        <ele>96</ele>
        <time>2015-06-10T12:04:50Z</time>
      </trkpt>
      <trkpt lat="48.21016" lon="-3.07661">
        <ele>96</ele>
        <time>2015-06-10T12:04:52Z</time>
      </trkpt>
      <trkpt lat="48.21019" lon="-3.07663">
        <ele>96</ele>
        <time>2015-06-10T12:04:54Z</time>
      </trkpt>
      <trkpt lat="48.21022" lon="-3.07664">
        <ele>96</ele>
        <time>2015-06-10T12:04:56Z</time>
      </trkpt>
      <trkpt lat="48.21025" lon="-3.07665">
        <ele>96</ele>
        <time>2015-06-10T12:04:58Z</time>
      </trkpt>
      <trkpt lat="48.21028" lon="-3.07666">
        <ele>96</ele>
        <time>2015-06-10T12:05:00Z</time>
      </trkpt>
      <trkpt lat="48.2103" lon="-3.07668">
        <ele>96</ele>
        <time>2015-06-10T12:05:02Z</time>
      </trkpt>
      <trkpt lat="48.21033" lon="-3.0767">
        <ele>96</ele>
        <time>2015-06-10T12:05:04Z</time>
      </trkpt>
      <trkpt lat="48.21035" lon="-3.07672">
        <ele>96</ele>
        <time>2015-06-10T12:05:06Z</time>
      </trkpt>
      <trkpt lat="48.21038" lon="-3.07673">
        <ele>96</ele>
        <time>2015-06-10T12:05:08Z</time>
      </trkpt>
      <trkpt lat="48.21041" lon="-3.07675">
        <ele>96</ele>
        <time>2015-06-10T12:05:10Z</time>
      </trkpt>
      <trkpt lat="48.21043" lon="-3.07676">
        <ele>96</ele>
        <time>2015-06-10T12:05:12Z</time>
      </trkpt>
      <trkpt lat="48.21046" lon="-3.07677">
        <ele>96</ele>
        <time>2015-06-10T12:05:14Z</time>
      </trkpt>
      <trkpt lat="48.21048" lon="-3.07679">
        <ele>96</ele>
        <time>2015-06-10T12:05:16Z</time>
      </trkpt>
      <trkpt lat="48.2105" lon="-3.07679">
        <ele>96</ele>
        <time>2015-06-10T12:05:18Z</time>
      </trkpt>
      <trkpt lat="48.21052" lon="-3.07679">
        <ele>96</ele>
        <time>2015-06-10T12:05:20Z</time>
      </trkpt>
      <trkpt lat="48.21055" lon="-3.07678">
        <ele>96</ele>
        <time>2015-06-10T12:05:23Z</time>
      </trkpt>
      <trkpt lat="48.21056" lon="-3.07676">
        <ele>96</ele>
        <time>2015-06-10T12:05:25Z</time>
      </trkpt>
      <trkpt lat="48.21056" lon="-3.07674">
        <ele>96</ele>
        <time>2015-06-10T12:05:27Z</time>
      </trkpt>
      <trkpt lat="48.21058" lon="-3.0767">
        <ele>96</ele>
        <time>2015-06-10T12:05:30Z</time>
      </trkpt>
      <trkpt lat="48.21059" lon="-3.07668">
        <ele>96</ele>
        <time>2015-06-10T12:05:32Z</time>
      </trkpt>
      <trkpt lat="48.21059" lon="-3.07666">
        <ele>96</ele>
        <time>2015-06-10T12:05:34Z</time>
      </trkpt>
      <trkpt lat="48.21059" lon="-3.07664">
        <ele>96</ele>
        <time>2015-06-10T12:05:38Z</time>
      </trkpt>
      <trkpt lat="48.21061" lon="-3.07663">
        <ele>96</ele>
        <time>2015-06-10T12:05:41Z</time>
      </trkpt>
      <trkpt lat="48.21062" lon="-3.07663">
        <ele>96</ele>
        <time>2015-06-10T12:05:44Z</time>
      </trkpt>
      <trkpt lat="48.21061" lon="-3.07665">
        <ele>96</ele>
        <time>2015-06-10T12:05:47Z</time>
      </trkpt>
      <trkpt lat="48.2106" lon="-3.07667">
        <ele>96</ele>
        <time>2015-06-10T12:05:53Z</time>
      </trkpt>
      <trkpt lat="48.2106" lon="-3.07664">
        <ele>96</ele>
        <time>2015-06-10T12:06:04Z</time>
      </trkpt>
      <trkpt lat="48.21061" lon="-3.07663">
        <ele>96</ele>
        <time>2015-06-10T12:06:06Z</time>
      </trkpt>
      <trkpt lat="48.2106" lon="-3.07665">
        <ele>96</ele>
        <time>2015-06-10T12:06:10Z</time>
      </trkpt>
      <trkpt lat="48.21059" lon="-3.07666">
        <ele>96</ele>
        <time>2015-06-10T12:06:13Z</time>
      </trkpt>
      <trkpt lat="48.21058" lon="-3.07668">
        <ele>96</ele>
        <time>2015-06-10T12:06:17Z</time>
      </trkpt>
      <trkpt lat="48.21058" lon="-3.0767">
        <ele>96</ele>
        <time>2015-06-10T12:06:21Z</time>
      </trkpt>
      <trkpt lat="48.21057" lon="-3.07672">
        <ele>96</ele>
        <time>2015-06-10T12:06:24Z</time>
      </trkpt>
      <trkpt lat="48.21059" lon="-3.07674">
        <ele>96</ele>
        <time>2015-06-10T12:06:27Z</time>
      </trkpt>
      <trkpt lat="48.21061" lon="-3.07677">
        <ele>96</ele>
        <time>2015-06-10T12:06:29Z</time>
      </trkpt>
      <trkpt lat="48.21062" lon="-3.07679">
        <ele>96</ele>
        <time>2015-06-10T12:06:31Z</time>
      </trkpt>
      <trkpt lat="48.21063" lon="-3.07681">
        <ele>96</ele>
        <time>2015-06-10T12:06:33Z</time>
      </trkpt>
      <trkpt lat="48.21064" lon="-3.07682">
        <ele>96</ele>
        <time>2015-06-10T12:06:35Z</time>
      </trkpt>
      <trkpt lat="48.21063" lon="-3.0768">
        <ele>96</ele>
        <time>2015-06-10T12:06:43Z</time>
      </trkpt>
      <trkpt lat="48.21062" lon="-3.0768">
        <ele>96</ele>
        <time>2015-06-10T12:06:47Z</time>
      </trkpt>
      <trkpt lat="48.21063" lon="-3.07679">
        <ele>96</ele>
        <time>2015-06-10T12:07:01Z</time>
      </trkpt>
      <trkpt lat="48.21062" lon="-3.07681">
        <ele>96</ele>
        <time>2015-06-10T12:07:15Z</time>
      </trkpt>
      <trkpt lat="48.21064" lon="-3.07681">
        <ele>96</ele>
        <time>2015-06-10T12:07:29Z</time>
      </trkpt>
      <trkpt lat="48.21064" lon="-3.07682">
        <ele>96</ele>
        <time>2015-06-10T12:07:36Z</time>
      </trkpt>
      <trkpt lat="48.21066" lon="-3.07685">
        <ele>96</ele>
        <time>2015-06-10T12:07:39Z</time>
      </trkpt>
      <trkpt lat="48.21067" lon="-3.07686">
        <ele>96</ele>
        <time>2015-06-10T12:07:41Z</time>
      </trkpt>
      <trkpt lat="48.21068" lon="-3.07688">
        <ele>96</ele>
        <time>2015-06-10T12:07:43Z</time>
      </trkpt>
      <trkpt lat="48.2107" lon="-3.07691">
        <ele>96</ele>
        <time>2015-06-10T12:07:45Z</time>
      </trkpt>
      <trkpt lat="48.21071" lon="-3.07694">
        <ele>96</ele>
        <time>2015-06-10T12:07:47Z</time>
      </trkpt>
      <trkpt lat="48.21072" lon="-3.07697">
        <ele>96</ele>
        <time>2015-06-10T12:07:49Z</time>
      </trkpt>
      <trkpt lat="48.21073" lon="-3.077">
        <ele>96</ele>
        <time>2015-06-10T12:07:51Z</time>
      </trkpt>
      <trkpt lat="48.21074" lon="-3.07702">
        <ele>96</ele>
        <time>2015-06-10T12:07:53Z</time>
      </trkpt>
      <trkpt lat="48.21075" lon="-3.07705">
        <ele>96</ele>
        <time>2015-06-10T12:08:01Z</time>
      </trkpt>
      <trkpt lat="48.21076" lon="-3.07707">
        <ele>96</ele>
        <time>2015-06-10T12:08:03Z</time>
      </trkpt>
      <trkpt lat="48.21078" lon="-3.07709">
        <ele>96</ele>
        <time>2015-06-10T12:08:05Z</time>
      </trkpt>
      <trkpt lat="48.2108" lon="-3.07711">
        <ele>96</ele>
        <time>2015-06-10T12:08:07Z</time>
      </trkpt>
      <trkpt lat="48.21082" lon="-3.07713">
        <ele>96</ele>
        <time>2015-06-10T12:08:09Z</time>
      </trkpt>
      <trkpt lat="48.21084" lon="-3.07715">
        <ele>96</ele>
        <time>2015-06-10T12:08:11Z</time>
      </trkpt>
      <trkpt lat="48.21085" lon="-3.07717">
        <ele>96</ele>
        <time>2015-06-10T12:08:13Z</time>
      </trkpt>
      <trkpt lat="48.21086" lon="-3.07718">
        <ele>96</ele>
        <time>2015-06-10T12:08:15Z</time>
      </trkpt>
      <trkpt lat="48.21088" lon="-3.0772">
        <ele>96</ele>
        <time>2015-06-10T12:08:17Z</time>
      </trkpt>
      <trkpt lat="48.2109" lon="-3.07722">
        <ele>96</ele>
        <time>2015-06-10T12:08:19Z</time>
      </trkpt>
      <trkpt lat="48.21093" lon="-3.07723">
        <ele>96</ele>
        <time>2015-06-10T12:08:21Z</time>
      </trkpt>
      <trkpt lat="48.21096" lon="-3.07726">
        <ele>96</ele>
        <time>2015-06-10T12:08:24Z</time>
      </trkpt>
      <trkpt lat="48.21097" lon="-3.07729">
        <ele>96</ele>
        <time>2015-06-10T12:08:26Z</time>
      </trkpt>
      <trkpt lat="48.21097" lon="-3.07731">
        <ele>96</ele>
        <time>2015-06-10T12:08:28Z</time>
      </trkpt>
      <trkpt lat="48.21098" lon="-3.07733">
        <ele>96</ele>
        <time>2015-06-10T12:08:31Z</time>
      </trkpt>
      <trkpt lat="48.21099" lon="-3.07735">
        <ele>96</ele>
        <time>2015-06-10T12:08:33Z</time>
      </trkpt>
      <trkpt lat="48.21101" lon="-3.07737">
        <ele>96</ele>
        <time>2015-06-10T12:08:35Z</time>
      </trkpt>
      <trkpt lat="48.21102" lon="-3.07739">
        <ele>96</ele>
        <time>2015-06-10T12:08:37Z</time>
      </trkpt>
      <trkpt lat="48.21102" lon="-3.07741">
        <ele>96</ele>
        <time>2015-06-10T12:08:46Z</time>
      </trkpt>
      <trkpt lat="48.21104" lon="-3.07742">
        <ele>96</ele>
        <time>2015-06-10T12:09:05Z</time>
      </trkpt>
      <trkpt lat="48.21105" lon="-3.07744">
        <ele>96</ele>
        <time>2015-06-10T12:09:08Z</time>
      </trkpt>
      <trkpt lat="48.21107" lon="-3.07746">
        <ele>97</ele>
        <time>2015-06-10T12:09:12Z</time>
      </trkpt>
      <trkpt lat="48.21108" lon="-3.07748">
        <ele>97</ele>
        <time>2015-06-10T12:09:14Z</time>
      </trkpt>
      <trkpt lat="48.21109" lon="-3.07749">
        <ele>97</ele>
        <time>2015-06-10T12:09:16Z</time>
      </trkpt>
      <trkpt lat="48.21108" lon="-3.07746">
        <ele>97</ele>
        <time>2015-06-10T12:09:21Z</time>
      </trkpt>
      <trkpt lat="48.21106" lon="-3.07747">
        <ele>99</ele>
        <time>2015-06-10T12:09:29Z</time>
      </trkpt>
      <trkpt lat="48.21105" lon="-3.07749">
        <ele>99</ele>
        <time>2015-06-10T12:09:31Z</time>
      </trkpt>
      <trkpt lat="48.21106" lon="-3.0775">
        <ele>99</ele>
        <time>2015-06-10T12:09:35Z</time>
      </trkpt>
      <trkpt lat="48.21105" lon="-3.0775">
        <ele>99</ele>
        <time>2015-06-10T12:09:38Z</time>
      </trkpt>
      <trkpt lat="48.21101" lon="-3.07751">
        <ele>99</ele>
        <time>2015-06-10T12:09:41Z</time>
      </trkpt>
      <trkpt lat="48.21098" lon="-3.07752">
        <ele>99</ele>
        <time>2015-06-10T12:09:43Z</time>
      </trkpt>
      <trkpt lat="48.21097" lon="-3.07753">
        <ele>99</ele>
        <time>2015-06-10T12:09:46Z</time>
      </trkpt>
      <trkpt lat="48.21096" lon="-3.07753">
        <ele>99</ele>
        <time>2015-06-10T12:09:49Z</time>
      </trkpt>
      <trkpt lat="48.21096" lon="-3.07753">
        <ele>99</ele>
        <time>2015-06-10T12:09:53Z</time>
      </trkpt>
      <trkpt lat="48.21099" lon="-3.07753">
        <ele>99</ele>
        <time>2015-06-10T12:09:55Z</time>
      </trkpt>
      <trkpt lat="48.211" lon="-3.07753">
        <ele>99</ele>
        <time>2015-06-10T12:09:57Z</time>
      </trkpt>
      <trkpt lat="48.21102" lon="-3.07753">
        <ele>99</ele>
        <time>2015-06-10T12:10:00Z</time>
      </trkpt>
      <trkpt lat="48.21103" lon="-3.07753">
        <ele>99</ele>
        <time>2015-06-10T12:10:03Z</time>
      </trkpt>
      <trkpt lat="48.21104" lon="-3.07753">
        <ele>99</ele>
        <time>2015-06-10T12:10:07Z</time>
      </trkpt>
      <trkpt lat="48.21105" lon="-3.07753">
        <ele>99</ele>
        <time>2015-06-10T12:10:16Z</time>
      </trkpt>
      <trkpt lat="48.21106" lon="-3.07754">
        <ele>99</ele>
        <time>2015-06-10T12:10:31Z</time>
      </trkpt>
      <trkpt lat="48.21108" lon="-3.07753">
        <ele>99</ele>
        <time>2015-06-10T12:10:51Z</time>
      </trkpt>
      <trkpt lat="48.21107" lon="-3.07755">
        <ele>99</ele>
        <time>2015-06-10T12:10:59Z</time>
      </trkpt>
      <trkpt lat="48.21105" lon="-3.07755">
        <ele>99</ele>
        <time>2015-06-10T12:11:02Z</time>
      </trkpt>
      <trkpt lat="48.21104" lon="-3.07756">
        <ele>99</ele>
        <time>2015-06-10T12:11:07Z</time>
      </trkpt>
      <trkpt lat="48.21104" lon="-3.07758">
        <ele>99</ele>
        <time>2015-06-10T12:11:20Z</time>
      </trkpt>
      <trkpt lat="48.21105" lon="-3.07758">
        <ele>99</ele>
        <time>2015-06-10T12:11:45Z</time>
      </trkpt>
      <trkpt lat="48.21107" lon="-3.07757">
        <ele>99</ele>
        <time>2015-06-10T12:11:55Z</time>
      </trkpt>
      <trkpt lat="48.21106" lon="-3.07757">
        <ele>98</ele>
        <time>2015-06-10T12:12:32Z</time>
      </trkpt>
      <trkpt lat="48.21104" lon="-3.07758">
        <ele>98</ele>
        <time>2015-06-10T12:12:48Z</time>
      </trkpt>
      <trkpt lat="48.21104" lon="-3.0776">
        <ele>98</ele>
        <time>2015-06-10T12:12:59Z</time>
      </trkpt>
      <trkpt lat="48.21104" lon="-3.07761">
        <ele>98</ele>
        <time>2015-06-10T12:13:03Z</time>
      </trkpt>
      <trkpt lat="48.21104" lon="-3.07759">
        <ele>98</ele>
        <time>2015-06-10T12:13:08Z</time>
      </trkpt>
      <trkpt lat="48.21106" lon="-3.07756">
        <ele>98</ele>
        <time>2015-06-10T12:13:11Z</time>
      </trkpt>
      <trkpt lat="48.21107" lon="-3.07755">
        <ele>98</ele>
        <time>2015-06-10T12:13:13Z</time>
      </trkpt>
      <trkpt lat="48.21108" lon="-3.07753">
        <ele>98</ele>
        <time>2015-06-10T12:13:24Z</time>
      </trkpt>
      <trkpt lat="48.2111" lon="-3.07752">
        <ele>98</ele>
        <time>2015-06-10T12:13:36Z</time>
      </trkpt>
      <trkpt lat="48.2111" lon="-3.07754">
        <ele>98</ele>
        <time>2015-06-10T12:13:42Z</time>
      </trkpt>
      <trkpt lat="48.2111" lon="-3.07756">
        <ele>98</ele>
        <time>2015-06-10T12:14:00Z</time>
      </trkpt>
      <trkpt lat="48.2111" lon="-3.07758">
        <ele>98</ele>
        <time>2015-06-10T12:14:02Z</time>
      </trkpt>
      <trkpt lat="48.2111" lon="-3.07759">
        <ele>98</ele>
        <time>2015-06-10T12:14:07Z</time>
      </trkpt>
      <trkpt lat="48.21111" lon="-3.07761">
        <ele>98</ele>
        <time>2015-06-10T12:14:10Z</time>
      </trkpt>
      <trkpt lat="48.21111" lon="-3.07763">
        <ele>98</ele>
        <time>2015-06-10T12:14:13Z</time>
      </trkpt>
      <trkpt lat="48.21113" lon="-3.07764">
        <ele>98</ele>
        <time>2015-06-10T12:14:18Z</time>
      </trkpt>
      <trkpt lat="48.21114" lon="-3.07766">
        <ele>98</ele>
        <time>2015-06-10T12:14:21Z</time>
      </trkpt>
      <trkpt lat="48.21115" lon="-3.07768">
        <ele>98</ele>
        <time>2015-06-10T12:14:24Z</time>
      </trkpt>
      <trkpt lat="48.21116" lon="-3.07769">
        <ele>98</ele>
        <time>2015-06-10T12:14:29Z</time>
      </trkpt>
      <trkpt lat="48.21117" lon="-3.0777">
        <ele>98</ele>
        <time>2015-06-10T12:14:32Z</time>
      </trkpt>
      <trkpt lat="48.21118" lon="-3.07773">
        <ele>98</ele>
        <time>2015-06-10T12:14:34Z</time>
      </trkpt>
      <trkpt lat="48.21118" lon="-3.07776">
        <ele>98</ele>
        <time>2015-06-10T12:14:36Z</time>
      </trkpt>
      <trkpt lat="48.21117" lon="-3.07778">
        <ele>99</ele>
        <time>2015-06-10T12:14:38Z</time>
      </trkpt>
      <trkpt lat="48.21117" lon="-3.0778">
        <ele>100</ele>
        <time>2015-06-10T12:15:04Z</time>
      </trkpt>
      <trkpt lat="48.21118" lon="-3.07782">
        <ele>100</ele>
        <time>2015-06-10T12:15:06Z</time>
      </trkpt>
      <trkpt lat="48.21118" lon="-3.07784">
        <ele>100</ele>
        <time>2015-06-10T12:15:08Z</time>
      </trkpt>
      <trkpt lat="48.21119" lon="-3.07787">
        <ele>100</ele>
        <time>2015-06-10T12:15:10Z</time>
      </trkpt>
      <trkpt lat="48.2112" lon="-3.07789">
        <ele>100</ele>
        <time>2015-06-10T12:15:12Z</time>
      </trkpt>
      <trkpt lat="48.21121" lon="-3.07791">
        <ele>100</ele>
        <time>2015-06-10T12:15:14Z</time>
      </trkpt>
      <trkpt lat="48.21122" lon="-3.07793">
        <ele>100</ele>
        <time>2015-06-10T12:15:16Z</time>
      </trkpt>
      <trkpt lat="48.21124" lon="-3.07794">
        <ele>101</ele>
        <time>2015-06-10T12:15:18Z</time>
      </trkpt>
      <trkpt lat="48.21125" lon="-3.07795">
        <ele>101</ele>
        <time>2015-06-10T12:15:20Z</time>
      </trkpt>
      <trkpt lat="48.21127" lon="-3.07796">
        <ele>102</ele>
        <time>2015-06-10T12:15:22Z</time>
      </trkpt>
      <trkpt lat="48.21128" lon="-3.07797">
        <ele>103</ele>
        <time>2015-06-10T12:15:24Z</time>
      </trkpt>
      <trkpt lat="48.21129" lon="-3.07798">
        <ele>103</ele>
        <time>2015-06-10T12:15:26Z</time>
      </trkpt>
      <trkpt lat="48.2113" lon="-3.078">
        <ele>104</ele>
        <time>2015-06-10T12:15:29Z</time>
      </trkpt>
      <trkpt lat="48.2113" lon="-3.07802">
        <ele>104</ele>
        <time>2015-06-10T12:15:31Z</time>
      </trkpt>
      <trkpt lat="48.21131" lon="-3.07801">
        <ele>105</ele>
        <time>2015-06-10T12:15:56Z</time>
      </trkpt>
      <trkpt lat="48.21133" lon="-3.07799">
        <ele>105</ele>
        <time>2015-06-10T12:15:58Z</time>
      </trkpt>
      <trkpt lat="48.21136" lon="-3.078">
        <ele>105</ele>
        <time>2015-06-10T12:16:01Z</time>
      </trkpt>
      <trkpt lat="48.2114" lon="-3.07803">
        <ele>105</ele>
        <time>2015-06-10T12:16:04Z</time>
      </trkpt>
      <trkpt lat="48.21141" lon="-3.07805">
        <ele>105</ele>
        <time>2015-06-10T12:16:06Z</time>
      </trkpt>
      <trkpt lat="48.21143" lon="-3.07806">
        <ele>105</ele>
        <time>2015-06-10T12:16:08Z</time>
      </trkpt>
      <trkpt lat="48.21144" lon="-3.07808">
        <ele>105</ele>
        <time>2015-06-10T12:16:10Z</time>
      </trkpt>
      <trkpt lat="48.21146" lon="-3.07809">
        <ele>105</ele>
        <time>2015-06-10T12:16:12Z</time>
      </trkpt>
      <trkpt lat="48.21148" lon="-3.0781">
        <ele>105</ele>
        <time>2015-06-10T12:16:14Z</time>
      </trkpt>
      <trkpt lat="48.21149" lon="-3.0781">
        <ele>105</ele>
        <time>2015-06-10T12:16:16Z</time>
      </trkpt>
      <trkpt lat="48.2115" lon="-3.07809">
        <ele>105</ele>
        <time>2015-06-10T12:16:27Z</time>
      </trkpt>
      <trkpt lat="48.21151" lon="-3.07809">
        <ele>105</ele>
        <time>2015-06-10T12:16:30Z</time>
      </trkpt>
      <trkpt lat="48.21153" lon="-3.07809">
        <ele>105</ele>
        <time>2015-06-10T12:16:33Z</time>
      </trkpt>
      <trkpt lat="48.21154" lon="-3.07807">
        <ele>105</ele>
        <time>2015-06-10T12:16:35Z</time>
      </trkpt>
      <trkpt lat="48.21155" lon="-3.07807">
        <ele>105</ele>
        <time>2015-06-10T12:16:37Z</time>
      </trkpt>
      <trkpt lat="48.21157" lon="-3.07807">
        <ele>105</ele>
        <time>2015-06-10T12:16:39Z</time>
      </trkpt>
      <trkpt lat="48.21159" lon="-3.07807">
        <ele>105</ele>
        <time>2015-06-10T12:16:41Z</time>
      </trkpt>
      <trkpt lat="48.21162" lon="-3.07807">
        <ele>105</ele>
        <time>2015-06-10T12:16:43Z</time>
      </trkpt>
      <trkpt lat="48.21164" lon="-3.07807">
        <ele>105</ele>
        <time>2015-06-10T12:16:45Z</time>
      </trkpt>
      <trkpt lat="48.21166" lon="-3.07808">
        <ele>104</ele>
        <time>2015-06-10T12:16:47Z</time>
      </trkpt>
      <trkpt lat="48.21167" lon="-3.07809">
        <ele>103</ele>
        <time>2015-06-10T12:16:49Z</time>
      </trkpt>
      <trkpt lat="48.21168" lon="-3.07812">
        <ele>103</ele>
        <time>2015-06-10T12:16:52Z</time>
      </trkpt>
      <trkpt lat="48.21169" lon="-3.07814">
        <ele>103</ele>
        <time>2015-06-10T12:16:57Z</time>
      </trkpt>
      <trkpt lat="48.2117" lon="-3.07816">
        <ele>103</ele>
        <time>2015-06-10T12:17:03Z</time>
      </trkpt>
      <trkpt lat="48.2117" lon="-3.07818">
        <ele>103</ele>
        <time>2015-06-10T12:17:06Z</time>
      </trkpt>
      <trkpt lat="48.2117" lon="-3.0782">
        <ele>103</ele>
        <time>2015-06-10T12:17:10Z</time>
      </trkpt>
      <trkpt lat="48.2117" lon="-3.07822">
        <ele>106</ele>
        <time>2015-06-10T12:17:15Z</time>
      </trkpt>
      <trkpt lat="48.2117" lon="-3.07824">
        <ele>109</ele>
        <time>2015-06-10T12:17:19Z</time>
      </trkpt>
      <trkpt lat="48.2117" lon="-3.07826">
        <ele>111</ele>
        <time>2015-06-10T12:17:21Z</time>
      </trkpt>
      <trkpt lat="48.2117" lon="-3.07824">
        <ele>115</ele>
        <time>2015-06-10T12:17:32Z</time>
      </trkpt>
      <trkpt lat="48.2117" lon="-3.07822">
        <ele>115</ele>
        <time>2015-06-10T12:17:35Z</time>
      </trkpt>
      <trkpt lat="48.2117" lon="-3.07819">
        <ele>112</ele>
        <time>2015-06-10T12:17:39Z</time>
      </trkpt>
      <trkpt lat="48.2117" lon="-3.07821">
        <ele>109</ele>
        <time>2015-06-10T12:17:45Z</time>
      </trkpt>
      <trkpt lat="48.21171" lon="-3.07824">
        <ele>109</ele>
        <time>2015-06-10T12:17:47Z</time>
      </trkpt>
      <trkpt lat="48.2117" lon="-3.07827">
        <ele>109</ele>
        <time>2015-06-10T12:17:50Z</time>
      </trkpt>
      <trkpt lat="48.21168" lon="-3.07829">
        <ele>109</ele>
        <time>2015-06-10T12:17:52Z</time>
      </trkpt>
      <trkpt lat="48.21167" lon="-3.07831">
        <ele>109</ele>
        <time>2015-06-10T12:17:54Z</time>
      </trkpt>
      <trkpt lat="48.21166" lon="-3.07833">
        <ele>109</ele>
        <time>2015-06-10T12:17:56Z</time>
      </trkpt>
      <trkpt lat="48.21165" lon="-3.07835">
        <ele>109</ele>
        <time>2015-06-10T12:18:01Z</time>
      </trkpt>
      <trkpt lat="48.21166" lon="-3.07837">
        <ele>109</ele>
        <time>2015-06-10T12:18:03Z</time>
      </trkpt>
      <trkpt lat="48.21166" lon="-3.07839">
        <ele>109</ele>
        <time>2015-06-10T12:18:06Z</time>
      </trkpt>
      <trkpt lat="48.21166" lon="-3.07841">
        <ele>109</ele>
        <time>2015-06-10T12:18:08Z</time>
      </trkpt>
      <trkpt lat="48.21166" lon="-3.07843">
        <ele>108</ele>
        <time>2015-06-10T12:18:10Z</time>
      </trkpt>
      <trkpt lat="48.21165" lon="-3.07845">
        <ele>108</ele>
        <time>2015-06-10T12:18:12Z</time>
      </trkpt>
      <trkpt lat="48.21166" lon="-3.07847">
        <ele>108</ele>
        <time>2015-06-10T12:18:14Z</time>
      </trkpt>
      <trkpt lat="48.21167" lon="-3.0785">
        <ele>108</ele>
        <time>2015-06-10T12:18:16Z</time>
      </trkpt>
      <trkpt lat="48.21167" lon="-3.07852">
        <ele>108</ele>
        <time>2015-06-10T12:18:18Z</time>
      </trkpt>
      <trkpt lat="48.21167" lon="-3.07854">
        <ele>108</ele>
        <time>2015-06-10T12:18:32Z</time>
      </trkpt>
      <trkpt lat="48.21167" lon="-3.07855">
        <ele>107</ele>
        <time>2015-06-10T12:18:57Z</time>
      </trkpt>
      <trkpt lat="48.21167" lon="-3.07857">
        <ele>107</ele>
        <time>2015-06-10T12:20:08Z</time>
      </trkpt>
      <trkpt lat="48.21166" lon="-3.07859">
        <ele>107</ele>
        <time>2015-06-10T12:20:11Z</time>
      </trkpt>
      <trkpt lat="48.21165" lon="-3.07862">
        <ele>107</ele>
        <time>2015-06-10T12:20:14Z</time>
      </trkpt>
      <trkpt lat="48.21165" lon="-3.07864">
        <ele>107</ele>
        <time>2015-06-10T12:20:16Z</time>
      </trkpt>
      <trkpt lat="48.21166" lon="-3.07867">
        <ele>107</ele>
        <time>2015-06-10T12:20:18Z</time>
      </trkpt>
      <trkpt lat="48.21167" lon="-3.07869">
        <ele>106</ele>
        <time>2015-06-10T12:20:20Z</time>
      </trkpt>
      <trkpt lat="48.21167" lon="-3.07871">
        <ele>106</ele>
        <time>2015-06-10T12:20:22Z</time>
      </trkpt>
      <trkpt lat="48.21168" lon="-3.07871">
        <ele>106</ele>
        <time>2015-06-10T12:20:38Z</time>
      </trkpt>
      <trkpt lat="48.21169" lon="-3.07873">
        <ele>106</ele>
        <time>2015-06-10T12:20:41Z</time>
      </trkpt>
      <trkpt lat="48.21171" lon="-3.07874">
        <ele>106</ele>
        <time>2015-06-10T12:20:43Z</time>
      </trkpt>
      <trkpt lat="48.21171" lon="-3.07876">
        <ele>106</ele>
        <time>2015-06-10T12:20:46Z</time>
      </trkpt>
      <trkpt lat="48.21172" lon="-3.07877">
        <ele>106</ele>
        <time>2015-06-10T12:20:49Z</time>
      </trkpt>
      <trkpt lat="48.21172" lon="-3.0788">
        <ele>106</ele>
        <time>2015-06-10T12:20:51Z</time>
      </trkpt>
      <trkpt lat="48.21173" lon="-3.07884">
        <ele>106</ele>
        <time>2015-06-10T12:20:54Z</time>
      </trkpt>
      <trkpt lat="48.21174" lon="-3.07886">
        <ele>106</ele>
        <time>2015-06-10T12:20:57Z</time>
      </trkpt>
      <trkpt lat="48.21175" lon="-3.07888">
        <ele>106</ele>
        <time>2015-06-10T12:20:59Z</time>
      </trkpt>
      <trkpt lat="48.21175" lon="-3.07893">
        <ele>106</ele>
        <time>2015-06-10T12:21:02Z</time>
      </trkpt>
      <trkpt lat="48.21176" lon="-3.07895">
        <ele>106</ele>
        <time>2015-06-10T12:21:04Z</time>
      </trkpt>
      <trkpt lat="48.21176" lon="-3.07898">
        <ele>106</ele>
        <time>2015-06-10T12:21:06Z</time>
      </trkpt>
      <trkpt lat="48.21176" lon="-3.07901">
        <ele>106</ele>
        <time>2015-06-10T12:21:08Z</time>
      </trkpt>
      <trkpt lat="48.21176" lon="-3.07904">
        <ele>106</ele>
        <time>2015-06-10T12:21:10Z</time>
      </trkpt>
      <trkpt lat="48.21176" lon="-3.07907">
        <ele>106</ele>
        <time>2015-06-10T12:21:12Z</time>
      </trkpt>
      <trkpt lat="48.21177" lon="-3.07909">
        <ele>106</ele>
        <time>2015-06-10T12:21:14Z</time>
      </trkpt>
      <trkpt lat="48.21178" lon="-3.07911">
        <ele>106</ele>
        <time>2015-06-10T12:21:16Z</time>
      </trkpt>
      <trkpt lat="48.21178" lon="-3.07913">
        <ele>106</ele>
        <time>2015-06-10T12:21:18Z</time>
      </trkpt>
      <trkpt lat="48.21178" lon="-3.07915">
        <ele>105</ele>
        <time>2015-06-10T12:21:20Z</time>
      </trkpt>
      <trkpt lat="48.21179" lon="-3.07917">
        <ele>105</ele>
        <time>2015-06-10T12:21:24Z</time>
      </trkpt>
      <trkpt lat="48.2118" lon="-3.07919">
        <ele>105</ele>
        <time>2015-06-10T12:21:29Z</time>
      </trkpt>
      <trkpt lat="48.21181" lon="-3.0792">
        <ele>104</ele>
        <time>2015-06-10T12:21:32Z</time>
      </trkpt>
      <trkpt lat="48.21183" lon="-3.0792">
        <ele>104</ele>
        <time>2015-06-10T12:21:34Z</time>
      </trkpt>
      <trkpt lat="48.21186" lon="-3.0792">
        <ele>103</ele>
        <time>2015-06-10T12:21:36Z</time>
      </trkpt>
      <trkpt lat="48.21189" lon="-3.07921">
        <ele>103</ele>
        <time>2015-06-10T12:21:38Z</time>
      </trkpt>
      <trkpt lat="48.21191" lon="-3.07922">
        <ele>103</ele>
        <time>2015-06-10T12:21:40Z</time>
      </trkpt>
      <trkpt lat="48.21193" lon="-3.07923">
        <ele>103</ele>
        <time>2015-06-10T12:21:42Z</time>
      </trkpt>
      <trkpt lat="48.21196" lon="-3.07923">
        <ele>103</ele>
        <time>2015-06-10T12:21:44Z</time>
      </trkpt>
      <trkpt lat="48.21199" lon="-3.07923">
        <ele>103</ele>
        <time>2015-06-10T12:21:47Z</time>
      </trkpt>
      <trkpt lat="48.212" lon="-3.07924">
        <ele>103</ele>
        <time>2015-06-10T12:21:49Z</time>
      </trkpt>
      <trkpt lat="48.21201" lon="-3.07926">
        <ele>103</ele>
        <time>2015-06-10T12:21:51Z</time>
      </trkpt>
      <trkpt lat="48.21202" lon="-3.07928">
        <ele>103</ele>
        <time>2015-06-10T12:21:53Z</time>
      </trkpt>
      <trkpt lat="48.21203" lon="-3.07929">
        <ele>103</ele>
        <time>2015-06-10T12:21:55Z</time>
      </trkpt>
      <trkpt lat="48.21204" lon="-3.0793">
        <ele>103</ele>
        <time>2015-06-10T12:21:57Z</time>
      </trkpt>
      <trkpt lat="48.21206" lon="-3.07932">
        <ele>103</ele>
        <time>2015-06-10T12:22:00Z</time>
      </trkpt>
      <trkpt lat="48.21206" lon="-3.07935">
        <ele>103</ele>
        <time>2015-06-10T12:22:02Z</time>
      </trkpt>
      <trkpt lat="48.21205" lon="-3.07938">
        <ele>103</ele>
        <time>2015-06-10T12:22:04Z</time>
      </trkpt>
      <trkpt lat="48.21204" lon="-3.0794">
        <ele>103</ele>
        <time>2015-06-10T12:22:06Z</time>
      </trkpt>
      <trkpt lat="48.21204" lon="-3.07943">
        <ele>103</ele>
        <time>2015-06-10T12:22:08Z</time>
      </trkpt>
      <trkpt lat="48.21205" lon="-3.07944">
        <ele>103</ele>
        <time>2015-06-10T12:22:11Z</time>
      </trkpt>
      <trkpt lat="48.21205" lon="-3.07946">
        <ele>103</ele>
        <time>2015-06-10T12:22:58Z</time>
      </trkpt>
      <trkpt lat="48.21204" lon="-3.07947">
        <ele>103</ele>
        <time>2015-06-10T12:23:00Z</time>
      </trkpt>
      <trkpt lat="48.21202" lon="-3.07948">
        <ele>103</ele>
        <time>2015-06-10T12:23:02Z</time>
      </trkpt>
      <trkpt lat="48.21199" lon="-3.07949">
        <ele>103</ele>
        <time>2015-06-10T12:23:04Z</time>
      </trkpt>
      <trkpt lat="48.21197" lon="-3.07949">
        <ele>103</ele>
        <time>2015-06-10T12:23:06Z</time>
      </trkpt>
      <trkpt lat="48.21196" lon="-3.07949">
        <ele>103</ele>
        <time>2015-06-10T12:23:08Z</time>
      </trkpt>
      <trkpt lat="48.21194" lon="-3.07948">
        <ele>103</ele>
        <time>2015-06-10T12:23:10Z</time>
      </trkpt>
      <trkpt lat="48.21193" lon="-3.07948">
        <ele>103</ele>
        <time>2015-06-10T12:23:12Z</time>
      </trkpt>
      <trkpt lat="48.21192" lon="-3.07947">
        <ele>103</ele>
        <time>2015-06-10T12:23:14Z</time>
      </trkpt>
      <trkpt lat="48.21191" lon="-3.07946">
        <ele>103</ele>
        <time>2015-06-10T12:23:17Z</time>
      </trkpt>
      <trkpt lat="48.21189" lon="-3.07945">
        <ele>103</ele>
        <time>2015-06-10T12:23:25Z</time>
      </trkpt>
      <trkpt lat="48.21188" lon="-3.07945">
        <ele>103</ele>
        <time>2015-06-10T12:23:32Z</time>
      </trkpt>
      <trkpt lat="48.21187" lon="-3.07944">
        <ele>103</ele>
        <time>2015-06-10T12:23:34Z</time>
      </trkpt>
      <trkpt lat="48.21186" lon="-3.07942">
        <ele>103</ele>
        <time>2015-06-10T12:23:36Z</time>
      </trkpt>
      <trkpt lat="48.21185" lon="-3.0794">
        <ele>103</ele>
        <time>2015-06-10T12:23:38Z</time>
      </trkpt>
      <trkpt lat="48.21183" lon="-3.07939">
        <ele>103</ele>
        <time>2015-06-10T12:23:44Z</time>
      </trkpt>
      <trkpt lat="48.21183" lon="-3.07937">
        <ele>103</ele>
        <time>2015-06-10T12:23:50Z</time>
      </trkpt>
      <trkpt lat="48.21185" lon="-3.07937">
        <ele>103</ele>
        <time>2015-06-10T12:23:53Z</time>
      </trkpt>
      <trkpt lat="48.21187" lon="-3.0794">
        <ele>103</ele>
        <time>2015-06-10T12:23:56Z</time>
      </trkpt>
      <trkpt lat="48.21189" lon="-3.07941">
        <ele>103</ele>
        <time>2015-06-10T12:23:58Z</time>
      </trkpt>
      <trkpt lat="48.21191" lon="-3.07943">
        <ele>103</ele>
        <time>2015-06-10T12:24:00Z</time>
      </trkpt>
      <trkpt lat="48.21194" lon="-3.07944">
        <ele>103</ele>
        <time>2015-06-10T12:24:02Z</time>
      </trkpt>
      <trkpt lat="48.21196" lon="-3.07947">
        <ele>103</ele>
        <time>2015-06-10T12:24:04Z</time>
      </trkpt>
      <trkpt lat="48.21198" lon="-3.07949">
        <ele>103</ele>
        <time>2015-06-10T12:24:06Z</time>
      </trkpt>
      <trkpt lat="48.21201" lon="-3.07948">
        <ele>103</ele>
        <time>2015-06-10T12:24:08Z</time>
      </trkpt>
      <trkpt lat="48.21204" lon="-3.07945">
        <ele>103</ele>
        <time>2015-06-10T12:24:11Z</time>
      </trkpt>
      <trkpt lat="48.21204" lon="-3.07942">
        <ele>103</ele>
        <time>2015-06-10T12:24:13Z</time>
      </trkpt>
      <trkpt lat="48.21206" lon="-3.07939">
        <ele>103</ele>
        <time>2015-06-10T12:24:15Z</time>
      </trkpt>
      <trkpt lat="48.21204" lon="-3.07934">
        <ele>103</ele>
        <time>2015-06-10T12:24:18Z</time>
      </trkpt>
      <trkpt lat="48.21203" lon="-3.07931">
        <ele>103</ele>
        <time>2015-06-10T12:24:20Z</time>
      </trkpt>
      <trkpt lat="48.21201" lon="-3.07927">
        <ele>103</ele>
        <time>2015-06-10T12:24:22Z</time>
      </trkpt>
      <trkpt lat="48.212" lon="-3.07925">
        <ele>103</ele>
        <time>2015-06-10T12:24:24Z</time>
      </trkpt>
      <trkpt lat="48.21198" lon="-3.07925">
        <ele>103</ele>
        <time>2015-06-10T12:24:26Z</time>
      </trkpt>
      <trkpt lat="48.21196" lon="-3.07925">
        <ele>103</ele>
        <time>2015-06-10T12:24:28Z</time>
      </trkpt>
      <trkpt lat="48.21194" lon="-3.07925">
        <ele>103</ele>
        <time>2015-06-10T12:24:30Z</time>
      </trkpt>
      <trkpt lat="48.21191" lon="-3.07924">
        <ele>103</ele>
        <time>2015-06-10T12:24:32Z</time>
      </trkpt>
      <trkpt lat="48.21189" lon="-3.07924">
        <ele>102</ele>
        <time>2015-06-10T12:24:34Z</time>
      </trkpt>
      <trkpt lat="48.21187" lon="-3.07923">
        <ele>102</ele>
        <time>2015-06-10T12:24:36Z</time>
      </trkpt>
      <trkpt lat="48.21184" lon="-3.07922">
        <ele>102</ele>
        <time>2015-06-10T12:24:38Z</time>
      </trkpt>
      <trkpt lat="48.21182" lon="-3.07921">
        <ele>102</ele>
        <time>2015-06-10T12:24:40Z</time>
      </trkpt>
      <trkpt lat="48.21181" lon="-3.07918">
        <ele>102</ele>
        <time>2015-06-10T12:24:42Z</time>
      </trkpt>
      <trkpt lat="48.2118" lon="-3.07914">
        <ele>102</ele>
        <time>2015-06-10T12:24:44Z</time>
      </trkpt>
      <trkpt lat="48.21178" lon="-3.07911">
        <ele>102</ele>
        <time>2015-06-10T12:24:46Z</time>
      </trkpt>
      <trkpt lat="48.21177" lon="-3.07909">
        <ele>102</ele>
        <time>2015-06-10T12:24:48Z</time>
      </trkpt>
      <trkpt lat="48.21176" lon="-3.07905">
        <ele>102</ele>
        <time>2015-06-10T12:24:50Z</time>
      </trkpt>
      <trkpt lat="48.21176" lon="-3.07901">
        <ele>102</ele>
        <time>2015-06-10T12:24:52Z</time>
      </trkpt>
      <trkpt lat="48.21176" lon="-3.07897">
        <ele>102</ele>
        <time>2015-06-10T12:24:54Z</time>
      </trkpt>
      <trkpt lat="48.21176" lon="-3.07894">
        <ele>102</ele>
        <time>2015-06-10T12:24:56Z</time>
      </trkpt>
      <trkpt lat="48.21176" lon="-3.0789">
        <ele>102</ele>
        <time>2015-06-10T12:24:58Z</time>
      </trkpt>
      <trkpt lat="48.21175" lon="-3.07887">
        <ele>102</ele>
        <time>2015-06-10T12:25:00Z</time>
      </trkpt>
      <trkpt lat="48.21174" lon="-3.07883">
        <ele>102</ele>
        <time>2015-06-10T12:25:02Z</time>
      </trkpt>
      <trkpt lat="48.21172" lon="-3.0788">
        <ele>102</ele>
        <time>2015-06-10T12:25:04Z</time>
      </trkpt>
      <trkpt lat="48.21172" lon="-3.07878">
        <ele>102</ele>
        <time>2015-06-10T12:25:06Z</time>
      </trkpt>
      <trkpt lat="48.2117" lon="-3.07875">
        <ele>102</ele>
        <time>2015-06-10T12:25:08Z</time>
      </trkpt>
      <trkpt lat="48.21169" lon="-3.07872">
        <ele>102</ele>
        <time>2015-06-10T12:25:10Z</time>
      </trkpt>
      <trkpt lat="48.21167" lon="-3.07869">
        <ele>102</ele>
        <time>2015-06-10T12:25:12Z</time>
      </trkpt>
      <trkpt lat="48.21166" lon="-3.07866">
        <ele>102</ele>
        <time>2015-06-10T12:25:14Z</time>
      </trkpt>
      <trkpt lat="48.21165" lon="-3.07862">
        <ele>102</ele>
        <time>2015-06-10T12:25:16Z</time>
      </trkpt>
      <trkpt lat="48.21164" lon="-3.0786">
        <ele>102</ele>
        <time>2015-06-10T12:25:18Z</time>
      </trkpt>
      <trkpt lat="48.21164" lon="-3.07858">
        <ele>102</ele>
        <time>2015-06-10T12:25:20Z</time>
      </trkpt>
      <trkpt lat="48.21162" lon="-3.07856">
        <ele>102</ele>
        <time>2015-06-10T12:25:28Z</time>
      </trkpt>
      <trkpt lat="48.21164" lon="-3.07855">
        <ele>102</ele>
        <time>2015-06-10T12:25:48Z</time>
      </trkpt>
      <trkpt lat="48.21164" lon="-3.07852">
        <ele>102</ele>
        <time>2015-06-10T12:25:50Z</time>
      </trkpt>
      <trkpt lat="48.21165" lon="-3.07849">
        <ele>102</ele>
        <time>2015-06-10T12:25:52Z</time>
      </trkpt>
      <trkpt lat="48.21166" lon="-3.07845">
        <ele>102</ele>
        <time>2015-06-10T12:25:54Z</time>
      </trkpt>
      <trkpt lat="48.21166" lon="-3.07841">
        <ele>102</ele>
        <time>2015-06-10T12:25:57Z</time>
      </trkpt>
      <trkpt lat="48.21165" lon="-3.07839">
        <ele>102</ele>
        <time>2015-06-10T12:26:00Z</time>
      </trkpt>
      <trkpt lat="48.21163" lon="-3.07839">
        <ele>102</ele>
        <time>2015-06-10T12:26:02Z</time>
      </trkpt>
      <trkpt lat="48.21162" lon="-3.07841">
        <ele>102</ele>
        <time>2015-06-10T12:26:04Z</time>
      </trkpt>
      <trkpt lat="48.2116" lon="-3.07842">
        <ele>102</ele>
        <time>2015-06-10T12:26:06Z</time>
      </trkpt>
      <trkpt lat="48.21159" lon="-3.07843">
        <ele>102</ele>
        <time>2015-06-10T12:26:08Z</time>
      </trkpt>
      <trkpt lat="48.21157" lon="-3.07842">
        <ele>102</ele>
        <time>2015-06-10T12:26:14Z</time>
      </trkpt>
      <trkpt lat="48.21156" lon="-3.07841">
        <ele>102</ele>
        <time>2015-06-10T12:26:17Z</time>
      </trkpt>
      <trkpt lat="48.21155" lon="-3.0784">
        <ele>102</ele>
        <time>2015-06-10T12:26:19Z</time>
      </trkpt>
      <trkpt lat="48.21153" lon="-3.07838">
        <ele>102</ele>
        <time>2015-06-10T12:26:21Z</time>
      </trkpt>
      <trkpt lat="48.21151" lon="-3.07836">
        <ele>102</ele>
        <time>2015-06-10T12:26:23Z</time>
      </trkpt>
      <trkpt lat="48.2115" lon="-3.07835">
        <ele>102</ele>
        <time>2015-06-10T12:26:25Z</time>
      </trkpt>
      <trkpt lat="48.21149" lon="-3.07834">
        <ele>102</ele>
        <time>2015-06-10T12:26:27Z</time>
      </trkpt>
      <trkpt lat="48.21148" lon="-3.07836">
        <ele>101</ele>
        <time>2015-06-10T12:26:31Z</time>
      </trkpt>
      <trkpt lat="48.21147" lon="-3.07839">
        <ele>100</ele>
        <time>2015-06-10T12:26:33Z</time>
      </trkpt>
      <trkpt lat="48.21145" lon="-3.0784">
        <ele>100</ele>
        <time>2015-06-10T12:26:35Z</time>
      </trkpt>
      <trkpt lat="48.21143" lon="-3.07842">
        <ele>99</ele>
        <time>2015-06-10T12:26:37Z</time>
      </trkpt>
      <trkpt lat="48.21141" lon="-3.07843">
        <ele>99</ele>
        <time>2015-06-10T12:26:39Z</time>
      </trkpt>
      <trkpt lat="48.21138" lon="-3.07845">
        <ele>98</ele>
        <time>2015-06-10T12:26:42Z</time>
      </trkpt>
      <trkpt lat="48.21135" lon="-3.07848">
        <ele>98</ele>
        <time>2015-06-10T12:26:45Z</time>
      </trkpt>
      <trkpt lat="48.21133" lon="-3.0785">
        <ele>98</ele>
        <time>2015-06-10T12:26:47Z</time>
      </trkpt>
      <trkpt lat="48.2113" lon="-3.07851">
        <ele>98</ele>
        <time>2015-06-10T12:26:49Z</time>
      </trkpt>
      <trkpt lat="48.21129" lon="-3.07852">
        <ele>98</ele>
        <time>2015-06-10T12:26:51Z</time>
      </trkpt>
      <trkpt lat="48.21127" lon="-3.07854">
        <ele>98</ele>
        <time>2015-06-10T12:26:53Z</time>
      </trkpt>
      <trkpt lat="48.21125" lon="-3.07854">
        <ele>97</ele>
        <time>2015-06-10T12:26:55Z</time>
      </trkpt>
      <trkpt lat="48.21123" lon="-3.07852">
        <ele>97</ele>
        <time>2015-06-10T12:26:57Z</time>
      </trkpt>
      <trkpt lat="48.21121" lon="-3.0785">
        <ele>96</ele>
        <time>2015-06-10T12:26:59Z</time>
      </trkpt>
      <trkpt lat="48.21122" lon="-3.07851">
        <ele>96</ele>
        <time>2015-06-10T12:27:04Z</time>
      </trkpt>
      <trkpt lat="48.21124" lon="-3.07854">
        <ele>96</ele>
        <time>2015-06-10T12:27:06Z</time>
      </trkpt>
      <trkpt lat="48.21125" lon="-3.07856">
        <ele>96</ele>
        <time>2015-06-10T12:27:08Z</time>
      </trkpt>
      <trkpt lat="48.21126" lon="-3.07858">
        <ele>96</ele>
        <time>2015-06-10T12:27:10Z</time>
      </trkpt>
      <trkpt lat="48.21127" lon="-3.07862">
        <ele>96</ele>
        <time>2015-06-10T12:27:12Z</time>
      </trkpt>
      <trkpt lat="48.21127" lon="-3.07865">
        <ele>96</ele>
        <time>2015-06-10T12:27:14Z</time>
      </trkpt>
      <trkpt lat="48.21128" lon="-3.07868">
        <ele>96</ele>
        <time>2015-06-10T12:27:16Z</time>
      </trkpt>
      <trkpt lat="48.21129" lon="-3.07872">
        <ele>96</ele>
        <time>2015-06-10T12:27:18Z</time>
      </trkpt>
      <trkpt lat="48.2113" lon="-3.07875">
        <ele>96</ele>
        <time>2015-06-10T12:27:20Z</time>
      </trkpt>
      <trkpt lat="48.21131" lon="-3.0788">
        <ele>96</ele>
        <time>2015-06-10T12:27:23Z</time>
      </trkpt>
      <trkpt lat="48.21132" lon="-3.07881">
        <ele>96</ele>
        <time>2015-06-10T12:27:25Z</time>
      </trkpt>
      <trkpt lat="48.21133" lon="-3.07884">
        <ele>96</ele>
        <time>2015-06-10T12:27:27Z</time>
      </trkpt>
      <trkpt lat="48.21133" lon="-3.07887">
        <ele>96</ele>
        <time>2015-06-10T12:27:29Z</time>
      </trkpt>
      <trkpt lat="48.21132" lon="-3.07888">
        <ele>96</ele>
        <time>2015-06-10T12:27:35Z</time>
      </trkpt>
      <trkpt lat="48.21133" lon="-3.07888">
        <ele>96</ele>
        <time>2015-06-10T12:27:37Z</time>
      </trkpt>
      <trkpt lat="48.21135" lon="-3.0789">
        <ele>96</ele>
        <time>2015-06-10T12:27:39Z</time>
      </trkpt>
      <trkpt lat="48.21136" lon="-3.07892">
        <ele>96</ele>
        <time>2015-06-10T12:27:41Z</time>
      </trkpt>
      <trkpt lat="48.21137" lon="-3.07895">
        <ele>96</ele>
        <time>2015-06-10T12:27:43Z</time>
      </trkpt>
      <trkpt lat="48.21138" lon="-3.07899">
        <ele>96</ele>
        <time>2015-06-10T12:27:45Z</time>
      </trkpt>
      <trkpt lat="48.21139" lon="-3.07904">
        <ele>96</ele>
        <time>2015-06-10T12:27:48Z</time>
      </trkpt>
      <trkpt lat="48.21141" lon="-3.07909">
        <ele>96</ele>
        <time>2015-06-10T12:27:51Z</time>
      </trkpt>
      <trkpt lat="48.21142" lon="-3.07912">
        <ele>96</ele>
        <time>2015-06-10T12:27:53Z</time>
      </trkpt>
      <trkpt lat="48.21143" lon="-3.07915">
        <ele>96</ele>
        <time>2015-06-10T12:27:55Z</time>
      </trkpt>
      <trkpt lat="48.21144" lon="-3.07918">
        <ele>96</ele>
        <time>2015-06-10T12:27:57Z</time>
      </trkpt>
      <trkpt lat="48.21144" lon="-3.07922">
        <ele>96</ele>
        <time>2015-06-10T12:27:59Z</time>
      </trkpt>
      <trkpt lat="48.21145" lon="-3.07925">
        <ele>96</ele>
        <time>2015-06-10T12:28:01Z</time>
      </trkpt>
      <trkpt lat="48.21146" lon="-3.07928">
        <ele>96</ele>
        <time>2015-06-10T12:28:03Z</time>
      </trkpt>
      <trkpt lat="48.21147" lon="-3.07931">
        <ele>96</ele>
        <time>2015-06-10T12:28:05Z</time>
      </trkpt>
      <trkpt lat="48.21147" lon="-3.07934">
        <ele>96</ele>
        <time>2015-06-10T12:28:07Z</time>
      </trkpt>
      <trkpt lat="48.21149" lon="-3.07937">
        <ele>96</ele>
        <time>2015-06-10T12:28:09Z</time>
      </trkpt>
      <trkpt lat="48.2115" lon="-3.07942">
        <ele>96</ele>
        <time>2015-06-10T12:28:12Z</time>
      </trkpt>
      <trkpt lat="48.21152" lon="-3.07946">
        <ele>96</ele>
        <time>2015-06-10T12:28:15Z</time>
      </trkpt>
      <trkpt lat="48.21152" lon="-3.07948">
        <ele>96</ele>
        <time>2015-06-10T12:28:18Z</time>
      </trkpt>
      <trkpt lat="48.21153" lon="-3.0795">
        <ele>96</ele>
        <time>2015-06-10T12:28:21Z</time>
      </trkpt>
      <trkpt lat="48.21153" lon="-3.07953">
        <ele>96</ele>
        <time>2015-06-10T12:28:23Z</time>
      </trkpt>
      <trkpt lat="48.21153" lon="-3.07955">
        <ele>96</ele>
        <time>2015-06-10T12:28:25Z</time>
      </trkpt>
      <trkpt lat="48.21154" lon="-3.07957">
        <ele>96</ele>
        <time>2015-06-10T12:28:33Z</time>
      </trkpt>
      <trkpt lat="48.21154" lon="-3.0796">
        <ele>96</ele>
        <time>2015-06-10T12:28:38Z</time>
      </trkpt>
      <trkpt lat="48.21155" lon="-3.07965">
        <ele>96</ele>
        <time>2015-06-10T12:28:41Z</time>
      </trkpt>
      <trkpt lat="48.21156" lon="-3.07969">
        <ele>96</ele>
        <time>2015-06-10T12:28:43Z</time>
      </trkpt>
      <trkpt lat="48.21156" lon="-3.07973">
        <ele>96</ele>
        <time>2015-06-10T12:28:45Z</time>
      </trkpt>
      <trkpt lat="48.21156" lon="-3.07976">
        <ele>96</ele>
        <time>2015-06-10T12:28:47Z</time>
      </trkpt>
      <trkpt lat="48.21156" lon="-3.0798">
        <ele>96</ele>
        <time>2015-06-10T12:28:49Z</time>
      </trkpt>
      <trkpt lat="48.21156" lon="-3.07983">
        <ele>96</ele>
        <time>2015-06-10T12:28:52Z</time>
      </trkpt>
      <trkpt lat="48.21156" lon="-3.07985">
        <ele>96</ele>
        <time>2015-06-10T12:28:56Z</time>
      </trkpt>
      <trkpt lat="48.21156" lon="-3.07987">
        <ele>96</ele>
        <time>2015-06-10T12:28:58Z</time>
      </trkpt>
      <trkpt lat="48.21156" lon="-3.07991">
        <ele>96</ele>
        <time>2015-06-10T12:29:00Z</time>
      </trkpt>
      <trkpt lat="48.21156" lon="-3.07995">
        <ele>96</ele>
        <time>2015-06-10T12:29:02Z</time>
      </trkpt>
      <trkpt lat="48.21156" lon="-3.07998">
        <ele>96</ele>
        <time>2015-06-10T12:29:04Z</time>
      </trkpt>
      <trkpt lat="48.21155" lon="-3.08002">
        <ele>96</ele>
        <time>2015-06-10T12:29:06Z</time>
      </trkpt>
      <trkpt lat="48.21155" lon="-3.08004">
        <ele>96</ele>
        <time>2015-06-10T12:29:08Z</time>
      </trkpt>
      <trkpt lat="48.21155" lon="-3.08008">
        <ele>96</ele>
        <time>2015-06-10T12:29:10Z</time>
      </trkpt>
      <trkpt lat="48.21154" lon="-3.08011">
        <ele>96</ele>
        <time>2015-06-10T12:29:12Z</time>
      </trkpt>
      <trkpt lat="48.21155" lon="-3.08013">
        <ele>96</ele>
        <time>2015-06-10T12:29:14Z</time>
      </trkpt>
      <trkpt lat="48.21155" lon="-3.08015">
        <ele>96</ele>
        <time>2015-06-10T12:29:16Z</time>
      </trkpt>
      <trkpt lat="48.21154" lon="-3.08018">
        <ele>96</ele>
        <time>2015-06-10T12:29:18Z</time>
      </trkpt>
      <trkpt lat="48.21154" lon="-3.08022">
        <ele>96</ele>
        <time>2015-06-10T12:29:20Z</time>
      </trkpt>
      <trkpt lat="48.21153" lon="-3.08026">
        <ele>96</ele>
        <time>2015-06-10T12:29:23Z</time>
      </trkpt>
      <trkpt lat="48.21152" lon="-3.08029">
        <ele>96</ele>
        <time>2015-06-10T12:29:25Z</time>
      </trkpt>
      <trkpt lat="48.21152" lon="-3.08031">
        <ele>96</ele>
        <time>2015-06-10T12:29:27Z</time>
      </trkpt>
      <trkpt lat="48.21151" lon="-3.08034">
        <ele>96</ele>
        <time>2015-06-10T12:29:29Z</time>
      </trkpt>
      <trkpt lat="48.21151" lon="-3.08036">
        <ele>96</ele>
        <time>2015-06-10T12:29:32Z</time>
      </trkpt>
      <trkpt lat="48.2115" lon="-3.08039">
        <ele>96</ele>
        <time>2015-06-10T12:29:34Z</time>
      </trkpt>
      <trkpt lat="48.21149" lon="-3.08043">
        <ele>96</ele>
        <time>2015-06-10T12:29:36Z</time>
      </trkpt>
      <trkpt lat="48.21148" lon="-3.08046">
        <ele>96</ele>
        <time>2015-06-10T12:29:38Z</time>
      </trkpt>
      <trkpt lat="48.21147" lon="-3.0805">
        <ele>96</ele>
        <time>2015-06-10T12:29:40Z</time>
      </trkpt>
      <trkpt lat="48.21146" lon="-3.08053">
        <ele>96</ele>
        <time>2015-06-10T12:29:42Z</time>
      </trkpt>
      <trkpt lat="48.21144" lon="-3.08057">
        <ele>96</ele>
        <time>2015-06-10T12:29:44Z</time>
      </trkpt>
      <trkpt lat="48.21143" lon="-3.08061">
        <ele>96</ele>
        <time>2015-06-10T12:29:47Z</time>
      </trkpt>
      <trkpt lat="48.21143" lon="-3.08065">
        <ele>96</ele>
        <time>2015-06-10T12:29:49Z</time>
      </trkpt>
      <trkpt lat="48.21141" lon="-3.08068">
        <ele>96</ele>
        <time>2015-06-10T12:29:51Z</time>
      </trkpt>
      <trkpt lat="48.2114" lon="-3.08072">
        <ele>96</ele>
        <time>2015-06-10T12:29:53Z</time>
      </trkpt>
      <trkpt lat="48.21138" lon="-3.08077">
        <ele>96</ele>
        <time>2015-06-10T12:29:56Z</time>
      </trkpt>
      <trkpt lat="48.21137" lon="-3.0808">
        <ele>96</ele>
        <time>2015-06-10T12:29:58Z</time>
      </trkpt>
      <trkpt lat="48.21136" lon="-3.08084">
        <ele>96</ele>
        <time>2015-06-10T12:30:00Z</time>
      </trkpt>
      <trkpt lat="48.21135" lon="-3.08088">
        <ele>96</ele>
        <time>2015-06-10T12:30:03Z</time>
      </trkpt>
      <trkpt lat="48.21135" lon="-3.08091">
        <ele>96</ele>
        <time>2015-06-10T12:30:05Z</time>
      </trkpt>
      <trkpt lat="48.21133" lon="-3.08095">
        <ele>96</ele>
        <time>2015-06-10T12:30:07Z</time>
      </trkpt>
      <trkpt lat="48.21132" lon="-3.08098">
        <ele>96</ele>
        <time>2015-06-10T12:30:09Z</time>
      </trkpt>
      <trkpt lat="48.21131" lon="-3.08102">
        <ele>96</ele>
        <time>2015-06-10T12:30:11Z</time>
      </trkpt>
      <trkpt lat="48.2113" lon="-3.08105">
        <ele>96</ele>
        <time>2015-06-10T12:30:13Z</time>
      </trkpt>
      <trkpt lat="48.21129" lon="-3.08109">
        <ele>96</ele>
        <time>2015-06-10T12:30:16Z</time>
      </trkpt>
      <trkpt lat="48.21128" lon="-3.08113">
        <ele>96</ele>
        <time>2015-06-10T12:30:18Z</time>
      </trkpt>
      <trkpt lat="48.21127" lon="-3.08115">
        <ele>96</ele>
        <time>2015-06-10T12:30:20Z</time>
      </trkpt>
      <trkpt lat="48.21126" lon="-3.08119">
        <ele>96</ele>
        <time>2015-06-10T12:30:22Z</time>
      </trkpt>
      <trkpt lat="48.21125" lon="-3.08121">
        <ele>96</ele>
        <time>2015-06-10T12:30:24Z</time>
      </trkpt>
      <trkpt lat="48.21124" lon="-3.08124">
        <ele>96</ele>
        <time>2015-06-10T12:30:26Z</time>
      </trkpt>
      <trkpt lat="48.21123" lon="-3.08127">
        <ele>96</ele>
        <time>2015-06-10T12:30:28Z</time>
      </trkpt>
      <trkpt lat="48.21122" lon="-3.08131">
        <ele>96</ele>
        <time>2015-06-10T12:30:30Z</time>
      </trkpt>
      <trkpt lat="48.2112" lon="-3.08135">
        <ele>96</ele>
        <time>2015-06-10T12:30:34Z</time>
      </trkpt>
      <trkpt lat="48.2112" lon="-3.08138">
        <ele>96</ele>
        <time>2015-06-10T12:30:36Z</time>
      </trkpt>
      <trkpt lat="48.21119" lon="-3.08141">
        <ele>96</ele>
        <time>2015-06-10T12:30:38Z</time>
      </trkpt>
      <trkpt lat="48.21118" lon="-3.08145">
        <ele>96</ele>
        <time>2015-06-10T12:30:40Z</time>
      </trkpt>
      <trkpt lat="48.21117" lon="-3.08148">
        <ele>96</ele>
        <time>2015-06-10T12:30:42Z</time>
      </trkpt>
      <trkpt lat="48.21116" lon="-3.08152">
        <ele>96</ele>
        <time>2015-06-10T12:30:44Z</time>
      </trkpt>
      <trkpt lat="48.21115" lon="-3.08155">
        <ele>96</ele>
        <time>2015-06-10T12:30:46Z</time>
      </trkpt>
      <trkpt lat="48.21113" lon="-3.08159">
        <ele>96</ele>
        <time>2015-06-10T12:30:48Z</time>
      </trkpt>
      <trkpt lat="48.21112" lon="-3.08163">
        <ele>96</ele>
        <time>2015-06-10T12:30:50Z</time>
      </trkpt>
      <trkpt lat="48.21111" lon="-3.08167">
        <ele>96</ele>
        <time>2015-06-10T12:30:52Z</time>
      </trkpt>
      <trkpt lat="48.21109" lon="-3.0817">
        <ele>96</ele>
        <time>2015-06-10T12:30:55Z</time>
      </trkpt>
      <trkpt lat="48.21108" lon="-3.08174">
        <ele>96</ele>
        <time>2015-06-10T12:30:57Z</time>
      </trkpt>
      <trkpt lat="48.21107" lon="-3.08177">
        <ele>96</ele>
        <time>2015-06-10T12:30:59Z</time>
      </trkpt>
      <trkpt lat="48.21106" lon="-3.0818">
        <ele>96</ele>
        <time>2015-06-10T12:31:01Z</time>
      </trkpt>
      <trkpt lat="48.21105" lon="-3.08184">
        <ele>96</ele>
        <time>2015-06-10T12:31:03Z</time>
      </trkpt>
      <trkpt lat="48.21104" lon="-3.08189">
        <ele>96</ele>
        <time>2015-06-10T12:31:06Z</time>
      </trkpt>
      <trkpt lat="48.21103" lon="-3.08191">
        <ele>96</ele>
        <time>2015-06-10T12:31:08Z</time>
      </trkpt>
      <trkpt lat="48.21103" lon="-3.08194">
        <ele>96</ele>
        <time>2015-06-10T12:31:10Z</time>
      </trkpt>
      <trkpt lat="48.21102" lon="-3.08196">
        <ele>96</ele>
        <time>2015-06-10T12:31:12Z</time>
      </trkpt>
      <trkpt lat="48.21101" lon="-3.08201">
        <ele>96</ele>
        <time>2015-06-10T12:31:15Z</time>
      </trkpt>
      <trkpt lat="48.21101" lon="-3.08204">
        <ele>96</ele>
        <time>2015-06-10T12:31:17Z</time>
      </trkpt>
      <trkpt lat="48.211" lon="-3.08207">
        <ele>96</ele>
        <time>2015-06-10T12:31:19Z</time>
      </trkpt>
      <trkpt lat="48.21099" lon="-3.0821">
        <ele>96</ele>
        <time>2015-06-10T12:31:21Z</time>
      </trkpt>
      <trkpt lat="48.21098" lon="-3.08212">
        <ele>96</ele>
        <time>2015-06-10T12:31:23Z</time>
      </trkpt>
      <trkpt lat="48.21097" lon="-3.08215">
        <ele>96</ele>
        <time>2015-06-10T12:31:25Z</time>
      </trkpt>
      <trkpt lat="48.21096" lon="-3.08218">
        <ele>96</ele>
        <time>2015-06-10T12:31:27Z</time>
      </trkpt>
      <trkpt lat="48.21095" lon="-3.08221">
        <ele>96</ele>
        <time>2015-06-10T12:31:29Z</time>
      </trkpt>
      <trkpt lat="48.21094" lon="-3.08224">
        <ele>96</ele>
        <time>2015-06-10T12:31:31Z</time>
      </trkpt>
      <trkpt lat="48.21093" lon="-3.08227">
        <ele>96</ele>
        <time>2015-06-10T12:31:33Z</time>
      </trkpt>
      <trkpt lat="48.21092" lon="-3.08231">
        <ele>96</ele>
        <time>2015-06-10T12:31:35Z</time>
      </trkpt>
      <trkpt lat="48.21091" lon="-3.08234">
        <ele>96</ele>
        <time>2015-06-10T12:31:37Z</time>
      </trkpt>
      <trkpt lat="48.2109" lon="-3.08238">
        <ele>96</ele>
        <time>2015-06-10T12:31:39Z</time>
      </trkpt>
      <trkpt lat="48.21089" lon="-3.08242">
        <ele>96</ele>
        <time>2015-06-10T12:31:41Z</time>
      </trkpt>
      <trkpt lat="48.21088" lon="-3.08245">
        <ele>96</ele>
        <time>2015-06-10T12:31:43Z</time>
      </trkpt>
      <trkpt lat="48.21087" lon="-3.08248">
        <ele>96</ele>
        <time>2015-06-10T12:31:45Z</time>
      </trkpt>
      <trkpt lat="48.21086" lon="-3.08252">
        <ele>96</ele>
        <time>2015-06-10T12:31:47Z</time>
      </trkpt>
      <trkpt lat="48.21085" lon="-3.08256">
        <ele>96</ele>
        <time>2015-06-10T12:31:49Z</time>
      </trkpt>
      <trkpt lat="48.21083" lon="-3.08259">
        <ele>96</ele>
        <time>2015-06-10T12:31:51Z</time>
      </trkpt>
      <trkpt lat="48.21082" lon="-3.08263">
        <ele>96</ele>
        <time>2015-06-10T12:31:53Z</time>
      </trkpt>
      <trkpt lat="48.21081" lon="-3.08267">
        <ele>96</ele>
        <time>2015-06-10T12:31:55Z</time>
      </trkpt>
      <trkpt lat="48.2108" lon="-3.0827">
        <ele>96</ele>
        <time>2015-06-10T12:31:57Z</time>
      </trkpt>
      <trkpt lat="48.21079" lon="-3.08274">
        <ele>96</ele>
        <time>2015-06-10T12:31:59Z</time>
      </trkpt>
      <trkpt lat="48.21078" lon="-3.08278">
        <ele>96</ele>
        <time>2015-06-10T12:32:01Z</time>
      </trkpt>
      <trkpt lat="48.21077" lon="-3.08281">
        <ele>96</ele>
        <time>2015-06-10T12:32:03Z</time>
      </trkpt>
      <trkpt lat="48.21076" lon="-3.08285">
        <ele>96</ele>
        <time>2015-06-10T12:32:05Z</time>
      </trkpt>
      <trkpt lat="48.21075" lon="-3.08288">
        <ele>96</ele>
        <time>2015-06-10T12:32:07Z</time>
      </trkpt>
      <trkpt lat="48.21075" lon="-3.08292">
        <ele>96</ele>
        <time>2015-06-10T12:32:09Z</time>
      </trkpt>
      <trkpt lat="48.21074" lon="-3.08296">
        <ele>96</ele>
        <time>2015-06-10T12:32:11Z</time>
      </trkpt>
      <trkpt lat="48.21072" lon="-3.08299">
        <ele>96</ele>
        <time>2015-06-10T12:32:13Z</time>
      </trkpt>
      <trkpt lat="48.21071" lon="-3.08303">
        <ele>96</ele>
        <time>2015-06-10T12:32:15Z</time>
      </trkpt>
      <trkpt lat="48.21071" lon="-3.08307">
        <ele>96</ele>
        <time>2015-06-10T12:32:17Z</time>
      </trkpt>
      <trkpt lat="48.2107" lon="-3.08309">
        <ele>96</ele>
        <time>2015-06-10T12:32:19Z</time>
      </trkpt>
      <trkpt lat="48.2107" lon="-3.08311">
        <ele>96</ele>
        <time>2015-06-10T12:32:21Z</time>
      </trkpt>
      <trkpt lat="48.2107" lon="-3.08313">
        <ele>96</ele>
        <time>2015-06-10T12:32:24Z</time>
      </trkpt>
      <trkpt lat="48.2107" lon="-3.08315">
        <ele>96</ele>
        <time>2015-06-10T12:32:28Z</time>
      </trkpt>
      <trkpt lat="48.2107" lon="-3.08318">
        <ele>96</ele>
        <time>2015-06-10T12:32:30Z</time>
      </trkpt>
      <trkpt lat="48.2107" lon="-3.08321">
        <ele>96</ele>
        <time>2015-06-10T12:32:32Z</time>
      </trkpt>
      <trkpt lat="48.2107" lon="-3.08324">
        <ele>96</ele>
        <time>2015-06-10T12:32:34Z</time>
      </trkpt>
      <trkpt lat="48.2107" lon="-3.08327">
        <ele>96</ele>
        <time>2015-06-10T12:32:36Z</time>
      </trkpt>
      <trkpt lat="48.21069" lon="-3.0833">
        <ele>96</ele>
        <time>2015-06-10T12:32:38Z</time>
      </trkpt>
      <trkpt lat="48.21069" lon="-3.08333">
        <ele>96</ele>
        <time>2015-06-10T12:32:40Z</time>
      </trkpt>
      <trkpt lat="48.21069" lon="-3.08337">
        <ele>96</ele>
        <time>2015-06-10T12:32:42Z</time>
      </trkpt>
      <trkpt lat="48.21069" lon="-3.08341">
        <ele>96</ele>
        <time>2015-06-10T12:32:44Z</time>
      </trkpt>
      <trkpt lat="48.21069" lon="-3.08344">
        <ele>96</ele>
        <time>2015-06-10T12:32:46Z</time>
      </trkpt>
      <trkpt lat="48.21069" lon="-3.08347">
        <ele>96</ele>
        <time>2015-06-10T12:32:48Z</time>
      </trkpt>
      <trkpt lat="48.21069" lon="-3.08349">
        <ele>96</ele>
        <time>2015-06-10T12:32:50Z</time>
      </trkpt>
      <trkpt lat="48.21069" lon="-3.08352">
        <ele>96</ele>
        <time>2015-06-10T12:32:52Z</time>
      </trkpt>
      <trkpt lat="48.21069" lon="-3.08355">
        <ele>96</ele>
        <time>2015-06-10T12:32:54Z</time>
      </trkpt>
      <trkpt lat="48.21069" lon="-3.0836">
        <ele>96</ele>
        <time>2015-06-10T12:32:56Z</time>
      </trkpt>
      <trkpt lat="48.21068" lon="-3.08363">
        <ele>96</ele>
        <time>2015-06-10T12:32:58Z</time>
      </trkpt>
      <trkpt lat="48.21068" lon="-3.08366">
        <ele>96</ele>
        <time>2015-06-10T12:33:00Z</time>
      </trkpt>
      <trkpt lat="48.21068" lon="-3.0837">
        <ele>96</ele>
        <time>2015-06-10T12:33:02Z</time>
      </trkpt>
      <trkpt lat="48.21068" lon="-3.08374">
        <ele>96</ele>
        <time>2015-06-10T12:33:04Z</time>
      </trkpt>
      <trkpt lat="48.21067" lon="-3.08378">
        <ele>96</ele>
        <time>2015-06-10T12:33:06Z</time>
      </trkpt>
      <trkpt lat="48.21066" lon="-3.08382">
        <ele>96</ele>
        <time>2015-06-10T12:33:08Z</time>
      </trkpt>
      <trkpt lat="48.21066" lon="-3.08386">
        <ele>96</ele>
        <time>2015-06-10T12:33:10Z</time>
      </trkpt>
      <trkpt lat="48.21065" lon="-3.08391">
        <ele>96</ele>
        <time>2015-06-10T12:33:12Z</time>
      </trkpt>
      <trkpt lat="48.21064" lon="-3.08396">
        <ele>96</ele>
        <time>2015-06-10T12:33:15Z</time>
      </trkpt>
      <trkpt lat="48.21064" lon="-3.08399">
        <ele>96</ele>
        <time>2015-06-10T12:33:17Z</time>
      </trkpt>
      <trkpt lat="48.21063" lon="-3.08401">
        <ele>96</ele>
        <time>2015-06-10T12:33:19Z</time>
      </trkpt>
      <trkpt lat="48.21062" lon="-3.08404">
        <ele>96</ele>
        <time>2015-06-10T12:33:21Z</time>
      </trkpt>
      <trkpt lat="48.21061" lon="-3.08406">
        <ele>96</ele>
        <time>2015-06-10T12:33:23Z</time>
      </trkpt>
      <trkpt lat="48.21061" lon="-3.08408">
        <ele>96</ele>
        <time>2015-06-10T12:33:25Z</time>
      </trkpt>
      <trkpt lat="48.21061" lon="-3.08406">
        <ele>96</ele>
        <time>2015-06-10T12:33:47Z</time>
      </trkpt>
      <trkpt lat="48.21062" lon="-3.08406">
        <ele>96</ele>
        <time>2015-06-10T12:33:54Z</time>
      </trkpt>
      <trkpt lat="48.21064" lon="-3.08408">
        <ele>96</ele>
        <time>2015-06-10T12:33:57Z</time>
      </trkpt>
      <trkpt lat="48.21065" lon="-3.08408">
        <ele>96</ele>
        <time>2015-06-10T12:34:01Z</time>
      </trkpt>
      <trkpt lat="48.21066" lon="-3.08408">
        <ele>96</ele>
        <time>2015-06-10T12:34:03Z</time>
      </trkpt>
      <trkpt lat="48.21067" lon="-3.08409">
        <ele>96</ele>
        <time>2015-06-10T12:34:05Z</time>
      </trkpt>
      <trkpt lat="48.21069" lon="-3.08409">
        <ele>96</ele>
        <time>2015-06-10T12:34:08Z</time>
      </trkpt>
      <trkpt lat="48.2107" lon="-3.08408">
        <ele>96</ele>
        <time>2015-06-10T12:34:12Z</time>
      </trkpt>
      <trkpt lat="48.21072" lon="-3.08408">
        <ele>97</ele>
        <time>2015-06-10T12:34:15Z</time>
      </trkpt>
      <trkpt lat="48.21073" lon="-3.0841">
        <ele>97</ele>
        <time>2015-06-10T12:34:19Z</time>
      </trkpt>
      <trkpt lat="48.21071" lon="-3.08408">
        <ele>98</ele>
        <time>2015-06-10T12:34:34Z</time>
      </trkpt>
      <trkpt lat="48.2107" lon="-3.08407">
        <ele>98</ele>
        <time>2015-06-10T12:34:38Z</time>
      </trkpt>
      <trkpt lat="48.21069" lon="-3.08406">
        <ele>98</ele>
        <time>2015-06-10T12:34:41Z</time>
      </trkpt>
      <trkpt lat="48.2107" lon="-3.08406">
        <ele>98</ele>
        <time>2015-06-10T12:34:46Z</time>
      </trkpt>
      <trkpt lat="48.21072" lon="-3.08406">
        <ele>98</ele>
        <time>2015-06-10T12:34:48Z</time>
      </trkpt>
      <trkpt lat="48.21075" lon="-3.08409">
        <ele>98</ele>
        <time>2015-06-10T12:34:51Z</time>
      </trkpt>
      <trkpt lat="48.21075" lon="-3.08413">
        <ele>98</ele>
        <time>2015-06-10T12:34:53Z</time>
      </trkpt>
      <trkpt lat="48.21076" lon="-3.08415">
        <ele>98</ele>
        <time>2015-06-10T12:34:55Z</time>
      </trkpt>
      <trkpt lat="48.21074" lon="-3.08413">
        <ele>98</ele>
        <time>2015-06-10T12:35:02Z</time>
      </trkpt>
      <trkpt lat="48.21071" lon="-3.0841">
        <ele>98</ele>
        <time>2015-06-10T12:35:04Z</time>
      </trkpt>
      <trkpt lat="48.21072" lon="-3.08412">
        <ele>98</ele>
        <time>2015-06-10T12:35:06Z</time>
      </trkpt>
      <trkpt lat="48.21072" lon="-3.08414">
        <ele>98</ele>
        <time>2015-06-10T12:35:10Z</time>
      </trkpt>
      <trkpt lat="48.21072" lon="-3.08415">
        <ele>99</ele>
        <time>2015-06-10T12:35:13Z</time>
      </trkpt>
      <trkpt lat="48.21072" lon="-3.08417">
        <ele>100</ele>
        <time>2015-06-10T12:35:15Z</time>
      </trkpt>
      <trkpt lat="48.21072" lon="-3.08419">
        <ele>101</ele>
        <time>2015-06-10T12:35:23Z</time>
      </trkpt>
      <trkpt lat="48.21074" lon="-3.08423">
        <ele>102</ele>
        <time>2015-06-10T12:35:36Z</time>
      </trkpt>
      <trkpt lat="48.21072" lon="-3.08428">
        <ele>102</ele>
        <time>2015-06-10T12:35:39Z</time>
      </trkpt>
      <trkpt lat="48.21071" lon="-3.08431">
        <ele>102</ele>
        <time>2015-06-10T12:35:41Z</time>
      </trkpt>
      <trkpt lat="48.2107" lon="-3.08434">
        <ele>102</ele>
        <time>2015-06-10T12:35:43Z</time>
      </trkpt>
      <trkpt lat="48.2107" lon="-3.08436">
        <ele>102</ele>
        <time>2015-06-10T12:35:46Z</time>
      </trkpt>
      <trkpt lat="48.2107" lon="-3.08438">
        <ele>102</ele>
        <time>2015-06-10T12:35:48Z</time>
      </trkpt>
      <trkpt lat="48.2107" lon="-3.08439">
        <ele>102</ele>
        <time>2015-06-10T12:35:50Z</time>
      </trkpt>
      <trkpt lat="48.21069" lon="-3.08441">
        <ele>102</ele>
        <time>2015-06-10T12:35:52Z</time>
      </trkpt>
      <trkpt lat="48.21069" lon="-3.08443">
        <ele>102</ele>
        <time>2015-06-10T12:35:54Z</time>
      </trkpt>
      <trkpt lat="48.21069" lon="-3.08446">
        <ele>103</ele>
        <time>2015-06-10T12:35:56Z</time>
      </trkpt>
      <trkpt lat="48.21069" lon="-3.08449">
        <ele>103</ele>
        <time>2015-06-10T12:35:58Z</time>
      </trkpt>
      <trkpt lat="48.21069" lon="-3.08451">
        <ele>104</ele>
        <time>2015-06-10T12:36:00Z</time>
      </trkpt>
      <trkpt lat="48.21068" lon="-3.08454">
        <ele>104</ele>
        <time>2015-06-10T12:36:02Z</time>
      </trkpt>
      <trkpt lat="48.21068" lon="-3.08456">
        <ele>104</ele>
        <time>2015-06-10T12:36:04Z</time>
      </trkpt>
      <trkpt lat="48.21067" lon="-3.08459">
        <ele>105</ele>
        <time>2015-06-10T12:36:06Z</time>
      </trkpt>
      <trkpt lat="48.21067" lon="-3.08461">
        <ele>105</ele>
        <time>2015-06-10T12:36:08Z</time>
      </trkpt>
      <trkpt lat="48.21066" lon="-3.08464">
        <ele>105</ele>
        <time>2015-06-10T12:36:10Z</time>
      </trkpt>
      <trkpt lat="48.21066" lon="-3.08466">
        <ele>106</ele>
        <time>2015-06-10T12:36:12Z</time>
      </trkpt>
      <trkpt lat="48.21066" lon="-3.08468">
        <ele>106</ele>
        <time>2015-06-10T12:36:14Z</time>
      </trkpt>
      <trkpt lat="48.21065" lon="-3.0847">
        <ele>106</ele>
        <time>2015-06-10T12:36:17Z</time>
      </trkpt>
      <trkpt lat="48.21065" lon="-3.08472">
        <ele>107</ele>
        <time>2015-06-10T12:36:19Z</time>
      </trkpt>
      <trkpt lat="48.21065" lon="-3.08474">
        <ele>107</ele>
        <time>2015-06-10T12:36:21Z</time>
      </trkpt>
      <trkpt lat="48.21065" lon="-3.08476">
        <ele>107</ele>
        <time>2015-06-10T12:36:23Z</time>
      </trkpt>
      <trkpt lat="48.21065" lon="-3.08477">
        <ele>107</ele>
        <time>2015-06-10T12:36:25Z</time>
      </trkpt>
      <trkpt lat="48.21064" lon="-3.0848">
        <ele>107</ele>
        <time>2015-06-10T12:36:27Z</time>
      </trkpt>
      <trkpt lat="48.21064" lon="-3.08482">
        <ele>108</ele>
        <time>2015-06-10T12:36:29Z</time>
      </trkpt>
      <trkpt lat="48.21064" lon="-3.08484">
        <ele>108</ele>
        <time>2015-06-10T12:36:31Z</time>
      </trkpt>
      <trkpt lat="48.21063" lon="-3.08486">
        <ele>108</ele>
        <time>2015-06-10T12:36:33Z</time>
      </trkpt>
      <trkpt lat="48.21063" lon="-3.08488">
        <ele>108</ele>
        <time>2015-06-10T12:36:35Z</time>
      </trkpt>
      <trkpt lat="48.21062" lon="-3.08489">
        <ele>108</ele>
        <time>2015-06-10T12:36:37Z</time>
      </trkpt>
      <trkpt lat="48.21062" lon="-3.08491">
        <ele>109</ele>
        <time>2015-06-10T12:36:39Z</time>
      </trkpt>
      <trkpt lat="48.21062" lon="-3.08493">
        <ele>109</ele>
        <time>2015-06-10T12:36:44Z</time>
      </trkpt>
      <trkpt lat="48.21061" lon="-3.08495">
        <ele>109</ele>
        <time>2015-06-10T12:36:46Z</time>
      </trkpt>
      <trkpt lat="48.21061" lon="-3.08497">
        <ele>109</ele>
        <time>2015-06-10T12:36:48Z</time>
      </trkpt>
      <trkpt lat="48.21059" lon="-3.08499">
        <ele>109</ele>
        <time>2015-06-10T12:36:50Z</time>
      </trkpt>
      <trkpt lat="48.21058" lon="-3.085">
        <ele>109</ele>
        <time>2015-06-10T12:36:52Z</time>
      </trkpt>
      <trkpt lat="48.21057" lon="-3.08502">
        <ele>109</ele>
        <time>2015-06-10T12:36:54Z</time>
      </trkpt>
      <trkpt lat="48.21059" lon="-3.08501">
        <ele>110</ele>
        <time>2015-06-10T12:37:08Z</time>
      </trkpt>
      <trkpt lat="48.2106" lon="-3.08501">
        <ele>111</ele>
        <time>2015-06-10T12:37:10Z</time>
      </trkpt>
      <trkpt lat="48.21062" lon="-3.08501">
        <ele>112</ele>
        <time>2015-06-10T12:37:12Z</time>
      </trkpt>
      <trkpt lat="48.21063" lon="-3.085">
        <ele>114</ele>
        <time>2015-06-10T12:37:14Z</time>
      </trkpt>
      <trkpt lat="48.21064" lon="-3.085">
        <ele>115</ele>
        <time>2015-06-10T12:37:16Z</time>
      </trkpt>
      <trkpt lat="48.21066" lon="-3.085">
        <ele>117</ele>
        <time>2015-06-10T12:37:19Z</time>
      </trkpt>
      <trkpt lat="48.21067" lon="-3.08499">
        <ele>119</ele>
        <time>2015-06-10T12:37:22Z</time>
      </trkpt>
      <trkpt lat="48.21069" lon="-3.08498">
        <ele>122</ele>
        <time>2015-06-10T12:37:35Z</time>
      </trkpt>
      <trkpt lat="48.21067" lon="-3.08498">
        <ele>123</ele>
        <time>2015-06-10T12:37:44Z</time>
      </trkpt>
      <trkpt lat="48.21066" lon="-3.08499">
        <ele>123</ele>
        <time>2015-06-10T12:37:51Z</time>
      </trkpt>
      <trkpt lat="48.21065" lon="-3.085">
        <ele>123</ele>
        <time>2015-06-10T12:38:00Z</time>
      </trkpt>
      <trkpt lat="48.21064" lon="-3.08501">
        <ele>123</ele>
        <time>2015-06-10T12:38:06Z</time>
      </trkpt>
      <trkpt lat="48.21063" lon="-3.08502">
        <ele>123</ele>
        <time>2015-06-10T12:38:21Z</time>
      </trkpt>
      <trkpt lat="48.21061" lon="-3.08505">
        <ele>123</ele>
        <time>2015-06-10T12:38:24Z</time>
      </trkpt>
      <trkpt lat="48.2106" lon="-3.08507">
        <ele>122</ele>
        <time>2015-06-10T12:38:26Z</time>
      </trkpt>
      <trkpt lat="48.21058" lon="-3.08512">
        <ele>122</ele>
        <time>2015-06-10T12:38:29Z</time>
      </trkpt>
      <trkpt lat="48.21057" lon="-3.08516">
        <ele>122</ele>
        <time>2015-06-10T12:38:31Z</time>
      </trkpt>
      <trkpt lat="48.21056" lon="-3.08519">
        <ele>121</ele>
        <time>2015-06-10T12:38:33Z</time>
      </trkpt>
      <trkpt lat="48.21055" lon="-3.08522">
        <ele>121</ele>
        <time>2015-06-10T12:38:35Z</time>
      </trkpt>
      <trkpt lat="48.21055" lon="-3.08525">
        <ele>121</ele>
        <time>2015-06-10T12:38:37Z</time>
      </trkpt>
      <trkpt lat="48.21053" lon="-3.08527">
        <ele>120</ele>
        <time>2015-06-10T12:38:39Z</time>
      </trkpt>
      <trkpt lat="48.21052" lon="-3.0853">
        <ele>120</ele>
        <time>2015-06-10T12:38:41Z</time>
      </trkpt>
      <trkpt lat="48.21051" lon="-3.08533">
        <ele>120</ele>
        <time>2015-06-10T12:38:43Z</time>
      </trkpt>
      <trkpt lat="48.2105" lon="-3.08536">
        <ele>120</ele>
        <time>2015-06-10T12:38:45Z</time>
      </trkpt>
      <trkpt lat="48.21048" lon="-3.08538">
        <ele>119</ele>
        <time>2015-06-10T12:38:47Z</time>
      </trkpt>
      <trkpt lat="48.21048" lon="-3.0854">
        <ele>119</ele>
        <time>2015-06-10T12:38:49Z</time>
      </trkpt>
      <trkpt lat="48.21047" lon="-3.08542">
        <ele>119</ele>
        <time>2015-06-10T12:38:51Z</time>
      </trkpt>
      <trkpt lat="48.21046" lon="-3.08544">
        <ele>119</ele>
        <time>2015-06-10T12:38:53Z</time>
      </trkpt>
      <trkpt lat="48.21046" lon="-3.08545">
        <ele>119</ele>
        <time>2015-06-10T12:38:55Z</time>
      </trkpt>
      <trkpt lat="48.21045" lon="-3.08548">
        <ele>118</ele>
        <time>2015-06-10T12:38:57Z</time>
      </trkpt>
      <trkpt lat="48.21043" lon="-3.08549">
        <ele>118</ele>
        <time>2015-06-10T12:39:00Z</time>
      </trkpt>
      <trkpt lat="48.21042" lon="-3.0855">
        <ele>117</ele>
        <time>2015-06-10T12:39:03Z</time>
      </trkpt>
      <trkpt lat="48.2104" lon="-3.08551">
        <ele>117</ele>
        <time>2015-06-10T12:39:06Z</time>
      </trkpt>
      <trkpt lat="48.21039" lon="-3.08554">
        <ele>117</ele>
        <time>2015-06-10T12:39:09Z</time>
      </trkpt>
      <trkpt lat="48.21038" lon="-3.08551">
        <ele>116</ele>
        <time>2015-06-10T12:39:16Z</time>
      </trkpt>
      <trkpt lat="48.21037" lon="-3.08548">
        <ele>115</ele>
        <time>2015-06-10T12:39:18Z</time>
      </trkpt>
      <trkpt lat="48.21037" lon="-3.08544">
        <ele>115</ele>
        <time>2015-06-10T12:39:20Z</time>
      </trkpt>
      <trkpt lat="48.21038" lon="-3.08541">
        <ele>114</ele>
        <time>2015-06-10T12:39:22Z</time>
      </trkpt>
      <trkpt lat="48.21037" lon="-3.08537">
        <ele>113</ele>
        <time>2015-06-10T12:39:24Z</time>
      </trkpt>
      <trkpt lat="48.21036" lon="-3.08533">
        <ele>112</ele>
        <time>2015-06-10T12:39:26Z</time>
      </trkpt>
      <trkpt lat="48.21036" lon="-3.08529">
        <ele>112</ele>
        <time>2015-06-10T12:39:28Z</time>
      </trkpt>
      <trkpt lat="48.21036" lon="-3.08526">
        <ele>111</ele>
        <time>2015-06-10T12:39:30Z</time>
      </trkpt>
      <trkpt lat="48.21035" lon="-3.08523">
        <ele>111</ele>
        <time>2015-06-10T12:39:32Z</time>
      </trkpt>
      <trkpt lat="48.21035" lon="-3.08519">
        <ele>110</ele>
        <time>2015-06-10T12:39:34Z</time>
      </trkpt>
      <trkpt lat="48.21034" lon="-3.08516">
        <ele>110</ele>
        <time>2015-06-10T12:39:36Z</time>
      </trkpt>
      <trkpt lat="48.21034" lon="-3.08511">
        <ele>110</ele>
        <time>2015-06-10T12:39:39Z</time>
      </trkpt>
      <trkpt lat="48.21033" lon="-3.08509">
        <ele>109</ele>
        <time>2015-06-10T12:39:41Z</time>
      </trkpt>
      <trkpt lat="48.21032" lon="-3.08506">
        <ele>109</ele>
        <time>2015-06-10T12:39:43Z</time>
      </trkpt>
      <trkpt lat="48.21031" lon="-3.08504">
        <ele>108</ele>
        <time>2015-06-10T12:39:45Z</time>
      </trkpt>
      <trkpt lat="48.2103" lon="-3.08502">
        <ele>107</ele>
        <time>2015-06-10T12:39:47Z</time>
      </trkpt>
      <trkpt lat="48.21029" lon="-3.085">
        <ele>107</ele>
        <time>2015-06-10T12:39:49Z</time>
      </trkpt>
      <trkpt lat="48.21028" lon="-3.08499">
        <ele>106</ele>
        <time>2015-06-10T12:39:51Z</time>
      </trkpt>
      <trkpt lat="48.21026" lon="-3.08499">
        <ele>106</ele>
        <time>2015-06-10T12:39:53Z</time>
      </trkpt>
      <trkpt lat="48.21025" lon="-3.08498">
        <ele>105</ele>
        <time>2015-06-10T12:39:55Z</time>
      </trkpt>
      <trkpt lat="48.21024" lon="-3.08495">
        <ele>104</ele>
        <time>2015-06-10T12:39:57Z</time>
      </trkpt>
      <trkpt lat="48.21022" lon="-3.08492">
        <ele>104</ele>
        <time>2015-06-10T12:39:59Z</time>
      </trkpt>
      <trkpt lat="48.21022" lon="-3.0849">
        <ele>103</ele>
        <time>2015-06-10T12:40:01Z</time>
      </trkpt>
      <trkpt lat="48.21021" lon="-3.08488">
        <ele>103</ele>
        <time>2015-06-10T12:40:03Z</time>
      </trkpt>
      <trkpt lat="48.21021" lon="-3.08485">
        <ele>103</ele>
        <time>2015-06-10T12:40:05Z</time>
      </trkpt>
      <trkpt lat="48.21021" lon="-3.08482">
        <ele>103</ele>
        <time>2015-06-10T12:40:07Z</time>
      </trkpt>
      <trkpt lat="48.21021" lon="-3.08481">
        <ele>103</ele>
        <time>2015-06-10T12:40:26Z</time>
      </trkpt>
      <trkpt lat="48.21021" lon="-3.08478">
        <ele>103</ele>
        <time>2015-06-10T12:40:32Z</time>
      </trkpt>
      <trkpt lat="48.2102" lon="-3.08475">
        <ele>102</ele>
        <time>2015-06-10T12:40:34Z</time>
      </trkpt>
      <trkpt lat="48.21021" lon="-3.08472">
        <ele>102</ele>
        <time>2015-06-10T12:40:36Z</time>
      </trkpt>
      <trkpt lat="48.2102" lon="-3.0847">
        <ele>102</ele>
        <time>2015-06-10T12:40:38Z</time>
      </trkpt>
      <trkpt lat="48.21019" lon="-3.08468">
        <ele>102</ele>
        <time>2015-06-10T12:40:41Z</time>
      </trkpt>
      <trkpt lat="48.21019" lon="-3.08466">
        <ele>102</ele>
        <time>2015-06-10T12:40:45Z</time>
      </trkpt>
      <trkpt lat="48.21018" lon="-3.08465">
        <ele>101</ele>
        <time>2015-06-10T12:40:47Z</time>
      </trkpt>
      <trkpt lat="48.21017" lon="-3.08463">
        <ele>101</ele>
        <time>2015-06-10T12:40:49Z</time>
      </trkpt>
      <trkpt lat="48.21014" lon="-3.08461">
        <ele>101</ele>
        <time>2015-06-10T12:40:52Z</time>
      </trkpt>
      <trkpt lat="48.21011" lon="-3.08463">
        <ele>100</ele>
        <time>2015-06-10T12:40:55Z</time>
      </trkpt>
      <trkpt lat="48.21009" lon="-3.08464">
        <ele>100</ele>
        <time>2015-06-10T12:40:57Z</time>
      </trkpt>
      <trkpt lat="48.21008" lon="-3.08465">
        <ele>100</ele>
        <time>2015-06-10T12:40:59Z</time>
      </trkpt>
      <trkpt lat="48.21006" lon="-3.08466">
        <ele>100</ele>
        <time>2015-06-10T12:41:01Z</time>
      </trkpt>
      <trkpt lat="48.21005" lon="-3.08467">
        <ele>100</ele>
        <time>2015-06-10T12:41:03Z</time>
      </trkpt>
      <trkpt lat="48.21004" lon="-3.08469">
        <ele>100</ele>
        <time>2015-06-10T12:41:05Z</time>
      </trkpt>
      <trkpt lat="48.21002" lon="-3.08471">
        <ele>100</ele>
        <time>2015-06-10T12:41:07Z</time>
      </trkpt>
      <trkpt lat="48.21001" lon="-3.08473">
        <ele>100</ele>
        <time>2015-06-10T12:41:09Z</time>
      </trkpt>
      <trkpt lat="48.20998" lon="-3.08474">
        <ele>100</ele>
        <time>2015-06-10T12:41:11Z</time>
      </trkpt>
      <trkpt lat="48.20997" lon="-3.08472">
        <ele>100</ele>
        <time>2015-06-10T12:41:14Z</time>
      </trkpt>
      <trkpt lat="48.20996" lon="-3.08472">
        <ele>100</ele>
        <time>2015-06-10T12:41:17Z</time>
      </trkpt>
      <trkpt lat="48.20995" lon="-3.08473">
        <ele>100</ele>
        <time>2015-06-10T12:41:19Z</time>
      </trkpt>
      <trkpt lat="48.20993" lon="-3.08475">
        <ele>100</ele>
        <time>2015-06-10T12:41:21Z</time>
      </trkpt>
      <trkpt lat="48.20991" lon="-3.08475">
        <ele>100</ele>
        <time>2015-06-10T12:41:23Z</time>
      </trkpt>
      <trkpt lat="48.2099" lon="-3.08476">
        <ele>100</ele>
        <time>2015-06-10T12:41:27Z</time>
      </trkpt>
      <trkpt lat="48.20991" lon="-3.08477">
        <ele>100</ele>
        <time>2015-06-10T12:41:35Z</time>
      </trkpt>
      <trkpt lat="48.20992" lon="-3.08478">
        <ele>100</ele>
        <time>2015-06-10T12:41:37Z</time>
      </trkpt>
      <trkpt lat="48.20993" lon="-3.08477">
        <ele>100</ele>
        <time>2015-06-10T12:41:40Z</time>
      </trkpt>
      <trkpt lat="48.20993" lon="-3.08477">
        <ele>100</ele>
        <time>2015-06-10T12:42:05Z</time>
      </trkpt>
      <trkpt lat="48.20992" lon="-3.08477">
        <ele>100</ele>
        <time>2015-06-10T12:42:07Z</time>
      </trkpt>
      <trkpt lat="48.20991" lon="-3.08478">
        <ele>100</ele>
        <time>2015-06-10T12:42:09Z</time>
      </trkpt>
      <trkpt lat="48.20989" lon="-3.08479">
        <ele>100</ele>
        <time>2015-06-10T12:42:11Z</time>
      </trkpt>
      <trkpt lat="48.20987" lon="-3.08482">
        <ele>100</ele>
        <time>2015-06-10T12:42:14Z</time>
      </trkpt>
      <trkpt lat="48.20985" lon="-3.08483">
        <ele>100</ele>
        <time>2015-06-10T12:42:26Z</time>
      </trkpt>
      <trkpt lat="48.20983" lon="-3.08484">
        <ele>100</ele>
        <time>2015-06-10T12:42:28Z</time>
      </trkpt>
      <trkpt lat="48.2098" lon="-3.08485">
        <ele>100</ele>
        <time>2015-06-10T12:42:31Z</time>
      </trkpt>
      <trkpt lat="48.20978" lon="-3.08486">
        <ele>100</ele>
        <time>2015-06-10T12:42:33Z</time>
      </trkpt>
      <trkpt lat="48.20976" lon="-3.08487">
        <ele>100</ele>
        <time>2015-06-10T12:42:35Z</time>
      </trkpt>
      <trkpt lat="48.20974" lon="-3.08489">
        <ele>100</ele>
        <time>2015-06-10T12:42:37Z</time>
      </trkpt>
      <trkpt lat="48.2097" lon="-3.08491">
        <ele>100</ele>
        <time>2015-06-10T12:42:41Z</time>
      </trkpt>
      <trkpt lat="48.20967" lon="-3.0849">
        <ele>100</ele>
        <time>2015-06-10T12:42:44Z</time>
      </trkpt>
      <trkpt lat="48.20964" lon="-3.08491">
        <ele>100</ele>
        <time>2015-06-10T12:42:48Z</time>
      </trkpt>
      <trkpt lat="48.20963" lon="-3.08491">
        <ele>100</ele>
        <time>2015-06-10T12:42:53Z</time>
      </trkpt>
      <trkpt lat="48.20961" lon="-3.0849">
        <ele>100</ele>
        <time>2015-06-10T12:42:55Z</time>
      </trkpt>
      <trkpt lat="48.20959" lon="-3.0849">
        <ele>100</ele>
        <time>2015-06-10T12:42:58Z</time>
      </trkpt>
      <trkpt lat="48.20958" lon="-3.08491">
        <ele>100</ele>
        <time>2015-06-10T12:43:00Z</time>
      </trkpt>
      <trkpt lat="48.20955" lon="-3.08492">
        <ele>100</ele>
        <time>2015-06-10T12:43:02Z</time>
      </trkpt>
      <trkpt lat="48.20952" lon="-3.08494">
        <ele>100</ele>
        <time>2015-06-10T12:43:05Z</time>
      </trkpt>
      <trkpt lat="48.20948" lon="-3.08497">
        <ele>100</ele>
        <time>2015-06-10T12:43:07Z</time>
      </trkpt>
      <trkpt lat="48.20945" lon="-3.08499">
        <ele>100</ele>
        <time>2015-06-10T12:43:11Z</time>
      </trkpt>
      <trkpt lat="48.20941" lon="-3.08502">
        <ele>100</ele>
        <time>2015-06-10T12:43:14Z</time>
      </trkpt>
      <trkpt lat="48.20938" lon="-3.08503">
        <ele>100</ele>
        <time>2015-06-10T12:43:16Z</time>
      </trkpt>
      <trkpt lat="48.20936" lon="-3.08505">
        <ele>100</ele>
        <time>2015-06-10T12:43:18Z</time>
      </trkpt>
      <trkpt lat="48.20933" lon="-3.08507">
        <ele>100</ele>
        <time>2015-06-10T12:43:22Z</time>
      </trkpt>
      <trkpt lat="48.2093" lon="-3.08509">
        <ele>100</ele>
        <time>2015-06-10T12:43:24Z</time>
      </trkpt>
      <trkpt lat="48.20927" lon="-3.0851">
        <ele>100</ele>
        <time>2015-06-10T12:43:26Z</time>
      </trkpt>
      <trkpt lat="48.20925" lon="-3.08512">
        <ele>100</ele>
        <time>2015-06-10T12:43:29Z</time>
      </trkpt>
      <trkpt lat="48.20921" lon="-3.08516">
        <ele>100</ele>
        <time>2015-06-10T12:43:32Z</time>
      </trkpt>
      <trkpt lat="48.20917" lon="-3.0852">
        <ele>100</ele>
        <time>2015-06-10T12:43:35Z</time>
      </trkpt>
      <trkpt lat="48.20915" lon="-3.08523">
        <ele>100</ele>
        <time>2015-06-10T12:43:37Z</time>
      </trkpt>
      <trkpt lat="48.20912" lon="-3.08526">
        <ele>100</ele>
        <time>2015-06-10T12:43:40Z</time>
      </trkpt>
      <trkpt lat="48.20909" lon="-3.08528">
        <ele>101</ele>
        <time>2015-06-10T12:43:44Z</time>
      </trkpt>
      <trkpt lat="48.20906" lon="-3.0853">
        <ele>101</ele>
        <time>2015-06-10T12:43:47Z</time>
      </trkpt>
      <trkpt lat="48.20904" lon="-3.08531">
        <ele>101</ele>
        <time>2015-06-10T12:43:50Z</time>
      </trkpt>
      <trkpt lat="48.20901" lon="-3.08533">
        <ele>101</ele>
        <time>2015-06-10T12:43:53Z</time>
      </trkpt>
      <trkpt lat="48.209" lon="-3.08534">
        <ele>101</ele>
        <time>2015-06-10T12:43:56Z</time>
      </trkpt>
      <trkpt lat="48.20897" lon="-3.08539">
        <ele>101</ele>
        <time>2015-06-10T12:43:59Z</time>
      </trkpt>
      <trkpt lat="48.20895" lon="-3.0854">
        <ele>101</ele>
        <time>2015-06-10T12:44:02Z</time>
      </trkpt>
      <trkpt lat="48.20893" lon="-3.08543">
        <ele>101</ele>
        <time>2015-06-10T12:44:05Z</time>
      </trkpt>
      <trkpt lat="48.20891" lon="-3.08544">
        <ele>101</ele>
        <time>2015-06-10T12:44:08Z</time>
      </trkpt>
      <trkpt lat="48.20887" lon="-3.08546">
        <ele>101</ele>
        <time>2015-06-10T12:44:10Z</time>
      </trkpt>
      <trkpt lat="48.20885" lon="-3.08548">
        <ele>101</ele>
        <time>2015-06-10T12:44:14Z</time>
      </trkpt>
      <trkpt lat="48.20882" lon="-3.0855">
        <ele>101</ele>
        <time>2015-06-10T12:44:17Z</time>
      </trkpt>
      <trkpt lat="48.2088" lon="-3.08551">
        <ele>101</ele>
        <time>2015-06-10T12:44:20Z</time>
      </trkpt>
      <trkpt lat="48.20876" lon="-3.08553">
        <ele>101</ele>
        <time>2015-06-10T12:44:22Z</time>
      </trkpt>
      <trkpt lat="48.20874" lon="-3.08555">
        <ele>101</ele>
        <time>2015-06-10T12:44:25Z</time>
      </trkpt>
      <trkpt lat="48.20873" lon="-3.08556">
        <ele>101</ele>
        <time>2015-06-10T12:44:27Z</time>
      </trkpt>
      <trkpt lat="48.20872" lon="-3.08554">
        <ele>101</ele>
        <time>2015-06-10T12:44:35Z</time>
      </trkpt>
      <trkpt lat="48.2087" lon="-3.08555">
        <ele>101</ele>
        <time>2015-06-10T12:44:57Z</time>
      </trkpt>
      <trkpt lat="48.20866" lon="-3.08559">
        <ele>101</ele>
        <time>2015-06-10T12:45:00Z</time>
      </trkpt>
      <trkpt lat="48.20864" lon="-3.0856">
        <ele>101</ele>
        <time>2015-06-10T12:45:03Z</time>
      </trkpt>
      <trkpt lat="48.2086" lon="-3.08564">
        <ele>101</ele>
        <time>2015-06-10T12:45:06Z</time>
      </trkpt>
      <trkpt lat="48.20857" lon="-3.08566">
        <ele>101</ele>
        <time>2015-06-10T12:45:08Z</time>
      </trkpt>
      <trkpt lat="48.20855" lon="-3.08567">
        <ele>101</ele>
        <time>2015-06-10T12:45:11Z</time>
      </trkpt>
      <trkpt lat="48.20854" lon="-3.08569">
        <ele>101</ele>
        <time>2015-06-10T12:45:16Z</time>
      </trkpt>
      <trkpt lat="48.20851" lon="-3.08574">
        <ele>101</ele>
        <time>2015-06-10T12:45:19Z</time>
      </trkpt>
      <trkpt lat="48.20848" lon="-3.08576">
        <ele>101</ele>
        <time>2015-06-10T12:45:22Z</time>
      </trkpt>
      <trkpt lat="48.20847" lon="-3.08578">
        <ele>101</ele>
        <time>2015-06-10T12:45:24Z</time>
      </trkpt>
      <trkpt lat="48.20845" lon="-3.08579">
        <ele>101</ele>
        <time>2015-06-10T12:45:27Z</time>
      </trkpt>
      <trkpt lat="48.20842" lon="-3.0858">
        <ele>101</ele>
        <time>2015-06-10T12:45:29Z</time>
      </trkpt>
      <trkpt lat="48.20838" lon="-3.08583">
        <ele>101</ele>
        <time>2015-06-10T12:45:32Z</time>
      </trkpt>
      <trkpt lat="48.20834" lon="-3.08587">
        <ele>101</ele>
        <time>2015-06-10T12:45:35Z</time>
      </trkpt>
      <trkpt lat="48.20836" lon="-3.08586">
        <ele>101</ele>
        <time>2015-06-10T12:45:40Z</time>
      </trkpt>
      <trkpt lat="48.20839" lon="-3.08588">
        <ele>101</ele>
        <time>2015-06-10T12:45:43Z</time>
      </trkpt>
      <trkpt lat="48.20838" lon="-3.08587">
        <ele>99</ele>
        <time>2015-06-10T12:45:50Z</time>
      </trkpt>
      <trkpt lat="48.20839" lon="-3.08588">
        <ele>97</ele>
        <time>2015-06-10T12:46:01Z</time>
      </trkpt>
      <trkpt lat="48.2084" lon="-3.0859">
        <ele>97</ele>
        <time>2015-06-10T12:46:10Z</time>
      </trkpt>
      <trkpt lat="48.20842" lon="-3.08594">
        <ele>96</ele>
        <time>2015-06-10T12:46:17Z</time>
      </trkpt>
      <trkpt lat="48.20842" lon="-3.08592">
        <ele>94</ele>
        <time>2015-06-10T12:46:20Z</time>
      </trkpt>
      <trkpt lat="48.2084" lon="-3.0859">
        <ele>94</ele>
        <time>2015-06-10T12:46:23Z</time>
      </trkpt>
      <trkpt lat="48.20837" lon="-3.0859">
        <ele>94</ele>
        <time>2015-06-10T12:46:25Z</time>
      </trkpt>
      <trkpt lat="48.20832" lon="-3.0859">
        <ele>94</ele>
        <time>2015-06-10T12:46:28Z</time>
      </trkpt>
      <trkpt lat="48.20828" lon="-3.08593">
        <ele>94</ele>
        <time>2015-06-10T12:46:30Z</time>
      </trkpt>
      <trkpt lat="48.20825" lon="-3.08595">
        <ele>94</ele>
        <time>2015-06-10T12:46:33Z</time>
      </trkpt>
      <trkpt lat="48.20821" lon="-3.08597">
        <ele>94</ele>
        <time>2015-06-10T12:46:35Z</time>
      </trkpt>
      <trkpt lat="48.20818" lon="-3.08599">
        <ele>94</ele>
        <time>2015-06-10T12:46:38Z</time>
      </trkpt>
      <trkpt lat="48.20813" lon="-3.08602">
        <ele>95</ele>
        <time>2015-06-10T12:46:40Z</time>
      </trkpt>
      <trkpt lat="48.2081" lon="-3.08603">
        <ele>97</ele>
        <time>2015-06-10T12:46:43Z</time>
      </trkpt>
      <trkpt lat="48.20806" lon="-3.08605">
        <ele>98</ele>
        <time>2015-06-10T12:46:45Z</time>
      </trkpt>
      <trkpt lat="48.20803" lon="-3.08606">
        <ele>98</ele>
        <time>2015-06-10T12:46:48Z</time>
      </trkpt>
      <trkpt lat="48.20799" lon="-3.08606">
        <ele>98</ele>
        <time>2015-06-10T12:46:50Z</time>
      </trkpt>
      <trkpt lat="48.20795" lon="-3.08606">
        <ele>98</ele>
        <time>2015-06-10T12:46:53Z</time>
      </trkpt>
      <trkpt lat="48.20791" lon="-3.08607">
        <ele>98</ele>
        <time>2015-06-10T12:46:55Z</time>
      </trkpt>
      <trkpt lat="48.20788" lon="-3.08607">
        <ele>98</ele>
        <time>2015-06-10T12:46:58Z</time>
      </trkpt>
      <trkpt lat="48.20784" lon="-3.08608">
        <ele>98</ele>
        <time>2015-06-10T12:47:00Z</time>
      </trkpt>
      <trkpt lat="48.2078" lon="-3.08608">
        <ele>98</ele>
        <time>2015-06-10T12:47:03Z</time>
      </trkpt>
      <trkpt lat="48.20776" lon="-3.08607">
        <ele>98</ele>
        <time>2015-06-10T12:47:05Z</time>
      </trkpt>
      <trkpt lat="48.20773" lon="-3.08607">
        <ele>98</ele>
        <time>2015-06-10T12:47:08Z</time>
      </trkpt>
      <trkpt lat="48.20769" lon="-3.08607">
        <ele>98</ele>
        <time>2015-06-10T12:47:10Z</time>
      </trkpt>
      <trkpt lat="48.20766" lon="-3.08606">
        <ele>98</ele>
        <time>2015-06-10T12:47:13Z</time>
      </trkpt>
      <trkpt lat="48.20761" lon="-3.08606">
        <ele>98</ele>
        <time>2015-06-10T12:47:15Z</time>
      </trkpt>
      <trkpt lat="48.20758" lon="-3.08606">
        <ele>98</ele>
        <time>2015-06-10T12:47:17Z</time>
      </trkpt>
      <trkpt lat="48.20755" lon="-3.08606">
        <ele>98</ele>
        <time>2015-06-10T12:47:19Z</time>
      </trkpt>
      <trkpt lat="48.20752" lon="-3.08606">
        <ele>98</ele>
        <time>2015-06-10T12:47:21Z</time>
      </trkpt>
      <trkpt lat="48.2075" lon="-3.08605">
        <ele>98</ele>
        <time>2015-06-10T12:47:23Z</time>
      </trkpt>
      <trkpt lat="48.20747" lon="-3.08604">
        <ele>98</ele>
        <time>2015-06-10T12:47:25Z</time>
      </trkpt>
      <trkpt lat="48.20744" lon="-3.08603">
        <ele>98</ele>
        <time>2015-06-10T12:47:28Z</time>
      </trkpt>
      <trkpt lat="48.20739" lon="-3.08603">
        <ele>98</ele>
        <time>2015-06-10T12:47:30Z</time>
      </trkpt>
      <trkpt lat="48.20736" lon="-3.08603">
        <ele>98</ele>
        <time>2015-06-10T12:47:33Z</time>
      </trkpt>
      <trkpt lat="48.20732" lon="-3.08604">
        <ele>98</ele>
        <time>2015-06-10T12:47:35Z</time>
      </trkpt>
      <trkpt lat="48.2073" lon="-3.08604">
        <ele>98</ele>
        <time>2015-06-10T12:47:38Z</time>
      </trkpt>
      <trkpt lat="48.20726" lon="-3.08603">
        <ele>98</ele>
        <time>2015-06-10T12:47:40Z</time>
      </trkpt>
      <trkpt lat="48.20723" lon="-3.08605">
        <ele>98</ele>
        <time>2015-06-10T12:47:43Z</time>
      </trkpt>
      <trkpt lat="48.20718" lon="-3.08607">
        <ele>98</ele>
        <time>2015-06-10T12:47:45Z</time>
      </trkpt>
      <trkpt lat="48.20716" lon="-3.08608">
        <ele>98</ele>
        <time>2015-06-10T12:47:47Z</time>
      </trkpt>
      <trkpt lat="48.20713" lon="-3.08608">
        <ele>98</ele>
        <time>2015-06-10T12:47:49Z</time>
      </trkpt>
      <trkpt lat="48.2071" lon="-3.08608">
        <ele>98</ele>
        <time>2015-06-10T12:47:51Z</time>
      </trkpt>
      <trkpt lat="48.20707" lon="-3.08608">
        <ele>98</ele>
        <time>2015-06-10T12:47:53Z</time>
      </trkpt>
      <trkpt lat="48.20704" lon="-3.08608">
        <ele>98</ele>
        <time>2015-06-10T12:47:55Z</time>
      </trkpt>
      <trkpt lat="48.20701" lon="-3.08607">
        <ele>98</ele>
        <time>2015-06-10T12:47:57Z</time>
      </trkpt>
      <trkpt lat="48.20697" lon="-3.08607">
        <ele>98</ele>
        <time>2015-06-10T12:47:59Z</time>
      </trkpt>
      <trkpt lat="48.20694" lon="-3.08607">
        <ele>98</ele>
        <time>2015-06-10T12:48:01Z</time>
      </trkpt>
      <trkpt lat="48.20691" lon="-3.08608">
        <ele>98</ele>
        <time>2015-06-10T12:48:03Z</time>
      </trkpt>
      <trkpt lat="48.20688" lon="-3.08608">
        <ele>98</ele>
        <time>2015-06-10T12:48:05Z</time>
      </trkpt>
      <trkpt lat="48.20685" lon="-3.08608">
        <ele>98</ele>
        <time>2015-06-10T12:48:08Z</time>
      </trkpt>
      <trkpt lat="48.2068" lon="-3.08607">
        <ele>98</ele>
        <time>2015-06-10T12:48:10Z</time>
      </trkpt>
      <trkpt lat="48.20677" lon="-3.08607">
        <ele>98</ele>
        <time>2015-06-10T12:48:13Z</time>
      </trkpt>
      <trkpt lat="48.20672" lon="-3.08606">
        <ele>98</ele>
        <time>2015-06-10T12:48:15Z</time>
      </trkpt>
      <trkpt lat="48.20669" lon="-3.08606">
        <ele>98</ele>
        <time>2015-06-10T12:48:17Z</time>
      </trkpt>
      <trkpt lat="48.20666" lon="-3.08605">
        <ele>98</ele>
        <time>2015-06-10T12:48:19Z</time>
      </trkpt>
      <trkpt lat="48.20663" lon="-3.08604">
        <ele>98</ele>
        <time>2015-06-10T12:48:21Z</time>
      </trkpt>
      <trkpt lat="48.2066" lon="-3.08602">
        <ele>98</ele>
        <time>2015-06-10T12:48:23Z</time>
      </trkpt>
      <trkpt lat="48.20657" lon="-3.08601">
        <ele>98</ele>
        <time>2015-06-10T12:48:25Z</time>
      </trkpt>
      <trkpt lat="48.20654" lon="-3.08599">
        <ele>98</ele>
        <time>2015-06-10T12:48:28Z</time>
      </trkpt>
      <trkpt lat="48.20649" lon="-3.08597">
        <ele>98</ele>
        <time>2015-06-10T12:48:30Z</time>
      </trkpt>
      <trkpt lat="48.20646" lon="-3.08596">
        <ele>98</ele>
        <time>2015-06-10T12:48:33Z</time>
      </trkpt>
      <trkpt lat="48.20642" lon="-3.08593">
        <ele>98</ele>
        <time>2015-06-10T12:48:35Z</time>
      </trkpt>
      <trkpt lat="48.20639" lon="-3.08592">
        <ele>98</ele>
        <time>2015-06-10T12:48:38Z</time>
      </trkpt>
      <trkpt lat="48.20635" lon="-3.0859">
        <ele>98</ele>
        <time>2015-06-10T12:48:40Z</time>
      </trkpt>
      <trkpt lat="48.20632" lon="-3.08588">
        <ele>98</ele>
        <time>2015-06-10T12:48:43Z</time>
      </trkpt>
      <trkpt lat="48.20628" lon="-3.08586">
        <ele>98</ele>
        <time>2015-06-10T12:48:45Z</time>
      </trkpt>
      <trkpt lat="48.20625" lon="-3.08585">
        <ele>98</ele>
        <time>2015-06-10T12:48:48Z</time>
      </trkpt>
      <trkpt lat="48.20621" lon="-3.08584">
        <ele>98</ele>
        <time>2015-06-10T12:48:50Z</time>
      </trkpt>
      <trkpt lat="48.20618" lon="-3.08583">
        <ele>98</ele>
        <time>2015-06-10T12:48:53Z</time>
      </trkpt>
      <trkpt lat="48.20615" lon="-3.08581">
        <ele>98</ele>
        <time>2015-06-10T12:48:55Z</time>
      </trkpt>
      <trkpt lat="48.20612" lon="-3.08579">
        <ele>98</ele>
        <time>2015-06-10T12:48:58Z</time>
      </trkpt>
      <trkpt lat="48.20609" lon="-3.08576">
        <ele>98</ele>
        <time>2015-06-10T12:49:00Z</time>
      </trkpt>
      <trkpt lat="48.20606" lon="-3.08575">
        <ele>98</ele>
        <time>2015-06-10T12:49:03Z</time>
      </trkpt>
      <trkpt lat="48.20602" lon="-3.08573">
        <ele>98</ele>
        <time>2015-06-10T12:49:05Z</time>
      </trkpt>
      <trkpt lat="48.206" lon="-3.08572">
        <ele>98</ele>
        <time>2015-06-10T12:49:07Z</time>
      </trkpt>
      <trkpt lat="48.20598" lon="-3.08571">
        <ele>98</ele>
        <time>2015-06-10T12:49:09Z</time>
      </trkpt>
      <trkpt lat="48.20596" lon="-3.0857">
        <ele>98</ele>
        <time>2015-06-10T12:49:11Z</time>
      </trkpt>
      <trkpt lat="48.20594" lon="-3.08569">
        <ele>98</ele>
        <time>2015-06-10T12:49:14Z</time>
      </trkpt>
      <trkpt lat="48.20591" lon="-3.08568">
        <ele>98</ele>
        <time>2015-06-10T12:49:17Z</time>
      </trkpt>
      <trkpt lat="48.20589" lon="-3.08568">
        <ele>98</ele>
        <time>2015-06-10T12:49:19Z</time>
      </trkpt>
      <trkpt lat="48.20588" lon="-3.08568">
        <ele>98</ele>
        <time>2015-06-10T12:49:22Z</time>
      </trkpt>
      <trkpt lat="48.20586" lon="-3.08568">
        <ele>98</ele>
        <time>2015-06-10T12:49:25Z</time>
      </trkpt>
      <trkpt lat="48.20585" lon="-3.08568">
        <ele>100</ele>
        <time>2015-06-10T12:49:40Z</time>
      </trkpt>
      <trkpt lat="48.20585" lon="-3.08566">
        <ele>101</ele>
        <time>2015-06-10T12:49:49Z</time>
      </trkpt>
      <trkpt lat="48.20585" lon="-3.08568">
        <ele>103</ele>
        <time>2015-06-10T12:50:06Z</time>
      </trkpt>
      <trkpt lat="48.20586" lon="-3.08568">
        <ele>103</ele>
        <time>2015-06-10T12:50:08Z</time>
      </trkpt>
      <trkpt lat="48.20585" lon="-3.08569">
        <ele>106</ele>
        <time>2015-06-10T12:50:15Z</time>
      </trkpt>
      <trkpt lat="48.20585" lon="-3.08567">
        <ele>106</ele>
        <time>2015-06-10T12:50:22Z</time>
      </trkpt>
      <trkpt lat="48.20583" lon="-3.08566">
        <ele>106</ele>
        <time>2015-06-10T12:50:24Z</time>
      </trkpt>
      <trkpt lat="48.20582" lon="-3.08566">
        <ele>106</ele>
        <time>2015-06-10T12:50:26Z</time>
      </trkpt>
      <trkpt lat="48.20581" lon="-3.08565">
        <ele>106</ele>
        <time>2015-06-10T12:50:29Z</time>
      </trkpt>
      <trkpt lat="48.2058" lon="-3.08563">
        <ele>106</ele>
        <time>2015-06-10T12:50:31Z</time>
      </trkpt>
      <trkpt lat="48.20578" lon="-3.08563">
        <ele>106</ele>
        <time>2015-06-10T12:50:35Z</time>
      </trkpt>
      <trkpt lat="48.20577" lon="-3.08562">
        <ele>106</ele>
        <time>2015-06-10T12:50:39Z</time>
      </trkpt>
      <trkpt lat="48.20576" lon="-3.08561">
        <ele>106</ele>
        <time>2015-06-10T12:50:44Z</time>
      </trkpt>
      <trkpt lat="48.20574" lon="-3.0856">
        <ele>106</ele>
        <time>2015-06-10T12:50:46Z</time>
      </trkpt>
      <trkpt lat="48.20573" lon="-3.08559">
        <ele>106</ele>
        <time>2015-06-10T12:50:49Z</time>
      </trkpt>
      <trkpt lat="48.20571" lon="-3.08559">
        <ele>106</ele>
        <time>2015-06-10T12:50:51Z</time>
      </trkpt>
      <trkpt lat="48.2057" lon="-3.08558">
        <ele>106</ele>
        <time>2015-06-10T12:50:53Z</time>
      </trkpt>
      <trkpt lat="48.20568" lon="-3.08557">
        <ele>106</ele>
        <time>2015-06-10T12:50:55Z</time>
      </trkpt>
      <trkpt lat="48.20567" lon="-3.08556">
        <ele>106</ele>
        <time>2015-06-10T12:50:57Z</time>
      </trkpt>
      <trkpt lat="48.20565" lon="-3.08555">
        <ele>106</ele>
        <time>2015-06-10T12:50:59Z</time>
      </trkpt>
      <trkpt lat="48.20563" lon="-3.08554">
        <ele>106</ele>
        <time>2015-06-10T12:51:01Z</time>
      </trkpt>
      <trkpt lat="48.20561" lon="-3.08553">
        <ele>106</ele>
        <time>2015-06-10T12:51:03Z</time>
      </trkpt>
      <trkpt lat="48.20559" lon="-3.08552">
        <ele>106</ele>
        <time>2015-06-10T12:51:05Z</time>
      </trkpt>
      <trkpt lat="48.20556" lon="-3.0855">
        <ele>106</ele>
        <time>2015-06-10T12:51:07Z</time>
      </trkpt>
      <trkpt lat="48.20554" lon="-3.08549">
        <ele>106</ele>
        <time>2015-06-10T12:51:09Z</time>
      </trkpt>
      <trkpt lat="48.20552" lon="-3.08548">
        <ele>106</ele>
        <time>2015-06-10T12:51:11Z</time>
      </trkpt>
      <trkpt lat="48.20549" lon="-3.08546">
        <ele>106</ele>
        <time>2015-06-10T12:51:13Z</time>
      </trkpt>
      <trkpt lat="48.20546" lon="-3.08545">
        <ele>106</ele>
        <time>2015-06-10T12:51:16Z</time>
      </trkpt>
      <trkpt lat="48.20544" lon="-3.08545">
        <ele>106</ele>
        <time>2015-06-10T12:51:18Z</time>
      </trkpt>
      <trkpt lat="48.20541" lon="-3.08544">
        <ele>106</ele>
        <time>2015-06-10T12:51:20Z</time>
      </trkpt>
      <trkpt lat="48.20538" lon="-3.08543">
        <ele>106</ele>
        <time>2015-06-10T12:51:22Z</time>
      </trkpt>
      <trkpt lat="48.20536" lon="-3.08542">
        <ele>106</ele>
        <time>2015-06-10T12:51:24Z</time>
      </trkpt>
      <trkpt lat="48.20534" lon="-3.0854">
        <ele>106</ele>
        <time>2015-06-10T12:51:26Z</time>
      </trkpt>
      <trkpt lat="48.20531" lon="-3.08539">
        <ele>106</ele>
        <time>2015-06-10T12:51:28Z</time>
      </trkpt>
      <trkpt lat="48.20529" lon="-3.08538">
        <ele>106</ele>
        <time>2015-06-10T12:51:30Z</time>
      </trkpt>
      <trkpt lat="48.20526" lon="-3.08536">
        <ele>106</ele>
        <time>2015-06-10T12:51:32Z</time>
      </trkpt>
      <trkpt lat="48.20524" lon="-3.08535">
        <ele>106</ele>
        <time>2015-06-10T12:51:34Z</time>
      </trkpt>
      <trkpt lat="48.20521" lon="-3.08534">
        <ele>106</ele>
        <time>2015-06-10T12:51:36Z</time>
      </trkpt>
      <trkpt lat="48.20518" lon="-3.08533">
        <ele>106</ele>
        <time>2015-06-10T12:51:38Z</time>
      </trkpt>
      <trkpt lat="48.20515" lon="-3.08531">
        <ele>106</ele>
        <time>2015-06-10T12:51:40Z</time>
      </trkpt>
      <trkpt lat="48.20513" lon="-3.08531">
        <ele>106</ele>
        <time>2015-06-10T12:51:42Z</time>
      </trkpt>
      <trkpt lat="48.2051" lon="-3.0853">
        <ele>106</ele>
        <time>2015-06-10T12:51:44Z</time>
      </trkpt>
      <trkpt lat="48.20507" lon="-3.0853">
        <ele>106</ele>
        <time>2015-06-10T12:51:46Z</time>
      </trkpt>
      <trkpt lat="48.20506" lon="-3.08529">
        <ele>106</ele>
        <time>2015-06-10T12:51:48Z</time>
      </trkpt>
      <trkpt lat="48.20505" lon="-3.0853">
        <ele>105</ele>
        <time>2015-06-10T12:51:53Z</time>
      </trkpt>
      <trkpt lat="48.20503" lon="-3.08531">
        <ele>105</ele>
        <time>2015-06-10T12:51:55Z</time>
      </trkpt>
      <trkpt lat="48.20502" lon="-3.08531">
        <ele>105</ele>
        <time>2015-06-10T12:51:57Z</time>
      </trkpt>
      <trkpt lat="48.205" lon="-3.08532">
        <ele>105</ele>
        <time>2015-06-10T12:51:59Z</time>
      </trkpt>
      <trkpt lat="48.20496" lon="-3.08532">
        <ele>105</ele>
        <time>2015-06-10T12:52:02Z</time>
      </trkpt>
      <trkpt lat="48.20495" lon="-3.08533">
        <ele>105</ele>
        <time>2015-06-10T12:52:05Z</time>
      </trkpt>
      <trkpt lat="48.20493" lon="-3.08534">
        <ele>105</ele>
        <time>2015-06-10T12:52:07Z</time>
      </trkpt>
      <trkpt lat="48.2049" lon="-3.08535">
        <ele>105</ele>
        <time>2015-06-10T12:52:09Z</time>
      </trkpt>
      <trkpt lat="48.20488" lon="-3.08536">
        <ele>105</ele>
        <time>2015-06-10T12:52:11Z</time>
      </trkpt>
      <trkpt lat="48.20486" lon="-3.08537">
        <ele>105</ele>
        <time>2015-06-10T12:52:13Z</time>
      </trkpt>
      <trkpt lat="48.20483" lon="-3.08538">
        <ele>105</ele>
        <time>2015-06-10T12:52:15Z</time>
      </trkpt>
      <trkpt lat="48.20481" lon="-3.0854">
        <ele>105</ele>
        <time>2015-06-10T12:52:17Z</time>
      </trkpt>
      <trkpt lat="48.20478" lon="-3.08542">
        <ele>105</ele>
        <time>2015-06-10T12:52:19Z</time>
      </trkpt>
      <trkpt lat="48.20476" lon="-3.08543">
        <ele>105</ele>
        <time>2015-06-10T12:52:21Z</time>
      </trkpt>
      <trkpt lat="48.20473" lon="-3.08544">
        <ele>105</ele>
        <time>2015-06-10T12:52:23Z</time>
      </trkpt>
      <trkpt lat="48.20471" lon="-3.08545">
        <ele>105</ele>
        <time>2015-06-10T12:52:26Z</time>
      </trkpt>
      <trkpt lat="48.2047" lon="-3.08547">
        <ele>105</ele>
        <time>2015-06-10T12:52:31Z</time>
      </trkpt>
      <trkpt lat="48.20468" lon="-3.08547">
        <ele>105</ele>
        <time>2015-06-10T12:52:33Z</time>
      </trkpt>
      <trkpt lat="48.20465" lon="-3.08548">
        <ele>105</ele>
        <time>2015-06-10T12:52:35Z</time>
      </trkpt>
      <trkpt lat="48.20462" lon="-3.08549">
        <ele>105</ele>
        <time>2015-06-10T12:52:37Z</time>
      </trkpt>
      <trkpt lat="48.2046" lon="-3.0855">
        <ele>105</ele>
        <time>2015-06-10T12:52:39Z</time>
      </trkpt>
      <trkpt lat="48.20457" lon="-3.08552">
        <ele>105</ele>
        <time>2015-06-10T12:52:41Z</time>
      </trkpt>
      <trkpt lat="48.20454" lon="-3.08554">
        <ele>105</ele>
        <time>2015-06-10T12:52:43Z</time>
      </trkpt>
      <trkpt lat="48.20452" lon="-3.08555">
        <ele>105</ele>
        <time>2015-06-10T12:52:45Z</time>
      </trkpt>
      <trkpt lat="48.20449" lon="-3.08557">
        <ele>105</ele>
        <time>2015-06-10T12:52:47Z</time>
      </trkpt>
      <trkpt lat="48.20446" lon="-3.08558">
        <ele>105</ele>
        <time>2015-06-10T12:52:49Z</time>
      </trkpt>
      <trkpt lat="48.20444" lon="-3.0856">
        <ele>105</ele>
        <time>2015-06-10T12:52:51Z</time>
      </trkpt>
      <trkpt lat="48.20441" lon="-3.08561">
        <ele>105</ele>
        <time>2015-06-10T12:52:53Z</time>
      </trkpt>
      <trkpt lat="48.20439" lon="-3.08563">
        <ele>105</ele>
        <time>2015-06-10T12:52:55Z</time>
      </trkpt>
      <trkpt lat="48.20436" lon="-3.08564">
        <ele>105</ele>
        <time>2015-06-10T12:52:57Z</time>
      </trkpt>
      <trkpt lat="48.20433" lon="-3.08566">
        <ele>105</ele>
        <time>2015-06-10T12:52:59Z</time>
      </trkpt>
      <trkpt lat="48.2043" lon="-3.08566">
        <ele>105</ele>
        <time>2015-06-10T12:53:01Z</time>
      </trkpt>
      <trkpt lat="48.20428" lon="-3.08567">
        <ele>105</ele>
        <time>2015-06-10T12:53:03Z</time>
      </trkpt>
      <trkpt lat="48.20425" lon="-3.08568">
        <ele>105</ele>
        <time>2015-06-10T12:53:05Z</time>
      </trkpt>
      <trkpt lat="48.20422" lon="-3.08569">
        <ele>105</ele>
        <time>2015-06-10T12:53:07Z</time>
      </trkpt>
      <trkpt lat="48.20419" lon="-3.08571">
        <ele>105</ele>
        <time>2015-06-10T12:53:09Z</time>
      </trkpt>
      <trkpt lat="48.20417" lon="-3.08573">
        <ele>105</ele>
        <time>2015-06-10T12:53:11Z</time>
      </trkpt>
      <trkpt lat="48.20414" lon="-3.08575">
        <ele>105</ele>
        <time>2015-06-10T12:53:13Z</time>
      </trkpt>
      <trkpt lat="48.20412" lon="-3.08577">
        <ele>105</ele>
        <time>2015-06-10T12:53:15Z</time>
      </trkpt>
      <trkpt lat="48.2041" lon="-3.0858">
        <ele>105</ele>
        <time>2015-06-10T12:53:17Z</time>
      </trkpt>
      <trkpt lat="48.20407" lon="-3.08585">
        <ele>105</ele>
        <time>2015-06-10T12:53:20Z</time>
      </trkpt>
      <trkpt lat="48.20405" lon="-3.08589">
        <ele>105</ele>
        <time>2015-06-10T12:53:22Z</time>
      </trkpt>
      <trkpt lat="48.20404" lon="-3.08592">
        <ele>105</ele>
        <time>2015-06-10T12:53:24Z</time>
      </trkpt>
      <trkpt lat="48.20402" lon="-3.08595">
        <ele>105</ele>
        <time>2015-06-10T12:53:26Z</time>
      </trkpt>
      <trkpt lat="48.204" lon="-3.08598">
        <ele>105</ele>
        <time>2015-06-10T12:53:28Z</time>
      </trkpt>
      <trkpt lat="48.20398" lon="-3.086">
        <ele>105</ele>
        <time>2015-06-10T12:53:30Z</time>
      </trkpt>
      <trkpt lat="48.20396" lon="-3.08602">
        <ele>105</ele>
        <time>2015-06-10T12:53:32Z</time>
      </trkpt>
      <trkpt lat="48.20395" lon="-3.08606">
        <ele>105</ele>
        <time>2015-06-10T12:53:34Z</time>
      </trkpt>
      <trkpt lat="48.20394" lon="-3.08609">
        <ele>105</ele>
        <time>2015-06-10T12:53:36Z</time>
      </trkpt>
      <trkpt lat="48.20393" lon="-3.08613">
        <ele>105</ele>
        <time>2015-06-10T12:53:38Z</time>
      </trkpt>
      <trkpt lat="48.20392" lon="-3.08616">
        <ele>105</ele>
        <time>2015-06-10T12:53:40Z</time>
      </trkpt>
      <trkpt lat="48.20392" lon="-3.0862">
        <ele>105</ele>
        <time>2015-06-10T12:53:42Z</time>
      </trkpt>
      <trkpt lat="48.20391" lon="-3.08624">
        <ele>105</ele>
        <time>2015-06-10T12:53:44Z</time>
      </trkpt>
      <trkpt lat="48.20391" lon="-3.08627">
        <ele>105</ele>
        <time>2015-06-10T12:53:46Z</time>
      </trkpt>
      <trkpt lat="48.2039" lon="-3.08631">
        <ele>105</ele>
        <time>2015-06-10T12:53:48Z</time>
      </trkpt>
      <trkpt lat="48.20388" lon="-3.08635">
        <ele>105</ele>
        <time>2015-06-10T12:53:50Z</time>
      </trkpt>
      <trkpt lat="48.20388" lon="-3.08639">
        <ele>105</ele>
        <time>2015-06-10T12:53:52Z</time>
      </trkpt>
      <trkpt lat="48.20387" lon="-3.08643">
        <ele>105</ele>
        <time>2015-06-10T12:53:54Z</time>
      </trkpt>
      <trkpt lat="48.20387" lon="-3.08646">
        <ele>106</ele>
        <time>2015-06-10T12:53:56Z</time>
      </trkpt>
      <trkpt lat="48.20386" lon="-3.0865">
        <ele>106</ele>
        <time>2015-06-10T12:53:58Z</time>
      </trkpt>
      <trkpt lat="48.20385" lon="-3.08653">
        <ele>106</ele>
        <time>2015-06-10T12:54:00Z</time>
      </trkpt>
      <trkpt lat="48.20385" lon="-3.08657">
        <ele>106</ele>
        <time>2015-06-10T12:54:02Z</time>
      </trkpt>
      <trkpt lat="48.20384" lon="-3.0866">
        <ele>107</ele>
        <time>2015-06-10T12:54:04Z</time>
      </trkpt>
      <trkpt lat="48.20383" lon="-3.08663">
        <ele>107</ele>
        <time>2015-06-10T12:54:06Z</time>
      </trkpt>
      <trkpt lat="48.20383" lon="-3.08666">
        <ele>107</ele>
        <time>2015-06-10T12:54:08Z</time>
      </trkpt>
      <trkpt lat="48.20382" lon="-3.0867">
        <ele>107</ele>
        <time>2015-06-10T12:54:10Z</time>
      </trkpt>
      <trkpt lat="48.20381" lon="-3.08674">
        <ele>107</ele>
        <time>2015-06-10T12:54:12Z</time>
      </trkpt>
      <trkpt lat="48.2038" lon="-3.08678">
        <ele>107</ele>
        <time>2015-06-10T12:54:14Z</time>
      </trkpt>
      <trkpt lat="48.2038" lon="-3.08682">
        <ele>107</ele>
        <time>2015-06-10T12:54:16Z</time>
      </trkpt>
      <trkpt lat="48.2038" lon="-3.08686">
        <ele>107</ele>
        <time>2015-06-10T12:54:18Z</time>
      </trkpt>
      <trkpt lat="48.2038" lon="-3.0869">
        <ele>107</ele>
        <time>2015-06-10T12:54:20Z</time>
      </trkpt>
      <trkpt lat="48.2038" lon="-3.08694">
        <ele>107</ele>
        <time>2015-06-10T12:54:22Z</time>
      </trkpt>
      <trkpt lat="48.20379" lon="-3.08698">
        <ele>107</ele>
        <time>2015-06-10T12:54:24Z</time>
      </trkpt>
      <trkpt lat="48.20379" lon="-3.08702">
        <ele>107</ele>
        <time>2015-06-10T12:54:26Z</time>
      </trkpt>
      <trkpt lat="48.20378" lon="-3.08705">
        <ele>107</ele>
        <time>2015-06-10T12:54:28Z</time>
      </trkpt>
      <trkpt lat="48.20378" lon="-3.0871">
        <ele>107</ele>
        <time>2015-06-10T12:54:30Z</time>
      </trkpt>
      <trkpt lat="48.20377" lon="-3.08714">
        <ele>107</ele>
        <time>2015-06-10T12:54:32Z</time>
      </trkpt>
      <trkpt lat="48.20377" lon="-3.08718">
        <ele>107</ele>
        <time>2015-06-10T12:54:34Z</time>
      </trkpt>
      <trkpt lat="48.20376" lon="-3.08722">
        <ele>107</ele>
        <time>2015-06-10T12:54:36Z</time>
      </trkpt>
      <trkpt lat="48.20376" lon="-3.08727">
        <ele>107</ele>
        <time>2015-06-10T12:54:38Z</time>
      </trkpt>
      <trkpt lat="48.20375" lon="-3.0873">
        <ele>107</ele>
        <time>2015-06-10T12:54:40Z</time>
      </trkpt>
      <trkpt lat="48.20375" lon="-3.08734">
        <ele>107</ele>
        <time>2015-06-10T12:54:42Z</time>
      </trkpt>
      <trkpt lat="48.20374" lon="-3.08738">
        <ele>107</ele>
        <time>2015-06-10T12:54:44Z</time>
      </trkpt>
      <trkpt lat="48.20374" lon="-3.08742">
        <ele>107</ele>
        <time>2015-06-10T12:54:47Z</time>
      </trkpt>
      <trkpt lat="48.20373" lon="-3.08745">
        <ele>107</ele>
        <time>2015-06-10T12:54:49Z</time>
      </trkpt>
      <trkpt lat="48.20373" lon="-3.08747">
        <ele>107</ele>
        <time>2015-06-10T12:54:51Z</time>
      </trkpt>
      <trkpt lat="48.20373" lon="-3.08749">
        <ele>107</ele>
        <time>2015-06-10T12:54:54Z</time>
      </trkpt>
      <trkpt lat="48.20373" lon="-3.08752">
        <ele>107</ele>
        <time>2015-06-10T12:54:56Z</time>
      </trkpt>
      <trkpt lat="48.20372" lon="-3.08756">
        <ele>107</ele>
        <time>2015-06-10T12:54:58Z</time>
      </trkpt>
      <trkpt lat="48.20372" lon="-3.0876">
        <ele>107</ele>
        <time>2015-06-10T12:55:00Z</time>
      </trkpt>
      <trkpt lat="48.20372" lon="-3.08764">
        <ele>107</ele>
        <time>2015-06-10T12:55:02Z</time>
      </trkpt>
      <trkpt lat="48.20371" lon="-3.08768">
        <ele>107</ele>
        <time>2015-06-10T12:55:04Z</time>
      </trkpt>
      <trkpt lat="48.2037" lon="-3.08772">
        <ele>107</ele>
        <time>2015-06-10T12:55:06Z</time>
      </trkpt>
      <trkpt lat="48.2037" lon="-3.08776">
        <ele>107</ele>
        <time>2015-06-10T12:55:08Z</time>
      </trkpt>
      <trkpt lat="48.20369" lon="-3.0878">
        <ele>107</ele>
        <time>2015-06-10T12:55:10Z</time>
      </trkpt>
      <trkpt lat="48.20369" lon="-3.08784">
        <ele>107</ele>
        <time>2015-06-10T12:55:12Z</time>
      </trkpt>
      <trkpt lat="48.20369" lon="-3.08788">
        <ele>107</ele>
        <time>2015-06-10T12:55:14Z</time>
      </trkpt>
      <trkpt lat="48.20368" lon="-3.08792">
        <ele>107</ele>
        <time>2015-06-10T12:55:16Z</time>
      </trkpt>
      <trkpt lat="48.20368" lon="-3.08796">
        <ele>107</ele>
        <time>2015-06-10T12:55:18Z</time>
      </trkpt>
      <trkpt lat="48.20367" lon="-3.08801">
        <ele>107</ele>
        <time>2015-06-10T12:55:21Z</time>
      </trkpt>
      <trkpt lat="48.20367" lon="-3.08806">
        <ele>107</ele>
        <time>2015-06-10T12:55:24Z</time>
      </trkpt>
      <trkpt lat="48.20366" lon="-3.08811">
        <ele>107</ele>
        <time>2015-06-10T12:55:26Z</time>
      </trkpt>
      <trkpt lat="48.20365" lon="-3.08815">
        <ele>107</ele>
        <time>2015-06-10T12:55:28Z</time>
      </trkpt>
      <trkpt lat="48.20365" lon="-3.08819">
        <ele>107</ele>
        <time>2015-06-10T12:55:30Z</time>
      </trkpt>
      <trkpt lat="48.20364" lon="-3.08822">
        <ele>107</ele>
        <time>2015-06-10T12:55:32Z</time>
      </trkpt>
      <trkpt lat="48.20364" lon="-3.08826">
        <ele>107</ele>
        <time>2015-06-10T12:55:34Z</time>
      </trkpt>
      <trkpt lat="48.20363" lon="-3.08829">
        <ele>107</ele>
        <time>2015-06-10T12:55:36Z</time>
      </trkpt>
      <trkpt lat="48.20362" lon="-3.08833">
        <ele>107</ele>
        <time>2015-06-10T12:55:38Z</time>
      </trkpt>
      <trkpt lat="48.20362" lon="-3.08837">
        <ele>107</ele>
        <time>2015-06-10T12:55:40Z</time>
      </trkpt>
      <trkpt lat="48.20361" lon="-3.0884">
        <ele>107</ele>
        <time>2015-06-10T12:55:42Z</time>
      </trkpt>
      <trkpt lat="48.2036" lon="-3.08844">
        <ele>107</ele>
        <time>2015-06-10T12:55:44Z</time>
      </trkpt>
      <trkpt lat="48.20359" lon="-3.08847">
        <ele>107</ele>
        <time>2015-06-10T12:55:46Z</time>
      </trkpt>
      <trkpt lat="48.20359" lon="-3.08851">
        <ele>107</ele>
        <time>2015-06-10T12:55:48Z</time>
      </trkpt>
      <trkpt lat="48.20358" lon="-3.08854">
        <ele>107</ele>
        <time>2015-06-10T12:55:50Z</time>
      </trkpt>
      <trkpt lat="48.20358" lon="-3.08857">
        <ele>107</ele>
        <time>2015-06-10T12:55:52Z</time>
      </trkpt>
      <trkpt lat="48.20357" lon="-3.0886">
        <ele>107</ele>
        <time>2015-06-10T12:55:54Z</time>
      </trkpt>
      <trkpt lat="48.20356" lon="-3.08864">
        <ele>107</ele>
        <time>2015-06-10T12:55:56Z</time>
      </trkpt>
      <trkpt lat="48.20356" lon="-3.08868">
        <ele>107</ele>
        <time>2015-06-10T12:55:58Z</time>
      </trkpt>
      <trkpt lat="48.20355" lon="-3.08871">
        <ele>107</ele>
        <time>2015-06-10T12:56:00Z</time>
      </trkpt>
      <trkpt lat="48.20354" lon="-3.08874">
        <ele>107</ele>
        <time>2015-06-10T12:56:02Z</time>
      </trkpt>
      <trkpt lat="48.20353" lon="-3.08878">
        <ele>107</ele>
        <time>2015-06-10T12:56:04Z</time>
      </trkpt>
      <trkpt lat="48.20353" lon="-3.08881">
        <ele>107</ele>
        <time>2015-06-10T12:56:06Z</time>
      </trkpt>
      <trkpt lat="48.20352" lon="-3.08885">
        <ele>107</ele>
        <time>2015-06-10T12:56:08Z</time>
      </trkpt>
      <trkpt lat="48.20351" lon="-3.08888">
        <ele>107</ele>
        <time>2015-06-10T12:56:10Z</time>
      </trkpt>
      <trkpt lat="48.2035" lon="-3.08892">
        <ele>107</ele>
        <time>2015-06-10T12:56:12Z</time>
      </trkpt>
      <trkpt lat="48.2035" lon="-3.08895">
        <ele>107</ele>
        <time>2015-06-10T12:56:14Z</time>
      </trkpt>
      <trkpt lat="48.20349" lon="-3.08898">
        <ele>107</ele>
        <time>2015-06-10T12:56:16Z</time>
      </trkpt>
      <trkpt lat="48.20348" lon="-3.08902">
        <ele>107</ele>
        <time>2015-06-10T12:56:18Z</time>
      </trkpt>
      <trkpt lat="48.20348" lon="-3.08906">
        <ele>107</ele>
        <time>2015-06-10T12:56:20Z</time>
      </trkpt>
      <trkpt lat="48.20347" lon="-3.08909">
        <ele>107</ele>
        <time>2015-06-10T12:56:22Z</time>
      </trkpt>
      <trkpt lat="48.20346" lon="-3.08913">
        <ele>107</ele>
        <time>2015-06-10T12:56:24Z</time>
      </trkpt>
      <trkpt lat="48.20346" lon="-3.08916">
        <ele>107</ele>
        <time>2015-06-10T12:56:26Z</time>
      </trkpt>
      <trkpt lat="48.20345" lon="-3.08919">
        <ele>107</ele>
        <time>2015-06-10T12:56:28Z</time>
      </trkpt>
      <trkpt lat="48.20344" lon="-3.08923">
        <ele>107</ele>
        <time>2015-06-10T12:56:30Z</time>
      </trkpt>
      <trkpt lat="48.20343" lon="-3.08926">
        <ele>107</ele>
        <time>2015-06-10T12:56:32Z</time>
      </trkpt>
      <trkpt lat="48.20342" lon="-3.0893">
        <ele>107</ele>
        <time>2015-06-10T12:56:34Z</time>
      </trkpt>
      <trkpt lat="48.20341" lon="-3.08933">
        <ele>107</ele>
        <time>2015-06-10T12:56:36Z</time>
      </trkpt>
      <trkpt lat="48.20341" lon="-3.08937">
        <ele>107</ele>
        <time>2015-06-10T12:56:38Z</time>
      </trkpt>
      <trkpt lat="48.20341" lon="-3.08939">
        <ele>107</ele>
        <time>2015-06-10T12:56:40Z</time>
      </trkpt>
      <trkpt lat="48.2034" lon="-3.08942">
        <ele>107</ele>
        <time>2015-06-10T12:56:42Z</time>
      </trkpt>
      <trkpt lat="48.2034" lon="-3.08944">
        <ele>107</ele>
        <time>2015-06-10T12:56:44Z</time>
      </trkpt>
      <trkpt lat="48.2034" lon="-3.08946">
        <ele>107</ele>
        <time>2015-06-10T12:56:46Z</time>
      </trkpt>
      <trkpt lat="48.2034" lon="-3.08949">
        <ele>107</ele>
        <time>2015-06-10T12:56:48Z</time>
      </trkpt>
      <trkpt lat="48.2034" lon="-3.08952">
        <ele>107</ele>
        <time>2015-06-10T12:56:50Z</time>
      </trkpt>
      <trkpt lat="48.20339" lon="-3.08955">
        <ele>107</ele>
        <time>2015-06-10T12:56:52Z</time>
      </trkpt>
      <trkpt lat="48.20338" lon="-3.08958">
        <ele>107</ele>
        <time>2015-06-10T12:56:54Z</time>
      </trkpt>
      <trkpt lat="48.20336" lon="-3.08962">
        <ele>107</ele>
        <time>2015-06-10T12:56:57Z</time>
      </trkpt>
      <trkpt lat="48.20335" lon="-3.08965">
        <ele>107</ele>
        <time>2015-06-10T12:56:59Z</time>
      </trkpt>
      <trkpt lat="48.20335" lon="-3.08969">
        <ele>107</ele>
        <time>2015-06-10T12:57:01Z</time>
      </trkpt>
      <trkpt lat="48.20334" lon="-3.08971">
        <ele>107</ele>
        <time>2015-06-10T12:57:03Z</time>
      </trkpt>
      <trkpt lat="48.20332" lon="-3.08975">
        <ele>107</ele>
        <time>2015-06-10T12:57:05Z</time>
      </trkpt>
      <trkpt lat="48.20331" lon="-3.08979">
        <ele>107</ele>
        <time>2015-06-10T12:57:07Z</time>
      </trkpt>
      <trkpt lat="48.2033" lon="-3.08982">
        <ele>107</ele>
        <time>2015-06-10T12:57:09Z</time>
      </trkpt>
      <trkpt lat="48.20329" lon="-3.08985">
        <ele>107</ele>
        <time>2015-06-10T12:57:11Z</time>
      </trkpt>
      <trkpt lat="48.20328" lon="-3.08988">
        <ele>107</ele>
        <time>2015-06-10T12:57:13Z</time>
      </trkpt>
      <trkpt lat="48.20326" lon="-3.08991">
        <ele>107</ele>
        <time>2015-06-10T12:57:15Z</time>
      </trkpt>
      <trkpt lat="48.20324" lon="-3.08994">
        <ele>107</ele>
        <time>2015-06-10T12:57:17Z</time>
      </trkpt>
      <trkpt lat="48.20322" lon="-3.08998">
        <ele>107</ele>
        <time>2015-06-10T12:57:19Z</time>
      </trkpt>
      <trkpt lat="48.2032" lon="-3.09">
        <ele>107</ele>
        <time>2015-06-10T12:57:21Z</time>
      </trkpt>
      <trkpt lat="48.20317" lon="-3.09004">
        <ele>107</ele>
        <time>2015-06-10T12:57:24Z</time>
      </trkpt>
      <trkpt lat="48.20316" lon="-3.09007">
        <ele>107</ele>
        <time>2015-06-10T12:57:26Z</time>
      </trkpt>
      <trkpt lat="48.20315" lon="-3.09011">
        <ele>107</ele>
        <time>2015-06-10T12:57:29Z</time>
      </trkpt>
      <trkpt lat="48.20314" lon="-3.09015">
        <ele>108</ele>
        <time>2015-06-10T12:57:31Z</time>
      </trkpt>
      <trkpt lat="48.20312" lon="-3.09019">
        <ele>108</ele>
        <time>2015-06-10T12:57:33Z</time>
      </trkpt>
      <trkpt lat="48.20311" lon="-3.09023">
        <ele>108</ele>
        <time>2015-06-10T12:57:35Z</time>
      </trkpt>
      <trkpt lat="48.20309" lon="-3.09027">
        <ele>108</ele>
        <time>2015-06-10T12:57:37Z</time>
      </trkpt>
      <trkpt lat="48.20309" lon="-3.09031">
        <ele>108</ele>
        <time>2015-06-10T12:57:39Z</time>
      </trkpt>
      <trkpt lat="48.20308" lon="-3.09034">
        <ele>108</ele>
        <time>2015-06-10T12:57:41Z</time>
      </trkpt>
      <trkpt lat="48.20306" lon="-3.09037">
        <ele>108</ele>
        <time>2015-06-10T12:57:43Z</time>
      </trkpt>
      <trkpt lat="48.20305" lon="-3.09042">
        <ele>108</ele>
        <time>2015-06-10T12:57:46Z</time>
      </trkpt>
      <trkpt lat="48.20304" lon="-3.09047">
        <ele>108</ele>
        <time>2015-06-10T12:57:49Z</time>
      </trkpt>
      <trkpt lat="48.20303" lon="-3.0905">
        <ele>108</ele>
        <time>2015-06-10T12:57:51Z</time>
      </trkpt>
      <trkpt lat="48.20301" lon="-3.09054">
        <ele>108</ele>
        <time>2015-06-10T12:57:53Z</time>
      </trkpt>
      <trkpt lat="48.20298" lon="-3.09058">
        <ele>108</ele>
        <time>2015-06-10T12:57:56Z</time>
      </trkpt>
      <trkpt lat="48.20298" lon="-3.09062">
        <ele>108</ele>
        <time>2015-06-10T12:57:58Z</time>
      </trkpt>
      <trkpt lat="48.20296" lon="-3.09064">
        <ele>108</ele>
        <time>2015-06-10T12:58:00Z</time>
      </trkpt>
      <trkpt lat="48.20295" lon="-3.09067">
        <ele>108</ele>
        <time>2015-06-10T12:58:02Z</time>
      </trkpt>
      <trkpt lat="48.20293" lon="-3.0907">
        <ele>108</ele>
        <time>2015-06-10T12:58:04Z</time>
      </trkpt>
      <trkpt lat="48.20291" lon="-3.09075">
        <ele>108</ele>
        <time>2015-06-10T12:58:07Z</time>
      </trkpt>
      <trkpt lat="48.20289" lon="-3.09079">
        <ele>108</ele>
        <time>2015-06-10T12:58:10Z</time>
      </trkpt>
      <trkpt lat="48.20288" lon="-3.09082">
        <ele>108</ele>
        <time>2015-06-10T12:58:12Z</time>
      </trkpt>
      <trkpt lat="48.20287" lon="-3.09085">
        <ele>108</ele>
        <time>2015-06-10T12:58:14Z</time>
      </trkpt>
      <trkpt lat="48.20285" lon="-3.0909">
        <ele>109</ele>
        <time>2015-06-10T12:58:17Z</time>
      </trkpt>
      <trkpt lat="48.20284" lon="-3.09093">
        <ele>109</ele>
        <time>2015-06-10T12:58:19Z</time>
      </trkpt>
      <trkpt lat="48.20283" lon="-3.09097">
        <ele>109</ele>
        <time>2015-06-10T12:58:21Z</time>
      </trkpt>
      <trkpt lat="48.20282" lon="-3.091">
        <ele>109</ele>
        <time>2015-06-10T12:58:23Z</time>
      </trkpt>
      <trkpt lat="48.2028" lon="-3.09104">
        <ele>109</ele>
        <time>2015-06-10T12:58:26Z</time>
      </trkpt>
      <trkpt lat="48.20279" lon="-3.09107">
        <ele>109</ele>
        <time>2015-06-10T12:58:28Z</time>
      </trkpt>
      <trkpt lat="48.20278" lon="-3.09109">
        <ele>109</ele>
        <time>2015-06-10T12:58:30Z</time>
      </trkpt>
      <trkpt lat="48.20277" lon="-3.09111">
        <ele>110</ele>
        <time>2015-06-10T12:58:33Z</time>
      </trkpt>
      <trkpt lat="48.20276" lon="-3.09114">
        <ele>110</ele>
        <time>2015-06-10T12:58:35Z</time>
      </trkpt>
      <trkpt lat="48.20275" lon="-3.09117">
        <ele>110</ele>
        <time>2015-06-10T12:58:37Z</time>
      </trkpt>
      <trkpt lat="48.20272" lon="-3.09122">
        <ele>110</ele>
        <time>2015-06-10T12:58:40Z</time>
      </trkpt>
      <trkpt lat="48.20271" lon="-3.09125">
        <ele>110</ele>
        <time>2015-06-10T12:58:42Z</time>
      </trkpt>
      <trkpt lat="48.2027" lon="-3.09128">
        <ele>110</ele>
        <time>2015-06-10T12:58:44Z</time>
      </trkpt>
      <trkpt lat="48.20269" lon="-3.09132">
        <ele>110</ele>
        <time>2015-06-10T12:58:46Z</time>
      </trkpt>
      <trkpt lat="48.20267" lon="-3.09136">
        <ele>110</ele>
        <time>2015-06-10T12:58:48Z</time>
      </trkpt>
      <trkpt lat="48.20266" lon="-3.0914">
        <ele>110</ele>
        <time>2015-06-10T12:58:51Z</time>
      </trkpt>
      <trkpt lat="48.20265" lon="-3.09143">
        <ele>110</ele>
        <time>2015-06-10T12:58:53Z</time>
      </trkpt>
      <trkpt lat="48.20264" lon="-3.09148">
        <ele>110</ele>
        <time>2015-06-10T12:58:56Z</time>
      </trkpt>
      <trkpt lat="48.20263" lon="-3.09151">
        <ele>110</ele>
        <time>2015-06-10T12:58:58Z</time>
      </trkpt>
      <trkpt lat="48.20262" lon="-3.09155">
        <ele>110</ele>
        <time>2015-06-10T12:59:00Z</time>
      </trkpt>
      <trkpt lat="48.20261" lon="-3.09158">
        <ele>110</ele>
        <time>2015-06-10T12:59:02Z</time>
      </trkpt>
      <trkpt lat="48.20261" lon="-3.09162">
        <ele>110</ele>
        <time>2015-06-10T12:59:04Z</time>
      </trkpt>
      <trkpt lat="48.2026" lon="-3.09166">
        <ele>110</ele>
        <time>2015-06-10T12:59:06Z</time>
      </trkpt>
      <trkpt lat="48.20259" lon="-3.09169">
        <ele>110</ele>
        <time>2015-06-10T12:59:08Z</time>
      </trkpt>
      <trkpt lat="48.20258" lon="-3.09171">
        <ele>110</ele>
        <time>2015-06-10T12:59:10Z</time>
      </trkpt>
      <trkpt lat="48.20257" lon="-3.09173">
        <ele>110</ele>
        <time>2015-06-10T12:59:12Z</time>
      </trkpt>
      <trkpt lat="48.20255" lon="-3.09178">
        <ele>110</ele>
        <time>2015-06-10T12:59:15Z</time>
      </trkpt>
      <trkpt lat="48.20254" lon="-3.09181">
        <ele>110</ele>
        <time>2015-06-10T12:59:17Z</time>
      </trkpt>
      <trkpt lat="48.20252" lon="-3.09183">
        <ele>110</ele>
        <time>2015-06-10T12:59:19Z</time>
      </trkpt>
      <trkpt lat="48.2025" lon="-3.09185">
        <ele>110</ele>
        <time>2015-06-10T12:59:21Z</time>
      </trkpt>
      <trkpt lat="48.20249" lon="-3.09187">
        <ele>110</ele>
        <time>2015-06-10T12:59:23Z</time>
      </trkpt>
      <trkpt lat="48.20248" lon="-3.0919">
        <ele>110</ele>
        <time>2015-06-10T12:59:25Z</time>
      </trkpt>
      <trkpt lat="48.20248" lon="-3.09192">
        <ele>110</ele>
        <time>2015-06-10T12:59:27Z</time>
      </trkpt>
      <trkpt lat="48.20248" lon="-3.09194">
        <ele>110</ele>
        <time>2015-06-10T12:59:30Z</time>
      </trkpt>
      <trkpt lat="48.20247" lon="-3.09197">
        <ele>110</ele>
        <time>2015-06-10T12:59:32Z</time>
      </trkpt>
      <trkpt lat="48.20246" lon="-3.092">
        <ele>110</ele>
        <time>2015-06-10T12:59:34Z</time>
      </trkpt>
      <trkpt lat="48.20245" lon="-3.09204">
        <ele>110</ele>
        <time>2015-06-10T12:59:36Z</time>
      </trkpt>
      <trkpt lat="48.20243" lon="-3.09208">
        <ele>110</ele>
        <time>2015-06-10T12:59:39Z</time>
      </trkpt>
      <trkpt lat="48.20242" lon="-3.09211">
        <ele>110</ele>
        <time>2015-06-10T12:59:41Z</time>
      </trkpt>
      <trkpt lat="48.20241" lon="-3.09214">
        <ele>110</ele>
        <time>2015-06-10T12:59:43Z</time>
      </trkpt>
      <trkpt lat="48.2024" lon="-3.09216">
        <ele>110</ele>
        <time>2015-06-10T12:59:46Z</time>
      </trkpt>
      <trkpt lat="48.20239" lon="-3.09217">
        <ele>110</ele>
        <time>2015-06-10T12:59:48Z</time>
      </trkpt>
      <trkpt lat="48.20238" lon="-3.09219">
        <ele>110</ele>
        <time>2015-06-10T12:59:51Z</time>
      </trkpt>
      <trkpt lat="48.20238" lon="-3.09222">
        <ele>110</ele>
        <time>2015-06-10T12:59:53Z</time>
      </trkpt>
      <trkpt lat="48.20239" lon="-3.09224">
        <ele>110</ele>
        <time>2015-06-10T12:59:55Z</time>
      </trkpt>
      <trkpt lat="48.20239" lon="-3.09226">
        <ele>110</ele>
        <time>2015-06-10T12:59:57Z</time>
      </trkpt>
      <trkpt lat="48.20239" lon="-3.09228">
        <ele>110</ele>
        <time>2015-06-10T12:59:59Z</time>
      </trkpt>
      <trkpt lat="48.20239" lon="-3.0923">
        <ele>110</ele>
        <time>2015-06-10T13:00:01Z</time>
      </trkpt>
      <trkpt lat="48.2024" lon="-3.09232">
        <ele>110</ele>
        <time>2015-06-10T13:00:12Z</time>
      </trkpt>
      <trkpt lat="48.20241" lon="-3.09234">
        <ele>110</ele>
        <time>2015-06-10T13:00:17Z</time>
      </trkpt>
      <trkpt lat="48.20241" lon="-3.09236">
        <ele>110</ele>
        <time>2015-06-10T13:00:22Z</time>
      </trkpt>
      <trkpt lat="48.2024" lon="-3.09236">
        <ele>110</ele>
        <time>2015-06-10T13:00:29Z</time>
      </trkpt>
      <trkpt lat="48.20239" lon="-3.09234">
        <ele>110</ele>
        <time>2015-06-10T13:00:33Z</time>
      </trkpt>
      <trkpt lat="48.20239" lon="-3.09235">
        <ele>110</ele>
        <time>2015-06-10T13:00:50Z</time>
      </trkpt>
      <trkpt lat="48.20239" lon="-3.09237">
        <ele>113</ele>
        <time>2015-06-10T13:01:07Z</time>
      </trkpt>
      <trkpt lat="48.2024" lon="-3.09236">
        <ele>113</ele>
        <time>2015-06-10T13:01:32Z</time>
      </trkpt>
      <trkpt lat="48.20241" lon="-3.09237">
        <ele>113</ele>
        <time>2015-06-10T13:01:44Z</time>
      </trkpt>
      <trkpt lat="48.20243" lon="-3.09237">
        <ele>114</ele>
        <time>2015-06-10T13:01:56Z</time>
      </trkpt>
      <trkpt lat="48.20243" lon="-3.09239">
        <ele>114</ele>
        <time>2015-06-10T13:01:59Z</time>
      </trkpt>
      <trkpt lat="48.20243" lon="-3.09242">
        <ele>115</ele>
        <time>2015-06-10T13:02:01Z</time>
      </trkpt>
      <trkpt lat="48.20242" lon="-3.09244">
        <ele>115</ele>
        <time>2015-06-10T13:02:06Z</time>
      </trkpt>
      <trkpt lat="48.20242" lon="-3.09246">
        <ele>115</ele>
        <time>2015-06-10T13:02:08Z</time>
      </trkpt>
      <trkpt lat="48.20242" lon="-3.0925">
        <ele>115</ele>
        <time>2015-06-10T13:02:10Z</time>
      </trkpt>
      <trkpt lat="48.20241" lon="-3.09253">
        <ele>115</ele>
        <time>2015-06-10T13:02:12Z</time>
      </trkpt>
      <trkpt lat="48.2024" lon="-3.09256">
        <ele>115</ele>
        <time>2015-06-10T13:02:14Z</time>
      </trkpt>
      <trkpt lat="48.2024" lon="-3.09259">
        <ele>115</ele>
        <time>2015-06-10T13:02:16Z</time>
      </trkpt>
      <trkpt lat="48.20239" lon="-3.09263">
        <ele>115</ele>
        <time>2015-06-10T13:02:18Z</time>
      </trkpt>
      <trkpt lat="48.20238" lon="-3.09267">
        <ele>115</ele>
        <time>2015-06-10T13:02:20Z</time>
      </trkpt>
      <trkpt lat="48.20238" lon="-3.09272">
        <ele>115</ele>
        <time>2015-06-10T13:02:22Z</time>
      </trkpt>
      <trkpt lat="48.20238" lon="-3.09276">
        <ele>115</ele>
        <time>2015-06-10T13:02:24Z</time>
      </trkpt>
      <trkpt lat="48.20237" lon="-3.0928">
        <ele>115</ele>
        <time>2015-06-10T13:02:26Z</time>
      </trkpt>
      <trkpt lat="48.20236" lon="-3.09284">
        <ele>115</ele>
        <time>2015-06-10T13:02:28Z</time>
      </trkpt>
      <trkpt lat="48.20235" lon="-3.09287">
        <ele>115</ele>
        <time>2015-06-10T13:02:30Z</time>
      </trkpt>
      <trkpt lat="48.20235" lon="-3.09291">
        <ele>115</ele>
        <time>2015-06-10T13:02:32Z</time>
      </trkpt>
      <trkpt lat="48.20235" lon="-3.09295">
        <ele>115</ele>
        <time>2015-06-10T13:02:34Z</time>
      </trkpt>
      <trkpt lat="48.20235" lon="-3.09298">
        <ele>115</ele>
        <time>2015-06-10T13:02:36Z</time>
      </trkpt>
      <trkpt lat="48.20234" lon="-3.09303">
        <ele>115</ele>
        <time>2015-06-10T13:02:39Z</time>
      </trkpt>
      <trkpt lat="48.20234" lon="-3.09306">
        <ele>115</ele>
        <time>2015-06-10T13:02:41Z</time>
      </trkpt>
      <trkpt lat="48.20234" lon="-3.09308">
        <ele>115</ele>
        <time>2015-06-10T13:02:43Z</time>
      </trkpt>
      <trkpt lat="48.20233" lon="-3.09312">
        <ele>115</ele>
        <time>2015-06-10T13:02:45Z</time>
      </trkpt>
      <trkpt lat="48.20232" lon="-3.09316">
        <ele>115</ele>
        <time>2015-06-10T13:02:47Z</time>
      </trkpt>
      <trkpt lat="48.20231" lon="-3.09319">
        <ele>115</ele>
        <time>2015-06-10T13:02:49Z</time>
      </trkpt>
      <trkpt lat="48.2023" lon="-3.09323">
        <ele>115</ele>
        <time>2015-06-10T13:02:51Z</time>
      </trkpt>
      <trkpt lat="48.2023" lon="-3.09327">
        <ele>115</ele>
        <time>2015-06-10T13:02:53Z</time>
      </trkpt>
      <trkpt lat="48.20229" lon="-3.09332">
        <ele>115</ele>
        <time>2015-06-10T13:02:55Z</time>
      </trkpt>
      <trkpt lat="48.20228" lon="-3.09336">
        <ele>115</ele>
        <time>2015-06-10T13:02:57Z</time>
      </trkpt>
      <trkpt lat="48.20227" lon="-3.0934">
        <ele>115</ele>
        <time>2015-06-10T13:02:59Z</time>
      </trkpt>
      <trkpt lat="48.20227" lon="-3.09344">
        <ele>115</ele>
        <time>2015-06-10T13:03:01Z</time>
      </trkpt>
      <trkpt lat="48.20228" lon="-3.09348">
        <ele>115</ele>
        <time>2015-06-10T13:03:04Z</time>
      </trkpt>
      <trkpt lat="48.20229" lon="-3.09351">
        <ele>115</ele>
        <time>2015-06-10T13:03:06Z</time>
      </trkpt>
      <trkpt lat="48.20231" lon="-3.09352">
        <ele>115</ele>
        <time>2015-06-10T13:03:08Z</time>
      </trkpt>
      <trkpt lat="48.20233" lon="-3.09354">
        <ele>115</ele>
        <time>2015-06-10T13:03:10Z</time>
      </trkpt>
      <trkpt lat="48.20235" lon="-3.09357">
        <ele>115</ele>
        <time>2015-06-10T13:03:12Z</time>
      </trkpt>
      <trkpt lat="48.20236" lon="-3.0936">
        <ele>115</ele>
        <time>2015-06-10T13:03:14Z</time>
      </trkpt>
      <trkpt lat="48.20237" lon="-3.09362">
        <ele>115</ele>
        <time>2015-06-10T13:03:16Z</time>
      </trkpt>
      <trkpt lat="48.20238" lon="-3.09366">
        <ele>115</ele>
        <time>2015-06-10T13:03:18Z</time>
      </trkpt>
      <trkpt lat="48.20239" lon="-3.09368">
        <ele>115</ele>
        <time>2015-06-10T13:03:20Z</time>
      </trkpt>
      <trkpt lat="48.20241" lon="-3.0937">
        <ele>115</ele>
        <time>2015-06-10T13:03:22Z</time>
      </trkpt>
      <trkpt lat="48.20243" lon="-3.09372">
        <ele>115</ele>
        <time>2015-06-10T13:03:24Z</time>
      </trkpt>
      <trkpt lat="48.20244" lon="-3.09374">
        <ele>116</ele>
        <time>2015-06-10T13:03:26Z</time>
      </trkpt>
      <trkpt lat="48.20245" lon="-3.09376">
        <ele>116</ele>
        <time>2015-06-10T13:03:28Z</time>
      </trkpt>
      <trkpt lat="48.20245" lon="-3.09378">
        <ele>116</ele>
        <time>2015-06-10T13:03:30Z</time>
      </trkpt>
      <trkpt lat="48.20246" lon="-3.0938">
        <ele>116</ele>
        <time>2015-06-10T13:03:32Z</time>
      </trkpt>
      <trkpt lat="48.20249" lon="-3.09383">
        <ele>117</ele>
        <time>2015-06-10T13:03:35Z</time>
      </trkpt>
      <trkpt lat="48.20251" lon="-3.09384">
        <ele>117</ele>
        <time>2015-06-10T13:03:37Z</time>
      </trkpt>
      <trkpt lat="48.20254" lon="-3.09385">
        <ele>117</ele>
        <time>2015-06-10T13:03:39Z</time>
      </trkpt>
      <trkpt lat="48.20255" lon="-3.09386">
        <ele>118</ele>
        <time>2015-06-10T13:03:41Z</time>
      </trkpt>
      <trkpt lat="48.20257" lon="-3.09387">
        <ele>118</ele>
        <time>2015-06-10T13:03:43Z</time>
      </trkpt>
      <trkpt lat="48.20258" lon="-3.09388">
        <ele>118</ele>
        <time>2015-06-10T13:03:46Z</time>
      </trkpt>
      <trkpt lat="48.20257" lon="-3.09389">
        <ele>118</ele>
        <time>2015-06-10T13:03:50Z</time>
      </trkpt>
      <trkpt lat="48.20256" lon="-3.09388">
        <ele>118</ele>
        <time>2015-06-10T13:03:53Z</time>
      </trkpt>
      <trkpt lat="48.20255" lon="-3.09388">
        <ele>118</ele>
        <time>2015-06-10T13:03:57Z</time>
      </trkpt>
      <trkpt lat="48.20253" lon="-3.09387">
        <ele>118</ele>
        <time>2015-06-10T13:03:59Z</time>
      </trkpt>
      <trkpt lat="48.20252" lon="-3.09387">
        <ele>118</ele>
        <time>2015-06-10T13:04:02Z</time>
      </trkpt>
      <trkpt lat="48.20251" lon="-3.09387">
        <ele>118</ele>
        <time>2015-06-10T13:04:04Z</time>
      </trkpt>
      <trkpt lat="48.20249" lon="-3.09387">
        <ele>118</ele>
        <time>2015-06-10T13:04:07Z</time>
      </trkpt>
      <trkpt lat="48.20249" lon="-3.09389">
        <ele>118</ele>
        <time>2015-06-10T13:04:12Z</time>
      </trkpt>
      <trkpt lat="48.20247" lon="-3.09388">
        <ele>119</ele>
        <time>2015-06-10T13:04:15Z</time>
      </trkpt>
      <trkpt lat="48.20248" lon="-3.09387">
        <ele>120</ele>
        <time>2015-06-10T13:04:26Z</time>
      </trkpt>
      <trkpt lat="48.20249" lon="-3.09385">
        <ele>120</ele>
        <time>2015-06-10T13:04:28Z</time>
      </trkpt>
      <trkpt lat="48.20252" lon="-3.09383">
        <ele>120</ele>
        <time>2015-06-10T13:04:30Z</time>
      </trkpt>
      <trkpt lat="48.20254" lon="-3.0938">
        <ele>120</ele>
        <time>2015-06-10T13:04:32Z</time>
      </trkpt>
      <trkpt lat="48.20255" lon="-3.09378">
        <ele>120</ele>
        <time>2015-06-10T13:04:35Z</time>
      </trkpt>
      <trkpt lat="48.20255" lon="-3.09376">
        <ele>122</ele>
        <time>2015-06-10T13:04:37Z</time>
      </trkpt>
      <trkpt lat="48.20256" lon="-3.09374">
        <ele>123</ele>
        <time>2015-06-10T13:04:39Z</time>
      </trkpt>
      <trkpt lat="48.20258" lon="-3.09373">
        <ele>124</ele>
        <time>2015-06-10T13:04:41Z</time>
      </trkpt>
      <trkpt lat="48.20259" lon="-3.09372">
        <ele>127</ele>
        <time>2015-06-10T13:04:46Z</time>
      </trkpt>
      <trkpt lat="48.2026" lon="-3.09371">
        <ele>129</ele>
        <time>2015-06-10T13:04:50Z</time>
      </trkpt>
      <trkpt lat="48.20261" lon="-3.09369">
        <ele>130</ele>
        <time>2015-06-10T13:04:53Z</time>
      </trkpt>
      <trkpt lat="48.20262" lon="-3.09368">
        <ele>131</ele>
        <time>2015-06-10T13:04:55Z</time>
      </trkpt>
      <trkpt lat="48.20264" lon="-3.09366">
        <ele>132</ele>
        <time>2015-06-10T13:04:57Z</time>
      </trkpt>
      <trkpt lat="48.20264" lon="-3.09364">
        <ele>133</ele>
        <time>2015-06-10T13:05:01Z</time>
      </trkpt>
      <trkpt lat="48.20263" lon="-3.09362">
        <ele>133</ele>
        <time>2015-06-10T13:05:03Z</time>
      </trkpt>
      <trkpt lat="48.20263" lon="-3.09358">
        <ele>133</ele>
        <time>2015-06-10T13:05:06Z</time>
      </trkpt>
      <trkpt lat="48.20266" lon="-3.09355">
        <ele>133</ele>
        <time>2015-06-10T13:05:09Z</time>
      </trkpt>
      <trkpt lat="48.20266" lon="-3.09353">
        <ele>133</ele>
        <time>2015-06-10T13:05:11Z</time>
      </trkpt>
      <trkpt lat="48.20268" lon="-3.09352">
        <ele>133</ele>
        <time>2015-06-10T13:05:13Z</time>
      </trkpt>
      <trkpt lat="48.2027" lon="-3.0935">
        <ele>133</ele>
        <time>2015-06-10T13:05:15Z</time>
      </trkpt>
      <trkpt lat="48.20272" lon="-3.09348">
        <ele>133</ele>
        <time>2015-06-10T13:05:17Z</time>
      </trkpt>
      <trkpt lat="48.20273" lon="-3.09346">
        <ele>133</ele>
        <time>2015-06-10T13:05:19Z</time>
      </trkpt>
      <trkpt lat="48.20274" lon="-3.09344">
        <ele>133</ele>
        <time>2015-06-10T13:05:21Z</time>
      </trkpt>
      <trkpt lat="48.20276" lon="-3.09342">
        <ele>133</ele>
        <time>2015-06-10T13:05:23Z</time>
      </trkpt>
      <trkpt lat="48.20279" lon="-3.09341">
        <ele>133</ele>
        <time>2015-06-10T13:05:26Z</time>
      </trkpt>
      <trkpt lat="48.2028" lon="-3.0934">
        <ele>133</ele>
        <time>2015-06-10T13:05:28Z</time>
      </trkpt>
      <trkpt lat="48.20281" lon="-3.09337">
        <ele>134</ele>
        <time>2015-06-10T13:05:31Z</time>
      </trkpt>
      <trkpt lat="48.2028" lon="-3.09334">
        <ele>135</ele>
        <time>2015-06-10T13:05:33Z</time>
      </trkpt>
      <trkpt lat="48.2028" lon="-3.09332">
        <ele>136</ele>
        <time>2015-06-10T13:05:35Z</time>
      </trkpt>
      <trkpt lat="48.2028" lon="-3.0933">
        <ele>137</ele>
        <time>2015-06-10T13:05:37Z</time>
      </trkpt>
      <trkpt lat="48.20284" lon="-3.09329">
        <ele>140</ele>
        <time>2015-06-10T13:05:40Z</time>
      </trkpt>
      <trkpt lat="48.20287" lon="-3.09326">
        <ele>142</ele>
        <time>2015-06-10T13:05:43Z</time>
      </trkpt>
      <trkpt lat="48.20286" lon="-3.09328">
        <ele>145</ele>
        <time>2015-06-10T13:05:48Z</time>
      </trkpt>
      <trkpt lat="48.20286" lon="-3.0933">
        <ele>145</ele>
        <time>2015-06-10T13:05:50Z</time>
      </trkpt>
      <trkpt lat="48.20285" lon="-3.09332">
        <ele>145</ele>
        <time>2015-06-10T13:05:52Z</time>
      </trkpt>
      <trkpt lat="48.20287" lon="-3.09334">
        <ele>145</ele>
        <time>2015-06-10T13:05:55Z</time>
      </trkpt>
      <trkpt lat="48.20286" lon="-3.09331">
        <ele>146</ele>
        <time>2015-06-10T13:05:59Z</time>
      </trkpt>
      <trkpt lat="48.20285" lon="-3.09331">
        <ele>146</ele>
        <time>2015-06-10T13:06:01Z</time>
      </trkpt>
      <trkpt lat="48.20283" lon="-3.09332">
        <ele>147</ele>
        <time>2015-06-10T13:06:03Z</time>
      </trkpt>
      <trkpt lat="48.20282" lon="-3.09334">
        <ele>149</ele>
        <time>2015-06-10T13:06:07Z</time>
      </trkpt>
      <trkpt lat="48.20281" lon="-3.09335">
        <ele>153</ele>
        <time>2015-06-10T13:06:15Z</time>
      </trkpt>
      <trkpt lat="48.2028" lon="-3.09337">
        <ele>155</ele>
        <time>2015-06-10T13:06:19Z</time>
      </trkpt>
      <trkpt lat="48.20281" lon="-3.09339">
        <ele>155</ele>
        <time>2015-06-10T13:06:23Z</time>
      </trkpt>
      <trkpt lat="48.20281" lon="-3.09341">
        <ele>156</ele>
        <time>2015-06-10T13:06:26Z</time>
      </trkpt>
      <trkpt lat="48.2028" lon="-3.09343">
        <ele>156</ele>
        <time>2015-06-10T13:06:32Z</time>
      </trkpt>
      <trkpt lat="48.20281" lon="-3.09343">
        <ele>156</ele>
        <time>2015-06-10T13:06:38Z</time>
      </trkpt>
      <trkpt lat="48.2028" lon="-3.09343">
        <ele>156</ele>
        <time>2015-06-10T13:06:45Z</time>
      </trkpt>
      <trkpt lat="48.2028" lon="-3.09345">
        <ele>156</ele>
        <time>2015-06-10T13:06:48Z</time>
      </trkpt>
      <trkpt lat="48.20279" lon="-3.09346">
        <ele>156</ele>
        <time>2015-06-10T13:06:52Z</time>
      </trkpt>
      <trkpt lat="48.2028" lon="-3.09344">
        <ele>156</ele>
        <time>2015-06-10T13:07:06Z</time>
      </trkpt>
      <trkpt lat="48.20279" lon="-3.09345">
        <ele>156</ele>
        <time>2015-06-10T13:07:08Z</time>
      </trkpt>
      <trkpt lat="48.20279" lon="-3.09343">
        <ele>156</ele>
        <time>2015-06-10T13:07:13Z</time>
      </trkpt>
      <trkpt lat="48.2028" lon="-3.09341">
        <ele>156</ele>
        <time>2015-06-10T13:07:16Z</time>
      </trkpt>
      <trkpt lat="48.20281" lon="-3.09338">
        <ele>156</ele>
        <time>2015-06-10T13:07:18Z</time>
      </trkpt>
      <trkpt lat="48.20282" lon="-3.09336">
        <ele>155</ele>
        <time>2015-06-10T13:07:20Z</time>
      </trkpt>
      <trkpt lat="48.20283" lon="-3.09334">
        <ele>155</ele>
        <time>2015-06-10T13:07:23Z</time>
      </trkpt>
      <trkpt lat="48.20282" lon="-3.09332">
        <ele>155</ele>
        <time>2015-06-10T13:07:25Z</time>
      </trkpt>
      <trkpt lat="48.20282" lon="-3.0933">
        <ele>155</ele>
        <time>2015-06-10T13:07:27Z</time>
      </trkpt>
      <trkpt lat="48.20281" lon="-3.09326">
        <ele>154</ele>
        <time>2015-06-10T13:07:29Z</time>
      </trkpt>
      <trkpt lat="48.2028" lon="-3.09323">
        <ele>154</ele>
        <time>2015-06-10T13:07:31Z</time>
      </trkpt>
      <trkpt lat="48.20279" lon="-3.0932">
        <ele>153</ele>
        <time>2015-06-10T13:07:33Z</time>
      </trkpt>
      <trkpt lat="48.20277" lon="-3.09318">
        <ele>153</ele>
        <time>2015-06-10T13:07:35Z</time>
      </trkpt>
      <trkpt lat="48.20277" lon="-3.09316">
        <ele>153</ele>
        <time>2015-06-10T13:07:37Z</time>
      </trkpt>
      <trkpt lat="48.20276" lon="-3.09314">
        <ele>153</ele>
        <time>2015-06-10T13:07:39Z</time>
      </trkpt>
      <trkpt lat="48.20276" lon="-3.09311">
        <ele>152</ele>
        <time>2015-06-10T13:07:41Z</time>
      </trkpt>
      <trkpt lat="48.20275" lon="-3.09308">
        <ele>151</ele>
        <time>2015-06-10T13:07:43Z</time>
      </trkpt>
      <trkpt lat="48.20275" lon="-3.09304">
        <ele>150</ele>
        <time>2015-06-10T13:07:45Z</time>
      </trkpt>
      <trkpt lat="48.20275" lon="-3.09299">
        <ele>148</ele>
        <time>2015-06-10T13:07:48Z</time>
      </trkpt>
      <trkpt lat="48.20275" lon="-3.09297">
        <ele>147</ele>
        <time>2015-06-10T13:07:50Z</time>
      </trkpt>
      <trkpt lat="48.20274" lon="-3.09294">
        <ele>146</ele>
        <time>2015-06-10T13:07:52Z</time>
      </trkpt>
      <trkpt lat="48.20275" lon="-3.09292">
        <ele>144</ele>
        <time>2015-06-10T13:07:54Z</time>
      </trkpt>
      <trkpt lat="48.20274" lon="-3.09288">
        <ele>142</ele>
        <time>2015-06-10T13:07:57Z</time>
      </trkpt>
      <trkpt lat="48.20274" lon="-3.09286">
        <ele>142</ele>
        <time>2015-06-10T13:07:59Z</time>
      </trkpt>
      <trkpt lat="48.20274" lon="-3.09284">
        <ele>141</ele>
        <time>2015-06-10T13:08:01Z</time>
      </trkpt>
      <trkpt lat="48.20272" lon="-3.09281">
        <ele>140</ele>
        <time>2015-06-10T13:08:03Z</time>
      </trkpt>
      <trkpt lat="48.20272" lon="-3.09278">
        <ele>140</ele>
        <time>2015-06-10T13:08:05Z</time>
      </trkpt>
      <trkpt lat="48.20272" lon="-3.09275">
        <ele>139</ele>
        <time>2015-06-10T13:08:07Z</time>
      </trkpt>
      <trkpt lat="48.20272" lon="-3.09272">
        <ele>139</ele>
        <time>2015-06-10T13:08:09Z</time>
      </trkpt>
      <trkpt lat="48.20272" lon="-3.09269">
        <ele>139</ele>
        <time>2015-06-10T13:08:11Z</time>
      </trkpt>
      <trkpt lat="48.20272" lon="-3.09267">
        <ele>138</ele>
        <time>2015-06-10T13:08:13Z</time>
      </trkpt>
      <trkpt lat="48.20273" lon="-3.09265">
        <ele>138</ele>
        <time>2015-06-10T13:08:15Z</time>
      </trkpt>
      <trkpt lat="48.20272" lon="-3.0926">
        <ele>138</ele>
        <time>2015-06-10T13:08:18Z</time>
      </trkpt>
      <trkpt lat="48.20272" lon="-3.09257">
        <ele>137</ele>
        <time>2015-06-10T13:08:20Z</time>
      </trkpt>
      <trkpt lat="48.20272" lon="-3.09252">
        <ele>137</ele>
        <time>2015-06-10T13:08:22Z</time>
      </trkpt>
      <trkpt lat="48.20272" lon="-3.09248">
        <ele>137</ele>
        <time>2015-06-10T13:08:25Z</time>
      </trkpt>
      <trkpt lat="48.20272" lon="-3.09244">
        <ele>137</ele>
        <time>2015-06-10T13:08:27Z</time>
      </trkpt>
      <trkpt lat="48.20273" lon="-3.09239">
        <ele>136</ele>
        <time>2015-06-10T13:08:29Z</time>
      </trkpt>
      <trkpt lat="48.20274" lon="-3.09234">
        <ele>136</ele>
        <time>2015-06-10T13:08:31Z</time>
      </trkpt>
      <trkpt lat="48.20273" lon="-3.09229">
        <ele>136</ele>
        <time>2015-06-10T13:08:33Z</time>
      </trkpt>
      <trkpt lat="48.20276" lon="-3.09224">
        <ele>136</ele>
        <time>2015-06-10T13:08:36Z</time>
      </trkpt>
      <trkpt lat="48.20277" lon="-3.09222">
        <ele>136</ele>
        <time>2015-06-10T13:08:38Z</time>
      </trkpt>
      <trkpt lat="48.20278" lon="-3.0922">
        <ele>136</ele>
        <time>2015-06-10T13:08:40Z</time>
      </trkpt>
      <trkpt lat="48.20279" lon="-3.09218">
        <ele>136</ele>
        <time>2015-06-10T13:08:42Z</time>
      </trkpt>
      <trkpt lat="48.20279" lon="-3.09212">
        <ele>136</ele>
        <time>2015-06-10T13:08:45Z</time>
      </trkpt>
      <trkpt lat="48.20282" lon="-3.09208">
        <ele>136</ele>
        <time>2015-06-10T13:08:48Z</time>
      </trkpt>
      <trkpt lat="48.20283" lon="-3.09207">
        <ele>136</ele>
        <time>2015-06-10T13:08:50Z</time>
      </trkpt>
      <trkpt lat="48.20283" lon="-3.09204">
        <ele>136</ele>
        <time>2015-06-10T13:08:52Z</time>
      </trkpt>
      <trkpt lat="48.20284" lon="-3.09199">
        <ele>136</ele>
        <time>2015-06-10T13:08:55Z</time>
      </trkpt>
      <trkpt lat="48.20284" lon="-3.09197">
        <ele>136</ele>
        <time>2015-06-10T13:08:57Z</time>
      </trkpt>
      <trkpt lat="48.20285" lon="-3.09195">
        <ele>136</ele>
        <time>2015-06-10T13:08:59Z</time>
      </trkpt>
      <trkpt lat="48.20285" lon="-3.09192">
        <ele>136</ele>
        <time>2015-06-10T13:09:01Z</time>
      </trkpt>
      <trkpt lat="48.20286" lon="-3.09191">
        <ele>136</ele>
        <time>2015-06-10T13:09:03Z</time>
      </trkpt>
      <trkpt lat="48.20287" lon="-3.09189">
        <ele>136</ele>
        <time>2015-06-10T13:09:05Z</time>
      </trkpt>
      <trkpt lat="48.20288" lon="-3.09185">
        <ele>136</ele>
        <time>2015-06-10T13:09:07Z</time>
      </trkpt>
      <trkpt lat="48.20289" lon="-3.09181">
        <ele>136</ele>
        <time>2015-06-10T13:09:09Z</time>
      </trkpt>
      <trkpt lat="48.2029" lon="-3.09176">
        <ele>136</ele>
        <time>2015-06-10T13:09:12Z</time>
      </trkpt>
      <trkpt lat="48.2029" lon="-3.09172">
        <ele>136</ele>
        <time>2015-06-10T13:09:14Z</time>
      </trkpt>
      <trkpt lat="48.20291" lon="-3.09168">
        <ele>136</ele>
        <time>2015-06-10T13:09:16Z</time>
      </trkpt>
      <trkpt lat="48.20292" lon="-3.09165">
        <ele>136</ele>
        <time>2015-06-10T13:09:18Z</time>
      </trkpt>
      <trkpt lat="48.20292" lon="-3.09163">
        <ele>136</ele>
        <time>2015-06-10T13:09:20Z</time>
      </trkpt>
      <trkpt lat="48.20293" lon="-3.0916">
        <ele>136</ele>
        <time>2015-06-10T13:09:22Z</time>
      </trkpt>
      <trkpt lat="48.20293" lon="-3.09158">
        <ele>136</ele>
        <time>2015-06-10T13:09:24Z</time>
      </trkpt>
      <trkpt lat="48.20293" lon="-3.09156">
        <ele>136</ele>
        <time>2015-06-10T13:09:26Z</time>
      </trkpt>
      <trkpt lat="48.20293" lon="-3.09154">
        <ele>136</ele>
        <time>2015-06-10T13:09:28Z</time>
      </trkpt>
      <trkpt lat="48.20293" lon="-3.09152">
        <ele>136</ele>
        <time>2015-06-10T13:09:30Z</time>
      </trkpt>
      <trkpt lat="48.20293" lon="-3.09149">
        <ele>136</ele>
        <time>2015-06-10T13:09:32Z</time>
      </trkpt>
      <trkpt lat="48.20294" lon="-3.09145">
        <ele>136</ele>
        <time>2015-06-10T13:09:34Z</time>
      </trkpt>
      <trkpt lat="48.20295" lon="-3.09141">
        <ele>135</ele>
        <time>2015-06-10T13:09:36Z</time>
      </trkpt>
      <trkpt lat="48.20294" lon="-3.09137">
        <ele>135</ele>
        <time>2015-06-10T13:09:38Z</time>
      </trkpt>
      <trkpt lat="48.20294" lon="-3.09132">
        <ele>134</ele>
        <time>2015-06-10T13:09:40Z</time>
      </trkpt>
      <trkpt lat="48.20294" lon="-3.09127">
        <ele>134</ele>
        <time>2015-06-10T13:09:42Z</time>
      </trkpt>
      <trkpt lat="48.20295" lon="-3.09125">
        <ele>133</ele>
        <time>2015-06-10T13:09:44Z</time>
      </trkpt>
      <trkpt lat="48.20295" lon="-3.09122">
        <ele>133</ele>
        <time>2015-06-10T13:09:46Z</time>
      </trkpt>
      <trkpt lat="48.20296" lon="-3.09121">
        <ele>133</ele>
        <time>2015-06-10T13:09:49Z</time>
      </trkpt>
      <trkpt lat="48.20296" lon="-3.09118">
        <ele>133</ele>
        <time>2015-06-10T13:09:53Z</time>
      </trkpt>
      <trkpt lat="48.20295" lon="-3.09116">
        <ele>133</ele>
        <time>2015-06-10T13:09:55Z</time>
      </trkpt>
      <trkpt lat="48.20297" lon="-3.09117">
        <ele>133</ele>
        <time>2015-06-10T13:10:05Z</time>
      </trkpt>
      <trkpt lat="48.20298" lon="-3.09118">
        <ele>133</ele>
        <time>2015-06-10T13:10:07Z</time>
      </trkpt>
      <trkpt lat="48.203" lon="-3.0912">
        <ele>133</ele>
        <time>2015-06-10T13:10:10Z</time>
      </trkpt>
      <trkpt lat="48.20298" lon="-3.0912">
        <ele>133</ele>
        <time>2015-06-10T13:10:15Z</time>
      </trkpt>
      <trkpt lat="48.20296" lon="-3.0912">
        <ele>133</ele>
        <time>2015-06-10T13:10:17Z</time>
      </trkpt>
      <trkpt lat="48.20294" lon="-3.09118">
        <ele>133</ele>
        <time>2015-06-10T13:10:19Z</time>
      </trkpt>
      <trkpt lat="48.20291" lon="-3.0912">
        <ele>133</ele>
        <time>2015-06-10T13:10:22Z</time>
      </trkpt>
      <trkpt lat="48.20291" lon="-3.09118">
        <ele>136</ele>
        <time>2015-06-10T13:10:25Z</time>
      </trkpt>
      <trkpt lat="48.20292" lon="-3.09116">
        <ele>136</ele>
        <time>2015-06-10T13:10:27Z</time>
      </trkpt>
      <trkpt lat="48.20294" lon="-3.09114">
        <ele>136</ele>
        <time>2015-06-10T13:10:29Z</time>
      </trkpt>
      <trkpt lat="48.20296" lon="-3.0911">
        <ele>136</ele>
        <time>2015-06-10T13:10:31Z</time>
      </trkpt>
      <trkpt lat="48.20297" lon="-3.09106">
        <ele>136</ele>
        <time>2015-06-10T13:10:33Z</time>
      </trkpt>
      <trkpt lat="48.20298" lon="-3.09104">
        <ele>136</ele>
        <time>2015-06-10T13:10:35Z</time>
      </trkpt>
      <trkpt lat="48.203" lon="-3.09104">
        <ele>136</ele>
        <time>2015-06-10T13:10:37Z</time>
      </trkpt>
      <trkpt lat="48.20301" lon="-3.09102">
        <ele>136</ele>
        <time>2015-06-10T13:10:39Z</time>
      </trkpt>
      <trkpt lat="48.20302" lon="-3.09099">
        <ele>136</ele>
        <time>2015-06-10T13:10:41Z</time>
      </trkpt>
      <trkpt lat="48.20305" lon="-3.09094">
        <ele>136</ele>
        <time>2015-06-10T13:10:44Z</time>
      </trkpt>
      <trkpt lat="48.20306" lon="-3.09092">
        <ele>136</ele>
        <time>2015-06-10T13:10:46Z</time>
      </trkpt>
      <trkpt lat="48.20306" lon="-3.09089">
        <ele>136</ele>
        <time>2015-06-10T13:10:48Z</time>
      </trkpt>
      <trkpt lat="48.20308" lon="-3.09085">
        <ele>136</ele>
        <time>2015-06-10T13:10:50Z</time>
      </trkpt>
      <trkpt lat="48.20308" lon="-3.09081">
        <ele>136</ele>
        <time>2015-06-10T13:10:52Z</time>
      </trkpt>
      <trkpt lat="48.20308" lon="-3.09078">
        <ele>136</ele>
        <time>2015-06-10T13:10:54Z</time>
      </trkpt>
      <trkpt lat="48.20309" lon="-3.09074">
        <ele>136</ele>
        <time>2015-06-10T13:10:56Z</time>
      </trkpt>
      <trkpt lat="48.20311" lon="-3.09072">
        <ele>136</ele>
        <time>2015-06-10T13:10:58Z</time>
      </trkpt>
      <trkpt lat="48.20312" lon="-3.09071">
        <ele>136</ele>
        <time>2015-06-10T13:11:00Z</time>
      </trkpt>
      <trkpt lat="48.20314" lon="-3.09068">
        <ele>136</ele>
        <time>2015-06-10T13:11:02Z</time>
      </trkpt>
      <trkpt lat="48.20315" lon="-3.09065">
        <ele>136</ele>
        <time>2015-06-10T13:11:05Z</time>
      </trkpt>
      <trkpt lat="48.20315" lon="-3.09062">
        <ele>136</ele>
        <time>2015-06-10T13:11:07Z</time>
      </trkpt>
      <trkpt lat="48.20316" lon="-3.09058">
        <ele>136</ele>
        <time>2015-06-10T13:11:09Z</time>
      </trkpt>
      <trkpt lat="48.20318" lon="-3.09056">
        <ele>136</ele>
        <time>2015-06-10T13:11:11Z</time>
      </trkpt>
      <trkpt lat="48.20319" lon="-3.09053">
        <ele>136</ele>
        <time>2015-06-10T13:11:13Z</time>
      </trkpt>
      <trkpt lat="48.20319" lon="-3.09049">
        <ele>136</ele>
        <time>2015-06-10T13:11:16Z</time>
      </trkpt>
      <trkpt lat="48.20321" lon="-3.09045">
        <ele>136</ele>
        <time>2015-06-10T13:11:18Z</time>
      </trkpt>
      <trkpt lat="48.20322" lon="-3.0904">
        <ele>136</ele>
        <time>2015-06-10T13:11:21Z</time>
      </trkpt>
      <trkpt lat="48.20325" lon="-3.09035">
        <ele>136</ele>
        <time>2015-06-10T13:11:24Z</time>
      </trkpt>
      <trkpt lat="48.20327" lon="-3.09032">
        <ele>136</ele>
        <time>2015-06-10T13:11:26Z</time>
      </trkpt>
      <trkpt lat="48.20329" lon="-3.09028">
        <ele>135</ele>
        <time>2015-06-10T13:11:29Z</time>
      </trkpt>
      <trkpt lat="48.2033" lon="-3.09025">
        <ele>135</ele>
        <time>2015-06-10T13:11:31Z</time>
      </trkpt>
      <trkpt lat="48.20332" lon="-3.09019">
        <ele>134</ele>
        <time>2015-06-10T13:11:34Z</time>
      </trkpt>
      <trkpt lat="48.20335" lon="-3.09017">
        <ele>134</ele>
        <time>2015-06-10T13:11:36Z</time>
      </trkpt>
      <trkpt lat="48.20336" lon="-3.09015">
        <ele>134</ele>
        <time>2015-06-10T13:11:38Z</time>
      </trkpt>
      <trkpt lat="48.20337" lon="-3.09012">
        <ele>134</ele>
        <time>2015-06-10T13:11:40Z</time>
      </trkpt>
      <trkpt lat="48.20339" lon="-3.0901">
        <ele>134</ele>
        <time>2015-06-10T13:11:42Z</time>
      </trkpt>
      <trkpt lat="48.20339" lon="-3.09007">
        <ele>134</ele>
        <time>2015-06-10T13:11:44Z</time>
      </trkpt>
      <trkpt lat="48.2034" lon="-3.09004">
        <ele>134</ele>
        <time>2015-06-10T13:11:46Z</time>
      </trkpt>
      <trkpt lat="48.2034" lon="-3.09001">
        <ele>134</ele>
        <time>2015-06-10T13:11:48Z</time>
      </trkpt>
      <trkpt lat="48.20343" lon="-3.08998">
        <ele>134</ele>
        <time>2015-06-10T13:11:50Z</time>
      </trkpt>
      <trkpt lat="48.20346" lon="-3.08998">
        <ele>134</ele>
        <time>2015-06-10T13:11:52Z</time>
      </trkpt>
      <trkpt lat="48.20348" lon="-3.08997">
        <ele>134</ele>
        <time>2015-06-10T13:11:54Z</time>
      </trkpt>
      <trkpt lat="48.2035" lon="-3.08995">
        <ele>133</ele>
        <time>2015-06-10T13:11:56Z</time>
      </trkpt>
      <trkpt lat="48.20352" lon="-3.08994">
        <ele>132</ele>
        <time>2015-06-10T13:11:58Z</time>
      </trkpt>
      <trkpt lat="48.20353" lon="-3.08992">
        <ele>131</ele>
        <time>2015-06-10T13:12:00Z</time>
      </trkpt>
      <trkpt lat="48.20354" lon="-3.08988">
        <ele>131</ele>
        <time>2015-06-10T13:12:02Z</time>
      </trkpt>
      <trkpt lat="48.20356" lon="-3.08985">
        <ele>131</ele>
        <time>2015-06-10T13:12:04Z</time>
      </trkpt>
      <trkpt lat="48.20358" lon="-3.08982">
        <ele>131</ele>
        <time>2015-06-10T13:12:07Z</time>
      </trkpt>
      <trkpt lat="48.20359" lon="-3.0898">
        <ele>131</ele>
        <time>2015-06-10T13:12:09Z</time>
      </trkpt>
      <trkpt lat="48.2036" lon="-3.08978">
        <ele>131</ele>
        <time>2015-06-10T13:12:11Z</time>
      </trkpt>
      <trkpt lat="48.20362" lon="-3.08977">
        <ele>131</ele>
        <time>2015-06-10T13:12:13Z</time>
      </trkpt>
      <trkpt lat="48.20363" lon="-3.08974">
        <ele>131</ele>
        <time>2015-06-10T13:12:15Z</time>
      </trkpt>
      <trkpt lat="48.20364" lon="-3.08971">
        <ele>131</ele>
        <time>2015-06-10T13:12:17Z</time>
      </trkpt>
      <trkpt lat="48.20366" lon="-3.08968">
        <ele>131</ele>
        <time>2015-06-10T13:12:19Z</time>
      </trkpt>
      <trkpt lat="48.20368" lon="-3.08963">
        <ele>131</ele>
        <time>2015-06-10T13:12:22Z</time>
      </trkpt>
      <trkpt lat="48.20369" lon="-3.08961">
        <ele>131</ele>
        <time>2015-06-10T13:12:24Z</time>
      </trkpt>
      <trkpt lat="48.20371" lon="-3.08959">
        <ele>131</ele>
        <time>2015-06-10T13:12:26Z</time>
      </trkpt>
      <trkpt lat="48.20372" lon="-3.08957">
        <ele>131</ele>
        <time>2015-06-10T13:12:28Z</time>
      </trkpt>
      <trkpt lat="48.20372" lon="-3.08955">
        <ele>131</ele>
        <time>2015-06-10T13:12:30Z</time>
      </trkpt>
      <trkpt lat="48.20372" lon="-3.08953">
        <ele>131</ele>
        <time>2015-06-10T13:12:32Z</time>
      </trkpt>
      <trkpt lat="48.20372" lon="-3.08948">
        <ele>131</ele>
        <time>2015-06-10T13:12:34Z</time>
      </trkpt>
      <trkpt lat="48.20376" lon="-3.08945">
        <ele>131</ele>
        <time>2015-06-10T13:12:37Z</time>
      </trkpt>
      <trkpt lat="48.20377" lon="-3.08941">
        <ele>131</ele>
        <time>2015-06-10T13:12:40Z</time>
      </trkpt>
      <trkpt lat="48.20378" lon="-3.08939">
        <ele>131</ele>
        <time>2015-06-10T13:12:42Z</time>
      </trkpt>
      <trkpt lat="48.2038" lon="-3.08936">
        <ele>131</ele>
        <time>2015-06-10T13:12:44Z</time>
      </trkpt>
      <trkpt lat="48.2038" lon="-3.08932">
        <ele>131</ele>
        <time>2015-06-10T13:12:46Z</time>
      </trkpt>
      <trkpt lat="48.20382" lon="-3.08931">
        <ele>131</ele>
        <time>2015-06-10T13:12:48Z</time>
      </trkpt>
      <trkpt lat="48.20384" lon="-3.08928">
        <ele>131</ele>
        <time>2015-06-10T13:12:50Z</time>
      </trkpt>
      <trkpt lat="48.20385" lon="-3.08927">
        <ele>131</ele>
        <time>2015-06-10T13:12:54Z</time>
      </trkpt>
      <trkpt lat="48.20385" lon="-3.08925">
        <ele>131</ele>
        <time>2015-06-10T13:12:56Z</time>
      </trkpt>
      <trkpt lat="48.20385" lon="-3.08922">
        <ele>131</ele>
        <time>2015-06-10T13:12:58Z</time>
      </trkpt>
      <trkpt lat="48.20385" lon="-3.0892">
        <ele>131</ele>
        <time>2015-06-10T13:13:03Z</time>
      </trkpt>
      <trkpt lat="48.20385" lon="-3.08917">
        <ele>131</ele>
        <time>2015-06-10T13:13:06Z</time>
      </trkpt>
      <trkpt lat="48.20384" lon="-3.08914">
        <ele>131</ele>
        <time>2015-06-10T13:13:08Z</time>
      </trkpt>
      <trkpt lat="48.20385" lon="-3.08912">
        <ele>131</ele>
        <time>2015-06-10T13:13:11Z</time>
      </trkpt>
      <trkpt lat="48.20385" lon="-3.08909">
        <ele>131</ele>
        <time>2015-06-10T13:13:13Z</time>
      </trkpt>
      <trkpt lat="48.20386" lon="-3.08907">
        <ele>131</ele>
        <time>2015-06-10T13:13:15Z</time>
      </trkpt>
      <trkpt lat="48.20387" lon="-3.08905">
        <ele>131</ele>
        <time>2015-06-10T13:13:17Z</time>
      </trkpt>
      <trkpt lat="48.20389" lon="-3.08902">
        <ele>131</ele>
        <time>2015-06-10T13:13:20Z</time>
      </trkpt>
      <trkpt lat="48.2039" lon="-3.089">
        <ele>131</ele>
        <time>2015-06-10T13:13:22Z</time>
      </trkpt>
      <trkpt lat="48.20391" lon="-3.08898">
        <ele>131</ele>
        <time>2015-06-10T13:13:24Z</time>
      </trkpt>
      <trkpt lat="48.20393" lon="-3.08896">
        <ele>132</ele>
        <time>2015-06-10T13:13:26Z</time>
      </trkpt>
      <trkpt lat="48.20393" lon="-3.08894">
        <ele>132</ele>
        <time>2015-06-10T13:13:28Z</time>
      </trkpt>
      <trkpt lat="48.20394" lon="-3.08894">
        <ele>133</ele>
        <time>2015-06-10T13:13:30Z</time>
      </trkpt>
      <trkpt lat="48.20395" lon="-3.08892">
        <ele>134</ele>
        <time>2015-06-10T13:13:32Z</time>
      </trkpt>
      <trkpt lat="48.20398" lon="-3.08888">
        <ele>134</ele>
        <time>2015-06-10T13:13:36Z</time>
      </trkpt>
      <trkpt lat="48.20399" lon="-3.08887">
        <ele>134</ele>
        <time>2015-06-10T13:13:38Z</time>
      </trkpt>
      <trkpt lat="48.204" lon="-3.08885">
        <ele>134</ele>
        <time>2015-06-10T13:13:40Z</time>
      </trkpt>
      <trkpt lat="48.204" lon="-3.08883">
        <ele>134</ele>
        <time>2015-06-10T13:13:42Z</time>
      </trkpt>
      <trkpt lat="48.204" lon="-3.08881">
        <ele>134</ele>
        <time>2015-06-10T13:13:44Z</time>
      </trkpt>
      <trkpt lat="48.204" lon="-3.08879">
        <ele>134</ele>
        <time>2015-06-10T13:13:46Z</time>
      </trkpt>
      <trkpt lat="48.20401" lon="-3.08877">
        <ele>134</ele>
        <time>2015-06-10T13:13:48Z</time>
      </trkpt>
      <trkpt lat="48.20403" lon="-3.08873">
        <ele>134</ele>
        <time>2015-06-10T13:13:52Z</time>
      </trkpt>
      <trkpt lat="48.20404" lon="-3.0887">
        <ele>134</ele>
        <time>2015-06-10T13:13:55Z</time>
      </trkpt>
      <trkpt lat="48.20406" lon="-3.08864">
        <ele>132</ele>
        <time>2015-06-10T13:13:59Z</time>
      </trkpt>
      <trkpt lat="48.20407" lon="-3.0886">
        <ele>132</ele>
        <time>2015-06-10T13:14:02Z</time>
      </trkpt>
      <trkpt lat="48.20408" lon="-3.08858">
        <ele>131</ele>
        <time>2015-06-10T13:14:04Z</time>
      </trkpt>
      <trkpt lat="48.20409" lon="-3.08857">
        <ele>130</ele>
        <time>2015-06-10T13:14:07Z</time>
      </trkpt>
      <trkpt lat="48.20409" lon="-3.08854">
        <ele>129</ele>
        <time>2015-06-10T13:14:11Z</time>
      </trkpt>
      <trkpt lat="48.2041" lon="-3.08851">
        <ele>128</ele>
        <time>2015-06-10T13:14:13Z</time>
      </trkpt>
      <trkpt lat="48.2041" lon="-3.08849">
        <ele>128</ele>
        <time>2015-06-10T13:14:15Z</time>
      </trkpt>
      <trkpt lat="48.20412" lon="-3.08847">
        <ele>128</ele>
        <time>2015-06-10T13:14:17Z</time>
      </trkpt>
      <trkpt lat="48.20412" lon="-3.08845">
        <ele>127</ele>
        <time>2015-06-10T13:14:19Z</time>
      </trkpt>
      <trkpt lat="48.20414" lon="-3.08843">
        <ele>127</ele>
        <time>2015-06-10T13:14:22Z</time>
      </trkpt>
      <trkpt lat="48.20415" lon="-3.08842">
        <ele>127</ele>
        <time>2015-06-10T13:14:24Z</time>
      </trkpt>
      <trkpt lat="48.20416" lon="-3.0884">
        <ele>127</ele>
        <time>2015-06-10T13:14:26Z</time>
      </trkpt>
      <trkpt lat="48.20418" lon="-3.08838">
        <ele>127</ele>
        <time>2015-06-10T13:14:29Z</time>
      </trkpt>
      <trkpt lat="48.20419" lon="-3.08837">
        <ele>127</ele>
        <time>2015-06-10T13:14:31Z</time>
      </trkpt>
      <trkpt lat="48.2042" lon="-3.08835">
        <ele>127</ele>
        <time>2015-06-10T13:14:34Z</time>
      </trkpt>
      <trkpt lat="48.20421" lon="-3.08833">
        <ele>127</ele>
        <time>2015-06-10T13:14:38Z</time>
      </trkpt>
      <trkpt lat="48.20422" lon="-3.08831">
        <ele>127</ele>
        <time>2015-06-10T13:14:41Z</time>
      </trkpt>
      <trkpt lat="48.20422" lon="-3.08829">
        <ele>127</ele>
        <time>2015-06-10T13:14:43Z</time>
      </trkpt>
      <trkpt lat="48.20422" lon="-3.08827">
        <ele>127</ele>
        <time>2015-06-10T13:14:45Z</time>
      </trkpt>
      <trkpt lat="48.20424" lon="-3.08824">
        <ele>129</ele>
        <time>2015-06-10T13:14:50Z</time>
      </trkpt>
      <trkpt lat="48.20424" lon="-3.08822">
        <ele>130</ele>
        <time>2015-06-10T13:14:53Z</time>
      </trkpt>
      <trkpt lat="48.20424" lon="-3.08821">
        <ele>130</ele>
        <time>2015-06-10T13:14:55Z</time>
      </trkpt>
      <trkpt lat="48.20424" lon="-3.08819">
        <ele>130</ele>
        <time>2015-06-10T13:14:57Z</time>
      </trkpt>
      <trkpt lat="48.20423" lon="-3.08817">
        <ele>130</ele>
        <time>2015-06-10T13:14:59Z</time>
      </trkpt>
      <trkpt lat="48.20424" lon="-3.08815">
        <ele>130</ele>
        <time>2015-06-10T13:15:02Z</time>
      </trkpt>
      <trkpt lat="48.20425" lon="-3.08813">
        <ele>130</ele>
        <time>2015-06-10T13:15:06Z</time>
      </trkpt>
      <trkpt lat="48.20423" lon="-3.0881">
        <ele>130</ele>
        <time>2015-06-10T13:15:11Z</time>
      </trkpt>
      <trkpt lat="48.20423" lon="-3.08807">
        <ele>130</ele>
        <time>2015-06-10T13:15:13Z</time>
      </trkpt>
      <trkpt lat="48.20423" lon="-3.08805">
        <ele>130</ele>
        <time>2015-06-10T13:15:15Z</time>
      </trkpt>
      <trkpt lat="48.20423" lon="-3.08801">
        <ele>130</ele>
        <time>2015-06-10T13:15:17Z</time>
      </trkpt>
      <trkpt lat="48.20424" lon="-3.08795">
        <ele>130</ele>
        <time>2015-06-10T13:15:20Z</time>
      </trkpt>
      <trkpt lat="48.20425" lon="-3.08791">
        <ele>130</ele>
        <time>2015-06-10T13:15:22Z</time>
      </trkpt>
      <trkpt lat="48.20426" lon="-3.08788">
        <ele>130</ele>
        <time>2015-06-10T13:15:24Z</time>
      </trkpt>
      <trkpt lat="48.20427" lon="-3.08784">
        <ele>130</ele>
        <time>2015-06-10T13:15:26Z</time>
      </trkpt>
      <trkpt lat="48.2043" lon="-3.0878">
        <ele>130</ele>
        <time>2015-06-10T13:15:29Z</time>
      </trkpt>
      <trkpt lat="48.20432" lon="-3.08779">
        <ele>130</ele>
        <time>2015-06-10T13:15:31Z</time>
      </trkpt>
      <trkpt lat="48.20434" lon="-3.08777">
        <ele>130</ele>
        <time>2015-06-10T13:15:33Z</time>
      </trkpt>
      <trkpt lat="48.20435" lon="-3.08775">
        <ele>129</ele>
        <time>2015-06-10T13:15:35Z</time>
      </trkpt>
      <trkpt lat="48.20435" lon="-3.08772">
        <ele>128</ele>
        <time>2015-06-10T13:15:37Z</time>
      </trkpt>
      <trkpt lat="48.20436" lon="-3.0877">
        <ele>128</ele>
        <time>2015-06-10T13:15:39Z</time>
      </trkpt>
      <trkpt lat="48.20437" lon="-3.08768">
        <ele>128</ele>
        <time>2015-06-10T13:15:41Z</time>
      </trkpt>
      <trkpt lat="48.20438" lon="-3.08765">
        <ele>128</ele>
        <time>2015-06-10T13:15:43Z</time>
      </trkpt>
      <trkpt lat="48.20439" lon="-3.08763">
        <ele>128</ele>
        <time>2015-06-10T13:15:45Z</time>
      </trkpt>
      <trkpt lat="48.20441" lon="-3.08758">
        <ele>128</ele>
        <time>2015-06-10T13:15:48Z</time>
      </trkpt>
      <trkpt lat="48.20442" lon="-3.08754">
        <ele>128</ele>
        <time>2015-06-10T13:15:50Z</time>
      </trkpt>
      <trkpt lat="48.20442" lon="-3.08751">
        <ele>128</ele>
        <time>2015-06-10T13:15:52Z</time>
      </trkpt>
      <trkpt lat="48.20443" lon="-3.08748">
        <ele>128</ele>
        <time>2015-06-10T13:15:54Z</time>
      </trkpt>
      <trkpt lat="48.20443" lon="-3.08746">
        <ele>128</ele>
        <time>2015-06-10T13:15:56Z</time>
      </trkpt>
      <trkpt lat="48.20445" lon="-3.08744">
        <ele>128</ele>
        <time>2015-06-10T13:15:58Z</time>
      </trkpt>
      <trkpt lat="48.20447" lon="-3.08743">
        <ele>128</ele>
        <time>2015-06-10T13:16:00Z</time>
      </trkpt>
      <trkpt lat="48.20449" lon="-3.08743">
        <ele>128</ele>
        <time>2015-06-10T13:16:02Z</time>
      </trkpt>
      <trkpt lat="48.20451" lon="-3.08742">
        <ele>128</ele>
        <time>2015-06-10T13:16:04Z</time>
      </trkpt>
      <trkpt lat="48.20454" lon="-3.08739">
        <ele>128</ele>
        <time>2015-06-10T13:16:07Z</time>
      </trkpt>
      <trkpt lat="48.20456" lon="-3.08735">
        <ele>128</ele>
        <time>2015-06-10T13:16:10Z</time>
      </trkpt>
      <trkpt lat="48.20457" lon="-3.08734">
        <ele>128</ele>
        <time>2015-06-10T13:16:12Z</time>
      </trkpt>
      <trkpt lat="48.20459" lon="-3.08732">
        <ele>128</ele>
        <time>2015-06-10T13:16:14Z</time>
      </trkpt>
      <trkpt lat="48.2046" lon="-3.08728">
        <ele>128</ele>
        <time>2015-06-10T13:16:16Z</time>
      </trkpt>
      <trkpt lat="48.20461" lon="-3.08723">
        <ele>128</ele>
        <time>2015-06-10T13:16:19Z</time>
      </trkpt>
      <trkpt lat="48.20461" lon="-3.08718">
        <ele>128</ele>
        <time>2015-06-10T13:16:22Z</time>
      </trkpt>
      <trkpt lat="48.20461" lon="-3.08716">
        <ele>128</ele>
        <time>2015-06-10T13:16:24Z</time>
      </trkpt>
      <trkpt lat="48.20462" lon="-3.08712">
        <ele>128</ele>
        <time>2015-06-10T13:16:27Z</time>
      </trkpt>
      <trkpt lat="48.20463" lon="-3.08708">
        <ele>128</ele>
        <time>2015-06-10T13:16:30Z</time>
      </trkpt>
      <trkpt lat="48.20463" lon="-3.08704">
        <ele>128</ele>
        <time>2015-06-10T13:16:32Z</time>
      </trkpt>
      <trkpt lat="48.20465" lon="-3.08699">
        <ele>128</ele>
        <time>2015-06-10T13:16:35Z</time>
      </trkpt>
      <trkpt lat="48.20466" lon="-3.08696">
        <ele>128</ele>
        <time>2015-06-10T13:16:37Z</time>
      </trkpt>
      <trkpt lat="48.20467" lon="-3.08693">
        <ele>128</ele>
        <time>2015-06-10T13:16:39Z</time>
      </trkpt>
      <trkpt lat="48.20468" lon="-3.0869">
        <ele>128</ele>
        <time>2015-06-10T13:16:41Z</time>
      </trkpt>
      <trkpt lat="48.2047" lon="-3.08688">
        <ele>128</ele>
        <time>2015-06-10T13:16:43Z</time>
      </trkpt>
      <trkpt lat="48.20472" lon="-3.08687">
        <ele>128</ele>
        <time>2015-06-10T13:16:45Z</time>
      </trkpt>
      <trkpt lat="48.20475" lon="-3.08686">
        <ele>127</ele>
        <time>2015-06-10T13:16:47Z</time>
      </trkpt>
      <trkpt lat="48.20477" lon="-3.08686">
        <ele>126</ele>
        <time>2015-06-10T13:16:49Z</time>
      </trkpt>
      <trkpt lat="48.2048" lon="-3.08687">
        <ele>126</ele>
        <time>2015-06-10T13:16:51Z</time>
      </trkpt>
      <trkpt lat="48.20482" lon="-3.08688">
        <ele>126</ele>
        <time>2015-06-10T13:16:53Z</time>
      </trkpt>
      <trkpt lat="48.20485" lon="-3.08689">
        <ele>126</ele>
        <time>2015-06-10T13:16:55Z</time>
      </trkpt>
      <trkpt lat="48.20488" lon="-3.0869">
        <ele>126</ele>
        <time>2015-06-10T13:16:57Z</time>
      </trkpt>
      <trkpt lat="48.20491" lon="-3.0869">
        <ele>126</ele>
        <time>2015-06-10T13:16:59Z</time>
      </trkpt>
      <trkpt lat="48.20494" lon="-3.08692">
        <ele>126</ele>
        <time>2015-06-10T13:17:02Z</time>
      </trkpt>
      <trkpt lat="48.20497" lon="-3.0869">
        <ele>126</ele>
        <time>2015-06-10T13:17:04Z</time>
      </trkpt>
      <trkpt lat="48.205" lon="-3.08688">
        <ele>126</ele>
        <time>2015-06-10T13:17:06Z</time>
      </trkpt>
      <trkpt lat="48.20503" lon="-3.08688">
        <ele>126</ele>
        <time>2015-06-10T13:17:09Z</time>
      </trkpt>
      <trkpt lat="48.20507" lon="-3.08688">
        <ele>126</ele>
        <time>2015-06-10T13:17:11Z</time>
      </trkpt>
      <trkpt lat="48.2051" lon="-3.08687">
        <ele>126</ele>
        <time>2015-06-10T13:17:13Z</time>
      </trkpt>
      <trkpt lat="48.20512" lon="-3.08687">
        <ele>126</ele>
        <time>2015-06-10T13:17:15Z</time>
      </trkpt>
      <trkpt lat="48.20517" lon="-3.08684">
        <ele>126</ele>
        <time>2015-06-10T13:17:19Z</time>
      </trkpt>
      <trkpt lat="48.2052" lon="-3.08682">
        <ele>126</ele>
        <time>2015-06-10T13:17:21Z</time>
      </trkpt>
      <trkpt lat="48.20523" lon="-3.08682">
        <ele>126</ele>
        <time>2015-06-10T13:17:23Z</time>
      </trkpt>
      <trkpt lat="48.20526" lon="-3.0868">
        <ele>126</ele>
        <time>2015-06-10T13:17:25Z</time>
      </trkpt>
      <trkpt lat="48.20529" lon="-3.08681">
        <ele>126</ele>
        <time>2015-06-10T13:17:27Z</time>
      </trkpt>
      <trkpt lat="48.20532" lon="-3.0868">
        <ele>126</ele>
        <time>2015-06-10T13:17:30Z</time>
      </trkpt>
      <trkpt lat="48.20535" lon="-3.0868">
        <ele>126</ele>
        <time>2015-06-10T13:17:32Z</time>
      </trkpt>
      <trkpt lat="48.20538" lon="-3.0868">
        <ele>126</ele>
        <time>2015-06-10T13:17:35Z</time>
      </trkpt>
      <trkpt lat="48.20541" lon="-3.08681">
        <ele>126</ele>
        <time>2015-06-10T13:17:37Z</time>
      </trkpt>
      <trkpt lat="48.20543" lon="-3.08681">
        <ele>126</ele>
        <time>2015-06-10T13:17:39Z</time>
      </trkpt>
      <trkpt lat="48.20546" lon="-3.08681">
        <ele>126</ele>
        <time>2015-06-10T13:17:41Z</time>
      </trkpt>
      <trkpt lat="48.20549" lon="-3.08681">
        <ele>126</ele>
        <time>2015-06-10T13:17:43Z</time>
      </trkpt>
      <trkpt lat="48.20551" lon="-3.08683">
        <ele>126</ele>
        <time>2015-06-10T13:17:45Z</time>
      </trkpt>
      <trkpt lat="48.20553" lon="-3.08683">
        <ele>126</ele>
        <time>2015-06-10T13:17:49Z</time>
      </trkpt>
      <trkpt lat="48.20556" lon="-3.08684">
        <ele>126</ele>
        <time>2015-06-10T13:17:51Z</time>
      </trkpt>
      <trkpt lat="48.2056" lon="-3.08684">
        <ele>126</ele>
        <time>2015-06-10T13:17:53Z</time>
      </trkpt>
      <trkpt lat="48.20563" lon="-3.08684">
        <ele>126</ele>
        <time>2015-06-10T13:17:56Z</time>
      </trkpt>
      <trkpt lat="48.20565" lon="-3.08683">
        <ele>126</ele>
        <time>2015-06-10T13:17:58Z</time>
      </trkpt>
      <trkpt lat="48.20566" lon="-3.08681">
        <ele>126</ele>
        <time>2015-06-10T13:18:01Z</time>
      </trkpt>
      <trkpt lat="48.20569" lon="-3.08681">
        <ele>126</ele>
        <time>2015-06-10T13:18:04Z</time>
      </trkpt>
      <trkpt lat="48.20572" lon="-3.08681">
        <ele>126</ele>
        <time>2015-06-10T13:18:06Z</time>
      </trkpt>
      <trkpt lat="48.20574" lon="-3.08682">
        <ele>126</ele>
        <time>2015-06-10T13:18:08Z</time>
      </trkpt>
      <trkpt lat="48.20575" lon="-3.08682">
        <ele>126</ele>
        <time>2015-06-10T13:18:10Z</time>
      </trkpt>
      <trkpt lat="48.20578" lon="-3.08682">
        <ele>126</ele>
        <time>2015-06-10T13:18:12Z</time>
      </trkpt>
      <trkpt lat="48.20581" lon="-3.08683">
        <ele>126</ele>
        <time>2015-06-10T13:18:14Z</time>
      </trkpt>
      <trkpt lat="48.20583" lon="-3.08685">
        <ele>126</ele>
        <time>2015-06-10T13:18:16Z</time>
      </trkpt>
      <trkpt lat="48.20587" lon="-3.08687">
        <ele>126</ele>
        <time>2015-06-10T13:18:18Z</time>
      </trkpt>
      <trkpt lat="48.20591" lon="-3.08689">
        <ele>126</ele>
        <time>2015-06-10T13:18:20Z</time>
      </trkpt>
      <trkpt lat="48.20592" lon="-3.08691">
        <ele>126</ele>
        <time>2015-06-10T13:18:22Z</time>
      </trkpt>
      <trkpt lat="48.20593" lon="-3.08693">
        <ele>126</ele>
        <time>2015-06-10T13:18:25Z</time>
      </trkpt>
      <trkpt lat="48.20594" lon="-3.08693">
        <ele>126</ele>
        <time>2015-06-10T13:18:27Z</time>
      </trkpt>
      <trkpt lat="48.20595" lon="-3.08693">
        <ele>126</ele>
        <time>2015-06-10T13:18:29Z</time>
      </trkpt>
      <trkpt lat="48.20597" lon="-3.08694">
        <ele>126</ele>
        <time>2015-06-10T13:18:31Z</time>
      </trkpt>
      <trkpt lat="48.20598" lon="-3.08694">
        <ele>126</ele>
        <time>2015-06-10T13:18:33Z</time>
      </trkpt>
      <trkpt lat="48.206" lon="-3.08695">
        <ele>126</ele>
        <time>2015-06-10T13:18:36Z</time>
      </trkpt>
      <trkpt lat="48.206" lon="-3.08693">
        <ele>126</ele>
        <time>2015-06-10T13:18:40Z</time>
      </trkpt>
      <trkpt lat="48.206" lon="-3.08691">
        <ele>126</ele>
        <time>2015-06-10T13:18:42Z</time>
      </trkpt>
      <trkpt lat="48.20602" lon="-3.08689">
        <ele>126</ele>
        <time>2015-06-10T13:18:45Z</time>
      </trkpt>
      <trkpt lat="48.20604" lon="-3.08687">
        <ele>126</ele>
        <time>2015-06-10T13:18:47Z</time>
      </trkpt>
      <trkpt lat="48.20608" lon="-3.08687">
        <ele>126</ele>
        <time>2015-06-10T13:18:50Z</time>
      </trkpt>
      <trkpt lat="48.2061" lon="-3.08687">
        <ele>126</ele>
        <time>2015-06-10T13:18:52Z</time>
      </trkpt>
      <trkpt lat="48.20613" lon="-3.08688">
        <ele>126</ele>
        <time>2015-06-10T13:18:54Z</time>
      </trkpt>
      <trkpt lat="48.20618" lon="-3.08689">
        <ele>126</ele>
        <time>2015-06-10T13:18:57Z</time>
      </trkpt>
      <trkpt lat="48.20619" lon="-3.08689">
        <ele>126</ele>
        <time>2015-06-10T13:18:59Z</time>
      </trkpt>
      <trkpt lat="48.20622" lon="-3.08688">
        <ele>126</ele>
        <time>2015-06-10T13:19:01Z</time>
      </trkpt>
      <trkpt lat="48.20623" lon="-3.08687">
        <ele>126</ele>
        <time>2015-06-10T13:19:03Z</time>
      </trkpt>
      <trkpt lat="48.20626" lon="-3.08685">
        <ele>126</ele>
        <time>2015-06-10T13:19:06Z</time>
      </trkpt>
      <trkpt lat="48.20628" lon="-3.08685">
        <ele>127</ele>
        <time>2015-06-10T13:19:08Z</time>
      </trkpt>
      <trkpt lat="48.2063" lon="-3.08686">
        <ele>127</ele>
        <time>2015-06-10T13:19:10Z</time>
      </trkpt>
      <trkpt lat="48.20633" lon="-3.08686">
        <ele>127</ele>
        <time>2015-06-10T13:19:12Z</time>
      </trkpt>
      <trkpt lat="48.20634" lon="-3.08687">
        <ele>127</ele>
        <time>2015-06-10T13:19:14Z</time>
      </trkpt>
      <trkpt lat="48.20636" lon="-3.08687">
        <ele>127</ele>
        <time>2015-06-10T13:19:18Z</time>
      </trkpt>
      <trkpt lat="48.20637" lon="-3.08686">
        <ele>127</ele>
        <time>2015-06-10T13:19:20Z</time>
      </trkpt>
      <trkpt lat="48.20639" lon="-3.08684">
        <ele>127</ele>
        <time>2015-06-10T13:19:22Z</time>
      </trkpt>
      <trkpt lat="48.20641" lon="-3.08684">
        <ele>127</ele>
        <time>2015-06-10T13:19:24Z</time>
      </trkpt>
      <trkpt lat="48.20643" lon="-3.08683">
        <ele>127</ele>
        <time>2015-06-10T13:19:26Z</time>
      </trkpt>
      <trkpt lat="48.20647" lon="-3.08683">
        <ele>127</ele>
        <time>2015-06-10T13:19:29Z</time>
      </trkpt>
      <trkpt lat="48.20649" lon="-3.08683">
        <ele>127</ele>
        <time>2015-06-10T13:19:31Z</time>
      </trkpt>
      <trkpt lat="48.20652" lon="-3.08683">
        <ele>127</ele>
        <time>2015-06-10T13:19:33Z</time>
      </trkpt>
      <trkpt lat="48.20655" lon="-3.08683">
        <ele>127</ele>
        <time>2015-06-10T13:19:35Z</time>
      </trkpt>
      <trkpt lat="48.20658" lon="-3.08681">
        <ele>127</ele>
        <time>2015-06-10T13:19:38Z</time>
      </trkpt>
      <trkpt lat="48.2066" lon="-3.08682">
        <ele>127</ele>
        <time>2015-06-10T13:19:40Z</time>
      </trkpt>
      <trkpt lat="48.20664" lon="-3.08681">
        <ele>127</ele>
        <time>2015-06-10T13:19:42Z</time>
      </trkpt>
      <trkpt lat="48.20668" lon="-3.08681">
        <ele>127</ele>
        <time>2015-06-10T13:19:45Z</time>
      </trkpt>
      <trkpt lat="48.20671" lon="-3.08681">
        <ele>127</ele>
        <time>2015-06-10T13:19:47Z</time>
      </trkpt>
      <trkpt lat="48.20675" lon="-3.08682">
        <ele>127</ele>
        <time>2015-06-10T13:19:50Z</time>
      </trkpt>
      <trkpt lat="48.20678" lon="-3.08683">
        <ele>127</ele>
        <time>2015-06-10T13:19:53Z</time>
      </trkpt>
      <trkpt lat="48.20682" lon="-3.08685">
        <ele>127</ele>
        <time>2015-06-10T13:19:56Z</time>
      </trkpt>
      <trkpt lat="48.20686" lon="-3.08688">
        <ele>127</ele>
        <time>2015-06-10T13:19:59Z</time>
      </trkpt>
      <trkpt lat="48.20689" lon="-3.08689">
        <ele>127</ele>
        <time>2015-06-10T13:20:01Z</time>
      </trkpt>
      <trkpt lat="48.20691" lon="-3.08691">
        <ele>127</ele>
        <time>2015-06-10T13:20:04Z</time>
      </trkpt>
      <trkpt lat="48.20694" lon="-3.08692">
        <ele>127</ele>
        <time>2015-06-10T13:20:06Z</time>
      </trkpt>
      <trkpt lat="48.20697" lon="-3.08694">
        <ele>127</ele>
        <time>2015-06-10T13:20:10Z</time>
      </trkpt>
      <trkpt lat="48.20699" lon="-3.08695">
        <ele>127</ele>
        <time>2015-06-10T13:20:12Z</time>
      </trkpt>
      <trkpt lat="48.20703" lon="-3.08695">
        <ele>127</ele>
        <time>2015-06-10T13:20:15Z</time>
      </trkpt>
      <trkpt lat="48.20705" lon="-3.08695">
        <ele>127</ele>
        <time>2015-06-10T13:20:17Z</time>
      </trkpt>
      <trkpt lat="48.20707" lon="-3.08696">
        <ele>127</ele>
        <time>2015-06-10T13:20:19Z</time>
      </trkpt>
      <trkpt lat="48.20708" lon="-3.08696">
        <ele>127</ele>
        <time>2015-06-10T13:20:22Z</time>
      </trkpt>
      <trkpt lat="48.2071" lon="-3.08695">
        <ele>127</ele>
        <time>2015-06-10T13:20:24Z</time>
      </trkpt>
      <trkpt lat="48.20711" lon="-3.08696">
        <ele>127</ele>
        <time>2015-06-10T13:20:26Z</time>
      </trkpt>
      <trkpt lat="48.20713" lon="-3.08697">
        <ele>127</ele>
        <time>2015-06-10T13:20:28Z</time>
      </trkpt>
      <trkpt lat="48.20715" lon="-3.08698">
        <ele>127</ele>
        <time>2015-06-10T13:20:30Z</time>
      </trkpt>
      <trkpt lat="48.20717" lon="-3.08697">
        <ele>127</ele>
        <time>2015-06-10T13:20:32Z</time>
      </trkpt>
      <trkpt lat="48.20719" lon="-3.08697">
        <ele>127</ele>
        <time>2015-06-10T13:20:34Z</time>
      </trkpt>
      <trkpt lat="48.2072" lon="-3.08698">
        <ele>127</ele>
        <time>2015-06-10T13:20:36Z</time>
      </trkpt>
      <trkpt lat="48.20722" lon="-3.08699">
        <ele>127</ele>
        <time>2015-06-10T13:20:38Z</time>
      </trkpt>
      <trkpt lat="48.20724" lon="-3.08699">
        <ele>127</ele>
        <time>2015-06-10T13:20:40Z</time>
      </trkpt>
      <trkpt lat="48.20725" lon="-3.08697">
        <ele>128</ele>
        <time>2015-06-10T13:20:43Z</time>
      </trkpt>
      <trkpt lat="48.20726" lon="-3.08694">
        <ele>131</ele>
        <time>2015-06-10T13:20:50Z</time>
      </trkpt>
      <trkpt lat="48.20729" lon="-3.08693">
        <ele>131</ele>
        <time>2015-06-10T13:20:52Z</time>
      </trkpt>
      <trkpt lat="48.20731" lon="-3.08694">
        <ele>132</ele>
        <time>2015-06-10T13:20:55Z</time>
      </trkpt>
      <trkpt lat="48.20732" lon="-3.08694">
        <ele>132</ele>
        <time>2015-06-10T13:20:59Z</time>
      </trkpt>
      <trkpt lat="48.2073" lon="-3.08695">
        <ele>132</ele>
        <time>2015-06-10T13:21:02Z</time>
      </trkpt>
      <trkpt lat="48.20729" lon="-3.08696">
        <ele>132</ele>
        <time>2015-06-10T13:21:06Z</time>
      </trkpt>
      <trkpt lat="48.2073" lon="-3.08698">
        <ele>132</ele>
        <time>2015-06-10T13:21:11Z</time>
      </trkpt>
      <trkpt lat="48.20732" lon="-3.08698">
        <ele>132</ele>
        <time>2015-06-10T13:21:15Z</time>
      </trkpt>
      <trkpt lat="48.2073" lon="-3.08699">
        <ele>132</ele>
        <time>2015-06-10T13:21:21Z</time>
      </trkpt>
      <trkpt lat="48.20731" lon="-3.08701">
        <ele>132</ele>
        <time>2015-06-10T13:21:39Z</time>
      </trkpt>
      <trkpt lat="48.2073" lon="-3.08702">
        <ele>132</ele>
        <time>2015-06-10T13:21:50Z</time>
      </trkpt>
      <trkpt lat="48.20729" lon="-3.08702">
        <ele>132</ele>
        <time>2015-06-10T13:21:55Z</time>
      </trkpt>
      <trkpt lat="48.2073" lon="-3.087">
        <ele>132</ele>
        <time>2015-06-10T13:22:26Z</time>
      </trkpt>
      <trkpt lat="48.20731" lon="-3.08701">
        <ele>132</ele>
        <time>2015-06-10T13:22:31Z</time>
      </trkpt>
      <trkpt lat="48.20731" lon="-3.08699">
        <ele>132</ele>
        <time>2015-06-10T13:22:34Z</time>
      </trkpt>
      <trkpt lat="48.20731" lon="-3.08697">
        <ele>131</ele>
        <time>2015-06-10T13:22:38Z</time>
      </trkpt>
      <trkpt lat="48.20732" lon="-3.08695">
        <ele>130</ele>
        <time>2015-06-10T13:22:40Z</time>
      </trkpt>
      <trkpt lat="48.20734" lon="-3.08692">
        <ele>130</ele>
        <time>2015-06-10T13:22:42Z</time>
      </trkpt>
      <trkpt lat="48.20737" lon="-3.08691">
        <ele>129</ele>
        <time>2015-06-10T13:22:44Z</time>
      </trkpt>
      <trkpt lat="48.20739" lon="-3.08692">
        <ele>129</ele>
        <time>2015-06-10T13:22:46Z</time>
      </trkpt>
      <trkpt lat="48.20741" lon="-3.08692">
        <ele>129</ele>
        <time>2015-06-10T13:22:48Z</time>
      </trkpt>
      <trkpt lat="48.20743" lon="-3.08692">
        <ele>129</ele>
        <time>2015-06-10T13:22:50Z</time>
      </trkpt>
      <trkpt lat="48.20744" lon="-3.08693">
        <ele>129</ele>
        <time>2015-06-10T13:22:53Z</time>
      </trkpt>
      <trkpt lat="48.20746" lon="-3.08695">
        <ele>129</ele>
        <time>2015-06-10T13:22:56Z</time>
      </trkpt>
      <trkpt lat="48.20747" lon="-3.08692">
        <ele>129</ele>
        <time>2015-06-10T13:23:00Z</time>
      </trkpt>
      <trkpt lat="48.20748" lon="-3.0869">
        <ele>129</ele>
        <time>2015-06-10T13:23:02Z</time>
      </trkpt>
      <trkpt lat="48.2075" lon="-3.08689">
        <ele>129</ele>
        <time>2015-06-10T13:23:04Z</time>
      </trkpt>
      <trkpt lat="48.20753" lon="-3.08688">
        <ele>129</ele>
        <time>2015-06-10T13:23:08Z</time>
      </trkpt>
      <trkpt lat="48.20756" lon="-3.08688">
        <ele>129</ele>
        <time>2015-06-10T13:23:10Z</time>
      </trkpt>
      <trkpt lat="48.20759" lon="-3.08688">
        <ele>129</ele>
        <time>2015-06-10T13:23:13Z</time>
      </trkpt>
      <trkpt lat="48.20761" lon="-3.08688">
        <ele>129</ele>
        <time>2015-06-10T13:23:15Z</time>
      </trkpt>
      <trkpt lat="48.20762" lon="-3.08688">
        <ele>129</ele>
        <time>2015-06-10T13:23:17Z</time>
      </trkpt>
      <trkpt lat="48.20765" lon="-3.08688">
        <ele>129</ele>
        <time>2015-06-10T13:23:19Z</time>
      </trkpt>
      <trkpt lat="48.20768" lon="-3.08687">
        <ele>129</ele>
        <time>2015-06-10T13:23:21Z</time>
      </trkpt>
      <trkpt lat="48.20769" lon="-3.08687">
        <ele>129</ele>
        <time>2015-06-10T13:23:23Z</time>
      </trkpt>
      <trkpt lat="48.2077" lon="-3.08689">
        <ele>129</ele>
        <time>2015-06-10T13:23:25Z</time>
      </trkpt>
      <trkpt lat="48.20772" lon="-3.0869">
        <ele>129</ele>
        <time>2015-06-10T13:23:27Z</time>
      </trkpt>
      <trkpt lat="48.20775" lon="-3.08691">
        <ele>129</ele>
        <time>2015-06-10T13:23:29Z</time>
      </trkpt>
      <trkpt lat="48.20777" lon="-3.08693">
        <ele>129</ele>
        <time>2015-06-10T13:23:31Z</time>
      </trkpt>
      <trkpt lat="48.20779" lon="-3.08697">
        <ele>129</ele>
        <time>2015-06-10T13:23:34Z</time>
      </trkpt>
      <trkpt lat="48.20781" lon="-3.08698">
        <ele>129</ele>
        <time>2015-06-10T13:23:36Z</time>
      </trkpt>
      <trkpt lat="48.20784" lon="-3.08699">
        <ele>129</ele>
        <time>2015-06-10T13:23:38Z</time>
      </trkpt>
      <trkpt lat="48.20786" lon="-3.08698">
        <ele>129</ele>
        <time>2015-06-10T13:23:45Z</time>
      </trkpt>
      <trkpt lat="48.20786" lon="-3.08695">
        <ele>129</ele>
        <time>2015-06-10T13:23:47Z</time>
      </trkpt>
      <trkpt lat="48.20787" lon="-3.08694">
        <ele>130</ele>
        <time>2015-06-10T13:23:50Z</time>
      </trkpt>
      <trkpt lat="48.20788" lon="-3.08696">
        <ele>133</ele>
        <time>2015-06-10T13:23:56Z</time>
      </trkpt>
      <trkpt lat="48.2079" lon="-3.08698">
        <ele>135</ele>
        <time>2015-06-10T13:24:01Z</time>
      </trkpt>
      <trkpt lat="48.2079" lon="-3.087">
        <ele>135</ele>
        <time>2015-06-10T13:24:03Z</time>
      </trkpt>
      <trkpt lat="48.20789" lon="-3.08703">
        <ele>136</ele>
        <time>2015-06-10T13:24:07Z</time>
      </trkpt>
      <trkpt lat="48.20789" lon="-3.08705">
        <ele>138</ele>
        <time>2015-06-10T13:24:14Z</time>
      </trkpt>
      <trkpt lat="48.20787" lon="-3.08709">
        <ele>141</ele>
        <time>2015-06-10T13:24:18Z</time>
      </trkpt>
      <trkpt lat="48.20787" lon="-3.08711">
        <ele>142</ele>
        <time>2015-06-10T13:24:23Z</time>
      </trkpt>
      <trkpt lat="48.20788" lon="-3.08712">
        <ele>143</ele>
        <time>2015-06-10T13:24:26Z</time>
      </trkpt>
      <trkpt lat="48.20791" lon="-3.08713">
        <ele>143</ele>
        <time>2015-06-10T13:24:28Z</time>
      </trkpt>
      <trkpt lat="48.20793" lon="-3.08715">
        <ele>143</ele>
        <time>2015-06-10T13:24:30Z</time>
      </trkpt>
      <trkpt lat="48.20794" lon="-3.08717">
        <ele>145</ele>
        <time>2015-06-10T13:24:39Z</time>
      </trkpt>
      <trkpt lat="48.20794" lon="-3.08719">
        <ele>146</ele>
        <time>2015-06-10T13:24:41Z</time>
      </trkpt>
      <trkpt lat="48.20794" lon="-3.08721">
        <ele>146</ele>
        <time>2015-06-10T13:24:44Z</time>
      </trkpt>
      <trkpt lat="48.20795" lon="-3.08722">
        <ele>146</ele>
        <time>2015-06-10T13:24:50Z</time>
      </trkpt>
      <trkpt lat="48.20796" lon="-3.08724">
        <ele>146</ele>
        <time>2015-06-10T13:24:52Z</time>
      </trkpt>
      <trkpt lat="48.20795" lon="-3.08727">
        <ele>146</ele>
        <time>2015-06-10T13:24:54Z</time>
      </trkpt>
      <trkpt lat="48.20793" lon="-3.08729">
        <ele>146</ele>
        <time>2015-06-10T13:24:57Z</time>
      </trkpt>
      <trkpt lat="48.20791" lon="-3.08731">
        <ele>146</ele>
        <time>2015-06-10T13:24:59Z</time>
      </trkpt>
      <trkpt lat="48.20791" lon="-3.08734">
        <ele>146</ele>
        <time>2015-06-10T13:25:01Z</time>
      </trkpt>
      <trkpt lat="48.20792" lon="-3.08736">
        <ele>146</ele>
        <time>2015-06-10T13:25:04Z</time>
      </trkpt>
      <trkpt lat="48.20789" lon="-3.08738">
        <ele>146</ele>
        <time>2015-06-10T13:25:06Z</time>
      </trkpt>
      <trkpt lat="48.20788" lon="-3.0874">
        <ele>146</ele>
        <time>2015-06-10T13:25:08Z</time>
      </trkpt>
      <trkpt lat="48.20787" lon="-3.08742">
        <ele>146</ele>
        <time>2015-06-10T13:25:11Z</time>
      </trkpt>
      <trkpt lat="48.20785" lon="-3.08746">
        <ele>146</ele>
        <time>2015-06-10T13:25:16Z</time>
      </trkpt>
      <trkpt lat="48.20784" lon="-3.08751">
        <ele>146</ele>
        <time>2015-06-10T13:25:21Z</time>
      </trkpt>
      <trkpt lat="48.20784" lon="-3.08753">
        <ele>146</ele>
        <time>2015-06-10T13:25:24Z</time>
      </trkpt>
      <trkpt lat="48.20786" lon="-3.08756">
        <ele>146</ele>
        <time>2015-06-10T13:25:29Z</time>
      </trkpt>
      <trkpt lat="48.2079" lon="-3.08757">
        <ele>146</ele>
        <time>2015-06-10T13:25:32Z</time>
      </trkpt>
      <trkpt lat="48.20791" lon="-3.08759">
        <ele>147</ele>
        <time>2015-06-10T13:25:35Z</time>
      </trkpt>
      <trkpt lat="48.20791" lon="-3.08761">
        <ele>148</ele>
        <time>2015-06-10T13:25:38Z</time>
      </trkpt>
      <trkpt lat="48.20792" lon="-3.08763">
        <ele>149</ele>
        <time>2015-06-10T13:25:40Z</time>
      </trkpt>
      <trkpt lat="48.20791" lon="-3.08765">
        <ele>150</ele>
        <time>2015-06-10T13:25:42Z</time>
      </trkpt>
      <trkpt lat="48.2079" lon="-3.08767">
        <ele>151</ele>
        <time>2015-06-10T13:25:45Z</time>
      </trkpt>
      <trkpt lat="48.20787" lon="-3.08771">
        <ele>151</ele>
        <time>2015-06-10T13:25:50Z</time>
      </trkpt>
      <trkpt lat="48.20787" lon="-3.08773">
        <ele>151</ele>
        <time>2015-06-10T13:25:52Z</time>
      </trkpt>
      <trkpt lat="48.20787" lon="-3.08775">
        <ele>151</ele>
        <time>2015-06-10T13:25:54Z</time>
      </trkpt>
      <trkpt lat="48.20787" lon="-3.08777">
        <ele>151</ele>
        <time>2015-06-10T13:25:56Z</time>
      </trkpt>
      <trkpt lat="48.20784" lon="-3.08783">
        <ele>153</ele>
        <time>2015-06-10T13:26:00Z</time>
      </trkpt>
      <trkpt lat="48.20783" lon="-3.08784">
        <ele>153</ele>
        <time>2015-06-10T13:26:02Z</time>
      </trkpt>
      <trkpt lat="48.20782" lon="-3.08787">
        <ele>154</ele>
        <time>2015-06-10T13:26:04Z</time>
      </trkpt>
      <trkpt lat="48.20781" lon="-3.08789">
        <ele>154</ele>
        <time>2015-06-10T13:26:06Z</time>
      </trkpt>
      <trkpt lat="48.20783" lon="-3.0879">
        <ele>156</ele>
        <time>2015-06-10T13:26:09Z</time>
      </trkpt>
      <trkpt lat="48.20784" lon="-3.0879">
        <ele>157</ele>
        <time>2015-06-10T13:26:12Z</time>
      </trkpt>
      <trkpt lat="48.20786" lon="-3.08789">
        <ele>157</ele>
        <time>2015-06-10T13:26:15Z</time>
      </trkpt>
      <trkpt lat="48.20787" lon="-3.08789">
        <ele>157</ele>
        <time>2015-06-10T13:26:17Z</time>
      </trkpt>
      <trkpt lat="48.20789" lon="-3.08788">
        <ele>158</ele>
        <time>2015-06-10T13:26:19Z</time>
      </trkpt>
      <trkpt lat="48.2079" lon="-3.08787">
        <ele>159</ele>
        <time>2015-06-10T13:26:22Z</time>
      </trkpt>
      <trkpt lat="48.20792" lon="-3.08786">
        <ele>160</ele>
        <time>2015-06-10T13:26:24Z</time>
      </trkpt>
      <trkpt lat="48.20794" lon="-3.08788">
        <ele>161</ele>
        <time>2015-06-10T13:26:27Z</time>
      </trkpt>
      <trkpt lat="48.20795" lon="-3.08789">
        <ele>163</ele>
        <time>2015-06-10T13:26:30Z</time>
      </trkpt>
      <trkpt lat="48.20794" lon="-3.08788">
        <ele>167</ele>
        <time>2015-06-10T13:26:39Z</time>
      </trkpt>
      <trkpt lat="48.20792" lon="-3.08786">
        <ele>170</ele>
        <time>2015-06-10T13:26:44Z</time>
      </trkpt>
      <trkpt lat="48.20793" lon="-3.08784">
        <ele>171</ele>
        <time>2015-06-10T13:26:46Z</time>
      </trkpt>
      <trkpt lat="48.20794" lon="-3.08785">
        <ele>173</ele>
        <time>2015-06-10T13:26:54Z</time>
      </trkpt>
      <trkpt lat="48.20794" lon="-3.08787">
        <ele>173</ele>
        <time>2015-06-10T13:26:57Z</time>
      </trkpt>
      <trkpt lat="48.20793" lon="-3.08789">
        <ele>173</ele>
        <time>2015-06-10T13:26:59Z</time>
      </trkpt>
      <trkpt lat="48.20795" lon="-3.0879">
        <ele>173</ele>
        <time>2015-06-10T13:27:02Z</time>
      </trkpt>
      <trkpt lat="48.20793" lon="-3.08788">
        <ele>173</ele>
        <time>2015-06-10T13:27:05Z</time>
      </trkpt>
      <trkpt lat="48.20792" lon="-3.08788">
        <ele>173</ele>
        <time>2015-06-10T13:27:11Z</time>
      </trkpt>
      <trkpt lat="48.20792" lon="-3.0879">
        <ele>173</ele>
        <time>2015-06-10T13:27:15Z</time>
      </trkpt>
      <trkpt lat="48.2079" lon="-3.08791">
        <ele>173</ele>
        <time>2015-06-10T13:27:17Z</time>
      </trkpt>
      <trkpt lat="48.20792" lon="-3.08791">
        <ele>172</ele>
        <time>2015-06-10T13:27:22Z</time>
      </trkpt>
      <trkpt lat="48.20791" lon="-3.08792">
        <ele>170</ele>
        <time>2015-06-10T13:27:25Z</time>
      </trkpt>
      <trkpt lat="48.2079" lon="-3.0879">
        <ele>170</ele>
        <time>2015-06-10T13:27:27Z</time>
      </trkpt>
      <trkpt lat="48.20792" lon="-3.08791">
        <ele>167</ele>
        <time>2015-06-10T13:27:34Z</time>
      </trkpt>
      <trkpt lat="48.20793" lon="-3.08791">
        <ele>166</ele>
        <time>2015-06-10T13:27:36Z</time>
      </trkpt>
      <trkpt lat="48.20795" lon="-3.08792">
        <ele>164</ele>
        <time>2015-06-10T13:27:38Z</time>
      </trkpt>
      <trkpt lat="48.20797" lon="-3.08794">
        <ele>162</ele>
        <time>2015-06-10T13:27:40Z</time>
      </trkpt>
      <trkpt lat="48.20797" lon="-3.08796">
        <ele>159</ele>
        <time>2015-06-10T13:27:42Z</time>
      </trkpt>
      <trkpt lat="48.20796" lon="-3.088">
        <ele>153</ele>
        <time>2015-06-10T13:27:46Z</time>
      </trkpt>
      <trkpt lat="48.20796" lon="-3.08802">
        <ele>151</ele>
        <time>2015-06-10T13:27:48Z</time>
      </trkpt>
      <trkpt lat="48.20795" lon="-3.088">
        <ele>149</ele>
        <time>2015-06-10T13:27:51Z</time>
      </trkpt>
      <trkpt lat="48.20794" lon="-3.08797">
        <ele>149</ele>
        <time>2015-06-10T13:27:54Z</time>
      </trkpt>
      <trkpt lat="48.20792" lon="-3.08797">
        <ele>152</ele>
        <time>2015-06-10T13:27:57Z</time>
      </trkpt>
      <trkpt lat="48.20792" lon="-3.08799">
        <ele>155</ele>
        <time>2015-06-10T13:28:01Z</time>
      </trkpt>
      <trkpt lat="48.20792" lon="-3.08801">
        <ele>155</ele>
        <time>2015-06-10T13:28:05Z</time>
      </trkpt>
      <trkpt lat="48.2079" lon="-3.08804">
        <ele>155</ele>
        <time>2015-06-10T13:28:12Z</time>
      </trkpt>
      <trkpt lat="48.20791" lon="-3.08805">
        <ele>155</ele>
        <time>2015-06-10T13:28:17Z</time>
      </trkpt>
      <trkpt lat="48.20793" lon="-3.08804">
        <ele>154</ele>
        <time>2015-06-10T13:28:20Z</time>
      </trkpt>
      <trkpt lat="48.20794" lon="-3.08802">
        <ele>153</ele>
        <time>2015-06-10T13:28:24Z</time>
      </trkpt>
      <trkpt lat="48.20792" lon="-3.08801">
        <ele>153</ele>
        <time>2015-06-10T13:28:30Z</time>
      </trkpt>
      <trkpt lat="48.2079" lon="-3.08801">
        <ele>153</ele>
        <time>2015-06-10T13:28:33Z</time>
      </trkpt>
      <trkpt lat="48.20792" lon="-3.08801">
        <ele>153</ele>
        <time>2015-06-10T13:28:39Z</time>
      </trkpt>
      <trkpt lat="48.20793" lon="-3.08799">
        <ele>153</ele>
        <time>2015-06-10T13:28:46Z</time>
      </trkpt>
      <trkpt lat="48.20794" lon="-3.08795">
        <ele>154</ele>
        <time>2015-06-10T13:28:48Z</time>
      </trkpt>
      <trkpt lat="48.20795" lon="-3.08791">
        <ele>158</ele>
        <time>2015-06-10T13:28:53Z</time>
      </trkpt>
      <trkpt lat="48.20797" lon="-3.08792">
        <ele>159</ele>
        <time>2015-06-10T13:28:55Z</time>
      </trkpt>
      <trkpt lat="48.20798" lon="-3.0879">
        <ele>159</ele>
        <time>2015-06-10T13:28:57Z</time>
      </trkpt>
      <trkpt lat="48.20801" lon="-3.08791">
        <ele>160</ele>
        <time>2015-06-10T13:29:00Z</time>
      </trkpt>
      <trkpt lat="48.20797" lon="-3.08787">
        <ele>165</ele>
        <time>2015-06-10T13:29:05Z</time>
      </trkpt>
      <trkpt lat="48.20796" lon="-3.08784">
        <ele>166</ele>
        <time>2015-06-10T13:29:08Z</time>
      </trkpt>
      <trkpt lat="48.20795" lon="-3.08781">
        <ele>167</ele>
        <time>2015-06-10T13:29:10Z</time>
      </trkpt>
      <trkpt lat="48.20795" lon="-3.08778">
        <ele>168</ele>
        <time>2015-06-10T13:29:12Z</time>
      </trkpt>
      <trkpt lat="48.20796" lon="-3.08775">
        <ele>168</ele>
        <time>2015-06-10T13:29:14Z</time>
      </trkpt>
      <trkpt lat="48.20796" lon="-3.0877">
        <ele>168</ele>
        <time>2015-06-10T13:29:17Z</time>
      </trkpt>
      <trkpt lat="48.20796" lon="-3.08768">
        <ele>168</ele>
        <time>2015-06-10T13:29:19Z</time>
      </trkpt>
      <trkpt lat="48.20796" lon="-3.08766">
        <ele>168</ele>
        <time>2015-06-10T13:29:21Z</time>
      </trkpt>
      <trkpt lat="48.20797" lon="-3.08763">
        <ele>168</ele>
        <time>2015-06-10T13:29:23Z</time>
      </trkpt>
      <trkpt lat="48.20798" lon="-3.08761">
        <ele>168</ele>
        <time>2015-06-10T13:29:25Z</time>
      </trkpt>
      <trkpt lat="48.20798" lon="-3.08759">
        <ele>168</ele>
        <time>2015-06-10T13:29:29Z</time>
      </trkpt>
      <trkpt lat="48.20798" lon="-3.08757">
        <ele>168</ele>
        <time>2015-06-10T13:29:31Z</time>
      </trkpt>
      <trkpt lat="48.20799" lon="-3.08755">
        <ele>168</ele>
        <time>2015-06-10T13:29:33Z</time>
      </trkpt>
      <trkpt lat="48.20799" lon="-3.08751">
        <ele>168</ele>
        <time>2015-06-10T13:29:37Z</time>
      </trkpt>
      <trkpt lat="48.208" lon="-3.08749">
        <ele>167</ele>
        <time>2015-06-10T13:29:40Z</time>
      </trkpt>
      <trkpt lat="48.20801" lon="-3.08746">
        <ele>166</ele>
        <time>2015-06-10T13:29:42Z</time>
      </trkpt>
      <trkpt lat="48.20802" lon="-3.08744">
        <ele>165</ele>
        <time>2015-06-10T13:29:44Z</time>
      </trkpt>
      <trkpt lat="48.20802" lon="-3.08741">
        <ele>164</ele>
        <time>2015-06-10T13:29:46Z</time>
      </trkpt>
      <trkpt lat="48.20803" lon="-3.08739">
        <ele>163</ele>
        <time>2015-06-10T13:29:48Z</time>
      </trkpt>
      <trkpt lat="48.20805" lon="-3.08735">
        <ele>162</ele>
        <time>2015-06-10T13:29:52Z</time>
      </trkpt>
      <trkpt lat="48.20807" lon="-3.08733">
        <ele>161</ele>
        <time>2015-06-10T13:29:55Z</time>
      </trkpt>
      <trkpt lat="48.20807" lon="-3.08731">
        <ele>159</ele>
        <time>2015-06-10T13:29:58Z</time>
      </trkpt>
      <trkpt lat="48.20808" lon="-3.08729">
        <ele>158</ele>
        <time>2015-06-10T13:30:00Z</time>
      </trkpt>
      <trkpt lat="48.20808" lon="-3.08727">
        <ele>157</ele>
        <time>2015-06-10T13:30:02Z</time>
      </trkpt>
      <trkpt lat="48.20809" lon="-3.08723">
        <ele>156</ele>
        <time>2015-06-10T13:30:05Z</time>
      </trkpt>
      <trkpt lat="48.2081" lon="-3.08721">
        <ele>156</ele>
        <time>2015-06-10T13:30:07Z</time>
      </trkpt>
      <trkpt lat="48.20814" lon="-3.0872">
        <ele>155</ele>
        <time>2015-06-10T13:30:10Z</time>
      </trkpt>
      <trkpt lat="48.20816" lon="-3.0872">
        <ele>155</ele>
        <time>2015-06-10T13:30:12Z</time>
      </trkpt>
      <trkpt lat="48.20817" lon="-3.08719">
        <ele>155</ele>
        <time>2015-06-10T13:30:15Z</time>
      </trkpt>
      <trkpt lat="48.20819" lon="-3.0872">
        <ele>155</ele>
        <time>2015-06-10T13:30:17Z</time>
      </trkpt>
      <trkpt lat="48.2082" lon="-3.0872">
        <ele>155</ele>
        <time>2015-06-10T13:30:19Z</time>
      </trkpt>
      <trkpt lat="48.20822" lon="-3.08721">
        <ele>155</ele>
        <time>2015-06-10T13:30:22Z</time>
      </trkpt>
      <trkpt lat="48.20824" lon="-3.08722">
        <ele>155</ele>
        <time>2015-06-10T13:30:24Z</time>
      </trkpt>
      <trkpt lat="48.20826" lon="-3.08723">
        <ele>155</ele>
        <time>2015-06-10T13:30:26Z</time>
      </trkpt>
      <trkpt lat="48.20827" lon="-3.08723">
        <ele>155</ele>
        <time>2015-06-10T13:30:28Z</time>
      </trkpt>
      <trkpt lat="48.20829" lon="-3.08723">
        <ele>155</ele>
        <time>2015-06-10T13:30:30Z</time>
      </trkpt>
      <trkpt lat="48.2083" lon="-3.08724">
        <ele>156</ele>
        <time>2015-06-10T13:30:32Z</time>
      </trkpt>
      <trkpt lat="48.20832" lon="-3.08725">
        <ele>157</ele>
        <time>2015-06-10T13:30:35Z</time>
      </trkpt>
      <trkpt lat="48.20833" lon="-3.08723">
        <ele>159</ele>
        <time>2015-06-10T13:30:37Z</time>
      </trkpt>
      <trkpt lat="48.20836" lon="-3.08726">
        <ele>161</ele>
        <time>2015-06-10T13:30:40Z</time>
      </trkpt>
      <trkpt lat="48.20837" lon="-3.08728">
        <ele>161</ele>
        <time>2015-06-10T13:30:42Z</time>
      </trkpt>
      <trkpt lat="48.2084" lon="-3.08729">
        <ele>161</ele>
        <time>2015-06-10T13:30:44Z</time>
      </trkpt>
      <trkpt lat="48.20841" lon="-3.0873">
        <ele>161</ele>
        <time>2015-06-10T13:30:46Z</time>
      </trkpt>
      <trkpt lat="48.20842" lon="-3.08731">
        <ele>162</ele>
        <time>2015-06-10T13:30:48Z</time>
      </trkpt>
      <trkpt lat="48.20844" lon="-3.08733">
        <ele>162</ele>
        <time>2015-06-10T13:30:50Z</time>
      </trkpt>
      <trkpt lat="48.20846" lon="-3.08734">
        <ele>162</ele>
        <time>2015-06-10T13:30:52Z</time>
      </trkpt>
      <trkpt lat="48.20849" lon="-3.08737">
        <ele>162</ele>
        <time>2015-06-10T13:30:55Z</time>
      </trkpt>
      <trkpt lat="48.20852" lon="-3.08741">
        <ele>162</ele>
        <time>2015-06-10T13:30:59Z</time>
      </trkpt>
      <trkpt lat="48.20853" lon="-3.08745">
        <ele>162</ele>
        <time>2015-06-10T13:31:02Z</time>
      </trkpt>
      <trkpt lat="48.20854" lon="-3.08747">
        <ele>162</ele>
        <time>2015-06-10T13:31:04Z</time>
      </trkpt>
      <trkpt lat="48.20854" lon="-3.08749">
        <ele>162</ele>
        <time>2015-06-10T13:31:06Z</time>
      </trkpt>
      <trkpt lat="48.20855" lon="-3.08751">
        <ele>162</ele>
        <time>2015-06-10T13:31:10Z</time>
      </trkpt>
      <trkpt lat="48.20857" lon="-3.08751">
        <ele>162</ele>
        <time>2015-06-10T13:31:12Z</time>
      </trkpt>
      <trkpt lat="48.20859" lon="-3.08751">
        <ele>162</ele>
        <time>2015-06-10T13:31:15Z</time>
      </trkpt>
      <trkpt lat="48.2086" lon="-3.08752">
        <ele>162</ele>
        <time>2015-06-10T13:31:24Z</time>
      </trkpt>
      <trkpt lat="48.20859" lon="-3.08752">
        <ele>163</ele>
        <time>2015-06-10T13:31:32Z</time>
      </trkpt>
      <trkpt lat="48.20858" lon="-3.08751">
        <ele>163</ele>
        <time>2015-06-10T13:31:39Z</time>
      </trkpt>
      <trkpt lat="48.20857" lon="-3.0875">
        <ele>163</ele>
        <time>2015-06-10T13:31:42Z</time>
      </trkpt>
      <trkpt lat="48.20855" lon="-3.08748">
        <ele>163</ele>
        <time>2015-06-10T13:31:45Z</time>
      </trkpt>
      <trkpt lat="48.20857" lon="-3.0875">
        <ele>163</ele>
        <time>2015-06-10T13:31:50Z</time>
      </trkpt>
      <trkpt lat="48.20858" lon="-3.08751">
        <ele>163</ele>
        <time>2015-06-10T13:31:52Z</time>
      </trkpt>
      <trkpt lat="48.2086" lon="-3.08751">
        <ele>163</ele>
        <time>2015-06-10T13:31:54Z</time>
      </trkpt>
      <trkpt lat="48.20861" lon="-3.08751">
        <ele>163</ele>
        <time>2015-06-10T13:32:08Z</time>
      </trkpt>
      <trkpt lat="48.20863" lon="-3.08752">
        <ele>163</ele>
        <time>2015-06-10T13:32:10Z</time>
      </trkpt>
      <trkpt lat="48.20865" lon="-3.08752">
        <ele>163</ele>
        <time>2015-06-10T13:32:12Z</time>
      </trkpt>
      <trkpt lat="48.20867" lon="-3.08753">
        <ele>163</ele>
        <time>2015-06-10T13:32:14Z</time>
      </trkpt>
      <trkpt lat="48.20868" lon="-3.08754">
        <ele>163</ele>
        <time>2015-06-10T13:32:16Z</time>
      </trkpt>
      <trkpt lat="48.2087" lon="-3.08756">
        <ele>163</ele>
        <time>2015-06-10T13:32:18Z</time>
      </trkpt>
      <trkpt lat="48.20872" lon="-3.0876">
        <ele>163</ele>
        <time>2015-06-10T13:32:21Z</time>
      </trkpt>
      <trkpt lat="48.20873" lon="-3.08763">
        <ele>163</ele>
        <time>2015-06-10T13:32:24Z</time>
      </trkpt>
      <trkpt lat="48.20874" lon="-3.08764">
        <ele>163</ele>
        <time>2015-06-10T13:32:26Z</time>
      </trkpt>
      <trkpt lat="48.20876" lon="-3.08764">
        <ele>163</ele>
        <time>2015-06-10T13:32:28Z</time>
      </trkpt>
      <trkpt lat="48.20877" lon="-3.08766">
        <ele>163</ele>
        <time>2015-06-10T13:32:30Z</time>
      </trkpt>
      <trkpt lat="48.2088" lon="-3.08768">
        <ele>163</ele>
        <time>2015-06-10T13:32:32Z</time>
      </trkpt>
      <trkpt lat="48.20882" lon="-3.08772">
        <ele>163</ele>
        <time>2015-06-10T13:32:35Z</time>
      </trkpt>
      <trkpt lat="48.20884" lon="-3.08774">
        <ele>163</ele>
        <time>2015-06-10T13:32:37Z</time>
      </trkpt>
      <trkpt lat="48.20885" lon="-3.08776">
        <ele>163</ele>
        <time>2015-06-10T13:32:39Z</time>
      </trkpt>
      <trkpt lat="48.20886" lon="-3.08777">
        <ele>163</ele>
        <time>2015-06-10T13:32:41Z</time>
      </trkpt>
      <trkpt lat="48.20887" lon="-3.0878">
        <ele>163</ele>
        <time>2015-06-10T13:32:43Z</time>
      </trkpt>
      <trkpt lat="48.20888" lon="-3.08782">
        <ele>163</ele>
        <time>2015-06-10T13:32:45Z</time>
      </trkpt>
      <trkpt lat="48.2089" lon="-3.08784">
        <ele>162</ele>
        <time>2015-06-10T13:32:51Z</time>
      </trkpt>
      <trkpt lat="48.20891" lon="-3.08785">
        <ele>162</ele>
        <time>2015-06-10T13:32:53Z</time>
      </trkpt>
      <trkpt lat="48.20892" lon="-3.08786">
        <ele>162</ele>
        <time>2015-06-10T13:32:55Z</time>
      </trkpt>
      <trkpt lat="48.20895" lon="-3.08786">
        <ele>162</ele>
        <time>2015-06-10T13:32:57Z</time>
      </trkpt>
      <trkpt lat="48.20898" lon="-3.08786">
        <ele>162</ele>
        <time>2015-06-10T13:33:00Z</time>
      </trkpt>
      <trkpt lat="48.209" lon="-3.08787">
        <ele>160</ele>
        <time>2015-06-10T13:33:03Z</time>
      </trkpt>
      <trkpt lat="48.20901" lon="-3.08787">
        <ele>158</ele>
        <time>2015-06-10T13:33:07Z</time>
      </trkpt>
      <trkpt lat="48.20901" lon="-3.08789">
        <ele>158</ele>
        <time>2015-06-10T13:33:12Z</time>
      </trkpt>
      <trkpt lat="48.20904" lon="-3.08792">
        <ele>158</ele>
        <time>2015-06-10T13:33:17Z</time>
      </trkpt>
      <trkpt lat="48.20905" lon="-3.08795">
        <ele>158</ele>
        <time>2015-06-10T13:33:19Z</time>
      </trkpt>
      <trkpt lat="48.20907" lon="-3.08797">
        <ele>158</ele>
        <time>2015-06-10T13:33:21Z</time>
      </trkpt>
      <trkpt lat="48.20908" lon="-3.08801">
        <ele>158</ele>
        <time>2015-06-10T13:33:24Z</time>
      </trkpt>
      <trkpt lat="48.20909" lon="-3.08803">
        <ele>158</ele>
        <time>2015-06-10T13:33:26Z</time>
      </trkpt>
      <trkpt lat="48.2091" lon="-3.08804">
        <ele>157</ele>
        <time>2015-06-10T13:33:28Z</time>
      </trkpt>
      <trkpt lat="48.20912" lon="-3.08804">
        <ele>156</ele>
        <time>2015-06-10T13:33:30Z</time>
      </trkpt>
      <trkpt lat="48.20915" lon="-3.08804">
        <ele>155</ele>
        <time>2015-06-10T13:33:32Z</time>
      </trkpt>
      <trkpt lat="48.20915" lon="-3.08807">
        <ele>154</ele>
        <time>2015-06-10T13:33:34Z</time>
      </trkpt>
      <trkpt lat="48.20915" lon="-3.08811">
        <ele>153</ele>
        <time>2015-06-10T13:33:37Z</time>
      </trkpt>
      <trkpt lat="48.20918" lon="-3.08812">
        <ele>152</ele>
        <time>2015-06-10T13:33:40Z</time>
      </trkpt>
      <trkpt lat="48.2092" lon="-3.08813">
        <ele>151</ele>
        <time>2015-06-10T13:33:42Z</time>
      </trkpt>
      <trkpt lat="48.20926" lon="-3.08813">
        <ele>150</ele>
        <time>2015-06-10T13:33:45Z</time>
      </trkpt>
      <trkpt lat="48.20928" lon="-3.08813">
        <ele>150</ele>
        <time>2015-06-10T13:33:47Z</time>
      </trkpt>
      <trkpt lat="48.20932" lon="-3.08811">
        <ele>150</ele>
        <time>2015-06-10T13:33:50Z</time>
      </trkpt>
      <trkpt lat="48.20933" lon="-3.0881">
        <ele>150</ele>
        <time>2015-06-10T13:33:52Z</time>
      </trkpt>
      <trkpt lat="48.20934" lon="-3.08809">
        <ele>150</ele>
        <time>2015-06-10T13:33:54Z</time>
      </trkpt>
      <trkpt lat="48.20936" lon="-3.08809">
        <ele>150</ele>
        <time>2015-06-10T13:33:58Z</time>
      </trkpt>
      <trkpt lat="48.20937" lon="-3.08809">
        <ele>150</ele>
        <time>2015-06-10T13:34:00Z</time>
      </trkpt>
      <trkpt lat="48.2094" lon="-3.08807">
        <ele>150</ele>
        <time>2015-06-10T13:34:03Z</time>
      </trkpt>
      <trkpt lat="48.20942" lon="-3.08806">
        <ele>150</ele>
        <time>2015-06-10T13:34:05Z</time>
      </trkpt>
      <trkpt lat="48.20943" lon="-3.08805">
        <ele>150</ele>
        <time>2015-06-10T13:34:08Z</time>
      </trkpt>
      <trkpt lat="48.20945" lon="-3.08802">
        <ele>150</ele>
        <time>2015-06-10T13:34:10Z</time>
      </trkpt>
      <trkpt lat="48.20946" lon="-3.088">
        <ele>150</ele>
        <time>2015-06-10T13:34:12Z</time>
      </trkpt>
      <trkpt lat="48.20948" lon="-3.08797">
        <ele>150</ele>
        <time>2015-06-10T13:34:15Z</time>
      </trkpt>
      <trkpt lat="48.20949" lon="-3.08794">
        <ele>150</ele>
        <time>2015-06-10T13:34:17Z</time>
      </trkpt>
      <trkpt lat="48.2095" lon="-3.08792">
        <ele>150</ele>
        <time>2015-06-10T13:34:19Z</time>
      </trkpt>
      <trkpt lat="48.20951" lon="-3.0879">
        <ele>150</ele>
        <time>2015-06-10T13:34:22Z</time>
      </trkpt>
      <trkpt lat="48.20952" lon="-3.08788">
        <ele>150</ele>
        <time>2015-06-10T13:34:25Z</time>
      </trkpt>
      <trkpt lat="48.20952" lon="-3.08786">
        <ele>150</ele>
        <time>2015-06-10T13:34:27Z</time>
      </trkpt>
      <trkpt lat="48.20955" lon="-3.08782">
        <ele>150</ele>
        <time>2015-06-10T13:34:31Z</time>
      </trkpt>
      <trkpt lat="48.20957" lon="-3.08779">
        <ele>150</ele>
        <time>2015-06-10T13:34:34Z</time>
      </trkpt>
      <trkpt lat="48.20958" lon="-3.08776">
        <ele>150</ele>
        <time>2015-06-10T13:34:36Z</time>
      </trkpt>
      <trkpt lat="48.20959" lon="-3.08773">
        <ele>150</ele>
        <time>2015-06-10T13:34:38Z</time>
      </trkpt>
      <trkpt lat="48.20963" lon="-3.08772">
        <ele>150</ele>
        <time>2015-06-10T13:34:41Z</time>
      </trkpt>
      <trkpt lat="48.20965" lon="-3.08772">
        <ele>149</ele>
        <time>2015-06-10T13:34:43Z</time>
      </trkpt>
      <trkpt lat="48.20967" lon="-3.08772">
        <ele>148</ele>
        <time>2015-06-10T13:34:45Z</time>
      </trkpt>
      <trkpt lat="48.20969" lon="-3.08772">
        <ele>147</ele>
        <time>2015-06-10T13:34:47Z</time>
      </trkpt>
      <trkpt lat="48.20972" lon="-3.08769">
        <ele>144</ele>
        <time>2015-06-10T13:34:51Z</time>
      </trkpt>
      <trkpt lat="48.20974" lon="-3.08769">
        <ele>143</ele>
        <time>2015-06-10T13:34:53Z</time>
      </trkpt>
      <trkpt lat="48.20978" lon="-3.08768">
        <ele>141</ele>
        <time>2015-06-10T13:34:57Z</time>
      </trkpt>
      <trkpt lat="48.2098" lon="-3.08767">
        <ele>140</ele>
        <time>2015-06-10T13:34:59Z</time>
      </trkpt>
      <trkpt lat="48.20982" lon="-3.08764">
        <ele>140</ele>
        <time>2015-06-10T13:35:01Z</time>
      </trkpt>
      <trkpt lat="48.20982" lon="-3.08762">
        <ele>140</ele>
        <time>2015-06-10T13:35:03Z</time>
      </trkpt>
      <trkpt lat="48.20983" lon="-3.08759">
        <ele>140</ele>
        <time>2015-06-10T13:35:05Z</time>
      </trkpt>
      <trkpt lat="48.20982" lon="-3.08754">
        <ele>140</ele>
        <time>2015-06-10T13:35:09Z</time>
      </trkpt>
      <trkpt lat="48.20981" lon="-3.08752">
        <ele>140</ele>
        <time>2015-06-10T13:35:11Z</time>
      </trkpt>
      <trkpt lat="48.20983" lon="-3.08748">
        <ele>140</ele>
        <time>2015-06-10T13:35:14Z</time>
      </trkpt>
      <trkpt lat="48.20982" lon="-3.08746">
        <ele>140</ele>
        <time>2015-06-10T13:35:16Z</time>
      </trkpt>
      <trkpt lat="48.20984" lon="-3.08744">
        <ele>140</ele>
        <time>2015-06-10T13:35:21Z</time>
      </trkpt>
      <trkpt lat="48.20985" lon="-3.08744">
        <ele>140</ele>
        <time>2015-06-10T13:35:24Z</time>
      </trkpt>
      <trkpt lat="48.20985" lon="-3.08742">
        <ele>139</ele>
        <time>2015-06-10T13:35:28Z</time>
      </trkpt>
      <trkpt lat="48.20987" lon="-3.08741">
        <ele>138</ele>
        <time>2015-06-10T13:35:31Z</time>
      </trkpt>
      <trkpt lat="48.20988" lon="-3.08742">
        <ele>137</ele>
        <time>2015-06-10T13:35:33Z</time>
      </trkpt>
      <trkpt lat="48.20993" lon="-3.0874">
        <ele>136</ele>
        <time>2015-06-10T13:35:35Z</time>
      </trkpt>
      <trkpt lat="48.20995" lon="-3.08739">
        <ele>136</ele>
        <time>2015-06-10T13:35:37Z</time>
      </trkpt>
      <trkpt lat="48.20997" lon="-3.08738">
        <ele>136</ele>
        <time>2015-06-10T13:35:39Z</time>
      </trkpt>
      <trkpt lat="48.20998" lon="-3.08738">
        <ele>136</ele>
        <time>2015-06-10T13:35:41Z</time>
      </trkpt>
      <trkpt lat="48.21" lon="-3.08736">
        <ele>136</ele>
        <time>2015-06-10T13:35:43Z</time>
      </trkpt>
      <trkpt lat="48.21001" lon="-3.08736">
        <ele>136</ele>
        <time>2015-06-10T13:35:45Z</time>
      </trkpt>
      <trkpt lat="48.21003" lon="-3.08736">
        <ele>136</ele>
        <time>2015-06-10T13:35:47Z</time>
      </trkpt>
      <trkpt lat="48.21005" lon="-3.08736">
        <ele>136</ele>
        <time>2015-06-10T13:35:50Z</time>
      </trkpt>
      <trkpt lat="48.21008" lon="-3.08734">
        <ele>134</ele>
        <time>2015-06-10T13:35:54Z</time>
      </trkpt>
      <trkpt lat="48.21008" lon="-3.08732">
        <ele>134</ele>
        <time>2015-06-10T13:35:57Z</time>
      </trkpt>
      <trkpt lat="48.2101" lon="-3.08728">
        <ele>134</ele>
        <time>2015-06-10T13:36:01Z</time>
      </trkpt>
      <trkpt lat="48.21011" lon="-3.08726">
        <ele>133</ele>
        <time>2015-06-10T13:36:03Z</time>
      </trkpt>
      <trkpt lat="48.21012" lon="-3.08726">
        <ele>133</ele>
        <time>2015-06-10T13:36:06Z</time>
      </trkpt>
      <trkpt lat="48.21013" lon="-3.08728">
        <ele>133</ele>
        <time>2015-06-10T13:36:10Z</time>
      </trkpt>
      <trkpt lat="48.21014" lon="-3.08728">
        <ele>132</ele>
        <time>2015-06-10T13:36:18Z</time>
      </trkpt>
      <trkpt lat="48.21018" lon="-3.08726">
        <ele>132</ele>
        <time>2015-06-10T13:36:25Z</time>
      </trkpt>
      <trkpt lat="48.21018" lon="-3.08724">
        <ele>132</ele>
        <time>2015-06-10T13:36:31Z</time>
      </trkpt>
      <trkpt lat="48.2102" lon="-3.08725">
        <ele>132</ele>
        <time>2015-06-10T13:36:33Z</time>
      </trkpt>
      <trkpt lat="48.21022" lon="-3.08728">
        <ele>132</ele>
        <time>2015-06-10T13:36:35Z</time>
      </trkpt>
      <trkpt lat="48.21022" lon="-3.08732">
        <ele>131</ele>
        <time>2015-06-10T13:36:39Z</time>
      </trkpt>
      <trkpt lat="48.21023" lon="-3.08735">
        <ele>130</ele>
        <time>2015-06-10T13:36:41Z</time>
      </trkpt>
      <trkpt lat="48.21025" lon="-3.08737">
        <ele>129</ele>
        <time>2015-06-10T13:36:43Z</time>
      </trkpt>
      <trkpt lat="48.21027" lon="-3.08744">
        <ele>128</ele>
        <time>2015-06-10T13:36:47Z</time>
      </trkpt>
      <trkpt lat="48.21027" lon="-3.08749">
        <ele>126</ele>
        <time>2015-06-10T13:36:50Z</time>
      </trkpt>
      <trkpt lat="48.21031" lon="-3.08752">
        <ele>126</ele>
        <time>2015-06-10T13:36:55Z</time>
      </trkpt>
      <trkpt lat="48.21033" lon="-3.08754">
        <ele>126</ele>
        <time>2015-06-10T13:36:57Z</time>
      </trkpt>
      <trkpt lat="48.21035" lon="-3.08756">
        <ele>126</ele>
        <time>2015-06-10T13:36:59Z</time>
      </trkpt>
      <trkpt lat="48.21037" lon="-3.08759">
        <ele>126</ele>
        <time>2015-06-10T13:37:01Z</time>
      </trkpt>
      <trkpt lat="48.2104" lon="-3.08762">
        <ele>126</ele>
        <time>2015-06-10T13:37:03Z</time>
      </trkpt>
      <trkpt lat="48.21041" lon="-3.08767">
        <ele>126</ele>
        <time>2015-06-10T13:37:05Z</time>
      </trkpt>
      <trkpt lat="48.21043" lon="-3.08771">
        <ele>126</ele>
        <time>2015-06-10T13:37:08Z</time>
      </trkpt>
      <trkpt lat="48.21046" lon="-3.08775">
        <ele>126</ele>
        <time>2015-06-10T13:37:11Z</time>
      </trkpt>
      <trkpt lat="48.21048" lon="-3.08777">
        <ele>126</ele>
        <time>2015-06-10T13:37:13Z</time>
      </trkpt>
      <trkpt lat="48.21051" lon="-3.08778">
        <ele>126</ele>
        <time>2015-06-10T13:37:15Z</time>
      </trkpt>
      <trkpt lat="48.21053" lon="-3.08778">
        <ele>126</ele>
        <time>2015-06-10T13:37:17Z</time>
      </trkpt>
      <trkpt lat="48.21057" lon="-3.0878">
        <ele>126</ele>
        <time>2015-06-10T13:37:19Z</time>
      </trkpt>
      <trkpt lat="48.21059" lon="-3.08781">
        <ele>126</ele>
        <time>2015-06-10T13:37:21Z</time>
      </trkpt>
      <trkpt lat="48.21062" lon="-3.08782">
        <ele>126</ele>
        <time>2015-06-10T13:37:23Z</time>
      </trkpt>
      <trkpt lat="48.21065" lon="-3.08784">
        <ele>126</ele>
        <time>2015-06-10T13:37:27Z</time>
      </trkpt>
      <trkpt lat="48.21066" lon="-3.08784">
        <ele>126</ele>
        <time>2015-06-10T13:37:29Z</time>
      </trkpt>
      <trkpt lat="48.21068" lon="-3.08784">
        <ele>126</ele>
        <time>2015-06-10T13:37:31Z</time>
      </trkpt>
      <trkpt lat="48.21071" lon="-3.08785">
        <ele>126</ele>
        <time>2015-06-10T13:37:38Z</time>
      </trkpt>
      <trkpt lat="48.21073" lon="-3.08786">
        <ele>126</ele>
        <time>2015-06-10T13:37:40Z</time>
      </trkpt>
      <trkpt lat="48.21076" lon="-3.08786">
        <ele>126</ele>
        <time>2015-06-10T13:37:43Z</time>
      </trkpt>
      <trkpt lat="48.21078" lon="-3.08786">
        <ele>126</ele>
        <time>2015-06-10T13:37:45Z</time>
      </trkpt>
      <trkpt lat="48.21082" lon="-3.08787">
        <ele>126</ele>
        <time>2015-06-10T13:37:47Z</time>
      </trkpt>
      <trkpt lat="48.21085" lon="-3.08789">
        <ele>126</ele>
        <time>2015-06-10T13:37:49Z</time>
      </trkpt>
      <trkpt lat="48.21088" lon="-3.0879">
        <ele>126</ele>
        <time>2015-06-10T13:37:51Z</time>
      </trkpt>
      <trkpt lat="48.21091" lon="-3.0879">
        <ele>126</ele>
        <time>2015-06-10T13:37:53Z</time>
      </trkpt>
      <trkpt lat="48.21095" lon="-3.08791">
        <ele>126</ele>
        <time>2015-06-10T13:37:55Z</time>
      </trkpt>
      <trkpt lat="48.21098" lon="-3.08792">
        <ele>126</ele>
        <time>2015-06-10T13:37:57Z</time>
      </trkpt>
      <trkpt lat="48.21099" lon="-3.08793">
        <ele>126</ele>
        <time>2015-06-10T13:37:59Z</time>
      </trkpt>
      <trkpt lat="48.21102" lon="-3.08797">
        <ele>126</ele>
        <time>2015-06-10T13:38:02Z</time>
      </trkpt>
      <trkpt lat="48.21106" lon="-3.08798">
        <ele>126</ele>
        <time>2015-06-10T13:38:04Z</time>
      </trkpt>
      <trkpt lat="48.21109" lon="-3.08801">
        <ele>126</ele>
        <time>2015-06-10T13:38:07Z</time>
      </trkpt>
      <trkpt lat="48.21112" lon="-3.08803">
        <ele>126</ele>
        <time>2015-06-10T13:38:09Z</time>
      </trkpt>
      <trkpt lat="48.21114" lon="-3.08805">
        <ele>127</ele>
        <time>2015-06-10T13:38:12Z</time>
      </trkpt>
      <trkpt lat="48.21115" lon="-3.08807">
        <ele>128</ele>
        <time>2015-06-10T13:38:14Z</time>
      </trkpt>
      <trkpt lat="48.21117" lon="-3.08808">
        <ele>129</ele>
        <time>2015-06-10T13:38:16Z</time>
      </trkpt>
      <trkpt lat="48.21119" lon="-3.0881">
        <ele>129</ele>
        <time>2015-06-10T13:38:18Z</time>
      </trkpt>
      <trkpt lat="48.21124" lon="-3.08813">
        <ele>129</ele>
        <time>2015-06-10T13:38:21Z</time>
      </trkpt>
      <trkpt lat="48.21127" lon="-3.08815">
        <ele>130</ele>
        <time>2015-06-10T13:38:23Z</time>
      </trkpt>
      <trkpt lat="48.21131" lon="-3.08817">
        <ele>133</ele>
        <time>2015-06-10T13:38:26Z</time>
      </trkpt>
      <trkpt lat="48.21133" lon="-3.08818">
        <ele>135</ele>
        <time>2015-06-10T13:38:28Z</time>
      </trkpt>
      <trkpt lat="48.21134" lon="-3.08821">
        <ele>136</ele>
        <time>2015-06-10T13:38:31Z</time>
      </trkpt>
      <trkpt lat="48.21136" lon="-3.08823">
        <ele>136</ele>
        <time>2015-06-10T13:38:33Z</time>
      </trkpt>
      <trkpt lat="48.21138" lon="-3.08824">
        <ele>136</ele>
        <time>2015-06-10T13:38:35Z</time>
      </trkpt>
      <trkpt lat="48.2114" lon="-3.08827">
        <ele>136</ele>
        <time>2015-06-10T13:38:38Z</time>
      </trkpt>
      <trkpt lat="48.21142" lon="-3.08827">
        <ele>136</ele>
        <time>2015-06-10T13:38:42Z</time>
      </trkpt>
      <trkpt lat="48.21143" lon="-3.08825">
        <ele>138</ele>
        <time>2015-06-10T13:38:45Z</time>
      </trkpt>
      <trkpt lat="48.21145" lon="-3.08822">
        <ele>140</ele>
        <time>2015-06-10T13:38:48Z</time>
      </trkpt>
      <trkpt lat="48.21147" lon="-3.08821">
        <ele>142</ele>
        <time>2015-06-10T13:38:50Z</time>
      </trkpt>
      <trkpt lat="48.21149" lon="-3.08821">
        <ele>143</ele>
        <time>2015-06-10T13:38:52Z</time>
      </trkpt>
      <trkpt lat="48.21151" lon="-3.08821">
        <ele>144</ele>
        <time>2015-06-10T13:38:54Z</time>
      </trkpt>
      <trkpt lat="48.21153" lon="-3.08819">
        <ele>144</ele>
        <time>2015-06-10T13:38:56Z</time>
      </trkpt>
      <trkpt lat="48.21157" lon="-3.08818">
        <ele>145</ele>
        <time>2015-06-10T13:38:58Z</time>
      </trkpt>
      <trkpt lat="48.2116" lon="-3.08817">
        <ele>146</ele>
        <time>2015-06-10T13:39:00Z</time>
      </trkpt>
      <trkpt lat="48.21159" lon="-3.08815">
        <ele>146</ele>
        <time>2015-06-10T13:39:02Z</time>
      </trkpt>
      <trkpt lat="48.2116" lon="-3.08815">
        <ele>146</ele>
        <time>2015-06-10T13:39:08Z</time>
      </trkpt>
      <trkpt lat="48.21162" lon="-3.08816">
        <ele>146</ele>
        <time>2015-06-10T13:39:14Z</time>
      </trkpt>
      <trkpt lat="48.21163" lon="-3.08816">
        <ele>146</ele>
        <time>2015-06-10T13:39:18Z</time>
      </trkpt>
      <trkpt lat="48.21165" lon="-3.08815">
        <ele>146</ele>
        <time>2015-06-10T13:39:31Z</time>
      </trkpt>
      <trkpt lat="48.21167" lon="-3.08816">
        <ele>146</ele>
        <time>2015-06-10T13:39:33Z</time>
      </trkpt>
      <trkpt lat="48.21169" lon="-3.08816">
        <ele>146</ele>
        <time>2015-06-10T13:39:35Z</time>
      </trkpt>
      <trkpt lat="48.21169" lon="-3.08817">
        <ele>142</ele>
        <time>2015-06-10T13:39:46Z</time>
      </trkpt>
      <trkpt lat="48.21168" lon="-3.08817">
        <ele>139</ele>
        <time>2015-06-10T13:39:50Z</time>
      </trkpt>
      <trkpt lat="48.21167" lon="-3.08817">
        <ele>138</ele>
        <time>2015-06-10T13:39:53Z</time>
      </trkpt>
      <trkpt lat="48.21165" lon="-3.08817">
        <ele>136</ele>
        <time>2015-06-10T13:39:58Z</time>
      </trkpt>
      <trkpt lat="48.21166" lon="-3.08815">
        <ele>136</ele>
        <time>2015-06-10T13:40:01Z</time>
      </trkpt>
      <trkpt lat="48.21166" lon="-3.08813">
        <ele>136</ele>
        <time>2015-06-10T13:40:03Z</time>
      </trkpt>
      <trkpt lat="48.21164" lon="-3.08811">
        <ele>136</ele>
        <time>2015-06-10T13:40:05Z</time>
      </trkpt>
      <trkpt lat="48.21163" lon="-3.08809">
        <ele>136</ele>
        <time>2015-06-10T13:40:07Z</time>
      </trkpt>
      <trkpt lat="48.21162" lon="-3.08806">
        <ele>136</ele>
        <time>2015-06-10T13:40:09Z</time>
      </trkpt>
      <trkpt lat="48.21162" lon="-3.08804">
        <ele>135</ele>
        <time>2015-06-10T13:40:11Z</time>
      </trkpt>
      <trkpt lat="48.21161" lon="-3.08798">
        <ele>133</ele>
        <time>2015-06-10T13:40:14Z</time>
      </trkpt>
      <trkpt lat="48.21161" lon="-3.08795">
        <ele>133</ele>
        <time>2015-06-10T13:40:16Z</time>
      </trkpt>
      <trkpt lat="48.2116" lon="-3.0879">
        <ele>132</ele>
        <time>2015-06-10T13:40:19Z</time>
      </trkpt>
      <trkpt lat="48.2116" lon="-3.08787">
        <ele>132</ele>
        <time>2015-06-10T13:40:22Z</time>
      </trkpt>
      <trkpt lat="48.21159" lon="-3.08784">
        <ele>132</ele>
        <time>2015-06-10T13:40:24Z</time>
      </trkpt>
      <trkpt lat="48.21159" lon="-3.08781">
        <ele>131</ele>
        <time>2015-06-10T13:40:26Z</time>
      </trkpt>
      <trkpt lat="48.21158" lon="-3.08776">
        <ele>131</ele>
        <time>2015-06-10T13:40:29Z</time>
      </trkpt>
      <trkpt lat="48.21157" lon="-3.08773">
        <ele>131</ele>
        <time>2015-06-10T13:40:31Z</time>
      </trkpt>
      <trkpt lat="48.21157" lon="-3.08769">
        <ele>131</ele>
        <time>2015-06-10T13:40:33Z</time>
      </trkpt>
      <trkpt lat="48.21156" lon="-3.08765">
        <ele>131</ele>
        <time>2015-06-10T13:40:35Z</time>
      </trkpt>
      <trkpt lat="48.21155" lon="-3.08761">
        <ele>132</ele>
        <time>2015-06-10T13:40:37Z</time>
      </trkpt>
      <trkpt lat="48.21155" lon="-3.08757">
        <ele>134</ele>
        <time>2015-06-10T13:40:39Z</time>
      </trkpt>
      <trkpt lat="48.21155" lon="-3.08752">
        <ele>136</ele>
        <time>2015-06-10T13:40:41Z</time>
      </trkpt>
      <trkpt lat="48.21156" lon="-3.08749">
        <ele>137</ele>
        <time>2015-06-10T13:40:43Z</time>
      </trkpt>
      <trkpt lat="48.21156" lon="-3.08747">
        <ele>137</ele>
        <time>2015-06-10T13:40:45Z</time>
      </trkpt>
      <trkpt lat="48.21155" lon="-3.08744">
        <ele>137</ele>
        <time>2015-06-10T13:40:47Z</time>
      </trkpt>
      <trkpt lat="48.21154" lon="-3.08741">
        <ele>137</ele>
        <time>2015-06-10T13:40:49Z</time>
      </trkpt>
      <trkpt lat="48.21154" lon="-3.08736">
        <ele>138</ele>
        <time>2015-06-10T13:40:51Z</time>
      </trkpt>
      <trkpt lat="48.21153" lon="-3.08732">
        <ele>138</ele>
        <time>2015-06-10T13:40:53Z</time>
      </trkpt>
      <trkpt lat="48.21152" lon="-3.08728">
        <ele>138</ele>
        <time>2015-06-10T13:40:55Z</time>
      </trkpt>
      <trkpt lat="48.21151" lon="-3.08724">
        <ele>139</ele>
        <time>2015-06-10T13:40:57Z</time>
      </trkpt>
      <trkpt lat="48.21151" lon="-3.08721">
        <ele>140</ele>
        <time>2015-06-10T13:40:59Z</time>
      </trkpt>
      <trkpt lat="48.2115" lon="-3.08718">
        <ele>140</ele>
        <time>2015-06-10T13:41:01Z</time>
      </trkpt>
      <trkpt lat="48.2115" lon="-3.08717">
        <ele>142</ele>
        <time>2015-06-10T13:41:07Z</time>
      </trkpt>
      <trkpt lat="48.21149" lon="-3.08714">
        <ele>143</ele>
        <time>2015-06-10T13:41:14Z</time>
      </trkpt>
      <trkpt lat="48.21149" lon="-3.08712">
        <ele>144</ele>
        <time>2015-06-10T13:41:16Z</time>
      </trkpt>
      <trkpt lat="48.21149" lon="-3.08709">
        <ele>145</ele>
        <time>2015-06-10T13:41:18Z</time>
      </trkpt>
      <trkpt lat="48.21148" lon="-3.08704">
        <ele>145</ele>
        <time>2015-06-10T13:41:21Z</time>
      </trkpt>
      <trkpt lat="48.21148" lon="-3.08701">
        <ele>145</ele>
        <time>2015-06-10T13:41:23Z</time>
      </trkpt>
      <trkpt lat="48.21148" lon="-3.08697">
        <ele>145</ele>
        <time>2015-06-10T13:41:25Z</time>
      </trkpt>
      <trkpt lat="48.21147" lon="-3.08692">
        <ele>145</ele>
        <time>2015-06-10T13:41:28Z</time>
      </trkpt>
      <trkpt lat="48.21147" lon="-3.08688">
        <ele>145</ele>
        <time>2015-06-10T13:41:30Z</time>
      </trkpt>
      <trkpt lat="48.21147" lon="-3.08684">
        <ele>145</ele>
        <time>2015-06-10T13:41:32Z</time>
      </trkpt>
      <trkpt lat="48.21146" lon="-3.0868">
        <ele>145</ele>
        <time>2015-06-10T13:41:34Z</time>
      </trkpt>
      <trkpt lat="48.21145" lon="-3.08677">
        <ele>145</ele>
        <time>2015-06-10T13:41:36Z</time>
      </trkpt>
      <trkpt lat="48.21145" lon="-3.08673">
        <ele>145</ele>
        <time>2015-06-10T13:41:38Z</time>
      </trkpt>
      <trkpt lat="48.21145" lon="-3.08669">
        <ele>145</ele>
        <time>2015-06-10T13:41:40Z</time>
      </trkpt>
      <trkpt lat="48.21144" lon="-3.08665">
        <ele>145</ele>
        <time>2015-06-10T13:41:42Z</time>
      </trkpt>
      <trkpt lat="48.21144" lon="-3.08661">
        <ele>145</ele>
        <time>2015-06-10T13:41:44Z</time>
      </trkpt>
      <trkpt lat="48.21143" lon="-3.08657">
        <ele>145</ele>
        <time>2015-06-10T13:41:46Z</time>
      </trkpt>
      <trkpt lat="48.21143" lon="-3.08653">
        <ele>145</ele>
        <time>2015-06-10T13:41:48Z</time>
      </trkpt>
      <trkpt lat="48.21142" lon="-3.08649">
        <ele>145</ele>
        <time>2015-06-10T13:41:50Z</time>
      </trkpt>
      <trkpt lat="48.21142" lon="-3.08645">
        <ele>145</ele>
        <time>2015-06-10T13:41:52Z</time>
      </trkpt>
      <trkpt lat="48.21142" lon="-3.0864">
        <ele>145</ele>
        <time>2015-06-10T13:41:54Z</time>
      </trkpt>
      <trkpt lat="48.21141" lon="-3.08635">
        <ele>145</ele>
        <time>2015-06-10T13:41:56Z</time>
      </trkpt>
      <trkpt lat="48.21141" lon="-3.08631">
        <ele>145</ele>
        <time>2015-06-10T13:41:58Z</time>
      </trkpt>
      <trkpt lat="48.21141" lon="-3.08627">
        <ele>145</ele>
        <time>2015-06-10T13:42:00Z</time>
      </trkpt>
      <trkpt lat="48.2114" lon="-3.08622">
        <ele>145</ele>
        <time>2015-06-10T13:42:03Z</time>
      </trkpt>
      <trkpt lat="48.21139" lon="-3.08617">
        <ele>145</ele>
        <time>2015-06-10T13:42:05Z</time>
      </trkpt>
      <trkpt lat="48.21138" lon="-3.08613">
        <ele>145</ele>
        <time>2015-06-10T13:42:07Z</time>
      </trkpt>
      <trkpt lat="48.21137" lon="-3.08609">
        <ele>145</ele>
        <time>2015-06-10T13:42:09Z</time>
      </trkpt>
      <trkpt lat="48.21136" lon="-3.08605">
        <ele>145</ele>
        <time>2015-06-10T13:42:11Z</time>
      </trkpt>
      <trkpt lat="48.21136" lon="-3.08601">
        <ele>145</ele>
        <time>2015-06-10T13:42:13Z</time>
      </trkpt>
      <trkpt lat="48.21135" lon="-3.08597">
        <ele>145</ele>
        <time>2015-06-10T13:42:15Z</time>
      </trkpt>
      <trkpt lat="48.21135" lon="-3.08593">
        <ele>145</ele>
        <time>2015-06-10T13:42:17Z</time>
      </trkpt>
      <trkpt lat="48.21135" lon="-3.08589">
        <ele>145</ele>
        <time>2015-06-10T13:42:19Z</time>
      </trkpt>
      <trkpt lat="48.21135" lon="-3.08585">
        <ele>145</ele>
        <time>2015-06-10T13:42:21Z</time>
      </trkpt>
      <trkpt lat="48.21135" lon="-3.08581">
        <ele>145</ele>
        <time>2015-06-10T13:42:23Z</time>
      </trkpt>
      <trkpt lat="48.21135" lon="-3.08577">
        <ele>145</ele>
        <time>2015-06-10T13:42:25Z</time>
      </trkpt>
      <trkpt lat="48.21134" lon="-3.08573">
        <ele>145</ele>
        <time>2015-06-10T13:42:27Z</time>
      </trkpt>
      <trkpt lat="48.21133" lon="-3.08569">
        <ele>145</ele>
        <time>2015-06-10T13:42:29Z</time>
      </trkpt>
      <trkpt lat="48.21133" lon="-3.08567">
        <ele>145</ele>
        <time>2015-06-10T13:42:31Z</time>
      </trkpt>
      <trkpt lat="48.21133" lon="-3.08565">
        <ele>143</ele>
        <time>2015-06-10T13:42:40Z</time>
      </trkpt>
      <trkpt lat="48.21134" lon="-3.08562">
        <ele>143</ele>
        <time>2015-06-10T13:42:45Z</time>
      </trkpt>
      <trkpt lat="48.21134" lon="-3.08559">
        <ele>143</ele>
        <time>2015-06-10T13:42:47Z</time>
      </trkpt>
      <trkpt lat="48.21134" lon="-3.08556">
        <ele>143</ele>
        <time>2015-06-10T13:42:49Z</time>
      </trkpt>
      <trkpt lat="48.21133" lon="-3.08554">
        <ele>143</ele>
        <time>2015-06-10T13:42:51Z</time>
      </trkpt>
      <trkpt lat="48.21135" lon="-3.08553">
        <ele>143</ele>
        <time>2015-06-10T13:42:54Z</time>
      </trkpt>
      <trkpt lat="48.21136" lon="-3.08552">
        <ele>143</ele>
        <time>2015-06-10T13:42:57Z</time>
      </trkpt>
      <trkpt lat="48.21136" lon="-3.08549">
        <ele>143</ele>
        <time>2015-06-10T13:42:59Z</time>
      </trkpt>
      <trkpt lat="48.21136" lon="-3.08546">
        <ele>143</ele>
        <time>2015-06-10T13:43:01Z</time>
      </trkpt>
      <trkpt lat="48.21135" lon="-3.08544">
        <ele>143</ele>
        <time>2015-06-10T13:43:03Z</time>
      </trkpt>
      <trkpt lat="48.21135" lon="-3.08541">
        <ele>143</ele>
        <time>2015-06-10T13:43:05Z</time>
      </trkpt>
      <trkpt lat="48.21134" lon="-3.08537">
        <ele>143</ele>
        <time>2015-06-10T13:43:07Z</time>
      </trkpt>
      <trkpt lat="48.21134" lon="-3.08533">
        <ele>143</ele>
        <time>2015-06-10T13:43:09Z</time>
      </trkpt>
      <trkpt lat="48.21133" lon="-3.08529">
        <ele>143</ele>
        <time>2015-06-10T13:43:11Z</time>
      </trkpt>
      <trkpt lat="48.21133" lon="-3.08525">
        <ele>143</ele>
        <time>2015-06-10T13:43:13Z</time>
      </trkpt>
      <trkpt lat="48.21133" lon="-3.0852">
        <ele>143</ele>
        <time>2015-06-10T13:43:15Z</time>
      </trkpt>
      <trkpt lat="48.21132" lon="-3.08515">
        <ele>145</ele>
        <time>2015-06-10T13:43:17Z</time>
      </trkpt>
      <trkpt lat="48.21132" lon="-3.08511">
        <ele>146</ele>
        <time>2015-06-10T13:43:19Z</time>
      </trkpt>
      <trkpt lat="48.21131" lon="-3.08507">
        <ele>146</ele>
        <time>2015-06-10T13:43:21Z</time>
      </trkpt>
      <trkpt lat="48.21131" lon="-3.08503">
        <ele>147</ele>
        <time>2015-06-10T13:43:23Z</time>
      </trkpt>
      <trkpt lat="48.2113" lon="-3.08498">
        <ele>149</ele>
        <time>2015-06-10T13:43:26Z</time>
      </trkpt>
      <trkpt lat="48.21129" lon="-3.08495">
        <ele>150</ele>
        <time>2015-06-10T13:43:28Z</time>
      </trkpt>
      <trkpt lat="48.21129" lon="-3.08492">
        <ele>151</ele>
        <time>2015-06-10T13:43:30Z</time>
      </trkpt>
      <trkpt lat="48.2113" lon="-3.0849">
        <ele>152</ele>
        <time>2015-06-10T13:43:32Z</time>
      </trkpt>
      <trkpt lat="48.21131" lon="-3.08487">
        <ele>152</ele>
        <time>2015-06-10T13:43:34Z</time>
      </trkpt>
      <trkpt lat="48.21132" lon="-3.08485">
        <ele>152</ele>
        <time>2015-06-10T13:43:36Z</time>
      </trkpt>
      <trkpt lat="48.21132" lon="-3.08481">
        <ele>152</ele>
        <time>2015-06-10T13:43:38Z</time>
      </trkpt>
      <trkpt lat="48.21133" lon="-3.08475">
        <ele>152</ele>
        <time>2015-06-10T13:43:41Z</time>
      </trkpt>
      <trkpt lat="48.21134" lon="-3.08472">
        <ele>152</ele>
        <time>2015-06-10T13:43:43Z</time>
      </trkpt>
      <trkpt lat="48.21135" lon="-3.0847">
        <ele>152</ele>
        <time>2015-06-10T13:43:45Z</time>
      </trkpt>
      <trkpt lat="48.21137" lon="-3.08468">
        <ele>152</ele>
        <time>2015-06-10T13:43:47Z</time>
      </trkpt>
      <trkpt lat="48.21138" lon="-3.08466">
        <ele>152</ele>
        <time>2015-06-10T13:43:49Z</time>
      </trkpt>
      <trkpt lat="48.21139" lon="-3.08463">
        <ele>152</ele>
        <time>2015-06-10T13:43:51Z</time>
      </trkpt>
      <trkpt lat="48.2114" lon="-3.0846">
        <ele>152</ele>
        <time>2015-06-10T13:43:53Z</time>
      </trkpt>
      <trkpt lat="48.21141" lon="-3.08458">
        <ele>152</ele>
        <time>2015-06-10T13:43:55Z</time>
      </trkpt>
      <trkpt lat="48.21141" lon="-3.08456">
        <ele>152</ele>
        <time>2015-06-10T13:43:57Z</time>
      </trkpt>
      <trkpt lat="48.21142" lon="-3.08453">
        <ele>152</ele>
        <time>2015-06-10T13:43:59Z</time>
      </trkpt>
      <trkpt lat="48.21143" lon="-3.08452">
        <ele>152</ele>
        <time>2015-06-10T13:44:01Z</time>
      </trkpt>
      <trkpt lat="48.21279" lon="-3.08369">
        <ele>149</ele>
        <time>2015-06-10T13:44:05Z</time>
      </trkpt>
      <trkpt lat="48.21283" lon="-3.08368">
        <ele>149</ele>
        <time>2015-06-10T13:44:07Z</time>
      </trkpt>
      <trkpt lat="48.21286" lon="-3.08367">
        <ele>149</ele>
        <time>2015-06-10T13:44:10Z</time>
      </trkpt>
      <trkpt lat="48.21289" lon="-3.08366">
        <ele>149</ele>
        <time>2015-06-10T13:44:12Z</time>
      </trkpt>
      <trkpt lat="48.21291" lon="-3.08366">
        <ele>149</ele>
        <time>2015-06-10T13:44:14Z</time>
      </trkpt>
      <trkpt lat="48.21295" lon="-3.08366">
        <ele>150</ele>
        <time>2015-06-10T13:44:16Z</time>
      </trkpt>
      <trkpt lat="48.21298" lon="-3.08366">
        <ele>150</ele>
        <time>2015-06-10T13:44:19Z</time>
      </trkpt>
      <trkpt lat="48.21301" lon="-3.08366">
        <ele>151</ele>
        <time>2015-06-10T13:44:21Z</time>
      </trkpt>
      <trkpt lat="48.21305" lon="-3.08366">
        <ele>152</ele>
        <time>2015-06-10T13:44:23Z</time>
      </trkpt>
      <trkpt lat="48.21308" lon="-3.08366">
        <ele>152</ele>
        <time>2015-06-10T13:44:25Z</time>
      </trkpt>
      <trkpt lat="48.21311" lon="-3.08367">
        <ele>153</ele>
        <time>2015-06-10T13:44:27Z</time>
      </trkpt>
      <trkpt lat="48.21315" lon="-3.08369">
        <ele>153</ele>
        <time>2015-06-10T13:44:30Z</time>
      </trkpt>
      <trkpt lat="48.21318" lon="-3.08371">
        <ele>153</ele>
        <time>2015-06-10T13:44:32Z</time>
      </trkpt>
      <trkpt lat="48.2132" lon="-3.08373">
        <ele>153</ele>
        <time>2015-06-10T13:44:34Z</time>
      </trkpt>
      <trkpt lat="48.21323" lon="-3.08375">
        <ele>153</ele>
        <time>2015-06-10T13:44:36Z</time>
      </trkpt>
      <trkpt lat="48.21325" lon="-3.08378">
        <ele>153</ele>
        <time>2015-06-10T13:44:38Z</time>
      </trkpt>
      <trkpt lat="48.21327" lon="-3.08381">
        <ele>153</ele>
        <time>2015-06-10T13:44:40Z</time>
      </trkpt>
      <trkpt lat="48.21328" lon="-3.08384">
        <ele>153</ele>
        <time>2015-06-10T13:44:42Z</time>
      </trkpt>
      <trkpt lat="48.21331" lon="-3.08389">
        <ele>154</ele>
        <time>2015-06-10T13:44:45Z</time>
      </trkpt>
      <trkpt lat="48.21333" lon="-3.08393">
        <ele>155</ele>
        <time>2015-06-10T13:44:47Z</time>
      </trkpt>
      <trkpt lat="48.21334" lon="-3.08397">
        <ele>156</ele>
        <time>2015-06-10T13:44:49Z</time>
      </trkpt>
      <trkpt lat="48.21335" lon="-3.08401">
        <ele>157</ele>
        <time>2015-06-10T13:44:51Z</time>
      </trkpt>
      <trkpt lat="48.21334" lon="-3.08405">
        <ele>157</ele>
        <time>2015-06-10T13:44:53Z</time>
      </trkpt>
      <trkpt lat="48.21334" lon="-3.0841">
        <ele>157</ele>
        <time>2015-06-10T13:44:55Z</time>
      </trkpt>
      <trkpt lat="48.21334" lon="-3.08414">
        <ele>157</ele>
        <time>2015-06-10T13:44:57Z</time>
      </trkpt>
      <trkpt lat="48.21334" lon="-3.08419">
        <ele>157</ele>
        <time>2015-06-10T13:45:00Z</time>
      </trkpt>
      <trkpt lat="48.21334" lon="-3.08424">
        <ele>157</ele>
        <time>2015-06-10T13:45:02Z</time>
      </trkpt>
      <trkpt lat="48.21334" lon="-3.08428">
        <ele>157</ele>
        <time>2015-06-10T13:45:04Z</time>
      </trkpt>
      <trkpt lat="48.21334" lon="-3.08431">
        <ele>157</ele>
        <time>2015-06-10T13:45:06Z</time>
      </trkpt>
      <trkpt lat="48.21334" lon="-3.08435">
        <ele>157</ele>
        <time>2015-06-10T13:45:08Z</time>
      </trkpt>
      <trkpt lat="48.21335" lon="-3.08439">
        <ele>157</ele>
        <time>2015-06-10T13:45:10Z</time>
      </trkpt>
      <trkpt lat="48.21335" lon="-3.08443">
        <ele>157</ele>
        <time>2015-06-10T13:45:12Z</time>
      </trkpt>
      <trkpt lat="48.21336" lon="-3.08447">
        <ele>157</ele>
        <time>2015-06-10T13:45:14Z</time>
      </trkpt>
      <trkpt lat="48.21336" lon="-3.0845">
        <ele>157</ele>
        <time>2015-06-10T13:45:16Z</time>
      </trkpt>
      <trkpt lat="48.21336" lon="-3.08454">
        <ele>157</ele>
        <time>2015-06-10T13:45:18Z</time>
      </trkpt>
      <trkpt lat="48.21336" lon="-3.08458">
        <ele>157</ele>
        <time>2015-06-10T13:45:20Z</time>
      </trkpt>
      <trkpt lat="48.21335" lon="-3.08461">
        <ele>157</ele>
        <time>2015-06-10T13:45:22Z</time>
      </trkpt>
      <trkpt lat="48.21333" lon="-3.08465">
        <ele>157</ele>
        <time>2015-06-10T13:45:24Z</time>
      </trkpt>
      <trkpt lat="48.21332" lon="-3.08469">
        <ele>157</ele>
        <time>2015-06-10T13:45:26Z</time>
      </trkpt>
      <trkpt lat="48.2133" lon="-3.08472">
        <ele>157</ele>
        <time>2015-06-10T13:45:28Z</time>
      </trkpt>
      <trkpt lat="48.21329" lon="-3.08476">
        <ele>157</ele>
        <time>2015-06-10T13:45:30Z</time>
      </trkpt>
      <trkpt lat="48.21328" lon="-3.08481">
        <ele>157</ele>
        <time>2015-06-10T13:45:32Z</time>
      </trkpt>
      <trkpt lat="48.21327" lon="-3.08486">
        <ele>157</ele>
        <time>2015-06-10T13:45:34Z</time>
      </trkpt>
      <trkpt lat="48.21326" lon="-3.0849">
        <ele>157</ele>
        <time>2015-06-10T13:45:36Z</time>
      </trkpt>
      <trkpt lat="48.21323" lon="-3.08493">
        <ele>158</ele>
        <time>2015-06-10T13:45:38Z</time>
      </trkpt>
      <trkpt lat="48.21321" lon="-3.08499">
        <ele>159</ele>
        <time>2015-06-10T13:45:41Z</time>
      </trkpt>
      <trkpt lat="48.21318" lon="-3.08503">
        <ele>159</ele>
        <time>2015-06-10T13:45:43Z</time>
      </trkpt>
      <trkpt lat="48.21316" lon="-3.08506">
        <ele>159</ele>
        <time>2015-06-10T13:45:46Z</time>
      </trkpt>
      <trkpt lat="48.21315" lon="-3.08509">
        <ele>159</ele>
        <time>2015-06-10T13:45:48Z</time>
      </trkpt>
      <trkpt lat="48.21315" lon="-3.08512">
        <ele>159</ele>
        <time>2015-06-10T13:45:50Z</time>
      </trkpt>
      <trkpt lat="48.21314" lon="-3.08516">
        <ele>160</ele>
        <time>2015-06-10T13:45:52Z</time>
      </trkpt>
      <trkpt lat="48.21312" lon="-3.0852">
        <ele>161</ele>
        <time>2015-06-10T13:45:54Z</time>
      </trkpt>
      <trkpt lat="48.2131" lon="-3.08523">
        <ele>161</ele>
        <time>2015-06-10T13:45:56Z</time>
      </trkpt>
      <trkpt lat="48.21309" lon="-3.08526">
        <ele>161</ele>
        <time>2015-06-10T13:45:58Z</time>
      </trkpt>
      <trkpt lat="48.21307" lon="-3.08529">
        <ele>161</ele>
        <time>2015-06-10T13:46:00Z</time>
      </trkpt>
      <trkpt lat="48.21306" lon="-3.08533">
        <ele>161</ele>
        <time>2015-06-10T13:46:02Z</time>
      </trkpt>
      <trkpt lat="48.21305" lon="-3.08537">
        <ele>161</ele>
        <time>2015-06-10T13:46:04Z</time>
      </trkpt>
      <trkpt lat="48.21304" lon="-3.08541">
        <ele>161</ele>
        <time>2015-06-10T13:46:06Z</time>
      </trkpt>
      <trkpt lat="48.21302" lon="-3.08544">
        <ele>161</ele>
        <time>2015-06-10T13:46:08Z</time>
      </trkpt>
      <trkpt lat="48.21301" lon="-3.08548">
        <ele>161</ele>
        <time>2015-06-10T13:46:10Z</time>
      </trkpt>
      <trkpt lat="48.21299" lon="-3.08552">
        <ele>161</ele>
        <time>2015-06-10T13:46:12Z</time>
      </trkpt>
      <trkpt lat="48.21299" lon="-3.08556">
        <ele>161</ele>
        <time>2015-06-10T13:46:14Z</time>
      </trkpt>
      <trkpt lat="48.213" lon="-3.08559">
        <ele>161</ele>
        <time>2015-06-10T13:46:16Z</time>
      </trkpt>
      <trkpt lat="48.21302" lon="-3.08564">
        <ele>161</ele>
        <time>2015-06-10T13:46:18Z</time>
      </trkpt>
      <trkpt lat="48.21302" lon="-3.08568">
        <ele>161</ele>
        <time>2015-06-10T13:46:20Z</time>
      </trkpt>
      <trkpt lat="48.21303" lon="-3.08571">
        <ele>161</ele>
        <time>2015-06-10T13:46:22Z</time>
      </trkpt>
      <trkpt lat="48.21304" lon="-3.08575">
        <ele>161</ele>
        <time>2015-06-10T13:46:24Z</time>
      </trkpt>
      <trkpt lat="48.21305" lon="-3.08579">
        <ele>161</ele>
        <time>2015-06-10T13:46:26Z</time>
      </trkpt>
      <trkpt lat="48.21307" lon="-3.08582">
        <ele>161</ele>
        <time>2015-06-10T13:46:28Z</time>
      </trkpt>
      <trkpt lat="48.21308" lon="-3.08586">
        <ele>161</ele>
        <time>2015-06-10T13:46:30Z</time>
      </trkpt>
      <trkpt lat="48.2131" lon="-3.08589">
        <ele>161</ele>
        <time>2015-06-10T13:46:32Z</time>
      </trkpt>
      <trkpt lat="48.21312" lon="-3.08592">
        <ele>161</ele>
        <time>2015-06-10T13:46:34Z</time>
      </trkpt>
      <trkpt lat="48.21315" lon="-3.08596">
        <ele>161</ele>
        <time>2015-06-10T13:46:37Z</time>
      </trkpt>
      <trkpt lat="48.21317" lon="-3.086">
        <ele>161</ele>
        <time>2015-06-10T13:46:39Z</time>
      </trkpt>
      <trkpt lat="48.21319" lon="-3.08604">
        <ele>161</ele>
        <time>2015-06-10T13:46:41Z</time>
      </trkpt>
      <trkpt lat="48.2132" lon="-3.08608">
        <ele>161</ele>
        <time>2015-06-10T13:46:43Z</time>
      </trkpt>
      <trkpt lat="48.21321" lon="-3.08612">
        <ele>161</ele>
        <time>2015-06-10T13:46:45Z</time>
      </trkpt>
      <trkpt lat="48.21322" lon="-3.08615">
        <ele>161</ele>
        <time>2015-06-10T13:46:47Z</time>
      </trkpt>
      <trkpt lat="48.21324" lon="-3.08619">
        <ele>161</ele>
        <time>2015-06-10T13:46:49Z</time>
      </trkpt>
      <trkpt lat="48.21325" lon="-3.08623">
        <ele>161</ele>
        <time>2015-06-10T13:46:51Z</time>
      </trkpt>
      <trkpt lat="48.21327" lon="-3.08627">
        <ele>161</ele>
        <time>2015-06-10T13:46:53Z</time>
      </trkpt>
      <trkpt lat="48.21327" lon="-3.0863">
        <ele>161</ele>
        <time>2015-06-10T13:46:55Z</time>
      </trkpt>
      <trkpt lat="48.21329" lon="-3.08634">
        <ele>161</ele>
        <time>2015-06-10T13:46:58Z</time>
      </trkpt>
      <trkpt lat="48.2133" lon="-3.08636">
        <ele>161</ele>
        <time>2015-06-10T13:47:01Z</time>
      </trkpt>
      <trkpt lat="48.21331" lon="-3.08636">
        <ele>161</ele>
        <time>2015-06-10T13:47:05Z</time>
      </trkpt>
      <trkpt lat="48.21331" lon="-3.08636">
        <ele>161</ele>
        <time>2015-06-10T13:47:07Z</time>
      </trkpt>
    </trkseg>
  </trk>
</gpx>